<?xml version="1.0" encoding="UTF-8" standalone="no" ?>
<gpx xmlns="http://www.topografix.com/GPX/1/1" xmlns:xsi="http://www.w3.org/2001/XMLSchema-instance" xsi:schemaLocation="http://www.topografix.com/GPX/1/1 http://www.topografix.com/GPX/1/1/gpx.xsd" version="1.1" creator="VisuGPX - https://www.visugpx.com">
  <metadata>
    <name>St Martin en Vercors - Villars de Lans par Herbouilly et retour par les Gorges de la Bourne</name>
    <desc><![CDATA[Départ St Martin en Vercors
Montée de la côte d'Herbouilly
Passage par Villars de Lans 
Retour par les Gorges de la Bourne (EXCEPTIONNEL !)]]></desc>
  </metadata>
  <trk>
    <name><![CDATA[Villard de lans par herbouis]]></name>
    <desc><![CDATA[Villard de lans par herbouis]]></desc>
    <trkseg>
      <trkpt lat="45.02214" lon="5.44295">
        <ele>754.7</ele>
        <time>2016-09-11T08:56:39Z</time>
      </trkpt>
      <trkpt lat="45.02222" lon="5.4429">
        <ele>742</ele>
        <time>2016-09-11T08:56:39Z</time>
      </trkpt>
      <trkpt lat="45.02222" lon="5.443">
        <ele>741</ele>
        <time>2016-09-11T08:56:44Z</time>
      </trkpt>
      <trkpt lat="45.02227" lon="5.44297">
        <ele>742</ele>
        <time>2016-09-11T08:56:47Z</time>
      </trkpt>
      <trkpt lat="45.02227" lon="5.44291">
        <ele>740</ele>
        <time>2016-09-11T08:56:49Z</time>
      </trkpt>
      <trkpt lat="45.02224" lon="5.44296">
        <ele>741</ele>
        <time>2016-09-11T08:56:53Z</time>
      </trkpt>
      <trkpt lat="45.02224" lon="5.44297">
        <ele>742</ele>
        <time>2016-09-11T08:57:13Z</time>
      </trkpt>
      <trkpt lat="45.02224" lon="5.44297">
        <ele>744</ele>
        <time>2016-09-11T08:57:16Z</time>
      </trkpt>
      <trkpt lat="45.02224" lon="5.44297">
        <ele>745</ele>
        <time>2016-09-11T08:57:43Z</time>
      </trkpt>
      <trkpt lat="45.02224" lon="5.44297">
        <ele>748</ele>
        <time>2016-09-11T08:57:46Z</time>
      </trkpt>
      <trkpt lat="45.02225" lon="5.44297">
        <ele>749</ele>
        <time>2016-09-11T08:58:13Z</time>
      </trkpt>
      <trkpt lat="45.02225" lon="5.44297">
        <ele>749</ele>
        <time>2016-09-11T08:58:16Z</time>
      </trkpt>
      <trkpt lat="45.02225" lon="5.44297">
        <ele>749</ele>
        <time>2016-09-11T08:58:43Z</time>
      </trkpt>
      <trkpt lat="45.02225" lon="5.44297">
        <ele>749</ele>
        <time>2016-09-11T08:58:46Z</time>
      </trkpt>
      <trkpt lat="45.02225" lon="5.44297">
        <ele>749</ele>
        <time>2016-09-11T08:59:13Z</time>
      </trkpt>
      <trkpt lat="45.02225" lon="5.44297">
        <ele>749</ele>
        <time>2016-09-11T08:59:16Z</time>
      </trkpt>
      <trkpt lat="45.02225" lon="5.44297">
        <ele>749</ele>
        <time>2016-09-11T08:59:43Z</time>
      </trkpt>
      <trkpt lat="45.02225" lon="5.44297">
        <ele>749</ele>
        <time>2016-09-11T08:59:46Z</time>
      </trkpt>
      <trkpt lat="45.02225" lon="5.44297">
        <ele>750</ele>
        <time>2016-09-11T09:00:13Z</time>
      </trkpt>
      <trkpt lat="45.02225" lon="5.44297">
        <ele>750</ele>
        <time>2016-09-11T09:00:14Z</time>
      </trkpt>
      <trkpt lat="45.02225" lon="5.44297">
        <ele>750</ele>
        <time>2016-09-11T09:00:43Z</time>
      </trkpt>
      <trkpt lat="45.02225" lon="5.44297">
        <ele>750</ele>
        <time>2016-09-11T09:00:46Z</time>
      </trkpt>
      <trkpt lat="45.02225" lon="5.44297">
        <ele>750</ele>
        <time>2016-09-11T09:01:13Z</time>
      </trkpt>
      <trkpt lat="45.02225" lon="5.44297">
        <ele>750</ele>
        <time>2016-09-11T09:01:16Z</time>
      </trkpt>
      <trkpt lat="45.02226" lon="5.44298">
        <ele>750</ele>
        <time>2016-09-11T09:01:43Z</time>
      </trkpt>
      <trkpt lat="45.02226" lon="5.44298">
        <ele>750</ele>
        <time>2016-09-11T09:01:46Z</time>
      </trkpt>
      <trkpt lat="45.02221" lon="5.44301">
        <ele>750</ele>
        <time>2016-09-11T09:02:03Z</time>
      </trkpt>
      <trkpt lat="45.02217" lon="5.44298">
        <ele>751</ele>
        <time>2016-09-11T09:02:06Z</time>
      </trkpt>
      <trkpt lat="45.02213" lon="5.44295">
        <ele>751</ele>
        <time>2016-09-11T09:02:08Z</time>
      </trkpt>
      <trkpt lat="45.02209" lon="5.44293">
        <ele>752</ele>
        <time>2016-09-11T09:02:10Z</time>
      </trkpt>
      <trkpt lat="45.02202" lon="5.44289">
        <ele>752</ele>
        <time>2016-09-11T09:02:12Z</time>
      </trkpt>
      <trkpt lat="45.02196" lon="5.44286">
        <ele>752</ele>
        <time>2016-09-11T09:02:14Z</time>
      </trkpt>
      <trkpt lat="45.0219" lon="5.44283">
        <ele>751</ele>
        <time>2016-09-11T09:02:16Z</time>
      </trkpt>
      <trkpt lat="45.02183" lon="5.4428">
        <ele>751</ele>
        <time>2016-09-11T09:02:18Z</time>
      </trkpt>
      <trkpt lat="45.02177" lon="5.44278">
        <ele>751</ele>
        <time>2016-09-11T09:02:20Z</time>
      </trkpt>
      <trkpt lat="45.02171" lon="5.44274">
        <ele>751</ele>
        <time>2016-09-11T09:02:22Z</time>
      </trkpt>
      <trkpt lat="45.02166" lon="5.44271">
        <ele>750</ele>
        <time>2016-09-11T09:02:25Z</time>
      </trkpt>
      <trkpt lat="45.02168" lon="5.44277">
        <ele>750</ele>
        <time>2016-09-11T09:02:30Z</time>
      </trkpt>
      <trkpt lat="45.02174" lon="5.44278">
        <ele>750</ele>
        <time>2016-09-11T09:02:33Z</time>
      </trkpt>
      <trkpt lat="45.02179" lon="5.4428">
        <ele>750</ele>
        <time>2016-09-11T09:02:35Z</time>
      </trkpt>
      <trkpt lat="45.02184" lon="5.44281">
        <ele>749</ele>
        <time>2016-09-11T09:02:37Z</time>
      </trkpt>
      <trkpt lat="45.0219" lon="5.44283">
        <ele>749</ele>
        <time>2016-09-11T09:02:40Z</time>
      </trkpt>
      <trkpt lat="45.02196" lon="5.44284">
        <ele>749</ele>
        <time>2016-09-11T09:02:43Z</time>
      </trkpt>
      <trkpt lat="45.02202" lon="5.44285">
        <ele>749</ele>
        <time>2016-09-11T09:02:45Z</time>
      </trkpt>
      <trkpt lat="45.02207" lon="5.44287">
        <ele>748</ele>
        <time>2016-09-11T09:02:47Z</time>
      </trkpt>
      <trkpt lat="45.02213" lon="5.44288">
        <ele>747</ele>
        <time>2016-09-11T09:02:49Z</time>
      </trkpt>
      <trkpt lat="45.02218" lon="5.4429">
        <ele>747</ele>
        <time>2016-09-11T09:02:51Z</time>
      </trkpt>
      <trkpt lat="45.02223" lon="5.44292">
        <ele>746</ele>
        <time>2016-09-11T09:02:53Z</time>
      </trkpt>
      <trkpt lat="45.02228" lon="5.44294">
        <ele>745</ele>
        <time>2016-09-11T09:02:55Z</time>
      </trkpt>
      <trkpt lat="45.02233" lon="5.44296">
        <ele>745</ele>
        <time>2016-09-11T09:02:57Z</time>
      </trkpt>
      <trkpt lat="45.02239" lon="5.44298">
        <ele>744</ele>
        <time>2016-09-11T09:02:59Z</time>
      </trkpt>
      <trkpt lat="45.02245" lon="5.443">
        <ele>744</ele>
        <time>2016-09-11T09:03:01Z</time>
      </trkpt>
      <trkpt lat="45.02253" lon="5.44303">
        <ele>744</ele>
        <time>2016-09-11T09:03:03Z</time>
      </trkpt>
      <trkpt lat="45.02261" lon="5.44305">
        <ele>743</ele>
        <time>2016-09-11T09:03:05Z</time>
      </trkpt>
      <trkpt lat="45.02266" lon="5.44306">
        <ele>743</ele>
        <time>2016-09-11T09:03:06Z</time>
      </trkpt>
      <trkpt lat="45.02274" lon="5.44308">
        <ele>742</ele>
        <time>2016-09-11T09:03:07Z</time>
      </trkpt>
      <trkpt lat="45.02282" lon="5.44311">
        <ele>741</ele>
        <time>2016-09-11T09:03:09Z</time>
      </trkpt>
      <trkpt lat="45.02287" lon="5.44313">
        <ele>741</ele>
        <time>2016-09-11T09:03:10Z</time>
      </trkpt>
      <trkpt lat="45.02292" lon="5.44314">
        <ele>741</ele>
        <time>2016-09-11T09:03:11Z</time>
      </trkpt>
      <trkpt lat="45.02301" lon="5.44316">
        <ele>740</ele>
        <time>2016-09-11T09:03:13Z</time>
      </trkpt>
      <trkpt lat="45.02306" lon="5.44318">
        <ele>740</ele>
        <time>2016-09-11T09:03:14Z</time>
      </trkpt>
      <trkpt lat="45.02315" lon="5.44321">
        <ele>739</ele>
        <time>2016-09-11T09:03:16Z</time>
      </trkpt>
      <trkpt lat="45.02319" lon="5.44323">
        <ele>738</ele>
        <time>2016-09-11T09:03:17Z</time>
      </trkpt>
      <trkpt lat="45.02325" lon="5.44325">
        <ele>737</ele>
        <time>2016-09-11T09:03:18Z</time>
      </trkpt>
      <trkpt lat="45.0233" lon="5.44327">
        <ele>736</ele>
        <time>2016-09-11T09:03:19Z</time>
      </trkpt>
      <trkpt lat="45.02337" lon="5.44329">
        <ele>735</ele>
        <time>2016-09-11T09:03:20Z</time>
      </trkpt>
      <trkpt lat="45.02344" lon="5.44333">
        <ele>735</ele>
        <time>2016-09-11T09:03:21Z</time>
      </trkpt>
      <trkpt lat="45.02349" lon="5.44334">
        <ele>734</ele>
        <time>2016-09-11T09:03:22Z</time>
      </trkpt>
      <trkpt lat="45.02354" lon="5.44336">
        <ele>734</ele>
        <time>2016-09-11T09:03:23Z</time>
      </trkpt>
      <trkpt lat="45.02359" lon="5.44338">
        <ele>733</ele>
        <time>2016-09-11T09:03:24Z</time>
      </trkpt>
      <trkpt lat="45.02364" lon="5.4434">
        <ele>732</ele>
        <time>2016-09-11T09:03:25Z</time>
      </trkpt>
      <trkpt lat="45.0237" lon="5.44342">
        <ele>731</ele>
        <time>2016-09-11T09:03:26Z</time>
      </trkpt>
      <trkpt lat="45.02376" lon="5.44344">
        <ele>731</ele>
        <time>2016-09-11T09:03:27Z</time>
      </trkpt>
      <trkpt lat="45.02381" lon="5.44345">
        <ele>730</ele>
        <time>2016-09-11T09:03:28Z</time>
      </trkpt>
      <trkpt lat="45.02386" lon="5.44346">
        <ele>730</ele>
        <time>2016-09-11T09:03:29Z</time>
      </trkpt>
      <trkpt lat="45.02393" lon="5.44348">
        <ele>730</ele>
        <time>2016-09-11T09:03:30Z</time>
      </trkpt>
      <trkpt lat="45.02398" lon="5.44349">
        <ele>730</ele>
        <time>2016-09-11T09:03:31Z</time>
      </trkpt>
      <trkpt lat="45.02405" lon="5.44352">
        <ele>729</ele>
        <time>2016-09-11T09:03:32Z</time>
      </trkpt>
      <trkpt lat="45.02412" lon="5.44355">
        <ele>729</ele>
        <time>2016-09-11T09:03:33Z</time>
      </trkpt>
      <trkpt lat="45.0242" lon="5.44358">
        <ele>730</ele>
        <time>2016-09-11T09:03:34Z</time>
      </trkpt>
      <trkpt lat="45.02427" lon="5.4436">
        <ele>730</ele>
        <time>2016-09-11T09:03:35Z</time>
      </trkpt>
      <trkpt lat="45.02435" lon="5.44363">
        <ele>731</ele>
        <time>2016-09-11T09:03:36Z</time>
      </trkpt>
      <trkpt lat="45.02442" lon="5.44366">
        <ele>732</ele>
        <time>2016-09-11T09:03:37Z</time>
      </trkpt>
      <trkpt lat="45.02449" lon="5.44368">
        <ele>733</ele>
        <time>2016-09-11T09:03:38Z</time>
      </trkpt>
      <trkpt lat="45.02457" lon="5.44371">
        <ele>735</ele>
        <time>2016-09-11T09:03:39Z</time>
      </trkpt>
      <trkpt lat="45.02464" lon="5.44369">
        <ele>736</ele>
        <time>2016-09-11T09:03:40Z</time>
      </trkpt>
      <trkpt lat="45.0247" lon="5.44373">
        <ele>736</ele>
        <time>2016-09-11T09:03:41Z</time>
      </trkpt>
      <trkpt lat="45.02477" lon="5.44376">
        <ele>737</ele>
        <time>2016-09-11T09:03:42Z</time>
      </trkpt>
      <trkpt lat="45.02483" lon="5.44378">
        <ele>738</ele>
        <time>2016-09-11T09:03:43Z</time>
      </trkpt>
      <trkpt lat="45.0249" lon="5.44381">
        <ele>739</ele>
        <time>2016-09-11T09:03:44Z</time>
      </trkpt>
      <trkpt lat="45.02497" lon="5.44384">
        <ele>740</ele>
        <time>2016-09-11T09:03:45Z</time>
      </trkpt>
      <trkpt lat="45.02503" lon="5.44385">
        <ele>741</ele>
        <time>2016-09-11T09:03:46Z</time>
      </trkpt>
      <trkpt lat="45.02509" lon="5.44383">
        <ele>742</ele>
        <time>2016-09-11T09:03:47Z</time>
      </trkpt>
      <trkpt lat="45.02514" lon="5.44383">
        <ele>742</ele>
        <time>2016-09-11T09:03:48Z</time>
      </trkpt>
      <trkpt lat="45.02519" lon="5.44383">
        <ele>742</ele>
        <time>2016-09-11T09:03:49Z</time>
      </trkpt>
      <trkpt lat="45.02525" lon="5.44383">
        <ele>741</ele>
        <time>2016-09-11T09:03:50Z</time>
      </trkpt>
      <trkpt lat="45.0253" lon="5.44383">
        <ele>741</ele>
        <time>2016-09-11T09:03:51Z</time>
      </trkpt>
      <trkpt lat="45.02541" lon="5.44384">
        <ele>741</ele>
        <time>2016-09-11T09:03:53Z</time>
      </trkpt>
      <trkpt lat="45.02546" lon="5.44384">
        <ele>741</ele>
        <time>2016-09-11T09:03:54Z</time>
      </trkpt>
      <trkpt lat="45.02552" lon="5.44384">
        <ele>741</ele>
        <time>2016-09-11T09:03:55Z</time>
      </trkpt>
      <trkpt lat="45.02556" lon="5.44384">
        <ele>741</ele>
        <time>2016-09-11T09:03:56Z</time>
      </trkpt>
      <trkpt lat="45.02564" lon="5.44386">
        <ele>741</ele>
        <time>2016-09-11T09:03:58Z</time>
      </trkpt>
      <trkpt lat="45.02568" lon="5.44385">
        <ele>741</ele>
        <time>2016-09-11T09:04:00Z</time>
      </trkpt>
      <trkpt lat="45.02574" lon="5.44384">
        <ele>741</ele>
        <time>2016-09-11T09:04:03Z</time>
      </trkpt>
      <trkpt lat="45.02576" lon="5.44378">
        <ele>742</ele>
        <time>2016-09-11T09:04:06Z</time>
      </trkpt>
      <trkpt lat="45.02571" lon="5.44376">
        <ele>743</ele>
        <time>2016-09-11T09:04:10Z</time>
      </trkpt>
      <trkpt lat="45.02567" lon="5.44378">
        <ele>744</ele>
        <time>2016-09-11T09:04:12Z</time>
      </trkpt>
      <trkpt lat="45.02559" lon="5.4438">
        <ele>744</ele>
        <time>2016-09-11T09:04:14Z</time>
      </trkpt>
      <trkpt lat="45.02552" lon="5.4438">
        <ele>745</ele>
        <time>2016-09-11T09:04:16Z</time>
      </trkpt>
      <trkpt lat="45.02544" lon="5.44379">
        <ele>745</ele>
        <time>2016-09-11T09:04:18Z</time>
      </trkpt>
      <trkpt lat="45.02539" lon="5.44379">
        <ele>745</ele>
        <time>2016-09-11T09:04:19Z</time>
      </trkpt>
      <trkpt lat="45.02535" lon="5.44379">
        <ele>744</ele>
        <time>2016-09-11T09:04:20Z</time>
      </trkpt>
      <trkpt lat="45.02529" lon="5.4438">
        <ele>744</ele>
        <time>2016-09-11T09:04:21Z</time>
      </trkpt>
      <trkpt lat="45.02524" lon="5.4438">
        <ele>744</ele>
        <time>2016-09-11T09:04:22Z</time>
      </trkpt>
      <trkpt lat="45.02518" lon="5.44379">
        <ele>743</ele>
        <time>2016-09-11T09:04:23Z</time>
      </trkpt>
      <trkpt lat="45.02512" lon="5.4438">
        <ele>744</ele>
        <time>2016-09-11T09:04:24Z</time>
      </trkpt>
      <trkpt lat="45.02506" lon="5.44379">
        <ele>744</ele>
        <time>2016-09-11T09:04:25Z</time>
      </trkpt>
      <trkpt lat="45.025" lon="5.44378">
        <ele>744</ele>
        <time>2016-09-11T09:04:26Z</time>
      </trkpt>
      <trkpt lat="45.02495" lon="5.44377">
        <ele>744</ele>
        <time>2016-09-11T09:04:27Z</time>
      </trkpt>
      <trkpt lat="45.02488" lon="5.44376">
        <ele>745</ele>
        <time>2016-09-11T09:04:28Z</time>
      </trkpt>
      <trkpt lat="45.02482" lon="5.44374">
        <ele>745</ele>
        <time>2016-09-11T09:04:29Z</time>
      </trkpt>
      <trkpt lat="45.02476" lon="5.44372">
        <ele>745</ele>
        <time>2016-09-11T09:04:30Z</time>
      </trkpt>
      <trkpt lat="45.0247" lon="5.4437">
        <ele>745</ele>
        <time>2016-09-11T09:04:31Z</time>
      </trkpt>
      <trkpt lat="45.02464" lon="5.44369">
        <ele>745</ele>
        <time>2016-09-11T09:04:32Z</time>
      </trkpt>
      <trkpt lat="45.02458" lon="5.44368">
        <ele>745</ele>
        <time>2016-09-11T09:04:33Z</time>
      </trkpt>
      <trkpt lat="45.02453" lon="5.44367">
        <ele>745</ele>
        <time>2016-09-11T09:04:34Z</time>
      </trkpt>
      <trkpt lat="45.02447" lon="5.44365">
        <ele>745</ele>
        <time>2016-09-11T09:04:35Z</time>
      </trkpt>
      <trkpt lat="45.02442" lon="5.44365">
        <ele>745</ele>
        <time>2016-09-11T09:04:36Z</time>
      </trkpt>
      <trkpt lat="45.02437" lon="5.44363">
        <ele>746</ele>
        <time>2016-09-11T09:04:37Z</time>
      </trkpt>
      <trkpt lat="45.02432" lon="5.44361">
        <ele>746</ele>
        <time>2016-09-11T09:04:38Z</time>
      </trkpt>
      <trkpt lat="45.02426" lon="5.4436">
        <ele>746</ele>
        <time>2016-09-11T09:04:39Z</time>
      </trkpt>
      <trkpt lat="45.02421" lon="5.44359">
        <ele>746</ele>
        <time>2016-09-11T09:04:40Z</time>
      </trkpt>
      <trkpt lat="45.02416" lon="5.44358">
        <ele>746</ele>
        <time>2016-09-11T09:04:41Z</time>
      </trkpt>
      <trkpt lat="45.02411" lon="5.44356">
        <ele>746</ele>
        <time>2016-09-11T09:04:42Z</time>
      </trkpt>
      <trkpt lat="45.02405" lon="5.44355">
        <ele>746</ele>
        <time>2016-09-11T09:04:43Z</time>
      </trkpt>
      <trkpt lat="45.02398" lon="5.44354">
        <ele>746</ele>
        <time>2016-09-11T09:04:44Z</time>
      </trkpt>
      <trkpt lat="45.02393" lon="5.44352">
        <ele>746</ele>
        <time>2016-09-11T09:04:45Z</time>
      </trkpt>
      <trkpt lat="45.02388" lon="5.4435">
        <ele>746</ele>
        <time>2016-09-11T09:04:46Z</time>
      </trkpt>
      <trkpt lat="45.02382" lon="5.44347">
        <ele>746</ele>
        <time>2016-09-11T09:04:47Z</time>
      </trkpt>
      <trkpt lat="45.02377" lon="5.44345">
        <ele>746</ele>
        <time>2016-09-11T09:04:48Z</time>
      </trkpt>
      <trkpt lat="45.02371" lon="5.44342">
        <ele>746</ele>
        <time>2016-09-11T09:04:49Z</time>
      </trkpt>
      <trkpt lat="45.02366" lon="5.4434">
        <ele>746</ele>
        <time>2016-09-11T09:04:50Z</time>
      </trkpt>
      <trkpt lat="45.0236" lon="5.44337">
        <ele>746</ele>
        <time>2016-09-11T09:04:51Z</time>
      </trkpt>
      <trkpt lat="45.02354" lon="5.44335">
        <ele>746</ele>
        <time>2016-09-11T09:04:52Z</time>
      </trkpt>
      <trkpt lat="45.02349" lon="5.44333">
        <ele>746</ele>
        <time>2016-09-11T09:04:53Z</time>
      </trkpt>
      <trkpt lat="45.02343" lon="5.44332">
        <ele>746</ele>
        <time>2016-09-11T09:04:54Z</time>
      </trkpt>
      <trkpt lat="45.02338" lon="5.4433">
        <ele>746</ele>
        <time>2016-09-11T09:04:55Z</time>
      </trkpt>
      <trkpt lat="45.02333" lon="5.44328">
        <ele>746</ele>
        <time>2016-09-11T09:04:56Z</time>
      </trkpt>
      <trkpt lat="45.02327" lon="5.44327">
        <ele>746</ele>
        <time>2016-09-11T09:04:57Z</time>
      </trkpt>
      <trkpt lat="45.02322" lon="5.44326">
        <ele>746</ele>
        <time>2016-09-11T09:04:58Z</time>
      </trkpt>
      <trkpt lat="45.02317" lon="5.44325">
        <ele>746</ele>
        <time>2016-09-11T09:04:59Z</time>
      </trkpt>
      <trkpt lat="45.02312" lon="5.44323">
        <ele>746</ele>
        <time>2016-09-11T09:05:00Z</time>
      </trkpt>
      <trkpt lat="45.02306" lon="5.44322">
        <ele>746</ele>
        <time>2016-09-11T09:05:01Z</time>
      </trkpt>
      <trkpt lat="45.02301" lon="5.4432">
        <ele>747</ele>
        <time>2016-09-11T09:05:02Z</time>
      </trkpt>
      <trkpt lat="45.02296" lon="5.4432">
        <ele>747</ele>
        <time>2016-09-11T09:05:03Z</time>
      </trkpt>
      <trkpt lat="45.0229" lon="5.4432">
        <ele>747</ele>
        <time>2016-09-11T09:05:04Z</time>
      </trkpt>
      <trkpt lat="45.02286" lon="5.4432">
        <ele>747</ele>
        <time>2016-09-11T09:05:05Z</time>
      </trkpt>
      <trkpt lat="45.02281" lon="5.44318">
        <ele>748</ele>
        <time>2016-09-11T09:05:06Z</time>
      </trkpt>
      <trkpt lat="45.02276" lon="5.44317">
        <ele>748</ele>
        <time>2016-09-11T09:05:07Z</time>
      </trkpt>
      <trkpt lat="45.02271" lon="5.44316">
        <ele>748</ele>
        <time>2016-09-11T09:05:08Z</time>
      </trkpt>
      <trkpt lat="45.02266" lon="5.44314">
        <ele>748</ele>
        <time>2016-09-11T09:05:09Z</time>
      </trkpt>
      <trkpt lat="45.02261" lon="5.44312">
        <ele>749</ele>
        <time>2016-09-11T09:05:10Z</time>
      </trkpt>
      <trkpt lat="45.02256" lon="5.4431">
        <ele>749</ele>
        <time>2016-09-11T09:05:11Z</time>
      </trkpt>
      <trkpt lat="45.02251" lon="5.44308">
        <ele>748</ele>
        <time>2016-09-11T09:05:12Z</time>
      </trkpt>
      <trkpt lat="45.02246" lon="5.44306">
        <ele>748</ele>
        <time>2016-09-11T09:05:13Z</time>
      </trkpt>
      <trkpt lat="45.02243" lon="5.44302">
        <ele>748</ele>
        <time>2016-09-11T09:05:14Z</time>
      </trkpt>
      <trkpt lat="45.02237" lon="5.44297">
        <ele>748</ele>
        <time>2016-09-11T09:05:16Z</time>
      </trkpt>
      <trkpt lat="45.02234" lon="5.44293">
        <ele>748</ele>
        <time>2016-09-11T09:05:19Z</time>
      </trkpt>
      <trkpt lat="45.02231" lon="5.44291">
        <ele>748</ele>
        <time>2016-09-11T09:05:43Z</time>
      </trkpt>
      <trkpt lat="45.02232" lon="5.44291">
        <ele>747</ele>
        <time>2016-09-11T09:05:46Z</time>
      </trkpt>
      <trkpt lat="45.02235" lon="5.44296">
        <ele>748</ele>
        <time>2016-09-11T09:05:54Z</time>
      </trkpt>
      <trkpt lat="45.02239" lon="5.44301">
        <ele>748</ele>
        <time>2016-09-11T09:05:59Z</time>
      </trkpt>
      <trkpt lat="45.02233" lon="5.44298">
        <ele>748</ele>
        <time>2016-09-11T09:06:03Z</time>
      </trkpt>
      <trkpt lat="45.02228" lon="5.44295">
        <ele>748</ele>
        <time>2016-09-11T09:06:06Z</time>
      </trkpt>
      <trkpt lat="45.02222" lon="5.44292">
        <ele>748</ele>
        <time>2016-09-11T09:06:09Z</time>
      </trkpt>
      <trkpt lat="45.02217" lon="5.44288">
        <ele>748</ele>
        <time>2016-09-11T09:06:12Z</time>
      </trkpt>
      <trkpt lat="45.02212" lon="5.44283">
        <ele>747</ele>
        <time>2016-09-11T09:06:15Z</time>
      </trkpt>
      <trkpt lat="45.02207" lon="5.4428">
        <ele>746</ele>
        <time>2016-09-11T09:06:18Z</time>
      </trkpt>
      <trkpt lat="45.02202" lon="5.44278">
        <ele>745</ele>
        <time>2016-09-11T09:06:21Z</time>
      </trkpt>
      <trkpt lat="45.02195" lon="5.44275">
        <ele>744</ele>
        <time>2016-09-11T09:06:24Z</time>
      </trkpt>
      <trkpt lat="45.02191" lon="5.44274">
        <ele>743</ele>
        <time>2016-09-11T09:06:26Z</time>
      </trkpt>
      <trkpt lat="45.02185" lon="5.44273">
        <ele>743</ele>
        <time>2016-09-11T09:06:29Z</time>
      </trkpt>
      <trkpt lat="45.02181" lon="5.44271">
        <ele>743</ele>
        <time>2016-09-11T09:06:32Z</time>
      </trkpt>
      <trkpt lat="45.02176" lon="5.44268">
        <ele>744</ele>
        <time>2016-09-11T09:06:36Z</time>
      </trkpt>
      <trkpt lat="45.02171" lon="5.44268">
        <ele>744</ele>
        <time>2016-09-11T09:06:40Z</time>
      </trkpt>
      <trkpt lat="45.02165" lon="5.44265">
        <ele>744</ele>
        <time>2016-09-11T09:06:43Z</time>
      </trkpt>
      <trkpt lat="45.0216" lon="5.44264">
        <ele>745</ele>
        <time>2016-09-11T09:06:45Z</time>
      </trkpt>
      <trkpt lat="45.02155" lon="5.44262">
        <ele>745</ele>
        <time>2016-09-11T09:06:47Z</time>
      </trkpt>
      <trkpt lat="45.02149" lon="5.44258">
        <ele>744</ele>
        <time>2016-09-11T09:06:49Z</time>
      </trkpt>
      <trkpt lat="45.02146" lon="5.4425">
        <ele>744</ele>
        <time>2016-09-11T09:06:51Z</time>
      </trkpt>
      <trkpt lat="45.02147" lon="5.44242">
        <ele>745</ele>
        <time>2016-09-11T09:06:53Z</time>
      </trkpt>
      <trkpt lat="45.02149" lon="5.44235">
        <ele>746</ele>
        <time>2016-09-11T09:06:55Z</time>
      </trkpt>
      <trkpt lat="45.02153" lon="5.44229">
        <ele>747</ele>
        <time>2016-09-11T09:06:57Z</time>
      </trkpt>
      <trkpt lat="45.02156" lon="5.44224">
        <ele>749</ele>
        <time>2016-09-11T09:06:59Z</time>
      </trkpt>
      <trkpt lat="45.0216" lon="5.44219">
        <ele>750</ele>
        <time>2016-09-11T09:07:02Z</time>
      </trkpt>
      <trkpt lat="45.02165" lon="5.44216">
        <ele>751</ele>
        <time>2016-09-11T09:07:05Z</time>
      </trkpt>
      <trkpt lat="45.02162" lon="5.44223">
        <ele>752</ele>
        <time>2016-09-11T09:07:11Z</time>
      </trkpt>
      <trkpt lat="45.02156" lon="5.44225">
        <ele>753</ele>
        <time>2016-09-11T09:07:13Z</time>
      </trkpt>
      <trkpt lat="45.02151" lon="5.44229">
        <ele>754</ele>
        <time>2016-09-11T09:07:15Z</time>
      </trkpt>
      <trkpt lat="45.02148" lon="5.44237">
        <ele>754</ele>
        <time>2016-09-11T09:07:17Z</time>
      </trkpt>
      <trkpt lat="45.02146" lon="5.44244">
        <ele>754</ele>
        <time>2016-09-11T09:07:19Z</time>
      </trkpt>
      <trkpt lat="45.02143" lon="5.44251">
        <ele>753</ele>
        <time>2016-09-11T09:07:21Z</time>
      </trkpt>
      <trkpt lat="45.02142" lon="5.44258">
        <ele>753</ele>
        <time>2016-09-11T09:07:23Z</time>
      </trkpt>
      <trkpt lat="45.02145" lon="5.44264">
        <ele>753</ele>
        <time>2016-09-11T09:07:25Z</time>
      </trkpt>
      <trkpt lat="45.02149" lon="5.44269">
        <ele>753</ele>
        <time>2016-09-11T09:07:27Z</time>
      </trkpt>
      <trkpt lat="45.02154" lon="5.44273">
        <ele>754</ele>
        <time>2016-09-11T09:07:29Z</time>
      </trkpt>
      <trkpt lat="45.0216" lon="5.44276">
        <ele>754</ele>
        <time>2016-09-11T09:07:31Z</time>
      </trkpt>
      <trkpt lat="45.02165" lon="5.4428">
        <ele>754</ele>
        <time>2016-09-11T09:07:33Z</time>
      </trkpt>
      <trkpt lat="45.02169" lon="5.44284">
        <ele>754</ele>
        <time>2016-09-11T09:07:35Z</time>
      </trkpt>
      <trkpt lat="45.02174" lon="5.44286">
        <ele>754</ele>
        <time>2016-09-11T09:07:37Z</time>
      </trkpt>
      <trkpt lat="45.0218" lon="5.44286">
        <ele>755</ele>
        <time>2016-09-11T09:07:39Z</time>
      </trkpt>
      <trkpt lat="45.02186" lon="5.44286">
        <ele>755</ele>
        <time>2016-09-11T09:07:41Z</time>
      </trkpt>
      <trkpt lat="45.02192" lon="5.44287">
        <ele>755</ele>
        <time>2016-09-11T09:07:43Z</time>
      </trkpt>
      <trkpt lat="45.02199" lon="5.4429">
        <ele>755</ele>
        <time>2016-09-11T09:07:45Z</time>
      </trkpt>
      <trkpt lat="45.02206" lon="5.44293">
        <ele>755</ele>
        <time>2016-09-11T09:07:47Z</time>
      </trkpt>
      <trkpt lat="45.02213" lon="5.44296">
        <ele>755</ele>
        <time>2016-09-11T09:07:49Z</time>
      </trkpt>
      <trkpt lat="45.0222" lon="5.44299">
        <ele>755</ele>
        <time>2016-09-11T09:07:51Z</time>
      </trkpt>
      <trkpt lat="45.02227" lon="5.44302">
        <ele>753</ele>
        <time>2016-09-11T09:07:53Z</time>
      </trkpt>
      <trkpt lat="45.02234" lon="5.44305">
        <ele>752</ele>
        <time>2016-09-11T09:07:55Z</time>
      </trkpt>
      <trkpt lat="45.0224" lon="5.44309">
        <ele>751</ele>
        <time>2016-09-11T09:07:57Z</time>
      </trkpt>
      <trkpt lat="45.02245" lon="5.44312">
        <ele>751</ele>
        <time>2016-09-11T09:08:00Z</time>
      </trkpt>
      <trkpt lat="45.02241" lon="5.44306">
        <ele>750</ele>
        <time>2016-09-11T09:08:09Z</time>
      </trkpt>
      <trkpt lat="45.02234" lon="5.44303">
        <ele>751</ele>
        <time>2016-09-11T09:08:11Z</time>
      </trkpt>
      <trkpt lat="45.02226" lon="5.443">
        <ele>751</ele>
        <time>2016-09-11T09:08:13Z</time>
      </trkpt>
      <trkpt lat="45.02217" lon="5.44297">
        <ele>751</ele>
        <time>2016-09-11T09:08:15Z</time>
      </trkpt>
      <trkpt lat="45.02208" lon="5.44294">
        <ele>752</ele>
        <time>2016-09-11T09:08:17Z</time>
      </trkpt>
      <trkpt lat="45.02204" lon="5.44293">
        <ele>752</ele>
        <time>2016-09-11T09:08:18Z</time>
      </trkpt>
      <trkpt lat="45.02195" lon="5.44291">
        <ele>752</ele>
        <time>2016-09-11T09:08:20Z</time>
      </trkpt>
      <trkpt lat="45.02186" lon="5.44289">
        <ele>752</ele>
        <time>2016-09-11T09:08:22Z</time>
      </trkpt>
      <trkpt lat="45.02178" lon="5.44286">
        <ele>752</ele>
        <time>2016-09-11T09:08:24Z</time>
      </trkpt>
      <trkpt lat="45.02171" lon="5.44283">
        <ele>752</ele>
        <time>2016-09-11T09:08:26Z</time>
      </trkpt>
      <trkpt lat="45.02166" lon="5.44279">
        <ele>752</ele>
        <time>2016-09-11T09:08:28Z</time>
      </trkpt>
      <trkpt lat="45.02161" lon="5.44276">
        <ele>752</ele>
        <time>2016-09-11T09:08:30Z</time>
      </trkpt>
      <trkpt lat="45.02153" lon="5.44272">
        <ele>752</ele>
        <time>2016-09-11T09:08:32Z</time>
      </trkpt>
      <trkpt lat="45.02146" lon="5.44267">
        <ele>751</ele>
        <time>2016-09-11T09:08:34Z</time>
      </trkpt>
      <trkpt lat="45.02139" lon="5.44262">
        <ele>751</ele>
        <time>2016-09-11T09:08:36Z</time>
      </trkpt>
      <trkpt lat="45.02131" lon="5.44258">
        <ele>751</ele>
        <time>2016-09-11T09:08:38Z</time>
      </trkpt>
      <trkpt lat="45.02126" lon="5.44256">
        <ele>750</ele>
        <time>2016-09-11T09:08:40Z</time>
      </trkpt>
      <trkpt lat="45.02126" lon="5.44256">
        <ele>750</ele>
        <time>2016-09-11T09:08:58Z</time>
      </trkpt>
      <trkpt lat="45.02126" lon="5.44256">
        <ele>749</ele>
        <time>2016-09-11T09:09:01Z</time>
      </trkpt>
      <trkpt lat="45.02126" lon="5.44256">
        <ele>749</ele>
        <time>2016-09-11T09:09:28Z</time>
      </trkpt>
      <trkpt lat="45.02125" lon="5.44256">
        <ele>749</ele>
        <time>2016-09-11T09:09:31Z</time>
      </trkpt>
      <trkpt lat="45.02119" lon="5.44253">
        <ele>749</ele>
        <time>2016-09-11T09:09:42Z</time>
      </trkpt>
      <trkpt lat="45.02114" lon="5.4425">
        <ele>749</ele>
        <time>2016-09-11T09:09:44Z</time>
      </trkpt>
      <trkpt lat="45.02107" lon="5.44246">
        <ele>750</ele>
        <time>2016-09-11T09:09:46Z</time>
      </trkpt>
      <trkpt lat="45.02099" lon="5.44241">
        <ele>749</ele>
        <time>2016-09-11T09:09:48Z</time>
      </trkpt>
      <trkpt lat="45.02091" lon="5.44237">
        <ele>749</ele>
        <time>2016-09-11T09:09:50Z</time>
      </trkpt>
      <trkpt lat="45.02084" lon="5.44235">
        <ele>748</ele>
        <time>2016-09-11T09:09:52Z</time>
      </trkpt>
      <trkpt lat="45.02079" lon="5.44236">
        <ele>747</ele>
        <time>2016-09-11T09:09:54Z</time>
      </trkpt>
      <trkpt lat="45.02081" lon="5.44244">
        <ele>747</ele>
        <time>2016-09-11T09:09:57Z</time>
      </trkpt>
      <trkpt lat="45.02087" lon="5.44243">
        <ele>746</ele>
        <time>2016-09-11T09:09:59Z</time>
      </trkpt>
      <trkpt lat="45.02092" lon="5.44242">
        <ele>746</ele>
        <time>2016-09-11T09:10:01Z</time>
      </trkpt>
      <trkpt lat="45.02097" lon="5.44243">
        <ele>746</ele>
        <time>2016-09-11T09:10:03Z</time>
      </trkpt>
      <trkpt lat="45.02104" lon="5.44246">
        <ele>746</ele>
        <time>2016-09-11T09:10:05Z</time>
      </trkpt>
      <trkpt lat="45.02111" lon="5.44248">
        <ele>747</ele>
        <time>2016-09-11T09:10:07Z</time>
      </trkpt>
      <trkpt lat="45.02117" lon="5.44251">
        <ele>748</ele>
        <time>2016-09-11T09:10:09Z</time>
      </trkpt>
      <trkpt lat="45.02124" lon="5.44255">
        <ele>748</ele>
        <time>2016-09-11T09:10:11Z</time>
      </trkpt>
      <trkpt lat="45.02132" lon="5.44259">
        <ele>749</ele>
        <time>2016-09-11T09:10:13Z</time>
      </trkpt>
      <trkpt lat="45.02139" lon="5.44262">
        <ele>750</ele>
        <time>2016-09-11T09:10:15Z</time>
      </trkpt>
      <trkpt lat="45.02147" lon="5.44267">
        <ele>751</ele>
        <time>2016-09-11T09:10:17Z</time>
      </trkpt>
      <trkpt lat="45.02154" lon="5.44272">
        <ele>751</ele>
        <time>2016-09-11T09:10:19Z</time>
      </trkpt>
      <trkpt lat="45.0216" lon="5.44277">
        <ele>751</ele>
        <time>2016-09-11T09:10:21Z</time>
      </trkpt>
      <trkpt lat="45.02163" lon="5.44281">
        <ele>751</ele>
        <time>2016-09-11T09:10:23Z</time>
      </trkpt>
      <trkpt lat="45.02168" lon="5.44285">
        <ele>751</ele>
        <time>2016-09-11T09:10:25Z</time>
      </trkpt>
      <trkpt lat="45.02174" lon="5.44287">
        <ele>751</ele>
        <time>2016-09-11T09:10:27Z</time>
      </trkpt>
      <trkpt lat="45.02179" lon="5.44289">
        <ele>751</ele>
        <time>2016-09-11T09:10:29Z</time>
      </trkpt>
      <trkpt lat="45.02185" lon="5.44289">
        <ele>751</ele>
        <time>2016-09-11T09:10:31Z</time>
      </trkpt>
      <trkpt lat="45.02192" lon="5.44292">
        <ele>751</ele>
        <time>2016-09-11T09:10:33Z</time>
      </trkpt>
      <trkpt lat="45.022" lon="5.44295">
        <ele>751</ele>
        <time>2016-09-11T09:10:35Z</time>
      </trkpt>
      <trkpt lat="45.02208" lon="5.44297">
        <ele>751</ele>
        <time>2016-09-11T09:10:37Z</time>
      </trkpt>
      <trkpt lat="45.02216" lon="5.443">
        <ele>750</ele>
        <time>2016-09-11T09:10:39Z</time>
      </trkpt>
      <trkpt lat="45.02224" lon="5.44302">
        <ele>750</ele>
        <time>2016-09-11T09:10:41Z</time>
      </trkpt>
      <trkpt lat="45.02231" lon="5.44304">
        <ele>750</ele>
        <time>2016-09-11T09:10:43Z</time>
      </trkpt>
      <trkpt lat="45.02236" lon="5.44305">
        <ele>749</ele>
        <time>2016-09-11T09:10:46Z</time>
      </trkpt>
      <trkpt lat="45.0224" lon="5.4431">
        <ele>749</ele>
        <time>2016-09-11T09:10:49Z</time>
      </trkpt>
      <trkpt lat="45.02245" lon="5.4431">
        <ele>749</ele>
        <time>2016-09-11T09:10:52Z</time>
      </trkpt>
      <trkpt lat="45.0225" lon="5.44312">
        <ele>749</ele>
        <time>2016-09-11T09:10:56Z</time>
      </trkpt>
      <trkpt lat="45.02255" lon="5.44316">
        <ele>749</ele>
        <time>2016-09-11T09:11:00Z</time>
      </trkpt>
      <trkpt lat="45.02259" lon="5.44314">
        <ele>749</ele>
        <time>2016-09-11T09:11:03Z</time>
      </trkpt>
      <trkpt lat="45.02253" lon="5.44311">
        <ele>750</ele>
        <time>2016-09-11T09:11:06Z</time>
      </trkpt>
      <trkpt lat="45.02248" lon="5.44309">
        <ele>750</ele>
        <time>2016-09-11T09:11:08Z</time>
      </trkpt>
      <trkpt lat="45.02244" lon="5.44309">
        <ele>750</ele>
        <time>2016-09-11T09:11:10Z</time>
      </trkpt>
      <trkpt lat="45.02245" lon="5.44315">
        <ele>750</ele>
        <time>2016-09-11T09:11:13Z</time>
      </trkpt>
      <trkpt lat="45.02251" lon="5.44315">
        <ele>750</ele>
        <time>2016-09-11T09:11:16Z</time>
      </trkpt>
      <trkpt lat="45.02258" lon="5.44316">
        <ele>750</ele>
        <time>2016-09-11T09:11:18Z</time>
      </trkpt>
      <trkpt lat="45.02266" lon="5.44318">
        <ele>750</ele>
        <time>2016-09-11T09:11:20Z</time>
      </trkpt>
      <trkpt lat="45.02273" lon="5.4432">
        <ele>750</ele>
        <time>2016-09-11T09:11:22Z</time>
      </trkpt>
      <trkpt lat="45.02281" lon="5.44321">
        <ele>750</ele>
        <time>2016-09-11T09:11:24Z</time>
      </trkpt>
      <trkpt lat="45.02288" lon="5.44323">
        <ele>750</ele>
        <time>2016-09-11T09:11:26Z</time>
      </trkpt>
      <trkpt lat="45.02296" lon="5.44323">
        <ele>750</ele>
        <time>2016-09-11T09:11:28Z</time>
      </trkpt>
      <trkpt lat="45.02305" lon="5.44325">
        <ele>749</ele>
        <time>2016-09-11T09:11:30Z</time>
      </trkpt>
      <trkpt lat="45.02312" lon="5.44327">
        <ele>749</ele>
        <time>2016-09-11T09:11:32Z</time>
      </trkpt>
      <trkpt lat="45.02317" lon="5.44329">
        <ele>748</ele>
        <time>2016-09-11T09:11:34Z</time>
      </trkpt>
      <trkpt lat="45.02323" lon="5.4433">
        <ele>748</ele>
        <time>2016-09-11T09:11:36Z</time>
      </trkpt>
      <trkpt lat="45.02329" lon="5.44332">
        <ele>748</ele>
        <time>2016-09-11T09:11:38Z</time>
      </trkpt>
      <trkpt lat="45.02336" lon="5.44333">
        <ele>747</ele>
        <time>2016-09-11T09:11:40Z</time>
      </trkpt>
      <trkpt lat="45.02343" lon="5.44335">
        <ele>746</ele>
        <time>2016-09-11T09:11:42Z</time>
      </trkpt>
      <trkpt lat="45.0235" lon="5.44337">
        <ele>746</ele>
        <time>2016-09-11T09:11:44Z</time>
      </trkpt>
      <trkpt lat="45.02358" lon="5.44339">
        <ele>745</ele>
        <time>2016-09-11T09:11:46Z</time>
      </trkpt>
      <trkpt lat="45.02364" lon="5.44342">
        <ele>745</ele>
        <time>2016-09-11T09:11:48Z</time>
      </trkpt>
      <trkpt lat="45.02372" lon="5.44345">
        <ele>745</ele>
        <time>2016-09-11T09:11:50Z</time>
      </trkpt>
      <trkpt lat="45.0238" lon="5.44348">
        <ele>745</ele>
        <time>2016-09-11T09:11:52Z</time>
      </trkpt>
      <trkpt lat="45.02385" lon="5.4435">
        <ele>745</ele>
        <time>2016-09-11T09:11:53Z</time>
      </trkpt>
      <trkpt lat="45.0239" lon="5.44352">
        <ele>745</ele>
        <time>2016-09-11T09:11:54Z</time>
      </trkpt>
      <trkpt lat="45.02398" lon="5.44355">
        <ele>745</ele>
        <time>2016-09-11T09:11:56Z</time>
      </trkpt>
      <trkpt lat="45.02403" lon="5.44357">
        <ele>746</ele>
        <time>2016-09-11T09:11:57Z</time>
      </trkpt>
      <trkpt lat="45.02411" lon="5.4436">
        <ele>746</ele>
        <time>2016-09-11T09:11:59Z</time>
      </trkpt>
      <trkpt lat="45.02416" lon="5.44362">
        <ele>746</ele>
        <time>2016-09-11T09:12:00Z</time>
      </trkpt>
      <trkpt lat="45.0242" lon="5.44363">
        <ele>746</ele>
        <time>2016-09-11T09:12:01Z</time>
      </trkpt>
      <trkpt lat="45.02428" lon="5.44365">
        <ele>747</ele>
        <time>2016-09-11T09:12:03Z</time>
      </trkpt>
      <trkpt lat="45.02435" lon="5.44367">
        <ele>747</ele>
        <time>2016-09-11T09:12:05Z</time>
      </trkpt>
      <trkpt lat="45.02443" lon="5.4437">
        <ele>747</ele>
        <time>2016-09-11T09:12:07Z</time>
      </trkpt>
      <trkpt lat="45.02451" lon="5.44373">
        <ele>748</ele>
        <time>2016-09-11T09:12:09Z</time>
      </trkpt>
      <trkpt lat="45.02455" lon="5.44374">
        <ele>748</ele>
        <time>2016-09-11T09:12:10Z</time>
      </trkpt>
      <trkpt lat="45.02463" lon="5.44378">
        <ele>748</ele>
        <time>2016-09-11T09:12:12Z</time>
      </trkpt>
      <trkpt lat="45.02471" lon="5.4438">
        <ele>748</ele>
        <time>2016-09-11T09:12:14Z</time>
      </trkpt>
      <trkpt lat="45.02479" lon="5.44383">
        <ele>748</ele>
        <time>2016-09-11T09:12:16Z</time>
      </trkpt>
      <trkpt lat="45.02487" lon="5.44386">
        <ele>749</ele>
        <time>2016-09-11T09:12:18Z</time>
      </trkpt>
      <trkpt lat="45.02494" lon="5.44388">
        <ele>749</ele>
        <time>2016-09-11T09:12:20Z</time>
      </trkpt>
      <trkpt lat="45.02501" lon="5.44389">
        <ele>748</ele>
        <time>2016-09-11T09:12:22Z</time>
      </trkpt>
      <trkpt lat="45.02507" lon="5.4439">
        <ele>748</ele>
        <time>2016-09-11T09:12:24Z</time>
      </trkpt>
      <trkpt lat="45.02515" lon="5.44391">
        <ele>747</ele>
        <time>2016-09-11T09:12:26Z</time>
      </trkpt>
      <trkpt lat="45.02522" lon="5.44392">
        <ele>746</ele>
        <time>2016-09-11T09:12:28Z</time>
      </trkpt>
      <trkpt lat="45.02529" lon="5.44393">
        <ele>746</ele>
        <time>2016-09-11T09:12:30Z</time>
      </trkpt>
      <trkpt lat="45.02535" lon="5.44393">
        <ele>747</ele>
        <time>2016-09-11T09:12:32Z</time>
      </trkpt>
      <trkpt lat="45.02542" lon="5.44393">
        <ele>747</ele>
        <time>2016-09-11T09:12:34Z</time>
      </trkpt>
      <trkpt lat="45.02548" lon="5.44393">
        <ele>748</ele>
        <time>2016-09-11T09:12:36Z</time>
      </trkpt>
      <trkpt lat="45.02554" lon="5.44392">
        <ele>749</ele>
        <time>2016-09-11T09:12:38Z</time>
      </trkpt>
      <trkpt lat="45.0256" lon="5.44391">
        <ele>749</ele>
        <time>2016-09-11T09:12:40Z</time>
      </trkpt>
      <trkpt lat="45.02567" lon="5.44391">
        <ele>750</ele>
        <time>2016-09-11T09:12:42Z</time>
      </trkpt>
      <trkpt lat="45.02573" lon="5.44391">
        <ele>749</ele>
        <time>2016-09-11T09:12:44Z</time>
      </trkpt>
      <trkpt lat="45.0258" lon="5.44391">
        <ele>749</ele>
        <time>2016-09-11T09:12:46Z</time>
      </trkpt>
      <trkpt lat="45.02586" lon="5.4439">
        <ele>749</ele>
        <time>2016-09-11T09:12:48Z</time>
      </trkpt>
      <trkpt lat="45.02593" lon="5.44389">
        <ele>748</ele>
        <time>2016-09-11T09:12:50Z</time>
      </trkpt>
      <trkpt lat="45.02599" lon="5.4439">
        <ele>748</ele>
        <time>2016-09-11T09:12:52Z</time>
      </trkpt>
      <trkpt lat="45.02607" lon="5.44391">
        <ele>749</ele>
        <time>2016-09-11T09:12:54Z</time>
      </trkpt>
      <trkpt lat="45.02615" lon="5.44391">
        <ele>749</ele>
        <time>2016-09-11T09:12:56Z</time>
      </trkpt>
      <trkpt lat="45.02623" lon="5.44392">
        <ele>749</ele>
        <time>2016-09-11T09:12:58Z</time>
      </trkpt>
      <trkpt lat="45.02628" lon="5.44392">
        <ele>750</ele>
        <time>2016-09-11T09:12:59Z</time>
      </trkpt>
      <trkpt lat="45.02633" lon="5.44392">
        <ele>750</ele>
        <time>2016-09-11T09:13:00Z</time>
      </trkpt>
      <trkpt lat="45.02637" lon="5.44392">
        <ele>750</ele>
        <time>2016-09-11T09:13:01Z</time>
      </trkpt>
      <trkpt lat="45.02643" lon="5.44392">
        <ele>750</ele>
        <time>2016-09-11T09:13:02Z</time>
      </trkpt>
      <trkpt lat="45.02652" lon="5.44393">
        <ele>750</ele>
        <time>2016-09-11T09:13:04Z</time>
      </trkpt>
      <trkpt lat="45.02657" lon="5.44393">
        <ele>750</ele>
        <time>2016-09-11T09:13:05Z</time>
      </trkpt>
      <trkpt lat="45.02662" lon="5.44393">
        <ele>751</ele>
        <time>2016-09-11T09:13:06Z</time>
      </trkpt>
      <trkpt lat="45.02667" lon="5.44393">
        <ele>751</ele>
        <time>2016-09-11T09:13:07Z</time>
      </trkpt>
      <trkpt lat="45.02676" lon="5.44395">
        <ele>752</ele>
        <time>2016-09-11T09:13:09Z</time>
      </trkpt>
      <trkpt lat="45.0268" lon="5.44396">
        <ele>752</ele>
        <time>2016-09-11T09:13:10Z</time>
      </trkpt>
      <trkpt lat="45.02688" lon="5.44397">
        <ele>753</ele>
        <time>2016-09-11T09:13:12Z</time>
      </trkpt>
      <trkpt lat="45.02696" lon="5.44398">
        <ele>754</ele>
        <time>2016-09-11T09:13:14Z</time>
      </trkpt>
      <trkpt lat="45.02704" lon="5.44399">
        <ele>755</ele>
        <time>2016-09-11T09:13:16Z</time>
      </trkpt>
      <trkpt lat="45.02712" lon="5.44399">
        <ele>755</ele>
        <time>2016-09-11T09:13:18Z</time>
      </trkpt>
      <trkpt lat="45.02717" lon="5.44398">
        <ele>756</ele>
        <time>2016-09-11T09:13:19Z</time>
      </trkpt>
      <trkpt lat="45.02725" lon="5.44396">
        <ele>757</ele>
        <time>2016-09-11T09:13:21Z</time>
      </trkpt>
      <trkpt lat="45.02732" lon="5.44394">
        <ele>758</ele>
        <time>2016-09-11T09:13:23Z</time>
      </trkpt>
      <trkpt lat="45.02738" lon="5.44391">
        <ele>758</ele>
        <time>2016-09-11T09:13:25Z</time>
      </trkpt>
      <trkpt lat="45.02745" lon="5.44387">
        <ele>759</ele>
        <time>2016-09-11T09:13:27Z</time>
      </trkpt>
      <trkpt lat="45.0275" lon="5.44382">
        <ele>760</ele>
        <time>2016-09-11T09:13:29Z</time>
      </trkpt>
      <trkpt lat="45.02757" lon="5.44377">
        <ele>761</ele>
        <time>2016-09-11T09:13:31Z</time>
      </trkpt>
      <trkpt lat="45.02763" lon="5.44372">
        <ele>761</ele>
        <time>2016-09-11T09:13:33Z</time>
      </trkpt>
      <trkpt lat="45.02769" lon="5.44369">
        <ele>762</ele>
        <time>2016-09-11T09:13:35Z</time>
      </trkpt>
      <trkpt lat="45.02774" lon="5.44367">
        <ele>763</ele>
        <time>2016-09-11T09:13:37Z</time>
      </trkpt>
      <trkpt lat="45.02779" lon="5.44365">
        <ele>764</ele>
        <time>2016-09-11T09:13:39Z</time>
      </trkpt>
      <trkpt lat="45.02785" lon="5.44364">
        <ele>765</ele>
        <time>2016-09-11T09:13:41Z</time>
      </trkpt>
      <trkpt lat="45.0279" lon="5.44364">
        <ele>765</ele>
        <time>2016-09-11T09:13:43Z</time>
      </trkpt>
      <trkpt lat="45.02795" lon="5.44364">
        <ele>766</ele>
        <time>2016-09-11T09:13:45Z</time>
      </trkpt>
      <trkpt lat="45.028" lon="5.44363">
        <ele>766</ele>
        <time>2016-09-11T09:13:47Z</time>
      </trkpt>
      <trkpt lat="45.02805" lon="5.44362">
        <ele>766</ele>
        <time>2016-09-11T09:13:49Z</time>
      </trkpt>
      <trkpt lat="45.0281" lon="5.4436">
        <ele>766</ele>
        <time>2016-09-11T09:13:51Z</time>
      </trkpt>
      <trkpt lat="45.02815" lon="5.44358">
        <ele>766</ele>
        <time>2016-09-11T09:13:53Z</time>
      </trkpt>
      <trkpt lat="45.02821" lon="5.44355">
        <ele>766</ele>
        <time>2016-09-11T09:13:56Z</time>
      </trkpt>
      <trkpt lat="45.02826" lon="5.44354">
        <ele>766</ele>
        <time>2016-09-11T09:13:58Z</time>
      </trkpt>
      <trkpt lat="45.0283" lon="5.44354">
        <ele>766</ele>
        <time>2016-09-11T09:14:00Z</time>
      </trkpt>
      <trkpt lat="45.02837" lon="5.44354">
        <ele>766</ele>
        <time>2016-09-11T09:14:03Z</time>
      </trkpt>
      <trkpt lat="45.02841" lon="5.44355">
        <ele>767</ele>
        <time>2016-09-11T09:14:05Z</time>
      </trkpt>
      <trkpt lat="45.02847" lon="5.44356">
        <ele>767</ele>
        <time>2016-09-11T09:14:07Z</time>
      </trkpt>
      <trkpt lat="45.02851" lon="5.44359">
        <ele>768</ele>
        <time>2016-09-11T09:14:09Z</time>
      </trkpt>
      <trkpt lat="45.02856" lon="5.44361">
        <ele>769</ele>
        <time>2016-09-11T09:14:11Z</time>
      </trkpt>
      <trkpt lat="45.02861" lon="5.44364">
        <ele>769</ele>
        <time>2016-09-11T09:14:13Z</time>
      </trkpt>
      <trkpt lat="45.02865" lon="5.44367">
        <ele>770</ele>
        <time>2016-09-11T09:14:15Z</time>
      </trkpt>
      <trkpt lat="45.0287" lon="5.4437">
        <ele>770</ele>
        <time>2016-09-11T09:14:17Z</time>
      </trkpt>
      <trkpt lat="45.02875" lon="5.44373">
        <ele>771</ele>
        <time>2016-09-11T09:14:19Z</time>
      </trkpt>
      <trkpt lat="45.0288" lon="5.44376">
        <ele>771</ele>
        <time>2016-09-11T09:14:21Z</time>
      </trkpt>
      <trkpt lat="45.02885" lon="5.44379">
        <ele>772</ele>
        <time>2016-09-11T09:14:23Z</time>
      </trkpt>
      <trkpt lat="45.0289" lon="5.44382">
        <ele>772</ele>
        <time>2016-09-11T09:14:25Z</time>
      </trkpt>
      <trkpt lat="45.02896" lon="5.44385">
        <ele>773</ele>
        <time>2016-09-11T09:14:27Z</time>
      </trkpt>
      <trkpt lat="45.02901" lon="5.44387">
        <ele>774</ele>
        <time>2016-09-11T09:14:29Z</time>
      </trkpt>
      <trkpt lat="45.02906" lon="5.44389">
        <ele>775</ele>
        <time>2016-09-11T09:14:31Z</time>
      </trkpt>
      <trkpt lat="45.0291" lon="5.44392">
        <ele>775</ele>
        <time>2016-09-11T09:14:33Z</time>
      </trkpt>
      <trkpt lat="45.02915" lon="5.44394">
        <ele>775</ele>
        <time>2016-09-11T09:14:35Z</time>
      </trkpt>
      <trkpt lat="45.0292" lon="5.44396">
        <ele>776</ele>
        <time>2016-09-11T09:14:37Z</time>
      </trkpt>
      <trkpt lat="45.02924" lon="5.44398">
        <ele>776</ele>
        <time>2016-09-11T09:14:39Z</time>
      </trkpt>
      <trkpt lat="45.02929" lon="5.44399">
        <ele>776</ele>
        <time>2016-09-11T09:14:41Z</time>
      </trkpt>
      <trkpt lat="45.02934" lon="5.44401">
        <ele>776</ele>
        <time>2016-09-11T09:14:43Z</time>
      </trkpt>
      <trkpt lat="45.02939" lon="5.44402">
        <ele>777</ele>
        <time>2016-09-11T09:14:45Z</time>
      </trkpt>
      <trkpt lat="45.02944" lon="5.44404">
        <ele>777</ele>
        <time>2016-09-11T09:14:47Z</time>
      </trkpt>
      <trkpt lat="45.0295" lon="5.44404">
        <ele>778</ele>
        <time>2016-09-11T09:14:49Z</time>
      </trkpt>
      <trkpt lat="45.02955" lon="5.44404">
        <ele>778</ele>
        <time>2016-09-11T09:14:51Z</time>
      </trkpt>
      <trkpt lat="45.0296" lon="5.44405">
        <ele>779</ele>
        <time>2016-09-11T09:14:53Z</time>
      </trkpt>
      <trkpt lat="45.02965" lon="5.44405">
        <ele>779</ele>
        <time>2016-09-11T09:14:55Z</time>
      </trkpt>
      <trkpt lat="45.02971" lon="5.44406">
        <ele>779</ele>
        <time>2016-09-11T09:14:57Z</time>
      </trkpt>
      <trkpt lat="45.02976" lon="5.44406">
        <ele>780</ele>
        <time>2016-09-11T09:14:59Z</time>
      </trkpt>
      <trkpt lat="45.02981" lon="5.44407">
        <ele>780</ele>
        <time>2016-09-11T09:15:01Z</time>
      </trkpt>
      <trkpt lat="45.02987" lon="5.44407">
        <ele>781</ele>
        <time>2016-09-11T09:15:03Z</time>
      </trkpt>
      <trkpt lat="45.02992" lon="5.44408">
        <ele>781</ele>
        <time>2016-09-11T09:15:05Z</time>
      </trkpt>
      <trkpt lat="45.02997" lon="5.44408">
        <ele>781</ele>
        <time>2016-09-11T09:15:07Z</time>
      </trkpt>
      <trkpt lat="45.03003" lon="5.44408">
        <ele>782</ele>
        <time>2016-09-11T09:15:09Z</time>
      </trkpt>
      <trkpt lat="45.03008" lon="5.44409">
        <ele>782</ele>
        <time>2016-09-11T09:15:11Z</time>
      </trkpt>
      <trkpt lat="45.03013" lon="5.4441">
        <ele>783</ele>
        <time>2016-09-11T09:15:13Z</time>
      </trkpt>
      <trkpt lat="45.03019" lon="5.4441">
        <ele>783</ele>
        <time>2016-09-11T09:15:15Z</time>
      </trkpt>
      <trkpt lat="45.03024" lon="5.4441">
        <ele>783</ele>
        <time>2016-09-11T09:15:17Z</time>
      </trkpt>
      <trkpt lat="45.0303" lon="5.4441">
        <ele>783</ele>
        <time>2016-09-11T09:15:19Z</time>
      </trkpt>
      <trkpt lat="45.03036" lon="5.44411">
        <ele>784</ele>
        <time>2016-09-11T09:15:21Z</time>
      </trkpt>
      <trkpt lat="45.03041" lon="5.44411">
        <ele>784</ele>
        <time>2016-09-11T09:15:23Z</time>
      </trkpt>
      <trkpt lat="45.03046" lon="5.44411">
        <ele>784</ele>
        <time>2016-09-11T09:15:25Z</time>
      </trkpt>
      <trkpt lat="45.03052" lon="5.44411">
        <ele>784</ele>
        <time>2016-09-11T09:15:27Z</time>
      </trkpt>
      <trkpt lat="45.03058" lon="5.4441">
        <ele>784</ele>
        <time>2016-09-11T09:15:29Z</time>
      </trkpt>
      <trkpt lat="45.03063" lon="5.44409">
        <ele>784</ele>
        <time>2016-09-11T09:15:31Z</time>
      </trkpt>
      <trkpt lat="45.03069" lon="5.44407">
        <ele>785</ele>
        <time>2016-09-11T09:15:33Z</time>
      </trkpt>
      <trkpt lat="45.03074" lon="5.44404">
        <ele>785</ele>
        <time>2016-09-11T09:15:35Z</time>
      </trkpt>
      <trkpt lat="45.03079" lon="5.44401">
        <ele>785</ele>
        <time>2016-09-11T09:15:37Z</time>
      </trkpt>
      <trkpt lat="45.03084" lon="5.44398">
        <ele>785</ele>
        <time>2016-09-11T09:15:39Z</time>
      </trkpt>
      <trkpt lat="45.0309" lon="5.44397">
        <ele>785</ele>
        <time>2016-09-11T09:15:41Z</time>
      </trkpt>
      <trkpt lat="45.03095" lon="5.44395">
        <ele>785</ele>
        <time>2016-09-11T09:15:43Z</time>
      </trkpt>
      <trkpt lat="45.031" lon="5.44394">
        <ele>785</ele>
        <time>2016-09-11T09:15:45Z</time>
      </trkpt>
      <trkpt lat="45.03106" lon="5.44392">
        <ele>784</ele>
        <time>2016-09-11T09:15:47Z</time>
      </trkpt>
      <trkpt lat="45.03111" lon="5.44392">
        <ele>784</ele>
        <time>2016-09-11T09:15:49Z</time>
      </trkpt>
      <trkpt lat="45.03116" lon="5.44392">
        <ele>784</ele>
        <time>2016-09-11T09:15:51Z</time>
      </trkpt>
      <trkpt lat="45.03122" lon="5.44392">
        <ele>784</ele>
        <time>2016-09-11T09:15:53Z</time>
      </trkpt>
      <trkpt lat="45.03127" lon="5.44393">
        <ele>784</ele>
        <time>2016-09-11T09:15:55Z</time>
      </trkpt>
      <trkpt lat="45.03132" lon="5.44393">
        <ele>784</ele>
        <time>2016-09-11T09:15:57Z</time>
      </trkpt>
      <trkpt lat="45.03136" lon="5.44393">
        <ele>784</ele>
        <time>2016-09-11T09:15:59Z</time>
      </trkpt>
      <trkpt lat="45.03142" lon="5.44394">
        <ele>784</ele>
        <time>2016-09-11T09:16:01Z</time>
      </trkpt>
      <trkpt lat="45.03147" lon="5.44394">
        <ele>784</ele>
        <time>2016-09-11T09:16:03Z</time>
      </trkpt>
      <trkpt lat="45.03153" lon="5.44394">
        <ele>784</ele>
        <time>2016-09-11T09:16:05Z</time>
      </trkpt>
      <trkpt lat="45.03158" lon="5.44395">
        <ele>785</ele>
        <time>2016-09-11T09:16:07Z</time>
      </trkpt>
      <trkpt lat="45.03163" lon="5.44395">
        <ele>785</ele>
        <time>2016-09-11T09:16:09Z</time>
      </trkpt>
      <trkpt lat="45.03168" lon="5.44396">
        <ele>786</ele>
        <time>2016-09-11T09:16:11Z</time>
      </trkpt>
      <trkpt lat="45.03173" lon="5.44396">
        <ele>786</ele>
        <time>2016-09-11T09:16:13Z</time>
      </trkpt>
      <trkpt lat="45.03178" lon="5.44396">
        <ele>786</ele>
        <time>2016-09-11T09:16:15Z</time>
      </trkpt>
      <trkpt lat="45.03183" lon="5.44396">
        <ele>786</ele>
        <time>2016-09-11T09:16:17Z</time>
      </trkpt>
      <trkpt lat="45.03187" lon="5.44396">
        <ele>787</ele>
        <time>2016-09-11T09:16:19Z</time>
      </trkpt>
      <trkpt lat="45.03192" lon="5.44397">
        <ele>787</ele>
        <time>2016-09-11T09:16:21Z</time>
      </trkpt>
      <trkpt lat="45.03197" lon="5.44397">
        <ele>787</ele>
        <time>2016-09-11T09:16:23Z</time>
      </trkpt>
      <trkpt lat="45.03201" lon="5.44397">
        <ele>788</ele>
        <time>2016-09-11T09:16:25Z</time>
      </trkpt>
      <trkpt lat="45.03206" lon="5.44398">
        <ele>789</ele>
        <time>2016-09-11T09:16:27Z</time>
      </trkpt>
      <trkpt lat="45.03211" lon="5.44397">
        <ele>789</ele>
        <time>2016-09-11T09:16:29Z</time>
      </trkpt>
      <trkpt lat="45.03215" lon="5.44398">
        <ele>790</ele>
        <time>2016-09-11T09:16:31Z</time>
      </trkpt>
      <trkpt lat="45.0322" lon="5.44398">
        <ele>790</ele>
        <time>2016-09-11T09:16:33Z</time>
      </trkpt>
      <trkpt lat="45.03225" lon="5.44398">
        <ele>791</ele>
        <time>2016-09-11T09:16:35Z</time>
      </trkpt>
      <trkpt lat="45.03229" lon="5.44397">
        <ele>791</ele>
        <time>2016-09-11T09:16:37Z</time>
      </trkpt>
      <trkpt lat="45.03235" lon="5.44396">
        <ele>792</ele>
        <time>2016-09-11T09:16:40Z</time>
      </trkpt>
      <trkpt lat="45.03241" lon="5.44395">
        <ele>792</ele>
        <time>2016-09-11T09:16:44Z</time>
      </trkpt>
      <trkpt lat="45.03245" lon="5.44394">
        <ele>792</ele>
        <time>2016-09-11T09:16:48Z</time>
      </trkpt>
      <trkpt lat="45.03249" lon="5.44398">
        <ele>792</ele>
        <time>2016-09-11T09:16:53Z</time>
      </trkpt>
      <trkpt lat="45.03255" lon="5.44398">
        <ele>793</ele>
        <time>2016-09-11T09:16:58Z</time>
      </trkpt>
      <trkpt lat="45.03249" lon="5.44395">
        <ele>793</ele>
        <time>2016-09-11T09:17:05Z</time>
      </trkpt>
      <trkpt lat="45.03252" lon="5.44401">
        <ele>794</ele>
        <time>2016-09-11T09:17:11Z</time>
      </trkpt>
      <trkpt lat="45.03257" lon="5.44399">
        <ele>794</ele>
        <time>2016-09-11T09:17:15Z</time>
      </trkpt>
      <trkpt lat="45.03253" lon="5.44394">
        <ele>795</ele>
        <time>2016-09-11T09:17:19Z</time>
      </trkpt>
      <trkpt lat="45.03249" lon="5.44396">
        <ele>795</ele>
        <time>2016-09-11T09:17:22Z</time>
      </trkpt>
      <trkpt lat="45.03253" lon="5.44399">
        <ele>794</ele>
        <time>2016-09-11T09:17:27Z</time>
      </trkpt>
      <trkpt lat="45.03251" lon="5.44394">
        <ele>795</ele>
        <time>2016-09-11T09:17:35Z</time>
      </trkpt>
      <trkpt lat="45.03248" lon="5.44399">
        <ele>794</ele>
        <time>2016-09-11T09:17:38Z</time>
      </trkpt>
      <trkpt lat="45.0325" lon="5.44404">
        <ele>794</ele>
        <time>2016-09-11T09:17:41Z</time>
      </trkpt>
      <trkpt lat="45.03255" lon="5.44402">
        <ele>794</ele>
        <time>2016-09-11T09:17:45Z</time>
      </trkpt>
      <trkpt lat="45.03256" lon="5.44395">
        <ele>794</ele>
        <time>2016-09-11T09:17:49Z</time>
      </trkpt>
      <trkpt lat="45.0326" lon="5.44393">
        <ele>794</ele>
        <time>2016-09-11T09:17:53Z</time>
      </trkpt>
      <trkpt lat="45.03265" lon="5.44391">
        <ele>794</ele>
        <time>2016-09-11T09:17:57Z</time>
      </trkpt>
      <trkpt lat="45.03271" lon="5.44389">
        <ele>795</ele>
        <time>2016-09-11T09:18:00Z</time>
      </trkpt>
      <trkpt lat="45.03276" lon="5.44388">
        <ele>796</ele>
        <time>2016-09-11T09:18:03Z</time>
      </trkpt>
      <trkpt lat="45.03282" lon="5.44388">
        <ele>797</ele>
        <time>2016-09-11T09:18:05Z</time>
      </trkpt>
      <trkpt lat="45.03288" lon="5.44387">
        <ele>798</ele>
        <time>2016-09-11T09:18:07Z</time>
      </trkpt>
      <trkpt lat="45.03293" lon="5.44387">
        <ele>799</ele>
        <time>2016-09-11T09:18:09Z</time>
      </trkpt>
      <trkpt lat="45.03298" lon="5.44387">
        <ele>799</ele>
        <time>2016-09-11T09:18:11Z</time>
      </trkpt>
      <trkpt lat="45.03304" lon="5.44388">
        <ele>800</ele>
        <time>2016-09-11T09:18:13Z</time>
      </trkpt>
      <trkpt lat="45.03309" lon="5.44389">
        <ele>801</ele>
        <time>2016-09-11T09:18:15Z</time>
      </trkpt>
      <trkpt lat="45.03314" lon="5.4439">
        <ele>801</ele>
        <time>2016-09-11T09:18:17Z</time>
      </trkpt>
      <trkpt lat="45.03319" lon="5.4439">
        <ele>802</ele>
        <time>2016-09-11T09:18:19Z</time>
      </trkpt>
      <trkpt lat="45.03325" lon="5.4439">
        <ele>802</ele>
        <time>2016-09-11T09:18:21Z</time>
      </trkpt>
      <trkpt lat="45.0333" lon="5.4439">
        <ele>802</ele>
        <time>2016-09-11T09:18:23Z</time>
      </trkpt>
      <trkpt lat="45.03336" lon="5.4439">
        <ele>803</ele>
        <time>2016-09-11T09:18:25Z</time>
      </trkpt>
      <trkpt lat="45.03341" lon="5.4439">
        <ele>803</ele>
        <time>2016-09-11T09:18:27Z</time>
      </trkpt>
      <trkpt lat="45.03347" lon="5.4439">
        <ele>803</ele>
        <time>2016-09-11T09:18:29Z</time>
      </trkpt>
      <trkpt lat="45.03353" lon="5.4439">
        <ele>803</ele>
        <time>2016-09-11T09:18:31Z</time>
      </trkpt>
      <trkpt lat="45.03358" lon="5.44391">
        <ele>803</ele>
        <time>2016-09-11T09:18:33Z</time>
      </trkpt>
      <trkpt lat="45.03363" lon="5.44392">
        <ele>803</ele>
        <time>2016-09-11T09:18:35Z</time>
      </trkpt>
      <trkpt lat="45.03368" lon="5.44392">
        <ele>803</ele>
        <time>2016-09-11T09:18:37Z</time>
      </trkpt>
      <trkpt lat="45.03374" lon="5.44392">
        <ele>804</ele>
        <time>2016-09-11T09:18:39Z</time>
      </trkpt>
      <trkpt lat="45.03379" lon="5.44393">
        <ele>804</ele>
        <time>2016-09-11T09:18:41Z</time>
      </trkpt>
      <trkpt lat="45.03385" lon="5.44394">
        <ele>804</ele>
        <time>2016-09-11T09:18:43Z</time>
      </trkpt>
      <trkpt lat="45.0339" lon="5.44395">
        <ele>805</ele>
        <time>2016-09-11T09:18:45Z</time>
      </trkpt>
      <trkpt lat="45.03395" lon="5.44395">
        <ele>806</ele>
        <time>2016-09-11T09:18:47Z</time>
      </trkpt>
      <trkpt lat="45.034" lon="5.44395">
        <ele>806</ele>
        <time>2016-09-11T09:18:49Z</time>
      </trkpt>
      <trkpt lat="45.03405" lon="5.44395">
        <ele>807</ele>
        <time>2016-09-11T09:18:51Z</time>
      </trkpt>
      <trkpt lat="45.03409" lon="5.44396">
        <ele>807</ele>
        <time>2016-09-11T09:18:53Z</time>
      </trkpt>
      <trkpt lat="45.03414" lon="5.44395">
        <ele>807</ele>
        <time>2016-09-11T09:18:55Z</time>
      </trkpt>
      <trkpt lat="45.0342" lon="5.44396">
        <ele>807</ele>
        <time>2016-09-11T09:18:58Z</time>
      </trkpt>
      <trkpt lat="45.03426" lon="5.44396">
        <ele>807</ele>
        <time>2016-09-11T09:19:01Z</time>
      </trkpt>
      <trkpt lat="45.03433" lon="5.44397">
        <ele>807</ele>
        <time>2016-09-11T09:19:04Z</time>
      </trkpt>
      <trkpt lat="45.03439" lon="5.44399">
        <ele>807</ele>
        <time>2016-09-11T09:19:07Z</time>
      </trkpt>
      <trkpt lat="45.03445" lon="5.444">
        <ele>807</ele>
        <time>2016-09-11T09:19:10Z</time>
      </trkpt>
      <trkpt lat="45.0345" lon="5.44401">
        <ele>807</ele>
        <time>2016-09-11T09:19:12Z</time>
      </trkpt>
      <trkpt lat="45.03455" lon="5.44403">
        <ele>808</ele>
        <time>2016-09-11T09:19:14Z</time>
      </trkpt>
      <trkpt lat="45.0346" lon="5.44404">
        <ele>808</ele>
        <time>2016-09-11T09:19:16Z</time>
      </trkpt>
      <trkpt lat="45.03465" lon="5.44406">
        <ele>809</ele>
        <time>2016-09-11T09:19:18Z</time>
      </trkpt>
      <trkpt lat="45.0347" lon="5.44407">
        <ele>810</ele>
        <time>2016-09-11T09:19:20Z</time>
      </trkpt>
      <trkpt lat="45.03474" lon="5.44408">
        <ele>810</ele>
        <time>2016-09-11T09:19:22Z</time>
      </trkpt>
      <trkpt lat="45.03479" lon="5.44409">
        <ele>810</ele>
        <time>2016-09-11T09:19:24Z</time>
      </trkpt>
      <trkpt lat="45.03484" lon="5.4441">
        <ele>811</ele>
        <time>2016-09-11T09:19:26Z</time>
      </trkpt>
      <trkpt lat="45.03489" lon="5.44412">
        <ele>811</ele>
        <time>2016-09-11T09:19:28Z</time>
      </trkpt>
      <trkpt lat="45.03494" lon="5.44413">
        <ele>812</ele>
        <time>2016-09-11T09:19:30Z</time>
      </trkpt>
      <trkpt lat="45.03498" lon="5.44415">
        <ele>813</ele>
        <time>2016-09-11T09:19:32Z</time>
      </trkpt>
      <trkpt lat="45.03503" lon="5.44416">
        <ele>813</ele>
        <time>2016-09-11T09:19:34Z</time>
      </trkpt>
      <trkpt lat="45.03507" lon="5.44417">
        <ele>814</ele>
        <time>2016-09-11T09:19:36Z</time>
      </trkpt>
      <trkpt lat="45.03512" lon="5.44419">
        <ele>815</ele>
        <time>2016-09-11T09:19:38Z</time>
      </trkpt>
      <trkpt lat="45.03516" lon="5.44422">
        <ele>816</ele>
        <time>2016-09-11T09:19:40Z</time>
      </trkpt>
      <trkpt lat="45.03521" lon="5.44424">
        <ele>816</ele>
        <time>2016-09-11T09:19:42Z</time>
      </trkpt>
      <trkpt lat="45.03526" lon="5.44425">
        <ele>817</ele>
        <time>2016-09-11T09:19:44Z</time>
      </trkpt>
      <trkpt lat="45.03532" lon="5.44426">
        <ele>817</ele>
        <time>2016-09-11T09:19:47Z</time>
      </trkpt>
      <trkpt lat="45.03537" lon="5.44427">
        <ele>818</ele>
        <time>2016-09-11T09:19:49Z</time>
      </trkpt>
      <trkpt lat="45.03542" lon="5.44428">
        <ele>818</ele>
        <time>2016-09-11T09:19:51Z</time>
      </trkpt>
      <trkpt lat="45.03547" lon="5.44429">
        <ele>818</ele>
        <time>2016-09-11T09:19:53Z</time>
      </trkpt>
      <trkpt lat="45.03551" lon="5.44431">
        <ele>819</ele>
        <time>2016-09-11T09:19:55Z</time>
      </trkpt>
      <trkpt lat="45.03557" lon="5.44433">
        <ele>819</ele>
        <time>2016-09-11T09:19:58Z</time>
      </trkpt>
      <trkpt lat="45.03563" lon="5.44434">
        <ele>820</ele>
        <time>2016-09-11T09:20:01Z</time>
      </trkpt>
      <trkpt lat="45.03569" lon="5.44436">
        <ele>821</ele>
        <time>2016-09-11T09:20:04Z</time>
      </trkpt>
      <trkpt lat="45.03574" lon="5.44439">
        <ele>821</ele>
        <time>2016-09-11T09:20:07Z</time>
      </trkpt>
      <trkpt lat="45.03577" lon="5.44445">
        <ele>821</ele>
        <time>2016-09-11T09:20:10Z</time>
      </trkpt>
      <trkpt lat="45.03577" lon="5.44453">
        <ele>821</ele>
        <time>2016-09-11T09:20:13Z</time>
      </trkpt>
      <trkpt lat="45.03576" lon="5.44461">
        <ele>821</ele>
        <time>2016-09-11T09:20:16Z</time>
      </trkpt>
      <trkpt lat="45.03573" lon="5.44468">
        <ele>821</ele>
        <time>2016-09-11T09:20:19Z</time>
      </trkpt>
      <trkpt lat="45.03569" lon="5.44474">
        <ele>820</ele>
        <time>2016-09-11T09:20:22Z</time>
      </trkpt>
      <trkpt lat="45.03564" lon="5.44478">
        <ele>820</ele>
        <time>2016-09-11T09:20:25Z</time>
      </trkpt>
      <trkpt lat="45.03558" lon="5.4448">
        <ele>820</ele>
        <time>2016-09-11T09:20:28Z</time>
      </trkpt>
      <trkpt lat="45.03552" lon="5.4448">
        <ele>821</ele>
        <time>2016-09-11T09:20:31Z</time>
      </trkpt>
      <trkpt lat="45.03546" lon="5.44481">
        <ele>821</ele>
        <time>2016-09-11T09:20:34Z</time>
      </trkpt>
      <trkpt lat="45.03539" lon="5.44482">
        <ele>822</ele>
        <time>2016-09-11T09:20:37Z</time>
      </trkpt>
      <trkpt lat="45.03535" lon="5.44484">
        <ele>822</ele>
        <time>2016-09-11T09:20:39Z</time>
      </trkpt>
      <trkpt lat="45.0353" lon="5.44487">
        <ele>823</ele>
        <time>2016-09-11T09:20:41Z</time>
      </trkpt>
      <trkpt lat="45.03526" lon="5.44489">
        <ele>824</ele>
        <time>2016-09-11T09:20:43Z</time>
      </trkpt>
      <trkpt lat="45.03521" lon="5.44492">
        <ele>824</ele>
        <time>2016-09-11T09:20:45Z</time>
      </trkpt>
      <trkpt lat="45.03517" lon="5.44496">
        <ele>825</ele>
        <time>2016-09-11T09:20:47Z</time>
      </trkpt>
      <trkpt lat="45.03513" lon="5.445">
        <ele>825</ele>
        <time>2016-09-11T09:20:49Z</time>
      </trkpt>
      <trkpt lat="45.0351" lon="5.44504">
        <ele>826</ele>
        <time>2016-09-11T09:20:51Z</time>
      </trkpt>
      <trkpt lat="45.03505" lon="5.4451">
        <ele>826</ele>
        <time>2016-09-11T09:20:54Z</time>
      </trkpt>
      <trkpt lat="45.03501" lon="5.44516">
        <ele>827</ele>
        <time>2016-09-11T09:20:57Z</time>
      </trkpt>
      <trkpt lat="45.03497" lon="5.44522">
        <ele>828</ele>
        <time>2016-09-11T09:21:00Z</time>
      </trkpt>
      <trkpt lat="45.03494" lon="5.44528">
        <ele>828</ele>
        <time>2016-09-11T09:21:03Z</time>
      </trkpt>
      <trkpt lat="45.0349" lon="5.44534">
        <ele>829</ele>
        <time>2016-09-11T09:21:06Z</time>
      </trkpt>
      <trkpt lat="45.03487" lon="5.44539">
        <ele>829</ele>
        <time>2016-09-11T09:21:09Z</time>
      </trkpt>
      <trkpt lat="45.03484" lon="5.44546">
        <ele>830</ele>
        <time>2016-09-11T09:21:12Z</time>
      </trkpt>
      <trkpt lat="45.03481" lon="5.44552">
        <ele>830</ele>
        <time>2016-09-11T09:21:15Z</time>
      </trkpt>
      <trkpt lat="45.03478" lon="5.44559">
        <ele>830</ele>
        <time>2016-09-11T09:21:18Z</time>
      </trkpt>
      <trkpt lat="45.03474" lon="5.44565">
        <ele>831</ele>
        <time>2016-09-11T09:21:21Z</time>
      </trkpt>
      <trkpt lat="45.03471" lon="5.44572">
        <ele>832</ele>
        <time>2016-09-11T09:21:24Z</time>
      </trkpt>
      <trkpt lat="45.03467" lon="5.4458">
        <ele>833</ele>
        <time>2016-09-11T09:21:27Z</time>
      </trkpt>
      <trkpt lat="45.03464" lon="5.44587">
        <ele>833</ele>
        <time>2016-09-11T09:21:30Z</time>
      </trkpt>
      <trkpt lat="45.0346" lon="5.44594">
        <ele>834</ele>
        <time>2016-09-11T09:21:33Z</time>
      </trkpt>
      <trkpt lat="45.03457" lon="5.44601">
        <ele>834</ele>
        <time>2016-09-11T09:21:36Z</time>
      </trkpt>
      <trkpt lat="45.03453" lon="5.44608">
        <ele>834</ele>
        <time>2016-09-11T09:21:39Z</time>
      </trkpt>
      <trkpt lat="45.03449" lon="5.44614">
        <ele>835</ele>
        <time>2016-09-11T09:21:42Z</time>
      </trkpt>
      <trkpt lat="45.03447" lon="5.44621">
        <ele>835</ele>
        <time>2016-09-11T09:21:45Z</time>
      </trkpt>
      <trkpt lat="45.03443" lon="5.44628">
        <ele>835</ele>
        <time>2016-09-11T09:21:48Z</time>
      </trkpt>
      <trkpt lat="45.0344" lon="5.44635">
        <ele>835</ele>
        <time>2016-09-11T09:21:51Z</time>
      </trkpt>
      <trkpt lat="45.03436" lon="5.44642">
        <ele>836</ele>
        <time>2016-09-11T09:21:54Z</time>
      </trkpt>
      <trkpt lat="45.03432" lon="5.44649">
        <ele>836</ele>
        <time>2016-09-11T09:21:57Z</time>
      </trkpt>
      <trkpt lat="45.03428" lon="5.44657">
        <ele>836</ele>
        <time>2016-09-11T09:22:00Z</time>
      </trkpt>
      <trkpt lat="45.03425" lon="5.44663">
        <ele>837</ele>
        <time>2016-09-11T09:22:03Z</time>
      </trkpt>
      <trkpt lat="45.03423" lon="5.4467">
        <ele>837</ele>
        <time>2016-09-11T09:22:06Z</time>
      </trkpt>
      <trkpt lat="45.0342" lon="5.44677">
        <ele>837</ele>
        <time>2016-09-11T09:22:09Z</time>
      </trkpt>
      <trkpt lat="45.03417" lon="5.44684">
        <ele>838</ele>
        <time>2016-09-11T09:22:12Z</time>
      </trkpt>
      <trkpt lat="45.03415" lon="5.44691">
        <ele>838</ele>
        <time>2016-09-11T09:22:15Z</time>
      </trkpt>
      <trkpt lat="45.03412" lon="5.44699">
        <ele>839</ele>
        <time>2016-09-11T09:22:18Z</time>
      </trkpt>
      <trkpt lat="45.03409" lon="5.44707">
        <ele>839</ele>
        <time>2016-09-11T09:22:21Z</time>
      </trkpt>
      <trkpt lat="45.03406" lon="5.44715">
        <ele>839</ele>
        <time>2016-09-11T09:22:24Z</time>
      </trkpt>
      <trkpt lat="45.03403" lon="5.44724">
        <ele>840</ele>
        <time>2016-09-11T09:22:27Z</time>
      </trkpt>
      <trkpt lat="45.034" lon="5.44731">
        <ele>840</ele>
        <time>2016-09-11T09:22:30Z</time>
      </trkpt>
      <trkpt lat="45.03396" lon="5.44738">
        <ele>841</ele>
        <time>2016-09-11T09:22:33Z</time>
      </trkpt>
      <trkpt lat="45.03394" lon="5.44744">
        <ele>842</ele>
        <time>2016-09-11T09:22:35Z</time>
      </trkpt>
      <trkpt lat="45.03391" lon="5.44749">
        <ele>842</ele>
        <time>2016-09-11T09:22:37Z</time>
      </trkpt>
      <trkpt lat="45.03389" lon="5.44755">
        <ele>843</ele>
        <time>2016-09-11T09:22:39Z</time>
      </trkpt>
      <trkpt lat="45.03386" lon="5.4476">
        <ele>843</ele>
        <time>2016-09-11T09:22:41Z</time>
      </trkpt>
      <trkpt lat="45.03383" lon="5.44765">
        <ele>843</ele>
        <time>2016-09-11T09:22:43Z</time>
      </trkpt>
      <trkpt lat="45.0338" lon="5.44773">
        <ele>844</ele>
        <time>2016-09-11T09:22:46Z</time>
      </trkpt>
      <trkpt lat="45.03376" lon="5.4478">
        <ele>844</ele>
        <time>2016-09-11T09:22:49Z</time>
      </trkpt>
      <trkpt lat="45.03373" lon="5.44789">
        <ele>843</ele>
        <time>2016-09-11T09:22:52Z</time>
      </trkpt>
      <trkpt lat="45.0337" lon="5.44794">
        <ele>843</ele>
        <time>2016-09-11T09:22:54Z</time>
      </trkpt>
      <trkpt lat="45.03368" lon="5.448">
        <ele>843</ele>
        <time>2016-09-11T09:22:56Z</time>
      </trkpt>
      <trkpt lat="45.03366" lon="5.44806">
        <ele>843</ele>
        <time>2016-09-11T09:22:58Z</time>
      </trkpt>
      <trkpt lat="45.03363" lon="5.44812">
        <ele>843</ele>
        <time>2016-09-11T09:23:00Z</time>
      </trkpt>
      <trkpt lat="45.0336" lon="5.44818">
        <ele>843</ele>
        <time>2016-09-11T09:23:02Z</time>
      </trkpt>
      <trkpt lat="45.03358" lon="5.44823">
        <ele>843</ele>
        <time>2016-09-11T09:23:04Z</time>
      </trkpt>
      <trkpt lat="45.03354" lon="5.44829">
        <ele>843</ele>
        <time>2016-09-11T09:23:07Z</time>
      </trkpt>
      <trkpt lat="45.03348" lon="5.44833">
        <ele>844</ele>
        <time>2016-09-11T09:23:10Z</time>
      </trkpt>
      <trkpt lat="45.03343" lon="5.44837">
        <ele>845</ele>
        <time>2016-09-11T09:23:13Z</time>
      </trkpt>
      <trkpt lat="45.03338" lon="5.44838">
        <ele>845</ele>
        <time>2016-09-11T09:23:16Z</time>
      </trkpt>
      <trkpt lat="45.03332" lon="5.44839">
        <ele>846</ele>
        <time>2016-09-11T09:23:19Z</time>
      </trkpt>
      <trkpt lat="45.03326" lon="5.44837">
        <ele>847</ele>
        <time>2016-09-11T09:23:22Z</time>
      </trkpt>
      <trkpt lat="45.0332" lon="5.44837">
        <ele>847</ele>
        <time>2016-09-11T09:23:25Z</time>
      </trkpt>
      <trkpt lat="45.03315" lon="5.44836">
        <ele>848</ele>
        <time>2016-09-11T09:23:27Z</time>
      </trkpt>
      <trkpt lat="45.03311" lon="5.44836">
        <ele>848</ele>
        <time>2016-09-11T09:23:29Z</time>
      </trkpt>
      <trkpt lat="45.03305" lon="5.44835">
        <ele>849</ele>
        <time>2016-09-11T09:23:31Z</time>
      </trkpt>
      <trkpt lat="45.033" lon="5.44836">
        <ele>849</ele>
        <time>2016-09-11T09:23:33Z</time>
      </trkpt>
      <trkpt lat="45.03295" lon="5.44836">
        <ele>850</ele>
        <time>2016-09-11T09:23:35Z</time>
      </trkpt>
      <trkpt lat="45.03289" lon="5.44838">
        <ele>850</ele>
        <time>2016-09-11T09:23:37Z</time>
      </trkpt>
      <trkpt lat="45.03285" lon="5.44839">
        <ele>850</ele>
        <time>2016-09-11T09:23:39Z</time>
      </trkpt>
      <trkpt lat="45.0328" lon="5.44841">
        <ele>850</ele>
        <time>2016-09-11T09:23:41Z</time>
      </trkpt>
      <trkpt lat="45.03275" lon="5.44843">
        <ele>851</ele>
        <time>2016-09-11T09:23:43Z</time>
      </trkpt>
      <trkpt lat="45.0327" lon="5.44845">
        <ele>851</ele>
        <time>2016-09-11T09:23:45Z</time>
      </trkpt>
      <trkpt lat="45.03266" lon="5.44847">
        <ele>851</ele>
        <time>2016-09-11T09:23:47Z</time>
      </trkpt>
      <trkpt lat="45.03261" lon="5.44849">
        <ele>851</ele>
        <time>2016-09-11T09:23:49Z</time>
      </trkpt>
      <trkpt lat="45.03257" lon="5.44851">
        <ele>852</ele>
        <time>2016-09-11T09:23:51Z</time>
      </trkpt>
      <trkpt lat="45.03253" lon="5.44854">
        <ele>852</ele>
        <time>2016-09-11T09:23:53Z</time>
      </trkpt>
      <trkpt lat="45.03247" lon="5.44859">
        <ele>852</ele>
        <time>2016-09-11T09:23:56Z</time>
      </trkpt>
      <trkpt lat="45.03241" lon="5.44863">
        <ele>852</ele>
        <time>2016-09-11T09:23:59Z</time>
      </trkpt>
      <trkpt lat="45.03235" lon="5.44867">
        <ele>852</ele>
        <time>2016-09-11T09:24:02Z</time>
      </trkpt>
      <trkpt lat="45.03231" lon="5.44871">
        <ele>852</ele>
        <time>2016-09-11T09:24:04Z</time>
      </trkpt>
      <trkpt lat="45.03228" lon="5.44875">
        <ele>852</ele>
        <time>2016-09-11T09:24:06Z</time>
      </trkpt>
      <trkpt lat="45.03223" lon="5.44879">
        <ele>852</ele>
        <time>2016-09-11T09:24:08Z</time>
      </trkpt>
      <trkpt lat="45.03219" lon="5.44883">
        <ele>852</ele>
        <time>2016-09-11T09:24:10Z</time>
      </trkpt>
      <trkpt lat="45.03215" lon="5.44888">
        <ele>853</ele>
        <time>2016-09-11T09:24:12Z</time>
      </trkpt>
      <trkpt lat="45.03211" lon="5.44892">
        <ele>853</ele>
        <time>2016-09-11T09:24:14Z</time>
      </trkpt>
      <trkpt lat="45.03207" lon="5.44897">
        <ele>854</ele>
        <time>2016-09-11T09:24:16Z</time>
      </trkpt>
      <trkpt lat="45.03203" lon="5.44902">
        <ele>854</ele>
        <time>2016-09-11T09:24:18Z</time>
      </trkpt>
      <trkpt lat="45.03199" lon="5.44908">
        <ele>854</ele>
        <time>2016-09-11T09:24:21Z</time>
      </trkpt>
      <trkpt lat="45.03195" lon="5.44915">
        <ele>854</ele>
        <time>2016-09-11T09:24:24Z</time>
      </trkpt>
      <trkpt lat="45.03193" lon="5.44921">
        <ele>854</ele>
        <time>2016-09-11T09:24:26Z</time>
      </trkpt>
      <trkpt lat="45.0319" lon="5.44926">
        <ele>853</ele>
        <time>2016-09-11T09:24:28Z</time>
      </trkpt>
      <trkpt lat="45.03188" lon="5.44932">
        <ele>853</ele>
        <time>2016-09-11T09:24:30Z</time>
      </trkpt>
      <trkpt lat="45.03185" lon="5.44937">
        <ele>853</ele>
        <time>2016-09-11T09:24:32Z</time>
      </trkpt>
      <trkpt lat="45.03182" lon="5.44942">
        <ele>852</ele>
        <time>2016-09-11T09:24:34Z</time>
      </trkpt>
      <trkpt lat="45.03178" lon="5.44947">
        <ele>852</ele>
        <time>2016-09-11T09:24:36Z</time>
      </trkpt>
      <trkpt lat="45.03175" lon="5.44953">
        <ele>852</ele>
        <time>2016-09-11T09:24:38Z</time>
      </trkpt>
      <trkpt lat="45.03171" lon="5.44958">
        <ele>852</ele>
        <time>2016-09-11T09:24:40Z</time>
      </trkpt>
      <trkpt lat="45.03168" lon="5.44963">
        <ele>853</ele>
        <time>2016-09-11T09:24:42Z</time>
      </trkpt>
      <trkpt lat="45.03164" lon="5.4497">
        <ele>853</ele>
        <time>2016-09-11T09:24:45Z</time>
      </trkpt>
      <trkpt lat="45.0316" lon="5.44977">
        <ele>854</ele>
        <time>2016-09-11T09:24:48Z</time>
      </trkpt>
      <trkpt lat="45.03156" lon="5.44982">
        <ele>854</ele>
        <time>2016-09-11T09:24:50Z</time>
      </trkpt>
      <trkpt lat="45.03152" lon="5.44989">
        <ele>854</ele>
        <time>2016-09-11T09:24:53Z</time>
      </trkpt>
      <trkpt lat="45.03148" lon="5.44993">
        <ele>854</ele>
        <time>2016-09-11T09:24:55Z</time>
      </trkpt>
      <trkpt lat="45.03144" lon="5.44997">
        <ele>854</ele>
        <time>2016-09-11T09:24:57Z</time>
      </trkpt>
      <trkpt lat="45.03139" lon="5.45002">
        <ele>855</ele>
        <time>2016-09-11T09:25:00Z</time>
      </trkpt>
      <trkpt lat="45.03134" lon="5.45006">
        <ele>855</ele>
        <time>2016-09-11T09:25:03Z</time>
      </trkpt>
      <trkpt lat="45.03128" lon="5.45011">
        <ele>856</ele>
        <time>2016-09-11T09:25:06Z</time>
      </trkpt>
      <trkpt lat="45.03124" lon="5.45016">
        <ele>856</ele>
        <time>2016-09-11T09:25:08Z</time>
      </trkpt>
      <trkpt lat="45.03119" lon="5.4502">
        <ele>856</ele>
        <time>2016-09-11T09:25:10Z</time>
      </trkpt>
      <trkpt lat="45.03116" lon="5.45025">
        <ele>856</ele>
        <time>2016-09-11T09:25:13Z</time>
      </trkpt>
      <trkpt lat="45.0311" lon="5.4503">
        <ele>857</ele>
        <time>2016-09-11T09:25:16Z</time>
      </trkpt>
      <trkpt lat="45.03106" lon="5.45034">
        <ele>857</ele>
        <time>2016-09-11T09:25:18Z</time>
      </trkpt>
      <trkpt lat="45.03101" lon="5.45038">
        <ele>858</ele>
        <time>2016-09-11T09:25:21Z</time>
      </trkpt>
      <trkpt lat="45.03097" lon="5.45041">
        <ele>858</ele>
        <time>2016-09-11T09:25:23Z</time>
      </trkpt>
      <trkpt lat="45.03092" lon="5.45045">
        <ele>858</ele>
        <time>2016-09-11T09:25:26Z</time>
      </trkpt>
      <trkpt lat="45.03087" lon="5.45048">
        <ele>858</ele>
        <time>2016-09-11T09:25:29Z</time>
      </trkpt>
      <trkpt lat="45.03083" lon="5.45052">
        <ele>858</ele>
        <time>2016-09-11T09:25:33Z</time>
      </trkpt>
      <trkpt lat="45.03079" lon="5.45056">
        <ele>857</ele>
        <time>2016-09-11T09:25:38Z</time>
      </trkpt>
      <trkpt lat="45.03074" lon="5.45059">
        <ele>856</ele>
        <time>2016-09-11T09:25:42Z</time>
      </trkpt>
      <trkpt lat="45.03069" lon="5.45061">
        <ele>856</ele>
        <time>2016-09-11T09:25:47Z</time>
      </trkpt>
      <trkpt lat="45.03064" lon="5.45063">
        <ele>856</ele>
        <time>2016-09-11T09:25:50Z</time>
      </trkpt>
      <trkpt lat="45.03059" lon="5.45067">
        <ele>855</ele>
        <time>2016-09-11T09:25:53Z</time>
      </trkpt>
      <trkpt lat="45.03053" lon="5.45069">
        <ele>856</ele>
        <time>2016-09-11T09:25:56Z</time>
      </trkpt>
      <trkpt lat="45.03048" lon="5.45071">
        <ele>857</ele>
        <time>2016-09-11T09:25:59Z</time>
      </trkpt>
      <trkpt lat="45.03044" lon="5.45074">
        <ele>858</ele>
        <time>2016-09-11T09:26:02Z</time>
      </trkpt>
      <trkpt lat="45.03039" lon="5.45076">
        <ele>859</ele>
        <time>2016-09-11T09:26:05Z</time>
      </trkpt>
      <trkpt lat="45.03035" lon="5.45077">
        <ele>860</ele>
        <time>2016-09-11T09:26:07Z</time>
      </trkpt>
      <trkpt lat="45.0303" lon="5.45079">
        <ele>861</ele>
        <time>2016-09-11T09:26:09Z</time>
      </trkpt>
      <trkpt lat="45.03025" lon="5.4508">
        <ele>862</ele>
        <time>2016-09-11T09:26:11Z</time>
      </trkpt>
      <trkpt lat="45.0302" lon="5.45082">
        <ele>862</ele>
        <time>2016-09-11T09:26:13Z</time>
      </trkpt>
      <trkpt lat="45.03015" lon="5.45085">
        <ele>863</ele>
        <time>2016-09-11T09:26:15Z</time>
      </trkpt>
      <trkpt lat="45.0301" lon="5.45087">
        <ele>863</ele>
        <time>2016-09-11T09:26:17Z</time>
      </trkpt>
      <trkpt lat="45.03004" lon="5.4509">
        <ele>864</ele>
        <time>2016-09-11T09:26:19Z</time>
      </trkpt>
      <trkpt lat="45.02998" lon="5.45094">
        <ele>865</ele>
        <time>2016-09-11T09:26:21Z</time>
      </trkpt>
      <trkpt lat="45.02993" lon="5.45097">
        <ele>865</ele>
        <time>2016-09-11T09:26:23Z</time>
      </trkpt>
      <trkpt lat="45.02987" lon="5.45101">
        <ele>866</ele>
        <time>2016-09-11T09:26:25Z</time>
      </trkpt>
      <trkpt lat="45.02983" lon="5.45104">
        <ele>867</ele>
        <time>2016-09-11T09:26:27Z</time>
      </trkpt>
      <trkpt lat="45.02977" lon="5.45108">
        <ele>868</ele>
        <time>2016-09-11T09:26:30Z</time>
      </trkpt>
      <trkpt lat="45.02972" lon="5.45113">
        <ele>869</ele>
        <time>2016-09-11T09:26:33Z</time>
      </trkpt>
      <trkpt lat="45.02968" lon="5.45116">
        <ele>869</ele>
        <time>2016-09-11T09:26:36Z</time>
      </trkpt>
      <trkpt lat="45.02964" lon="5.45119">
        <ele>870</ele>
        <time>2016-09-11T09:26:39Z</time>
      </trkpt>
      <trkpt lat="45.02959" lon="5.45124">
        <ele>870</ele>
        <time>2016-09-11T09:26:42Z</time>
      </trkpt>
      <trkpt lat="45.02955" lon="5.45128">
        <ele>871</ele>
        <time>2016-09-11T09:26:45Z</time>
      </trkpt>
      <trkpt lat="45.02951" lon="5.45132">
        <ele>871</ele>
        <time>2016-09-11T09:26:49Z</time>
      </trkpt>
      <trkpt lat="45.02947" lon="5.45135">
        <ele>871</ele>
        <time>2016-09-11T09:26:53Z</time>
      </trkpt>
      <trkpt lat="45.02942" lon="5.45138">
        <ele>871</ele>
        <time>2016-09-11T09:26:56Z</time>
      </trkpt>
      <trkpt lat="45.02938" lon="5.45141">
        <ele>871</ele>
        <time>2016-09-11T09:27:00Z</time>
      </trkpt>
      <trkpt lat="45.02933" lon="5.45145">
        <ele>871</ele>
        <time>2016-09-11T09:27:05Z</time>
      </trkpt>
      <trkpt lat="45.02928" lon="5.45147">
        <ele>871</ele>
        <time>2016-09-11T09:27:09Z</time>
      </trkpt>
      <trkpt lat="45.02924" lon="5.4515">
        <ele>871</ele>
        <time>2016-09-11T09:27:12Z</time>
      </trkpt>
      <trkpt lat="45.02918" lon="5.45153">
        <ele>872</ele>
        <time>2016-09-11T09:27:15Z</time>
      </trkpt>
      <trkpt lat="45.02913" lon="5.45156">
        <ele>872</ele>
        <time>2016-09-11T09:27:18Z</time>
      </trkpt>
      <trkpt lat="45.02908" lon="5.45159">
        <ele>873</ele>
        <time>2016-09-11T09:27:21Z</time>
      </trkpt>
      <trkpt lat="45.02903" lon="5.45163">
        <ele>872</ele>
        <time>2016-09-11T09:27:25Z</time>
      </trkpt>
      <trkpt lat="45.02898" lon="5.45167">
        <ele>872</ele>
        <time>2016-09-11T09:27:28Z</time>
      </trkpt>
      <trkpt lat="45.02893" lon="5.45171">
        <ele>871</ele>
        <time>2016-09-11T09:27:30Z</time>
      </trkpt>
      <trkpt lat="45.02888" lon="5.45174">
        <ele>871</ele>
        <time>2016-09-11T09:27:32Z</time>
      </trkpt>
      <trkpt lat="45.02883" lon="5.45176">
        <ele>870</ele>
        <time>2016-09-11T09:27:34Z</time>
      </trkpt>
      <trkpt lat="45.02879" lon="5.45179">
        <ele>871</ele>
        <time>2016-09-11T09:27:36Z</time>
      </trkpt>
      <trkpt lat="45.02874" lon="5.45184">
        <ele>871</ele>
        <time>2016-09-11T09:27:39Z</time>
      </trkpt>
      <trkpt lat="45.0287" lon="5.4519">
        <ele>871</ele>
        <time>2016-09-11T09:27:42Z</time>
      </trkpt>
      <trkpt lat="45.02867" lon="5.45195">
        <ele>873</ele>
        <time>2016-09-11T09:27:44Z</time>
      </trkpt>
      <trkpt lat="45.02863" lon="5.452">
        <ele>874</ele>
        <time>2016-09-11T09:27:46Z</time>
      </trkpt>
      <trkpt lat="45.0286" lon="5.45205">
        <ele>875</ele>
        <time>2016-09-11T09:27:48Z</time>
      </trkpt>
      <trkpt lat="45.02855" lon="5.45211">
        <ele>877</ele>
        <time>2016-09-11T09:27:51Z</time>
      </trkpt>
      <trkpt lat="45.02851" lon="5.45217">
        <ele>879</ele>
        <time>2016-09-11T09:27:54Z</time>
      </trkpt>
      <trkpt lat="45.02848" lon="5.45221">
        <ele>880</ele>
        <time>2016-09-11T09:27:56Z</time>
      </trkpt>
      <trkpt lat="45.02843" lon="5.45228">
        <ele>882</ele>
        <time>2016-09-11T09:27:59Z</time>
      </trkpt>
      <trkpt lat="45.0284" lon="5.45234">
        <ele>882</ele>
        <time>2016-09-11T09:28:03Z</time>
      </trkpt>
      <trkpt lat="45.02837" lon="5.4524">
        <ele>882</ele>
        <time>2016-09-11T09:28:10Z</time>
      </trkpt>
      <trkpt lat="45.02834" lon="5.45245">
        <ele>881</ele>
        <time>2016-09-11T09:28:14Z</time>
      </trkpt>
      <trkpt lat="45.0283" lon="5.4525">
        <ele>880</ele>
        <time>2016-09-11T09:28:17Z</time>
      </trkpt>
      <trkpt lat="45.02826" lon="5.45255">
        <ele>880</ele>
        <time>2016-09-11T09:28:20Z</time>
      </trkpt>
      <trkpt lat="45.02823" lon="5.45262">
        <ele>880</ele>
        <time>2016-09-11T09:28:24Z</time>
      </trkpt>
      <trkpt lat="45.02819" lon="5.45267">
        <ele>880</ele>
        <time>2016-09-11T09:28:27Z</time>
      </trkpt>
      <trkpt lat="45.02815" lon="5.45271">
        <ele>881</ele>
        <time>2016-09-11T09:28:29Z</time>
      </trkpt>
      <trkpt lat="45.0281" lon="5.45275">
        <ele>881</ele>
        <time>2016-09-11T09:28:32Z</time>
      </trkpt>
      <trkpt lat="45.02805" lon="5.45281">
        <ele>881</ele>
        <time>2016-09-11T09:28:35Z</time>
      </trkpt>
      <trkpt lat="45.028" lon="5.45286">
        <ele>882</ele>
        <time>2016-09-11T09:28:38Z</time>
      </trkpt>
      <trkpt lat="45.02794" lon="5.45291">
        <ele>883</ele>
        <time>2016-09-11T09:28:41Z</time>
      </trkpt>
      <trkpt lat="45.02789" lon="5.45295">
        <ele>884</ele>
        <time>2016-09-11T09:28:44Z</time>
      </trkpt>
      <trkpt lat="45.02784" lon="5.453">
        <ele>886</ele>
        <time>2016-09-11T09:28:47Z</time>
      </trkpt>
      <trkpt lat="45.02781" lon="5.45307">
        <ele>887</ele>
        <time>2016-09-11T09:28:51Z</time>
      </trkpt>
      <trkpt lat="45.02779" lon="5.45313">
        <ele>888</ele>
        <time>2016-09-11T09:28:55Z</time>
      </trkpt>
      <trkpt lat="45.02776" lon="5.45318">
        <ele>888</ele>
        <time>2016-09-11T09:28:58Z</time>
      </trkpt>
      <trkpt lat="45.0277" lon="5.45324">
        <ele>888</ele>
        <time>2016-09-11T09:29:01Z</time>
      </trkpt>
      <trkpt lat="45.02766" lon="5.45329">
        <ele>889</ele>
        <time>2016-09-11T09:29:04Z</time>
      </trkpt>
      <trkpt lat="45.02762" lon="5.45335">
        <ele>890</ele>
        <time>2016-09-11T09:29:07Z</time>
      </trkpt>
      <trkpt lat="45.02758" lon="5.45341">
        <ele>892</ele>
        <time>2016-09-11T09:29:10Z</time>
      </trkpt>
      <trkpt lat="45.02754" lon="5.45345">
        <ele>893</ele>
        <time>2016-09-11T09:29:13Z</time>
      </trkpt>
      <trkpt lat="45.0275" lon="5.45349">
        <ele>895</ele>
        <time>2016-09-11T09:29:16Z</time>
      </trkpt>
      <trkpt lat="45.02747" lon="5.45354">
        <ele>896</ele>
        <time>2016-09-11T09:29:19Z</time>
      </trkpt>
      <trkpt lat="45.02744" lon="5.45359">
        <ele>897</ele>
        <time>2016-09-11T09:29:22Z</time>
      </trkpt>
      <trkpt lat="45.0274" lon="5.45364">
        <ele>898</ele>
        <time>2016-09-11T09:29:25Z</time>
      </trkpt>
      <trkpt lat="45.02736" lon="5.45368">
        <ele>900</ele>
        <time>2016-09-11T09:29:28Z</time>
      </trkpt>
      <trkpt lat="45.02731" lon="5.45373">
        <ele>901</ele>
        <time>2016-09-11T09:29:31Z</time>
      </trkpt>
      <trkpt lat="45.0273" lon="5.4538">
        <ele>902</ele>
        <time>2016-09-11T09:29:35Z</time>
      </trkpt>
      <trkpt lat="45.02726" lon="5.45385">
        <ele>903</ele>
        <time>2016-09-11T09:29:39Z</time>
      </trkpt>
      <trkpt lat="45.02723" lon="5.45392">
        <ele>904</ele>
        <time>2016-09-11T09:29:43Z</time>
      </trkpt>
      <trkpt lat="45.02719" lon="5.45397">
        <ele>904</ele>
        <time>2016-09-11T09:29:46Z</time>
      </trkpt>
      <trkpt lat="45.02716" lon="5.45401">
        <ele>904</ele>
        <time>2016-09-11T09:29:49Z</time>
      </trkpt>
      <trkpt lat="45.02712" lon="5.45407">
        <ele>904</ele>
        <time>2016-09-11T09:29:53Z</time>
      </trkpt>
      <trkpt lat="45.0271" lon="5.45414">
        <ele>904</ele>
        <time>2016-09-11T09:29:57Z</time>
      </trkpt>
      <trkpt lat="45.02705" lon="5.45421">
        <ele>904</ele>
        <time>2016-09-11T09:30:00Z</time>
      </trkpt>
      <trkpt lat="45.02702" lon="5.45426">
        <ele>904</ele>
        <time>2016-09-11T09:30:02Z</time>
      </trkpt>
      <trkpt lat="45.02699" lon="5.45432">
        <ele>903</ele>
        <time>2016-09-11T09:30:05Z</time>
      </trkpt>
      <trkpt lat="45.02695" lon="5.45439">
        <ele>904</ele>
        <time>2016-09-11T09:30:09Z</time>
      </trkpt>
      <trkpt lat="45.02691" lon="5.45443">
        <ele>905</ele>
        <time>2016-09-11T09:30:13Z</time>
      </trkpt>
      <trkpt lat="45.02686" lon="5.45447">
        <ele>906</ele>
        <time>2016-09-11T09:30:20Z</time>
      </trkpt>
      <trkpt lat="45.02681" lon="5.45447">
        <ele>907</ele>
        <time>2016-09-11T09:30:24Z</time>
      </trkpt>
      <trkpt lat="45.02674" lon="5.45448">
        <ele>908</ele>
        <time>2016-09-11T09:30:29Z</time>
      </trkpt>
      <trkpt lat="45.02669" lon="5.45451">
        <ele>908</ele>
        <time>2016-09-11T09:30:32Z</time>
      </trkpt>
      <trkpt lat="45.02664" lon="5.45456">
        <ele>909</ele>
        <time>2016-09-11T09:30:36Z</time>
      </trkpt>
      <trkpt lat="45.0266" lon="5.45458">
        <ele>909</ele>
        <time>2016-09-11T09:30:39Z</time>
      </trkpt>
      <trkpt lat="45.02654" lon="5.45461">
        <ele>909</ele>
        <time>2016-09-11T09:30:42Z</time>
      </trkpt>
      <trkpt lat="45.02651" lon="5.45465">
        <ele>910</ele>
        <time>2016-09-11T09:30:44Z</time>
      </trkpt>
      <trkpt lat="45.02646" lon="5.45469">
        <ele>910</ele>
        <time>2016-09-11T09:30:46Z</time>
      </trkpt>
      <trkpt lat="45.02642" lon="5.45475">
        <ele>911</ele>
        <time>2016-09-11T09:30:49Z</time>
      </trkpt>
      <trkpt lat="45.02638" lon="5.45481">
        <ele>912</ele>
        <time>2016-09-11T09:30:52Z</time>
      </trkpt>
      <trkpt lat="45.02634" lon="5.45488">
        <ele>913</ele>
        <time>2016-09-11T09:30:55Z</time>
      </trkpt>
      <trkpt lat="45.02632" lon="5.45493">
        <ele>913</ele>
        <time>2016-09-11T09:30:58Z</time>
      </trkpt>
      <trkpt lat="45.02629" lon="5.45498">
        <ele>914</ele>
        <time>2016-09-11T09:31:01Z</time>
      </trkpt>
      <trkpt lat="45.02627" lon="5.45504">
        <ele>914</ele>
        <time>2016-09-11T09:31:04Z</time>
      </trkpt>
      <trkpt lat="45.02624" lon="5.4551">
        <ele>914</ele>
        <time>2016-09-11T09:31:08Z</time>
      </trkpt>
      <trkpt lat="45.02621" lon="5.45515">
        <ele>915</ele>
        <time>2016-09-11T09:31:11Z</time>
      </trkpt>
      <trkpt lat="45.02618" lon="5.4552">
        <ele>915</ele>
        <time>2016-09-11T09:31:14Z</time>
      </trkpt>
      <trkpt lat="45.02615" lon="5.45526">
        <ele>915</ele>
        <time>2016-09-11T09:31:17Z</time>
      </trkpt>
      <trkpt lat="45.02611" lon="5.4553">
        <ele>915</ele>
        <time>2016-09-11T09:31:20Z</time>
      </trkpt>
      <trkpt lat="45.02607" lon="5.45534">
        <ele>915</ele>
        <time>2016-09-11T09:31:23Z</time>
      </trkpt>
      <trkpt lat="45.02601" lon="5.45538">
        <ele>915</ele>
        <time>2016-09-11T09:31:26Z</time>
      </trkpt>
      <trkpt lat="45.02596" lon="5.45542">
        <ele>915</ele>
        <time>2016-09-11T09:31:29Z</time>
      </trkpt>
      <trkpt lat="45.0259" lon="5.45545">
        <ele>915</ele>
        <time>2016-09-11T09:31:32Z</time>
      </trkpt>
      <trkpt lat="45.02585" lon="5.4555">
        <ele>916</ele>
        <time>2016-09-11T09:31:35Z</time>
      </trkpt>
      <trkpt lat="45.02581" lon="5.45555">
        <ele>917</ele>
        <time>2016-09-11T09:31:38Z</time>
      </trkpt>
      <trkpt lat="45.02576" lon="5.4556">
        <ele>918</ele>
        <time>2016-09-11T09:31:41Z</time>
      </trkpt>
      <trkpt lat="45.02572" lon="5.45567">
        <ele>920</ele>
        <time>2016-09-11T09:31:44Z</time>
      </trkpt>
      <trkpt lat="45.02568" lon="5.45573">
        <ele>920</ele>
        <time>2016-09-11T09:31:47Z</time>
      </trkpt>
      <trkpt lat="45.02565" lon="5.45579">
        <ele>921</ele>
        <time>2016-09-11T09:31:50Z</time>
      </trkpt>
      <trkpt lat="45.02563" lon="5.45586">
        <ele>922</ele>
        <time>2016-09-11T09:31:53Z</time>
      </trkpt>
      <trkpt lat="45.0256" lon="5.45592">
        <ele>922</ele>
        <time>2016-09-11T09:31:56Z</time>
      </trkpt>
      <trkpt lat="45.02557" lon="5.45599">
        <ele>923</ele>
        <time>2016-09-11T09:31:59Z</time>
      </trkpt>
      <trkpt lat="45.02553" lon="5.45606">
        <ele>924</ele>
        <time>2016-09-11T09:32:02Z</time>
      </trkpt>
      <trkpt lat="45.0255" lon="5.45613">
        <ele>925</ele>
        <time>2016-09-11T09:32:05Z</time>
      </trkpt>
      <trkpt lat="45.02547" lon="5.4562">
        <ele>927</ele>
        <time>2016-09-11T09:32:08Z</time>
      </trkpt>
      <trkpt lat="45.02543" lon="5.45627">
        <ele>928</ele>
        <time>2016-09-11T09:32:11Z</time>
      </trkpt>
      <trkpt lat="45.02541" lon="5.45633">
        <ele>929</ele>
        <time>2016-09-11T09:32:14Z</time>
      </trkpt>
      <trkpt lat="45.02538" lon="5.4564">
        <ele>929</ele>
        <time>2016-09-11T09:32:18Z</time>
      </trkpt>
      <trkpt lat="45.02535" lon="5.45645">
        <ele>929</ele>
        <time>2016-09-11T09:32:22Z</time>
      </trkpt>
      <trkpt lat="45.02532" lon="5.4565">
        <ele>929</ele>
        <time>2016-09-11T09:32:25Z</time>
      </trkpt>
      <trkpt lat="45.02528" lon="5.45655">
        <ele>929</ele>
        <time>2016-09-11T09:32:28Z</time>
      </trkpt>
      <trkpt lat="45.02525" lon="5.45661">
        <ele>929</ele>
        <time>2016-09-11T09:32:31Z</time>
      </trkpt>
      <trkpt lat="45.02523" lon="5.45667">
        <ele>929</ele>
        <time>2016-09-11T09:32:34Z</time>
      </trkpt>
      <trkpt lat="45.0252" lon="5.45674">
        <ele>929</ele>
        <time>2016-09-11T09:32:37Z</time>
      </trkpt>
      <trkpt lat="45.02517" lon="5.45682">
        <ele>929</ele>
        <time>2016-09-11T09:32:40Z</time>
      </trkpt>
      <trkpt lat="45.02516" lon="5.4569">
        <ele>929</ele>
        <time>2016-09-11T09:32:43Z</time>
      </trkpt>
      <trkpt lat="45.02515" lon="5.45697">
        <ele>928</ele>
        <time>2016-09-11T09:32:46Z</time>
      </trkpt>
      <trkpt lat="45.02514" lon="5.45706">
        <ele>928</ele>
        <time>2016-09-11T09:32:49Z</time>
      </trkpt>
      <trkpt lat="45.02513" lon="5.45714">
        <ele>929</ele>
        <time>2016-09-11T09:32:52Z</time>
      </trkpt>
      <trkpt lat="45.02511" lon="5.4572">
        <ele>929</ele>
        <time>2016-09-11T09:32:55Z</time>
      </trkpt>
      <trkpt lat="45.02508" lon="5.45727">
        <ele>931</ele>
        <time>2016-09-11T09:32:59Z</time>
      </trkpt>
      <trkpt lat="45.02505" lon="5.45733">
        <ele>932</ele>
        <time>2016-09-11T09:33:04Z</time>
      </trkpt>
      <trkpt lat="45.02503" lon="5.45739">
        <ele>935</ele>
        <time>2016-09-11T09:33:08Z</time>
      </trkpt>
      <trkpt lat="45.025" lon="5.45746">
        <ele>937</ele>
        <time>2016-09-11T09:33:12Z</time>
      </trkpt>
      <trkpt lat="45.02498" lon="5.45753">
        <ele>939</ele>
        <time>2016-09-11T09:33:16Z</time>
      </trkpt>
      <trkpt lat="45.02494" lon="5.45759">
        <ele>942</ele>
        <time>2016-09-11T09:33:19Z</time>
      </trkpt>
      <trkpt lat="45.02491" lon="5.45765">
        <ele>943</ele>
        <time>2016-09-11T09:33:23Z</time>
      </trkpt>
      <trkpt lat="45.0249" lon="5.45771">
        <ele>943</ele>
        <time>2016-09-11T09:33:27Z</time>
      </trkpt>
      <trkpt lat="45.02488" lon="5.4578">
        <ele>944</ele>
        <time>2016-09-11T09:33:31Z</time>
      </trkpt>
      <trkpt lat="45.02484" lon="5.45785">
        <ele>945</ele>
        <time>2016-09-11T09:33:34Z</time>
      </trkpt>
      <trkpt lat="45.02481" lon="5.45792">
        <ele>945</ele>
        <time>2016-09-11T09:33:37Z</time>
      </trkpt>
      <trkpt lat="45.02479" lon="5.45798">
        <ele>947</ele>
        <time>2016-09-11T09:33:40Z</time>
      </trkpt>
      <trkpt lat="45.02477" lon="5.45804">
        <ele>949</ele>
        <time>2016-09-11T09:33:43Z</time>
      </trkpt>
      <trkpt lat="45.02475" lon="5.4581">
        <ele>950</ele>
        <time>2016-09-11T09:33:46Z</time>
      </trkpt>
      <trkpt lat="45.02473" lon="5.45817">
        <ele>951</ele>
        <time>2016-09-11T09:33:50Z</time>
      </trkpt>
      <trkpt lat="45.02471" lon="5.45823">
        <ele>951</ele>
        <time>2016-09-11T09:33:53Z</time>
      </trkpt>
      <trkpt lat="45.02469" lon="5.4583">
        <ele>952</ele>
        <time>2016-09-11T09:33:56Z</time>
      </trkpt>
      <trkpt lat="45.02469" lon="5.45837">
        <ele>951</ele>
        <time>2016-09-11T09:34:00Z</time>
      </trkpt>
      <trkpt lat="45.02468" lon="5.45843">
        <ele>951</ele>
        <time>2016-09-11T09:34:04Z</time>
      </trkpt>
      <trkpt lat="45.02468" lon="5.4585">
        <ele>951</ele>
        <time>2016-09-11T09:34:09Z</time>
      </trkpt>
      <trkpt lat="45.02467" lon="5.45857">
        <ele>950</ele>
        <time>2016-09-11T09:34:13Z</time>
      </trkpt>
      <trkpt lat="45.02464" lon="5.45864">
        <ele>949</ele>
        <time>2016-09-11T09:34:17Z</time>
      </trkpt>
      <trkpt lat="45.02462" lon="5.4587">
        <ele>949</ele>
        <time>2016-09-11T09:34:21Z</time>
      </trkpt>
      <trkpt lat="45.02461" lon="5.45877">
        <ele>950</ele>
        <time>2016-09-11T09:34:25Z</time>
      </trkpt>
      <trkpt lat="45.02459" lon="5.45883">
        <ele>950</ele>
        <time>2016-09-11T09:34:28Z</time>
      </trkpt>
      <trkpt lat="45.02457" lon="5.4589">
        <ele>951</ele>
        <time>2016-09-11T09:34:31Z</time>
      </trkpt>
      <trkpt lat="45.02454" lon="5.45897">
        <ele>952</ele>
        <time>2016-09-11T09:34:34Z</time>
      </trkpt>
      <trkpt lat="45.02451" lon="5.45904">
        <ele>953</ele>
        <time>2016-09-11T09:34:37Z</time>
      </trkpt>
      <trkpt lat="45.02449" lon="5.45911">
        <ele>954</ele>
        <time>2016-09-11T09:34:40Z</time>
      </trkpt>
      <trkpt lat="45.02446" lon="5.45916">
        <ele>956</ele>
        <time>2016-09-11T09:34:43Z</time>
      </trkpt>
      <trkpt lat="45.02442" lon="5.45922">
        <ele>958</ele>
        <time>2016-09-11T09:34:47Z</time>
      </trkpt>
      <trkpt lat="45.02438" lon="5.45927">
        <ele>959</ele>
        <time>2016-09-11T09:34:51Z</time>
      </trkpt>
      <trkpt lat="45.02434" lon="5.45931">
        <ele>960</ele>
        <time>2016-09-11T09:34:54Z</time>
      </trkpt>
      <trkpt lat="45.0243" lon="5.45935">
        <ele>960</ele>
        <time>2016-09-11T09:34:59Z</time>
      </trkpt>
      <trkpt lat="45.02427" lon="5.4594">
        <ele>961</ele>
        <time>2016-09-11T09:35:05Z</time>
      </trkpt>
      <trkpt lat="45.02422" lon="5.45942">
        <ele>960</ele>
        <time>2016-09-11T09:35:27Z</time>
      </trkpt>
      <trkpt lat="45.02417" lon="5.4594">
        <ele>961</ele>
        <time>2016-09-11T09:35:34Z</time>
      </trkpt>
      <trkpt lat="45.02415" lon="5.4594">
        <ele>962</ele>
        <time>2016-09-11T09:35:59Z</time>
      </trkpt>
      <trkpt lat="45.02415" lon="5.4594">
        <ele>962</ele>
        <time>2016-09-11T09:36:01Z</time>
      </trkpt>
      <trkpt lat="45.02415" lon="5.4594">
        <ele>962</ele>
        <time>2016-09-11T09:36:29Z</time>
      </trkpt>
      <trkpt lat="45.02415" lon="5.4594">
        <ele>963</ele>
        <time>2016-09-11T09:36:31Z</time>
      </trkpt>
      <trkpt lat="45.02414" lon="5.4594">
        <ele>963</ele>
        <time>2016-09-11T09:36:59Z</time>
      </trkpt>
      <trkpt lat="45.02414" lon="5.4594">
        <ele>963</ele>
        <time>2016-09-11T09:37:01Z</time>
      </trkpt>
      <trkpt lat="45.02414" lon="5.4594">
        <ele>963</ele>
        <time>2016-09-11T09:37:29Z</time>
      </trkpt>
      <trkpt lat="45.02414" lon="5.4594">
        <ele>963</ele>
        <time>2016-09-11T09:37:31Z</time>
      </trkpt>
      <trkpt lat="45.02414" lon="5.4594">
        <ele>963</ele>
        <time>2016-09-11T09:37:59Z</time>
      </trkpt>
      <trkpt lat="45.02414" lon="5.4594">
        <ele>963</ele>
        <time>2016-09-11T09:38:01Z</time>
      </trkpt>
      <trkpt lat="45.02414" lon="5.4594">
        <ele>963</ele>
        <time>2016-09-11T09:38:29Z</time>
      </trkpt>
      <trkpt lat="45.02414" lon="5.4594">
        <ele>963</ele>
        <time>2016-09-11T09:38:31Z</time>
      </trkpt>
      <trkpt lat="45.02414" lon="5.4594">
        <ele>963</ele>
        <time>2016-09-11T09:38:59Z</time>
      </trkpt>
      <trkpt lat="45.02414" lon="5.4594">
        <ele>963</ele>
        <time>2016-09-11T09:39:01Z</time>
      </trkpt>
      <trkpt lat="45.02414" lon="5.45941">
        <ele>963</ele>
        <time>2016-09-11T09:39:29Z</time>
      </trkpt>
      <trkpt lat="45.02414" lon="5.45941">
        <ele>963</ele>
        <time>2016-09-11T09:39:31Z</time>
      </trkpt>
      <trkpt lat="45.02414" lon="5.45941">
        <ele>963</ele>
        <time>2016-09-11T09:39:59Z</time>
      </trkpt>
      <trkpt lat="45.02414" lon="5.45941">
        <ele>963</ele>
        <time>2016-09-11T09:40:02Z</time>
      </trkpt>
      <trkpt lat="45.02414" lon="5.45941">
        <ele>963</ele>
        <time>2016-09-11T09:40:29Z</time>
      </trkpt>
      <trkpt lat="45.02414" lon="5.45941">
        <ele>963</ele>
        <time>2016-09-11T09:40:31Z</time>
      </trkpt>
      <trkpt lat="45.02414" lon="5.45941">
        <ele>963</ele>
        <time>2016-09-11T09:40:59Z</time>
      </trkpt>
      <trkpt lat="45.02414" lon="5.45941">
        <ele>964</ele>
        <time>2016-09-11T09:41:01Z</time>
      </trkpt>
      <trkpt lat="45.02414" lon="5.45941">
        <ele>964</ele>
        <time>2016-09-11T09:41:29Z</time>
      </trkpt>
      <trkpt lat="45.02414" lon="5.45941">
        <ele>964</ele>
        <time>2016-09-11T09:41:31Z</time>
      </trkpt>
      <trkpt lat="45.02417" lon="5.45946">
        <ele>963</ele>
        <time>2016-09-11T09:41:44Z</time>
      </trkpt>
      <trkpt lat="45.02416" lon="5.45951">
        <ele>962</ele>
        <time>2016-09-11T09:41:48Z</time>
      </trkpt>
      <trkpt lat="45.02412" lon="5.45958">
        <ele>961</ele>
        <time>2016-09-11T09:41:54Z</time>
      </trkpt>
      <trkpt lat="45.02409" lon="5.45963">
        <ele>960</ele>
        <time>2016-09-11T09:41:58Z</time>
      </trkpt>
      <trkpt lat="45.02407" lon="5.45969">
        <ele>960</ele>
        <time>2016-09-11T09:42:06Z</time>
      </trkpt>
      <trkpt lat="45.02402" lon="5.45972">
        <ele>960</ele>
        <time>2016-09-11T09:42:09Z</time>
      </trkpt>
      <trkpt lat="45.02396" lon="5.45975">
        <ele>962</ele>
        <time>2016-09-11T09:42:12Z</time>
      </trkpt>
      <trkpt lat="45.02391" lon="5.45976">
        <ele>963</ele>
        <time>2016-09-11T09:42:15Z</time>
      </trkpt>
      <trkpt lat="45.02386" lon="5.45977">
        <ele>964</ele>
        <time>2016-09-11T09:42:18Z</time>
      </trkpt>
      <trkpt lat="45.0238" lon="5.45978">
        <ele>965</ele>
        <time>2016-09-11T09:42:21Z</time>
      </trkpt>
      <trkpt lat="45.02376" lon="5.4598">
        <ele>966</ele>
        <time>2016-09-11T09:42:26Z</time>
      </trkpt>
      <trkpt lat="45.02371" lon="5.45982">
        <ele>967</ele>
        <time>2016-09-11T09:42:30Z</time>
      </trkpt>
      <trkpt lat="45.02367" lon="5.45984">
        <ele>967</ele>
        <time>2016-09-11T09:42:32Z</time>
      </trkpt>
      <trkpt lat="45.02361" lon="5.45986">
        <ele>969</ele>
        <time>2016-09-11T09:42:35Z</time>
      </trkpt>
      <trkpt lat="45.02355" lon="5.45988">
        <ele>971</ele>
        <time>2016-09-11T09:42:38Z</time>
      </trkpt>
      <trkpt lat="45.0235" lon="5.4599">
        <ele>971</ele>
        <time>2016-09-11T09:42:40Z</time>
      </trkpt>
      <trkpt lat="45.02346" lon="5.45993">
        <ele>970</ele>
        <time>2016-09-11T09:42:42Z</time>
      </trkpt>
      <trkpt lat="45.02341" lon="5.45996">
        <ele>969</ele>
        <time>2016-09-11T09:42:44Z</time>
      </trkpt>
      <trkpt lat="45.02337" lon="5.45999">
        <ele>967</ele>
        <time>2016-09-11T09:42:46Z</time>
      </trkpt>
      <trkpt lat="45.02333" lon="5.46002">
        <ele>964</ele>
        <time>2016-09-11T09:42:48Z</time>
      </trkpt>
      <trkpt lat="45.02329" lon="5.46006">
        <ele>962</ele>
        <time>2016-09-11T09:42:50Z</time>
      </trkpt>
      <trkpt lat="45.02324" lon="5.4601">
        <ele>962</ele>
        <time>2016-09-11T09:42:52Z</time>
      </trkpt>
      <trkpt lat="45.02319" lon="5.46013">
        <ele>963</ele>
        <time>2016-09-11T09:42:54Z</time>
      </trkpt>
      <trkpt lat="45.02315" lon="5.46017">
        <ele>964</ele>
        <time>2016-09-11T09:42:56Z</time>
      </trkpt>
      <trkpt lat="45.02311" lon="5.4602">
        <ele>965</ele>
        <time>2016-09-11T09:42:58Z</time>
      </trkpt>
      <trkpt lat="45.02306" lon="5.46026">
        <ele>967</ele>
        <time>2016-09-11T09:43:01Z</time>
      </trkpt>
      <trkpt lat="45.02301" lon="5.46031">
        <ele>970</ele>
        <time>2016-09-11T09:43:04Z</time>
      </trkpt>
      <trkpt lat="45.02297" lon="5.46036">
        <ele>972</ele>
        <time>2016-09-11T09:43:07Z</time>
      </trkpt>
      <trkpt lat="45.02293" lon="5.4604">
        <ele>974</ele>
        <time>2016-09-11T09:43:10Z</time>
      </trkpt>
      <trkpt lat="45.0229" lon="5.46044">
        <ele>975</ele>
        <time>2016-09-11T09:43:14Z</time>
      </trkpt>
      <trkpt lat="45.02285" lon="5.46048">
        <ele>977</ele>
        <time>2016-09-11T09:43:19Z</time>
      </trkpt>
      <trkpt lat="45.02281" lon="5.46053">
        <ele>978</ele>
        <time>2016-09-11T09:43:28Z</time>
      </trkpt>
      <trkpt lat="45.02276" lon="5.46055">
        <ele>979</ele>
        <time>2016-09-11T09:43:30Z</time>
      </trkpt>
      <trkpt lat="45.02271" lon="5.46056">
        <ele>980</ele>
        <time>2016-09-11T09:43:33Z</time>
      </trkpt>
      <trkpt lat="45.02265" lon="5.46059">
        <ele>981</ele>
        <time>2016-09-11T09:43:36Z</time>
      </trkpt>
      <trkpt lat="45.02259" lon="5.46063">
        <ele>981</ele>
        <time>2016-09-11T09:43:39Z</time>
      </trkpt>
      <trkpt lat="45.02255" lon="5.46067">
        <ele>982</ele>
        <time>2016-09-11T09:43:42Z</time>
      </trkpt>
      <trkpt lat="45.0225" lon="5.4607">
        <ele>982</ele>
        <time>2016-09-11T09:43:46Z</time>
      </trkpt>
      <trkpt lat="45.02245" lon="5.46072">
        <ele>983</ele>
        <time>2016-09-11T09:43:52Z</time>
      </trkpt>
      <trkpt lat="45.0224" lon="5.46074">
        <ele>984</ele>
        <time>2016-09-11T09:43:57Z</time>
      </trkpt>
      <trkpt lat="45.02235" lon="5.46076">
        <ele>986</ele>
        <time>2016-09-11T09:44:02Z</time>
      </trkpt>
      <trkpt lat="45.0223" lon="5.46077">
        <ele>988</ele>
        <time>2016-09-11T09:44:05Z</time>
      </trkpt>
      <trkpt lat="45.02225" lon="5.46079">
        <ele>990</ele>
        <time>2016-09-11T09:44:08Z</time>
      </trkpt>
      <trkpt lat="45.02219" lon="5.46081">
        <ele>992</ele>
        <time>2016-09-11T09:44:11Z</time>
      </trkpt>
      <trkpt lat="45.02213" lon="5.46082">
        <ele>993</ele>
        <time>2016-09-11T09:44:14Z</time>
      </trkpt>
      <trkpt lat="45.02207" lon="5.46083">
        <ele>994</ele>
        <time>2016-09-11T09:44:17Z</time>
      </trkpt>
      <trkpt lat="45.02202" lon="5.46083">
        <ele>994</ele>
        <time>2016-09-11T09:44:19Z</time>
      </trkpt>
      <trkpt lat="45.02196" lon="5.46085">
        <ele>993</ele>
        <time>2016-09-11T09:44:22Z</time>
      </trkpt>
      <trkpt lat="45.0219" lon="5.46086">
        <ele>992</ele>
        <time>2016-09-11T09:44:25Z</time>
      </trkpt>
      <trkpt lat="45.02185" lon="5.46087">
        <ele>992</ele>
        <time>2016-09-11T09:44:28Z</time>
      </trkpt>
      <trkpt lat="45.0218" lon="5.46088">
        <ele>992</ele>
        <time>2016-09-11T09:44:31Z</time>
      </trkpt>
      <trkpt lat="45.02174" lon="5.4609">
        <ele>992</ele>
        <time>2016-09-11T09:44:34Z</time>
      </trkpt>
      <trkpt lat="45.02169" lon="5.46091">
        <ele>993</ele>
        <time>2016-09-11T09:44:37Z</time>
      </trkpt>
      <trkpt lat="45.02165" lon="5.46091">
        <ele>995</ele>
        <time>2016-09-11T09:44:40Z</time>
      </trkpt>
      <trkpt lat="45.0216" lon="5.46093">
        <ele>997</ele>
        <time>2016-09-11T09:44:43Z</time>
      </trkpt>
      <trkpt lat="45.02155" lon="5.46094">
        <ele>999</ele>
        <time>2016-09-11T09:44:46Z</time>
      </trkpt>
      <trkpt lat="45.02149" lon="5.46095">
        <ele>1000</ele>
        <time>2016-09-11T09:44:49Z</time>
      </trkpt>
      <trkpt lat="45.02145" lon="5.46096">
        <ele>1001</ele>
        <time>2016-09-11T09:44:51Z</time>
      </trkpt>
      <trkpt lat="45.02139" lon="5.46097">
        <ele>1001</ele>
        <time>2016-09-11T09:44:54Z</time>
      </trkpt>
      <trkpt lat="45.02134" lon="5.46099">
        <ele>1002</ele>
        <time>2016-09-11T09:44:57Z</time>
      </trkpt>
      <trkpt lat="45.02129" lon="5.46099">
        <ele>1002</ele>
        <time>2016-09-11T09:45:00Z</time>
      </trkpt>
      <trkpt lat="45.02124" lon="5.461">
        <ele>1003</ele>
        <time>2016-09-11T09:45:03Z</time>
      </trkpt>
      <trkpt lat="45.02118" lon="5.46101">
        <ele>1004</ele>
        <time>2016-09-11T09:45:08Z</time>
      </trkpt>
      <trkpt lat="45.02114" lon="5.46103">
        <ele>1005</ele>
        <time>2016-09-11T09:45:11Z</time>
      </trkpt>
      <trkpt lat="45.02108" lon="5.46105">
        <ele>1005</ele>
        <time>2016-09-11T09:45:14Z</time>
      </trkpt>
      <trkpt lat="45.02102" lon="5.46107">
        <ele>1006</ele>
        <time>2016-09-11T09:45:17Z</time>
      </trkpt>
      <trkpt lat="45.02097" lon="5.46108">
        <ele>1007</ele>
        <time>2016-09-11T09:45:21Z</time>
      </trkpt>
      <trkpt lat="45.02092" lon="5.46109">
        <ele>1006</ele>
        <time>2016-09-11T09:45:23Z</time>
      </trkpt>
      <trkpt lat="45.02086" lon="5.4611">
        <ele>1005</ele>
        <time>2016-09-11T09:45:25Z</time>
      </trkpt>
      <trkpt lat="45.02081" lon="5.4611">
        <ele>1005</ele>
        <time>2016-09-11T09:45:28Z</time>
      </trkpt>
      <trkpt lat="45.02076" lon="5.46109">
        <ele>1005</ele>
        <time>2016-09-11T09:45:31Z</time>
      </trkpt>
      <trkpt lat="45.02071" lon="5.46109">
        <ele>1004</ele>
        <time>2016-09-11T09:45:34Z</time>
      </trkpt>
      <trkpt lat="45.02066" lon="5.46109">
        <ele>1005</ele>
        <time>2016-09-11T09:45:38Z</time>
      </trkpt>
      <trkpt lat="45.02061" lon="5.46108">
        <ele>1006</ele>
        <time>2016-09-11T09:45:43Z</time>
      </trkpt>
      <trkpt lat="45.02056" lon="5.46107">
        <ele>1007</ele>
        <time>2016-09-11T09:45:47Z</time>
      </trkpt>
      <trkpt lat="45.02052" lon="5.46107">
        <ele>1007</ele>
        <time>2016-09-11T09:45:50Z</time>
      </trkpt>
      <trkpt lat="45.02047" lon="5.46107">
        <ele>1008</ele>
        <time>2016-09-11T09:45:53Z</time>
      </trkpt>
      <trkpt lat="45.02041" lon="5.46106">
        <ele>1009</ele>
        <time>2016-09-11T09:45:58Z</time>
      </trkpt>
      <trkpt lat="45.02037" lon="5.46107">
        <ele>1009</ele>
        <time>2016-09-11T09:46:01Z</time>
      </trkpt>
      <trkpt lat="45.02032" lon="5.46108">
        <ele>1010</ele>
        <time>2016-09-11T09:46:04Z</time>
      </trkpt>
      <trkpt lat="45.02027" lon="5.46107">
        <ele>1011</ele>
        <time>2016-09-11T09:46:07Z</time>
      </trkpt>
      <trkpt lat="45.0202" lon="5.46108">
        <ele>1012</ele>
        <time>2016-09-11T09:46:11Z</time>
      </trkpt>
      <trkpt lat="45.02015" lon="5.46109">
        <ele>1012</ele>
        <time>2016-09-11T09:46:13Z</time>
      </trkpt>
      <trkpt lat="45.02009" lon="5.4611">
        <ele>1013</ele>
        <time>2016-09-11T09:46:15Z</time>
      </trkpt>
      <trkpt lat="45.02005" lon="5.46111">
        <ele>1012</ele>
        <time>2016-09-11T09:46:17Z</time>
      </trkpt>
      <trkpt lat="45.01999" lon="5.46114">
        <ele>1010</ele>
        <time>2016-09-11T09:46:21Z</time>
      </trkpt>
      <trkpt lat="45.01993" lon="5.46116">
        <ele>1009</ele>
        <time>2016-09-11T09:46:24Z</time>
      </trkpt>
      <trkpt lat="45.01987" lon="5.46116">
        <ele>1008</ele>
        <time>2016-09-11T09:46:27Z</time>
      </trkpt>
      <trkpt lat="45.01981" lon="5.46115">
        <ele>1008</ele>
        <time>2016-09-11T09:46:30Z</time>
      </trkpt>
      <trkpt lat="45.01976" lon="5.46114">
        <ele>1008</ele>
        <time>2016-09-11T09:46:32Z</time>
      </trkpt>
      <trkpt lat="45.01972" lon="5.46111">
        <ele>1008</ele>
        <time>2016-09-11T09:46:34Z</time>
      </trkpt>
      <trkpt lat="45.01966" lon="5.46109">
        <ele>1009</ele>
        <time>2016-09-11T09:46:37Z</time>
      </trkpt>
      <trkpt lat="45.0196" lon="5.46108">
        <ele>1010</ele>
        <time>2016-09-11T09:46:40Z</time>
      </trkpt>
      <trkpt lat="45.01954" lon="5.46107">
        <ele>1010</ele>
        <time>2016-09-11T09:46:43Z</time>
      </trkpt>
      <trkpt lat="45.01949" lon="5.46107">
        <ele>1011</ele>
        <time>2016-09-11T09:46:46Z</time>
      </trkpt>
      <trkpt lat="45.01944" lon="5.46107">
        <ele>1011</ele>
        <time>2016-09-11T09:46:49Z</time>
      </trkpt>
      <trkpt lat="45.01938" lon="5.46108">
        <ele>1011</ele>
        <time>2016-09-11T09:46:54Z</time>
      </trkpt>
      <trkpt lat="45.01933" lon="5.46109">
        <ele>1011</ele>
        <time>2016-09-11T09:46:57Z</time>
      </trkpt>
      <trkpt lat="45.01927" lon="5.4611">
        <ele>1011</ele>
        <time>2016-09-11T09:47:00Z</time>
      </trkpt>
      <trkpt lat="45.01922" lon="5.4611">
        <ele>1011</ele>
        <time>2016-09-11T09:47:03Z</time>
      </trkpt>
      <trkpt lat="45.01916" lon="5.46109">
        <ele>1011</ele>
        <time>2016-09-11T09:47:06Z</time>
      </trkpt>
      <trkpt lat="45.01912" lon="5.46109">
        <ele>1012</ele>
        <time>2016-09-11T09:47:09Z</time>
      </trkpt>
      <trkpt lat="45.01905" lon="5.46109">
        <ele>1012</ele>
        <time>2016-09-11T09:47:13Z</time>
      </trkpt>
      <trkpt lat="45.019" lon="5.4611">
        <ele>1013</ele>
        <time>2016-09-11T09:47:17Z</time>
      </trkpt>
      <trkpt lat="45.01894" lon="5.4611">
        <ele>1014</ele>
        <time>2016-09-11T09:47:21Z</time>
      </trkpt>
      <trkpt lat="45.0189" lon="5.46111">
        <ele>1015</ele>
        <time>2016-09-11T09:47:24Z</time>
      </trkpt>
      <trkpt lat="45.01885" lon="5.46113">
        <ele>1015</ele>
        <time>2016-09-11T09:47:27Z</time>
      </trkpt>
      <trkpt lat="45.01881" lon="5.46115">
        <ele>1015</ele>
        <time>2016-09-11T09:47:30Z</time>
      </trkpt>
      <trkpt lat="45.01876" lon="5.46116">
        <ele>1016</ele>
        <time>2016-09-11T09:47:33Z</time>
      </trkpt>
      <trkpt lat="45.01872" lon="5.46117">
        <ele>1016</ele>
        <time>2016-09-11T09:47:36Z</time>
      </trkpt>
      <trkpt lat="45.01867" lon="5.46118">
        <ele>1017</ele>
        <time>2016-09-11T09:47:39Z</time>
      </trkpt>
      <trkpt lat="45.01862" lon="5.46117">
        <ele>1018</ele>
        <time>2016-09-11T09:47:43Z</time>
      </trkpt>
      <trkpt lat="45.01856" lon="5.46117">
        <ele>1018</ele>
        <time>2016-09-11T09:47:47Z</time>
      </trkpt>
      <trkpt lat="45.01851" lon="5.46117">
        <ele>1019</ele>
        <time>2016-09-11T09:47:52Z</time>
      </trkpt>
      <trkpt lat="45.01846" lon="5.46118">
        <ele>1020</ele>
        <time>2016-09-11T09:47:56Z</time>
      </trkpt>
      <trkpt lat="45.01841" lon="5.4612">
        <ele>1020</ele>
        <time>2016-09-11T09:47:59Z</time>
      </trkpt>
      <trkpt lat="45.01835" lon="5.4612">
        <ele>1021</ele>
        <time>2016-09-11T09:48:03Z</time>
      </trkpt>
      <trkpt lat="45.0183" lon="5.46121">
        <ele>1021</ele>
        <time>2016-09-11T09:48:06Z</time>
      </trkpt>
      <trkpt lat="45.01824" lon="5.46122">
        <ele>1021</ele>
        <time>2016-09-11T09:48:09Z</time>
      </trkpt>
      <trkpt lat="45.01818" lon="5.46122">
        <ele>1022</ele>
        <time>2016-09-11T09:48:12Z</time>
      </trkpt>
      <trkpt lat="45.01813" lon="5.46122">
        <ele>1022</ele>
        <time>2016-09-11T09:48:15Z</time>
      </trkpt>
      <trkpt lat="45.01807" lon="5.46122">
        <ele>1023</ele>
        <time>2016-09-11T09:48:18Z</time>
      </trkpt>
      <trkpt lat="45.01802" lon="5.46122">
        <ele>1023</ele>
        <time>2016-09-11T09:48:21Z</time>
      </trkpt>
      <trkpt lat="45.01797" lon="5.46123">
        <ele>1024</ele>
        <time>2016-09-11T09:48:24Z</time>
      </trkpt>
      <trkpt lat="45.01791" lon="5.46124">
        <ele>1024</ele>
        <time>2016-09-11T09:48:27Z</time>
      </trkpt>
      <trkpt lat="45.01786" lon="5.46125">
        <ele>1024</ele>
        <time>2016-09-11T09:48:30Z</time>
      </trkpt>
      <trkpt lat="45.0178" lon="5.46126">
        <ele>1023</ele>
        <time>2016-09-11T09:48:33Z</time>
      </trkpt>
      <trkpt lat="45.01775" lon="5.46127">
        <ele>1023</ele>
        <time>2016-09-11T09:48:36Z</time>
      </trkpt>
      <trkpt lat="45.0177" lon="5.46128">
        <ele>1023</ele>
        <time>2016-09-11T09:48:39Z</time>
      </trkpt>
      <trkpt lat="45.01765" lon="5.46129">
        <ele>1024</ele>
        <time>2016-09-11T09:48:42Z</time>
      </trkpt>
      <trkpt lat="45.0176" lon="5.46131">
        <ele>1024</ele>
        <time>2016-09-11T09:48:45Z</time>
      </trkpt>
      <trkpt lat="45.01754" lon="5.46132">
        <ele>1025</ele>
        <time>2016-09-11T09:48:48Z</time>
      </trkpt>
      <trkpt lat="45.01749" lon="5.46133">
        <ele>1026</ele>
        <time>2016-09-11T09:48:51Z</time>
      </trkpt>
      <trkpt lat="45.01744" lon="5.46134">
        <ele>1027</ele>
        <time>2016-09-11T09:48:55Z</time>
      </trkpt>
      <trkpt lat="45.01739" lon="5.46134">
        <ele>1029</ele>
        <time>2016-09-11T09:49:00Z</time>
      </trkpt>
      <trkpt lat="45.01734" lon="5.46135">
        <ele>1030</ele>
        <time>2016-09-11T09:49:03Z</time>
      </trkpt>
      <trkpt lat="45.0173" lon="5.46136">
        <ele>1032</ele>
        <time>2016-09-11T09:49:06Z</time>
      </trkpt>
      <trkpt lat="45.01724" lon="5.46136">
        <ele>1033</ele>
        <time>2016-09-11T09:49:09Z</time>
      </trkpt>
      <trkpt lat="45.0172" lon="5.46136">
        <ele>1035</ele>
        <time>2016-09-11T09:49:12Z</time>
      </trkpt>
      <trkpt lat="45.01714" lon="5.46136">
        <ele>1036</ele>
        <time>2016-09-11T09:49:16Z</time>
      </trkpt>
      <trkpt lat="45.01708" lon="5.46138">
        <ele>1036</ele>
        <time>2016-09-11T09:49:19Z</time>
      </trkpt>
      <trkpt lat="45.01702" lon="5.46139">
        <ele>1036</ele>
        <time>2016-09-11T09:49:22Z</time>
      </trkpt>
      <trkpt lat="45.01696" lon="5.46141">
        <ele>1035</ele>
        <time>2016-09-11T09:49:25Z</time>
      </trkpt>
      <trkpt lat="45.0169" lon="5.46141">
        <ele>1035</ele>
        <time>2016-09-11T09:49:28Z</time>
      </trkpt>
      <trkpt lat="45.01686" lon="5.46143">
        <ele>1034</ele>
        <time>2016-09-11T09:49:31Z</time>
      </trkpt>
      <trkpt lat="45.01681" lon="5.46145">
        <ele>1034</ele>
        <time>2016-09-11T09:49:35Z</time>
      </trkpt>
      <trkpt lat="45.01676" lon="5.46147">
        <ele>1035</ele>
        <time>2016-09-11T09:49:39Z</time>
      </trkpt>
      <trkpt lat="45.01672" lon="5.46147">
        <ele>1036</ele>
        <time>2016-09-11T09:49:43Z</time>
      </trkpt>
      <trkpt lat="45.01666" lon="5.46149">
        <ele>1036</ele>
        <time>2016-09-11T09:49:47Z</time>
      </trkpt>
      <trkpt lat="45.01662" lon="5.4615">
        <ele>1037</ele>
        <time>2016-09-11T09:49:50Z</time>
      </trkpt>
      <trkpt lat="45.01656" lon="5.46151">
        <ele>1038</ele>
        <time>2016-09-11T09:49:54Z</time>
      </trkpt>
      <trkpt lat="45.01651" lon="5.46153">
        <ele>1040</ele>
        <time>2016-09-11T09:49:58Z</time>
      </trkpt>
      <trkpt lat="45.01645" lon="5.46155">
        <ele>1040</ele>
        <time>2016-09-11T09:50:01Z</time>
      </trkpt>
      <trkpt lat="45.01639" lon="5.46159">
        <ele>1040</ele>
        <time>2016-09-11T09:50:04Z</time>
      </trkpt>
      <trkpt lat="45.01634" lon="5.46161">
        <ele>1040</ele>
        <time>2016-09-11T09:50:07Z</time>
      </trkpt>
      <trkpt lat="45.01629" lon="5.46163">
        <ele>1041</ele>
        <time>2016-09-11T09:50:11Z</time>
      </trkpt>
      <trkpt lat="45.01624" lon="5.46164">
        <ele>1042</ele>
        <time>2016-09-11T09:50:14Z</time>
      </trkpt>
      <trkpt lat="45.01619" lon="5.46166">
        <ele>1043</ele>
        <time>2016-09-11T09:50:18Z</time>
      </trkpt>
      <trkpt lat="45.01613" lon="5.46166">
        <ele>1044</ele>
        <time>2016-09-11T09:50:21Z</time>
      </trkpt>
      <trkpt lat="45.01608" lon="5.46167">
        <ele>1046</ele>
        <time>2016-09-11T09:50:25Z</time>
      </trkpt>
      <trkpt lat="45.01603" lon="5.46168">
        <ele>1047</ele>
        <time>2016-09-11T09:50:28Z</time>
      </trkpt>
      <trkpt lat="45.01598" lon="5.46169">
        <ele>1047</ele>
        <time>2016-09-11T09:50:31Z</time>
      </trkpt>
      <trkpt lat="45.01594" lon="5.46171">
        <ele>1047</ele>
        <time>2016-09-11T09:50:34Z</time>
      </trkpt>
      <trkpt lat="45.01587" lon="5.46172">
        <ele>1047</ele>
        <time>2016-09-11T09:50:38Z</time>
      </trkpt>
      <trkpt lat="45.01582" lon="5.46173">
        <ele>1045</ele>
        <time>2016-09-11T09:50:40Z</time>
      </trkpt>
      <trkpt lat="45.01577" lon="5.46175">
        <ele>1044</ele>
        <time>2016-09-11T09:50:43Z</time>
      </trkpt>
      <trkpt lat="45.01572" lon="5.46176">
        <ele>1044</ele>
        <time>2016-09-11T09:50:46Z</time>
      </trkpt>
      <trkpt lat="45.01567" lon="5.46177">
        <ele>1043</ele>
        <time>2016-09-11T09:50:50Z</time>
      </trkpt>
      <trkpt lat="45.01561" lon="5.46177">
        <ele>1043</ele>
        <time>2016-09-11T09:50:53Z</time>
      </trkpt>
      <trkpt lat="45.01556" lon="5.46178">
        <ele>1043</ele>
        <time>2016-09-11T09:50:56Z</time>
      </trkpt>
      <trkpt lat="45.01552" lon="5.46179">
        <ele>1043</ele>
        <time>2016-09-11T09:50:59Z</time>
      </trkpt>
      <trkpt lat="45.01547" lon="5.46179">
        <ele>1043</ele>
        <time>2016-09-11T09:51:02Z</time>
      </trkpt>
      <trkpt lat="45.01542" lon="5.46179">
        <ele>1044</ele>
        <time>2016-09-11T09:51:05Z</time>
      </trkpt>
      <trkpt lat="45.01537" lon="5.46177">
        <ele>1045</ele>
        <time>2016-09-11T09:51:09Z</time>
      </trkpt>
      <trkpt lat="45.01532" lon="5.46177">
        <ele>1046</ele>
        <time>2016-09-11T09:51:13Z</time>
      </trkpt>
      <trkpt lat="45.01527" lon="5.46181">
        <ele>1048</ele>
        <time>2016-09-11T09:51:16Z</time>
      </trkpt>
      <trkpt lat="45.01523" lon="5.46185">
        <ele>1049</ele>
        <time>2016-09-11T09:51:19Z</time>
      </trkpt>
      <trkpt lat="45.01519" lon="5.46186">
        <ele>1050</ele>
        <time>2016-09-11T09:51:22Z</time>
      </trkpt>
      <trkpt lat="45.01513" lon="5.46188">
        <ele>1051</ele>
        <time>2016-09-11T09:51:26Z</time>
      </trkpt>
      <trkpt lat="45.01508" lon="5.46192">
        <ele>1051</ele>
        <time>2016-09-11T09:51:30Z</time>
      </trkpt>
      <trkpt lat="45.01504" lon="5.46196">
        <ele>1051</ele>
        <time>2016-09-11T09:51:34Z</time>
      </trkpt>
      <trkpt lat="45.01498" lon="5.46199">
        <ele>1051</ele>
        <time>2016-09-11T09:51:38Z</time>
      </trkpt>
      <trkpt lat="45.01494" lon="5.46203">
        <ele>1050</ele>
        <time>2016-09-11T09:51:41Z</time>
      </trkpt>
      <trkpt lat="45.0149" lon="5.46207">
        <ele>1050</ele>
        <time>2016-09-11T09:51:44Z</time>
      </trkpt>
      <trkpt lat="45.01486" lon="5.46211">
        <ele>1050</ele>
        <time>2016-09-11T09:51:47Z</time>
      </trkpt>
      <trkpt lat="45.01482" lon="5.46216">
        <ele>1050</ele>
        <time>2016-09-11T09:51:51Z</time>
      </trkpt>
      <trkpt lat="45.01479" lon="5.46222">
        <ele>1050</ele>
        <time>2016-09-11T09:51:55Z</time>
      </trkpt>
      <trkpt lat="45.01474" lon="5.46228">
        <ele>1050</ele>
        <time>2016-09-11T09:51:59Z</time>
      </trkpt>
      <trkpt lat="45.01471" lon="5.46232">
        <ele>1051</ele>
        <time>2016-09-11T09:52:02Z</time>
      </trkpt>
      <trkpt lat="45.01466" lon="5.46238">
        <ele>1050</ele>
        <time>2016-09-11T09:52:05Z</time>
      </trkpt>
      <trkpt lat="45.01463" lon="5.46242">
        <ele>1050</ele>
        <time>2016-09-11T09:52:08Z</time>
      </trkpt>
      <trkpt lat="45.01459" lon="5.46246">
        <ele>1051</ele>
        <time>2016-09-11T09:52:11Z</time>
      </trkpt>
      <trkpt lat="45.01454" lon="5.46249">
        <ele>1051</ele>
        <time>2016-09-11T09:52:14Z</time>
      </trkpt>
      <trkpt lat="45.0145" lon="5.46253">
        <ele>1052</ele>
        <time>2016-09-11T09:52:17Z</time>
      </trkpt>
      <trkpt lat="45.01446" lon="5.46257">
        <ele>1052</ele>
        <time>2016-09-11T09:52:20Z</time>
      </trkpt>
      <trkpt lat="45.01441" lon="5.46262">
        <ele>1053</ele>
        <time>2016-09-11T09:52:23Z</time>
      </trkpt>
      <trkpt lat="45.01437" lon="5.46266">
        <ele>1054</ele>
        <time>2016-09-11T09:52:26Z</time>
      </trkpt>
      <trkpt lat="45.01432" lon="5.4627">
        <ele>1055</ele>
        <time>2016-09-11T09:52:30Z</time>
      </trkpt>
      <trkpt lat="45.01427" lon="5.46274">
        <ele>1056</ele>
        <time>2016-09-11T09:52:34Z</time>
      </trkpt>
      <trkpt lat="45.01423" lon="5.46277">
        <ele>1058</ele>
        <time>2016-09-11T09:52:38Z</time>
      </trkpt>
      <trkpt lat="45.01418" lon="5.4628">
        <ele>1061</ele>
        <time>2016-09-11T09:52:43Z</time>
      </trkpt>
      <trkpt lat="45.01412" lon="5.46283">
        <ele>1062</ele>
        <time>2016-09-11T09:52:46Z</time>
      </trkpt>
      <trkpt lat="45.01406" lon="5.46286">
        <ele>1063</ele>
        <time>2016-09-11T09:52:49Z</time>
      </trkpt>
      <trkpt lat="45.01402" lon="5.46289">
        <ele>1064</ele>
        <time>2016-09-11T09:52:51Z</time>
      </trkpt>
      <trkpt lat="45.01397" lon="5.46292">
        <ele>1064</ele>
        <time>2016-09-11T09:52:53Z</time>
      </trkpt>
      <trkpt lat="45.01392" lon="5.46295">
        <ele>1064</ele>
        <time>2016-09-11T09:52:55Z</time>
      </trkpt>
      <trkpt lat="45.01387" lon="5.46298">
        <ele>1065</ele>
        <time>2016-09-11T09:52:57Z</time>
      </trkpt>
      <trkpt lat="45.01383" lon="5.463">
        <ele>1066</ele>
        <time>2016-09-11T09:52:59Z</time>
      </trkpt>
      <trkpt lat="45.01377" lon="5.46301">
        <ele>1065</ele>
        <time>2016-09-11T09:53:03Z</time>
      </trkpt>
      <trkpt lat="45.01372" lon="5.46301">
        <ele>1065</ele>
        <time>2016-09-11T09:53:06Z</time>
      </trkpt>
      <trkpt lat="45.01368" lon="5.46303">
        <ele>1064</ele>
        <time>2016-09-11T09:53:09Z</time>
      </trkpt>
      <trkpt lat="45.01363" lon="5.46305">
        <ele>1064</ele>
        <time>2016-09-11T09:53:12Z</time>
      </trkpt>
      <trkpt lat="45.01358" lon="5.46307">
        <ele>1063</ele>
        <time>2016-09-11T09:53:15Z</time>
      </trkpt>
      <trkpt lat="45.01354" lon="5.4631">
        <ele>1064</ele>
        <time>2016-09-11T09:53:18Z</time>
      </trkpt>
      <trkpt lat="45.01349" lon="5.46312">
        <ele>1065</ele>
        <time>2016-09-11T09:53:22Z</time>
      </trkpt>
      <trkpt lat="45.01344" lon="5.46315">
        <ele>1066</ele>
        <time>2016-09-11T09:53:26Z</time>
      </trkpt>
      <trkpt lat="45.0134" lon="5.46319">
        <ele>1067</ele>
        <time>2016-09-11T09:53:29Z</time>
      </trkpt>
      <trkpt lat="45.01335" lon="5.4632">
        <ele>1067</ele>
        <time>2016-09-11T09:53:32Z</time>
      </trkpt>
      <trkpt lat="45.01331" lon="5.46324">
        <ele>1067</ele>
        <time>2016-09-11T09:53:35Z</time>
      </trkpt>
      <trkpt lat="45.01326" lon="5.46328">
        <ele>1067</ele>
        <time>2016-09-11T09:53:38Z</time>
      </trkpt>
      <trkpt lat="45.01321" lon="5.46331">
        <ele>1067</ele>
        <time>2016-09-11T09:53:42Z</time>
      </trkpt>
      <trkpt lat="45.01316" lon="5.46333">
        <ele>1069</ele>
        <time>2016-09-11T09:53:45Z</time>
      </trkpt>
      <trkpt lat="45.01311" lon="5.46337">
        <ele>1070</ele>
        <time>2016-09-11T09:53:48Z</time>
      </trkpt>
      <trkpt lat="45.01307" lon="5.46339">
        <ele>1070</ele>
        <time>2016-09-11T09:53:50Z</time>
      </trkpt>
      <trkpt lat="45.01301" lon="5.46341">
        <ele>1070</ele>
        <time>2016-09-11T09:53:53Z</time>
      </trkpt>
      <trkpt lat="45.01296" lon="5.46344">
        <ele>1070</ele>
        <time>2016-09-11T09:53:56Z</time>
      </trkpt>
      <trkpt lat="45.01291" lon="5.46347">
        <ele>1068</ele>
        <time>2016-09-11T09:53:59Z</time>
      </trkpt>
      <trkpt lat="45.01285" lon="5.46349">
        <ele>1068</ele>
        <time>2016-09-11T09:54:02Z</time>
      </trkpt>
      <trkpt lat="45.01279" lon="5.46349">
        <ele>1067</ele>
        <time>2016-09-11T09:54:05Z</time>
      </trkpt>
      <trkpt lat="45.01273" lon="5.46349">
        <ele>1066</ele>
        <time>2016-09-11T09:54:08Z</time>
      </trkpt>
      <trkpt lat="45.01268" lon="5.46349">
        <ele>1065</ele>
        <time>2016-09-11T09:54:11Z</time>
      </trkpt>
      <trkpt lat="45.01262" lon="5.46349">
        <ele>1065</ele>
        <time>2016-09-11T09:54:14Z</time>
      </trkpt>
      <trkpt lat="45.01257" lon="5.46351">
        <ele>1064</ele>
        <time>2016-09-11T09:54:17Z</time>
      </trkpt>
      <trkpt lat="45.01251" lon="5.46353">
        <ele>1064</ele>
        <time>2016-09-11T09:54:20Z</time>
      </trkpt>
      <trkpt lat="45.01247" lon="5.46356">
        <ele>1064</ele>
        <time>2016-09-11T09:54:23Z</time>
      </trkpt>
      <trkpt lat="45.01245" lon="5.46362">
        <ele>1065</ele>
        <time>2016-09-11T09:54:26Z</time>
      </trkpt>
      <trkpt lat="45.01245" lon="5.4637">
        <ele>1065</ele>
        <time>2016-09-11T09:54:29Z</time>
      </trkpt>
      <trkpt lat="45.01248" lon="5.46377">
        <ele>1065</ele>
        <time>2016-09-11T09:54:32Z</time>
      </trkpt>
      <trkpt lat="45.01254" lon="5.4638">
        <ele>1066</ele>
        <time>2016-09-11T09:54:35Z</time>
      </trkpt>
      <trkpt lat="45.0126" lon="5.46382">
        <ele>1066</ele>
        <time>2016-09-11T09:54:38Z</time>
      </trkpt>
      <trkpt lat="45.01266" lon="5.46385">
        <ele>1066</ele>
        <time>2016-09-11T09:54:41Z</time>
      </trkpt>
      <trkpt lat="45.01272" lon="5.46387">
        <ele>1066</ele>
        <time>2016-09-11T09:54:44Z</time>
      </trkpt>
      <trkpt lat="45.01278" lon="5.46391">
        <ele>1066</ele>
        <time>2016-09-11T09:54:47Z</time>
      </trkpt>
      <trkpt lat="45.01283" lon="5.46394">
        <ele>1066</ele>
        <time>2016-09-11T09:54:50Z</time>
      </trkpt>
      <trkpt lat="45.01288" lon="5.46398">
        <ele>1067</ele>
        <time>2016-09-11T09:54:53Z</time>
      </trkpt>
      <trkpt lat="45.01293" lon="5.46402">
        <ele>1067</ele>
        <time>2016-09-11T09:54:56Z</time>
      </trkpt>
      <trkpt lat="45.01298" lon="5.46406">
        <ele>1067</ele>
        <time>2016-09-11T09:54:59Z</time>
      </trkpt>
      <trkpt lat="45.01303" lon="5.46409">
        <ele>1068</ele>
        <time>2016-09-11T09:55:02Z</time>
      </trkpt>
      <trkpt lat="45.01308" lon="5.46413">
        <ele>1068</ele>
        <time>2016-09-11T09:55:05Z</time>
      </trkpt>
      <trkpt lat="45.01313" lon="5.46416">
        <ele>1069</ele>
        <time>2016-09-11T09:55:08Z</time>
      </trkpt>
      <trkpt lat="45.01318" lon="5.46419">
        <ele>1069</ele>
        <time>2016-09-11T09:55:11Z</time>
      </trkpt>
      <trkpt lat="45.01324" lon="5.46422">
        <ele>1069</ele>
        <time>2016-09-11T09:55:15Z</time>
      </trkpt>
      <trkpt lat="45.01328" lon="5.46426">
        <ele>1070</ele>
        <time>2016-09-11T09:55:18Z</time>
      </trkpt>
      <trkpt lat="45.01333" lon="5.4643">
        <ele>1071</ele>
        <time>2016-09-11T09:55:20Z</time>
      </trkpt>
      <trkpt lat="45.01338" lon="5.46433">
        <ele>1072</ele>
        <time>2016-09-11T09:55:23Z</time>
      </trkpt>
      <trkpt lat="45.01343" lon="5.46437">
        <ele>1072</ele>
        <time>2016-09-11T09:55:26Z</time>
      </trkpt>
      <trkpt lat="45.01349" lon="5.4644">
        <ele>1073</ele>
        <time>2016-09-11T09:55:29Z</time>
      </trkpt>
      <trkpt lat="45.01354" lon="5.46443">
        <ele>1073</ele>
        <time>2016-09-11T09:55:32Z</time>
      </trkpt>
      <trkpt lat="45.01358" lon="5.46448">
        <ele>1074</ele>
        <time>2016-09-11T09:55:35Z</time>
      </trkpt>
      <trkpt lat="45.01363" lon="5.46453">
        <ele>1074</ele>
        <time>2016-09-11T09:55:38Z</time>
      </trkpt>
      <trkpt lat="45.01368" lon="5.46457">
        <ele>1075</ele>
        <time>2016-09-11T09:55:41Z</time>
      </trkpt>
      <trkpt lat="45.01374" lon="5.46461">
        <ele>1075</ele>
        <time>2016-09-11T09:55:44Z</time>
      </trkpt>
      <trkpt lat="45.01379" lon="5.46466">
        <ele>1076</ele>
        <time>2016-09-11T09:55:47Z</time>
      </trkpt>
      <trkpt lat="45.01384" lon="5.4647">
        <ele>1075</ele>
        <time>2016-09-11T09:55:50Z</time>
      </trkpt>
      <trkpt lat="45.01389" lon="5.46474">
        <ele>1075</ele>
        <time>2016-09-11T09:55:53Z</time>
      </trkpt>
      <trkpt lat="45.01393" lon="5.46478">
        <ele>1074</ele>
        <time>2016-09-11T09:55:55Z</time>
      </trkpt>
      <trkpt lat="45.01397" lon="5.46483">
        <ele>1073</ele>
        <time>2016-09-11T09:55:57Z</time>
      </trkpt>
      <trkpt lat="45.01399" lon="5.46487">
        <ele>1072</ele>
        <time>2016-09-11T09:55:59Z</time>
      </trkpt>
      <trkpt lat="45.01403" lon="5.46496">
        <ele>1071</ele>
        <time>2016-09-11T09:56:02Z</time>
      </trkpt>
      <trkpt lat="45.01404" lon="5.46502">
        <ele>1071</ele>
        <time>2016-09-11T09:56:04Z</time>
      </trkpt>
      <trkpt lat="45.01405" lon="5.46511">
        <ele>1070</ele>
        <time>2016-09-11T09:56:07Z</time>
      </trkpt>
      <trkpt lat="45.01404" lon="5.46519">
        <ele>1070</ele>
        <time>2016-09-11T09:56:10Z</time>
      </trkpt>
      <trkpt lat="45.01403" lon="5.46526">
        <ele>1069</ele>
        <time>2016-09-11T09:56:13Z</time>
      </trkpt>
      <trkpt lat="45.014" lon="5.46533">
        <ele>1069</ele>
        <time>2016-09-11T09:56:16Z</time>
      </trkpt>
      <trkpt lat="45.01396" lon="5.46539">
        <ele>1069</ele>
        <time>2016-09-11T09:56:19Z</time>
      </trkpt>
      <trkpt lat="45.01393" lon="5.46546">
        <ele>1070</ele>
        <time>2016-09-11T09:56:22Z</time>
      </trkpt>
      <trkpt lat="45.01389" lon="5.46554">
        <ele>1071</ele>
        <time>2016-09-11T09:56:25Z</time>
      </trkpt>
      <trkpt lat="45.01386" lon="5.46559">
        <ele>1072</ele>
        <time>2016-09-11T09:56:28Z</time>
      </trkpt>
      <trkpt lat="45.01382" lon="5.46564">
        <ele>1072</ele>
        <time>2016-09-11T09:56:32Z</time>
      </trkpt>
      <trkpt lat="45.01378" lon="5.46569">
        <ele>1074</ele>
        <time>2016-09-11T09:56:35Z</time>
      </trkpt>
      <trkpt lat="45.01374" lon="5.46574">
        <ele>1075</ele>
        <time>2016-09-11T09:56:38Z</time>
      </trkpt>
      <trkpt lat="45.01368" lon="5.46578">
        <ele>1076</ele>
        <time>2016-09-11T09:56:41Z</time>
      </trkpt>
      <trkpt lat="45.01363" lon="5.46581">
        <ele>1078</ele>
        <time>2016-09-11T09:56:43Z</time>
      </trkpt>
      <trkpt lat="45.01358" lon="5.46586">
        <ele>1080</ele>
        <time>2016-09-11T09:56:45Z</time>
      </trkpt>
      <trkpt lat="45.01355" lon="5.46591">
        <ele>1081</ele>
        <time>2016-09-11T09:56:47Z</time>
      </trkpt>
      <trkpt lat="45.0135" lon="5.46596">
        <ele>1083</ele>
        <time>2016-09-11T09:56:50Z</time>
      </trkpt>
      <trkpt lat="45.01345" lon="5.46601">
        <ele>1084</ele>
        <time>2016-09-11T09:56:53Z</time>
      </trkpt>
      <trkpt lat="45.0134" lon="5.46606">
        <ele>1086</ele>
        <time>2016-09-11T09:56:56Z</time>
      </trkpt>
      <trkpt lat="45.01336" lon="5.4661">
        <ele>1087</ele>
        <time>2016-09-11T09:56:59Z</time>
      </trkpt>
      <trkpt lat="45.01331" lon="5.46614">
        <ele>1088</ele>
        <time>2016-09-11T09:57:02Z</time>
      </trkpt>
      <trkpt lat="45.01327" lon="5.46619">
        <ele>1088</ele>
        <time>2016-09-11T09:57:05Z</time>
      </trkpt>
      <trkpt lat="45.01323" lon="5.46624">
        <ele>1088</ele>
        <time>2016-09-11T09:57:08Z</time>
      </trkpt>
      <trkpt lat="45.01319" lon="5.46629">
        <ele>1089</ele>
        <time>2016-09-11T09:57:11Z</time>
      </trkpt>
      <trkpt lat="45.01315" lon="5.46633">
        <ele>1090</ele>
        <time>2016-09-11T09:57:14Z</time>
      </trkpt>
      <trkpt lat="45.0131" lon="5.46637">
        <ele>1090</ele>
        <time>2016-09-11T09:57:17Z</time>
      </trkpt>
      <trkpt lat="45.01306" lon="5.4664">
        <ele>1090</ele>
        <time>2016-09-11T09:57:20Z</time>
      </trkpt>
      <trkpt lat="45.01302" lon="5.46643">
        <ele>1090</ele>
        <time>2016-09-11T09:57:23Z</time>
      </trkpt>
      <trkpt lat="45.01297" lon="5.46645">
        <ele>1088</ele>
        <time>2016-09-11T09:57:27Z</time>
      </trkpt>
      <trkpt lat="45.01292" lon="5.46647">
        <ele>1086</ele>
        <time>2016-09-11T09:57:31Z</time>
      </trkpt>
      <trkpt lat="45.01286" lon="5.4665">
        <ele>1084</ele>
        <time>2016-09-11T09:57:35Z</time>
      </trkpt>
      <trkpt lat="45.01281" lon="5.46654">
        <ele>1083</ele>
        <time>2016-09-11T09:57:39Z</time>
      </trkpt>
      <trkpt lat="45.01275" lon="5.46656">
        <ele>1082</ele>
        <time>2016-09-11T09:57:42Z</time>
      </trkpt>
      <trkpt lat="45.01268" lon="5.46659">
        <ele>1083</ele>
        <time>2016-09-11T09:57:45Z</time>
      </trkpt>
      <trkpt lat="45.01262" lon="5.46662">
        <ele>1083</ele>
        <time>2016-09-11T09:57:48Z</time>
      </trkpt>
      <trkpt lat="45.01257" lon="5.46664">
        <ele>1084</ele>
        <time>2016-09-11T09:57:51Z</time>
      </trkpt>
      <trkpt lat="45.01251" lon="5.46666">
        <ele>1085</ele>
        <time>2016-09-11T09:57:54Z</time>
      </trkpt>
      <trkpt lat="45.01246" lon="5.46668">
        <ele>1086</ele>
        <time>2016-09-11T09:57:57Z</time>
      </trkpt>
      <trkpt lat="45.0124" lon="5.46672">
        <ele>1088</ele>
        <time>2016-09-11T09:58:00Z</time>
      </trkpt>
      <trkpt lat="45.01235" lon="5.46674">
        <ele>1089</ele>
        <time>2016-09-11T09:58:03Z</time>
      </trkpt>
      <trkpt lat="45.0123" lon="5.46676">
        <ele>1091</ele>
        <time>2016-09-11T09:58:06Z</time>
      </trkpt>
      <trkpt lat="45.01225" lon="5.46677">
        <ele>1092</ele>
        <time>2016-09-11T09:58:09Z</time>
      </trkpt>
      <trkpt lat="45.0122" lon="5.46679">
        <ele>1093</ele>
        <time>2016-09-11T09:58:13Z</time>
      </trkpt>
      <trkpt lat="45.01215" lon="5.46681">
        <ele>1093</ele>
        <time>2016-09-11T09:58:16Z</time>
      </trkpt>
      <trkpt lat="45.01211" lon="5.46682">
        <ele>1094</ele>
        <time>2016-09-11T09:58:19Z</time>
      </trkpt>
      <trkpt lat="45.01206" lon="5.46684">
        <ele>1095</ele>
        <time>2016-09-11T09:58:22Z</time>
      </trkpt>
      <trkpt lat="45.01202" lon="5.46686">
        <ele>1096</ele>
        <time>2016-09-11T09:58:25Z</time>
      </trkpt>
      <trkpt lat="45.01197" lon="5.46687">
        <ele>1097</ele>
        <time>2016-09-11T09:58:28Z</time>
      </trkpt>
      <trkpt lat="45.01192" lon="5.46689">
        <ele>1099</ele>
        <time>2016-09-11T09:58:31Z</time>
      </trkpt>
      <trkpt lat="45.01187" lon="5.46691">
        <ele>1100</ele>
        <time>2016-09-11T09:58:34Z</time>
      </trkpt>
      <trkpt lat="45.01182" lon="5.46693">
        <ele>1101</ele>
        <time>2016-09-11T09:58:37Z</time>
      </trkpt>
      <trkpt lat="45.01177" lon="5.46695">
        <ele>1102</ele>
        <time>2016-09-11T09:58:40Z</time>
      </trkpt>
      <trkpt lat="45.01172" lon="5.46698">
        <ele>1103</ele>
        <time>2016-09-11T09:58:43Z</time>
      </trkpt>
      <trkpt lat="45.01166" lon="5.46699">
        <ele>1103</ele>
        <time>2016-09-11T09:58:46Z</time>
      </trkpt>
      <trkpt lat="45.01161" lon="5.467">
        <ele>1104</ele>
        <time>2016-09-11T09:58:49Z</time>
      </trkpt>
      <trkpt lat="45.01156" lon="5.46702">
        <ele>1105</ele>
        <time>2016-09-11T09:58:52Z</time>
      </trkpt>
      <trkpt lat="45.01151" lon="5.46704">
        <ele>1105</ele>
        <time>2016-09-11T09:58:55Z</time>
      </trkpt>
      <trkpt lat="45.01146" lon="5.46705">
        <ele>1106</ele>
        <time>2016-09-11T09:58:58Z</time>
      </trkpt>
      <trkpt lat="45.0114" lon="5.46707">
        <ele>1106</ele>
        <time>2016-09-11T09:59:01Z</time>
      </trkpt>
      <trkpt lat="45.01135" lon="5.46708">
        <ele>1107</ele>
        <time>2016-09-11T09:59:04Z</time>
      </trkpt>
      <trkpt lat="45.0113" lon="5.46709">
        <ele>1107</ele>
        <time>2016-09-11T09:59:07Z</time>
      </trkpt>
      <trkpt lat="45.01125" lon="5.46711">
        <ele>1108</ele>
        <time>2016-09-11T09:59:10Z</time>
      </trkpt>
      <trkpt lat="45.0112" lon="5.46713">
        <ele>1108</ele>
        <time>2016-09-11T09:59:13Z</time>
      </trkpt>
      <trkpt lat="45.01114" lon="5.46714">
        <ele>1109</ele>
        <time>2016-09-11T09:59:16Z</time>
      </trkpt>
      <trkpt lat="45.01109" lon="5.46715">
        <ele>1109</ele>
        <time>2016-09-11T09:59:19Z</time>
      </trkpt>
      <trkpt lat="45.01104" lon="5.46716">
        <ele>1110</ele>
        <time>2016-09-11T09:59:22Z</time>
      </trkpt>
      <trkpt lat="45.01098" lon="5.46717">
        <ele>1111</ele>
        <time>2016-09-11T09:59:25Z</time>
      </trkpt>
      <trkpt lat="45.01093" lon="5.46718">
        <ele>1111</ele>
        <time>2016-09-11T09:59:28Z</time>
      </trkpt>
      <trkpt lat="45.01087" lon="5.4672">
        <ele>1112</ele>
        <time>2016-09-11T09:59:31Z</time>
      </trkpt>
      <trkpt lat="45.01082" lon="5.46722">
        <ele>1113</ele>
        <time>2016-09-11T09:59:34Z</time>
      </trkpt>
      <trkpt lat="45.01076" lon="5.46723">
        <ele>1113</ele>
        <time>2016-09-11T09:59:37Z</time>
      </trkpt>
      <trkpt lat="45.01071" lon="5.46725">
        <ele>1114</ele>
        <time>2016-09-11T09:59:40Z</time>
      </trkpt>
      <trkpt lat="45.01065" lon="5.46728">
        <ele>1114</ele>
        <time>2016-09-11T09:59:43Z</time>
      </trkpt>
      <trkpt lat="45.0106" lon="5.4673">
        <ele>1115</ele>
        <time>2016-09-11T09:59:46Z</time>
      </trkpt>
      <trkpt lat="45.01055" lon="5.46732">
        <ele>1116</ele>
        <time>2016-09-11T09:59:49Z</time>
      </trkpt>
      <trkpt lat="45.0105" lon="5.46734">
        <ele>1116</ele>
        <time>2016-09-11T09:59:52Z</time>
      </trkpt>
      <trkpt lat="45.01045" lon="5.46737">
        <ele>1117</ele>
        <time>2016-09-11T09:59:55Z</time>
      </trkpt>
      <trkpt lat="45.0104" lon="5.46738">
        <ele>1118</ele>
        <time>2016-09-11T09:59:58Z</time>
      </trkpt>
      <trkpt lat="45.01035" lon="5.4674">
        <ele>1118</ele>
        <time>2016-09-11T10:00:01Z</time>
      </trkpt>
      <trkpt lat="45.0103" lon="5.46743">
        <ele>1118</ele>
        <time>2016-09-11T10:00:04Z</time>
      </trkpt>
      <trkpt lat="45.01024" lon="5.46747">
        <ele>1118</ele>
        <time>2016-09-11T10:00:07Z</time>
      </trkpt>
      <trkpt lat="45.01018" lon="5.4675">
        <ele>1118</ele>
        <time>2016-09-11T10:00:10Z</time>
      </trkpt>
      <trkpt lat="45.01013" lon="5.46753">
        <ele>1118</ele>
        <time>2016-09-11T10:00:13Z</time>
      </trkpt>
      <trkpt lat="45.01008" lon="5.46754">
        <ele>1119</ele>
        <time>2016-09-11T10:00:16Z</time>
      </trkpt>
      <trkpt lat="45.01002" lon="5.46755">
        <ele>1121</ele>
        <time>2016-09-11T10:00:19Z</time>
      </trkpt>
      <trkpt lat="45.00996" lon="5.46755">
        <ele>1122</ele>
        <time>2016-09-11T10:00:22Z</time>
      </trkpt>
      <trkpt lat="45.0099" lon="5.46757">
        <ele>1123</ele>
        <time>2016-09-11T10:00:25Z</time>
      </trkpt>
      <trkpt lat="45.00983" lon="5.46758">
        <ele>1124</ele>
        <time>2016-09-11T10:00:28Z</time>
      </trkpt>
      <trkpt lat="45.00978" lon="5.46759">
        <ele>1124</ele>
        <time>2016-09-11T10:00:30Z</time>
      </trkpt>
      <trkpt lat="45.00973" lon="5.4676">
        <ele>1124</ele>
        <time>2016-09-11T10:00:32Z</time>
      </trkpt>
      <trkpt lat="45.00969" lon="5.4676">
        <ele>1124</ele>
        <time>2016-09-11T10:00:34Z</time>
      </trkpt>
      <trkpt lat="45.00964" lon="5.46761">
        <ele>1124</ele>
        <time>2016-09-11T10:00:36Z</time>
      </trkpt>
      <trkpt lat="45.00959" lon="5.46762">
        <ele>1125</ele>
        <time>2016-09-11T10:00:38Z</time>
      </trkpt>
      <trkpt lat="45.00953" lon="5.46764">
        <ele>1125</ele>
        <time>2016-09-11T10:00:41Z</time>
      </trkpt>
      <trkpt lat="45.00946" lon="5.46765">
        <ele>1126</ele>
        <time>2016-09-11T10:00:44Z</time>
      </trkpt>
      <trkpt lat="45.00941" lon="5.46765">
        <ele>1125</ele>
        <time>2016-09-11T10:00:47Z</time>
      </trkpt>
      <trkpt lat="45.00935" lon="5.46766">
        <ele>1125</ele>
        <time>2016-09-11T10:00:50Z</time>
      </trkpt>
      <trkpt lat="45.00929" lon="5.46767">
        <ele>1126</ele>
        <time>2016-09-11T10:00:53Z</time>
      </trkpt>
      <trkpt lat="45.00923" lon="5.46767">
        <ele>1128</ele>
        <time>2016-09-11T10:00:56Z</time>
      </trkpt>
      <trkpt lat="45.00917" lon="5.46768">
        <ele>1130</ele>
        <time>2016-09-11T10:00:59Z</time>
      </trkpt>
      <trkpt lat="45.00911" lon="5.4677">
        <ele>1132</ele>
        <time>2016-09-11T10:01:02Z</time>
      </trkpt>
      <trkpt lat="45.00905" lon="5.46771">
        <ele>1134</ele>
        <time>2016-09-11T10:01:05Z</time>
      </trkpt>
      <trkpt lat="45.00898" lon="5.46772">
        <ele>1135</ele>
        <time>2016-09-11T10:01:08Z</time>
      </trkpt>
      <trkpt lat="45.00892" lon="5.46771">
        <ele>1135</ele>
        <time>2016-09-11T10:01:11Z</time>
      </trkpt>
      <trkpt lat="45.00887" lon="5.46771">
        <ele>1136</ele>
        <time>2016-09-11T10:01:13Z</time>
      </trkpt>
      <trkpt lat="45.00882" lon="5.46771">
        <ele>1137</ele>
        <time>2016-09-11T10:01:15Z</time>
      </trkpt>
      <trkpt lat="45.00878" lon="5.46771">
        <ele>1138</ele>
        <time>2016-09-11T10:01:17Z</time>
      </trkpt>
      <trkpt lat="45.00873" lon="5.46771">
        <ele>1138</ele>
        <time>2016-09-11T10:01:19Z</time>
      </trkpt>
      <trkpt lat="45.00867" lon="5.46772">
        <ele>1138</ele>
        <time>2016-09-11T10:01:21Z</time>
      </trkpt>
      <trkpt lat="45.00862" lon="5.46772">
        <ele>1138</ele>
        <time>2016-09-11T10:01:23Z</time>
      </trkpt>
      <trkpt lat="45.00857" lon="5.46773">
        <ele>1138</ele>
        <time>2016-09-11T10:01:25Z</time>
      </trkpt>
      <trkpt lat="45.00851" lon="5.46773">
        <ele>1137</ele>
        <time>2016-09-11T10:01:27Z</time>
      </trkpt>
      <trkpt lat="45.00847" lon="5.46773">
        <ele>1136</ele>
        <time>2016-09-11T10:01:29Z</time>
      </trkpt>
      <trkpt lat="45.0084" lon="5.46773">
        <ele>1137</ele>
        <time>2016-09-11T10:01:32Z</time>
      </trkpt>
      <trkpt lat="45.00834" lon="5.46774">
        <ele>1137</ele>
        <time>2016-09-11T10:01:35Z</time>
      </trkpt>
      <trkpt lat="45.00827" lon="5.46775">
        <ele>1138</ele>
        <time>2016-09-11T10:01:38Z</time>
      </trkpt>
      <trkpt lat="45.00821" lon="5.46776">
        <ele>1139</ele>
        <time>2016-09-11T10:01:41Z</time>
      </trkpt>
      <trkpt lat="45.00814" lon="5.46777">
        <ele>1139</ele>
        <time>2016-09-11T10:01:44Z</time>
      </trkpt>
      <trkpt lat="45.00808" lon="5.46778">
        <ele>1139</ele>
        <time>2016-09-11T10:01:47Z</time>
      </trkpt>
      <trkpt lat="45.00803" lon="5.4678">
        <ele>1138</ele>
        <time>2016-09-11T10:01:49Z</time>
      </trkpt>
      <trkpt lat="45.00797" lon="5.46781">
        <ele>1137</ele>
        <time>2016-09-11T10:01:52Z</time>
      </trkpt>
      <trkpt lat="45.00791" lon="5.46782">
        <ele>1137</ele>
        <time>2016-09-11T10:01:55Z</time>
      </trkpt>
      <trkpt lat="45.00786" lon="5.46783">
        <ele>1137</ele>
        <time>2016-09-11T10:01:58Z</time>
      </trkpt>
      <trkpt lat="45.0078" lon="5.46785">
        <ele>1138</ele>
        <time>2016-09-11T10:02:01Z</time>
      </trkpt>
      <trkpt lat="45.00774" lon="5.46787">
        <ele>1138</ele>
        <time>2016-09-11T10:02:04Z</time>
      </trkpt>
      <trkpt lat="45.00768" lon="5.46788">
        <ele>1140</ele>
        <time>2016-09-11T10:02:07Z</time>
      </trkpt>
      <trkpt lat="45.00761" lon="5.46789">
        <ele>1141</ele>
        <time>2016-09-11T10:02:10Z</time>
      </trkpt>
      <trkpt lat="45.00754" lon="5.46789">
        <ele>1142</ele>
        <time>2016-09-11T10:02:13Z</time>
      </trkpt>
      <trkpt lat="45.0075" lon="5.46788">
        <ele>1143</ele>
        <time>2016-09-11T10:02:15Z</time>
      </trkpt>
      <trkpt lat="45.00745" lon="5.46787">
        <ele>1144</ele>
        <time>2016-09-11T10:02:17Z</time>
      </trkpt>
      <trkpt lat="45.00739" lon="5.46787">
        <ele>1145</ele>
        <time>2016-09-11T10:02:20Z</time>
      </trkpt>
      <trkpt lat="45.00734" lon="5.46787">
        <ele>1146</ele>
        <time>2016-09-11T10:02:22Z</time>
      </trkpt>
      <trkpt lat="45.00729" lon="5.46786">
        <ele>1147</ele>
        <time>2016-09-11T10:02:24Z</time>
      </trkpt>
      <trkpt lat="45.00722" lon="5.46786">
        <ele>1147</ele>
        <time>2016-09-11T10:02:27Z</time>
      </trkpt>
      <trkpt lat="45.00717" lon="5.46785">
        <ele>1148</ele>
        <time>2016-09-11T10:02:29Z</time>
      </trkpt>
      <trkpt lat="45.00713" lon="5.46785">
        <ele>1149</ele>
        <time>2016-09-11T10:02:31Z</time>
      </trkpt>
      <trkpt lat="45.00708" lon="5.46785">
        <ele>1149</ele>
        <time>2016-09-11T10:02:33Z</time>
      </trkpt>
      <trkpt lat="45.00703" lon="5.46784">
        <ele>1150</ele>
        <time>2016-09-11T10:02:35Z</time>
      </trkpt>
      <trkpt lat="45.00699" lon="5.46784">
        <ele>1150</ele>
        <time>2016-09-11T10:02:37Z</time>
      </trkpt>
      <trkpt lat="45.00692" lon="5.46784">
        <ele>1150</ele>
        <time>2016-09-11T10:02:40Z</time>
      </trkpt>
      <trkpt lat="45.00686" lon="5.46783">
        <ele>1150</ele>
        <time>2016-09-11T10:02:43Z</time>
      </trkpt>
      <trkpt lat="45.0068" lon="5.46782">
        <ele>1151</ele>
        <time>2016-09-11T10:02:46Z</time>
      </trkpt>
      <trkpt lat="45.00673" lon="5.46781">
        <ele>1151</ele>
        <time>2016-09-11T10:02:49Z</time>
      </trkpt>
      <trkpt lat="45.00667" lon="5.46781">
        <ele>1152</ele>
        <time>2016-09-11T10:02:52Z</time>
      </trkpt>
      <trkpt lat="45.0066" lon="5.4678">
        <ele>1153</ele>
        <time>2016-09-11T10:02:55Z</time>
      </trkpt>
      <trkpt lat="45.00656" lon="5.4678">
        <ele>1154</ele>
        <time>2016-09-11T10:02:57Z</time>
      </trkpt>
      <trkpt lat="45.0065" lon="5.4678">
        <ele>1154</ele>
        <time>2016-09-11T10:02:59Z</time>
      </trkpt>
      <trkpt lat="45.00645" lon="5.46781">
        <ele>1154</ele>
        <time>2016-09-11T10:03:01Z</time>
      </trkpt>
      <trkpt lat="45.00641" lon="5.46782">
        <ele>1154</ele>
        <time>2016-09-11T10:03:03Z</time>
      </trkpt>
      <trkpt lat="45.00636" lon="5.46785">
        <ele>1153</ele>
        <time>2016-09-11T10:03:05Z</time>
      </trkpt>
      <trkpt lat="45.00631" lon="5.46787">
        <ele>1152</ele>
        <time>2016-09-11T10:03:07Z</time>
      </trkpt>
      <trkpt lat="45.00627" lon="5.46789">
        <ele>1152</ele>
        <time>2016-09-11T10:03:09Z</time>
      </trkpt>
      <trkpt lat="45.00622" lon="5.46791">
        <ele>1152</ele>
        <time>2016-09-11T10:03:11Z</time>
      </trkpt>
      <trkpt lat="45.00616" lon="5.46793">
        <ele>1153</ele>
        <time>2016-09-11T10:03:14Z</time>
      </trkpt>
      <trkpt lat="45.00611" lon="5.46793">
        <ele>1153</ele>
        <time>2016-09-11T10:03:17Z</time>
      </trkpt>
      <trkpt lat="45.00605" lon="5.46795">
        <ele>1153</ele>
        <time>2016-09-11T10:03:20Z</time>
      </trkpt>
      <trkpt lat="45.00599" lon="5.46796">
        <ele>1153</ele>
        <time>2016-09-11T10:03:23Z</time>
      </trkpt>
      <trkpt lat="45.00592" lon="5.46798">
        <ele>1154</ele>
        <time>2016-09-11T10:03:26Z</time>
      </trkpt>
      <trkpt lat="45.00588" lon="5.46798">
        <ele>1155</ele>
        <time>2016-09-11T10:03:29Z</time>
      </trkpt>
      <trkpt lat="45.00583" lon="5.46796">
        <ele>1156</ele>
        <time>2016-09-11T10:03:32Z</time>
      </trkpt>
      <trkpt lat="45.00579" lon="5.46794">
        <ele>1156</ele>
        <time>2016-09-11T10:03:35Z</time>
      </trkpt>
      <trkpt lat="45.00574" lon="5.46791">
        <ele>1157</ele>
        <time>2016-09-11T10:03:38Z</time>
      </trkpt>
      <trkpt lat="45.00569" lon="5.46788">
        <ele>1157</ele>
        <time>2016-09-11T10:03:41Z</time>
      </trkpt>
      <trkpt lat="45.00564" lon="5.46785">
        <ele>1157</ele>
        <time>2016-09-11T10:03:44Z</time>
      </trkpt>
      <trkpt lat="45.00559" lon="5.46783">
        <ele>1158</ele>
        <time>2016-09-11T10:03:47Z</time>
      </trkpt>
      <trkpt lat="45.00552" lon="5.4678">
        <ele>1159</ele>
        <time>2016-09-11T10:03:50Z</time>
      </trkpt>
      <trkpt lat="45.00546" lon="5.46779">
        <ele>1160</ele>
        <time>2016-09-11T10:03:53Z</time>
      </trkpt>
      <trkpt lat="45.00539" lon="5.46778">
        <ele>1162</ele>
        <time>2016-09-11T10:03:56Z</time>
      </trkpt>
      <trkpt lat="45.00535" lon="5.46779">
        <ele>1163</ele>
        <time>2016-09-11T10:03:58Z</time>
      </trkpt>
      <trkpt lat="45.0053" lon="5.46779">
        <ele>1163</ele>
        <time>2016-09-11T10:04:00Z</time>
      </trkpt>
      <trkpt lat="45.00525" lon="5.46778">
        <ele>1165</ele>
        <time>2016-09-11T10:04:03Z</time>
      </trkpt>
      <trkpt lat="45.00518" lon="5.46778">
        <ele>1166</ele>
        <time>2016-09-11T10:04:06Z</time>
      </trkpt>
      <trkpt lat="45.00512" lon="5.4678">
        <ele>1167</ele>
        <time>2016-09-11T10:04:09Z</time>
      </trkpt>
      <trkpt lat="45.00507" lon="5.46781">
        <ele>1167</ele>
        <time>2016-09-11T10:04:12Z</time>
      </trkpt>
      <trkpt lat="45.00502" lon="5.46782">
        <ele>1168</ele>
        <time>2016-09-11T10:04:15Z</time>
      </trkpt>
      <trkpt lat="45.00497" lon="5.46783">
        <ele>1168</ele>
        <time>2016-09-11T10:04:18Z</time>
      </trkpt>
      <trkpt lat="45.00491" lon="5.46783">
        <ele>1167</ele>
        <time>2016-09-11T10:04:21Z</time>
      </trkpt>
      <trkpt lat="45.00485" lon="5.46785">
        <ele>1168</ele>
        <time>2016-09-11T10:04:24Z</time>
      </trkpt>
      <trkpt lat="45.00478" lon="5.46785">
        <ele>1168</ele>
        <time>2016-09-11T10:04:27Z</time>
      </trkpt>
      <trkpt lat="45.00472" lon="5.46785">
        <ele>1169</ele>
        <time>2016-09-11T10:04:30Z</time>
      </trkpt>
      <trkpt lat="45.00466" lon="5.46782">
        <ele>1170</ele>
        <time>2016-09-11T10:04:33Z</time>
      </trkpt>
      <trkpt lat="45.00459" lon="5.46782">
        <ele>1168</ele>
        <time>2016-09-11T10:04:35Z</time>
      </trkpt>
      <trkpt lat="45.00453" lon="5.46781">
        <ele>1166</ele>
        <time>2016-09-11T10:04:37Z</time>
      </trkpt>
      <trkpt lat="45.00446" lon="5.4678">
        <ele>1163</ele>
        <time>2016-09-11T10:04:39Z</time>
      </trkpt>
      <trkpt lat="45.00441" lon="5.46779">
        <ele>1159</ele>
        <time>2016-09-11T10:04:41Z</time>
      </trkpt>
      <trkpt lat="45.00436" lon="5.46778">
        <ele>1155</ele>
        <time>2016-09-11T10:04:43Z</time>
      </trkpt>
      <trkpt lat="45.00431" lon="5.46777">
        <ele>1153</ele>
        <time>2016-09-11T10:04:45Z</time>
      </trkpt>
      <trkpt lat="45.00426" lon="5.46776">
        <ele>1153</ele>
        <time>2016-09-11T10:04:47Z</time>
      </trkpt>
      <trkpt lat="45.00422" lon="5.46775">
        <ele>1153</ele>
        <time>2016-09-11T10:04:49Z</time>
      </trkpt>
      <trkpt lat="45.00415" lon="5.46773">
        <ele>1154</ele>
        <time>2016-09-11T10:04:52Z</time>
      </trkpt>
      <trkpt lat="45.00411" lon="5.46772">
        <ele>1156</ele>
        <time>2016-09-11T10:04:55Z</time>
      </trkpt>
      <trkpt lat="45.00405" lon="5.46771">
        <ele>1158</ele>
        <time>2016-09-11T10:04:59Z</time>
      </trkpt>
      <trkpt lat="45.004" lon="5.4677">
        <ele>1160</ele>
        <time>2016-09-11T10:05:03Z</time>
      </trkpt>
      <trkpt lat="45.00395" lon="5.46769">
        <ele>1162</ele>
        <time>2016-09-11T10:05:06Z</time>
      </trkpt>
      <trkpt lat="45.0039" lon="5.46768">
        <ele>1164</ele>
        <time>2016-09-11T10:05:09Z</time>
      </trkpt>
      <trkpt lat="45.00385" lon="5.46764">
        <ele>1166</ele>
        <time>2016-09-11T10:05:12Z</time>
      </trkpt>
      <trkpt lat="45.00381" lon="5.46761">
        <ele>1168</ele>
        <time>2016-09-11T10:05:15Z</time>
      </trkpt>
      <trkpt lat="45.00377" lon="5.46757">
        <ele>1171</ele>
        <time>2016-09-11T10:05:18Z</time>
      </trkpt>
      <trkpt lat="45.00373" lon="5.46752">
        <ele>1174</ele>
        <time>2016-09-11T10:05:21Z</time>
      </trkpt>
      <trkpt lat="45.00369" lon="5.46748">
        <ele>1175</ele>
        <time>2016-09-11T10:05:24Z</time>
      </trkpt>
      <trkpt lat="45.00364" lon="5.46744">
        <ele>1177</ele>
        <time>2016-09-11T10:05:27Z</time>
      </trkpt>
      <trkpt lat="45.00359" lon="5.46742">
        <ele>1177</ele>
        <time>2016-09-11T10:05:30Z</time>
      </trkpt>
      <trkpt lat="45.00353" lon="5.46742">
        <ele>1177</ele>
        <time>2016-09-11T10:05:33Z</time>
      </trkpt>
      <trkpt lat="45.00348" lon="5.46744">
        <ele>1177</ele>
        <time>2016-09-11T10:05:36Z</time>
      </trkpt>
      <trkpt lat="45.00346" lon="5.46751">
        <ele>1176</ele>
        <time>2016-09-11T10:05:39Z</time>
      </trkpt>
      <trkpt lat="45.00347" lon="5.46759">
        <ele>1176</ele>
        <time>2016-09-11T10:05:42Z</time>
      </trkpt>
      <trkpt lat="45.00351" lon="5.46765">
        <ele>1176</ele>
        <time>2016-09-11T10:05:45Z</time>
      </trkpt>
      <trkpt lat="45.00356" lon="5.46768">
        <ele>1176</ele>
        <time>2016-09-11T10:05:48Z</time>
      </trkpt>
      <trkpt lat="45.00358" lon="5.46764">
        <ele>1177</ele>
        <time>2016-09-11T10:06:14Z</time>
      </trkpt>
      <trkpt lat="45.00358" lon="5.46764">
        <ele>1178</ele>
        <time>2016-09-11T10:06:17Z</time>
      </trkpt>
      <trkpt lat="45.00358" lon="5.46764">
        <ele>1179</ele>
        <time>2016-09-11T10:06:44Z</time>
      </trkpt>
      <trkpt lat="45.00358" lon="5.46764">
        <ele>1179</ele>
        <time>2016-09-11T10:06:47Z</time>
      </trkpt>
      <trkpt lat="45.00359" lon="5.46767">
        <ele>1180</ele>
        <time>2016-09-11T10:07:14Z</time>
      </trkpt>
      <trkpt lat="45.00358" lon="5.46767">
        <ele>1181</ele>
        <time>2016-09-11T10:07:16Z</time>
      </trkpt>
      <trkpt lat="45.00354" lon="5.46766">
        <ele>1181</ele>
        <time>2016-09-11T10:07:44Z</time>
      </trkpt>
      <trkpt lat="45.00354" lon="5.46766">
        <ele>1181</ele>
        <time>2016-09-11T10:07:47Z</time>
      </trkpt>
      <trkpt lat="45.00355" lon="5.46765">
        <ele>1181</ele>
        <time>2016-09-11T10:08:14Z</time>
      </trkpt>
      <trkpt lat="45.00355" lon="5.46765">
        <ele>1181</ele>
        <time>2016-09-11T10:08:17Z</time>
      </trkpt>
      <trkpt lat="45.00355" lon="5.46765">
        <ele>1181</ele>
        <time>2016-09-11T10:08:44Z</time>
      </trkpt>
      <trkpt lat="45.00355" lon="5.46765">
        <ele>1181</ele>
        <time>2016-09-11T10:08:47Z</time>
      </trkpt>
      <trkpt lat="45.00361" lon="5.46765">
        <ele>1181</ele>
        <time>2016-09-11T10:09:02Z</time>
      </trkpt>
      <trkpt lat="45.00365" lon="5.4677">
        <ele>1181</ele>
        <time>2016-09-11T10:09:05Z</time>
      </trkpt>
      <trkpt lat="45.0037" lon="5.46776">
        <ele>1181</ele>
        <time>2016-09-11T10:09:08Z</time>
      </trkpt>
      <trkpt lat="45.00375" lon="5.46781">
        <ele>1182</ele>
        <time>2016-09-11T10:09:11Z</time>
      </trkpt>
      <trkpt lat="45.0038" lon="5.46784">
        <ele>1182</ele>
        <time>2016-09-11T10:09:13Z</time>
      </trkpt>
      <trkpt lat="45.00383" lon="5.46787">
        <ele>1184</ele>
        <time>2016-09-11T10:09:15Z</time>
      </trkpt>
      <trkpt lat="45.0039" lon="5.46792">
        <ele>1185</ele>
        <time>2016-09-11T10:09:18Z</time>
      </trkpt>
      <trkpt lat="45.00396" lon="5.46796">
        <ele>1186</ele>
        <time>2016-09-11T10:09:21Z</time>
      </trkpt>
      <trkpt lat="45.004" lon="5.46798">
        <ele>1187</ele>
        <time>2016-09-11T10:09:23Z</time>
      </trkpt>
      <trkpt lat="45.00404" lon="5.468">
        <ele>1187</ele>
        <time>2016-09-11T10:09:25Z</time>
      </trkpt>
      <trkpt lat="45.00409" lon="5.46803">
        <ele>1188</ele>
        <time>2016-09-11T10:09:27Z</time>
      </trkpt>
      <trkpt lat="45.00414" lon="5.46808">
        <ele>1188</ele>
        <time>2016-09-11T10:09:30Z</time>
      </trkpt>
      <trkpt lat="45.0042" lon="5.46812">
        <ele>1187</ele>
        <time>2016-09-11T10:09:33Z</time>
      </trkpt>
      <trkpt lat="45.00425" lon="5.46818">
        <ele>1188</ele>
        <time>2016-09-11T10:09:36Z</time>
      </trkpt>
      <trkpt lat="45.0043" lon="5.46823">
        <ele>1187</ele>
        <time>2016-09-11T10:09:39Z</time>
      </trkpt>
      <trkpt lat="45.00435" lon="5.46827">
        <ele>1187</ele>
        <time>2016-09-11T10:09:42Z</time>
      </trkpt>
      <trkpt lat="45.0044" lon="5.46833">
        <ele>1187</ele>
        <time>2016-09-11T10:09:45Z</time>
      </trkpt>
      <trkpt lat="45.00444" lon="5.46839">
        <ele>1187</ele>
        <time>2016-09-11T10:09:48Z</time>
      </trkpt>
      <trkpt lat="45.00448" lon="5.46845">
        <ele>1186</ele>
        <time>2016-09-11T10:09:51Z</time>
      </trkpt>
      <trkpt lat="45.00452" lon="5.4685">
        <ele>1187</ele>
        <time>2016-09-11T10:09:54Z</time>
      </trkpt>
      <trkpt lat="45.00456" lon="5.46856">
        <ele>1187</ele>
        <time>2016-09-11T10:09:57Z</time>
      </trkpt>
      <trkpt lat="45.00459" lon="5.46862">
        <ele>1188</ele>
        <time>2016-09-11T10:10:00Z</time>
      </trkpt>
      <trkpt lat="45.00462" lon="5.46867">
        <ele>1189</ele>
        <time>2016-09-11T10:10:03Z</time>
      </trkpt>
      <trkpt lat="45.00465" lon="5.46873">
        <ele>1189</ele>
        <time>2016-09-11T10:10:06Z</time>
      </trkpt>
      <trkpt lat="45.00467" lon="5.46878">
        <ele>1190</ele>
        <time>2016-09-11T10:10:09Z</time>
      </trkpt>
      <trkpt lat="45.0047" lon="5.46884">
        <ele>1191</ele>
        <time>2016-09-11T10:10:12Z</time>
      </trkpt>
      <trkpt lat="45.00475" lon="5.4689">
        <ele>1191</ele>
        <time>2016-09-11T10:10:15Z</time>
      </trkpt>
      <trkpt lat="45.00479" lon="5.46895">
        <ele>1191</ele>
        <time>2016-09-11T10:10:18Z</time>
      </trkpt>
      <trkpt lat="45.00484" lon="5.46902">
        <ele>1191</ele>
        <time>2016-09-11T10:10:21Z</time>
      </trkpt>
      <trkpt lat="45.00488" lon="5.46905">
        <ele>1191</ele>
        <time>2016-09-11T10:10:23Z</time>
      </trkpt>
      <trkpt lat="45.00492" lon="5.46909">
        <ele>1191</ele>
        <time>2016-09-11T10:10:25Z</time>
      </trkpt>
      <trkpt lat="45.00497" lon="5.46914">
        <ele>1192</ele>
        <time>2016-09-11T10:10:28Z</time>
      </trkpt>
      <trkpt lat="45.00502" lon="5.46918">
        <ele>1192</ele>
        <time>2016-09-11T10:10:31Z</time>
      </trkpt>
      <trkpt lat="45.00507" lon="5.46921">
        <ele>1193</ele>
        <time>2016-09-11T10:10:34Z</time>
      </trkpt>
      <trkpt lat="45.00512" lon="5.46925">
        <ele>1194</ele>
        <time>2016-09-11T10:10:37Z</time>
      </trkpt>
      <trkpt lat="45.00518" lon="5.46928">
        <ele>1194</ele>
        <time>2016-09-11T10:10:40Z</time>
      </trkpt>
      <trkpt lat="45.00524" lon="5.4693">
        <ele>1195</ele>
        <time>2016-09-11T10:10:43Z</time>
      </trkpt>
      <trkpt lat="45.0053" lon="5.46934">
        <ele>1195</ele>
        <time>2016-09-11T10:10:46Z</time>
      </trkpt>
      <trkpt lat="45.00536" lon="5.46939">
        <ele>1195</ele>
        <time>2016-09-11T10:10:49Z</time>
      </trkpt>
      <trkpt lat="45.00541" lon="5.46943">
        <ele>1195</ele>
        <time>2016-09-11T10:10:52Z</time>
      </trkpt>
      <trkpt lat="45.00547" lon="5.46947">
        <ele>1194</ele>
        <time>2016-09-11T10:10:55Z</time>
      </trkpt>
      <trkpt lat="45.00552" lon="5.46953">
        <ele>1194</ele>
        <time>2016-09-11T10:10:58Z</time>
      </trkpt>
      <trkpt lat="45.00556" lon="5.46958">
        <ele>1194</ele>
        <time>2016-09-11T10:11:00Z</time>
      </trkpt>
      <trkpt lat="45.00559" lon="5.46963">
        <ele>1194</ele>
        <time>2016-09-11T10:11:02Z</time>
      </trkpt>
      <trkpt lat="45.00562" lon="5.46968">
        <ele>1195</ele>
        <time>2016-09-11T10:11:04Z</time>
      </trkpt>
      <trkpt lat="45.00566" lon="5.46973">
        <ele>1195</ele>
        <time>2016-09-11T10:11:06Z</time>
      </trkpt>
      <trkpt lat="45.00571" lon="5.46979">
        <ele>1195</ele>
        <time>2016-09-11T10:11:08Z</time>
      </trkpt>
      <trkpt lat="45.00578" lon="5.46984">
        <ele>1195</ele>
        <time>2016-09-11T10:11:10Z</time>
      </trkpt>
      <trkpt lat="45.00584" lon="5.46987">
        <ele>1195</ele>
        <time>2016-09-11T10:11:12Z</time>
      </trkpt>
      <trkpt lat="45.0059" lon="5.46988">
        <ele>1195</ele>
        <time>2016-09-11T10:11:14Z</time>
      </trkpt>
      <trkpt lat="45.00597" lon="5.46986">
        <ele>1197</ele>
        <time>2016-09-11T10:11:16Z</time>
      </trkpt>
      <trkpt lat="45.00601" lon="5.46981">
        <ele>1198</ele>
        <time>2016-09-11T10:11:18Z</time>
      </trkpt>
      <trkpt lat="45.00606" lon="5.46975">
        <ele>1199</ele>
        <time>2016-09-11T10:11:20Z</time>
      </trkpt>
      <trkpt lat="45.0061" lon="5.46969">
        <ele>1199</ele>
        <time>2016-09-11T10:11:22Z</time>
      </trkpt>
      <trkpt lat="45.00615" lon="5.46964">
        <ele>1198</ele>
        <time>2016-09-11T10:11:25Z</time>
      </trkpt>
      <trkpt lat="45.00618" lon="5.46959">
        <ele>1197</ele>
        <time>2016-09-11T10:11:28Z</time>
      </trkpt>
      <trkpt lat="45.00621" lon="5.46951">
        <ele>1196</ele>
        <time>2016-09-11T10:11:31Z</time>
      </trkpt>
      <trkpt lat="45.00626" lon="5.46947">
        <ele>1195</ele>
        <time>2016-09-11T10:11:34Z</time>
      </trkpt>
      <trkpt lat="45.00632" lon="5.46945">
        <ele>1195</ele>
        <time>2016-09-11T10:11:37Z</time>
      </trkpt>
      <trkpt lat="45.00638" lon="5.46944">
        <ele>1195</ele>
        <time>2016-09-11T10:11:40Z</time>
      </trkpt>
      <trkpt lat="45.00644" lon="5.46942">
        <ele>1195</ele>
        <time>2016-09-11T10:11:43Z</time>
      </trkpt>
      <trkpt lat="45.00649" lon="5.4694">
        <ele>1196</ele>
        <time>2016-09-11T10:11:46Z</time>
      </trkpt>
      <trkpt lat="45.00654" lon="5.46939">
        <ele>1198</ele>
        <time>2016-09-11T10:11:49Z</time>
      </trkpt>
      <trkpt lat="45.0066" lon="5.46939">
        <ele>1199</ele>
        <time>2016-09-11T10:11:52Z</time>
      </trkpt>
      <trkpt lat="45.00666" lon="5.46939">
        <ele>1201</ele>
        <time>2016-09-11T10:11:55Z</time>
      </trkpt>
      <trkpt lat="45.00673" lon="5.46939">
        <ele>1202</ele>
        <time>2016-09-11T10:11:58Z</time>
      </trkpt>
      <trkpt lat="45.00679" lon="5.4694">
        <ele>1202</ele>
        <time>2016-09-11T10:12:01Z</time>
      </trkpt>
      <trkpt lat="45.00686" lon="5.46942">
        <ele>1202</ele>
        <time>2016-09-11T10:12:04Z</time>
      </trkpt>
      <trkpt lat="45.00691" lon="5.46945">
        <ele>1202</ele>
        <time>2016-09-11T10:12:07Z</time>
      </trkpt>
      <trkpt lat="45.00696" lon="5.46949">
        <ele>1202</ele>
        <time>2016-09-11T10:12:10Z</time>
      </trkpt>
      <trkpt lat="45.00701" lon="5.46953">
        <ele>1203</ele>
        <time>2016-09-11T10:12:13Z</time>
      </trkpt>
      <trkpt lat="45.00705" lon="5.46956">
        <ele>1203</ele>
        <time>2016-09-11T10:12:16Z</time>
      </trkpt>
      <trkpt lat="45.00709" lon="5.4696">
        <ele>1204</ele>
        <time>2016-09-11T10:12:19Z</time>
      </trkpt>
      <trkpt lat="45.00713" lon="5.46963">
        <ele>1205</ele>
        <time>2016-09-11T10:12:22Z</time>
      </trkpt>
      <trkpt lat="45.00718" lon="5.46967">
        <ele>1207</ele>
        <time>2016-09-11T10:12:25Z</time>
      </trkpt>
      <trkpt lat="45.00723" lon="5.46969">
        <ele>1208</ele>
        <time>2016-09-11T10:12:28Z</time>
      </trkpt>
      <trkpt lat="45.00727" lon="5.4697">
        <ele>1210</ele>
        <time>2016-09-11T10:12:31Z</time>
      </trkpt>
      <trkpt lat="45.00732" lon="5.46971">
        <ele>1211</ele>
        <time>2016-09-11T10:12:34Z</time>
      </trkpt>
      <trkpt lat="45.00737" lon="5.46974">
        <ele>1212</ele>
        <time>2016-09-11T10:12:38Z</time>
      </trkpt>
      <trkpt lat="45.00743" lon="5.46975">
        <ele>1213</ele>
        <time>2016-09-11T10:12:42Z</time>
      </trkpt>
      <trkpt lat="45.00748" lon="5.46976">
        <ele>1213</ele>
        <time>2016-09-11T10:12:46Z</time>
      </trkpt>
      <trkpt lat="45.00754" lon="5.46976">
        <ele>1213</ele>
        <time>2016-09-11T10:12:50Z</time>
      </trkpt>
      <trkpt lat="45.00759" lon="5.46975">
        <ele>1213</ele>
        <time>2016-09-11T10:12:54Z</time>
      </trkpt>
      <trkpt lat="45.00764" lon="5.46975">
        <ele>1214</ele>
        <time>2016-09-11T10:12:58Z</time>
      </trkpt>
      <trkpt lat="45.00768" lon="5.46973">
        <ele>1214</ele>
        <time>2016-09-11T10:13:03Z</time>
      </trkpt>
      <trkpt lat="45.00773" lon="5.46969">
        <ele>1214</ele>
        <time>2016-09-11T10:13:09Z</time>
      </trkpt>
      <trkpt lat="45.00778" lon="5.46966">
        <ele>1213</ele>
        <time>2016-09-11T10:13:13Z</time>
      </trkpt>
      <trkpt lat="45.00784" lon="5.46963">
        <ele>1213</ele>
        <time>2016-09-11T10:13:17Z</time>
      </trkpt>
      <trkpt lat="45.00789" lon="5.46961">
        <ele>1213</ele>
        <time>2016-09-11T10:13:20Z</time>
      </trkpt>
      <trkpt lat="45.00794" lon="5.46961">
        <ele>1214</ele>
        <time>2016-09-11T10:13:23Z</time>
      </trkpt>
      <trkpt lat="45.00799" lon="5.46961">
        <ele>1215</ele>
        <time>2016-09-11T10:13:26Z</time>
      </trkpt>
      <trkpt lat="45.00804" lon="5.46963">
        <ele>1216</ele>
        <time>2016-09-11T10:13:29Z</time>
      </trkpt>
      <trkpt lat="45.00809" lon="5.46968">
        <ele>1217</ele>
        <time>2016-09-11T10:13:32Z</time>
      </trkpt>
      <trkpt lat="45.00813" lon="5.46974">
        <ele>1217</ele>
        <time>2016-09-11T10:13:35Z</time>
      </trkpt>
      <trkpt lat="45.00816" lon="5.4698">
        <ele>1217</ele>
        <time>2016-09-11T10:13:38Z</time>
      </trkpt>
      <trkpt lat="45.00819" lon="5.46986">
        <ele>1216</ele>
        <time>2016-09-11T10:13:41Z</time>
      </trkpt>
      <trkpt lat="45.00822" lon="5.46993">
        <ele>1216</ele>
        <time>2016-09-11T10:13:44Z</time>
      </trkpt>
      <trkpt lat="45.00824" lon="5.46999">
        <ele>1215</ele>
        <time>2016-09-11T10:13:47Z</time>
      </trkpt>
      <trkpt lat="45.00826" lon="5.47006">
        <ele>1215</ele>
        <time>2016-09-11T10:13:50Z</time>
      </trkpt>
      <trkpt lat="45.00828" lon="5.47012">
        <ele>1216</ele>
        <time>2016-09-11T10:13:53Z</time>
      </trkpt>
      <trkpt lat="45.00827" lon="5.47019">
        <ele>1216</ele>
        <time>2016-09-11T10:13:57Z</time>
      </trkpt>
      <trkpt lat="45.00825" lon="5.47027">
        <ele>1217</ele>
        <time>2016-09-11T10:14:01Z</time>
      </trkpt>
      <trkpt lat="45.00823" lon="5.47034">
        <ele>1217</ele>
        <time>2016-09-11T10:14:05Z</time>
      </trkpt>
      <trkpt lat="45.0082" lon="5.47041">
        <ele>1217</ele>
        <time>2016-09-11T10:14:09Z</time>
      </trkpt>
      <trkpt lat="45.00816" lon="5.47047">
        <ele>1216</ele>
        <time>2016-09-11T10:14:13Z</time>
      </trkpt>
      <trkpt lat="45.00813" lon="5.47052">
        <ele>1216</ele>
        <time>2016-09-11T10:14:16Z</time>
      </trkpt>
      <trkpt lat="45.0081" lon="5.47058">
        <ele>1216</ele>
        <time>2016-09-11T10:14:19Z</time>
      </trkpt>
      <trkpt lat="45.00806" lon="5.47063">
        <ele>1216</ele>
        <time>2016-09-11T10:14:22Z</time>
      </trkpt>
      <trkpt lat="45.00803" lon="5.47068">
        <ele>1218</ele>
        <time>2016-09-11T10:14:25Z</time>
      </trkpt>
      <trkpt lat="45.00799" lon="5.47073">
        <ele>1219</ele>
        <time>2016-09-11T10:14:29Z</time>
      </trkpt>
      <trkpt lat="45.00795" lon="5.47077">
        <ele>1221</ele>
        <time>2016-09-11T10:14:32Z</time>
      </trkpt>
      <trkpt lat="45.0079" lon="5.4708">
        <ele>1222</ele>
        <time>2016-09-11T10:14:35Z</time>
      </trkpt>
      <trkpt lat="45.00786" lon="5.47083">
        <ele>1223</ele>
        <time>2016-09-11T10:14:38Z</time>
      </trkpt>
      <trkpt lat="45.00781" lon="5.47086">
        <ele>1223</ele>
        <time>2016-09-11T10:14:41Z</time>
      </trkpt>
      <trkpt lat="45.00777" lon="5.47089">
        <ele>1224</ele>
        <time>2016-09-11T10:14:44Z</time>
      </trkpt>
      <trkpt lat="45.00772" lon="5.4709">
        <ele>1225</ele>
        <time>2016-09-11T10:14:47Z</time>
      </trkpt>
      <trkpt lat="45.00767" lon="5.47094">
        <ele>1225</ele>
        <time>2016-09-11T10:14:50Z</time>
      </trkpt>
      <trkpt lat="45.00764" lon="5.471">
        <ele>1226</ele>
        <time>2016-09-11T10:14:53Z</time>
      </trkpt>
      <trkpt lat="45.00763" lon="5.47107">
        <ele>1227</ele>
        <time>2016-09-11T10:14:56Z</time>
      </trkpt>
      <trkpt lat="45.00765" lon="5.47114">
        <ele>1227</ele>
        <time>2016-09-11T10:14:59Z</time>
      </trkpt>
      <trkpt lat="45.00769" lon="5.47119">
        <ele>1228</ele>
        <time>2016-09-11T10:15:02Z</time>
      </trkpt>
      <trkpt lat="45.00774" lon="5.4712">
        <ele>1229</ele>
        <time>2016-09-11T10:15:05Z</time>
      </trkpt>
      <trkpt lat="45.00779" lon="5.47118">
        <ele>1230</ele>
        <time>2016-09-11T10:15:08Z</time>
      </trkpt>
      <trkpt lat="45.00785" lon="5.47115">
        <ele>1231</ele>
        <time>2016-09-11T10:15:11Z</time>
      </trkpt>
      <trkpt lat="45.00791" lon="5.47112">
        <ele>1232</ele>
        <time>2016-09-11T10:15:14Z</time>
      </trkpt>
      <trkpt lat="45.00796" lon="5.47108">
        <ele>1233</ele>
        <time>2016-09-11T10:15:17Z</time>
      </trkpt>
      <trkpt lat="45.00801" lon="5.47106">
        <ele>1233</ele>
        <time>2016-09-11T10:15:20Z</time>
      </trkpt>
      <trkpt lat="45.00806" lon="5.47104">
        <ele>1233</ele>
        <time>2016-09-11T10:15:24Z</time>
      </trkpt>
      <trkpt lat="45.00812" lon="5.47103">
        <ele>1233</ele>
        <time>2016-09-11T10:15:28Z</time>
      </trkpt>
      <trkpt lat="45.00817" lon="5.471">
        <ele>1232</ele>
        <time>2016-09-11T10:15:32Z</time>
      </trkpt>
      <trkpt lat="45.00822" lon="5.47099">
        <ele>1232</ele>
        <time>2016-09-11T10:15:35Z</time>
      </trkpt>
      <trkpt lat="45.00827" lon="5.47099">
        <ele>1232</ele>
        <time>2016-09-11T10:15:38Z</time>
      </trkpt>
      <trkpt lat="45.00833" lon="5.471">
        <ele>1233</ele>
        <time>2016-09-11T10:15:40Z</time>
      </trkpt>
      <trkpt lat="45.00837" lon="5.47103">
        <ele>1234</ele>
        <time>2016-09-11T10:15:42Z</time>
      </trkpt>
      <trkpt lat="45.00843" lon="5.47107">
        <ele>1234</ele>
        <time>2016-09-11T10:15:45Z</time>
      </trkpt>
      <trkpt lat="45.00847" lon="5.47111">
        <ele>1235</ele>
        <time>2016-09-11T10:15:48Z</time>
      </trkpt>
      <trkpt lat="45.00851" lon="5.47115">
        <ele>1235</ele>
        <time>2016-09-11T10:15:51Z</time>
      </trkpt>
      <trkpt lat="45.00856" lon="5.4712">
        <ele>1236</ele>
        <time>2016-09-11T10:15:55Z</time>
      </trkpt>
      <trkpt lat="45.0086" lon="5.47125">
        <ele>1238</ele>
        <time>2016-09-11T10:15:59Z</time>
      </trkpt>
      <trkpt lat="45.00865" lon="5.47126">
        <ele>1241</ele>
        <time>2016-09-11T10:16:02Z</time>
      </trkpt>
      <trkpt lat="45.0087" lon="5.47126">
        <ele>1244</ele>
        <time>2016-09-11T10:16:05Z</time>
      </trkpt>
      <trkpt lat="45.00875" lon="5.47129">
        <ele>1249</ele>
        <time>2016-09-11T10:16:09Z</time>
      </trkpt>
      <trkpt lat="45.0088" lon="5.47127">
        <ele>1252</ele>
        <time>2016-09-11T10:16:17Z</time>
      </trkpt>
      <trkpt lat="45.00885" lon="5.47124">
        <ele>1254</ele>
        <time>2016-09-11T10:16:20Z</time>
      </trkpt>
      <trkpt lat="45.00888" lon="5.47121">
        <ele>1256</ele>
        <time>2016-09-11T10:16:23Z</time>
      </trkpt>
      <trkpt lat="45.00893" lon="5.47116">
        <ele>1256</ele>
        <time>2016-09-11T10:16:27Z</time>
      </trkpt>
      <trkpt lat="45.00897" lon="5.47112">
        <ele>1256</ele>
        <time>2016-09-11T10:16:30Z</time>
      </trkpt>
      <trkpt lat="45.00901" lon="5.47107">
        <ele>1256</ele>
        <time>2016-09-11T10:16:33Z</time>
      </trkpt>
      <trkpt lat="45.00906" lon="5.47102">
        <ele>1256</ele>
        <time>2016-09-11T10:16:36Z</time>
      </trkpt>
      <trkpt lat="45.0091" lon="5.47098">
        <ele>1256</ele>
        <time>2016-09-11T10:16:39Z</time>
      </trkpt>
      <trkpt lat="45.00914" lon="5.47093">
        <ele>1256</ele>
        <time>2016-09-11T10:16:42Z</time>
      </trkpt>
      <trkpt lat="45.00919" lon="5.47089">
        <ele>1255</ele>
        <time>2016-09-11T10:16:45Z</time>
      </trkpt>
      <trkpt lat="45.00922" lon="5.47084">
        <ele>1255</ele>
        <time>2016-09-11T10:16:48Z</time>
      </trkpt>
      <trkpt lat="45.00925" lon="5.4708">
        <ele>1254</ele>
        <time>2016-09-11T10:16:51Z</time>
      </trkpt>
      <trkpt lat="45.00929" lon="5.47075">
        <ele>1254</ele>
        <time>2016-09-11T10:16:54Z</time>
      </trkpt>
      <trkpt lat="45.00932" lon="5.4707">
        <ele>1254</ele>
        <time>2016-09-11T10:16:57Z</time>
      </trkpt>
      <trkpt lat="45.00935" lon="5.47066">
        <ele>1253</ele>
        <time>2016-09-11T10:17:00Z</time>
      </trkpt>
      <trkpt lat="45.0094" lon="5.47061">
        <ele>1251</ele>
        <time>2016-09-11T10:17:04Z</time>
      </trkpt>
      <trkpt lat="45.00943" lon="5.47057">
        <ele>1250</ele>
        <time>2016-09-11T10:17:08Z</time>
      </trkpt>
      <trkpt lat="45.00948" lon="5.47055">
        <ele>1249</ele>
        <time>2016-09-11T10:17:12Z</time>
      </trkpt>
      <trkpt lat="45.00953" lon="5.47052">
        <ele>1248</ele>
        <time>2016-09-11T10:17:16Z</time>
      </trkpt>
      <trkpt lat="45.00958" lon="5.4705">
        <ele>1247</ele>
        <time>2016-09-11T10:17:20Z</time>
      </trkpt>
      <trkpt lat="45.00962" lon="5.47048">
        <ele>1247</ele>
        <time>2016-09-11T10:17:24Z</time>
      </trkpt>
      <trkpt lat="45.00967" lon="5.47046">
        <ele>1246</ele>
        <time>2016-09-11T10:17:28Z</time>
      </trkpt>
      <trkpt lat="45.00972" lon="5.47043">
        <ele>1246</ele>
        <time>2016-09-11T10:17:32Z</time>
      </trkpt>
      <trkpt lat="45.00976" lon="5.4704">
        <ele>1245</ele>
        <time>2016-09-11T10:17:36Z</time>
      </trkpt>
      <trkpt lat="45.0098" lon="5.47037">
        <ele>1243</ele>
        <time>2016-09-11T10:17:40Z</time>
      </trkpt>
      <trkpt lat="45.00985" lon="5.47034">
        <ele>1242</ele>
        <time>2016-09-11T10:17:44Z</time>
      </trkpt>
      <trkpt lat="45.00989" lon="5.4703">
        <ele>1241</ele>
        <time>2016-09-11T10:17:48Z</time>
      </trkpt>
      <trkpt lat="45.00994" lon="5.47026">
        <ele>1239</ele>
        <time>2016-09-11T10:17:52Z</time>
      </trkpt>
      <trkpt lat="45.00998" lon="5.47023">
        <ele>1239</ele>
        <time>2016-09-11T10:17:55Z</time>
      </trkpt>
      <trkpt lat="45.01003" lon="5.4702">
        <ele>1239</ele>
        <time>2016-09-11T10:17:58Z</time>
      </trkpt>
      <trkpt lat="45.01008" lon="5.47018">
        <ele>1240</ele>
        <time>2016-09-11T10:18:01Z</time>
      </trkpt>
      <trkpt lat="45.01013" lon="5.47015">
        <ele>1242</ele>
        <time>2016-09-11T10:18:04Z</time>
      </trkpt>
      <trkpt lat="45.01017" lon="5.47011">
        <ele>1245</ele>
        <time>2016-09-11T10:18:07Z</time>
      </trkpt>
      <trkpt lat="45.01022" lon="5.47009">
        <ele>1248</ele>
        <time>2016-09-11T10:18:10Z</time>
      </trkpt>
      <trkpt lat="45.01026" lon="5.47006">
        <ele>1250</ele>
        <time>2016-09-11T10:18:13Z</time>
      </trkpt>
      <trkpt lat="45.0103" lon="5.47003">
        <ele>1252</ele>
        <time>2016-09-11T10:18:16Z</time>
      </trkpt>
      <trkpt lat="45.01035" lon="5.47001">
        <ele>1253</ele>
        <time>2016-09-11T10:18:19Z</time>
      </trkpt>
      <trkpt lat="45.01038" lon="5.46997">
        <ele>1253</ele>
        <time>2016-09-11T10:18:22Z</time>
      </trkpt>
      <trkpt lat="45.01043" lon="5.46995">
        <ele>1253</ele>
        <time>2016-09-11T10:18:25Z</time>
      </trkpt>
      <trkpt lat="45.01047" lon="5.46994">
        <ele>1253</ele>
        <time>2016-09-11T10:18:28Z</time>
      </trkpt>
      <trkpt lat="45.01053" lon="5.46993">
        <ele>1253</ele>
        <time>2016-09-11T10:18:31Z</time>
      </trkpt>
      <trkpt lat="45.01057" lon="5.46993">
        <ele>1254</ele>
        <time>2016-09-11T10:18:34Z</time>
      </trkpt>
      <trkpt lat="45.01062" lon="5.46991">
        <ele>1255</ele>
        <time>2016-09-11T10:18:37Z</time>
      </trkpt>
      <trkpt lat="45.01067" lon="5.4699">
        <ele>1257</ele>
        <time>2016-09-11T10:18:40Z</time>
      </trkpt>
      <trkpt lat="45.01073" lon="5.46989">
        <ele>1258</ele>
        <time>2016-09-11T10:18:43Z</time>
      </trkpt>
      <trkpt lat="45.01078" lon="5.46989">
        <ele>1259</ele>
        <time>2016-09-11T10:18:46Z</time>
      </trkpt>
      <trkpt lat="45.01083" lon="5.46989">
        <ele>1261</ele>
        <time>2016-09-11T10:18:49Z</time>
      </trkpt>
      <trkpt lat="45.01087" lon="5.4699">
        <ele>1262</ele>
        <time>2016-09-11T10:18:52Z</time>
      </trkpt>
      <trkpt lat="45.01092" lon="5.46988">
        <ele>1263</ele>
        <time>2016-09-11T10:18:55Z</time>
      </trkpt>
      <trkpt lat="45.01097" lon="5.46987">
        <ele>1264</ele>
        <time>2016-09-11T10:18:58Z</time>
      </trkpt>
      <trkpt lat="45.01102" lon="5.46988">
        <ele>1265</ele>
        <time>2016-09-11T10:19:02Z</time>
      </trkpt>
      <trkpt lat="45.01099" lon="5.46991">
        <ele>1266</ele>
        <time>2016-09-11T10:19:29Z</time>
      </trkpt>
      <trkpt lat="45.01099" lon="5.46991">
        <ele>1267</ele>
        <time>2016-09-11T10:19:32Z</time>
      </trkpt>
      <trkpt lat="45.01099" lon="5.46991">
        <ele>1267</ele>
        <time>2016-09-11T10:19:59Z</time>
      </trkpt>
      <trkpt lat="45.01099" lon="5.46991">
        <ele>1267</ele>
        <time>2016-09-11T10:20:02Z</time>
      </trkpt>
      <trkpt lat="45.01094" lon="5.46988">
        <ele>1265</ele>
        <time>2016-09-11T10:20:13Z</time>
      </trkpt>
      <trkpt lat="45.01093" lon="5.46987">
        <ele>1264</ele>
        <time>2016-09-11T10:20:29Z</time>
      </trkpt>
      <trkpt lat="45.01093" lon="5.46987">
        <ele>1263</ele>
        <time>2016-09-11T10:20:32Z</time>
      </trkpt>
      <trkpt lat="45.01094" lon="5.46988">
        <ele>1261</ele>
        <time>2016-09-11T10:20:59Z</time>
      </trkpt>
      <trkpt lat="45.01094" lon="5.46988">
        <ele>1259</ele>
        <time>2016-09-11T10:21:02Z</time>
      </trkpt>
      <trkpt lat="45.01094" lon="5.46988">
        <ele>1259</ele>
        <time>2016-09-11T10:21:29Z</time>
      </trkpt>
      <trkpt lat="45.01094" lon="5.46988">
        <ele>1259</ele>
        <time>2016-09-11T10:21:32Z</time>
      </trkpt>
      <trkpt lat="45.01094" lon="5.46988">
        <ele>1259</ele>
        <time>2016-09-11T10:21:59Z</time>
      </trkpt>
      <trkpt lat="45.01094" lon="5.46988">
        <ele>1259</ele>
        <time>2016-09-11T10:22:02Z</time>
      </trkpt>
      <trkpt lat="45.01099" lon="5.4699">
        <ele>1258</ele>
        <time>2016-09-11T10:22:29Z</time>
      </trkpt>
      <trkpt lat="45.01103" lon="5.46986">
        <ele>1258</ele>
        <time>2016-09-11T10:22:40Z</time>
      </trkpt>
      <trkpt lat="45.01109" lon="5.46985">
        <ele>1260</ele>
        <time>2016-09-11T10:22:43Z</time>
      </trkpt>
      <trkpt lat="45.01116" lon="5.46985">
        <ele>1261</ele>
        <time>2016-09-11T10:22:46Z</time>
      </trkpt>
      <trkpt lat="45.01122" lon="5.46985">
        <ele>1263</ele>
        <time>2016-09-11T10:22:49Z</time>
      </trkpt>
      <trkpt lat="45.01127" lon="5.46984">
        <ele>1265</ele>
        <time>2016-09-11T10:22:52Z</time>
      </trkpt>
      <trkpt lat="45.01132" lon="5.46983">
        <ele>1267</ele>
        <time>2016-09-11T10:22:55Z</time>
      </trkpt>
      <trkpt lat="45.01137" lon="5.46983">
        <ele>1268</ele>
        <time>2016-09-11T10:22:58Z</time>
      </trkpt>
      <trkpt lat="45.01142" lon="5.46983">
        <ele>1270</ele>
        <time>2016-09-11T10:23:01Z</time>
      </trkpt>
      <trkpt lat="45.01148" lon="5.46983">
        <ele>1271</ele>
        <time>2016-09-11T10:23:04Z</time>
      </trkpt>
      <trkpt lat="45.01154" lon="5.46986">
        <ele>1272</ele>
        <time>2016-09-11T10:23:07Z</time>
      </trkpt>
      <trkpt lat="45.01159" lon="5.46987">
        <ele>1274</ele>
        <time>2016-09-11T10:23:09Z</time>
      </trkpt>
      <trkpt lat="45.01165" lon="5.4699">
        <ele>1275</ele>
        <time>2016-09-11T10:23:12Z</time>
      </trkpt>
      <trkpt lat="45.01171" lon="5.46992">
        <ele>1275</ele>
        <time>2016-09-11T10:23:15Z</time>
      </trkpt>
      <trkpt lat="45.01177" lon="5.46994">
        <ele>1276</ele>
        <time>2016-09-11T10:23:18Z</time>
      </trkpt>
      <trkpt lat="45.01182" lon="5.46994">
        <ele>1277</ele>
        <time>2016-09-11T10:23:21Z</time>
      </trkpt>
      <trkpt lat="45.01187" lon="5.46995">
        <ele>1277</ele>
        <time>2016-09-11T10:23:24Z</time>
      </trkpt>
      <trkpt lat="45.01191" lon="5.46995">
        <ele>1278</ele>
        <time>2016-09-11T10:23:27Z</time>
      </trkpt>
      <trkpt lat="45.01196" lon="5.46996">
        <ele>1278</ele>
        <time>2016-09-11T10:23:30Z</time>
      </trkpt>
      <trkpt lat="45.01202" lon="5.46997">
        <ele>1279</ele>
        <time>2016-09-11T10:23:34Z</time>
      </trkpt>
      <trkpt lat="45.01206" lon="5.46998">
        <ele>1279</ele>
        <time>2016-09-11T10:23:37Z</time>
      </trkpt>
      <trkpt lat="45.01211" lon="5.46999">
        <ele>1279</ele>
        <time>2016-09-11T10:23:40Z</time>
      </trkpt>
      <trkpt lat="45.01217" lon="5.47">
        <ele>1279</ele>
        <time>2016-09-11T10:23:44Z</time>
      </trkpt>
      <trkpt lat="45.01222" lon="5.47001">
        <ele>1279</ele>
        <time>2016-09-11T10:23:48Z</time>
      </trkpt>
      <trkpt lat="45.01228" lon="5.47001">
        <ele>1278</ele>
        <time>2016-09-11T10:23:52Z</time>
      </trkpt>
      <trkpt lat="45.01233" lon="5.47002">
        <ele>1278</ele>
        <time>2016-09-11T10:23:55Z</time>
      </trkpt>
      <trkpt lat="45.01239" lon="5.47002">
        <ele>1278</ele>
        <time>2016-09-11T10:23:58Z</time>
      </trkpt>
      <trkpt lat="45.01244" lon="5.47002">
        <ele>1277</ele>
        <time>2016-09-11T10:24:01Z</time>
      </trkpt>
      <trkpt lat="45.01249" lon="5.47003">
        <ele>1277</ele>
        <time>2016-09-11T10:24:04Z</time>
      </trkpt>
      <trkpt lat="45.01254" lon="5.47004">
        <ele>1277</ele>
        <time>2016-09-11T10:24:07Z</time>
      </trkpt>
      <trkpt lat="45.01259" lon="5.47003">
        <ele>1278</ele>
        <time>2016-09-11T10:24:10Z</time>
      </trkpt>
      <trkpt lat="45.01265" lon="5.47002">
        <ele>1279</ele>
        <time>2016-09-11T10:24:13Z</time>
      </trkpt>
      <trkpt lat="45.01272" lon="5.47004">
        <ele>1279</ele>
        <time>2016-09-11T10:24:16Z</time>
      </trkpt>
      <trkpt lat="45.01276" lon="5.47006">
        <ele>1279</ele>
        <time>2016-09-11T10:24:18Z</time>
      </trkpt>
      <trkpt lat="45.01281" lon="5.4701">
        <ele>1279</ele>
        <time>2016-09-11T10:24:20Z</time>
      </trkpt>
      <trkpt lat="45.01285" lon="5.47013">
        <ele>1280</ele>
        <time>2016-09-11T10:24:22Z</time>
      </trkpt>
      <trkpt lat="45.0129" lon="5.47017">
        <ele>1280</ele>
        <time>2016-09-11T10:24:24Z</time>
      </trkpt>
      <trkpt lat="45.01304" lon="5.47027">
        <ele>1282</ele>
        <time>2016-09-11T10:24:32Z</time>
      </trkpt>
      <trkpt lat="45.0131" lon="5.47029">
        <ele>1284</ele>
        <time>2016-09-11T10:24:34Z</time>
      </trkpt>
      <trkpt lat="45.01314" lon="5.47031">
        <ele>1286</ele>
        <time>2016-09-11T10:24:36Z</time>
      </trkpt>
      <trkpt lat="45.01319" lon="5.47032">
        <ele>1288</ele>
        <time>2016-09-11T10:24:38Z</time>
      </trkpt>
      <trkpt lat="45.01325" lon="5.47035">
        <ele>1290</ele>
        <time>2016-09-11T10:24:41Z</time>
      </trkpt>
      <trkpt lat="45.0133" lon="5.47039">
        <ele>1291</ele>
        <time>2016-09-11T10:24:44Z</time>
      </trkpt>
      <trkpt lat="45.01335" lon="5.47044">
        <ele>1291</ele>
        <time>2016-09-11T10:24:47Z</time>
      </trkpt>
      <trkpt lat="45.01338" lon="5.4705">
        <ele>1291</ele>
        <time>2016-09-11T10:24:50Z</time>
      </trkpt>
      <trkpt lat="45.01341" lon="5.47056">
        <ele>1292</ele>
        <time>2016-09-11T10:24:53Z</time>
      </trkpt>
      <trkpt lat="45.01342" lon="5.47063">
        <ele>1292</ele>
        <time>2016-09-11T10:24:56Z</time>
      </trkpt>
      <trkpt lat="45.01341" lon="5.47069">
        <ele>1292</ele>
        <time>2016-09-11T10:24:59Z</time>
      </trkpt>
      <trkpt lat="45.01341" lon="5.47076">
        <ele>1292</ele>
        <time>2016-09-11T10:25:02Z</time>
      </trkpt>
      <trkpt lat="45.01341" lon="5.47083">
        <ele>1291</ele>
        <time>2016-09-11T10:25:05Z</time>
      </trkpt>
      <trkpt lat="45.01342" lon="5.4709">
        <ele>1290</ele>
        <time>2016-09-11T10:25:08Z</time>
      </trkpt>
      <trkpt lat="45.01344" lon="5.47097">
        <ele>1288</ele>
        <time>2016-09-11T10:25:11Z</time>
      </trkpt>
      <trkpt lat="45.01345" lon="5.47103">
        <ele>1287</ele>
        <time>2016-09-11T10:25:14Z</time>
      </trkpt>
      <trkpt lat="45.01346" lon="5.4711">
        <ele>1286</ele>
        <time>2016-09-11T10:25:17Z</time>
      </trkpt>
      <trkpt lat="45.01346" lon="5.47117">
        <ele>1285</ele>
        <time>2016-09-11T10:25:20Z</time>
      </trkpt>
      <trkpt lat="45.01347" lon="5.47124">
        <ele>1284</ele>
        <time>2016-09-11T10:25:23Z</time>
      </trkpt>
      <trkpt lat="45.01349" lon="5.47131">
        <ele>1283</ele>
        <time>2016-09-11T10:25:26Z</time>
      </trkpt>
      <trkpt lat="45.0135" lon="5.47138">
        <ele>1283</ele>
        <time>2016-09-11T10:25:29Z</time>
      </trkpt>
      <trkpt lat="45.01352" lon="5.47145">
        <ele>1283</ele>
        <time>2016-09-11T10:25:32Z</time>
      </trkpt>
      <trkpt lat="45.01355" lon="5.47152">
        <ele>1283</ele>
        <time>2016-09-11T10:25:35Z</time>
      </trkpt>
      <trkpt lat="45.01357" lon="5.47158">
        <ele>1283</ele>
        <time>2016-09-11T10:25:38Z</time>
      </trkpt>
      <trkpt lat="45.0136" lon="5.47165">
        <ele>1284</ele>
        <time>2016-09-11T10:25:41Z</time>
      </trkpt>
      <trkpt lat="45.01363" lon="5.47171">
        <ele>1284</ele>
        <time>2016-09-11T10:25:44Z</time>
      </trkpt>
      <trkpt lat="45.01366" lon="5.47177">
        <ele>1285</ele>
        <time>2016-09-11T10:25:47Z</time>
      </trkpt>
      <trkpt lat="45.01369" lon="5.47184">
        <ele>1286</ele>
        <time>2016-09-11T10:25:50Z</time>
      </trkpt>
      <trkpt lat="45.01372" lon="5.4719">
        <ele>1286</ele>
        <time>2016-09-11T10:25:53Z</time>
      </trkpt>
      <trkpt lat="45.01376" lon="5.47195">
        <ele>1287</ele>
        <time>2016-09-11T10:25:56Z</time>
      </trkpt>
      <trkpt lat="45.0138" lon="5.472">
        <ele>1287</ele>
        <time>2016-09-11T10:25:59Z</time>
      </trkpt>
      <trkpt lat="45.01384" lon="5.47205">
        <ele>1288</ele>
        <time>2016-09-11T10:26:02Z</time>
      </trkpt>
      <trkpt lat="45.01387" lon="5.4721">
        <ele>1288</ele>
        <time>2016-09-11T10:26:05Z</time>
      </trkpt>
      <trkpt lat="45.01391" lon="5.47215">
        <ele>1288</ele>
        <time>2016-09-11T10:26:08Z</time>
      </trkpt>
      <trkpt lat="45.01394" lon="5.4722">
        <ele>1289</ele>
        <time>2016-09-11T10:26:11Z</time>
      </trkpt>
      <trkpt lat="45.01398" lon="5.47225">
        <ele>1289</ele>
        <time>2016-09-11T10:26:14Z</time>
      </trkpt>
      <trkpt lat="45.01401" lon="5.4723">
        <ele>1290</ele>
        <time>2016-09-11T10:26:17Z</time>
      </trkpt>
      <trkpt lat="45.01404" lon="5.47236">
        <ele>1290</ele>
        <time>2016-09-11T10:26:20Z</time>
      </trkpt>
      <trkpt lat="45.01407" lon="5.47241">
        <ele>1290</ele>
        <time>2016-09-11T10:26:23Z</time>
      </trkpt>
      <trkpt lat="45.01411" lon="5.47246">
        <ele>1291</ele>
        <time>2016-09-11T10:26:26Z</time>
      </trkpt>
      <trkpt lat="45.01414" lon="5.47251">
        <ele>1291</ele>
        <time>2016-09-11T10:26:29Z</time>
      </trkpt>
      <trkpt lat="45.01418" lon="5.47257">
        <ele>1292</ele>
        <time>2016-09-11T10:26:33Z</time>
      </trkpt>
      <trkpt lat="45.01422" lon="5.47263">
        <ele>1292</ele>
        <time>2016-09-11T10:26:37Z</time>
      </trkpt>
      <trkpt lat="45.01426" lon="5.47267">
        <ele>1293</ele>
        <time>2016-09-11T10:26:40Z</time>
      </trkpt>
      <trkpt lat="45.0143" lon="5.47272">
        <ele>1293</ele>
        <time>2016-09-11T10:26:43Z</time>
      </trkpt>
      <trkpt lat="45.01433" lon="5.47276">
        <ele>1294</ele>
        <time>2016-09-11T10:26:46Z</time>
      </trkpt>
      <trkpt lat="45.01437" lon="5.4728">
        <ele>1294</ele>
        <time>2016-09-11T10:26:49Z</time>
      </trkpt>
      <trkpt lat="45.0144" lon="5.47286">
        <ele>1294</ele>
        <time>2016-09-11T10:26:52Z</time>
      </trkpt>
      <trkpt lat="45.01444" lon="5.47291">
        <ele>1294</ele>
        <time>2016-09-11T10:26:55Z</time>
      </trkpt>
      <trkpt lat="45.01445" lon="5.47297">
        <ele>1295</ele>
        <time>2016-09-11T10:26:58Z</time>
      </trkpt>
      <trkpt lat="45.01446" lon="5.47305">
        <ele>1295</ele>
        <time>2016-09-11T10:27:02Z</time>
      </trkpt>
      <trkpt lat="45.01446" lon="5.47312">
        <ele>1295</ele>
        <time>2016-09-11T10:27:05Z</time>
      </trkpt>
      <trkpt lat="45.01446" lon="5.47319">
        <ele>1296</ele>
        <time>2016-09-11T10:27:08Z</time>
      </trkpt>
      <trkpt lat="45.01445" lon="5.47325">
        <ele>1297</ele>
        <time>2016-09-11T10:27:11Z</time>
      </trkpt>
      <trkpt lat="45.01445" lon="5.47333">
        <ele>1298</ele>
        <time>2016-09-11T10:27:14Z</time>
      </trkpt>
      <trkpt lat="45.01446" lon="5.4734">
        <ele>1299</ele>
        <time>2016-09-11T10:27:17Z</time>
      </trkpt>
      <trkpt lat="45.01447" lon="5.47348">
        <ele>1300</ele>
        <time>2016-09-11T10:27:20Z</time>
      </trkpt>
      <trkpt lat="45.0145" lon="5.47354">
        <ele>1300</ele>
        <time>2016-09-11T10:27:23Z</time>
      </trkpt>
      <trkpt lat="45.01455" lon="5.47357">
        <ele>1301</ele>
        <time>2016-09-11T10:27:26Z</time>
      </trkpt>
      <trkpt lat="45.0146" lon="5.47356">
        <ele>1302</ele>
        <time>2016-09-11T10:27:30Z</time>
      </trkpt>
      <trkpt lat="45.01466" lon="5.47355">
        <ele>1303</ele>
        <time>2016-09-11T10:27:33Z</time>
      </trkpt>
      <trkpt lat="45.01471" lon="5.47353">
        <ele>1304</ele>
        <time>2016-09-11T10:27:35Z</time>
      </trkpt>
      <trkpt lat="45.01476" lon="5.47351">
        <ele>1305</ele>
        <time>2016-09-11T10:27:37Z</time>
      </trkpt>
      <trkpt lat="45.01481" lon="5.47349">
        <ele>1306</ele>
        <time>2016-09-11T10:27:39Z</time>
      </trkpt>
      <trkpt lat="45.01485" lon="5.47347">
        <ele>1307</ele>
        <time>2016-09-11T10:27:41Z</time>
      </trkpt>
      <trkpt lat="45.0149" lon="5.47344">
        <ele>1307</ele>
        <time>2016-09-11T10:27:43Z</time>
      </trkpt>
      <trkpt lat="45.01495" lon="5.4734">
        <ele>1308</ele>
        <time>2016-09-11T10:27:45Z</time>
      </trkpt>
      <trkpt lat="45.01502" lon="5.47334">
        <ele>1309</ele>
        <time>2016-09-11T10:27:47Z</time>
      </trkpt>
      <trkpt lat="45.01505" lon="5.4733">
        <ele>1309</ele>
        <time>2016-09-11T10:27:48Z</time>
      </trkpt>
      <trkpt lat="45.0151" lon="5.47326">
        <ele>1309</ele>
        <time>2016-09-11T10:27:49Z</time>
      </trkpt>
      <trkpt lat="45.01514" lon="5.47323">
        <ele>1310</ele>
        <time>2016-09-11T10:27:50Z</time>
      </trkpt>
      <trkpt lat="45.01522" lon="5.4732">
        <ele>1310</ele>
        <time>2016-09-11T10:27:51Z</time>
      </trkpt>
      <trkpt lat="45.01526" lon="5.4732">
        <ele>1310</ele>
        <time>2016-09-11T10:27:52Z</time>
      </trkpt>
      <trkpt lat="45.01532" lon="5.47321">
        <ele>1309</ele>
        <time>2016-09-11T10:27:53Z</time>
      </trkpt>
      <trkpt lat="45.01537" lon="5.47323">
        <ele>1309</ele>
        <time>2016-09-11T10:27:54Z</time>
      </trkpt>
      <trkpt lat="45.01542" lon="5.47327">
        <ele>1309</ele>
        <time>2016-09-11T10:27:55Z</time>
      </trkpt>
      <trkpt lat="45.01547" lon="5.4733">
        <ele>1309</ele>
        <time>2016-09-11T10:27:56Z</time>
      </trkpt>
      <trkpt lat="45.01551" lon="5.47333">
        <ele>1309</ele>
        <time>2016-09-11T10:27:57Z</time>
      </trkpt>
      <trkpt lat="45.01555" lon="5.47337">
        <ele>1308</ele>
        <time>2016-09-11T10:27:58Z</time>
      </trkpt>
      <trkpt lat="45.01561" lon="5.47339">
        <ele>1308</ele>
        <time>2016-09-11T10:27:59Z</time>
      </trkpt>
      <trkpt lat="45.01566" lon="5.47341">
        <ele>1308</ele>
        <time>2016-09-11T10:28:00Z</time>
      </trkpt>
      <trkpt lat="45.01571" lon="5.47342">
        <ele>1308</ele>
        <time>2016-09-11T10:28:01Z</time>
      </trkpt>
      <trkpt lat="45.01577" lon="5.47343">
        <ele>1308</ele>
        <time>2016-09-11T10:28:02Z</time>
      </trkpt>
      <trkpt lat="45.01583" lon="5.47343">
        <ele>1308</ele>
        <time>2016-09-11T10:28:03Z</time>
      </trkpt>
      <trkpt lat="45.01588" lon="5.47343">
        <ele>1308</ele>
        <time>2016-09-11T10:28:04Z</time>
      </trkpt>
      <trkpt lat="45.01595" lon="5.47343">
        <ele>1309</ele>
        <time>2016-09-11T10:28:05Z</time>
      </trkpt>
      <trkpt lat="45.01601" lon="5.47342">
        <ele>1308</ele>
        <time>2016-09-11T10:28:06Z</time>
      </trkpt>
      <trkpt lat="45.01608" lon="5.47339">
        <ele>1308</ele>
        <time>2016-09-11T10:28:07Z</time>
      </trkpt>
      <trkpt lat="45.01613" lon="5.47337">
        <ele>1308</ele>
        <time>2016-09-11T10:28:08Z</time>
      </trkpt>
      <trkpt lat="45.0162" lon="5.47333">
        <ele>1307</ele>
        <time>2016-09-11T10:28:09Z</time>
      </trkpt>
      <trkpt lat="45.01625" lon="5.47329">
        <ele>1307</ele>
        <time>2016-09-11T10:28:10Z</time>
      </trkpt>
      <trkpt lat="45.01632" lon="5.47324">
        <ele>1306</ele>
        <time>2016-09-11T10:28:11Z</time>
      </trkpt>
      <trkpt lat="45.01637" lon="5.47317">
        <ele>1305</ele>
        <time>2016-09-11T10:28:12Z</time>
      </trkpt>
      <trkpt lat="45.01642" lon="5.47312">
        <ele>1304</ele>
        <time>2016-09-11T10:28:13Z</time>
      </trkpt>
      <trkpt lat="45.01646" lon="5.47306">
        <ele>1303</ele>
        <time>2016-09-11T10:28:14Z</time>
      </trkpt>
      <trkpt lat="45.01652" lon="5.47301">
        <ele>1303</ele>
        <time>2016-09-11T10:28:15Z</time>
      </trkpt>
      <trkpt lat="45.01657" lon="5.47296">
        <ele>1302</ele>
        <time>2016-09-11T10:28:16Z</time>
      </trkpt>
      <trkpt lat="45.01662" lon="5.47291">
        <ele>1303</ele>
        <time>2016-09-11T10:28:17Z</time>
      </trkpt>
      <trkpt lat="45.01667" lon="5.47289">
        <ele>1303</ele>
        <time>2016-09-11T10:28:18Z</time>
      </trkpt>
      <trkpt lat="45.01673" lon="5.47285">
        <ele>1304</ele>
        <time>2016-09-11T10:28:19Z</time>
      </trkpt>
      <trkpt lat="45.01678" lon="5.47279">
        <ele>1304</ele>
        <time>2016-09-11T10:28:20Z</time>
      </trkpt>
      <trkpt lat="45.01682" lon="5.47274">
        <ele>1305</ele>
        <time>2016-09-11T10:28:21Z</time>
      </trkpt>
      <trkpt lat="45.01685" lon="5.47268">
        <ele>1305</ele>
        <time>2016-09-11T10:28:22Z</time>
      </trkpt>
      <trkpt lat="45.01688" lon="5.47261">
        <ele>1306</ele>
        <time>2016-09-11T10:28:23Z</time>
      </trkpt>
      <trkpt lat="45.01691" lon="5.47254">
        <ele>1305</ele>
        <time>2016-09-11T10:28:24Z</time>
      </trkpt>
      <trkpt lat="45.01694" lon="5.47247">
        <ele>1306</ele>
        <time>2016-09-11T10:28:25Z</time>
      </trkpt>
      <trkpt lat="45.01699" lon="5.47241">
        <ele>1306</ele>
        <time>2016-09-11T10:28:26Z</time>
      </trkpt>
      <trkpt lat="45.01704" lon="5.47235">
        <ele>1307</ele>
        <time>2016-09-11T10:28:27Z</time>
      </trkpt>
      <trkpt lat="45.0171" lon="5.47232">
        <ele>1308</ele>
        <time>2016-09-11T10:28:28Z</time>
      </trkpt>
      <trkpt lat="45.01715" lon="5.47229">
        <ele>1309</ele>
        <time>2016-09-11T10:28:29Z</time>
      </trkpt>
      <trkpt lat="45.01721" lon="5.47228">
        <ele>1309</ele>
        <time>2016-09-11T10:28:30Z</time>
      </trkpt>
      <trkpt lat="45.01728" lon="5.47228">
        <ele>1309</ele>
        <time>2016-09-11T10:28:31Z</time>
      </trkpt>
      <trkpt lat="45.01734" lon="5.47228">
        <ele>1310</ele>
        <time>2016-09-11T10:28:32Z</time>
      </trkpt>
      <trkpt lat="45.0174" lon="5.4723">
        <ele>1310</ele>
        <time>2016-09-11T10:28:33Z</time>
      </trkpt>
      <trkpt lat="45.01746" lon="5.47232">
        <ele>1310</ele>
        <time>2016-09-11T10:28:34Z</time>
      </trkpt>
      <trkpt lat="45.01753" lon="5.47233">
        <ele>1310</ele>
        <time>2016-09-11T10:28:35Z</time>
      </trkpt>
      <trkpt lat="45.01758" lon="5.47235">
        <ele>1310</ele>
        <time>2016-09-11T10:28:36Z</time>
      </trkpt>
      <trkpt lat="45.01764" lon="5.47237">
        <ele>1311</ele>
        <time>2016-09-11T10:28:37Z</time>
      </trkpt>
      <trkpt lat="45.01771" lon="5.47239">
        <ele>1311</ele>
        <time>2016-09-11T10:28:38Z</time>
      </trkpt>
      <trkpt lat="45.01778" lon="5.47239">
        <ele>1311</ele>
        <time>2016-09-11T10:28:39Z</time>
      </trkpt>
      <trkpt lat="45.01784" lon="5.47239">
        <ele>1312</ele>
        <time>2016-09-11T10:28:40Z</time>
      </trkpt>
      <trkpt lat="45.0179" lon="5.47241">
        <ele>1313</ele>
        <time>2016-09-11T10:28:41Z</time>
      </trkpt>
      <trkpt lat="45.01796" lon="5.47242">
        <ele>1314</ele>
        <time>2016-09-11T10:28:42Z</time>
      </trkpt>
      <trkpt lat="45.01802" lon="5.47243">
        <ele>1314</ele>
        <time>2016-09-11T10:28:43Z</time>
      </trkpt>
      <trkpt lat="45.01809" lon="5.47244">
        <ele>1314</ele>
        <time>2016-09-11T10:28:44Z</time>
      </trkpt>
      <trkpt lat="45.01817" lon="5.47246">
        <ele>1314</ele>
        <time>2016-09-11T10:28:45Z</time>
      </trkpt>
      <trkpt lat="45.01822" lon="5.4725">
        <ele>1314</ele>
        <time>2016-09-11T10:28:46Z</time>
      </trkpt>
      <trkpt lat="45.0183" lon="5.47253">
        <ele>1313</ele>
        <time>2016-09-11T10:28:47Z</time>
      </trkpt>
      <trkpt lat="45.01836" lon="5.47257">
        <ele>1313</ele>
        <time>2016-09-11T10:28:48Z</time>
      </trkpt>
      <trkpt lat="45.01844" lon="5.4726">
        <ele>1313</ele>
        <time>2016-09-11T10:28:49Z</time>
      </trkpt>
      <trkpt lat="45.01851" lon="5.47265">
        <ele>1313</ele>
        <time>2016-09-11T10:28:50Z</time>
      </trkpt>
      <trkpt lat="45.01859" lon="5.4727">
        <ele>1313</ele>
        <time>2016-09-11T10:28:51Z</time>
      </trkpt>
      <trkpt lat="45.01867" lon="5.47276">
        <ele>1313</ele>
        <time>2016-09-11T10:28:52Z</time>
      </trkpt>
      <trkpt lat="45.01873" lon="5.47281">
        <ele>1312</ele>
        <time>2016-09-11T10:28:53Z</time>
      </trkpt>
      <trkpt lat="45.0188" lon="5.47287">
        <ele>1312</ele>
        <time>2016-09-11T10:28:54Z</time>
      </trkpt>
      <trkpt lat="45.01888" lon="5.47293">
        <ele>1311</ele>
        <time>2016-09-11T10:28:55Z</time>
      </trkpt>
      <trkpt lat="45.01896" lon="5.47298">
        <ele>1311</ele>
        <time>2016-09-11T10:28:56Z</time>
      </trkpt>
      <trkpt lat="45.01905" lon="5.47303">
        <ele>1310</ele>
        <time>2016-09-11T10:28:57Z</time>
      </trkpt>
      <trkpt lat="45.01913" lon="5.47307">
        <ele>1310</ele>
        <time>2016-09-11T10:28:58Z</time>
      </trkpt>
      <trkpt lat="45.01922" lon="5.4731">
        <ele>1309</ele>
        <time>2016-09-11T10:28:59Z</time>
      </trkpt>
      <trkpt lat="45.01931" lon="5.47313">
        <ele>1309</ele>
        <time>2016-09-11T10:29:00Z</time>
      </trkpt>
      <trkpt lat="45.01939" lon="5.47316">
        <ele>1309</ele>
        <time>2016-09-11T10:29:01Z</time>
      </trkpt>
      <trkpt lat="45.01948" lon="5.47319">
        <ele>1309</ele>
        <time>2016-09-11T10:29:02Z</time>
      </trkpt>
      <trkpt lat="45.01957" lon="5.47322">
        <ele>1309</ele>
        <time>2016-09-11T10:29:03Z</time>
      </trkpt>
      <trkpt lat="45.01973" lon="5.47331">
        <ele>1309</ele>
        <time>2016-09-11T10:29:05Z</time>
      </trkpt>
      <trkpt lat="45.01981" lon="5.47333">
        <ele>1308</ele>
        <time>2016-09-11T10:29:06Z</time>
      </trkpt>
      <trkpt lat="45.01988" lon="5.47334">
        <ele>1308</ele>
        <time>2016-09-11T10:29:07Z</time>
      </trkpt>
      <trkpt lat="45.01996" lon="5.47333">
        <ele>1308</ele>
        <time>2016-09-11T10:29:08Z</time>
      </trkpt>
      <trkpt lat="45.02005" lon="5.47329">
        <ele>1307</ele>
        <time>2016-09-11T10:29:09Z</time>
      </trkpt>
      <trkpt lat="45.02011" lon="5.47323">
        <ele>1307</ele>
        <time>2016-09-11T10:29:10Z</time>
      </trkpt>
      <trkpt lat="45.02016" lon="5.47317">
        <ele>1306</ele>
        <time>2016-09-11T10:29:11Z</time>
      </trkpt>
      <trkpt lat="45.02021" lon="5.4731">
        <ele>1305</ele>
        <time>2016-09-11T10:29:12Z</time>
      </trkpt>
      <trkpt lat="45.02028" lon="5.47303">
        <ele>1304</ele>
        <time>2016-09-11T10:29:13Z</time>
      </trkpt>
      <trkpt lat="45.02036" lon="5.47296">
        <ele>1303</ele>
        <time>2016-09-11T10:29:14Z</time>
      </trkpt>
      <trkpt lat="45.02042" lon="5.47288">
        <ele>1302</ele>
        <time>2016-09-11T10:29:15Z</time>
      </trkpt>
      <trkpt lat="45.02049" lon="5.47279">
        <ele>1301</ele>
        <time>2016-09-11T10:29:16Z</time>
      </trkpt>
      <trkpt lat="45.02054" lon="5.4727">
        <ele>1301</ele>
        <time>2016-09-11T10:29:17Z</time>
      </trkpt>
      <trkpt lat="45.0206" lon="5.4726">
        <ele>1300</ele>
        <time>2016-09-11T10:29:18Z</time>
      </trkpt>
      <trkpt lat="45.02067" lon="5.47252">
        <ele>1300</ele>
        <time>2016-09-11T10:29:19Z</time>
      </trkpt>
      <trkpt lat="45.02075" lon="5.47244">
        <ele>1300</ele>
        <time>2016-09-11T10:29:20Z</time>
      </trkpt>
      <trkpt lat="45.02083" lon="5.47239">
        <ele>1299</ele>
        <time>2016-09-11T10:29:21Z</time>
      </trkpt>
      <trkpt lat="45.02092" lon="5.47234">
        <ele>1298</ele>
        <time>2016-09-11T10:29:22Z</time>
      </trkpt>
      <trkpt lat="45.021" lon="5.47229">
        <ele>1297</ele>
        <time>2016-09-11T10:29:23Z</time>
      </trkpt>
      <trkpt lat="45.02108" lon="5.47224">
        <ele>1296</ele>
        <time>2016-09-11T10:29:24Z</time>
      </trkpt>
      <trkpt lat="45.02118" lon="5.47222">
        <ele>1296</ele>
        <time>2016-09-11T10:29:25Z</time>
      </trkpt>
      <trkpt lat="45.02127" lon="5.4722">
        <ele>1295</ele>
        <time>2016-09-11T10:29:26Z</time>
      </trkpt>
      <trkpt lat="45.02137" lon="5.47219">
        <ele>1294</ele>
        <time>2016-09-11T10:29:27Z</time>
      </trkpt>
      <trkpt lat="45.02147" lon="5.47217">
        <ele>1295</ele>
        <time>2016-09-11T10:29:28Z</time>
      </trkpt>
      <trkpt lat="45.02156" lon="5.47215">
        <ele>1295</ele>
        <time>2016-09-11T10:29:29Z</time>
      </trkpt>
      <trkpt lat="45.02165" lon="5.47213">
        <ele>1296</ele>
        <time>2016-09-11T10:29:30Z</time>
      </trkpt>
      <trkpt lat="45.02175" lon="5.47208">
        <ele>1297</ele>
        <time>2016-09-11T10:29:31Z</time>
      </trkpt>
      <trkpt lat="45.02184" lon="5.47207">
        <ele>1298</ele>
        <time>2016-09-11T10:29:32Z</time>
      </trkpt>
      <trkpt lat="45.02192" lon="5.47204">
        <ele>1298</ele>
        <time>2016-09-11T10:29:33Z</time>
      </trkpt>
      <trkpt lat="45.02201" lon="5.472">
        <ele>1300</ele>
        <time>2016-09-11T10:29:34Z</time>
      </trkpt>
      <trkpt lat="45.02209" lon="5.47195">
        <ele>1301</ele>
        <time>2016-09-11T10:29:35Z</time>
      </trkpt>
      <trkpt lat="45.02217" lon="5.47189">
        <ele>1302</ele>
        <time>2016-09-11T10:29:36Z</time>
      </trkpt>
      <trkpt lat="45.02224" lon="5.47184">
        <ele>1302</ele>
        <time>2016-09-11T10:29:37Z</time>
      </trkpt>
      <trkpt lat="45.02233" lon="5.47179">
        <ele>1302</ele>
        <time>2016-09-11T10:29:38Z</time>
      </trkpt>
      <trkpt lat="45.02242" lon="5.47174">
        <ele>1301</ele>
        <time>2016-09-11T10:29:39Z</time>
      </trkpt>
      <trkpt lat="45.0225" lon="5.47178">
        <ele>1300</ele>
        <time>2016-09-11T10:29:40Z</time>
      </trkpt>
      <trkpt lat="45.02262" lon="5.47176">
        <ele>1299</ele>
        <time>2016-09-11T10:29:41Z</time>
      </trkpt>
      <trkpt lat="45.0228" lon="5.47177">
        <ele>1298</ele>
        <time>2016-09-11T10:29:43Z</time>
      </trkpt>
      <trkpt lat="45.0229" lon="5.47179">
        <ele>1297</ele>
        <time>2016-09-11T10:29:44Z</time>
      </trkpt>
      <trkpt lat="45.02298" lon="5.47182">
        <ele>1296</ele>
        <time>2016-09-11T10:29:45Z</time>
      </trkpt>
      <trkpt lat="45.02305" lon="5.47185">
        <ele>1296</ele>
        <time>2016-09-11T10:29:46Z</time>
      </trkpt>
      <trkpt lat="45.02313" lon="5.47188">
        <ele>1296</ele>
        <time>2016-09-11T10:29:47Z</time>
      </trkpt>
      <trkpt lat="45.0232" lon="5.47189">
        <ele>1296</ele>
        <time>2016-09-11T10:29:48Z</time>
      </trkpt>
      <trkpt lat="45.02329" lon="5.4719">
        <ele>1295</ele>
        <time>2016-09-11T10:29:49Z</time>
      </trkpt>
      <trkpt lat="45.02336" lon="5.47189">
        <ele>1295</ele>
        <time>2016-09-11T10:29:50Z</time>
      </trkpt>
      <trkpt lat="45.02344" lon="5.47189">
        <ele>1295</ele>
        <time>2016-09-11T10:29:51Z</time>
      </trkpt>
      <trkpt lat="45.02352" lon="5.47189">
        <ele>1295</ele>
        <time>2016-09-11T10:29:52Z</time>
      </trkpt>
      <trkpt lat="45.02359" lon="5.4719">
        <ele>1295</ele>
        <time>2016-09-11T10:29:53Z</time>
      </trkpt>
      <trkpt lat="45.02366" lon="5.4719">
        <ele>1295</ele>
        <time>2016-09-11T10:29:54Z</time>
      </trkpt>
      <trkpt lat="45.02374" lon="5.47191">
        <ele>1296</ele>
        <time>2016-09-11T10:29:55Z</time>
      </trkpt>
      <trkpt lat="45.0238" lon="5.47192">
        <ele>1296</ele>
        <time>2016-09-11T10:29:56Z</time>
      </trkpt>
      <trkpt lat="45.02387" lon="5.47194">
        <ele>1297</ele>
        <time>2016-09-11T10:29:57Z</time>
      </trkpt>
      <trkpt lat="45.02393" lon="5.47197">
        <ele>1297</ele>
        <time>2016-09-11T10:29:58Z</time>
      </trkpt>
      <trkpt lat="45.024" lon="5.47199">
        <ele>1297</ele>
        <time>2016-09-11T10:29:59Z</time>
      </trkpt>
      <trkpt lat="45.02406" lon="5.47199">
        <ele>1297</ele>
        <time>2016-09-11T10:30:00Z</time>
      </trkpt>
      <trkpt lat="45.02411" lon="5.472">
        <ele>1297</ele>
        <time>2016-09-11T10:30:01Z</time>
      </trkpt>
      <trkpt lat="45.02418" lon="5.47201">
        <ele>1297</ele>
        <time>2016-09-11T10:30:02Z</time>
      </trkpt>
      <trkpt lat="45.02425" lon="5.472">
        <ele>1297</ele>
        <time>2016-09-11T10:30:03Z</time>
      </trkpt>
      <trkpt lat="45.02432" lon="5.47199">
        <ele>1297</ele>
        <time>2016-09-11T10:30:04Z</time>
      </trkpt>
      <trkpt lat="45.02438" lon="5.47198">
        <ele>1298</ele>
        <time>2016-09-11T10:30:05Z</time>
      </trkpt>
      <trkpt lat="45.02445" lon="5.47195">
        <ele>1298</ele>
        <time>2016-09-11T10:30:06Z</time>
      </trkpt>
      <trkpt lat="45.02451" lon="5.47194">
        <ele>1298</ele>
        <time>2016-09-11T10:30:07Z</time>
      </trkpt>
      <trkpt lat="45.02457" lon="5.47194">
        <ele>1298</ele>
        <time>2016-09-11T10:30:08Z</time>
      </trkpt>
      <trkpt lat="45.02463" lon="5.47195">
        <ele>1298</ele>
        <time>2016-09-11T10:30:09Z</time>
      </trkpt>
      <trkpt lat="45.02468" lon="5.47192">
        <ele>1297</ele>
        <time>2016-09-11T10:30:10Z</time>
      </trkpt>
      <trkpt lat="45.02474" lon="5.47193">
        <ele>1297</ele>
        <time>2016-09-11T10:30:11Z</time>
      </trkpt>
      <trkpt lat="45.0248" lon="5.47192">
        <ele>1297</ele>
        <time>2016-09-11T10:30:12Z</time>
      </trkpt>
      <trkpt lat="45.02486" lon="5.47192">
        <ele>1297</ele>
        <time>2016-09-11T10:30:13Z</time>
      </trkpt>
      <trkpt lat="45.02492" lon="5.47193">
        <ele>1297</ele>
        <time>2016-09-11T10:30:14Z</time>
      </trkpt>
      <trkpt lat="45.02498" lon="5.47194">
        <ele>1296</ele>
        <time>2016-09-11T10:30:15Z</time>
      </trkpt>
      <trkpt lat="45.02502" lon="5.47195">
        <ele>1296</ele>
        <time>2016-09-11T10:30:16Z</time>
      </trkpt>
      <trkpt lat="45.02508" lon="5.47196">
        <ele>1296</ele>
        <time>2016-09-11T10:30:17Z</time>
      </trkpt>
      <trkpt lat="45.02517" lon="5.47199">
        <ele>1297</ele>
        <time>2016-09-11T10:30:19Z</time>
      </trkpt>
      <trkpt lat="45.02523" lon="5.472">
        <ele>1297</ele>
        <time>2016-09-11T10:30:20Z</time>
      </trkpt>
      <trkpt lat="45.02529" lon="5.47201">
        <ele>1298</ele>
        <time>2016-09-11T10:30:21Z</time>
      </trkpt>
      <trkpt lat="45.02534" lon="5.47201">
        <ele>1298</ele>
        <time>2016-09-11T10:30:22Z</time>
      </trkpt>
      <trkpt lat="45.0254" lon="5.47203">
        <ele>1298</ele>
        <time>2016-09-11T10:30:23Z</time>
      </trkpt>
      <trkpt lat="45.02546" lon="5.47204">
        <ele>1298</ele>
        <time>2016-09-11T10:30:24Z</time>
      </trkpt>
      <trkpt lat="45.02551" lon="5.47205">
        <ele>1298</ele>
        <time>2016-09-11T10:30:25Z</time>
      </trkpt>
      <trkpt lat="45.02557" lon="5.47204">
        <ele>1298</ele>
        <time>2016-09-11T10:30:26Z</time>
      </trkpt>
      <trkpt lat="45.02562" lon="5.47206">
        <ele>1298</ele>
        <time>2016-09-11T10:30:27Z</time>
      </trkpt>
      <trkpt lat="45.02568" lon="5.47208">
        <ele>1297</ele>
        <time>2016-09-11T10:30:28Z</time>
      </trkpt>
      <trkpt lat="45.02573" lon="5.4721">
        <ele>1297</ele>
        <time>2016-09-11T10:30:29Z</time>
      </trkpt>
      <trkpt lat="45.02578" lon="5.4721">
        <ele>1297</ele>
        <time>2016-09-11T10:30:30Z</time>
      </trkpt>
      <trkpt lat="45.02583" lon="5.47212">
        <ele>1297</ele>
        <time>2016-09-11T10:30:31Z</time>
      </trkpt>
      <trkpt lat="45.02588" lon="5.47214">
        <ele>1297</ele>
        <time>2016-09-11T10:30:32Z</time>
      </trkpt>
      <trkpt lat="45.02593" lon="5.47216">
        <ele>1297</ele>
        <time>2016-09-11T10:30:33Z</time>
      </trkpt>
      <trkpt lat="45.026" lon="5.47219">
        <ele>1297</ele>
        <time>2016-09-11T10:30:34Z</time>
      </trkpt>
      <trkpt lat="45.02606" lon="5.47221">
        <ele>1298</ele>
        <time>2016-09-11T10:30:35Z</time>
      </trkpt>
      <trkpt lat="45.02612" lon="5.47222">
        <ele>1299</ele>
        <time>2016-09-11T10:30:36Z</time>
      </trkpt>
      <trkpt lat="45.02618" lon="5.47226">
        <ele>1300</ele>
        <time>2016-09-11T10:30:37Z</time>
      </trkpt>
      <trkpt lat="45.02623" lon="5.47229">
        <ele>1301</ele>
        <time>2016-09-11T10:30:38Z</time>
      </trkpt>
      <trkpt lat="45.02636" lon="5.47233">
        <ele>1300</ele>
        <time>2016-09-11T10:30:40Z</time>
      </trkpt>
      <trkpt lat="45.02641" lon="5.47236">
        <ele>1299</ele>
        <time>2016-09-11T10:30:41Z</time>
      </trkpt>
      <trkpt lat="45.02646" lon="5.47238">
        <ele>1299</ele>
        <time>2016-09-11T10:30:42Z</time>
      </trkpt>
      <trkpt lat="45.02651" lon="5.47243">
        <ele>1298</ele>
        <time>2016-09-11T10:30:43Z</time>
      </trkpt>
      <trkpt lat="45.02661" lon="5.47247">
        <ele>1299</ele>
        <time>2016-09-11T10:30:45Z</time>
      </trkpt>
      <trkpt lat="45.02666" lon="5.4725">
        <ele>1299</ele>
        <time>2016-09-11T10:30:46Z</time>
      </trkpt>
      <trkpt lat="45.02676" lon="5.47249">
        <ele>1300</ele>
        <time>2016-09-11T10:30:48Z</time>
      </trkpt>
      <trkpt lat="45.02682" lon="5.47253">
        <ele>1300</ele>
        <time>2016-09-11T10:30:49Z</time>
      </trkpt>
      <trkpt lat="45.02687" lon="5.47253">
        <ele>1300</ele>
        <time>2016-09-11T10:30:50Z</time>
      </trkpt>
      <trkpt lat="45.02691" lon="5.47253">
        <ele>1301</ele>
        <time>2016-09-11T10:30:51Z</time>
      </trkpt>
      <trkpt lat="45.02696" lon="5.47253">
        <ele>1301</ele>
        <time>2016-09-11T10:30:52Z</time>
      </trkpt>
      <trkpt lat="45.02701" lon="5.47252">
        <ele>1302</ele>
        <time>2016-09-11T10:30:54Z</time>
      </trkpt>
      <trkpt lat="45.02706" lon="5.47254">
        <ele>1302</ele>
        <time>2016-09-11T10:30:55Z</time>
      </trkpt>
      <trkpt lat="45.02712" lon="5.47253">
        <ele>1303</ele>
        <time>2016-09-11T10:30:57Z</time>
      </trkpt>
      <trkpt lat="45.02716" lon="5.47252">
        <ele>1305</ele>
        <time>2016-09-11T10:30:59Z</time>
      </trkpt>
      <trkpt lat="45.02722" lon="5.47254">
        <ele>1306</ele>
        <time>2016-09-11T10:31:01Z</time>
      </trkpt>
      <trkpt lat="45.02728" lon="5.47254">
        <ele>1308</ele>
        <time>2016-09-11T10:31:05Z</time>
      </trkpt>
      <trkpt lat="45.02734" lon="5.47255">
        <ele>1311</ele>
        <time>2016-09-11T10:31:08Z</time>
      </trkpt>
      <trkpt lat="45.02739" lon="5.47256">
        <ele>1313</ele>
        <time>2016-09-11T10:31:10Z</time>
      </trkpt>
      <trkpt lat="45.02743" lon="5.47257">
        <ele>1315</ele>
        <time>2016-09-11T10:31:12Z</time>
      </trkpt>
      <trkpt lat="45.0275" lon="5.47255">
        <ele>1317</ele>
        <time>2016-09-11T10:31:15Z</time>
      </trkpt>
      <trkpt lat="45.02755" lon="5.47255">
        <ele>1318</ele>
        <time>2016-09-11T10:31:17Z</time>
      </trkpt>
      <trkpt lat="45.02759" lon="5.47254">
        <ele>1319</ele>
        <time>2016-09-11T10:31:19Z</time>
      </trkpt>
      <trkpt lat="45.02766" lon="5.47253">
        <ele>1319</ele>
        <time>2016-09-11T10:31:22Z</time>
      </trkpt>
      <trkpt lat="45.02771" lon="5.47252">
        <ele>1318</ele>
        <time>2016-09-11T10:31:24Z</time>
      </trkpt>
      <trkpt lat="45.02776" lon="5.47252">
        <ele>1318</ele>
        <time>2016-09-11T10:31:26Z</time>
      </trkpt>
      <trkpt lat="45.0278" lon="5.47251">
        <ele>1318</ele>
        <time>2016-09-11T10:31:28Z</time>
      </trkpt>
      <trkpt lat="45.02787" lon="5.47249">
        <ele>1319</ele>
        <time>2016-09-11T10:31:31Z</time>
      </trkpt>
      <trkpt lat="45.02793" lon="5.47247">
        <ele>1320</ele>
        <time>2016-09-11T10:31:34Z</time>
      </trkpt>
      <trkpt lat="45.028" lon="5.47245">
        <ele>1321</ele>
        <time>2016-09-11T10:31:37Z</time>
      </trkpt>
      <trkpt lat="45.02806" lon="5.47242">
        <ele>1321</ele>
        <time>2016-09-11T10:31:40Z</time>
      </trkpt>
      <trkpt lat="45.02811" lon="5.4724">
        <ele>1322</ele>
        <time>2016-09-11T10:31:42Z</time>
      </trkpt>
      <trkpt lat="45.02815" lon="5.47239">
        <ele>1321</ele>
        <time>2016-09-11T10:31:44Z</time>
      </trkpt>
      <trkpt lat="45.02821" lon="5.47236">
        <ele>1320</ele>
        <time>2016-09-11T10:31:47Z</time>
      </trkpt>
      <trkpt lat="45.02828" lon="5.47238">
        <ele>1320</ele>
        <time>2016-09-11T10:31:50Z</time>
      </trkpt>
      <trkpt lat="45.02832" lon="5.47239">
        <ele>1319</ele>
        <time>2016-09-11T10:31:52Z</time>
      </trkpt>
      <trkpt lat="45.02837" lon="5.47241">
        <ele>1319</ele>
        <time>2016-09-11T10:31:54Z</time>
      </trkpt>
      <trkpt lat="45.02842" lon="5.47242">
        <ele>1320</ele>
        <time>2016-09-11T10:31:57Z</time>
      </trkpt>
      <trkpt lat="45.02848" lon="5.47245">
        <ele>1320</ele>
        <time>2016-09-11T10:32:00Z</time>
      </trkpt>
      <trkpt lat="45.02855" lon="5.47246">
        <ele>1320</ele>
        <time>2016-09-11T10:32:03Z</time>
      </trkpt>
      <trkpt lat="45.0286" lon="5.47247">
        <ele>1319</ele>
        <time>2016-09-11T10:32:06Z</time>
      </trkpt>
      <trkpt lat="45.02866" lon="5.47249">
        <ele>1318</ele>
        <time>2016-09-11T10:32:09Z</time>
      </trkpt>
      <trkpt lat="45.02873" lon="5.47253">
        <ele>1317</ele>
        <time>2016-09-11T10:32:12Z</time>
      </trkpt>
      <trkpt lat="45.02878" lon="5.47254">
        <ele>1316</ele>
        <time>2016-09-11T10:32:14Z</time>
      </trkpt>
      <trkpt lat="45.02882" lon="5.47256">
        <ele>1316</ele>
        <time>2016-09-11T10:32:16Z</time>
      </trkpt>
      <trkpt lat="45.02889" lon="5.47258">
        <ele>1316</ele>
        <time>2016-09-11T10:32:19Z</time>
      </trkpt>
      <trkpt lat="45.02893" lon="5.4726">
        <ele>1317</ele>
        <time>2016-09-11T10:32:21Z</time>
      </trkpt>
      <trkpt lat="45.02898" lon="5.47261">
        <ele>1317</ele>
        <time>2016-09-11T10:32:23Z</time>
      </trkpt>
      <trkpt lat="45.02903" lon="5.47263">
        <ele>1317</ele>
        <time>2016-09-11T10:32:25Z</time>
      </trkpt>
      <trkpt lat="45.02907" lon="5.47265">
        <ele>1317</ele>
        <time>2016-09-11T10:32:27Z</time>
      </trkpt>
      <trkpt lat="45.02912" lon="5.47266">
        <ele>1318</ele>
        <time>2016-09-11T10:32:29Z</time>
      </trkpt>
      <trkpt lat="45.02917" lon="5.47266">
        <ele>1318</ele>
        <time>2016-09-11T10:32:31Z</time>
      </trkpt>
      <trkpt lat="45.02921" lon="5.47267">
        <ele>1318</ele>
        <time>2016-09-11T10:32:33Z</time>
      </trkpt>
      <trkpt lat="45.02928" lon="5.47266">
        <ele>1317</ele>
        <time>2016-09-11T10:32:36Z</time>
      </trkpt>
      <trkpt lat="45.02933" lon="5.47265">
        <ele>1317</ele>
        <time>2016-09-11T10:32:38Z</time>
      </trkpt>
      <trkpt lat="45.02938" lon="5.47264">
        <ele>1316</ele>
        <time>2016-09-11T10:32:40Z</time>
      </trkpt>
      <trkpt lat="45.02943" lon="5.47262">
        <ele>1316</ele>
        <time>2016-09-11T10:32:42Z</time>
      </trkpt>
      <trkpt lat="45.02948" lon="5.4726">
        <ele>1317</ele>
        <time>2016-09-11T10:32:44Z</time>
      </trkpt>
      <trkpt lat="45.02953" lon="5.47259">
        <ele>1318</ele>
        <time>2016-09-11T10:32:46Z</time>
      </trkpt>
      <trkpt lat="45.02958" lon="5.47259">
        <ele>1319</ele>
        <time>2016-09-11T10:32:48Z</time>
      </trkpt>
      <trkpt lat="45.02963" lon="5.47261">
        <ele>1320</ele>
        <time>2016-09-11T10:32:50Z</time>
      </trkpt>
      <trkpt lat="45.02968" lon="5.47263">
        <ele>1321</ele>
        <time>2016-09-11T10:32:52Z</time>
      </trkpt>
      <trkpt lat="45.02973" lon="5.47265">
        <ele>1322</ele>
        <time>2016-09-11T10:32:54Z</time>
      </trkpt>
      <trkpt lat="45.02978" lon="5.47267">
        <ele>1322</ele>
        <time>2016-09-11T10:32:56Z</time>
      </trkpt>
      <trkpt lat="45.02984" lon="5.47269">
        <ele>1323</ele>
        <time>2016-09-11T10:32:58Z</time>
      </trkpt>
      <trkpt lat="45.02988" lon="5.47271">
        <ele>1323</ele>
        <time>2016-09-11T10:33:00Z</time>
      </trkpt>
      <trkpt lat="45.02994" lon="5.47272">
        <ele>1323</ele>
        <time>2016-09-11T10:33:03Z</time>
      </trkpt>
      <trkpt lat="45.02999" lon="5.47274">
        <ele>1324</ele>
        <time>2016-09-11T10:33:06Z</time>
      </trkpt>
      <trkpt lat="45.03005" lon="5.47276">
        <ele>1323</ele>
        <time>2016-09-11T10:33:09Z</time>
      </trkpt>
      <trkpt lat="45.03011" lon="5.47279">
        <ele>1323</ele>
        <time>2016-09-11T10:33:12Z</time>
      </trkpt>
      <trkpt lat="45.03017" lon="5.47281">
        <ele>1323</ele>
        <time>2016-09-11T10:33:15Z</time>
      </trkpt>
      <trkpt lat="45.03022" lon="5.47282">
        <ele>1324</ele>
        <time>2016-09-11T10:33:17Z</time>
      </trkpt>
      <trkpt lat="45.03027" lon="5.47282">
        <ele>1324</ele>
        <time>2016-09-11T10:33:19Z</time>
      </trkpt>
      <trkpt lat="45.03032" lon="5.47281">
        <ele>1325</ele>
        <time>2016-09-11T10:33:21Z</time>
      </trkpt>
      <trkpt lat="45.03039" lon="5.47281">
        <ele>1326</ele>
        <time>2016-09-11T10:33:23Z</time>
      </trkpt>
      <trkpt lat="45.03045" lon="5.47282">
        <ele>1326</ele>
        <time>2016-09-11T10:33:25Z</time>
      </trkpt>
      <trkpt lat="45.03051" lon="5.47281">
        <ele>1327</ele>
        <time>2016-09-11T10:33:27Z</time>
      </trkpt>
      <trkpt lat="45.03057" lon="5.47281">
        <ele>1327</ele>
        <time>2016-09-11T10:33:29Z</time>
      </trkpt>
      <trkpt lat="45.03062" lon="5.4728">
        <ele>1328</ele>
        <time>2016-09-11T10:33:31Z</time>
      </trkpt>
      <trkpt lat="45.03067" lon="5.4728">
        <ele>1328</ele>
        <time>2016-09-11T10:33:33Z</time>
      </trkpt>
      <trkpt lat="45.03073" lon="5.47281">
        <ele>1329</ele>
        <time>2016-09-11T10:33:35Z</time>
      </trkpt>
      <trkpt lat="45.03079" lon="5.47281">
        <ele>1329</ele>
        <time>2016-09-11T10:33:37Z</time>
      </trkpt>
      <trkpt lat="45.03084" lon="5.47281">
        <ele>1330</ele>
        <time>2016-09-11T10:33:39Z</time>
      </trkpt>
      <trkpt lat="45.03089" lon="5.47282">
        <ele>1330</ele>
        <time>2016-09-11T10:33:41Z</time>
      </trkpt>
      <trkpt lat="45.03095" lon="5.47284">
        <ele>1330</ele>
        <time>2016-09-11T10:33:45Z</time>
      </trkpt>
      <trkpt lat="45.03099" lon="5.47285">
        <ele>1331</ele>
        <time>2016-09-11T10:33:48Z</time>
      </trkpt>
      <trkpt lat="45.03105" lon="5.47288">
        <ele>1331</ele>
        <time>2016-09-11T10:33:51Z</time>
      </trkpt>
      <trkpt lat="45.0311" lon="5.47289">
        <ele>1331</ele>
        <time>2016-09-11T10:33:55Z</time>
      </trkpt>
      <trkpt lat="45.03114" lon="5.47292">
        <ele>1331</ele>
        <time>2016-09-11T10:33:59Z</time>
      </trkpt>
      <trkpt lat="45.03119" lon="5.47294">
        <ele>1331</ele>
        <time>2016-09-11T10:34:03Z</time>
      </trkpt>
      <trkpt lat="45.03124" lon="5.47297">
        <ele>1330</ele>
        <time>2016-09-11T10:34:06Z</time>
      </trkpt>
      <trkpt lat="45.03128" lon="5.47301">
        <ele>1330</ele>
        <time>2016-09-11T10:34:09Z</time>
      </trkpt>
      <trkpt lat="45.03133" lon="5.47304">
        <ele>1330</ele>
        <time>2016-09-11T10:34:12Z</time>
      </trkpt>
      <trkpt lat="45.03139" lon="5.47307">
        <ele>1330</ele>
        <time>2016-09-11T10:34:15Z</time>
      </trkpt>
      <trkpt lat="45.03145" lon="5.4731">
        <ele>1330</ele>
        <time>2016-09-11T10:34:18Z</time>
      </trkpt>
      <trkpt lat="45.03149" lon="5.47313">
        <ele>1330</ele>
        <time>2016-09-11T10:34:21Z</time>
      </trkpt>
      <trkpt lat="45.03154" lon="5.47317">
        <ele>1330</ele>
        <time>2016-09-11T10:34:24Z</time>
      </trkpt>
      <trkpt lat="45.03159" lon="5.4732">
        <ele>1330</ele>
        <time>2016-09-11T10:34:28Z</time>
      </trkpt>
      <trkpt lat="45.03164" lon="5.47322">
        <ele>1330</ele>
        <time>2016-09-11T10:34:31Z</time>
      </trkpt>
      <trkpt lat="45.03168" lon="5.47324">
        <ele>1330</ele>
        <time>2016-09-11T10:34:34Z</time>
      </trkpt>
      <trkpt lat="45.03173" lon="5.47326">
        <ele>1330</ele>
        <time>2016-09-11T10:34:38Z</time>
      </trkpt>
      <trkpt lat="45.03178" lon="5.47329">
        <ele>1331</ele>
        <time>2016-09-11T10:34:42Z</time>
      </trkpt>
      <trkpt lat="45.03185" lon="5.4733">
        <ele>1331</ele>
        <time>2016-09-11T10:34:46Z</time>
      </trkpt>
      <trkpt lat="45.0319" lon="5.47331">
        <ele>1332</ele>
        <time>2016-09-11T10:34:50Z</time>
      </trkpt>
      <trkpt lat="45.03196" lon="5.47334">
        <ele>1333</ele>
        <time>2016-09-11T10:34:54Z</time>
      </trkpt>
      <trkpt lat="45.03201" lon="5.47337">
        <ele>1333</ele>
        <time>2016-09-11T10:34:57Z</time>
      </trkpt>
      <trkpt lat="45.03206" lon="5.47339">
        <ele>1333</ele>
        <time>2016-09-11T10:35:00Z</time>
      </trkpt>
      <trkpt lat="45.03211" lon="5.47341">
        <ele>1333</ele>
        <time>2016-09-11T10:35:03Z</time>
      </trkpt>
      <trkpt lat="45.03217" lon="5.47343">
        <ele>1334</ele>
        <time>2016-09-11T10:35:06Z</time>
      </trkpt>
      <trkpt lat="45.03221" lon="5.47346">
        <ele>1334</ele>
        <time>2016-09-11T10:35:09Z</time>
      </trkpt>
      <trkpt lat="45.03226" lon="5.47349">
        <ele>1335</ele>
        <time>2016-09-11T10:35:12Z</time>
      </trkpt>
      <trkpt lat="45.0323" lon="5.47351">
        <ele>1335</ele>
        <time>2016-09-11T10:35:15Z</time>
      </trkpt>
      <trkpt lat="45.03235" lon="5.47353">
        <ele>1336</ele>
        <time>2016-09-11T10:35:18Z</time>
      </trkpt>
      <trkpt lat="45.03239" lon="5.47356">
        <ele>1335</ele>
        <time>2016-09-11T10:35:21Z</time>
      </trkpt>
      <trkpt lat="45.03244" lon="5.4736">
        <ele>1334</ele>
        <time>2016-09-11T10:35:25Z</time>
      </trkpt>
      <trkpt lat="45.03248" lon="5.47364">
        <ele>1333</ele>
        <time>2016-09-11T10:35:35Z</time>
      </trkpt>
      <trkpt lat="45.03246" lon="5.47361">
        <ele>1331</ele>
        <time>2016-09-11T10:36:00Z</time>
      </trkpt>
      <trkpt lat="45.03246" lon="5.47361">
        <ele>1329</ele>
        <time>2016-09-11T10:36:02Z</time>
      </trkpt>
      <trkpt lat="45.03246" lon="5.47361">
        <ele>1328</ele>
        <time>2016-09-11T10:36:30Z</time>
      </trkpt>
      <trkpt lat="45.03246" lon="5.47361">
        <ele>1327</ele>
        <time>2016-09-11T10:36:32Z</time>
      </trkpt>
      <trkpt lat="45.03247" lon="5.47361">
        <ele>1327</ele>
        <time>2016-09-11T10:37:00Z</time>
      </trkpt>
      <trkpt lat="45.03247" lon="5.47361">
        <ele>1327</ele>
        <time>2016-09-11T10:37:02Z</time>
      </trkpt>
      <trkpt lat="45.03247" lon="5.47361">
        <ele>1327</ele>
        <time>2016-09-11T10:37:30Z</time>
      </trkpt>
      <trkpt lat="45.03247" lon="5.47361">
        <ele>1327</ele>
        <time>2016-09-11T10:37:32Z</time>
      </trkpt>
      <trkpt lat="45.03247" lon="5.47361">
        <ele>1328</ele>
        <time>2016-09-11T10:38:00Z</time>
      </trkpt>
      <trkpt lat="45.03247" lon="5.47361">
        <ele>1328</ele>
        <time>2016-09-11T10:38:02Z</time>
      </trkpt>
      <trkpt lat="45.03247" lon="5.47361">
        <ele>1328</ele>
        <time>2016-09-11T10:38:30Z</time>
      </trkpt>
      <trkpt lat="45.03247" lon="5.47361">
        <ele>1328</ele>
        <time>2016-09-11T10:38:32Z</time>
      </trkpt>
      <trkpt lat="45.03247" lon="5.47361">
        <ele>1329</ele>
        <time>2016-09-11T10:39:00Z</time>
      </trkpt>
      <trkpt lat="45.03247" lon="5.47361">
        <ele>1329</ele>
        <time>2016-09-11T10:39:02Z</time>
      </trkpt>
      <trkpt lat="45.03248" lon="5.47361">
        <ele>1329</ele>
        <time>2016-09-11T10:39:30Z</time>
      </trkpt>
      <trkpt lat="45.03248" lon="5.47361">
        <ele>1329</ele>
        <time>2016-09-11T10:39:33Z</time>
      </trkpt>
      <trkpt lat="45.03251" lon="5.47365">
        <ele>1328</ele>
        <time>2016-09-11T10:39:45Z</time>
      </trkpt>
      <trkpt lat="45.03256" lon="5.47366">
        <ele>1328</ele>
        <time>2016-09-11T10:39:58Z</time>
      </trkpt>
      <trkpt lat="45.03262" lon="5.47368">
        <ele>1327</ele>
        <time>2016-09-11T10:40:02Z</time>
      </trkpt>
      <trkpt lat="45.03266" lon="5.4737">
        <ele>1327</ele>
        <time>2016-09-11T10:40:05Z</time>
      </trkpt>
      <trkpt lat="45.03271" lon="5.47372">
        <ele>1325</ele>
        <time>2016-09-11T10:40:07Z</time>
      </trkpt>
      <trkpt lat="45.03275" lon="5.47375">
        <ele>1325</ele>
        <time>2016-09-11T10:40:09Z</time>
      </trkpt>
      <trkpt lat="45.0328" lon="5.47377">
        <ele>1324</ele>
        <time>2016-09-11T10:40:11Z</time>
      </trkpt>
      <trkpt lat="45.03285" lon="5.47379">
        <ele>1324</ele>
        <time>2016-09-11T10:40:13Z</time>
      </trkpt>
      <trkpt lat="45.03291" lon="5.47382">
        <ele>1324</ele>
        <time>2016-09-11T10:40:16Z</time>
      </trkpt>
      <trkpt lat="45.03296" lon="5.47387">
        <ele>1325</ele>
        <time>2016-09-11T10:40:19Z</time>
      </trkpt>
      <trkpt lat="45.03301" lon="5.47391">
        <ele>1326</ele>
        <time>2016-09-11T10:40:22Z</time>
      </trkpt>
      <trkpt lat="45.03305" lon="5.47396">
        <ele>1327</ele>
        <time>2016-09-11T10:40:25Z</time>
      </trkpt>
      <trkpt lat="45.0331" lon="5.47402">
        <ele>1328</ele>
        <time>2016-09-11T10:40:28Z</time>
      </trkpt>
      <trkpt lat="45.03313" lon="5.47408">
        <ele>1328</ele>
        <time>2016-09-11T10:40:31Z</time>
      </trkpt>
      <trkpt lat="45.03317" lon="5.47414">
        <ele>1329</ele>
        <time>2016-09-11T10:40:34Z</time>
      </trkpt>
      <trkpt lat="45.03319" lon="5.4742">
        <ele>1328</ele>
        <time>2016-09-11T10:40:37Z</time>
      </trkpt>
      <trkpt lat="45.03322" lon="5.47425">
        <ele>1326</ele>
        <time>2016-09-11T10:40:40Z</time>
      </trkpt>
      <trkpt lat="45.03325" lon="5.47431">
        <ele>1326</ele>
        <time>2016-09-11T10:40:43Z</time>
      </trkpt>
      <trkpt lat="45.03328" lon="5.47438">
        <ele>1326</ele>
        <time>2016-09-11T10:40:46Z</time>
      </trkpt>
      <trkpt lat="45.03331" lon="5.47444">
        <ele>1327</ele>
        <time>2016-09-11T10:40:49Z</time>
      </trkpt>
      <trkpt lat="45.03334" lon="5.47451">
        <ele>1329</ele>
        <time>2016-09-11T10:40:52Z</time>
      </trkpt>
      <trkpt lat="45.03338" lon="5.47457">
        <ele>1332</ele>
        <time>2016-09-11T10:40:55Z</time>
      </trkpt>
      <trkpt lat="45.0334" lon="5.47465">
        <ele>1335</ele>
        <time>2016-09-11T10:40:58Z</time>
      </trkpt>
      <trkpt lat="45.03342" lon="5.47473">
        <ele>1337</ele>
        <time>2016-09-11T10:41:01Z</time>
      </trkpt>
      <trkpt lat="45.03344" lon="5.4748">
        <ele>1338</ele>
        <time>2016-09-11T10:41:04Z</time>
      </trkpt>
      <trkpt lat="45.03346" lon="5.47487">
        <ele>1338</ele>
        <time>2016-09-11T10:41:07Z</time>
      </trkpt>
      <trkpt lat="45.03348" lon="5.47493">
        <ele>1338</ele>
        <time>2016-09-11T10:41:10Z</time>
      </trkpt>
      <trkpt lat="45.0335" lon="5.475">
        <ele>1338</ele>
        <time>2016-09-11T10:41:13Z</time>
      </trkpt>
      <trkpt lat="45.03353" lon="5.47507">
        <ele>1337</ele>
        <time>2016-09-11T10:41:16Z</time>
      </trkpt>
      <trkpt lat="45.03357" lon="5.47514">
        <ele>1336</ele>
        <time>2016-09-11T10:41:19Z</time>
      </trkpt>
      <trkpt lat="45.0336" lon="5.47521">
        <ele>1337</ele>
        <time>2016-09-11T10:41:21Z</time>
      </trkpt>
      <trkpt lat="45.03363" lon="5.47527">
        <ele>1338</ele>
        <time>2016-09-11T10:41:23Z</time>
      </trkpt>
      <trkpt lat="45.03367" lon="5.47533">
        <ele>1339</ele>
        <time>2016-09-11T10:41:25Z</time>
      </trkpt>
      <trkpt lat="45.03371" lon="5.47539">
        <ele>1339</ele>
        <time>2016-09-11T10:41:27Z</time>
      </trkpt>
      <trkpt lat="45.03375" lon="5.47544">
        <ele>1340</ele>
        <time>2016-09-11T10:41:29Z</time>
      </trkpt>
      <trkpt lat="45.03378" lon="5.47548">
        <ele>1341</ele>
        <time>2016-09-11T10:41:31Z</time>
      </trkpt>
      <trkpt lat="45.03384" lon="5.47553">
        <ele>1341</ele>
        <time>2016-09-11T10:41:34Z</time>
      </trkpt>
      <trkpt lat="45.0339" lon="5.47553">
        <ele>1341</ele>
        <time>2016-09-11T10:41:37Z</time>
      </trkpt>
      <trkpt lat="45.03396" lon="5.47554">
        <ele>1342</ele>
        <time>2016-09-11T10:41:40Z</time>
      </trkpt>
      <trkpt lat="45.03403" lon="5.47554">
        <ele>1343</ele>
        <time>2016-09-11T10:41:43Z</time>
      </trkpt>
      <trkpt lat="45.03409" lon="5.47556">
        <ele>1342</ele>
        <time>2016-09-11T10:41:46Z</time>
      </trkpt>
      <trkpt lat="45.03414" lon="5.4756">
        <ele>1343</ele>
        <time>2016-09-11T10:41:48Z</time>
      </trkpt>
      <trkpt lat="45.03418" lon="5.47566">
        <ele>1343</ele>
        <time>2016-09-11T10:41:50Z</time>
      </trkpt>
      <trkpt lat="45.03421" lon="5.47572">
        <ele>1342</ele>
        <time>2016-09-11T10:41:52Z</time>
      </trkpt>
      <trkpt lat="45.03423" lon="5.47579">
        <ele>1342</ele>
        <time>2016-09-11T10:41:54Z</time>
      </trkpt>
      <trkpt lat="45.03424" lon="5.47585">
        <ele>1342</ele>
        <time>2016-09-11T10:41:56Z</time>
      </trkpt>
      <trkpt lat="45.03425" lon="5.47591">
        <ele>1343</ele>
        <time>2016-09-11T10:41:58Z</time>
      </trkpt>
      <trkpt lat="45.03426" lon="5.47598">
        <ele>1343</ele>
        <time>2016-09-11T10:42:00Z</time>
      </trkpt>
      <trkpt lat="45.03427" lon="5.47604">
        <ele>1343</ele>
        <time>2016-09-11T10:42:02Z</time>
      </trkpt>
      <trkpt lat="45.03427" lon="5.47611">
        <ele>1343</ele>
        <time>2016-09-11T10:42:04Z</time>
      </trkpt>
      <trkpt lat="45.03427" lon="5.47618">
        <ele>1343</ele>
        <time>2016-09-11T10:42:06Z</time>
      </trkpt>
      <trkpt lat="45.03428" lon="5.47625">
        <ele>1343</ele>
        <time>2016-09-11T10:42:08Z</time>
      </trkpt>
      <trkpt lat="45.03428" lon="5.47634">
        <ele>1342</ele>
        <time>2016-09-11T10:42:10Z</time>
      </trkpt>
      <trkpt lat="45.03428" lon="5.47643">
        <ele>1342</ele>
        <time>2016-09-11T10:42:12Z</time>
      </trkpt>
      <trkpt lat="45.03428" lon="5.47652">
        <ele>1342</ele>
        <time>2016-09-11T10:42:14Z</time>
      </trkpt>
      <trkpt lat="45.03429" lon="5.47661">
        <ele>1342</ele>
        <time>2016-09-11T10:42:16Z</time>
      </trkpt>
      <trkpt lat="45.0343" lon="5.47669">
        <ele>1342</ele>
        <time>2016-09-11T10:42:18Z</time>
      </trkpt>
      <trkpt lat="45.03432" lon="5.47676">
        <ele>1342</ele>
        <time>2016-09-11T10:42:20Z</time>
      </trkpt>
      <trkpt lat="45.03434" lon="5.47682">
        <ele>1341</ele>
        <time>2016-09-11T10:42:22Z</time>
      </trkpt>
      <trkpt lat="45.03437" lon="5.47688">
        <ele>1341</ele>
        <time>2016-09-11T10:42:24Z</time>
      </trkpt>
      <trkpt lat="45.03439" lon="5.47694">
        <ele>1341</ele>
        <time>2016-09-11T10:42:26Z</time>
      </trkpt>
      <trkpt lat="45.03442" lon="5.47699">
        <ele>1341</ele>
        <time>2016-09-11T10:42:28Z</time>
      </trkpt>
      <trkpt lat="45.03446" lon="5.47704">
        <ele>1341</ele>
        <time>2016-09-11T10:42:30Z</time>
      </trkpt>
      <trkpt lat="45.03451" lon="5.47708">
        <ele>1342</ele>
        <time>2016-09-11T10:42:32Z</time>
      </trkpt>
      <trkpt lat="45.03455" lon="5.47711">
        <ele>1342</ele>
        <time>2016-09-11T10:42:34Z</time>
      </trkpt>
      <trkpt lat="45.03451" lon="5.47711">
        <ele>1343</ele>
        <time>2016-09-11T10:42:45Z</time>
      </trkpt>
      <trkpt lat="45.03446" lon="5.47712">
        <ele>1343</ele>
        <time>2016-09-11T10:42:49Z</time>
      </trkpt>
      <trkpt lat="45.03444" lon="5.47711">
        <ele>1343</ele>
        <time>2016-09-11T10:43:15Z</time>
      </trkpt>
      <trkpt lat="45.03444" lon="5.47711">
        <ele>1343</ele>
        <time>2016-09-11T10:43:17Z</time>
      </trkpt>
      <trkpt lat="45.03444" lon="5.47709">
        <ele>1342</ele>
        <time>2016-09-11T10:43:45Z</time>
      </trkpt>
      <trkpt lat="45.03444" lon="5.47709">
        <ele>1341</ele>
        <time>2016-09-11T10:43:46Z</time>
      </trkpt>
      <trkpt lat="45.03444" lon="5.47709">
        <ele>1339</ele>
        <time>2016-09-11T10:44:15Z</time>
      </trkpt>
      <trkpt lat="45.03444" lon="5.47709">
        <ele>1339</ele>
        <time>2016-09-11T10:44:17Z</time>
      </trkpt>
      <trkpt lat="45.03444" lon="5.47709">
        <ele>1339</ele>
        <time>2016-09-11T10:44:45Z</time>
      </trkpt>
      <trkpt lat="45.03444" lon="5.47709">
        <ele>1339</ele>
        <time>2016-09-11T10:44:46Z</time>
      </trkpt>
      <trkpt lat="45.03446" lon="5.47711">
        <ele>1340</ele>
        <time>2016-09-11T10:45:15Z</time>
      </trkpt>
      <trkpt lat="45.03446" lon="5.47711">
        <ele>1341</ele>
        <time>2016-09-11T10:45:16Z</time>
      </trkpt>
      <trkpt lat="45.03445" lon="5.47711">
        <ele>1342</ele>
        <time>2016-09-11T10:45:45Z</time>
      </trkpt>
      <trkpt lat="45.03445" lon="5.47711">
        <ele>1343</ele>
        <time>2016-09-11T10:45:47Z</time>
      </trkpt>
      <trkpt lat="45.03448" lon="5.47709">
        <ele>1344</ele>
        <time>2016-09-11T10:46:15Z</time>
      </trkpt>
      <trkpt lat="45.03448" lon="5.47709">
        <ele>1344</ele>
        <time>2016-09-11T10:46:17Z</time>
      </trkpt>
      <trkpt lat="45.03454" lon="5.47709">
        <ele>1344</ele>
        <time>2016-09-11T10:46:27Z</time>
      </trkpt>
      <trkpt lat="45.0346" lon="5.4771">
        <ele>1343</ele>
        <time>2016-09-11T10:46:29Z</time>
      </trkpt>
      <trkpt lat="45.03465" lon="5.4771">
        <ele>1342</ele>
        <time>2016-09-11T10:46:31Z</time>
      </trkpt>
      <trkpt lat="45.0347" lon="5.47709">
        <ele>1341</ele>
        <time>2016-09-11T10:46:33Z</time>
      </trkpt>
      <trkpt lat="45.03476" lon="5.47707">
        <ele>1340</ele>
        <time>2016-09-11T10:46:35Z</time>
      </trkpt>
      <trkpt lat="45.03482" lon="5.47705">
        <ele>1340</ele>
        <time>2016-09-11T10:46:37Z</time>
      </trkpt>
      <trkpt lat="45.03487" lon="5.47702">
        <ele>1339</ele>
        <time>2016-09-11T10:46:39Z</time>
      </trkpt>
      <trkpt lat="45.03492" lon="5.477">
        <ele>1339</ele>
        <time>2016-09-11T10:46:41Z</time>
      </trkpt>
      <trkpt lat="45.03497" lon="5.47699">
        <ele>1339</ele>
        <time>2016-09-11T10:46:43Z</time>
      </trkpt>
      <trkpt lat="45.03502" lon="5.47697">
        <ele>1338</ele>
        <time>2016-09-11T10:46:45Z</time>
      </trkpt>
      <trkpt lat="45.03507" lon="5.47696">
        <ele>1338</ele>
        <time>2016-09-11T10:46:47Z</time>
      </trkpt>
      <trkpt lat="45.03513" lon="5.47695">
        <ele>1337</ele>
        <time>2016-09-11T10:46:49Z</time>
      </trkpt>
      <trkpt lat="45.03519" lon="5.47694">
        <ele>1337</ele>
        <time>2016-09-11T10:46:51Z</time>
      </trkpt>
      <trkpt lat="45.03524" lon="5.47693">
        <ele>1337</ele>
        <time>2016-09-11T10:46:53Z</time>
      </trkpt>
      <trkpt lat="45.03531" lon="5.4769">
        <ele>1338</ele>
        <time>2016-09-11T10:46:55Z</time>
      </trkpt>
      <trkpt lat="45.03538" lon="5.47687">
        <ele>1338</ele>
        <time>2016-09-11T10:46:57Z</time>
      </trkpt>
      <trkpt lat="45.03542" lon="5.47682">
        <ele>1337</ele>
        <time>2016-09-11T10:46:59Z</time>
      </trkpt>
      <trkpt lat="45.03546" lon="5.47678">
        <ele>1336</ele>
        <time>2016-09-11T10:47:01Z</time>
      </trkpt>
      <trkpt lat="45.03553" lon="5.47676">
        <ele>1336</ele>
        <time>2016-09-11T10:47:03Z</time>
      </trkpt>
      <trkpt lat="45.03558" lon="5.47675">
        <ele>1336</ele>
        <time>2016-09-11T10:47:04Z</time>
      </trkpt>
      <trkpt lat="45.03564" lon="5.47674">
        <ele>1336</ele>
        <time>2016-09-11T10:47:05Z</time>
      </trkpt>
      <trkpt lat="45.03573" lon="5.47671">
        <ele>1337</ele>
        <time>2016-09-11T10:47:06Z</time>
      </trkpt>
      <trkpt lat="45.03582" lon="5.47671">
        <ele>1338</ele>
        <time>2016-09-11T10:47:08Z</time>
      </trkpt>
      <trkpt lat="45.0359" lon="5.47671">
        <ele>1339</ele>
        <time>2016-09-11T10:47:10Z</time>
      </trkpt>
      <trkpt lat="45.03595" lon="5.4767">
        <ele>1339</ele>
        <time>2016-09-11T10:47:11Z</time>
      </trkpt>
      <trkpt lat="45.03601" lon="5.4767">
        <ele>1340</ele>
        <time>2016-09-11T10:47:12Z</time>
      </trkpt>
      <trkpt lat="45.03605" lon="5.47671">
        <ele>1340</ele>
        <time>2016-09-11T10:47:13Z</time>
      </trkpt>
      <trkpt lat="45.0361" lon="5.47671">
        <ele>1341</ele>
        <time>2016-09-11T10:47:14Z</time>
      </trkpt>
      <trkpt lat="45.03616" lon="5.4767">
        <ele>1342</ele>
        <time>2016-09-11T10:47:15Z</time>
      </trkpt>
      <trkpt lat="45.03622" lon="5.47668">
        <ele>1343</ele>
        <time>2016-09-11T10:47:16Z</time>
      </trkpt>
      <trkpt lat="45.03627" lon="5.47666">
        <ele>1344</ele>
        <time>2016-09-11T10:47:17Z</time>
      </trkpt>
      <trkpt lat="45.03633" lon="5.47665">
        <ele>1344</ele>
        <time>2016-09-11T10:47:18Z</time>
      </trkpt>
      <trkpt lat="45.03639" lon="5.47663">
        <ele>1345</ele>
        <time>2016-09-11T10:47:19Z</time>
      </trkpt>
      <trkpt lat="45.03644" lon="5.47661">
        <ele>1344</ele>
        <time>2016-09-11T10:47:20Z</time>
      </trkpt>
      <trkpt lat="45.0365" lon="5.47659">
        <ele>1344</ele>
        <time>2016-09-11T10:47:21Z</time>
      </trkpt>
      <trkpt lat="45.03654" lon="5.47655">
        <ele>1344</ele>
        <time>2016-09-11T10:47:22Z</time>
      </trkpt>
      <trkpt lat="45.03659" lon="5.4765">
        <ele>1344</ele>
        <time>2016-09-11T10:47:23Z</time>
      </trkpt>
      <trkpt lat="45.03664" lon="5.47651">
        <ele>1343</ele>
        <time>2016-09-11T10:47:24Z</time>
      </trkpt>
      <trkpt lat="45.03672" lon="5.4765">
        <ele>1344</ele>
        <time>2016-09-11T10:47:26Z</time>
      </trkpt>
      <trkpt lat="45.03678" lon="5.47653">
        <ele>1344</ele>
        <time>2016-09-11T10:47:27Z</time>
      </trkpt>
      <trkpt lat="45.03682" lon="5.47653">
        <ele>1344</ele>
        <time>2016-09-11T10:47:28Z</time>
      </trkpt>
      <trkpt lat="45.03687" lon="5.47655">
        <ele>1345</ele>
        <time>2016-09-11T10:47:29Z</time>
      </trkpt>
      <trkpt lat="45.03698" lon="5.47652">
        <ele>1346</ele>
        <time>2016-09-11T10:47:31Z</time>
      </trkpt>
      <trkpt lat="45.03708" lon="5.47652">
        <ele>1347</ele>
        <time>2016-09-11T10:47:33Z</time>
      </trkpt>
      <trkpt lat="45.03715" lon="5.47649">
        <ele>1347</ele>
        <time>2016-09-11T10:47:34Z</time>
      </trkpt>
      <trkpt lat="45.03722" lon="5.47649">
        <ele>1348</ele>
        <time>2016-09-11T10:47:35Z</time>
      </trkpt>
      <trkpt lat="45.03729" lon="5.47646">
        <ele>1349</ele>
        <time>2016-09-11T10:47:36Z</time>
      </trkpt>
      <trkpt lat="45.03735" lon="5.47644">
        <ele>1350</ele>
        <time>2016-09-11T10:47:37Z</time>
      </trkpt>
      <trkpt lat="45.03742" lon="5.4764">
        <ele>1350</ele>
        <time>2016-09-11T10:47:38Z</time>
      </trkpt>
      <trkpt lat="45.03749" lon="5.4764">
        <ele>1351</ele>
        <time>2016-09-11T10:47:39Z</time>
      </trkpt>
      <trkpt lat="45.03755" lon="5.47638">
        <ele>1351</ele>
        <time>2016-09-11T10:47:40Z</time>
      </trkpt>
      <trkpt lat="45.03763" lon="5.47633">
        <ele>1350</ele>
        <time>2016-09-11T10:47:41Z</time>
      </trkpt>
      <trkpt lat="45.03769" lon="5.47632">
        <ele>1349</ele>
        <time>2016-09-11T10:47:42Z</time>
      </trkpt>
      <trkpt lat="45.03776" lon="5.47629">
        <ele>1348</ele>
        <time>2016-09-11T10:47:43Z</time>
      </trkpt>
      <trkpt lat="45.03783" lon="5.47626">
        <ele>1346</ele>
        <time>2016-09-11T10:47:44Z</time>
      </trkpt>
      <trkpt lat="45.03788" lon="5.47624">
        <ele>1345</ele>
        <time>2016-09-11T10:47:45Z</time>
      </trkpt>
      <trkpt lat="45.03795" lon="5.47623">
        <ele>1345</ele>
        <time>2016-09-11T10:47:46Z</time>
      </trkpt>
      <trkpt lat="45.03802" lon="5.4762">
        <ele>1346</ele>
        <time>2016-09-11T10:47:47Z</time>
      </trkpt>
      <trkpt lat="45.03808" lon="5.47619">
        <ele>1346</ele>
        <time>2016-09-11T10:47:48Z</time>
      </trkpt>
      <trkpt lat="45.03814" lon="5.47618">
        <ele>1348</ele>
        <time>2016-09-11T10:47:49Z</time>
      </trkpt>
      <trkpt lat="45.03822" lon="5.47615">
        <ele>1349</ele>
        <time>2016-09-11T10:47:50Z</time>
      </trkpt>
      <trkpt lat="45.03827" lon="5.47615">
        <ele>1350</ele>
        <time>2016-09-11T10:47:51Z</time>
      </trkpt>
      <trkpt lat="45.03834" lon="5.47612">
        <ele>1350</ele>
        <time>2016-09-11T10:47:52Z</time>
      </trkpt>
      <trkpt lat="45.0384" lon="5.47611">
        <ele>1349</ele>
        <time>2016-09-11T10:47:53Z</time>
      </trkpt>
      <trkpt lat="45.03846" lon="5.47611">
        <ele>1349</ele>
        <time>2016-09-11T10:47:54Z</time>
      </trkpt>
      <trkpt lat="45.03852" lon="5.47613">
        <ele>1349</ele>
        <time>2016-09-11T10:47:55Z</time>
      </trkpt>
      <trkpt lat="45.03858" lon="5.47615">
        <ele>1348</ele>
        <time>2016-09-11T10:47:56Z</time>
      </trkpt>
      <trkpt lat="45.03864" lon="5.47617">
        <ele>1348</ele>
        <time>2016-09-11T10:47:57Z</time>
      </trkpt>
      <trkpt lat="45.0387" lon="5.47618">
        <ele>1348</ele>
        <time>2016-09-11T10:47:58Z</time>
      </trkpt>
      <trkpt lat="45.03876" lon="5.4762">
        <ele>1348</ele>
        <time>2016-09-11T10:47:59Z</time>
      </trkpt>
      <trkpt lat="45.03882" lon="5.4762">
        <ele>1348</ele>
        <time>2016-09-11T10:48:00Z</time>
      </trkpt>
      <trkpt lat="45.03888" lon="5.4762">
        <ele>1349</ele>
        <time>2016-09-11T10:48:01Z</time>
      </trkpt>
      <trkpt lat="45.03893" lon="5.47621">
        <ele>1349</ele>
        <time>2016-09-11T10:48:02Z</time>
      </trkpt>
      <trkpt lat="45.03904" lon="5.47621">
        <ele>1349</ele>
        <time>2016-09-11T10:48:04Z</time>
      </trkpt>
      <trkpt lat="45.03909" lon="5.47622">
        <ele>1350</ele>
        <time>2016-09-11T10:48:05Z</time>
      </trkpt>
      <trkpt lat="45.03915" lon="5.47624">
        <ele>1350</ele>
        <time>2016-09-11T10:48:06Z</time>
      </trkpt>
      <trkpt lat="45.03921" lon="5.47625">
        <ele>1350</ele>
        <time>2016-09-11T10:48:07Z</time>
      </trkpt>
      <trkpt lat="45.03927" lon="5.47626">
        <ele>1351</ele>
        <time>2016-09-11T10:48:08Z</time>
      </trkpt>
      <trkpt lat="45.03931" lon="5.47627">
        <ele>1351</ele>
        <time>2016-09-11T10:48:09Z</time>
      </trkpt>
      <trkpt lat="45.03937" lon="5.47628">
        <ele>1350</ele>
        <time>2016-09-11T10:48:10Z</time>
      </trkpt>
      <trkpt lat="45.03943" lon="5.47627">
        <ele>1350</ele>
        <time>2016-09-11T10:48:11Z</time>
      </trkpt>
      <trkpt lat="45.03949" lon="5.47628">
        <ele>1350</ele>
        <time>2016-09-11T10:48:12Z</time>
      </trkpt>
      <trkpt lat="45.03957" lon="5.47631">
        <ele>1350</ele>
        <time>2016-09-11T10:48:14Z</time>
      </trkpt>
      <trkpt lat="45.03962" lon="5.47631">
        <ele>1350</ele>
        <time>2016-09-11T10:48:15Z</time>
      </trkpt>
      <trkpt lat="45.03971" lon="5.47632">
        <ele>1350</ele>
        <time>2016-09-11T10:48:17Z</time>
      </trkpt>
      <trkpt lat="45.03976" lon="5.47633">
        <ele>1351</ele>
        <time>2016-09-11T10:48:18Z</time>
      </trkpt>
      <trkpt lat="45.03981" lon="5.47633">
        <ele>1351</ele>
        <time>2016-09-11T10:48:19Z</time>
      </trkpt>
      <trkpt lat="45.03987" lon="5.47633">
        <ele>1351</ele>
        <time>2016-09-11T10:48:20Z</time>
      </trkpt>
      <trkpt lat="45.03995" lon="5.47635">
        <ele>1351</ele>
        <time>2016-09-11T10:48:22Z</time>
      </trkpt>
      <trkpt lat="45.04004" lon="5.47636">
        <ele>1350</ele>
        <time>2016-09-11T10:48:24Z</time>
      </trkpt>
      <trkpt lat="45.04008" lon="5.47637">
        <ele>1350</ele>
        <time>2016-09-11T10:48:25Z</time>
      </trkpt>
      <trkpt lat="45.04014" lon="5.47637">
        <ele>1350</ele>
        <time>2016-09-11T10:48:26Z</time>
      </trkpt>
      <trkpt lat="45.04022" lon="5.47639">
        <ele>1350</ele>
        <time>2016-09-11T10:48:28Z</time>
      </trkpt>
      <trkpt lat="45.04026" lon="5.4764">
        <ele>1351</ele>
        <time>2016-09-11T10:48:29Z</time>
      </trkpt>
      <trkpt lat="45.04032" lon="5.4764">
        <ele>1351</ele>
        <time>2016-09-11T10:48:30Z</time>
      </trkpt>
      <trkpt lat="45.04037" lon="5.4764">
        <ele>1352</ele>
        <time>2016-09-11T10:48:31Z</time>
      </trkpt>
      <trkpt lat="45.04043" lon="5.4764">
        <ele>1352</ele>
        <time>2016-09-11T10:48:32Z</time>
      </trkpt>
      <trkpt lat="45.04047" lon="5.4764">
        <ele>1352</ele>
        <time>2016-09-11T10:48:33Z</time>
      </trkpt>
      <trkpt lat="45.04054" lon="5.4764">
        <ele>1353</ele>
        <time>2016-09-11T10:48:34Z</time>
      </trkpt>
      <trkpt lat="45.04061" lon="5.4764">
        <ele>1353</ele>
        <time>2016-09-11T10:48:36Z</time>
      </trkpt>
      <trkpt lat="45.04067" lon="5.4764">
        <ele>1354</ele>
        <time>2016-09-11T10:48:37Z</time>
      </trkpt>
      <trkpt lat="45.04078" lon="5.4764">
        <ele>1353</ele>
        <time>2016-09-11T10:48:39Z</time>
      </trkpt>
      <trkpt lat="45.04086" lon="5.4764">
        <ele>1353</ele>
        <time>2016-09-11T10:48:41Z</time>
      </trkpt>
      <trkpt lat="45.04095" lon="5.47639">
        <ele>1353</ele>
        <time>2016-09-11T10:48:43Z</time>
      </trkpt>
      <trkpt lat="45.04104" lon="5.47639">
        <ele>1353</ele>
        <time>2016-09-11T10:48:45Z</time>
      </trkpt>
      <trkpt lat="45.04108" lon="5.47639">
        <ele>1353</ele>
        <time>2016-09-11T10:48:46Z</time>
      </trkpt>
      <trkpt lat="45.04116" lon="5.47636">
        <ele>1354</ele>
        <time>2016-09-11T10:48:48Z</time>
      </trkpt>
      <trkpt lat="45.04124" lon="5.47634">
        <ele>1355</ele>
        <time>2016-09-11T10:48:50Z</time>
      </trkpt>
      <trkpt lat="45.04131" lon="5.47631">
        <ele>1356</ele>
        <time>2016-09-11T10:48:52Z</time>
      </trkpt>
      <trkpt lat="45.04139" lon="5.47627">
        <ele>1356</ele>
        <time>2016-09-11T10:48:54Z</time>
      </trkpt>
      <trkpt lat="45.04145" lon="5.47621">
        <ele>1356</ele>
        <time>2016-09-11T10:48:56Z</time>
      </trkpt>
      <trkpt lat="45.04152" lon="5.47614">
        <ele>1356</ele>
        <time>2016-09-11T10:48:58Z</time>
      </trkpt>
      <trkpt lat="45.04159" lon="5.47609">
        <ele>1356</ele>
        <time>2016-09-11T10:49:00Z</time>
      </trkpt>
      <trkpt lat="45.04166" lon="5.47603">
        <ele>1355</ele>
        <time>2016-09-11T10:49:02Z</time>
      </trkpt>
      <trkpt lat="45.04173" lon="5.47599">
        <ele>1355</ele>
        <time>2016-09-11T10:49:04Z</time>
      </trkpt>
      <trkpt lat="45.04179" lon="5.47593">
        <ele>1355</ele>
        <time>2016-09-11T10:49:06Z</time>
      </trkpt>
      <trkpt lat="45.04186" lon="5.47586">
        <ele>1355</ele>
        <time>2016-09-11T10:49:08Z</time>
      </trkpt>
      <trkpt lat="45.04193" lon="5.4758">
        <ele>1355</ele>
        <time>2016-09-11T10:49:10Z</time>
      </trkpt>
      <trkpt lat="45.04201" lon="5.47575">
        <ele>1356</ele>
        <time>2016-09-11T10:49:12Z</time>
      </trkpt>
      <trkpt lat="45.04208" lon="5.4757">
        <ele>1356</ele>
        <time>2016-09-11T10:49:14Z</time>
      </trkpt>
      <trkpt lat="45.04215" lon="5.47564">
        <ele>1356</ele>
        <time>2016-09-11T10:49:16Z</time>
      </trkpt>
      <trkpt lat="45.04222" lon="5.4756">
        <ele>1356</ele>
        <time>2016-09-11T10:49:18Z</time>
      </trkpt>
      <trkpt lat="45.04229" lon="5.47556">
        <ele>1356</ele>
        <time>2016-09-11T10:49:20Z</time>
      </trkpt>
      <trkpt lat="45.04236" lon="5.47555">
        <ele>1356</ele>
        <time>2016-09-11T10:49:22Z</time>
      </trkpt>
      <trkpt lat="45.04243" lon="5.47559">
        <ele>1356</ele>
        <time>2016-09-11T10:49:24Z</time>
      </trkpt>
      <trkpt lat="45.0425" lon="5.47563">
        <ele>1356</ele>
        <time>2016-09-11T10:49:26Z</time>
      </trkpt>
      <trkpt lat="45.04257" lon="5.47566">
        <ele>1357</ele>
        <time>2016-09-11T10:49:28Z</time>
      </trkpt>
      <trkpt lat="45.04264" lon="5.47568">
        <ele>1357</ele>
        <time>2016-09-11T10:49:30Z</time>
      </trkpt>
      <trkpt lat="45.04271" lon="5.4757">
        <ele>1357</ele>
        <time>2016-09-11T10:49:32Z</time>
      </trkpt>
      <trkpt lat="45.04277" lon="5.47572">
        <ele>1358</ele>
        <time>2016-09-11T10:49:34Z</time>
      </trkpt>
      <trkpt lat="45.04285" lon="5.47574">
        <ele>1359</ele>
        <time>2016-09-11T10:49:36Z</time>
      </trkpt>
      <trkpt lat="45.04293" lon="5.47574">
        <ele>1359</ele>
        <time>2016-09-11T10:49:38Z</time>
      </trkpt>
      <trkpt lat="45.04302" lon="5.47573">
        <ele>1359</ele>
        <time>2016-09-11T10:49:40Z</time>
      </trkpt>
      <trkpt lat="45.0431" lon="5.47574">
        <ele>1359</ele>
        <time>2016-09-11T10:49:42Z</time>
      </trkpt>
      <trkpt lat="45.04318" lon="5.47574">
        <ele>1358</ele>
        <time>2016-09-11T10:49:44Z</time>
      </trkpt>
      <trkpt lat="45.04327" lon="5.47576">
        <ele>1357</ele>
        <time>2016-09-11T10:49:46Z</time>
      </trkpt>
      <trkpt lat="45.04331" lon="5.47577">
        <ele>1356</ele>
        <time>2016-09-11T10:49:47Z</time>
      </trkpt>
      <trkpt lat="45.04336" lon="5.47579">
        <ele>1357</ele>
        <time>2016-09-11T10:49:48Z</time>
      </trkpt>
      <trkpt lat="45.04341" lon="5.47581">
        <ele>1356</ele>
        <time>2016-09-11T10:49:49Z</time>
      </trkpt>
      <trkpt lat="45.0435" lon="5.47586">
        <ele>1357</ele>
        <time>2016-09-11T10:49:50Z</time>
      </trkpt>
      <trkpt lat="45.04355" lon="5.47587">
        <ele>1358</ele>
        <time>2016-09-11T10:49:51Z</time>
      </trkpt>
      <trkpt lat="45.04359" lon="5.47587">
        <ele>1358</ele>
        <time>2016-09-11T10:49:52Z</time>
      </trkpt>
      <trkpt lat="45.04364" lon="5.47588">
        <ele>1357</ele>
        <time>2016-09-11T10:49:53Z</time>
      </trkpt>
      <trkpt lat="45.0437" lon="5.47589">
        <ele>1357</ele>
        <time>2016-09-11T10:49:54Z</time>
      </trkpt>
      <trkpt lat="45.04376" lon="5.47588">
        <ele>1355</ele>
        <time>2016-09-11T10:49:55Z</time>
      </trkpt>
      <trkpt lat="45.04382" lon="5.47585">
        <ele>1354</ele>
        <time>2016-09-11T10:49:56Z</time>
      </trkpt>
      <trkpt lat="45.04387" lon="5.47583">
        <ele>1353</ele>
        <time>2016-09-11T10:49:57Z</time>
      </trkpt>
      <trkpt lat="45.04394" lon="5.47581">
        <ele>1353</ele>
        <time>2016-09-11T10:49:58Z</time>
      </trkpt>
      <trkpt lat="45.044" lon="5.47579">
        <ele>1353</ele>
        <time>2016-09-11T10:49:59Z</time>
      </trkpt>
      <trkpt lat="45.04405" lon="5.47577">
        <ele>1353</ele>
        <time>2016-09-11T10:50:00Z</time>
      </trkpt>
      <trkpt lat="45.04412" lon="5.47575">
        <ele>1353</ele>
        <time>2016-09-11T10:50:01Z</time>
      </trkpt>
      <trkpt lat="45.04419" lon="5.47574">
        <ele>1354</ele>
        <time>2016-09-11T10:50:02Z</time>
      </trkpt>
      <trkpt lat="45.04426" lon="5.47571">
        <ele>1354</ele>
        <time>2016-09-11T10:50:03Z</time>
      </trkpt>
      <trkpt lat="45.04432" lon="5.47571">
        <ele>1354</ele>
        <time>2016-09-11T10:50:04Z</time>
      </trkpt>
      <trkpt lat="45.0444" lon="5.4757">
        <ele>1353</ele>
        <time>2016-09-11T10:50:05Z</time>
      </trkpt>
      <trkpt lat="45.04446" lon="5.47569">
        <ele>1353</ele>
        <time>2016-09-11T10:50:06Z</time>
      </trkpt>
      <trkpt lat="45.04453" lon="5.47567">
        <ele>1353</ele>
        <time>2016-09-11T10:50:07Z</time>
      </trkpt>
      <trkpt lat="45.04458" lon="5.47571">
        <ele>1352</ele>
        <time>2016-09-11T10:50:08Z</time>
      </trkpt>
      <trkpt lat="45.04467" lon="5.47572">
        <ele>1353</ele>
        <time>2016-09-11T10:50:09Z</time>
      </trkpt>
      <trkpt lat="45.04479" lon="5.4757">
        <ele>1353</ele>
        <time>2016-09-11T10:50:10Z</time>
      </trkpt>
      <trkpt lat="45.0449" lon="5.47571">
        <ele>1353</ele>
        <time>2016-09-11T10:50:11Z</time>
      </trkpt>
      <trkpt lat="45.04498" lon="5.47571">
        <ele>1353</ele>
        <time>2016-09-11T10:50:12Z</time>
      </trkpt>
      <trkpt lat="45.04505" lon="5.47568">
        <ele>1352</ele>
        <time>2016-09-11T10:50:13Z</time>
      </trkpt>
      <trkpt lat="45.04514" lon="5.47564">
        <ele>1351</ele>
        <time>2016-09-11T10:50:14Z</time>
      </trkpt>
      <trkpt lat="45.04522" lon="5.47559">
        <ele>1349</ele>
        <time>2016-09-11T10:50:15Z</time>
      </trkpt>
      <trkpt lat="45.04532" lon="5.47554">
        <ele>1347</ele>
        <time>2016-09-11T10:50:16Z</time>
      </trkpt>
      <trkpt lat="45.04541" lon="5.4755">
        <ele>1345</ele>
        <time>2016-09-11T10:50:17Z</time>
      </trkpt>
      <trkpt lat="45.0455" lon="5.47544">
        <ele>1344</ele>
        <time>2016-09-11T10:50:18Z</time>
      </trkpt>
      <trkpt lat="45.04559" lon="5.47542">
        <ele>1343</ele>
        <time>2016-09-11T10:50:19Z</time>
      </trkpt>
      <trkpt lat="45.04567" lon="5.47537">
        <ele>1343</ele>
        <time>2016-09-11T10:50:20Z</time>
      </trkpt>
      <trkpt lat="45.04574" lon="5.47537">
        <ele>1343</ele>
        <time>2016-09-11T10:50:21Z</time>
      </trkpt>
      <trkpt lat="45.04585" lon="5.47536">
        <ele>1342</ele>
        <time>2016-09-11T10:50:22Z</time>
      </trkpt>
      <trkpt lat="45.04596" lon="5.47535">
        <ele>1342</ele>
        <time>2016-09-11T10:50:23Z</time>
      </trkpt>
      <trkpt lat="45.04606" lon="5.47533">
        <ele>1341</ele>
        <time>2016-09-11T10:50:24Z</time>
      </trkpt>
      <trkpt lat="45.04615" lon="5.47532">
        <ele>1341</ele>
        <time>2016-09-11T10:50:25Z</time>
      </trkpt>
      <trkpt lat="45.04625" lon="5.47531">
        <ele>1341</ele>
        <time>2016-09-11T10:50:26Z</time>
      </trkpt>
      <trkpt lat="45.04635" lon="5.47529">
        <ele>1341</ele>
        <time>2016-09-11T10:50:27Z</time>
      </trkpt>
      <trkpt lat="45.04645" lon="5.47526">
        <ele>1341</ele>
        <time>2016-09-11T10:50:28Z</time>
      </trkpt>
      <trkpt lat="45.04656" lon="5.47522">
        <ele>1341</ele>
        <time>2016-09-11T10:50:29Z</time>
      </trkpt>
      <trkpt lat="45.04666" lon="5.47516">
        <ele>1341</ele>
        <time>2016-09-11T10:50:30Z</time>
      </trkpt>
      <trkpt lat="45.04677" lon="5.47511">
        <ele>1341</ele>
        <time>2016-09-11T10:50:31Z</time>
      </trkpt>
      <trkpt lat="45.04687" lon="5.47505">
        <ele>1340</ele>
        <time>2016-09-11T10:50:32Z</time>
      </trkpt>
      <trkpt lat="45.04697" lon="5.47497">
        <ele>1340</ele>
        <time>2016-09-11T10:50:33Z</time>
      </trkpt>
      <trkpt lat="45.0471" lon="5.47491">
        <ele>1339</ele>
        <time>2016-09-11T10:50:34Z</time>
      </trkpt>
      <trkpt lat="45.04721" lon="5.47485">
        <ele>1337</ele>
        <time>2016-09-11T10:50:35Z</time>
      </trkpt>
      <trkpt lat="45.04733" lon="5.4748">
        <ele>1335</ele>
        <time>2016-09-11T10:50:36Z</time>
      </trkpt>
      <trkpt lat="45.04745" lon="5.47473">
        <ele>1334</ele>
        <time>2016-09-11T10:50:37Z</time>
      </trkpt>
      <trkpt lat="45.04759" lon="5.47472">
        <ele>1333</ele>
        <time>2016-09-11T10:50:38Z</time>
      </trkpt>
      <trkpt lat="45.04771" lon="5.47465">
        <ele>1333</ele>
        <time>2016-09-11T10:50:39Z</time>
      </trkpt>
      <trkpt lat="45.04781" lon="5.47458">
        <ele>1333</ele>
        <time>2016-09-11T10:50:40Z</time>
      </trkpt>
      <trkpt lat="45.04791" lon="5.47456">
        <ele>1334</ele>
        <time>2016-09-11T10:50:41Z</time>
      </trkpt>
      <trkpt lat="45.04801" lon="5.47448">
        <ele>1333</ele>
        <time>2016-09-11T10:50:42Z</time>
      </trkpt>
      <trkpt lat="45.04815" lon="5.47441">
        <ele>1332</ele>
        <time>2016-09-11T10:50:43Z</time>
      </trkpt>
      <trkpt lat="45.04824" lon="5.47434">
        <ele>1330</ele>
        <time>2016-09-11T10:50:44Z</time>
      </trkpt>
      <trkpt lat="45.04836" lon="5.4743">
        <ele>1330</ele>
        <time>2016-09-11T10:50:45Z</time>
      </trkpt>
      <trkpt lat="45.04844" lon="5.47424">
        <ele>1329</ele>
        <time>2016-09-11T10:50:46Z</time>
      </trkpt>
      <trkpt lat="45.04853" lon="5.47418">
        <ele>1328</ele>
        <time>2016-09-11T10:50:47Z</time>
      </trkpt>
      <trkpt lat="45.04864" lon="5.47417">
        <ele>1328</ele>
        <time>2016-09-11T10:50:48Z</time>
      </trkpt>
      <trkpt lat="45.04873" lon="5.47412">
        <ele>1328</ele>
        <time>2016-09-11T10:50:49Z</time>
      </trkpt>
      <trkpt lat="45.04879" lon="5.4741">
        <ele>1328</ele>
        <time>2016-09-11T10:50:50Z</time>
      </trkpt>
      <trkpt lat="45.04888" lon="5.47407">
        <ele>1327</ele>
        <time>2016-09-11T10:50:51Z</time>
      </trkpt>
      <trkpt lat="45.04899" lon="5.47405">
        <ele>1327</ele>
        <time>2016-09-11T10:50:52Z</time>
      </trkpt>
      <trkpt lat="45.04908" lon="5.47403">
        <ele>1327</ele>
        <time>2016-09-11T10:50:53Z</time>
      </trkpt>
      <trkpt lat="45.04918" lon="5.47403">
        <ele>1327</ele>
        <time>2016-09-11T10:50:54Z</time>
      </trkpt>
      <trkpt lat="45.04928" lon="5.47404">
        <ele>1327</ele>
        <time>2016-09-11T10:50:55Z</time>
      </trkpt>
      <trkpt lat="45.04937" lon="5.47405">
        <ele>1327</ele>
        <time>2016-09-11T10:50:56Z</time>
      </trkpt>
      <trkpt lat="45.04947" lon="5.47409">
        <ele>1326</ele>
        <time>2016-09-11T10:50:57Z</time>
      </trkpt>
      <trkpt lat="45.04958" lon="5.47412">
        <ele>1326</ele>
        <time>2016-09-11T10:50:58Z</time>
      </trkpt>
      <trkpt lat="45.04968" lon="5.47416">
        <ele>1326</ele>
        <time>2016-09-11T10:50:59Z</time>
      </trkpt>
      <trkpt lat="45.04978" lon="5.47421">
        <ele>1325</ele>
        <time>2016-09-11T10:51:00Z</time>
      </trkpt>
      <trkpt lat="45.04989" lon="5.47424">
        <ele>1324</ele>
        <time>2016-09-11T10:51:01Z</time>
      </trkpt>
      <trkpt lat="45.04998" lon="5.47428">
        <ele>1323</ele>
        <time>2016-09-11T10:51:02Z</time>
      </trkpt>
      <trkpt lat="45.05008" lon="5.47431">
        <ele>1322</ele>
        <time>2016-09-11T10:51:03Z</time>
      </trkpt>
      <trkpt lat="45.05017" lon="5.47433">
        <ele>1321</ele>
        <time>2016-09-11T10:51:04Z</time>
      </trkpt>
      <trkpt lat="45.05024" lon="5.47434">
        <ele>1319</ele>
        <time>2016-09-11T10:51:05Z</time>
      </trkpt>
      <trkpt lat="45.05034" lon="5.47437">
        <ele>1319</ele>
        <time>2016-09-11T10:51:06Z</time>
      </trkpt>
      <trkpt lat="45.05041" lon="5.47436">
        <ele>1317</ele>
        <time>2016-09-11T10:51:07Z</time>
      </trkpt>
      <trkpt lat="45.0505" lon="5.47435">
        <ele>1316</ele>
        <time>2016-09-11T10:51:08Z</time>
      </trkpt>
      <trkpt lat="45.05059" lon="5.47433">
        <ele>1315</ele>
        <time>2016-09-11T10:51:09Z</time>
      </trkpt>
      <trkpt lat="45.0507" lon="5.4743">
        <ele>1315</ele>
        <time>2016-09-11T10:51:10Z</time>
      </trkpt>
      <trkpt lat="45.0508" lon="5.47428">
        <ele>1314</ele>
        <time>2016-09-11T10:51:11Z</time>
      </trkpt>
      <trkpt lat="45.05087" lon="5.47428">
        <ele>1313</ele>
        <time>2016-09-11T10:51:12Z</time>
      </trkpt>
      <trkpt lat="45.05095" lon="5.47429">
        <ele>1312</ele>
        <time>2016-09-11T10:51:13Z</time>
      </trkpt>
      <trkpt lat="45.05104" lon="5.4743">
        <ele>1312</ele>
        <time>2016-09-11T10:51:14Z</time>
      </trkpt>
      <trkpt lat="45.05114" lon="5.47432">
        <ele>1311</ele>
        <time>2016-09-11T10:51:15Z</time>
      </trkpt>
      <trkpt lat="45.05124" lon="5.47433">
        <ele>1310</ele>
        <time>2016-09-11T10:51:16Z</time>
      </trkpt>
      <trkpt lat="45.05134" lon="5.47439">
        <ele>1309</ele>
        <time>2016-09-11T10:51:17Z</time>
      </trkpt>
      <trkpt lat="45.05145" lon="5.47449">
        <ele>1309</ele>
        <time>2016-09-11T10:51:18Z</time>
      </trkpt>
      <trkpt lat="45.05153" lon="5.47456">
        <ele>1308</ele>
        <time>2016-09-11T10:51:19Z</time>
      </trkpt>
      <trkpt lat="45.0516" lon="5.47463">
        <ele>1307</ele>
        <time>2016-09-11T10:51:20Z</time>
      </trkpt>
      <trkpt lat="45.05168" lon="5.4747">
        <ele>1307</ele>
        <time>2016-09-11T10:51:21Z</time>
      </trkpt>
      <trkpt lat="45.05177" lon="5.47476">
        <ele>1307</ele>
        <time>2016-09-11T10:51:22Z</time>
      </trkpt>
      <trkpt lat="45.05184" lon="5.47481">
        <ele>1307</ele>
        <time>2016-09-11T10:51:23Z</time>
      </trkpt>
      <trkpt lat="45.05191" lon="5.47485">
        <ele>1307</ele>
        <time>2016-09-11T10:51:24Z</time>
      </trkpt>
      <trkpt lat="45.052" lon="5.47488">
        <ele>1306</ele>
        <time>2016-09-11T10:51:25Z</time>
      </trkpt>
      <trkpt lat="45.0521" lon="5.47493">
        <ele>1305</ele>
        <time>2016-09-11T10:51:26Z</time>
      </trkpt>
      <trkpt lat="45.05218" lon="5.47498">
        <ele>1305</ele>
        <time>2016-09-11T10:51:27Z</time>
      </trkpt>
      <trkpt lat="45.05223" lon="5.47504">
        <ele>1304</ele>
        <time>2016-09-11T10:51:28Z</time>
      </trkpt>
      <trkpt lat="45.05232" lon="5.47511">
        <ele>1304</ele>
        <time>2016-09-11T10:51:29Z</time>
      </trkpt>
      <trkpt lat="45.0524" lon="5.47515">
        <ele>1304</ele>
        <time>2016-09-11T10:51:30Z</time>
      </trkpt>
      <trkpt lat="45.05251" lon="5.47522">
        <ele>1303</ele>
        <time>2016-09-11T10:51:31Z</time>
      </trkpt>
      <trkpt lat="45.05261" lon="5.47525">
        <ele>1303</ele>
        <time>2016-09-11T10:51:32Z</time>
      </trkpt>
      <trkpt lat="45.05269" lon="5.4753">
        <ele>1302</ele>
        <time>2016-09-11T10:51:33Z</time>
      </trkpt>
      <trkpt lat="45.05278" lon="5.47535">
        <ele>1301</ele>
        <time>2016-09-11T10:51:34Z</time>
      </trkpt>
      <trkpt lat="45.05286" lon="5.4754">
        <ele>1299</ele>
        <time>2016-09-11T10:51:35Z</time>
      </trkpt>
      <trkpt lat="45.05296" lon="5.47545">
        <ele>1298</ele>
        <time>2016-09-11T10:51:36Z</time>
      </trkpt>
      <trkpt lat="45.05303" lon="5.4755">
        <ele>1298</ele>
        <time>2016-09-11T10:51:37Z</time>
      </trkpt>
      <trkpt lat="45.05309" lon="5.47554">
        <ele>1298</ele>
        <time>2016-09-11T10:51:38Z</time>
      </trkpt>
      <trkpt lat="45.05317" lon="5.4756">
        <ele>1298</ele>
        <time>2016-09-11T10:51:39Z</time>
      </trkpt>
      <trkpt lat="45.05329" lon="5.47568">
        <ele>1299</ele>
        <time>2016-09-11T10:51:40Z</time>
      </trkpt>
      <trkpt lat="45.05333" lon="5.47569">
        <ele>1300</ele>
        <time>2016-09-11T10:51:41Z</time>
      </trkpt>
      <trkpt lat="45.05342" lon="5.47576">
        <ele>1300</ele>
        <time>2016-09-11T10:51:42Z</time>
      </trkpt>
      <trkpt lat="45.05349" lon="5.47584">
        <ele>1300</ele>
        <time>2016-09-11T10:51:43Z</time>
      </trkpt>
      <trkpt lat="45.05358" lon="5.47588">
        <ele>1300</ele>
        <time>2016-09-11T10:51:44Z</time>
      </trkpt>
      <trkpt lat="45.05364" lon="5.47593">
        <ele>1300</ele>
        <time>2016-09-11T10:51:45Z</time>
      </trkpt>
      <trkpt lat="45.05373" lon="5.47597">
        <ele>1300</ele>
        <time>2016-09-11T10:51:46Z</time>
      </trkpt>
      <trkpt lat="45.05381" lon="5.47601">
        <ele>1299</ele>
        <time>2016-09-11T10:51:47Z</time>
      </trkpt>
      <trkpt lat="45.05388" lon="5.47603">
        <ele>1297</ele>
        <time>2016-09-11T10:51:48Z</time>
      </trkpt>
      <trkpt lat="45.05395" lon="5.47607">
        <ele>1296</ele>
        <time>2016-09-11T10:51:49Z</time>
      </trkpt>
      <trkpt lat="45.05405" lon="5.47612">
        <ele>1294</ele>
        <time>2016-09-11T10:51:50Z</time>
      </trkpt>
      <trkpt lat="45.05415" lon="5.47614">
        <ele>1294</ele>
        <time>2016-09-11T10:51:51Z</time>
      </trkpt>
      <trkpt lat="45.05425" lon="5.47616">
        <ele>1293</ele>
        <time>2016-09-11T10:51:52Z</time>
      </trkpt>
      <trkpt lat="45.05433" lon="5.47619">
        <ele>1292</ele>
        <time>2016-09-11T10:51:53Z</time>
      </trkpt>
      <trkpt lat="45.05442" lon="5.47622">
        <ele>1292</ele>
        <time>2016-09-11T10:51:54Z</time>
      </trkpt>
      <trkpt lat="45.0545" lon="5.47623">
        <ele>1290</ele>
        <time>2016-09-11T10:51:55Z</time>
      </trkpt>
      <trkpt lat="45.05459" lon="5.47628">
        <ele>1289</ele>
        <time>2016-09-11T10:51:56Z</time>
      </trkpt>
      <trkpt lat="45.05463" lon="5.47632">
        <ele>1288</ele>
        <time>2016-09-11T10:51:57Z</time>
      </trkpt>
      <trkpt lat="45.05472" lon="5.47634">
        <ele>1287</ele>
        <time>2016-09-11T10:51:58Z</time>
      </trkpt>
      <trkpt lat="45.05481" lon="5.47637">
        <ele>1286</ele>
        <time>2016-09-11T10:51:59Z</time>
      </trkpt>
      <trkpt lat="45.05489" lon="5.47638">
        <ele>1285</ele>
        <time>2016-09-11T10:52:00Z</time>
      </trkpt>
      <trkpt lat="45.05498" lon="5.47641">
        <ele>1284</ele>
        <time>2016-09-11T10:52:01Z</time>
      </trkpt>
      <trkpt lat="45.05505" lon="5.47639">
        <ele>1283</ele>
        <time>2016-09-11T10:52:02Z</time>
      </trkpt>
      <trkpt lat="45.05513" lon="5.47642">
        <ele>1283</ele>
        <time>2016-09-11T10:52:03Z</time>
      </trkpt>
      <trkpt lat="45.05523" lon="5.47649">
        <ele>1282</ele>
        <time>2016-09-11T10:52:04Z</time>
      </trkpt>
      <trkpt lat="45.05531" lon="5.47651">
        <ele>1281</ele>
        <time>2016-09-11T10:52:05Z</time>
      </trkpt>
      <trkpt lat="45.0554" lon="5.47653">
        <ele>1280</ele>
        <time>2016-09-11T10:52:06Z</time>
      </trkpt>
      <trkpt lat="45.05545" lon="5.47655">
        <ele>1278</ele>
        <time>2016-09-11T10:52:07Z</time>
      </trkpt>
      <trkpt lat="45.05551" lon="5.47658">
        <ele>1277</ele>
        <time>2016-09-11T10:52:08Z</time>
      </trkpt>
      <trkpt lat="45.05556" lon="5.47661">
        <ele>1276</ele>
        <time>2016-09-11T10:52:09Z</time>
      </trkpt>
      <trkpt lat="45.0556" lon="5.47667">
        <ele>1275</ele>
        <time>2016-09-11T10:52:12Z</time>
      </trkpt>
      <trkpt lat="45.05563" lon="5.47673">
        <ele>1273</ele>
        <time>2016-09-11T10:52:14Z</time>
      </trkpt>
      <trkpt lat="45.05567" lon="5.47682">
        <ele>1271</ele>
        <time>2016-09-11T10:52:16Z</time>
      </trkpt>
      <trkpt lat="45.05572" lon="5.47692">
        <ele>1269</ele>
        <time>2016-09-11T10:52:18Z</time>
      </trkpt>
      <trkpt lat="45.05574" lon="5.47698">
        <ele>1267</ele>
        <time>2016-09-11T10:52:19Z</time>
      </trkpt>
      <trkpt lat="45.05584" lon="5.47703">
        <ele>1265</ele>
        <time>2016-09-11T10:52:22Z</time>
      </trkpt>
      <trkpt lat="45.05589" lon="5.47706">
        <ele>1265</ele>
        <time>2016-09-11T10:52:24Z</time>
      </trkpt>
      <trkpt lat="45.05595" lon="5.47712">
        <ele>1265</ele>
        <time>2016-09-11T10:52:26Z</time>
      </trkpt>
      <trkpt lat="45.05601" lon="5.4772">
        <ele>1266</ele>
        <time>2016-09-11T10:52:28Z</time>
      </trkpt>
      <trkpt lat="45.05607" lon="5.47726">
        <ele>1266</ele>
        <time>2016-09-11T10:52:30Z</time>
      </trkpt>
      <trkpt lat="45.05613" lon="5.47734">
        <ele>1265</ele>
        <time>2016-09-11T10:52:32Z</time>
      </trkpt>
      <trkpt lat="45.05619" lon="5.47741">
        <ele>1265</ele>
        <time>2016-09-11T10:52:33Z</time>
      </trkpt>
      <trkpt lat="45.05623" lon="5.47747">
        <ele>1264</ele>
        <time>2016-09-11T10:52:34Z</time>
      </trkpt>
      <trkpt lat="45.05627" lon="5.47751">
        <ele>1263</ele>
        <time>2016-09-11T10:52:35Z</time>
      </trkpt>
      <trkpt lat="45.0563" lon="5.47756">
        <ele>1261</ele>
        <time>2016-09-11T10:52:36Z</time>
      </trkpt>
      <trkpt lat="45.05636" lon="5.47763">
        <ele>1260</ele>
        <time>2016-09-11T10:52:37Z</time>
      </trkpt>
      <trkpt lat="45.05643" lon="5.47771">
        <ele>1259</ele>
        <time>2016-09-11T10:52:39Z</time>
      </trkpt>
      <trkpt lat="45.05648" lon="5.47776">
        <ele>1258</ele>
        <time>2016-09-11T10:52:40Z</time>
      </trkpt>
      <trkpt lat="45.05655" lon="5.47784">
        <ele>1257</ele>
        <time>2016-09-11T10:52:41Z</time>
      </trkpt>
      <trkpt lat="45.0566" lon="5.47791">
        <ele>1257</ele>
        <time>2016-09-11T10:52:42Z</time>
      </trkpt>
      <trkpt lat="45.05668" lon="5.47795">
        <ele>1256</ele>
        <time>2016-09-11T10:52:43Z</time>
      </trkpt>
      <trkpt lat="45.05674" lon="5.47804">
        <ele>1256</ele>
        <time>2016-09-11T10:52:45Z</time>
      </trkpt>
      <trkpt lat="45.05677" lon="5.47811">
        <ele>1256</ele>
        <time>2016-09-11T10:52:46Z</time>
      </trkpt>
      <trkpt lat="45.05683" lon="5.47818">
        <ele>1257</ele>
        <time>2016-09-11T10:52:47Z</time>
      </trkpt>
      <trkpt lat="45.05687" lon="5.47829">
        <ele>1256</ele>
        <time>2016-09-11T10:52:49Z</time>
      </trkpt>
      <trkpt lat="45.05693" lon="5.47832">
        <ele>1256</ele>
        <time>2016-09-11T10:52:51Z</time>
      </trkpt>
      <trkpt lat="45.05698" lon="5.47838">
        <ele>1255</ele>
        <time>2016-09-11T10:52:54Z</time>
      </trkpt>
      <trkpt lat="45.05702" lon="5.47843">
        <ele>1254</ele>
        <time>2016-09-11T10:52:56Z</time>
      </trkpt>
      <trkpt lat="45.05705" lon="5.47849">
        <ele>1252</ele>
        <time>2016-09-11T10:52:58Z</time>
      </trkpt>
      <trkpt lat="45.05709" lon="5.47857">
        <ele>1251</ele>
        <time>2016-09-11T10:53:01Z</time>
      </trkpt>
      <trkpt lat="45.05711" lon="5.47862">
        <ele>1250</ele>
        <time>2016-09-11T10:53:03Z</time>
      </trkpt>
      <trkpt lat="45.05714" lon="5.47869">
        <ele>1249</ele>
        <time>2016-09-11T10:53:06Z</time>
      </trkpt>
      <trkpt lat="45.05718" lon="5.47877">
        <ele>1249</ele>
        <time>2016-09-11T10:53:18Z</time>
      </trkpt>
      <trkpt lat="45.05721" lon="5.47886">
        <ele>1248</ele>
        <time>2016-09-11T10:53:20Z</time>
      </trkpt>
      <trkpt lat="45.05723" lon="5.47896">
        <ele>1248</ele>
        <time>2016-09-11T10:53:22Z</time>
      </trkpt>
      <trkpt lat="45.05727" lon="5.47905">
        <ele>1247</ele>
        <time>2016-09-11T10:53:24Z</time>
      </trkpt>
      <trkpt lat="45.05729" lon="5.47911">
        <ele>1246</ele>
        <time>2016-09-11T10:53:25Z</time>
      </trkpt>
      <trkpt lat="45.05731" lon="5.47917">
        <ele>1245</ele>
        <time>2016-09-11T10:53:26Z</time>
      </trkpt>
      <trkpt lat="45.05735" lon="5.47924">
        <ele>1245</ele>
        <time>2016-09-11T10:53:27Z</time>
      </trkpt>
      <trkpt lat="45.05737" lon="5.4793">
        <ele>1244</ele>
        <time>2016-09-11T10:53:28Z</time>
      </trkpt>
      <trkpt lat="45.0574" lon="5.47935">
        <ele>1244</ele>
        <time>2016-09-11T10:53:29Z</time>
      </trkpt>
      <trkpt lat="45.05743" lon="5.47942">
        <ele>1244</ele>
        <time>2016-09-11T10:53:30Z</time>
      </trkpt>
      <trkpt lat="45.05745" lon="5.47949">
        <ele>1243</ele>
        <time>2016-09-11T10:53:31Z</time>
      </trkpt>
      <trkpt lat="45.05748" lon="5.47956">
        <ele>1243</ele>
        <time>2016-09-11T10:53:32Z</time>
      </trkpt>
      <trkpt lat="45.0575" lon="5.47963">
        <ele>1243</ele>
        <time>2016-09-11T10:53:33Z</time>
      </trkpt>
      <trkpt lat="45.05753" lon="5.47971">
        <ele>1243</ele>
        <time>2016-09-11T10:53:34Z</time>
      </trkpt>
      <trkpt lat="45.05756" lon="5.47982">
        <ele>1242</ele>
        <time>2016-09-11T10:53:36Z</time>
      </trkpt>
      <trkpt lat="45.0576" lon="5.47991">
        <ele>1242</ele>
        <time>2016-09-11T10:53:37Z</time>
      </trkpt>
      <trkpt lat="45.05764" lon="5.47997">
        <ele>1242</ele>
        <time>2016-09-11T10:53:38Z</time>
      </trkpt>
      <trkpt lat="45.05762" lon="5.48003">
        <ele>1242</ele>
        <time>2016-09-11T10:53:39Z</time>
      </trkpt>
      <trkpt lat="45.05763" lon="5.48014">
        <ele>1242</ele>
        <time>2016-09-11T10:53:40Z</time>
      </trkpt>
      <trkpt lat="45.05767" lon="5.48028">
        <ele>1243</ele>
        <time>2016-09-11T10:53:41Z</time>
      </trkpt>
      <trkpt lat="45.0577" lon="5.4804">
        <ele>1243</ele>
        <time>2016-09-11T10:53:42Z</time>
      </trkpt>
      <trkpt lat="45.05776" lon="5.48052">
        <ele>1243</ele>
        <time>2016-09-11T10:53:43Z</time>
      </trkpt>
      <trkpt lat="45.05781" lon="5.48059">
        <ele>1243</ele>
        <time>2016-09-11T10:53:44Z</time>
      </trkpt>
      <trkpt lat="45.05784" lon="5.4807">
        <ele>1243</ele>
        <time>2016-09-11T10:53:45Z</time>
      </trkpt>
      <trkpt lat="45.05784" lon="5.48079">
        <ele>1244</ele>
        <time>2016-09-11T10:53:46Z</time>
      </trkpt>
      <trkpt lat="45.05789" lon="5.48095">
        <ele>1244</ele>
        <time>2016-09-11T10:53:47Z</time>
      </trkpt>
      <trkpt lat="45.05792" lon="5.48105">
        <ele>1244</ele>
        <time>2016-09-11T10:53:48Z</time>
      </trkpt>
      <trkpt lat="45.05797" lon="5.48115">
        <ele>1244</ele>
        <time>2016-09-11T10:53:49Z</time>
      </trkpt>
      <trkpt lat="45.05802" lon="5.48121">
        <ele>1244</ele>
        <time>2016-09-11T10:53:50Z</time>
      </trkpt>
      <trkpt lat="45.05808" lon="5.48129">
        <ele>1244</ele>
        <time>2016-09-11T10:53:51Z</time>
      </trkpt>
      <trkpt lat="45.05814" lon="5.48141">
        <ele>1244</ele>
        <time>2016-09-11T10:53:52Z</time>
      </trkpt>
      <trkpt lat="45.05817" lon="5.48152">
        <ele>1244</ele>
        <time>2016-09-11T10:53:53Z</time>
      </trkpt>
      <trkpt lat="45.05822" lon="5.48165">
        <ele>1244</ele>
        <time>2016-09-11T10:53:54Z</time>
      </trkpt>
      <trkpt lat="45.05819" lon="5.48176">
        <ele>1244</ele>
        <time>2016-09-11T10:53:55Z</time>
      </trkpt>
      <trkpt lat="45.05822" lon="5.48189">
        <ele>1244</ele>
        <time>2016-09-11T10:53:56Z</time>
      </trkpt>
      <trkpt lat="45.05829" lon="5.48197">
        <ele>1243</ele>
        <time>2016-09-11T10:53:57Z</time>
      </trkpt>
      <trkpt lat="45.05835" lon="5.48208">
        <ele>1244</ele>
        <time>2016-09-11T10:53:58Z</time>
      </trkpt>
      <trkpt lat="45.05833" lon="5.48216">
        <ele>1244</ele>
        <time>2016-09-11T10:53:59Z</time>
      </trkpt>
      <trkpt lat="45.05838" lon="5.48225">
        <ele>1244</ele>
        <time>2016-09-11T10:54:00Z</time>
      </trkpt>
      <trkpt lat="45.05848" lon="5.48236">
        <ele>1244</ele>
        <time>2016-09-11T10:54:01Z</time>
      </trkpt>
      <trkpt lat="45.05856" lon="5.48244">
        <ele>1243</ele>
        <time>2016-09-11T10:54:02Z</time>
      </trkpt>
      <trkpt lat="45.05864" lon="5.48256">
        <ele>1243</ele>
        <time>2016-09-11T10:54:03Z</time>
      </trkpt>
      <trkpt lat="45.05867" lon="5.48269">
        <ele>1241</ele>
        <time>2016-09-11T10:54:05Z</time>
      </trkpt>
      <trkpt lat="45.05874" lon="5.48281">
        <ele>1239</ele>
        <time>2016-09-11T10:54:06Z</time>
      </trkpt>
      <trkpt lat="45.05881" lon="5.48291">
        <ele>1238</ele>
        <time>2016-09-11T10:54:07Z</time>
      </trkpt>
      <trkpt lat="45.05885" lon="5.483">
        <ele>1236</ele>
        <time>2016-09-11T10:54:08Z</time>
      </trkpt>
      <trkpt lat="45.05891" lon="5.4831">
        <ele>1235</ele>
        <time>2016-09-11T10:54:09Z</time>
      </trkpt>
      <trkpt lat="45.05898" lon="5.4832">
        <ele>1235</ele>
        <time>2016-09-11T10:54:10Z</time>
      </trkpt>
      <trkpt lat="45.05903" lon="5.48326">
        <ele>1235</ele>
        <time>2016-09-11T10:54:11Z</time>
      </trkpt>
      <trkpt lat="45.05908" lon="5.48336">
        <ele>1235</ele>
        <time>2016-09-11T10:54:12Z</time>
      </trkpt>
      <trkpt lat="45.05914" lon="5.48344">
        <ele>1235</ele>
        <time>2016-09-11T10:54:13Z</time>
      </trkpt>
      <trkpt lat="45.05919" lon="5.48349">
        <ele>1234</ele>
        <time>2016-09-11T10:54:14Z</time>
      </trkpt>
      <trkpt lat="45.05926" lon="5.48359">
        <ele>1234</ele>
        <time>2016-09-11T10:54:15Z</time>
      </trkpt>
      <trkpt lat="45.05933" lon="5.48368">
        <ele>1233</ele>
        <time>2016-09-11T10:54:16Z</time>
      </trkpt>
      <trkpt lat="45.05939" lon="5.48378">
        <ele>1233</ele>
        <time>2016-09-11T10:54:17Z</time>
      </trkpt>
      <trkpt lat="45.05948" lon="5.48391">
        <ele>1233</ele>
        <time>2016-09-11T10:54:18Z</time>
      </trkpt>
      <trkpt lat="45.05952" lon="5.48402">
        <ele>1233</ele>
        <time>2016-09-11T10:54:19Z</time>
      </trkpt>
      <trkpt lat="45.05966" lon="5.48405">
        <ele>1233</ele>
        <time>2016-09-11T10:54:20Z</time>
      </trkpt>
      <trkpt lat="45.05965" lon="5.48423">
        <ele>1233</ele>
        <time>2016-09-11T10:54:21Z</time>
      </trkpt>
      <trkpt lat="45.05965" lon="5.48433">
        <ele>1232</ele>
        <time>2016-09-11T10:54:22Z</time>
      </trkpt>
      <trkpt lat="45.05967" lon="5.4844">
        <ele>1231</ele>
        <time>2016-09-11T10:54:23Z</time>
      </trkpt>
      <trkpt lat="45.05973" lon="5.4845">
        <ele>1230</ele>
        <time>2016-09-11T10:54:24Z</time>
      </trkpt>
      <trkpt lat="45.05978" lon="5.48461">
        <ele>1229</ele>
        <time>2016-09-11T10:54:25Z</time>
      </trkpt>
      <trkpt lat="45.05981" lon="5.48471">
        <ele>1229</ele>
        <time>2016-09-11T10:54:26Z</time>
      </trkpt>
      <trkpt lat="45.05987" lon="5.48482">
        <ele>1228</ele>
        <time>2016-09-11T10:54:27Z</time>
      </trkpt>
      <trkpt lat="45.05989" lon="5.48493">
        <ele>1228</ele>
        <time>2016-09-11T10:54:28Z</time>
      </trkpt>
      <trkpt lat="45.05995" lon="5.48503">
        <ele>1227</ele>
        <time>2016-09-11T10:54:29Z</time>
      </trkpt>
      <trkpt lat="45.06004" lon="5.48512">
        <ele>1227</ele>
        <time>2016-09-11T10:54:30Z</time>
      </trkpt>
      <trkpt lat="45.06012" lon="5.48521">
        <ele>1227</ele>
        <time>2016-09-11T10:54:31Z</time>
      </trkpt>
      <trkpt lat="45.0602" lon="5.48532">
        <ele>1227</ele>
        <time>2016-09-11T10:54:32Z</time>
      </trkpt>
      <trkpt lat="45.06029" lon="5.48542">
        <ele>1226</ele>
        <time>2016-09-11T10:54:34Z</time>
      </trkpt>
      <trkpt lat="45.06036" lon="5.48548">
        <ele>1226</ele>
        <time>2016-09-11T10:54:35Z</time>
      </trkpt>
      <trkpt lat="45.06041" lon="5.48554">
        <ele>1226</ele>
        <time>2016-09-11T10:54:36Z</time>
      </trkpt>
      <trkpt lat="45.0605" lon="5.48566">
        <ele>1225</ele>
        <time>2016-09-11T10:54:37Z</time>
      </trkpt>
      <trkpt lat="45.06051" lon="5.48579">
        <ele>1224</ele>
        <time>2016-09-11T10:54:40Z</time>
      </trkpt>
      <trkpt lat="45.06054" lon="5.48587">
        <ele>1224</ele>
        <time>2016-09-11T10:54:41Z</time>
      </trkpt>
      <trkpt lat="45.0605" lon="5.48593">
        <ele>1224</ele>
        <time>2016-09-11T10:54:42Z</time>
      </trkpt>
      <trkpt lat="45.06052" lon="5.486">
        <ele>1224</ele>
        <time>2016-09-11T10:54:43Z</time>
      </trkpt>
      <trkpt lat="45.06061" lon="5.48613">
        <ele>1224</ele>
        <time>2016-09-11T10:54:45Z</time>
      </trkpt>
      <trkpt lat="45.06062" lon="5.48622">
        <ele>1225</ele>
        <time>2016-09-11T10:54:46Z</time>
      </trkpt>
      <trkpt lat="45.06067" lon="5.48625">
        <ele>1226</ele>
        <time>2016-09-11T10:54:47Z</time>
      </trkpt>
      <trkpt lat="45.06075" lon="5.48631">
        <ele>1226</ele>
        <time>2016-09-11T10:54:48Z</time>
      </trkpt>
      <trkpt lat="45.06085" lon="5.4864">
        <ele>1227</ele>
        <time>2016-09-11T10:54:49Z</time>
      </trkpt>
      <trkpt lat="45.06089" lon="5.48646">
        <ele>1227</ele>
        <time>2016-09-11T10:54:50Z</time>
      </trkpt>
      <trkpt lat="45.06086" lon="5.48651">
        <ele>1226</ele>
        <time>2016-09-11T10:54:51Z</time>
      </trkpt>
      <trkpt lat="45.06097" lon="5.4867">
        <ele>1226</ele>
        <time>2016-09-11T10:54:54Z</time>
      </trkpt>
      <trkpt lat="45.06097" lon="5.48677">
        <ele>1226</ele>
        <time>2016-09-11T10:54:55Z</time>
      </trkpt>
      <trkpt lat="45.06106" lon="5.48679">
        <ele>1225</ele>
        <time>2016-09-11T10:54:57Z</time>
      </trkpt>
      <trkpt lat="45.06112" lon="5.48681">
        <ele>1224</ele>
        <time>2016-09-11T10:54:58Z</time>
      </trkpt>
      <trkpt lat="45.06118" lon="5.48686">
        <ele>1223</ele>
        <time>2016-09-11T10:54:59Z</time>
      </trkpt>
      <trkpt lat="45.06123" lon="5.48686">
        <ele>1222</ele>
        <time>2016-09-11T10:55:00Z</time>
      </trkpt>
      <trkpt lat="45.06132" lon="5.48688">
        <ele>1222</ele>
        <time>2016-09-11T10:55:02Z</time>
      </trkpt>
      <trkpt lat="45.06141" lon="5.48694">
        <ele>1222</ele>
        <time>2016-09-11T10:55:03Z</time>
      </trkpt>
      <trkpt lat="45.06147" lon="5.48703">
        <ele>1221</ele>
        <time>2016-09-11T10:55:04Z</time>
      </trkpt>
      <trkpt lat="45.06153" lon="5.48703">
        <ele>1221</ele>
        <time>2016-09-11T10:55:05Z</time>
      </trkpt>
      <trkpt lat="45.06155" lon="5.48711">
        <ele>1221</ele>
        <time>2016-09-11T10:55:08Z</time>
      </trkpt>
      <trkpt lat="45.06162" lon="5.48721">
        <ele>1220</ele>
        <time>2016-09-11T10:55:09Z</time>
      </trkpt>
      <trkpt lat="45.06168" lon="5.48729">
        <ele>1220</ele>
        <time>2016-09-11T10:55:10Z</time>
      </trkpt>
      <trkpt lat="45.06173" lon="5.48729">
        <ele>1220</ele>
        <time>2016-09-11T10:55:11Z</time>
      </trkpt>
      <trkpt lat="45.06184" lon="5.48742">
        <ele>1219</ele>
        <time>2016-09-11T10:55:12Z</time>
      </trkpt>
      <trkpt lat="45.0619" lon="5.48748">
        <ele>1218</ele>
        <time>2016-09-11T10:55:13Z</time>
      </trkpt>
      <trkpt lat="45.06196" lon="5.48751">
        <ele>1219</ele>
        <time>2016-09-11T10:55:14Z</time>
      </trkpt>
      <trkpt lat="45.06203" lon="5.48767">
        <ele>1218</ele>
        <time>2016-09-11T10:55:15Z</time>
      </trkpt>
      <trkpt lat="45.06207" lon="5.48774">
        <ele>1218</ele>
        <time>2016-09-11T10:55:16Z</time>
      </trkpt>
      <trkpt lat="45.06212" lon="5.48781">
        <ele>1218</ele>
        <time>2016-09-11T10:55:17Z</time>
      </trkpt>
      <trkpt lat="45.06218" lon="5.48785">
        <ele>1217</ele>
        <time>2016-09-11T10:55:18Z</time>
      </trkpt>
      <trkpt lat="45.06225" lon="5.4879">
        <ele>1216</ele>
        <time>2016-09-11T10:55:19Z</time>
      </trkpt>
      <trkpt lat="45.06234" lon="5.48803">
        <ele>1216</ele>
        <time>2016-09-11T10:55:20Z</time>
      </trkpt>
      <trkpt lat="45.06239" lon="5.48809">
        <ele>1216</ele>
        <time>2016-09-11T10:55:21Z</time>
      </trkpt>
      <trkpt lat="45.06243" lon="5.48815">
        <ele>1216</ele>
        <time>2016-09-11T10:55:22Z</time>
      </trkpt>
      <trkpt lat="45.0625" lon="5.48822">
        <ele>1216</ele>
        <time>2016-09-11T10:55:23Z</time>
      </trkpt>
      <trkpt lat="45.06256" lon="5.48832">
        <ele>1216</ele>
        <time>2016-09-11T10:55:24Z</time>
      </trkpt>
      <trkpt lat="45.06267" lon="5.48842">
        <ele>1216</ele>
        <time>2016-09-11T10:55:25Z</time>
      </trkpt>
      <trkpt lat="45.06277" lon="5.48853">
        <ele>1216</ele>
        <time>2016-09-11T10:55:26Z</time>
      </trkpt>
      <trkpt lat="45.06281" lon="5.4886">
        <ele>1217</ele>
        <time>2016-09-11T10:55:27Z</time>
      </trkpt>
      <trkpt lat="45.06289" lon="5.48861">
        <ele>1217</ele>
        <time>2016-09-11T10:55:28Z</time>
      </trkpt>
      <trkpt lat="45.06297" lon="5.48868">
        <ele>1217</ele>
        <time>2016-09-11T10:55:29Z</time>
      </trkpt>
      <trkpt lat="45.06294" lon="5.48881">
        <ele>1217</ele>
        <time>2016-09-11T10:55:30Z</time>
      </trkpt>
      <trkpt lat="45.06303" lon="5.4889">
        <ele>1217</ele>
        <time>2016-09-11T10:55:31Z</time>
      </trkpt>
      <trkpt lat="45.06305" lon="5.48897">
        <ele>1217</ele>
        <time>2016-09-11T10:55:32Z</time>
      </trkpt>
      <trkpt lat="45.06308" lon="5.4891">
        <ele>1215</ele>
        <time>2016-09-11T10:55:33Z</time>
      </trkpt>
      <trkpt lat="45.06312" lon="5.48925">
        <ele>1214</ele>
        <time>2016-09-11T10:55:34Z</time>
      </trkpt>
      <trkpt lat="45.06313" lon="5.48934">
        <ele>1213</ele>
        <time>2016-09-11T10:55:35Z</time>
      </trkpt>
      <trkpt lat="45.0631" lon="5.48947">
        <ele>1212</ele>
        <time>2016-09-11T10:55:36Z</time>
      </trkpt>
      <trkpt lat="45.06313" lon="5.4896">
        <ele>1211</ele>
        <time>2016-09-11T10:55:37Z</time>
      </trkpt>
      <trkpt lat="45.06315" lon="5.48969">
        <ele>1210</ele>
        <time>2016-09-11T10:55:38Z</time>
      </trkpt>
      <trkpt lat="45.06323" lon="5.48983">
        <ele>1210</ele>
        <time>2016-09-11T10:55:39Z</time>
      </trkpt>
      <trkpt lat="45.06321" lon="5.48998">
        <ele>1210</ele>
        <time>2016-09-11T10:55:40Z</time>
      </trkpt>
      <trkpt lat="45.06344" lon="5.49016">
        <ele>1210</ele>
        <time>2016-09-11T10:55:41Z</time>
      </trkpt>
      <trkpt lat="45.06331" lon="5.49018">
        <ele>1210</ele>
        <time>2016-09-11T10:55:42Z</time>
      </trkpt>
      <trkpt lat="45.06328" lon="5.49027">
        <ele>1210</ele>
        <time>2016-09-11T10:55:43Z</time>
      </trkpt>
      <trkpt lat="45.06326" lon="5.49038">
        <ele>1209</ele>
        <time>2016-09-11T10:55:44Z</time>
      </trkpt>
      <trkpt lat="45.0632" lon="5.49049">
        <ele>1209</ele>
        <time>2016-09-11T10:55:45Z</time>
      </trkpt>
      <trkpt lat="45.06313" lon="5.49055">
        <ele>1210</ele>
        <time>2016-09-11T10:55:46Z</time>
      </trkpt>
      <trkpt lat="45.06316" lon="5.49075">
        <ele>1210</ele>
        <time>2016-09-11T10:55:48Z</time>
      </trkpt>
      <trkpt lat="45.06305" lon="5.49083">
        <ele>1211</ele>
        <time>2016-09-11T10:55:49Z</time>
      </trkpt>
      <trkpt lat="45.06311" lon="5.49095">
        <ele>1211</ele>
        <time>2016-09-11T10:55:50Z</time>
      </trkpt>
      <trkpt lat="45.06303" lon="5.49099">
        <ele>1210</ele>
        <time>2016-09-11T10:55:51Z</time>
      </trkpt>
      <trkpt lat="45.06297" lon="5.49103">
        <ele>1209</ele>
        <time>2016-09-11T10:55:52Z</time>
      </trkpt>
      <trkpt lat="45.06294" lon="5.49115">
        <ele>1208</ele>
        <time>2016-09-11T10:55:53Z</time>
      </trkpt>
      <trkpt lat="45.0629" lon="5.49121">
        <ele>1207</ele>
        <time>2016-09-11T10:55:54Z</time>
      </trkpt>
      <trkpt lat="45.06285" lon="5.49129">
        <ele>1206</ele>
        <time>2016-09-11T10:55:55Z</time>
      </trkpt>
      <trkpt lat="45.06281" lon="5.49138">
        <ele>1206</ele>
        <time>2016-09-11T10:55:56Z</time>
      </trkpt>
      <trkpt lat="45.06282" lon="5.49148">
        <ele>1206</ele>
        <time>2016-09-11T10:55:57Z</time>
      </trkpt>
      <trkpt lat="45.0628" lon="5.49159">
        <ele>1205</ele>
        <time>2016-09-11T10:55:58Z</time>
      </trkpt>
      <trkpt lat="45.06286" lon="5.49171">
        <ele>1204</ele>
        <time>2016-09-11T10:55:59Z</time>
      </trkpt>
      <trkpt lat="45.06286" lon="5.49179">
        <ele>1203</ele>
        <time>2016-09-11T10:56:00Z</time>
      </trkpt>
      <trkpt lat="45.06284" lon="5.49195">
        <ele>1202</ele>
        <time>2016-09-11T10:56:02Z</time>
      </trkpt>
      <trkpt lat="45.06279" lon="5.49203">
        <ele>1202</ele>
        <time>2016-09-11T10:56:03Z</time>
      </trkpt>
      <trkpt lat="45.0627" lon="5.49208">
        <ele>1201</ele>
        <time>2016-09-11T10:56:04Z</time>
      </trkpt>
      <trkpt lat="45.06266" lon="5.49215">
        <ele>1201</ele>
        <time>2016-09-11T10:56:05Z</time>
      </trkpt>
      <trkpt lat="45.06261" lon="5.49222">
        <ele>1201</ele>
        <time>2016-09-11T10:56:06Z</time>
      </trkpt>
      <trkpt lat="45.06257" lon="5.4923">
        <ele>1202</ele>
        <time>2016-09-11T10:56:07Z</time>
      </trkpt>
      <trkpt lat="45.06252" lon="5.49236">
        <ele>1202</ele>
        <time>2016-09-11T10:56:08Z</time>
      </trkpt>
      <trkpt lat="45.06249" lon="5.49246">
        <ele>1203</ele>
        <time>2016-09-11T10:56:09Z</time>
      </trkpt>
      <trkpt lat="45.06244" lon="5.4925">
        <ele>1203</ele>
        <time>2016-09-11T10:56:10Z</time>
      </trkpt>
      <trkpt lat="45.0624" lon="5.49255">
        <ele>1204</ele>
        <time>2016-09-11T10:56:11Z</time>
      </trkpt>
      <trkpt lat="45.06244" lon="5.49259">
        <ele>1204</ele>
        <time>2016-09-11T10:56:12Z</time>
      </trkpt>
      <trkpt lat="45.06243" lon="5.49266">
        <ele>1204</ele>
        <time>2016-09-11T10:56:13Z</time>
      </trkpt>
      <trkpt lat="45.06243" lon="5.49275">
        <ele>1204</ele>
        <time>2016-09-11T10:56:15Z</time>
      </trkpt>
      <trkpt lat="45.0625" lon="5.49293">
        <ele>1204</ele>
        <time>2016-09-11T10:56:16Z</time>
      </trkpt>
      <trkpt lat="45.06258" lon="5.49295">
        <ele>1204</ele>
        <time>2016-09-11T10:56:18Z</time>
      </trkpt>
      <trkpt lat="45.06264" lon="5.49299">
        <ele>1204</ele>
        <time>2016-09-11T10:56:19Z</time>
      </trkpt>
      <trkpt lat="45.06269" lon="5.49306">
        <ele>1203</ele>
        <time>2016-09-11T10:56:21Z</time>
      </trkpt>
      <trkpt lat="45.06273" lon="5.4931">
        <ele>1203</ele>
        <time>2016-09-11T10:56:22Z</time>
      </trkpt>
      <trkpt lat="45.06277" lon="5.49316">
        <ele>1203</ele>
        <time>2016-09-11T10:56:23Z</time>
      </trkpt>
      <trkpt lat="45.0628" lon="5.49322">
        <ele>1203</ele>
        <time>2016-09-11T10:56:24Z</time>
      </trkpt>
      <trkpt lat="45.06284" lon="5.49329">
        <ele>1203</ele>
        <time>2016-09-11T10:56:25Z</time>
      </trkpt>
      <trkpt lat="45.06289" lon="5.49335">
        <ele>1202</ele>
        <time>2016-09-11T10:56:26Z</time>
      </trkpt>
      <trkpt lat="45.06293" lon="5.49341">
        <ele>1202</ele>
        <time>2016-09-11T10:56:27Z</time>
      </trkpt>
      <trkpt lat="45.0629" lon="5.49347">
        <ele>1201</ele>
        <time>2016-09-11T10:56:28Z</time>
      </trkpt>
      <trkpt lat="45.06294" lon="5.49354">
        <ele>1201</ele>
        <time>2016-09-11T10:56:29Z</time>
      </trkpt>
      <trkpt lat="45.06299" lon="5.49363">
        <ele>1200</ele>
        <time>2016-09-11T10:56:30Z</time>
      </trkpt>
      <trkpt lat="45.06301" lon="5.49373">
        <ele>1200</ele>
        <time>2016-09-11T10:56:31Z</time>
      </trkpt>
      <trkpt lat="45.06305" lon="5.49379">
        <ele>1199</ele>
        <time>2016-09-11T10:56:32Z</time>
      </trkpt>
      <trkpt lat="45.06308" lon="5.49388">
        <ele>1198</ele>
        <time>2016-09-11T10:56:34Z</time>
      </trkpt>
      <trkpt lat="45.06315" lon="5.49399">
        <ele>1196</ele>
        <time>2016-09-11T10:56:36Z</time>
      </trkpt>
      <trkpt lat="45.06322" lon="5.49411">
        <ele>1194</ele>
        <time>2016-09-11T10:56:37Z</time>
      </trkpt>
      <trkpt lat="45.06327" lon="5.4942">
        <ele>1192</ele>
        <time>2016-09-11T10:56:38Z</time>
      </trkpt>
      <trkpt lat="45.06331" lon="5.49426">
        <ele>1191</ele>
        <time>2016-09-11T10:56:39Z</time>
      </trkpt>
      <trkpt lat="45.06337" lon="5.49434">
        <ele>1190</ele>
        <time>2016-09-11T10:56:40Z</time>
      </trkpt>
      <trkpt lat="45.06345" lon="5.49444">
        <ele>1190</ele>
        <time>2016-09-11T10:56:41Z</time>
      </trkpt>
      <trkpt lat="45.0635" lon="5.4945">
        <ele>1190</ele>
        <time>2016-09-11T10:56:42Z</time>
      </trkpt>
      <trkpt lat="45.06353" lon="5.49457">
        <ele>1189</ele>
        <time>2016-09-11T10:56:43Z</time>
      </trkpt>
      <trkpt lat="45.06358" lon="5.49463">
        <ele>1189</ele>
        <time>2016-09-11T10:56:44Z</time>
      </trkpt>
      <trkpt lat="45.06366" lon="5.49467">
        <ele>1189</ele>
        <time>2016-09-11T10:56:45Z</time>
      </trkpt>
      <trkpt lat="45.06371" lon="5.49471">
        <ele>1189</ele>
        <time>2016-09-11T10:56:46Z</time>
      </trkpt>
      <trkpt lat="45.06377" lon="5.49478">
        <ele>1190</ele>
        <time>2016-09-11T10:56:47Z</time>
      </trkpt>
      <trkpt lat="45.06384" lon="5.49482">
        <ele>1190</ele>
        <time>2016-09-11T10:56:48Z</time>
      </trkpt>
      <trkpt lat="45.06388" lon="5.49487">
        <ele>1190</ele>
        <time>2016-09-11T10:56:49Z</time>
      </trkpt>
      <trkpt lat="45.06395" lon="5.49488">
        <ele>1189</ele>
        <time>2016-09-11T10:56:50Z</time>
      </trkpt>
      <trkpt lat="45.06401" lon="5.49489">
        <ele>1189</ele>
        <time>2016-09-11T10:56:51Z</time>
      </trkpt>
      <trkpt lat="45.06406" lon="5.49488">
        <ele>1189</ele>
        <time>2016-09-11T10:56:52Z</time>
      </trkpt>
      <trkpt lat="45.06414" lon="5.49487">
        <ele>1189</ele>
        <time>2016-09-11T10:56:54Z</time>
      </trkpt>
      <trkpt lat="45.06419" lon="5.49491">
        <ele>1189</ele>
        <time>2016-09-11T10:56:55Z</time>
      </trkpt>
      <trkpt lat="45.06424" lon="5.49494">
        <ele>1189</ele>
        <time>2016-09-11T10:56:56Z</time>
      </trkpt>
      <trkpt lat="45.0643" lon="5.49497">
        <ele>1189</ele>
        <time>2016-09-11T10:56:57Z</time>
      </trkpt>
      <trkpt lat="45.0644" lon="5.49507">
        <ele>1189</ele>
        <time>2016-09-11T10:56:59Z</time>
      </trkpt>
      <trkpt lat="45.06447" lon="5.49516">
        <ele>1188</ele>
        <time>2016-09-11T10:57:01Z</time>
      </trkpt>
      <trkpt lat="45.0645" lon="5.49522">
        <ele>1188</ele>
        <time>2016-09-11T10:57:02Z</time>
      </trkpt>
      <trkpt lat="45.06456" lon="5.49525">
        <ele>1188</ele>
        <time>2016-09-11T10:57:04Z</time>
      </trkpt>
      <trkpt lat="45.06462" lon="5.49523">
        <ele>1188</ele>
        <time>2016-09-11T10:57:06Z</time>
      </trkpt>
      <trkpt lat="45.06466" lon="5.49521">
        <ele>1188</ele>
        <time>2016-09-11T10:57:08Z</time>
      </trkpt>
      <trkpt lat="45.06468" lon="5.49514">
        <ele>1186</ele>
        <time>2016-09-11T10:57:11Z</time>
      </trkpt>
      <trkpt lat="45.06464" lon="5.49513">
        <ele>1185</ele>
        <time>2016-09-11T10:57:18Z</time>
      </trkpt>
      <trkpt lat="45.06459" lon="5.49513">
        <ele>1184</ele>
        <time>2016-09-11T10:57:23Z</time>
      </trkpt>
      <trkpt lat="45.06457" lon="5.49514">
        <ele>1182</ele>
        <time>2016-09-11T10:57:45Z</time>
      </trkpt>
      <trkpt lat="45.06457" lon="5.49514">
        <ele>1180</ele>
        <time>2016-09-11T10:57:48Z</time>
      </trkpt>
      <trkpt lat="45.06457" lon="5.49514">
        <ele>1179</ele>
        <time>2016-09-11T10:58:15Z</time>
      </trkpt>
      <trkpt lat="45.06457" lon="5.49514">
        <ele>1178</ele>
        <time>2016-09-11T10:58:18Z</time>
      </trkpt>
      <trkpt lat="45.06456" lon="5.49515">
        <ele>1177</ele>
        <time>2016-09-11T10:58:45Z</time>
      </trkpt>
      <trkpt lat="45.06457" lon="5.49515">
        <ele>1177</ele>
        <time>2016-09-11T10:58:48Z</time>
      </trkpt>
      <trkpt lat="45.06461" lon="5.49512">
        <ele>1178</ele>
        <time>2016-09-11T10:59:14Z</time>
      </trkpt>
      <trkpt lat="45.06461" lon="5.49512">
        <ele>1179</ele>
        <time>2016-09-11T10:59:30Z</time>
      </trkpt>
      <trkpt lat="45.06461" lon="5.49512">
        <ele>1179</ele>
        <time>2016-09-11T10:59:33Z</time>
      </trkpt>
      <trkpt lat="45.06461" lon="5.4951">
        <ele>1180</ele>
        <time>2016-09-11T11:00:00Z</time>
      </trkpt>
      <trkpt lat="45.06461" lon="5.4951">
        <ele>1181</ele>
        <time>2016-09-11T11:00:03Z</time>
      </trkpt>
      <trkpt lat="45.06462" lon="5.49511">
        <ele>1181</ele>
        <time>2016-09-11T11:00:30Z</time>
      </trkpt>
      <trkpt lat="45.06462" lon="5.49511">
        <ele>1181</ele>
        <time>2016-09-11T11:00:33Z</time>
      </trkpt>
      <trkpt lat="45.06462" lon="5.4951">
        <ele>1182</ele>
        <time>2016-09-11T11:01:00Z</time>
      </trkpt>
      <trkpt lat="45.06462" lon="5.4951">
        <ele>1182</ele>
        <time>2016-09-11T11:01:03Z</time>
      </trkpt>
      <trkpt lat="45.06462" lon="5.4951">
        <ele>1182</ele>
        <time>2016-09-11T11:01:30Z</time>
      </trkpt>
      <trkpt lat="45.06462" lon="5.4951">
        <ele>1183</ele>
        <time>2016-09-11T11:01:33Z</time>
      </trkpt>
      <trkpt lat="45.06462" lon="5.4951">
        <ele>1183</ele>
        <time>2016-09-11T11:02:00Z</time>
      </trkpt>
      <trkpt lat="45.06462" lon="5.4951">
        <ele>1183</ele>
        <time>2016-09-11T11:02:03Z</time>
      </trkpt>
      <trkpt lat="45.06462" lon="5.4951">
        <ele>1183</ele>
        <time>2016-09-11T11:02:30Z</time>
      </trkpt>
      <trkpt lat="45.06462" lon="5.4951">
        <ele>1183</ele>
        <time>2016-09-11T11:02:33Z</time>
      </trkpt>
      <trkpt lat="45.06463" lon="5.4951">
        <ele>1183</ele>
        <time>2016-09-11T11:03:00Z</time>
      </trkpt>
      <trkpt lat="45.06463" lon="5.49509">
        <ele>1183</ele>
        <time>2016-09-11T11:03:03Z</time>
      </trkpt>
      <trkpt lat="45.06462" lon="5.49508">
        <ele>1183</ele>
        <time>2016-09-11T11:03:30Z</time>
      </trkpt>
      <trkpt lat="45.06462" lon="5.49508">
        <ele>1183</ele>
        <time>2016-09-11T11:03:33Z</time>
      </trkpt>
      <trkpt lat="45.06462" lon="5.49505">
        <ele>1183</ele>
        <time>2016-09-11T11:04:00Z</time>
      </trkpt>
      <trkpt lat="45.06462" lon="5.49505">
        <ele>1182</ele>
        <time>2016-09-11T11:04:03Z</time>
      </trkpt>
      <trkpt lat="45.06462" lon="5.49505">
        <ele>1182</ele>
        <time>2016-09-11T11:04:30Z</time>
      </trkpt>
      <trkpt lat="45.06462" lon="5.49505">
        <ele>1182</ele>
        <time>2016-09-11T11:04:33Z</time>
      </trkpt>
      <trkpt lat="45.06463" lon="5.49505">
        <ele>1181</ele>
        <time>2016-09-11T11:05:00Z</time>
      </trkpt>
      <trkpt lat="45.06463" lon="5.49505">
        <ele>1182</ele>
        <time>2016-09-11T11:05:03Z</time>
      </trkpt>
      <trkpt lat="45.06463" lon="5.49502">
        <ele>1182</ele>
        <time>2016-09-11T11:05:30Z</time>
      </trkpt>
      <trkpt lat="45.06463" lon="5.49502">
        <ele>1183</ele>
        <time>2016-09-11T11:05:33Z</time>
      </trkpt>
      <trkpt lat="45.06461" lon="5.49506">
        <ele>1183</ele>
        <time>2016-09-11T11:06:00Z</time>
      </trkpt>
      <trkpt lat="45.06461" lon="5.49506">
        <ele>1183</ele>
        <time>2016-09-11T11:06:03Z</time>
      </trkpt>
      <trkpt lat="45.06457" lon="5.49513">
        <ele>1183</ele>
        <time>2016-09-11T11:06:08Z</time>
      </trkpt>
      <trkpt lat="45.06456" lon="5.49521">
        <ele>1181</ele>
        <time>2016-09-11T11:06:11Z</time>
      </trkpt>
      <trkpt lat="45.06455" lon="5.4953">
        <ele>1181</ele>
        <time>2016-09-11T11:06:14Z</time>
      </trkpt>
      <trkpt lat="45.06456" lon="5.49537">
        <ele>1180</ele>
        <time>2016-09-11T11:06:17Z</time>
      </trkpt>
      <trkpt lat="45.06457" lon="5.49544">
        <ele>1180</ele>
        <time>2016-09-11T11:06:19Z</time>
      </trkpt>
      <trkpt lat="45.06458" lon="5.49551">
        <ele>1179</ele>
        <time>2016-09-11T11:06:21Z</time>
      </trkpt>
      <trkpt lat="45.06462" lon="5.49557">
        <ele>1180</ele>
        <time>2016-09-11T11:06:23Z</time>
      </trkpt>
      <trkpt lat="45.06467" lon="5.49564">
        <ele>1180</ele>
        <time>2016-09-11T11:06:25Z</time>
      </trkpt>
      <trkpt lat="45.06471" lon="5.49571">
        <ele>1180</ele>
        <time>2016-09-11T11:06:27Z</time>
      </trkpt>
      <trkpt lat="45.06475" lon="5.49578">
        <ele>1180</ele>
        <time>2016-09-11T11:06:29Z</time>
      </trkpt>
      <trkpt lat="45.0648" lon="5.49585">
        <ele>1181</ele>
        <time>2016-09-11T11:06:31Z</time>
      </trkpt>
      <trkpt lat="45.06484" lon="5.49594">
        <ele>1181</ele>
        <time>2016-09-11T11:06:33Z</time>
      </trkpt>
      <trkpt lat="45.06488" lon="5.49602">
        <ele>1180</ele>
        <time>2016-09-11T11:06:35Z</time>
      </trkpt>
      <trkpt lat="45.06492" lon="5.49612">
        <ele>1180</ele>
        <time>2016-09-11T11:06:37Z</time>
      </trkpt>
      <trkpt lat="45.06498" lon="5.4962">
        <ele>1179</ele>
        <time>2016-09-11T11:06:39Z</time>
      </trkpt>
      <trkpt lat="45.06504" lon="5.49628">
        <ele>1179</ele>
        <time>2016-09-11T11:06:41Z</time>
      </trkpt>
      <trkpt lat="45.0651" lon="5.49636">
        <ele>1179</ele>
        <time>2016-09-11T11:06:43Z</time>
      </trkpt>
      <trkpt lat="45.06517" lon="5.49642">
        <ele>1179</ele>
        <time>2016-09-11T11:06:45Z</time>
      </trkpt>
      <trkpt lat="45.06525" lon="5.49648">
        <ele>1179</ele>
        <time>2016-09-11T11:06:47Z</time>
      </trkpt>
      <trkpt lat="45.06532" lon="5.49654">
        <ele>1179</ele>
        <time>2016-09-11T11:06:49Z</time>
      </trkpt>
      <trkpt lat="45.06539" lon="5.49659">
        <ele>1178</ele>
        <time>2016-09-11T11:06:51Z</time>
      </trkpt>
      <trkpt lat="45.06546" lon="5.49664">
        <ele>1178</ele>
        <time>2016-09-11T11:06:53Z</time>
      </trkpt>
      <trkpt lat="45.0655" lon="5.49665">
        <ele>1178</ele>
        <time>2016-09-11T11:06:55Z</time>
      </trkpt>
      <trkpt lat="45.06556" lon="5.49667">
        <ele>1179</ele>
        <time>2016-09-11T11:06:58Z</time>
      </trkpt>
      <trkpt lat="45.06561" lon="5.49668">
        <ele>1180</ele>
        <time>2016-09-11T11:07:01Z</time>
      </trkpt>
      <trkpt lat="45.06566" lon="5.49672">
        <ele>1180</ele>
        <time>2016-09-11T11:07:03Z</time>
      </trkpt>
      <trkpt lat="45.06572" lon="5.4968">
        <ele>1180</ele>
        <time>2016-09-11T11:07:05Z</time>
      </trkpt>
      <trkpt lat="45.06575" lon="5.49686">
        <ele>1180</ele>
        <time>2016-09-11T11:07:06Z</time>
      </trkpt>
      <trkpt lat="45.06577" lon="5.49693">
        <ele>1180</ele>
        <time>2016-09-11T11:07:07Z</time>
      </trkpt>
      <trkpt lat="45.06578" lon="5.49699">
        <ele>1180</ele>
        <time>2016-09-11T11:07:08Z</time>
      </trkpt>
      <trkpt lat="45.06582" lon="5.49711">
        <ele>1180</ele>
        <time>2016-09-11T11:07:10Z</time>
      </trkpt>
      <trkpt lat="45.06585" lon="5.4972">
        <ele>1181</ele>
        <time>2016-09-11T11:07:11Z</time>
      </trkpt>
      <trkpt lat="45.06587" lon="5.49727">
        <ele>1182</ele>
        <time>2016-09-11T11:07:12Z</time>
      </trkpt>
      <trkpt lat="45.0659" lon="5.49738">
        <ele>1182</ele>
        <time>2016-09-11T11:07:14Z</time>
      </trkpt>
      <trkpt lat="45.06592" lon="5.49745">
        <ele>1182</ele>
        <time>2016-09-11T11:07:15Z</time>
      </trkpt>
      <trkpt lat="45.06598" lon="5.49749">
        <ele>1182</ele>
        <time>2016-09-11T11:07:16Z</time>
      </trkpt>
      <trkpt lat="45.06601" lon="5.49757">
        <ele>1181</ele>
        <time>2016-09-11T11:07:19Z</time>
      </trkpt>
      <trkpt lat="45.06604" lon="5.49764">
        <ele>1181</ele>
        <time>2016-09-11T11:07:20Z</time>
      </trkpt>
      <trkpt lat="45.06607" lon="5.49775">
        <ele>1181</ele>
        <time>2016-09-11T11:07:22Z</time>
      </trkpt>
      <trkpt lat="45.0661" lon="5.49782">
        <ele>1181</ele>
        <time>2016-09-11T11:07:23Z</time>
      </trkpt>
      <trkpt lat="45.06611" lon="5.49798">
        <ele>1181</ele>
        <time>2016-09-11T11:07:24Z</time>
      </trkpt>
      <trkpt lat="45.06612" lon="5.49806">
        <ele>1181</ele>
        <time>2016-09-11T11:07:25Z</time>
      </trkpt>
      <trkpt lat="45.06619" lon="5.49812">
        <ele>1180</ele>
        <time>2016-09-11T11:07:27Z</time>
      </trkpt>
      <trkpt lat="45.06623" lon="5.49819">
        <ele>1180</ele>
        <time>2016-09-11T11:07:28Z</time>
      </trkpt>
      <trkpt lat="45.06626" lon="5.49824">
        <ele>1179</ele>
        <time>2016-09-11T11:07:29Z</time>
      </trkpt>
      <trkpt lat="45.0663" lon="5.49829">
        <ele>1180</ele>
        <time>2016-09-11T11:07:30Z</time>
      </trkpt>
      <trkpt lat="45.06634" lon="5.49835">
        <ele>1180</ele>
        <time>2016-09-11T11:07:31Z</time>
      </trkpt>
      <trkpt lat="45.06632" lon="5.49843">
        <ele>1180</ele>
        <time>2016-09-11T11:07:32Z</time>
      </trkpt>
      <trkpt lat="45.06627" lon="5.49851">
        <ele>1181</ele>
        <time>2016-09-11T11:07:34Z</time>
      </trkpt>
      <trkpt lat="45.0662" lon="5.49856">
        <ele>1181</ele>
        <time>2016-09-11T11:07:35Z</time>
      </trkpt>
      <trkpt lat="45.06617" lon="5.49861">
        <ele>1182</ele>
        <time>2016-09-11T11:07:36Z</time>
      </trkpt>
      <trkpt lat="45.06614" lon="5.49866">
        <ele>1182</ele>
        <time>2016-09-11T11:07:37Z</time>
      </trkpt>
      <trkpt lat="45.0661" lon="5.49871">
        <ele>1183</ele>
        <time>2016-09-11T11:07:38Z</time>
      </trkpt>
      <trkpt lat="45.06604" lon="5.4988">
        <ele>1183</ele>
        <time>2016-09-11T11:07:39Z</time>
      </trkpt>
      <trkpt lat="45.06604" lon="5.49887">
        <ele>1184</ele>
        <time>2016-09-11T11:07:40Z</time>
      </trkpt>
      <trkpt lat="45.06604" lon="5.49897">
        <ele>1184</ele>
        <time>2016-09-11T11:07:42Z</time>
      </trkpt>
      <trkpt lat="45.06604" lon="5.49907">
        <ele>1185</ele>
        <time>2016-09-11T11:07:44Z</time>
      </trkpt>
      <trkpt lat="45.06611" lon="5.49914">
        <ele>1184</ele>
        <time>2016-09-11T11:07:45Z</time>
      </trkpt>
      <trkpt lat="45.06614" lon="5.49921">
        <ele>1184</ele>
        <time>2016-09-11T11:07:46Z</time>
      </trkpt>
      <trkpt lat="45.06619" lon="5.49936">
        <ele>1184</ele>
        <time>2016-09-11T11:07:48Z</time>
      </trkpt>
      <trkpt lat="45.06624" lon="5.49946">
        <ele>1183</ele>
        <time>2016-09-11T11:07:50Z</time>
      </trkpt>
      <trkpt lat="45.06628" lon="5.49956">
        <ele>1183</ele>
        <time>2016-09-11T11:07:52Z</time>
      </trkpt>
      <trkpt lat="45.0663" lon="5.49963">
        <ele>1182</ele>
        <time>2016-09-11T11:07:53Z</time>
      </trkpt>
      <trkpt lat="45.06631" lon="5.4997">
        <ele>1183</ele>
        <time>2016-09-11T11:07:54Z</time>
      </trkpt>
      <trkpt lat="45.06631" lon="5.49977">
        <ele>1183</ele>
        <time>2016-09-11T11:07:55Z</time>
      </trkpt>
      <trkpt lat="45.0663" lon="5.49983">
        <ele>1183</ele>
        <time>2016-09-11T11:07:56Z</time>
      </trkpt>
      <trkpt lat="45.06627" lon="5.4999">
        <ele>1183</ele>
        <time>2016-09-11T11:07:57Z</time>
      </trkpt>
      <trkpt lat="45.06617" lon="5.5">
        <ele>1183</ele>
        <time>2016-09-11T11:07:58Z</time>
      </trkpt>
      <trkpt lat="45.06611" lon="5.50007">
        <ele>1183</ele>
        <time>2016-09-11T11:07:59Z</time>
      </trkpt>
      <trkpt lat="45.06606" lon="5.50011">
        <ele>1183</ele>
        <time>2016-09-11T11:08:00Z</time>
      </trkpt>
      <trkpt lat="45.06601" lon="5.50017">
        <ele>1183</ele>
        <time>2016-09-11T11:08:01Z</time>
      </trkpt>
      <trkpt lat="45.06595" lon="5.50022">
        <ele>1184</ele>
        <time>2016-09-11T11:08:02Z</time>
      </trkpt>
      <trkpt lat="45.06589" lon="5.5002">
        <ele>1184</ele>
        <time>2016-09-11T11:08:03Z</time>
      </trkpt>
      <trkpt lat="45.0658" lon="5.50024">
        <ele>1184</ele>
        <time>2016-09-11T11:08:04Z</time>
      </trkpt>
      <trkpt lat="45.06572" lon="5.5003">
        <ele>1184</ele>
        <time>2016-09-11T11:08:05Z</time>
      </trkpt>
      <trkpt lat="45.06566" lon="5.50036">
        <ele>1184</ele>
        <time>2016-09-11T11:08:06Z</time>
      </trkpt>
      <trkpt lat="45.06557" lon="5.50038">
        <ele>1184</ele>
        <time>2016-09-11T11:08:08Z</time>
      </trkpt>
      <trkpt lat="45.06553" lon="5.5004">
        <ele>1184</ele>
        <time>2016-09-11T11:08:09Z</time>
      </trkpt>
      <trkpt lat="45.06548" lon="5.50042">
        <ele>1185</ele>
        <time>2016-09-11T11:08:10Z</time>
      </trkpt>
      <trkpt lat="45.06541" lon="5.50048">
        <ele>1185</ele>
        <time>2016-09-11T11:08:11Z</time>
      </trkpt>
      <trkpt lat="45.06536" lon="5.50049">
        <ele>1185</ele>
        <time>2016-09-11T11:08:12Z</time>
      </trkpt>
      <trkpt lat="45.06528" lon="5.50052">
        <ele>1186</ele>
        <time>2016-09-11T11:08:13Z</time>
      </trkpt>
      <trkpt lat="45.06524" lon="5.50054">
        <ele>1185</ele>
        <time>2016-09-11T11:08:14Z</time>
      </trkpt>
      <trkpt lat="45.06516" lon="5.50059">
        <ele>1185</ele>
        <time>2016-09-11T11:08:15Z</time>
      </trkpt>
      <trkpt lat="45.06509" lon="5.50066">
        <ele>1185</ele>
        <time>2016-09-11T11:08:16Z</time>
      </trkpt>
      <trkpt lat="45.06503" lon="5.50072">
        <ele>1185</ele>
        <time>2016-09-11T11:08:17Z</time>
      </trkpt>
      <trkpt lat="45.06497" lon="5.50079">
        <ele>1185</ele>
        <time>2016-09-11T11:08:18Z</time>
      </trkpt>
      <trkpt lat="45.0649" lon="5.50082">
        <ele>1185</ele>
        <time>2016-09-11T11:08:19Z</time>
      </trkpt>
      <trkpt lat="45.06482" lon="5.50085">
        <ele>1185</ele>
        <time>2016-09-11T11:08:20Z</time>
      </trkpt>
      <trkpt lat="45.06476" lon="5.50088">
        <ele>1184</ele>
        <time>2016-09-11T11:08:21Z</time>
      </trkpt>
      <trkpt lat="45.06469" lon="5.5009">
        <ele>1184</ele>
        <time>2016-09-11T11:08:22Z</time>
      </trkpt>
      <trkpt lat="45.06462" lon="5.50093">
        <ele>1182</ele>
        <time>2016-09-11T11:08:23Z</time>
      </trkpt>
      <trkpt lat="45.06454" lon="5.50098">
        <ele>1182</ele>
        <time>2016-09-11T11:08:24Z</time>
      </trkpt>
      <trkpt lat="45.0645" lon="5.50101">
        <ele>1181</ele>
        <time>2016-09-11T11:08:25Z</time>
      </trkpt>
      <trkpt lat="45.06443" lon="5.50107">
        <ele>1181</ele>
        <time>2016-09-11T11:08:26Z</time>
      </trkpt>
      <trkpt lat="45.06437" lon="5.50113">
        <ele>1180</ele>
        <time>2016-09-11T11:08:27Z</time>
      </trkpt>
      <trkpt lat="45.06432" lon="5.5012">
        <ele>1180</ele>
        <time>2016-09-11T11:08:28Z</time>
      </trkpt>
      <trkpt lat="45.06428" lon="5.5013">
        <ele>1181</ele>
        <time>2016-09-11T11:08:29Z</time>
      </trkpt>
      <trkpt lat="45.06427" lon="5.50138">
        <ele>1181</ele>
        <time>2016-09-11T11:08:30Z</time>
      </trkpt>
      <trkpt lat="45.06421" lon="5.50145">
        <ele>1181</ele>
        <time>2016-09-11T11:08:31Z</time>
      </trkpt>
      <trkpt lat="45.06417" lon="5.50153">
        <ele>1181</ele>
        <time>2016-09-11T11:08:32Z</time>
      </trkpt>
      <trkpt lat="45.06411" lon="5.5016">
        <ele>1181</ele>
        <time>2016-09-11T11:08:33Z</time>
      </trkpt>
      <trkpt lat="45.06408" lon="5.50167">
        <ele>1181</ele>
        <time>2016-09-11T11:08:34Z</time>
      </trkpt>
      <trkpt lat="45.06403" lon="5.50175">
        <ele>1181</ele>
        <time>2016-09-11T11:08:35Z</time>
      </trkpt>
      <trkpt lat="45.064" lon="5.50182">
        <ele>1181</ele>
        <time>2016-09-11T11:08:36Z</time>
      </trkpt>
      <trkpt lat="45.06396" lon="5.50193">
        <ele>1181</ele>
        <time>2016-09-11T11:08:37Z</time>
      </trkpt>
      <trkpt lat="45.06391" lon="5.50203">
        <ele>1181</ele>
        <time>2016-09-11T11:08:38Z</time>
      </trkpt>
      <trkpt lat="45.06386" lon="5.50212">
        <ele>1182</ele>
        <time>2016-09-11T11:08:39Z</time>
      </trkpt>
      <trkpt lat="45.06382" lon="5.50218">
        <ele>1182</ele>
        <time>2016-09-11T11:08:40Z</time>
      </trkpt>
      <trkpt lat="45.06378" lon="5.50228">
        <ele>1183</ele>
        <time>2016-09-11T11:08:41Z</time>
      </trkpt>
      <trkpt lat="45.06373" lon="5.50237">
        <ele>1184</ele>
        <time>2016-09-11T11:08:42Z</time>
      </trkpt>
      <trkpt lat="45.0637" lon="5.50242">
        <ele>1185</ele>
        <time>2016-09-11T11:08:43Z</time>
      </trkpt>
      <trkpt lat="45.06366" lon="5.50253">
        <ele>1185</ele>
        <time>2016-09-11T11:08:44Z</time>
      </trkpt>
      <trkpt lat="45.06362" lon="5.50264">
        <ele>1185</ele>
        <time>2016-09-11T11:08:46Z</time>
      </trkpt>
      <trkpt lat="45.06357" lon="5.50272">
        <ele>1186</ele>
        <time>2016-09-11T11:08:47Z</time>
      </trkpt>
      <trkpt lat="45.06353" lon="5.50281">
        <ele>1186</ele>
        <time>2016-09-11T11:08:48Z</time>
      </trkpt>
      <trkpt lat="45.0635" lon="5.5029">
        <ele>1187</ele>
        <time>2016-09-11T11:08:49Z</time>
      </trkpt>
      <trkpt lat="45.06345" lon="5.503">
        <ele>1188</ele>
        <time>2016-09-11T11:08:50Z</time>
      </trkpt>
      <trkpt lat="45.06341" lon="5.50311">
        <ele>1188</ele>
        <time>2016-09-11T11:08:51Z</time>
      </trkpt>
      <trkpt lat="45.06338" lon="5.50322">
        <ele>1188</ele>
        <time>2016-09-11T11:08:52Z</time>
      </trkpt>
      <trkpt lat="45.06335" lon="5.50332">
        <ele>1188</ele>
        <time>2016-09-11T11:08:53Z</time>
      </trkpt>
      <trkpt lat="45.06335" lon="5.50341">
        <ele>1188</ele>
        <time>2016-09-11T11:08:54Z</time>
      </trkpt>
      <trkpt lat="45.06332" lon="5.50351">
        <ele>1188</ele>
        <time>2016-09-11T11:08:55Z</time>
      </trkpt>
      <trkpt lat="45.06329" lon="5.5036">
        <ele>1189</ele>
        <time>2016-09-11T11:08:56Z</time>
      </trkpt>
      <trkpt lat="45.06326" lon="5.50371">
        <ele>1190</ele>
        <time>2016-09-11T11:08:57Z</time>
      </trkpt>
      <trkpt lat="45.06321" lon="5.50381">
        <ele>1190</ele>
        <time>2016-09-11T11:08:58Z</time>
      </trkpt>
      <trkpt lat="45.06323" lon="5.50388">
        <ele>1190</ele>
        <time>2016-09-11T11:08:59Z</time>
      </trkpt>
      <trkpt lat="45.06308" lon="5.50396">
        <ele>1190</ele>
        <time>2016-09-11T11:09:00Z</time>
      </trkpt>
      <trkpt lat="45.06306" lon="5.50408">
        <ele>1189</ele>
        <time>2016-09-11T11:09:01Z</time>
      </trkpt>
      <trkpt lat="45.06301" lon="5.50415">
        <ele>1189</ele>
        <time>2016-09-11T11:09:02Z</time>
      </trkpt>
      <trkpt lat="45.06293" lon="5.50425">
        <ele>1188</ele>
        <time>2016-09-11T11:09:03Z</time>
      </trkpt>
      <trkpt lat="45.0629" lon="5.50433">
        <ele>1188</ele>
        <time>2016-09-11T11:09:04Z</time>
      </trkpt>
      <trkpt lat="45.06287" lon="5.50438">
        <ele>1188</ele>
        <time>2016-09-11T11:09:05Z</time>
      </trkpt>
      <trkpt lat="45.06274" lon="5.50454">
        <ele>1188</ele>
        <time>2016-09-11T11:09:07Z</time>
      </trkpt>
      <trkpt lat="45.06271" lon="5.50463">
        <ele>1188</ele>
        <time>2016-09-11T11:09:08Z</time>
      </trkpt>
      <trkpt lat="45.06266" lon="5.50471">
        <ele>1188</ele>
        <time>2016-09-11T11:09:09Z</time>
      </trkpt>
      <trkpt lat="45.06261" lon="5.50478">
        <ele>1188</ele>
        <time>2016-09-11T11:09:10Z</time>
      </trkpt>
      <trkpt lat="45.06255" lon="5.50482">
        <ele>1188</ele>
        <time>2016-09-11T11:09:11Z</time>
      </trkpt>
      <trkpt lat="45.06251" lon="5.50488">
        <ele>1187</ele>
        <time>2016-09-11T11:09:12Z</time>
      </trkpt>
      <trkpt lat="45.06244" lon="5.50496">
        <ele>1186</ele>
        <time>2016-09-11T11:09:13Z</time>
      </trkpt>
      <trkpt lat="45.06235" lon="5.50502">
        <ele>1185</ele>
        <time>2016-09-11T11:09:14Z</time>
      </trkpt>
      <trkpt lat="45.06225" lon="5.50512">
        <ele>1185</ele>
        <time>2016-09-11T11:09:15Z</time>
      </trkpt>
      <trkpt lat="45.06218" lon="5.50522">
        <ele>1184</ele>
        <time>2016-09-11T11:09:16Z</time>
      </trkpt>
      <trkpt lat="45.06209" lon="5.50531">
        <ele>1184</ele>
        <time>2016-09-11T11:09:17Z</time>
      </trkpt>
      <trkpt lat="45.06202" lon="5.50537">
        <ele>1184</ele>
        <time>2016-09-11T11:09:18Z</time>
      </trkpt>
      <trkpt lat="45.06194" lon="5.50546">
        <ele>1184</ele>
        <time>2016-09-11T11:09:19Z</time>
      </trkpt>
      <trkpt lat="45.06189" lon="5.50554">
        <ele>1183</ele>
        <time>2016-09-11T11:09:20Z</time>
      </trkpt>
      <trkpt lat="45.06185" lon="5.50561">
        <ele>1183</ele>
        <time>2016-09-11T11:09:21Z</time>
      </trkpt>
      <trkpt lat="45.06179" lon="5.50572">
        <ele>1182</ele>
        <time>2016-09-11T11:09:22Z</time>
      </trkpt>
      <trkpt lat="45.06176" lon="5.50582">
        <ele>1181</ele>
        <time>2016-09-11T11:09:23Z</time>
      </trkpt>
      <trkpt lat="45.06172" lon="5.50594">
        <ele>1181</ele>
        <time>2016-09-11T11:09:24Z</time>
      </trkpt>
      <trkpt lat="45.06169" lon="5.50604">
        <ele>1181</ele>
        <time>2016-09-11T11:09:25Z</time>
      </trkpt>
      <trkpt lat="45.06167" lon="5.50615">
        <ele>1180</ele>
        <time>2016-09-11T11:09:26Z</time>
      </trkpt>
      <trkpt lat="45.06165" lon="5.50629">
        <ele>1180</ele>
        <time>2016-09-11T11:09:27Z</time>
      </trkpt>
      <trkpt lat="45.06161" lon="5.50638">
        <ele>1180</ele>
        <time>2016-09-11T11:09:28Z</time>
      </trkpt>
      <trkpt lat="45.06153" lon="5.50647">
        <ele>1179</ele>
        <time>2016-09-11T11:09:29Z</time>
      </trkpt>
      <trkpt lat="45.0615" lon="5.50655">
        <ele>1179</ele>
        <time>2016-09-11T11:09:30Z</time>
      </trkpt>
      <trkpt lat="45.06141" lon="5.5066">
        <ele>1179</ele>
        <time>2016-09-11T11:09:31Z</time>
      </trkpt>
      <trkpt lat="45.06134" lon="5.50667">
        <ele>1179</ele>
        <time>2016-09-11T11:09:32Z</time>
      </trkpt>
      <trkpt lat="45.06126" lon="5.50674">
        <ele>1179</ele>
        <time>2016-09-11T11:09:33Z</time>
      </trkpt>
      <trkpt lat="45.06118" lon="5.50681">
        <ele>1179</ele>
        <time>2016-09-11T11:09:34Z</time>
      </trkpt>
      <trkpt lat="45.06109" lon="5.50689">
        <ele>1180</ele>
        <time>2016-09-11T11:09:35Z</time>
      </trkpt>
      <trkpt lat="45.06102" lon="5.50694">
        <ele>1181</ele>
        <time>2016-09-11T11:09:36Z</time>
      </trkpt>
      <trkpt lat="45.06095" lon="5.50704">
        <ele>1181</ele>
        <time>2016-09-11T11:09:37Z</time>
      </trkpt>
      <trkpt lat="45.06088" lon="5.50709">
        <ele>1182</ele>
        <time>2016-09-11T11:09:38Z</time>
      </trkpt>
      <trkpt lat="45.06079" lon="5.50715">
        <ele>1181</ele>
        <time>2016-09-11T11:09:39Z</time>
      </trkpt>
      <trkpt lat="45.0607" lon="5.5072">
        <ele>1179</ele>
        <time>2016-09-11T11:09:40Z</time>
      </trkpt>
      <trkpt lat="45.06063" lon="5.50724">
        <ele>1177</ele>
        <time>2016-09-11T11:09:41Z</time>
      </trkpt>
      <trkpt lat="45.06054" lon="5.50731">
        <ele>1176</ele>
        <time>2016-09-11T11:09:42Z</time>
      </trkpt>
      <trkpt lat="45.06044" lon="5.50738">
        <ele>1175</ele>
        <time>2016-09-11T11:09:43Z</time>
      </trkpt>
      <trkpt lat="45.06036" lon="5.50744">
        <ele>1175</ele>
        <time>2016-09-11T11:09:44Z</time>
      </trkpt>
      <trkpt lat="45.06027" lon="5.50752">
        <ele>1175</ele>
        <time>2016-09-11T11:09:45Z</time>
      </trkpt>
      <trkpt lat="45.06018" lon="5.50758">
        <ele>1176</ele>
        <time>2016-09-11T11:09:46Z</time>
      </trkpt>
      <trkpt lat="45.0601" lon="5.50767">
        <ele>1176</ele>
        <time>2016-09-11T11:09:47Z</time>
      </trkpt>
      <trkpt lat="45.06003" lon="5.50773">
        <ele>1177</ele>
        <time>2016-09-11T11:09:48Z</time>
      </trkpt>
      <trkpt lat="45.05996" lon="5.50779">
        <ele>1177</ele>
        <time>2016-09-11T11:09:49Z</time>
      </trkpt>
      <trkpt lat="45.05988" lon="5.50788">
        <ele>1177</ele>
        <time>2016-09-11T11:09:50Z</time>
      </trkpt>
      <trkpt lat="45.05981" lon="5.50794">
        <ele>1176</ele>
        <time>2016-09-11T11:09:51Z</time>
      </trkpt>
      <trkpt lat="45.05975" lon="5.50804">
        <ele>1176</ele>
        <time>2016-09-11T11:09:52Z</time>
      </trkpt>
      <trkpt lat="45.0597" lon="5.50814">
        <ele>1176</ele>
        <time>2016-09-11T11:09:53Z</time>
      </trkpt>
      <trkpt lat="45.05963" lon="5.50827">
        <ele>1176</ele>
        <time>2016-09-11T11:09:54Z</time>
      </trkpt>
      <trkpt lat="45.05959" lon="5.50836">
        <ele>1176</ele>
        <time>2016-09-11T11:09:55Z</time>
      </trkpt>
      <trkpt lat="45.05953" lon="5.50847">
        <ele>1176</ele>
        <time>2016-09-11T11:09:56Z</time>
      </trkpt>
      <trkpt lat="45.05946" lon="5.50859">
        <ele>1176</ele>
        <time>2016-09-11T11:09:57Z</time>
      </trkpt>
      <trkpt lat="45.05939" lon="5.50868">
        <ele>1177</ele>
        <time>2016-09-11T11:09:58Z</time>
      </trkpt>
      <trkpt lat="45.05931" lon="5.50875">
        <ele>1177</ele>
        <time>2016-09-11T11:09:59Z</time>
      </trkpt>
      <trkpt lat="45.05924" lon="5.5088">
        <ele>1176</ele>
        <time>2016-09-11T11:10:00Z</time>
      </trkpt>
      <trkpt lat="45.05915" lon="5.50888">
        <ele>1176</ele>
        <time>2016-09-11T11:10:01Z</time>
      </trkpt>
      <trkpt lat="45.05907" lon="5.50896">
        <ele>1176</ele>
        <time>2016-09-11T11:10:02Z</time>
      </trkpt>
      <trkpt lat="45.05899" lon="5.50905">
        <ele>1175</ele>
        <time>2016-09-11T11:10:03Z</time>
      </trkpt>
      <trkpt lat="45.05891" lon="5.50915">
        <ele>1175</ele>
        <time>2016-09-11T11:10:04Z</time>
      </trkpt>
      <trkpt lat="45.05886" lon="5.50925">
        <ele>1174</ele>
        <time>2016-09-11T11:10:05Z</time>
      </trkpt>
      <trkpt lat="45.05882" lon="5.50937">
        <ele>1173</ele>
        <time>2016-09-11T11:10:06Z</time>
      </trkpt>
      <trkpt lat="45.05877" lon="5.50949">
        <ele>1173</ele>
        <time>2016-09-11T11:10:07Z</time>
      </trkpt>
      <trkpt lat="45.05871" lon="5.50957">
        <ele>1172</ele>
        <time>2016-09-11T11:10:08Z</time>
      </trkpt>
      <trkpt lat="45.05865" lon="5.50966">
        <ele>1172</ele>
        <time>2016-09-11T11:10:09Z</time>
      </trkpt>
      <trkpt lat="45.05858" lon="5.50979">
        <ele>1171</ele>
        <time>2016-09-11T11:10:10Z</time>
      </trkpt>
      <trkpt lat="45.05851" lon="5.50987">
        <ele>1171</ele>
        <time>2016-09-11T11:10:11Z</time>
      </trkpt>
      <trkpt lat="45.05845" lon="5.50997">
        <ele>1171</ele>
        <time>2016-09-11T11:10:12Z</time>
      </trkpt>
      <trkpt lat="45.05838" lon="5.51004">
        <ele>1171</ele>
        <time>2016-09-11T11:10:13Z</time>
      </trkpt>
      <trkpt lat="45.05832" lon="5.51013">
        <ele>1172</ele>
        <time>2016-09-11T11:10:14Z</time>
      </trkpt>
      <trkpt lat="45.05823" lon="5.5102">
        <ele>1172</ele>
        <time>2016-09-11T11:10:15Z</time>
      </trkpt>
      <trkpt lat="45.05814" lon="5.51025">
        <ele>1171</ele>
        <time>2016-09-11T11:10:16Z</time>
      </trkpt>
      <trkpt lat="45.05805" lon="5.51029">
        <ele>1171</ele>
        <time>2016-09-11T11:10:17Z</time>
      </trkpt>
      <trkpt lat="45.05797" lon="5.51034">
        <ele>1170</ele>
        <time>2016-09-11T11:10:18Z</time>
      </trkpt>
      <trkpt lat="45.0579" lon="5.51038">
        <ele>1170</ele>
        <time>2016-09-11T11:10:19Z</time>
      </trkpt>
      <trkpt lat="45.0578" lon="5.51041">
        <ele>1169</ele>
        <time>2016-09-11T11:10:20Z</time>
      </trkpt>
      <trkpt lat="45.05772" lon="5.51043">
        <ele>1169</ele>
        <time>2016-09-11T11:10:21Z</time>
      </trkpt>
      <trkpt lat="45.05764" lon="5.51046">
        <ele>1168</ele>
        <time>2016-09-11T11:10:22Z</time>
      </trkpt>
      <trkpt lat="45.05755" lon="5.51051">
        <ele>1168</ele>
        <time>2016-09-11T11:10:23Z</time>
      </trkpt>
      <trkpt lat="45.05747" lon="5.51055">
        <ele>1167</ele>
        <time>2016-09-11T11:10:24Z</time>
      </trkpt>
      <trkpt lat="45.05738" lon="5.51062">
        <ele>1167</ele>
        <time>2016-09-11T11:10:25Z</time>
      </trkpt>
      <trkpt lat="45.05729" lon="5.51071">
        <ele>1167</ele>
        <time>2016-09-11T11:10:26Z</time>
      </trkpt>
      <trkpt lat="45.05718" lon="5.51082">
        <ele>1167</ele>
        <time>2016-09-11T11:10:27Z</time>
      </trkpt>
      <trkpt lat="45.05721" lon="5.51091">
        <ele>1167</ele>
        <time>2016-09-11T11:10:28Z</time>
      </trkpt>
      <trkpt lat="45.05716" lon="5.51101">
        <ele>1168</ele>
        <time>2016-09-11T11:10:29Z</time>
      </trkpt>
      <trkpt lat="45.05714" lon="5.51113">
        <ele>1169</ele>
        <time>2016-09-11T11:10:30Z</time>
      </trkpt>
      <trkpt lat="45.0571" lon="5.51119">
        <ele>1170</ele>
        <time>2016-09-11T11:10:31Z</time>
      </trkpt>
      <trkpt lat="45.05706" lon="5.51126">
        <ele>1171</ele>
        <time>2016-09-11T11:10:32Z</time>
      </trkpt>
      <trkpt lat="45.057" lon="5.51131">
        <ele>1171</ele>
        <time>2016-09-11T11:10:33Z</time>
      </trkpt>
      <trkpt lat="45.05693" lon="5.5114">
        <ele>1171</ele>
        <time>2016-09-11T11:10:34Z</time>
      </trkpt>
      <trkpt lat="45.05685" lon="5.51141">
        <ele>1171</ele>
        <time>2016-09-11T11:10:35Z</time>
      </trkpt>
      <trkpt lat="45.05678" lon="5.51143">
        <ele>1171</ele>
        <time>2016-09-11T11:10:36Z</time>
      </trkpt>
      <trkpt lat="45.0567" lon="5.51138">
        <ele>1171</ele>
        <time>2016-09-11T11:10:37Z</time>
      </trkpt>
      <trkpt lat="45.05663" lon="5.51136">
        <ele>1171</ele>
        <time>2016-09-11T11:10:38Z</time>
      </trkpt>
      <trkpt lat="45.05659" lon="5.51128">
        <ele>1171</ele>
        <time>2016-09-11T11:10:39Z</time>
      </trkpt>
      <trkpt lat="45.05652" lon="5.51129">
        <ele>1170</ele>
        <time>2016-09-11T11:10:40Z</time>
      </trkpt>
      <trkpt lat="45.05641" lon="5.5113">
        <ele>1170</ele>
        <time>2016-09-11T11:10:41Z</time>
      </trkpt>
      <trkpt lat="45.05631" lon="5.51131">
        <ele>1169</ele>
        <time>2016-09-11T11:10:42Z</time>
      </trkpt>
      <trkpt lat="45.05622" lon="5.51129">
        <ele>1169</ele>
        <time>2016-09-11T11:10:43Z</time>
      </trkpt>
      <trkpt lat="45.05612" lon="5.51132">
        <ele>1169</ele>
        <time>2016-09-11T11:10:44Z</time>
      </trkpt>
      <trkpt lat="45.05607" lon="5.51126">
        <ele>1168</ele>
        <time>2016-09-11T11:10:45Z</time>
      </trkpt>
      <trkpt lat="45.056" lon="5.51126">
        <ele>1168</ele>
        <time>2016-09-11T11:10:46Z</time>
      </trkpt>
      <trkpt lat="45.05592" lon="5.51128">
        <ele>1168</ele>
        <time>2016-09-11T11:10:47Z</time>
      </trkpt>
      <trkpt lat="45.05586" lon="5.51135">
        <ele>1168</ele>
        <time>2016-09-11T11:10:48Z</time>
      </trkpt>
      <trkpt lat="45.05582" lon="5.5114">
        <ele>1167</ele>
        <time>2016-09-11T11:10:49Z</time>
      </trkpt>
      <trkpt lat="45.05578" lon="5.51148">
        <ele>1167</ele>
        <time>2016-09-11T11:10:50Z</time>
      </trkpt>
      <trkpt lat="45.05577" lon="5.51159">
        <ele>1167</ele>
        <time>2016-09-11T11:10:52Z</time>
      </trkpt>
      <trkpt lat="45.05579" lon="5.51167">
        <ele>1167</ele>
        <time>2016-09-11T11:10:55Z</time>
      </trkpt>
      <trkpt lat="45.05583" lon="5.51177">
        <ele>1167</ele>
        <time>2016-09-11T11:10:57Z</time>
      </trkpt>
      <trkpt lat="45.05586" lon="5.51188">
        <ele>1168</ele>
        <time>2016-09-11T11:10:59Z</time>
      </trkpt>
      <trkpt lat="45.0559" lon="5.51198">
        <ele>1168</ele>
        <time>2016-09-11T11:11:01Z</time>
      </trkpt>
      <trkpt lat="45.05594" lon="5.51205">
        <ele>1167</ele>
        <time>2016-09-11T11:11:02Z</time>
      </trkpt>
      <trkpt lat="45.05598" lon="5.5121">
        <ele>1167</ele>
        <time>2016-09-11T11:11:03Z</time>
      </trkpt>
      <trkpt lat="45.05603" lon="5.51217">
        <ele>1166</ele>
        <time>2016-09-11T11:11:04Z</time>
      </trkpt>
      <trkpt lat="45.05609" lon="5.51224">
        <ele>1165</ele>
        <time>2016-09-11T11:11:05Z</time>
      </trkpt>
      <trkpt lat="45.05615" lon="5.51233">
        <ele>1164</ele>
        <time>2016-09-11T11:11:06Z</time>
      </trkpt>
      <trkpt lat="45.0562" lon="5.5124">
        <ele>1164</ele>
        <time>2016-09-11T11:11:07Z</time>
      </trkpt>
      <trkpt lat="45.05625" lon="5.51249">
        <ele>1163</ele>
        <time>2016-09-11T11:11:08Z</time>
      </trkpt>
      <trkpt lat="45.05629" lon="5.51259">
        <ele>1163</ele>
        <time>2016-09-11T11:11:09Z</time>
      </trkpt>
      <trkpt lat="45.05633" lon="5.5127">
        <ele>1163</ele>
        <time>2016-09-11T11:11:10Z</time>
      </trkpt>
      <trkpt lat="45.05637" lon="5.51283">
        <ele>1163</ele>
        <time>2016-09-11T11:11:11Z</time>
      </trkpt>
      <trkpt lat="45.05639" lon="5.51294">
        <ele>1163</ele>
        <time>2016-09-11T11:11:12Z</time>
      </trkpt>
      <trkpt lat="45.05644" lon="5.51307">
        <ele>1163</ele>
        <time>2016-09-11T11:11:13Z</time>
      </trkpt>
      <trkpt lat="45.05646" lon="5.51319">
        <ele>1163</ele>
        <time>2016-09-11T11:11:14Z</time>
      </trkpt>
      <trkpt lat="45.05646" lon="5.5133">
        <ele>1162</ele>
        <time>2016-09-11T11:11:15Z</time>
      </trkpt>
      <trkpt lat="45.05644" lon="5.51341">
        <ele>1161</ele>
        <time>2016-09-11T11:11:16Z</time>
      </trkpt>
      <trkpt lat="45.05644" lon="5.51352">
        <ele>1161</ele>
        <time>2016-09-11T11:11:17Z</time>
      </trkpt>
      <trkpt lat="45.0564" lon="5.5136">
        <ele>1160</ele>
        <time>2016-09-11T11:11:18Z</time>
      </trkpt>
      <trkpt lat="45.05632" lon="5.51366">
        <ele>1160</ele>
        <time>2016-09-11T11:11:19Z</time>
      </trkpt>
      <trkpt lat="45.05624" lon="5.5137">
        <ele>1159</ele>
        <time>2016-09-11T11:11:20Z</time>
      </trkpt>
      <trkpt lat="45.05618" lon="5.51375">
        <ele>1159</ele>
        <time>2016-09-11T11:11:21Z</time>
      </trkpt>
      <trkpt lat="45.05612" lon="5.51381">
        <ele>1158</ele>
        <time>2016-09-11T11:11:22Z</time>
      </trkpt>
      <trkpt lat="45.05607" lon="5.51389">
        <ele>1157</ele>
        <time>2016-09-11T11:11:23Z</time>
      </trkpt>
      <trkpt lat="45.05602" lon="5.51399">
        <ele>1157</ele>
        <time>2016-09-11T11:11:24Z</time>
      </trkpt>
      <trkpt lat="45.056" lon="5.51407">
        <ele>1157</ele>
        <time>2016-09-11T11:11:25Z</time>
      </trkpt>
      <trkpt lat="45.05603" lon="5.51415">
        <ele>1157</ele>
        <time>2016-09-11T11:11:26Z</time>
      </trkpt>
      <trkpt lat="45.05603" lon="5.51425">
        <ele>1157</ele>
        <time>2016-09-11T11:11:27Z</time>
      </trkpt>
      <trkpt lat="45.05605" lon="5.51436">
        <ele>1157</ele>
        <time>2016-09-11T11:11:28Z</time>
      </trkpt>
      <trkpt lat="45.05609" lon="5.51448">
        <ele>1157</ele>
        <time>2016-09-11T11:11:29Z</time>
      </trkpt>
      <trkpt lat="45.0561" lon="5.51457">
        <ele>1157</ele>
        <time>2016-09-11T11:11:30Z</time>
      </trkpt>
      <trkpt lat="45.05615" lon="5.51469">
        <ele>1156</ele>
        <time>2016-09-11T11:11:31Z</time>
      </trkpt>
      <trkpt lat="45.05612" lon="5.51478">
        <ele>1156</ele>
        <time>2016-09-11T11:11:32Z</time>
      </trkpt>
      <trkpt lat="45.0561" lon="5.51489">
        <ele>1155</ele>
        <time>2016-09-11T11:11:33Z</time>
      </trkpt>
      <trkpt lat="45.05605" lon="5.51496">
        <ele>1155</ele>
        <time>2016-09-11T11:11:34Z</time>
      </trkpt>
      <trkpt lat="45.056" lon="5.51503">
        <ele>1155</ele>
        <time>2016-09-11T11:11:35Z</time>
      </trkpt>
      <trkpt lat="45.05593" lon="5.51509">
        <ele>1154</ele>
        <time>2016-09-11T11:11:36Z</time>
      </trkpt>
      <trkpt lat="45.05585" lon="5.51515">
        <ele>1154</ele>
        <time>2016-09-11T11:11:37Z</time>
      </trkpt>
      <trkpt lat="45.05576" lon="5.51517">
        <ele>1153</ele>
        <time>2016-09-11T11:11:38Z</time>
      </trkpt>
      <trkpt lat="45.05568" lon="5.5152">
        <ele>1152</ele>
        <time>2016-09-11T11:11:39Z</time>
      </trkpt>
      <trkpt lat="45.0556" lon="5.51522">
        <ele>1152</ele>
        <time>2016-09-11T11:11:40Z</time>
      </trkpt>
      <trkpt lat="45.05551" lon="5.51525">
        <ele>1151</ele>
        <time>2016-09-11T11:11:41Z</time>
      </trkpt>
      <trkpt lat="45.05546" lon="5.5153">
        <ele>1150</ele>
        <time>2016-09-11T11:11:42Z</time>
      </trkpt>
      <trkpt lat="45.05542" lon="5.51537">
        <ele>1150</ele>
        <time>2016-09-11T11:11:43Z</time>
      </trkpt>
      <trkpt lat="45.05539" lon="5.51543">
        <ele>1149</ele>
        <time>2016-09-11T11:11:44Z</time>
      </trkpt>
      <trkpt lat="45.05537" lon="5.51551">
        <ele>1149</ele>
        <time>2016-09-11T11:11:45Z</time>
      </trkpt>
      <trkpt lat="45.05536" lon="5.51559">
        <ele>1149</ele>
        <time>2016-09-11T11:11:46Z</time>
      </trkpt>
      <trkpt lat="45.05535" lon="5.51567">
        <ele>1148</ele>
        <time>2016-09-11T11:11:47Z</time>
      </trkpt>
      <trkpt lat="45.05536" lon="5.51576">
        <ele>1148</ele>
        <time>2016-09-11T11:11:48Z</time>
      </trkpt>
      <trkpt lat="45.05537" lon="5.51586">
        <ele>1147</ele>
        <time>2016-09-11T11:11:49Z</time>
      </trkpt>
      <trkpt lat="45.05538" lon="5.51597">
        <ele>1147</ele>
        <time>2016-09-11T11:11:50Z</time>
      </trkpt>
      <trkpt lat="45.05539" lon="5.51606">
        <ele>1146</ele>
        <time>2016-09-11T11:11:51Z</time>
      </trkpt>
      <trkpt lat="45.05537" lon="5.51615">
        <ele>1146</ele>
        <time>2016-09-11T11:11:52Z</time>
      </trkpt>
      <trkpt lat="45.05539" lon="5.51623">
        <ele>1146</ele>
        <time>2016-09-11T11:11:53Z</time>
      </trkpt>
      <trkpt lat="45.05539" lon="5.5163">
        <ele>1146</ele>
        <time>2016-09-11T11:11:54Z</time>
      </trkpt>
      <trkpt lat="45.05543" lon="5.5164">
        <ele>1145</ele>
        <time>2016-09-11T11:11:55Z</time>
      </trkpt>
      <trkpt lat="45.05547" lon="5.51646">
        <ele>1145</ele>
        <time>2016-09-11T11:11:56Z</time>
      </trkpt>
      <trkpt lat="45.05553" lon="5.51653">
        <ele>1145</ele>
        <time>2016-09-11T11:11:57Z</time>
      </trkpt>
      <trkpt lat="45.0556" lon="5.51663">
        <ele>1144</ele>
        <time>2016-09-11T11:11:58Z</time>
      </trkpt>
      <trkpt lat="45.05566" lon="5.5167">
        <ele>1144</ele>
        <time>2016-09-11T11:11:59Z</time>
      </trkpt>
      <trkpt lat="45.05566" lon="5.51678">
        <ele>1143</ele>
        <time>2016-09-11T11:12:00Z</time>
      </trkpt>
      <trkpt lat="45.05568" lon="5.51686">
        <ele>1143</ele>
        <time>2016-09-11T11:12:01Z</time>
      </trkpt>
      <trkpt lat="45.0557" lon="5.51696">
        <ele>1143</ele>
        <time>2016-09-11T11:12:02Z</time>
      </trkpt>
      <trkpt lat="45.05571" lon="5.51706">
        <ele>1143</ele>
        <time>2016-09-11T11:12:03Z</time>
      </trkpt>
      <trkpt lat="45.05573" lon="5.51718">
        <ele>1142</ele>
        <time>2016-09-11T11:12:04Z</time>
      </trkpt>
      <trkpt lat="45.05574" lon="5.51728">
        <ele>1142</ele>
        <time>2016-09-11T11:12:05Z</time>
      </trkpt>
      <trkpt lat="45.0557" lon="5.51736">
        <ele>1142</ele>
        <time>2016-09-11T11:12:06Z</time>
      </trkpt>
      <trkpt lat="45.05577" lon="5.51745">
        <ele>1141</ele>
        <time>2016-09-11T11:12:07Z</time>
      </trkpt>
      <trkpt lat="45.05578" lon="5.51753">
        <ele>1141</ele>
        <time>2016-09-11T11:12:08Z</time>
      </trkpt>
      <trkpt lat="45.05583" lon="5.51762">
        <ele>1140</ele>
        <time>2016-09-11T11:12:09Z</time>
      </trkpt>
      <trkpt lat="45.05586" lon="5.51771">
        <ele>1139</ele>
        <time>2016-09-11T11:12:10Z</time>
      </trkpt>
      <trkpt lat="45.05587" lon="5.51778">
        <ele>1138</ele>
        <time>2016-09-11T11:12:11Z</time>
      </trkpt>
      <trkpt lat="45.05589" lon="5.51787">
        <ele>1137</ele>
        <time>2016-09-11T11:12:12Z</time>
      </trkpt>
      <trkpt lat="45.05591" lon="5.51795">
        <ele>1137</ele>
        <time>2016-09-11T11:12:13Z</time>
      </trkpt>
      <trkpt lat="45.05587" lon="5.518">
        <ele>1137</ele>
        <time>2016-09-11T11:12:14Z</time>
      </trkpt>
      <trkpt lat="45.05586" lon="5.51809">
        <ele>1137</ele>
        <time>2016-09-11T11:12:15Z</time>
      </trkpt>
      <trkpt lat="45.05579" lon="5.51816">
        <ele>1136</ele>
        <time>2016-09-11T11:12:17Z</time>
      </trkpt>
      <trkpt lat="45.05578" lon="5.51826">
        <ele>1136</ele>
        <time>2016-09-11T11:12:18Z</time>
      </trkpt>
      <trkpt lat="45.05574" lon="5.51833">
        <ele>1136</ele>
        <time>2016-09-11T11:12:19Z</time>
      </trkpt>
      <trkpt lat="45.05574" lon="5.51845">
        <ele>1135</ele>
        <time>2016-09-11T11:12:20Z</time>
      </trkpt>
      <trkpt lat="45.05572" lon="5.51856">
        <ele>1135</ele>
        <time>2016-09-11T11:12:21Z</time>
      </trkpt>
      <trkpt lat="45.05574" lon="5.51866">
        <ele>1136</ele>
        <time>2016-09-11T11:12:22Z</time>
      </trkpt>
      <trkpt lat="45.05576" lon="5.51875">
        <ele>1137</ele>
        <time>2016-09-11T11:12:23Z</time>
      </trkpt>
      <trkpt lat="45.05579" lon="5.51886">
        <ele>1138</ele>
        <time>2016-09-11T11:12:24Z</time>
      </trkpt>
      <trkpt lat="45.05581" lon="5.51896">
        <ele>1138</ele>
        <time>2016-09-11T11:12:25Z</time>
      </trkpt>
      <trkpt lat="45.05587" lon="5.51908">
        <ele>1139</ele>
        <time>2016-09-11T11:12:26Z</time>
      </trkpt>
      <trkpt lat="45.05584" lon="5.51916">
        <ele>1140</ele>
        <time>2016-09-11T11:12:27Z</time>
      </trkpt>
      <trkpt lat="45.05586" lon="5.51924">
        <ele>1140</ele>
        <time>2016-09-11T11:12:28Z</time>
      </trkpt>
      <trkpt lat="45.05587" lon="5.51933">
        <ele>1140</ele>
        <time>2016-09-11T11:12:29Z</time>
      </trkpt>
      <trkpt lat="45.0559" lon="5.51942">
        <ele>1140</ele>
        <time>2016-09-11T11:12:30Z</time>
      </trkpt>
      <trkpt lat="45.05592" lon="5.51951">
        <ele>1141</ele>
        <time>2016-09-11T11:12:31Z</time>
      </trkpt>
      <trkpt lat="45.05592" lon="5.5196">
        <ele>1141</ele>
        <time>2016-09-11T11:12:32Z</time>
      </trkpt>
      <trkpt lat="45.05593" lon="5.51969">
        <ele>1142</ele>
        <time>2016-09-11T11:12:33Z</time>
      </trkpt>
      <trkpt lat="45.05594" lon="5.51978">
        <ele>1142</ele>
        <time>2016-09-11T11:12:34Z</time>
      </trkpt>
      <trkpt lat="45.05593" lon="5.51987">
        <ele>1143</ele>
        <time>2016-09-11T11:12:35Z</time>
      </trkpt>
      <trkpt lat="45.05593" lon="5.51996">
        <ele>1143</ele>
        <time>2016-09-11T11:12:36Z</time>
      </trkpt>
      <trkpt lat="45.05594" lon="5.52004">
        <ele>1144</ele>
        <time>2016-09-11T11:12:37Z</time>
      </trkpt>
      <trkpt lat="45.05595" lon="5.52012">
        <ele>1144</ele>
        <time>2016-09-11T11:12:38Z</time>
      </trkpt>
      <trkpt lat="45.05597" lon="5.5202">
        <ele>1144</ele>
        <time>2016-09-11T11:12:39Z</time>
      </trkpt>
      <trkpt lat="45.05599" lon="5.52028">
        <ele>1144</ele>
        <time>2016-09-11T11:12:40Z</time>
      </trkpt>
      <trkpt lat="45.05602" lon="5.52037">
        <ele>1144</ele>
        <time>2016-09-11T11:12:41Z</time>
      </trkpt>
      <trkpt lat="45.05605" lon="5.52045">
        <ele>1143</ele>
        <time>2016-09-11T11:12:42Z</time>
      </trkpt>
      <trkpt lat="45.05606" lon="5.52053">
        <ele>1143</ele>
        <time>2016-09-11T11:12:43Z</time>
      </trkpt>
      <trkpt lat="45.0561" lon="5.52062">
        <ele>1144</ele>
        <time>2016-09-11T11:12:44Z</time>
      </trkpt>
      <trkpt lat="45.05613" lon="5.52069">
        <ele>1144</ele>
        <time>2016-09-11T11:12:45Z</time>
      </trkpt>
      <trkpt lat="45.05616" lon="5.52077">
        <ele>1144</ele>
        <time>2016-09-11T11:12:46Z</time>
      </trkpt>
      <trkpt lat="45.0562" lon="5.52087">
        <ele>1144</ele>
        <time>2016-09-11T11:12:47Z</time>
      </trkpt>
      <trkpt lat="45.05624" lon="5.52097">
        <ele>1144</ele>
        <time>2016-09-11T11:12:48Z</time>
      </trkpt>
      <trkpt lat="45.05627" lon="5.52106">
        <ele>1143</ele>
        <time>2016-09-11T11:12:49Z</time>
      </trkpt>
      <trkpt lat="45.05632" lon="5.52116">
        <ele>1143</ele>
        <time>2016-09-11T11:12:50Z</time>
      </trkpt>
      <trkpt lat="45.05636" lon="5.52124">
        <ele>1143</ele>
        <time>2016-09-11T11:12:51Z</time>
      </trkpt>
      <trkpt lat="45.05638" lon="5.52133">
        <ele>1143</ele>
        <time>2016-09-11T11:12:52Z</time>
      </trkpt>
      <trkpt lat="45.05643" lon="5.5214">
        <ele>1143</ele>
        <time>2016-09-11T11:12:53Z</time>
      </trkpt>
      <trkpt lat="45.05645" lon="5.52149">
        <ele>1142</ele>
        <time>2016-09-11T11:12:54Z</time>
      </trkpt>
      <trkpt lat="45.05652" lon="5.52156">
        <ele>1142</ele>
        <time>2016-09-11T11:12:55Z</time>
      </trkpt>
      <trkpt lat="45.0566" lon="5.5216">
        <ele>1141</ele>
        <time>2016-09-11T11:12:56Z</time>
      </trkpt>
      <trkpt lat="45.05667" lon="5.52166">
        <ele>1140</ele>
        <time>2016-09-11T11:12:57Z</time>
      </trkpt>
      <trkpt lat="45.05672" lon="5.52171">
        <ele>1140</ele>
        <time>2016-09-11T11:12:58Z</time>
      </trkpt>
      <trkpt lat="45.05679" lon="5.52175">
        <ele>1140</ele>
        <time>2016-09-11T11:12:59Z</time>
      </trkpt>
      <trkpt lat="45.05686" lon="5.52178">
        <ele>1140</ele>
        <time>2016-09-11T11:13:00Z</time>
      </trkpt>
      <trkpt lat="45.05693" lon="5.52182">
        <ele>1140</ele>
        <time>2016-09-11T11:13:01Z</time>
      </trkpt>
      <trkpt lat="45.057" lon="5.52186">
        <ele>1140</ele>
        <time>2016-09-11T11:13:02Z</time>
      </trkpt>
      <trkpt lat="45.05706" lon="5.5219">
        <ele>1139</ele>
        <time>2016-09-11T11:13:03Z</time>
      </trkpt>
      <trkpt lat="45.05712" lon="5.52194">
        <ele>1139</ele>
        <time>2016-09-11T11:13:04Z</time>
      </trkpt>
      <trkpt lat="45.05718" lon="5.52198">
        <ele>1139</ele>
        <time>2016-09-11T11:13:05Z</time>
      </trkpt>
      <trkpt lat="45.05725" lon="5.52201">
        <ele>1139</ele>
        <time>2016-09-11T11:13:06Z</time>
      </trkpt>
      <trkpt lat="45.05732" lon="5.52204">
        <ele>1139</ele>
        <time>2016-09-11T11:13:07Z</time>
      </trkpt>
      <trkpt lat="45.05739" lon="5.52208">
        <ele>1138</ele>
        <time>2016-09-11T11:13:08Z</time>
      </trkpt>
      <trkpt lat="45.05745" lon="5.52211">
        <ele>1138</ele>
        <time>2016-09-11T11:13:09Z</time>
      </trkpt>
      <trkpt lat="45.05754" lon="5.52215">
        <ele>1137</ele>
        <time>2016-09-11T11:13:10Z</time>
      </trkpt>
      <trkpt lat="45.0576" lon="5.52215">
        <ele>1136</ele>
        <time>2016-09-11T11:13:11Z</time>
      </trkpt>
      <trkpt lat="45.05771" lon="5.52219">
        <ele>1136</ele>
        <time>2016-09-11T11:13:13Z</time>
      </trkpt>
      <trkpt lat="45.05777" lon="5.52219">
        <ele>1135</ele>
        <time>2016-09-11T11:13:14Z</time>
      </trkpt>
      <trkpt lat="45.05784" lon="5.52221">
        <ele>1135</ele>
        <time>2016-09-11T11:13:15Z</time>
      </trkpt>
      <trkpt lat="45.05793" lon="5.52224">
        <ele>1135</ele>
        <time>2016-09-11T11:13:16Z</time>
      </trkpt>
      <trkpt lat="45.058" lon="5.52227">
        <ele>1135</ele>
        <time>2016-09-11T11:13:17Z</time>
      </trkpt>
      <trkpt lat="45.05806" lon="5.52227">
        <ele>1135</ele>
        <time>2016-09-11T11:13:18Z</time>
      </trkpt>
      <trkpt lat="45.05814" lon="5.52229">
        <ele>1134</ele>
        <time>2016-09-11T11:13:19Z</time>
      </trkpt>
      <trkpt lat="45.05822" lon="5.52232">
        <ele>1134</ele>
        <time>2016-09-11T11:13:20Z</time>
      </trkpt>
      <trkpt lat="45.05829" lon="5.52235">
        <ele>1134</ele>
        <time>2016-09-11T11:13:21Z</time>
      </trkpt>
      <trkpt lat="45.05835" lon="5.52237">
        <ele>1134</ele>
        <time>2016-09-11T11:13:22Z</time>
      </trkpt>
      <trkpt lat="45.05841" lon="5.52241">
        <ele>1135</ele>
        <time>2016-09-11T11:13:23Z</time>
      </trkpt>
      <trkpt lat="45.05847" lon="5.52244">
        <ele>1135</ele>
        <time>2016-09-11T11:13:24Z</time>
      </trkpt>
      <trkpt lat="45.05853" lon="5.52248">
        <ele>1136</ele>
        <time>2016-09-11T11:13:25Z</time>
      </trkpt>
      <trkpt lat="45.05861" lon="5.52252">
        <ele>1136</ele>
        <time>2016-09-11T11:13:26Z</time>
      </trkpt>
      <trkpt lat="45.05867" lon="5.52255">
        <ele>1137</ele>
        <time>2016-09-11T11:13:27Z</time>
      </trkpt>
      <trkpt lat="45.05872" lon="5.52259">
        <ele>1137</ele>
        <time>2016-09-11T11:13:28Z</time>
      </trkpt>
      <trkpt lat="45.05878" lon="5.52262">
        <ele>1137</ele>
        <time>2016-09-11T11:13:29Z</time>
      </trkpt>
      <trkpt lat="45.05885" lon="5.52268">
        <ele>1138</ele>
        <time>2016-09-11T11:13:30Z</time>
      </trkpt>
      <trkpt lat="45.05892" lon="5.52272">
        <ele>1139</ele>
        <time>2016-09-11T11:13:31Z</time>
      </trkpt>
      <trkpt lat="45.05898" lon="5.52276">
        <ele>1139</ele>
        <time>2016-09-11T11:13:32Z</time>
      </trkpt>
      <trkpt lat="45.05904" lon="5.52279">
        <ele>1140</ele>
        <time>2016-09-11T11:13:33Z</time>
      </trkpt>
      <trkpt lat="45.05912" lon="5.52283">
        <ele>1141</ele>
        <time>2016-09-11T11:13:34Z</time>
      </trkpt>
      <trkpt lat="45.05919" lon="5.52285">
        <ele>1141</ele>
        <time>2016-09-11T11:13:35Z</time>
      </trkpt>
      <trkpt lat="45.05924" lon="5.52288">
        <ele>1141</ele>
        <time>2016-09-11T11:13:36Z</time>
      </trkpt>
      <trkpt lat="45.0593" lon="5.52291">
        <ele>1141</ele>
        <time>2016-09-11T11:13:37Z</time>
      </trkpt>
      <trkpt lat="45.05937" lon="5.52293">
        <ele>1141</ele>
        <time>2016-09-11T11:13:38Z</time>
      </trkpt>
      <trkpt lat="45.05944" lon="5.52296">
        <ele>1141</ele>
        <time>2016-09-11T11:13:39Z</time>
      </trkpt>
      <trkpt lat="45.0595" lon="5.52297">
        <ele>1141</ele>
        <time>2016-09-11T11:13:40Z</time>
      </trkpt>
      <trkpt lat="45.05956" lon="5.52298">
        <ele>1141</ele>
        <time>2016-09-11T11:13:41Z</time>
      </trkpt>
      <trkpt lat="45.05961" lon="5.52299">
        <ele>1141</ele>
        <time>2016-09-11T11:13:42Z</time>
      </trkpt>
      <trkpt lat="45.05967" lon="5.52299">
        <ele>1142</ele>
        <time>2016-09-11T11:13:43Z</time>
      </trkpt>
      <trkpt lat="45.05974" lon="5.523">
        <ele>1142</ele>
        <time>2016-09-11T11:13:44Z</time>
      </trkpt>
      <trkpt lat="45.05979" lon="5.52301">
        <ele>1142</ele>
        <time>2016-09-11T11:13:45Z</time>
      </trkpt>
      <trkpt lat="45.05985" lon="5.52302">
        <ele>1141</ele>
        <time>2016-09-11T11:13:46Z</time>
      </trkpt>
      <trkpt lat="45.05991" lon="5.52302">
        <ele>1141</ele>
        <time>2016-09-11T11:13:47Z</time>
      </trkpt>
      <trkpt lat="45.05996" lon="5.52303">
        <ele>1141</ele>
        <time>2016-09-11T11:13:48Z</time>
      </trkpt>
      <trkpt lat="45.06001" lon="5.52303">
        <ele>1140</ele>
        <time>2016-09-11T11:13:49Z</time>
      </trkpt>
      <trkpt lat="45.06006" lon="5.52304">
        <ele>1140</ele>
        <time>2016-09-11T11:13:50Z</time>
      </trkpt>
      <trkpt lat="45.06012" lon="5.52305">
        <ele>1140</ele>
        <time>2016-09-11T11:13:51Z</time>
      </trkpt>
      <trkpt lat="45.06017" lon="5.52306">
        <ele>1139</ele>
        <time>2016-09-11T11:13:52Z</time>
      </trkpt>
      <trkpt lat="45.06022" lon="5.52307">
        <ele>1140</ele>
        <time>2016-09-11T11:13:53Z</time>
      </trkpt>
      <trkpt lat="45.06027" lon="5.52308">
        <ele>1140</ele>
        <time>2016-09-11T11:13:54Z</time>
      </trkpt>
      <trkpt lat="45.06032" lon="5.52309">
        <ele>1140</ele>
        <time>2016-09-11T11:13:55Z</time>
      </trkpt>
      <trkpt lat="45.06037" lon="5.5231">
        <ele>1141</ele>
        <time>2016-09-11T11:13:56Z</time>
      </trkpt>
      <trkpt lat="45.06041" lon="5.52312">
        <ele>1141</ele>
        <time>2016-09-11T11:13:57Z</time>
      </trkpt>
      <trkpt lat="45.06046" lon="5.52314">
        <ele>1141</ele>
        <time>2016-09-11T11:13:58Z</time>
      </trkpt>
      <trkpt lat="45.0605" lon="5.52318">
        <ele>1142</ele>
        <time>2016-09-11T11:13:59Z</time>
      </trkpt>
      <trkpt lat="45.06054" lon="5.52324">
        <ele>1142</ele>
        <time>2016-09-11T11:14:00Z</time>
      </trkpt>
      <trkpt lat="45.06055" lon="5.5233">
        <ele>1142</ele>
        <time>2016-09-11T11:14:01Z</time>
      </trkpt>
      <trkpt lat="45.06057" lon="5.52336">
        <ele>1141</ele>
        <time>2016-09-11T11:14:02Z</time>
      </trkpt>
      <trkpt lat="45.06059" lon="5.52343">
        <ele>1141</ele>
        <time>2016-09-11T11:14:03Z</time>
      </trkpt>
      <trkpt lat="45.0606" lon="5.52349">
        <ele>1142</ele>
        <time>2016-09-11T11:14:04Z</time>
      </trkpt>
      <trkpt lat="45.0606" lon="5.52357">
        <ele>1141</ele>
        <time>2016-09-11T11:14:05Z</time>
      </trkpt>
      <trkpt lat="45.06064" lon="5.52365">
        <ele>1141</ele>
        <time>2016-09-11T11:14:06Z</time>
      </trkpt>
      <trkpt lat="45.06067" lon="5.52373">
        <ele>1141</ele>
        <time>2016-09-11T11:14:07Z</time>
      </trkpt>
      <trkpt lat="45.06069" lon="5.52379">
        <ele>1140</ele>
        <time>2016-09-11T11:14:08Z</time>
      </trkpt>
      <trkpt lat="45.06071" lon="5.52386">
        <ele>1139</ele>
        <time>2016-09-11T11:14:09Z</time>
      </trkpt>
      <trkpt lat="45.06073" lon="5.52394">
        <ele>1139</ele>
        <time>2016-09-11T11:14:10Z</time>
      </trkpt>
      <trkpt lat="45.06078" lon="5.524">
        <ele>1139</ele>
        <time>2016-09-11T11:14:11Z</time>
      </trkpt>
      <trkpt lat="45.06082" lon="5.52405">
        <ele>1139</ele>
        <time>2016-09-11T11:14:12Z</time>
      </trkpt>
      <trkpt lat="45.06088" lon="5.5241">
        <ele>1139</ele>
        <time>2016-09-11T11:14:13Z</time>
      </trkpt>
      <trkpt lat="45.06093" lon="5.52414">
        <ele>1140</ele>
        <time>2016-09-11T11:14:14Z</time>
      </trkpt>
      <trkpt lat="45.06099" lon="5.52417">
        <ele>1141</ele>
        <time>2016-09-11T11:14:15Z</time>
      </trkpt>
      <trkpt lat="45.06106" lon="5.52419">
        <ele>1141</ele>
        <time>2016-09-11T11:14:16Z</time>
      </trkpt>
      <trkpt lat="45.06112" lon="5.5242">
        <ele>1142</ele>
        <time>2016-09-11T11:14:17Z</time>
      </trkpt>
      <trkpt lat="45.06119" lon="5.52422">
        <ele>1142</ele>
        <time>2016-09-11T11:14:18Z</time>
      </trkpt>
      <trkpt lat="45.06126" lon="5.52423">
        <ele>1142</ele>
        <time>2016-09-11T11:14:19Z</time>
      </trkpt>
      <trkpt lat="45.06133" lon="5.52423">
        <ele>1142</ele>
        <time>2016-09-11T11:14:20Z</time>
      </trkpt>
      <trkpt lat="45.0614" lon="5.52425">
        <ele>1142</ele>
        <time>2016-09-11T11:14:21Z</time>
      </trkpt>
      <trkpt lat="45.06147" lon="5.52426">
        <ele>1142</ele>
        <time>2016-09-11T11:14:22Z</time>
      </trkpt>
      <trkpt lat="45.06156" lon="5.52428">
        <ele>1143</ele>
        <time>2016-09-11T11:14:23Z</time>
      </trkpt>
      <trkpt lat="45.06163" lon="5.52429">
        <ele>1143</ele>
        <time>2016-09-11T11:14:24Z</time>
      </trkpt>
      <trkpt lat="45.06171" lon="5.52431">
        <ele>1143</ele>
        <time>2016-09-11T11:14:25Z</time>
      </trkpt>
      <trkpt lat="45.06178" lon="5.52433">
        <ele>1144</ele>
        <time>2016-09-11T11:14:26Z</time>
      </trkpt>
      <trkpt lat="45.06184" lon="5.52435">
        <ele>1144</ele>
        <time>2016-09-11T11:14:27Z</time>
      </trkpt>
      <trkpt lat="45.06191" lon="5.52438">
        <ele>1145</ele>
        <time>2016-09-11T11:14:28Z</time>
      </trkpt>
      <trkpt lat="45.06198" lon="5.52442">
        <ele>1145</ele>
        <time>2016-09-11T11:14:29Z</time>
      </trkpt>
      <trkpt lat="45.06204" lon="5.52447">
        <ele>1145</ele>
        <time>2016-09-11T11:14:30Z</time>
      </trkpt>
      <trkpt lat="45.06209" lon="5.52451">
        <ele>1145</ele>
        <time>2016-09-11T11:14:31Z</time>
      </trkpt>
      <trkpt lat="45.06215" lon="5.52456">
        <ele>1145</ele>
        <time>2016-09-11T11:14:32Z</time>
      </trkpt>
      <trkpt lat="45.06221" lon="5.5246">
        <ele>1145</ele>
        <time>2016-09-11T11:14:33Z</time>
      </trkpt>
      <trkpt lat="45.06228" lon="5.52464">
        <ele>1145</ele>
        <time>2016-09-11T11:14:34Z</time>
      </trkpt>
      <trkpt lat="45.06233" lon="5.52468">
        <ele>1145</ele>
        <time>2016-09-11T11:14:35Z</time>
      </trkpt>
      <trkpt lat="45.06239" lon="5.52473">
        <ele>1146</ele>
        <time>2016-09-11T11:14:36Z</time>
      </trkpt>
      <trkpt lat="45.06245" lon="5.52477">
        <ele>1146</ele>
        <time>2016-09-11T11:14:37Z</time>
      </trkpt>
      <trkpt lat="45.06251" lon="5.52481">
        <ele>1146</ele>
        <time>2016-09-11T11:14:38Z</time>
      </trkpt>
      <trkpt lat="45.06257" lon="5.52484">
        <ele>1145</ele>
        <time>2016-09-11T11:14:39Z</time>
      </trkpt>
      <trkpt lat="45.06264" lon="5.52485">
        <ele>1146</ele>
        <time>2016-09-11T11:14:40Z</time>
      </trkpt>
      <trkpt lat="45.06271" lon="5.52487">
        <ele>1146</ele>
        <time>2016-09-11T11:14:41Z</time>
      </trkpt>
      <trkpt lat="45.06276" lon="5.52488">
        <ele>1146</ele>
        <time>2016-09-11T11:14:42Z</time>
      </trkpt>
      <trkpt lat="45.06282" lon="5.52488">
        <ele>1145</ele>
        <time>2016-09-11T11:14:43Z</time>
      </trkpt>
      <trkpt lat="45.06289" lon="5.52488">
        <ele>1145</ele>
        <time>2016-09-11T11:14:44Z</time>
      </trkpt>
      <trkpt lat="45.06297" lon="5.52487">
        <ele>1145</ele>
        <time>2016-09-11T11:14:45Z</time>
      </trkpt>
      <trkpt lat="45.06304" lon="5.52488">
        <ele>1144</ele>
        <time>2016-09-11T11:14:46Z</time>
      </trkpt>
      <trkpt lat="45.0631" lon="5.52487">
        <ele>1144</ele>
        <time>2016-09-11T11:14:47Z</time>
      </trkpt>
      <trkpt lat="45.06316" lon="5.52485">
        <ele>1143</ele>
        <time>2016-09-11T11:14:48Z</time>
      </trkpt>
      <trkpt lat="45.06321" lon="5.52483">
        <ele>1143</ele>
        <time>2016-09-11T11:14:49Z</time>
      </trkpt>
      <trkpt lat="45.06326" lon="5.52481">
        <ele>1142</ele>
        <time>2016-09-11T11:14:50Z</time>
      </trkpt>
      <trkpt lat="45.06331" lon="5.52479">
        <ele>1141</ele>
        <time>2016-09-11T11:14:51Z</time>
      </trkpt>
      <trkpt lat="45.06335" lon="5.52478">
        <ele>1140</ele>
        <time>2016-09-11T11:14:52Z</time>
      </trkpt>
      <trkpt lat="45.06341" lon="5.52475">
        <ele>1139</ele>
        <time>2016-09-11T11:14:53Z</time>
      </trkpt>
      <trkpt lat="45.06347" lon="5.52472">
        <ele>1139</ele>
        <time>2016-09-11T11:14:54Z</time>
      </trkpt>
      <trkpt lat="45.06352" lon="5.5247">
        <ele>1139</ele>
        <time>2016-09-11T11:14:55Z</time>
      </trkpt>
      <trkpt lat="45.06356" lon="5.52468">
        <ele>1139</ele>
        <time>2016-09-11T11:14:56Z</time>
      </trkpt>
      <trkpt lat="45.06362" lon="5.52467">
        <ele>1139</ele>
        <time>2016-09-11T11:14:57Z</time>
      </trkpt>
      <trkpt lat="45.06368" lon="5.52465">
        <ele>1139</ele>
        <time>2016-09-11T11:14:58Z</time>
      </trkpt>
      <trkpt lat="45.06374" lon="5.52462">
        <ele>1140</ele>
        <time>2016-09-11T11:14:59Z</time>
      </trkpt>
      <trkpt lat="45.06379" lon="5.5246">
        <ele>1139</ele>
        <time>2016-09-11T11:15:00Z</time>
      </trkpt>
      <trkpt lat="45.06383" lon="5.52458">
        <ele>1139</ele>
        <time>2016-09-11T11:15:01Z</time>
      </trkpt>
      <trkpt lat="45.06388" lon="5.52455">
        <ele>1140</ele>
        <time>2016-09-11T11:15:02Z</time>
      </trkpt>
      <trkpt lat="45.06393" lon="5.52452">
        <ele>1140</ele>
        <time>2016-09-11T11:15:03Z</time>
      </trkpt>
      <trkpt lat="45.06397" lon="5.5245">
        <ele>1139</ele>
        <time>2016-09-11T11:15:04Z</time>
      </trkpt>
      <trkpt lat="45.06403" lon="5.52447">
        <ele>1139</ele>
        <time>2016-09-11T11:15:05Z</time>
      </trkpt>
      <trkpt lat="45.06409" lon="5.52446">
        <ele>1138</ele>
        <time>2016-09-11T11:15:06Z</time>
      </trkpt>
      <trkpt lat="45.06416" lon="5.52444">
        <ele>1138</ele>
        <time>2016-09-11T11:15:07Z</time>
      </trkpt>
      <trkpt lat="45.06422" lon="5.52443">
        <ele>1137</ele>
        <time>2016-09-11T11:15:08Z</time>
      </trkpt>
      <trkpt lat="45.06427" lon="5.52443">
        <ele>1137</ele>
        <time>2016-09-11T11:15:09Z</time>
      </trkpt>
      <trkpt lat="45.06434" lon="5.52442">
        <ele>1137</ele>
        <time>2016-09-11T11:15:10Z</time>
      </trkpt>
      <trkpt lat="45.0644" lon="5.52441">
        <ele>1137</ele>
        <time>2016-09-11T11:15:11Z</time>
      </trkpt>
      <trkpt lat="45.06447" lon="5.52441">
        <ele>1137</ele>
        <time>2016-09-11T11:15:12Z</time>
      </trkpt>
      <trkpt lat="45.06453" lon="5.52442">
        <ele>1137</ele>
        <time>2016-09-11T11:15:13Z</time>
      </trkpt>
      <trkpt lat="45.06459" lon="5.52445">
        <ele>1136</ele>
        <time>2016-09-11T11:15:14Z</time>
      </trkpt>
      <trkpt lat="45.06466" lon="5.52448">
        <ele>1136</ele>
        <time>2016-09-11T11:15:15Z</time>
      </trkpt>
      <trkpt lat="45.06471" lon="5.52453">
        <ele>1136</ele>
        <time>2016-09-11T11:15:16Z</time>
      </trkpt>
      <trkpt lat="45.06475" lon="5.52459">
        <ele>1135</ele>
        <time>2016-09-11T11:15:17Z</time>
      </trkpt>
      <trkpt lat="45.06481" lon="5.52465">
        <ele>1135</ele>
        <time>2016-09-11T11:15:18Z</time>
      </trkpt>
      <trkpt lat="45.06485" lon="5.52472">
        <ele>1135</ele>
        <time>2016-09-11T11:15:19Z</time>
      </trkpt>
      <trkpt lat="45.06489" lon="5.52479">
        <ele>1135</ele>
        <time>2016-09-11T11:15:20Z</time>
      </trkpt>
      <trkpt lat="45.06493" lon="5.52486">
        <ele>1135</ele>
        <time>2016-09-11T11:15:21Z</time>
      </trkpt>
      <trkpt lat="45.06497" lon="5.52494">
        <ele>1136</ele>
        <time>2016-09-11T11:15:22Z</time>
      </trkpt>
      <trkpt lat="45.065" lon="5.52502">
        <ele>1136</ele>
        <time>2016-09-11T11:15:23Z</time>
      </trkpt>
      <trkpt lat="45.06502" lon="5.52511">
        <ele>1136</ele>
        <time>2016-09-11T11:15:24Z</time>
      </trkpt>
      <trkpt lat="45.06505" lon="5.5252">
        <ele>1136</ele>
        <time>2016-09-11T11:15:25Z</time>
      </trkpt>
      <trkpt lat="45.06508" lon="5.52531">
        <ele>1136</ele>
        <time>2016-09-11T11:15:26Z</time>
      </trkpt>
      <trkpt lat="45.0651" lon="5.5254">
        <ele>1137</ele>
        <time>2016-09-11T11:15:27Z</time>
      </trkpt>
      <trkpt lat="45.06513" lon="5.52549">
        <ele>1137</ele>
        <time>2016-09-11T11:15:28Z</time>
      </trkpt>
      <trkpt lat="45.06515" lon="5.52558">
        <ele>1137</ele>
        <time>2016-09-11T11:15:29Z</time>
      </trkpt>
      <trkpt lat="45.06518" lon="5.52567">
        <ele>1137</ele>
        <time>2016-09-11T11:15:30Z</time>
      </trkpt>
      <trkpt lat="45.06522" lon="5.52575">
        <ele>1137</ele>
        <time>2016-09-11T11:15:31Z</time>
      </trkpt>
      <trkpt lat="45.06525" lon="5.52583">
        <ele>1137</ele>
        <time>2016-09-11T11:15:32Z</time>
      </trkpt>
      <trkpt lat="45.06529" lon="5.52591">
        <ele>1137</ele>
        <time>2016-09-11T11:15:33Z</time>
      </trkpt>
      <trkpt lat="45.06533" lon="5.52599">
        <ele>1137</ele>
        <time>2016-09-11T11:15:34Z</time>
      </trkpt>
      <trkpt lat="45.06537" lon="5.52607">
        <ele>1137</ele>
        <time>2016-09-11T11:15:35Z</time>
      </trkpt>
      <trkpt lat="45.0654" lon="5.52614">
        <ele>1137</ele>
        <time>2016-09-11T11:15:36Z</time>
      </trkpt>
      <trkpt lat="45.06545" lon="5.52622">
        <ele>1136</ele>
        <time>2016-09-11T11:15:37Z</time>
      </trkpt>
      <trkpt lat="45.0655" lon="5.52631">
        <ele>1136</ele>
        <time>2016-09-11T11:15:38Z</time>
      </trkpt>
      <trkpt lat="45.06554" lon="5.5264">
        <ele>1136</ele>
        <time>2016-09-11T11:15:39Z</time>
      </trkpt>
      <trkpt lat="45.06559" lon="5.52649">
        <ele>1136</ele>
        <time>2016-09-11T11:15:40Z</time>
      </trkpt>
      <trkpt lat="45.06564" lon="5.52657">
        <ele>1136</ele>
        <time>2016-09-11T11:15:41Z</time>
      </trkpt>
      <trkpt lat="45.06568" lon="5.52667">
        <ele>1136</ele>
        <time>2016-09-11T11:15:42Z</time>
      </trkpt>
      <trkpt lat="45.06573" lon="5.52677">
        <ele>1136</ele>
        <time>2016-09-11T11:15:43Z</time>
      </trkpt>
      <trkpt lat="45.06577" lon="5.52686">
        <ele>1136</ele>
        <time>2016-09-11T11:15:44Z</time>
      </trkpt>
      <trkpt lat="45.06582" lon="5.52694">
        <ele>1136</ele>
        <time>2016-09-11T11:15:45Z</time>
      </trkpt>
      <trkpt lat="45.06586" lon="5.52703">
        <ele>1136</ele>
        <time>2016-09-11T11:15:46Z</time>
      </trkpt>
      <trkpt lat="45.0659" lon="5.52712">
        <ele>1136</ele>
        <time>2016-09-11T11:15:47Z</time>
      </trkpt>
      <trkpt lat="45.06595" lon="5.52721">
        <ele>1137</ele>
        <time>2016-09-11T11:15:48Z</time>
      </trkpt>
      <trkpt lat="45.06598" lon="5.52731">
        <ele>1136</ele>
        <time>2016-09-11T11:15:49Z</time>
      </trkpt>
      <trkpt lat="45.06601" lon="5.5274">
        <ele>1136</ele>
        <time>2016-09-11T11:15:50Z</time>
      </trkpt>
      <trkpt lat="45.06605" lon="5.5275">
        <ele>1136</ele>
        <time>2016-09-11T11:15:51Z</time>
      </trkpt>
      <trkpt lat="45.06607" lon="5.52759">
        <ele>1136</ele>
        <time>2016-09-11T11:15:52Z</time>
      </trkpt>
      <trkpt lat="45.06609" lon="5.5277">
        <ele>1136</ele>
        <time>2016-09-11T11:15:53Z</time>
      </trkpt>
      <trkpt lat="45.0661" lon="5.52781">
        <ele>1135</ele>
        <time>2016-09-11T11:15:54Z</time>
      </trkpt>
      <trkpt lat="45.0661" lon="5.52793">
        <ele>1135</ele>
        <time>2016-09-11T11:15:55Z</time>
      </trkpt>
      <trkpt lat="45.06611" lon="5.52806">
        <ele>1135</ele>
        <time>2016-09-11T11:15:56Z</time>
      </trkpt>
      <trkpt lat="45.06611" lon="5.52818">
        <ele>1134</ele>
        <time>2016-09-11T11:15:57Z</time>
      </trkpt>
      <trkpt lat="45.0661" lon="5.5283">
        <ele>1134</ele>
        <time>2016-09-11T11:15:58Z</time>
      </trkpt>
      <trkpt lat="45.06609" lon="5.52842">
        <ele>1134</ele>
        <time>2016-09-11T11:15:59Z</time>
      </trkpt>
      <trkpt lat="45.06607" lon="5.52855">
        <ele>1134</ele>
        <time>2016-09-11T11:16:00Z</time>
      </trkpt>
      <trkpt lat="45.06606" lon="5.52868">
        <ele>1134</ele>
        <time>2016-09-11T11:16:01Z</time>
      </trkpt>
      <trkpt lat="45.06605" lon="5.5288">
        <ele>1133</ele>
        <time>2016-09-11T11:16:02Z</time>
      </trkpt>
      <trkpt lat="45.06604" lon="5.52893">
        <ele>1133</ele>
        <time>2016-09-11T11:16:03Z</time>
      </trkpt>
      <trkpt lat="45.06603" lon="5.52907">
        <ele>1133</ele>
        <time>2016-09-11T11:16:04Z</time>
      </trkpt>
      <trkpt lat="45.06601" lon="5.52921">
        <ele>1133</ele>
        <time>2016-09-11T11:16:05Z</time>
      </trkpt>
      <trkpt lat="45.06601" lon="5.52936">
        <ele>1133</ele>
        <time>2016-09-11T11:16:06Z</time>
      </trkpt>
      <trkpt lat="45.066" lon="5.52951">
        <ele>1133</ele>
        <time>2016-09-11T11:16:07Z</time>
      </trkpt>
      <trkpt lat="45.06598" lon="5.52965">
        <ele>1133</ele>
        <time>2016-09-11T11:16:08Z</time>
      </trkpt>
      <trkpt lat="45.06597" lon="5.52979">
        <ele>1132</ele>
        <time>2016-09-11T11:16:09Z</time>
      </trkpt>
      <trkpt lat="45.06596" lon="5.52994">
        <ele>1132</ele>
        <time>2016-09-11T11:16:10Z</time>
      </trkpt>
      <trkpt lat="45.06594" lon="5.53008">
        <ele>1132</ele>
        <time>2016-09-11T11:16:11Z</time>
      </trkpt>
      <trkpt lat="45.06593" lon="5.53022">
        <ele>1131</ele>
        <time>2016-09-11T11:16:12Z</time>
      </trkpt>
      <trkpt lat="45.06591" lon="5.53036">
        <ele>1131</ele>
        <time>2016-09-11T11:16:13Z</time>
      </trkpt>
      <trkpt lat="45.0659" lon="5.5305">
        <ele>1130</ele>
        <time>2016-09-11T11:16:14Z</time>
      </trkpt>
      <trkpt lat="45.06588" lon="5.53064">
        <ele>1130</ele>
        <time>2016-09-11T11:16:15Z</time>
      </trkpt>
      <trkpt lat="45.06587" lon="5.53079">
        <ele>1129</ele>
        <time>2016-09-11T11:16:16Z</time>
      </trkpt>
      <trkpt lat="45.06586" lon="5.53091">
        <ele>1129</ele>
        <time>2016-09-11T11:16:17Z</time>
      </trkpt>
      <trkpt lat="45.06584" lon="5.53104">
        <ele>1129</ele>
        <time>2016-09-11T11:16:18Z</time>
      </trkpt>
      <trkpt lat="45.06583" lon="5.53115">
        <ele>1129</ele>
        <time>2016-09-11T11:16:19Z</time>
      </trkpt>
      <trkpt lat="45.06581" lon="5.53126">
        <ele>1129</ele>
        <time>2016-09-11T11:16:20Z</time>
      </trkpt>
      <trkpt lat="45.06577" lon="5.53137">
        <ele>1129</ele>
        <time>2016-09-11T11:16:21Z</time>
      </trkpt>
      <trkpt lat="45.06574" lon="5.53146">
        <ele>1129</ele>
        <time>2016-09-11T11:16:22Z</time>
      </trkpt>
      <trkpt lat="45.0657" lon="5.53156">
        <ele>1129</ele>
        <time>2016-09-11T11:16:23Z</time>
      </trkpt>
      <trkpt lat="45.06567" lon="5.53166">
        <ele>1129</ele>
        <time>2016-09-11T11:16:24Z</time>
      </trkpt>
      <trkpt lat="45.06564" lon="5.53174">
        <ele>1129</ele>
        <time>2016-09-11T11:16:25Z</time>
      </trkpt>
      <trkpt lat="45.06561" lon="5.5318">
        <ele>1129</ele>
        <time>2016-09-11T11:16:26Z</time>
      </trkpt>
      <trkpt lat="45.06558" lon="5.53186">
        <ele>1129</ele>
        <time>2016-09-11T11:16:27Z</time>
      </trkpt>
      <trkpt lat="45.06556" lon="5.53193">
        <ele>1129</ele>
        <time>2016-09-11T11:16:28Z</time>
      </trkpt>
      <trkpt lat="45.06554" lon="5.53205">
        <ele>1129</ele>
        <time>2016-09-11T11:16:30Z</time>
      </trkpt>
      <trkpt lat="45.06555" lon="5.53212">
        <ele>1129</ele>
        <time>2016-09-11T11:16:31Z</time>
      </trkpt>
      <trkpt lat="45.06555" lon="5.5322">
        <ele>1129</ele>
        <time>2016-09-11T11:16:32Z</time>
      </trkpt>
      <trkpt lat="45.06558" lon="5.53225">
        <ele>1129</ele>
        <time>2016-09-11T11:16:33Z</time>
      </trkpt>
      <trkpt lat="45.06563" lon="5.53233">
        <ele>1129</ele>
        <time>2016-09-11T11:16:35Z</time>
      </trkpt>
      <trkpt lat="45.06569" lon="5.53238">
        <ele>1129</ele>
        <time>2016-09-11T11:16:37Z</time>
      </trkpt>
      <trkpt lat="45.06578" lon="5.53242">
        <ele>1129</ele>
        <time>2016-09-11T11:16:38Z</time>
      </trkpt>
      <trkpt lat="45.06585" lon="5.53248">
        <ele>1129</ele>
        <time>2016-09-11T11:16:39Z</time>
      </trkpt>
      <trkpt lat="45.0659" lon="5.53251">
        <ele>1129</ele>
        <time>2016-09-11T11:16:40Z</time>
      </trkpt>
      <trkpt lat="45.06598" lon="5.53254">
        <ele>1129</ele>
        <time>2016-09-11T11:16:41Z</time>
      </trkpt>
      <trkpt lat="45.06605" lon="5.53257">
        <ele>1129</ele>
        <time>2016-09-11T11:16:42Z</time>
      </trkpt>
      <trkpt lat="45.06612" lon="5.53259">
        <ele>1129</ele>
        <time>2016-09-11T11:16:43Z</time>
      </trkpt>
      <trkpt lat="45.06617" lon="5.53261">
        <ele>1129</ele>
        <time>2016-09-11T11:16:44Z</time>
      </trkpt>
      <trkpt lat="45.06625" lon="5.53262">
        <ele>1129</ele>
        <time>2016-09-11T11:16:45Z</time>
      </trkpt>
      <trkpt lat="45.06632" lon="5.53263">
        <ele>1129</ele>
        <time>2016-09-11T11:16:46Z</time>
      </trkpt>
      <trkpt lat="45.06638" lon="5.53261">
        <ele>1129</ele>
        <time>2016-09-11T11:16:47Z</time>
      </trkpt>
      <trkpt lat="45.06645" lon="5.53261">
        <ele>1128</ele>
        <time>2016-09-11T11:16:48Z</time>
      </trkpt>
      <trkpt lat="45.06652" lon="5.5326">
        <ele>1127</ele>
        <time>2016-09-11T11:16:49Z</time>
      </trkpt>
      <trkpt lat="45.0666" lon="5.53258">
        <ele>1126</ele>
        <time>2016-09-11T11:16:50Z</time>
      </trkpt>
      <trkpt lat="45.06667" lon="5.53259">
        <ele>1125</ele>
        <time>2016-09-11T11:16:51Z</time>
      </trkpt>
      <trkpt lat="45.06675" lon="5.53258">
        <ele>1124</ele>
        <time>2016-09-11T11:16:52Z</time>
      </trkpt>
      <trkpt lat="45.06683" lon="5.53257">
        <ele>1123</ele>
        <time>2016-09-11T11:16:53Z</time>
      </trkpt>
      <trkpt lat="45.06691" lon="5.53258">
        <ele>1123</ele>
        <time>2016-09-11T11:16:54Z</time>
      </trkpt>
      <trkpt lat="45.06699" lon="5.53258">
        <ele>1122</ele>
        <time>2016-09-11T11:16:55Z</time>
      </trkpt>
      <trkpt lat="45.06707" lon="5.53258">
        <ele>1122</ele>
        <time>2016-09-11T11:16:56Z</time>
      </trkpt>
      <trkpt lat="45.06715" lon="5.53261">
        <ele>1121</ele>
        <time>2016-09-11T11:16:57Z</time>
      </trkpt>
      <trkpt lat="45.06724" lon="5.5326">
        <ele>1120</ele>
        <time>2016-09-11T11:16:58Z</time>
      </trkpt>
      <trkpt lat="45.06733" lon="5.53262">
        <ele>1120</ele>
        <time>2016-09-11T11:16:59Z</time>
      </trkpt>
      <trkpt lat="45.06742" lon="5.53263">
        <ele>1120</ele>
        <time>2016-09-11T11:17:00Z</time>
      </trkpt>
      <trkpt lat="45.06749" lon="5.53266">
        <ele>1119</ele>
        <time>2016-09-11T11:17:01Z</time>
      </trkpt>
      <trkpt lat="45.06758" lon="5.53269">
        <ele>1119</ele>
        <time>2016-09-11T11:17:02Z</time>
      </trkpt>
      <trkpt lat="45.06766" lon="5.53271">
        <ele>1118</ele>
        <time>2016-09-11T11:17:03Z</time>
      </trkpt>
      <trkpt lat="45.06776" lon="5.53275">
        <ele>1118</ele>
        <time>2016-09-11T11:17:04Z</time>
      </trkpt>
      <trkpt lat="45.06785" lon="5.53279">
        <ele>1117</ele>
        <time>2016-09-11T11:17:05Z</time>
      </trkpt>
      <trkpt lat="45.06795" lon="5.53283">
        <ele>1117</ele>
        <time>2016-09-11T11:17:06Z</time>
      </trkpt>
      <trkpt lat="45.06805" lon="5.53288">
        <ele>1117</ele>
        <time>2016-09-11T11:17:07Z</time>
      </trkpt>
      <trkpt lat="45.06816" lon="5.53295">
        <ele>1117</ele>
        <time>2016-09-11T11:17:08Z</time>
      </trkpt>
      <trkpt lat="45.06822" lon="5.53301">
        <ele>1116</ele>
        <time>2016-09-11T11:17:09Z</time>
      </trkpt>
      <trkpt lat="45.06831" lon="5.53309">
        <ele>1115</ele>
        <time>2016-09-11T11:17:10Z</time>
      </trkpt>
      <trkpt lat="45.06838" lon="5.53316">
        <ele>1114</ele>
        <time>2016-09-11T11:17:11Z</time>
      </trkpt>
      <trkpt lat="45.06845" lon="5.53319">
        <ele>1113</ele>
        <time>2016-09-11T11:17:12Z</time>
      </trkpt>
      <trkpt lat="45.06852" lon="5.53333">
        <ele>1112</ele>
        <time>2016-09-11T11:17:14Z</time>
      </trkpt>
      <trkpt lat="45.06855" lon="5.53343">
        <ele>1112</ele>
        <time>2016-09-11T11:17:15Z</time>
      </trkpt>
      <trkpt lat="45.0686" lon="5.53352">
        <ele>1112</ele>
        <time>2016-09-11T11:17:16Z</time>
      </trkpt>
      <trkpt lat="45.06863" lon="5.53365">
        <ele>1111</ele>
        <time>2016-09-11T11:17:17Z</time>
      </trkpt>
      <trkpt lat="45.06863" lon="5.53373">
        <ele>1111</ele>
        <time>2016-09-11T11:17:18Z</time>
      </trkpt>
      <trkpt lat="45.06866" lon="5.53384">
        <ele>1112</ele>
        <time>2016-09-11T11:17:19Z</time>
      </trkpt>
      <trkpt lat="45.06863" lon="5.53394">
        <ele>1113</ele>
        <time>2016-09-11T11:17:20Z</time>
      </trkpt>
      <trkpt lat="45.06865" lon="5.53404">
        <ele>1114</ele>
        <time>2016-09-11T11:17:21Z</time>
      </trkpt>
      <trkpt lat="45.06865" lon="5.53416">
        <ele>1115</ele>
        <time>2016-09-11T11:17:22Z</time>
      </trkpt>
      <trkpt lat="45.06865" lon="5.53426">
        <ele>1115</ele>
        <time>2016-09-11T11:17:23Z</time>
      </trkpt>
      <trkpt lat="45.06864" lon="5.53434">
        <ele>1114</ele>
        <time>2016-09-11T11:17:24Z</time>
      </trkpt>
      <trkpt lat="45.06862" lon="5.53442">
        <ele>1113</ele>
        <time>2016-09-11T11:17:25Z</time>
      </trkpt>
      <trkpt lat="45.06861" lon="5.53449">
        <ele>1112</ele>
        <time>2016-09-11T11:17:26Z</time>
      </trkpt>
      <trkpt lat="45.06858" lon="5.53458">
        <ele>1110</ele>
        <time>2016-09-11T11:17:27Z</time>
      </trkpt>
      <trkpt lat="45.06856" lon="5.53468">
        <ele>1109</ele>
        <time>2016-09-11T11:17:28Z</time>
      </trkpt>
      <trkpt lat="45.06852" lon="5.53479">
        <ele>1109</ele>
        <time>2016-09-11T11:17:29Z</time>
      </trkpt>
      <trkpt lat="45.06852" lon="5.53495">
        <ele>1108</ele>
        <time>2016-09-11T11:17:31Z</time>
      </trkpt>
      <trkpt lat="45.06846" lon="5.53503">
        <ele>1107</ele>
        <time>2016-09-11T11:17:32Z</time>
      </trkpt>
      <trkpt lat="45.06844" lon="5.53511">
        <ele>1107</ele>
        <time>2016-09-11T11:17:33Z</time>
      </trkpt>
      <trkpt lat="45.06834" lon="5.53508">
        <ele>1106</ele>
        <time>2016-09-11T11:17:34Z</time>
      </trkpt>
      <trkpt lat="45.06825" lon="5.53514">
        <ele>1106</ele>
        <time>2016-09-11T11:17:36Z</time>
      </trkpt>
      <trkpt lat="45.06818" lon="5.53519">
        <ele>1105</ele>
        <time>2016-09-11T11:17:37Z</time>
      </trkpt>
      <trkpt lat="45.06811" lon="5.53523">
        <ele>1105</ele>
        <time>2016-09-11T11:17:38Z</time>
      </trkpt>
      <trkpt lat="45.06801" lon="5.53533">
        <ele>1105</ele>
        <time>2016-09-11T11:17:39Z</time>
      </trkpt>
      <trkpt lat="45.06787" lon="5.53535">
        <ele>1104</ele>
        <time>2016-09-11T11:17:41Z</time>
      </trkpt>
      <trkpt lat="45.06783" lon="5.5353">
        <ele>1104</ele>
        <time>2016-09-11T11:17:42Z</time>
      </trkpt>
      <trkpt lat="45.06775" lon="5.53531">
        <ele>1104</ele>
        <time>2016-09-11T11:17:43Z</time>
      </trkpt>
      <trkpt lat="45.06765" lon="5.53537">
        <ele>1103</ele>
        <time>2016-09-11T11:17:44Z</time>
      </trkpt>
      <trkpt lat="45.06755" lon="5.5354">
        <ele>1102</ele>
        <time>2016-09-11T11:17:45Z</time>
      </trkpt>
      <trkpt lat="45.06749" lon="5.53539">
        <ele>1102</ele>
        <time>2016-09-11T11:17:46Z</time>
      </trkpt>
      <trkpt lat="45.06741" lon="5.53542">
        <ele>1101</ele>
        <time>2016-09-11T11:17:47Z</time>
      </trkpt>
      <trkpt lat="45.06733" lon="5.53542">
        <ele>1099</ele>
        <time>2016-09-11T11:17:48Z</time>
      </trkpt>
      <trkpt lat="45.06725" lon="5.53542">
        <ele>1098</ele>
        <time>2016-09-11T11:17:49Z</time>
      </trkpt>
      <trkpt lat="45.06715" lon="5.53544">
        <ele>1099</ele>
        <time>2016-09-11T11:17:50Z</time>
      </trkpt>
      <trkpt lat="45.06707" lon="5.53547">
        <ele>1099</ele>
        <time>2016-09-11T11:17:51Z</time>
      </trkpt>
      <trkpt lat="45.067" lon="5.53547">
        <ele>1099</ele>
        <time>2016-09-11T11:17:52Z</time>
      </trkpt>
      <trkpt lat="45.06692" lon="5.5355">
        <ele>1099</ele>
        <time>2016-09-11T11:17:53Z</time>
      </trkpt>
      <trkpt lat="45.06683" lon="5.53553">
        <ele>1098</ele>
        <time>2016-09-11T11:17:54Z</time>
      </trkpt>
      <trkpt lat="45.06673" lon="5.53554">
        <ele>1096</ele>
        <time>2016-09-11T11:17:55Z</time>
      </trkpt>
      <trkpt lat="45.06662" lon="5.53555">
        <ele>1095</ele>
        <time>2016-09-11T11:17:56Z</time>
      </trkpt>
      <trkpt lat="45.06652" lon="5.53559">
        <ele>1093</ele>
        <time>2016-09-11T11:17:57Z</time>
      </trkpt>
      <trkpt lat="45.06643" lon="5.53563">
        <ele>1092</ele>
        <time>2016-09-11T11:17:58Z</time>
      </trkpt>
      <trkpt lat="45.06637" lon="5.53562">
        <ele>1091</ele>
        <time>2016-09-11T11:17:59Z</time>
      </trkpt>
      <trkpt lat="45.0663" lon="5.53563">
        <ele>1090</ele>
        <time>2016-09-11T11:18:00Z</time>
      </trkpt>
      <trkpt lat="45.06622" lon="5.53568">
        <ele>1089</ele>
        <time>2016-09-11T11:18:01Z</time>
      </trkpt>
      <trkpt lat="45.06614" lon="5.53572">
        <ele>1088</ele>
        <time>2016-09-11T11:18:02Z</time>
      </trkpt>
      <trkpt lat="45.06606" lon="5.53576">
        <ele>1088</ele>
        <time>2016-09-11T11:18:04Z</time>
      </trkpt>
      <trkpt lat="45.066" lon="5.53584">
        <ele>1088</ele>
        <time>2016-09-11T11:18:05Z</time>
      </trkpt>
      <trkpt lat="45.06592" lon="5.53595">
        <ele>1088</ele>
        <time>2016-09-11T11:18:07Z</time>
      </trkpt>
      <trkpt lat="45.06589" lon="5.53602">
        <ele>1087</ele>
        <time>2016-09-11T11:18:08Z</time>
      </trkpt>
      <trkpt lat="45.06585" lon="5.53609">
        <ele>1087</ele>
        <time>2016-09-11T11:18:09Z</time>
      </trkpt>
      <trkpt lat="45.06583" lon="5.5362">
        <ele>1086</ele>
        <time>2016-09-11T11:18:10Z</time>
      </trkpt>
      <trkpt lat="45.06583" lon="5.53627">
        <ele>1086</ele>
        <time>2016-09-11T11:18:11Z</time>
      </trkpt>
      <trkpt lat="45.06586" lon="5.53635">
        <ele>1085</ele>
        <time>2016-09-11T11:18:12Z</time>
      </trkpt>
      <trkpt lat="45.06588" lon="5.53644">
        <ele>1085</ele>
        <time>2016-09-11T11:18:13Z</time>
      </trkpt>
      <trkpt lat="45.06593" lon="5.53648">
        <ele>1085</ele>
        <time>2016-09-11T11:18:14Z</time>
      </trkpt>
      <trkpt lat="45.06596" lon="5.53654">
        <ele>1085</ele>
        <time>2016-09-11T11:18:15Z</time>
      </trkpt>
      <trkpt lat="45.06601" lon="5.53658">
        <ele>1084</ele>
        <time>2016-09-11T11:18:16Z</time>
      </trkpt>
      <trkpt lat="45.06606" lon="5.53664">
        <ele>1084</ele>
        <time>2016-09-11T11:18:17Z</time>
      </trkpt>
      <trkpt lat="45.06615" lon="5.53669">
        <ele>1083</ele>
        <time>2016-09-11T11:18:18Z</time>
      </trkpt>
      <trkpt lat="45.06624" lon="5.53675">
        <ele>1083</ele>
        <time>2016-09-11T11:18:19Z</time>
      </trkpt>
      <trkpt lat="45.06633" lon="5.53679">
        <ele>1082</ele>
        <time>2016-09-11T11:18:20Z</time>
      </trkpt>
      <trkpt lat="45.06638" lon="5.53688">
        <ele>1082</ele>
        <time>2016-09-11T11:18:21Z</time>
      </trkpt>
      <trkpt lat="45.06649" lon="5.53693">
        <ele>1081</ele>
        <time>2016-09-11T11:18:22Z</time>
      </trkpt>
      <trkpt lat="45.06657" lon="5.53698">
        <ele>1080</ele>
        <time>2016-09-11T11:18:23Z</time>
      </trkpt>
      <trkpt lat="45.06669" lon="5.53704">
        <ele>1078</ele>
        <time>2016-09-11T11:18:24Z</time>
      </trkpt>
      <trkpt lat="45.06677" lon="5.53712">
        <ele>1077</ele>
        <time>2016-09-11T11:18:25Z</time>
      </trkpt>
      <trkpt lat="45.06685" lon="5.53718">
        <ele>1076</ele>
        <time>2016-09-11T11:18:26Z</time>
      </trkpt>
      <trkpt lat="45.06694" lon="5.53724">
        <ele>1075</ele>
        <time>2016-09-11T11:18:27Z</time>
      </trkpt>
      <trkpt lat="45.06701" lon="5.53733">
        <ele>1074</ele>
        <time>2016-09-11T11:18:28Z</time>
      </trkpt>
      <trkpt lat="45.06709" lon="5.53742">
        <ele>1073</ele>
        <time>2016-09-11T11:18:29Z</time>
      </trkpt>
      <trkpt lat="45.06718" lon="5.53748">
        <ele>1072</ele>
        <time>2016-09-11T11:18:30Z</time>
      </trkpt>
      <trkpt lat="45.0673" lon="5.53756">
        <ele>1071</ele>
        <time>2016-09-11T11:18:31Z</time>
      </trkpt>
      <trkpt lat="45.06737" lon="5.53762">
        <ele>1070</ele>
        <time>2016-09-11T11:18:32Z</time>
      </trkpt>
      <trkpt lat="45.06743" lon="5.53765">
        <ele>1070</ele>
        <time>2016-09-11T11:18:33Z</time>
      </trkpt>
      <trkpt lat="45.06746" lon="5.53771">
        <ele>1068</ele>
        <time>2016-09-11T11:18:34Z</time>
      </trkpt>
      <trkpt lat="45.06757" lon="5.53776">
        <ele>1067</ele>
        <time>2016-09-11T11:18:35Z</time>
      </trkpt>
      <trkpt lat="45.06764" lon="5.53779">
        <ele>1066</ele>
        <time>2016-09-11T11:18:36Z</time>
      </trkpt>
      <trkpt lat="45.06773" lon="5.53785">
        <ele>1065</ele>
        <time>2016-09-11T11:18:37Z</time>
      </trkpt>
      <trkpt lat="45.06781" lon="5.53789">
        <ele>1064</ele>
        <time>2016-09-11T11:18:38Z</time>
      </trkpt>
      <trkpt lat="45.06789" lon="5.53791">
        <ele>1063</ele>
        <time>2016-09-11T11:18:39Z</time>
      </trkpt>
      <trkpt lat="45.06797" lon="5.53794">
        <ele>1062</ele>
        <time>2016-09-11T11:18:40Z</time>
      </trkpt>
      <trkpt lat="45.06803" lon="5.53799">
        <ele>1062</ele>
        <time>2016-09-11T11:18:41Z</time>
      </trkpt>
      <trkpt lat="45.06812" lon="5.53806">
        <ele>1061</ele>
        <time>2016-09-11T11:18:42Z</time>
      </trkpt>
      <trkpt lat="45.06819" lon="5.53812">
        <ele>1059</ele>
        <time>2016-09-11T11:18:43Z</time>
      </trkpt>
      <trkpt lat="45.06828" lon="5.53819">
        <ele>1058</ele>
        <time>2016-09-11T11:18:44Z</time>
      </trkpt>
      <trkpt lat="45.06835" lon="5.53826">
        <ele>1057</ele>
        <time>2016-09-11T11:18:45Z</time>
      </trkpt>
      <trkpt lat="45.06847" lon="5.53831">
        <ele>1056</ele>
        <time>2016-09-11T11:18:46Z</time>
      </trkpt>
      <trkpt lat="45.06854" lon="5.53837">
        <ele>1055</ele>
        <time>2016-09-11T11:18:47Z</time>
      </trkpt>
      <trkpt lat="45.06864" lon="5.53846">
        <ele>1054</ele>
        <time>2016-09-11T11:18:48Z</time>
      </trkpt>
      <trkpt lat="45.06873" lon="5.53852">
        <ele>1053</ele>
        <time>2016-09-11T11:18:49Z</time>
      </trkpt>
      <trkpt lat="45.06881" lon="5.53858">
        <ele>1052</ele>
        <time>2016-09-11T11:18:50Z</time>
      </trkpt>
      <trkpt lat="45.06886" lon="5.53866">
        <ele>1051</ele>
        <time>2016-09-11T11:18:51Z</time>
      </trkpt>
      <trkpt lat="45.06896" lon="5.53871">
        <ele>1050</ele>
        <time>2016-09-11T11:18:52Z</time>
      </trkpt>
      <trkpt lat="45.06903" lon="5.53876">
        <ele>1049</ele>
        <time>2016-09-11T11:18:53Z</time>
      </trkpt>
      <trkpt lat="45.06911" lon="5.53881">
        <ele>1049</ele>
        <time>2016-09-11T11:18:54Z</time>
      </trkpt>
      <trkpt lat="45.06919" lon="5.53886">
        <ele>1049</ele>
        <time>2016-09-11T11:18:55Z</time>
      </trkpt>
      <trkpt lat="45.06924" lon="5.53894">
        <ele>1048</ele>
        <time>2016-09-11T11:18:56Z</time>
      </trkpt>
      <trkpt lat="45.06934" lon="5.539">
        <ele>1048</ele>
        <time>2016-09-11T11:18:57Z</time>
      </trkpt>
      <trkpt lat="45.06942" lon="5.53907">
        <ele>1047</ele>
        <time>2016-09-11T11:18:58Z</time>
      </trkpt>
      <trkpt lat="45.0695" lon="5.53914">
        <ele>1046</ele>
        <time>2016-09-11T11:18:59Z</time>
      </trkpt>
      <trkpt lat="45.06955" lon="5.53919">
        <ele>1046</ele>
        <time>2016-09-11T11:19:00Z</time>
      </trkpt>
      <trkpt lat="45.06962" lon="5.53922">
        <ele>1045</ele>
        <time>2016-09-11T11:19:01Z</time>
      </trkpt>
      <trkpt lat="45.06971" lon="5.53927">
        <ele>1044</ele>
        <time>2016-09-11T11:19:02Z</time>
      </trkpt>
      <trkpt lat="45.06979" lon="5.53932">
        <ele>1042</ele>
        <time>2016-09-11T11:19:03Z</time>
      </trkpt>
      <trkpt lat="45.06992" lon="5.53938">
        <ele>1041</ele>
        <time>2016-09-11T11:19:04Z</time>
      </trkpt>
      <trkpt lat="45.06999" lon="5.53942">
        <ele>1040</ele>
        <time>2016-09-11T11:19:05Z</time>
      </trkpt>
      <trkpt lat="45.07008" lon="5.53948">
        <ele>1039</ele>
        <time>2016-09-11T11:19:06Z</time>
      </trkpt>
      <trkpt lat="45.07016" lon="5.53951">
        <ele>1037</ele>
        <time>2016-09-11T11:19:07Z</time>
      </trkpt>
      <trkpt lat="45.07026" lon="5.53958">
        <ele>1036</ele>
        <time>2016-09-11T11:19:08Z</time>
      </trkpt>
      <trkpt lat="45.07034" lon="5.53964">
        <ele>1034</ele>
        <time>2016-09-11T11:19:09Z</time>
      </trkpt>
      <trkpt lat="45.07042" lon="5.53971">
        <ele>1033</ele>
        <time>2016-09-11T11:19:10Z</time>
      </trkpt>
      <trkpt lat="45.07049" lon="5.53979">
        <ele>1032</ele>
        <time>2016-09-11T11:19:11Z</time>
      </trkpt>
      <trkpt lat="45.07055" lon="5.53987">
        <ele>1031</ele>
        <time>2016-09-11T11:19:12Z</time>
      </trkpt>
      <trkpt lat="45.07061" lon="5.53997">
        <ele>1030</ele>
        <time>2016-09-11T11:19:13Z</time>
      </trkpt>
      <trkpt lat="45.07065" lon="5.54006">
        <ele>1029</ele>
        <time>2016-09-11T11:19:14Z</time>
      </trkpt>
      <trkpt lat="45.07069" lon="5.54014">
        <ele>1028</ele>
        <time>2016-09-11T11:19:15Z</time>
      </trkpt>
      <trkpt lat="45.07072" lon="5.5402">
        <ele>1028</ele>
        <time>2016-09-11T11:19:16Z</time>
      </trkpt>
      <trkpt lat="45.07075" lon="5.54026">
        <ele>1027</ele>
        <time>2016-09-11T11:19:18Z</time>
      </trkpt>
      <trkpt lat="45.07077" lon="5.54028">
        <ele>1027</ele>
        <time>2016-09-11T11:19:46Z</time>
      </trkpt>
      <trkpt lat="45.07077" lon="5.54028">
        <ele>1027</ele>
        <time>2016-09-11T11:19:48Z</time>
      </trkpt>
      <trkpt lat="45.07077" lon="5.54028">
        <ele>1027</ele>
        <time>2016-09-11T11:20:16Z</time>
      </trkpt>
      <trkpt lat="45.07077" lon="5.54028">
        <ele>1027</ele>
        <time>2016-09-11T11:20:18Z</time>
      </trkpt>
      <trkpt lat="45.07077" lon="5.54028">
        <ele>1028</ele>
        <time>2016-09-11T11:20:46Z</time>
      </trkpt>
      <trkpt lat="45.07077" lon="5.54028">
        <ele>1028</ele>
        <time>2016-09-11T11:20:48Z</time>
      </trkpt>
      <trkpt lat="45.07078" lon="5.54028">
        <ele>1028</ele>
        <time>2016-09-11T11:21:16Z</time>
      </trkpt>
      <trkpt lat="45.07078" lon="5.54028">
        <ele>1028</ele>
        <time>2016-09-11T11:21:18Z</time>
      </trkpt>
      <trkpt lat="45.07081" lon="5.54033">
        <ele>1028</ele>
        <time>2016-09-11T11:21:22Z</time>
      </trkpt>
      <trkpt lat="45.07087" lon="5.54042">
        <ele>1028</ele>
        <time>2016-09-11T11:21:24Z</time>
      </trkpt>
      <trkpt lat="45.0709" lon="5.54048">
        <ele>1027</ele>
        <time>2016-09-11T11:21:25Z</time>
      </trkpt>
      <trkpt lat="45.07093" lon="5.54053">
        <ele>1026</ele>
        <time>2016-09-11T11:21:26Z</time>
      </trkpt>
      <trkpt lat="45.07097" lon="5.54062">
        <ele>1025</ele>
        <time>2016-09-11T11:21:27Z</time>
      </trkpt>
      <trkpt lat="45.07101" lon="5.54069">
        <ele>1023</ele>
        <time>2016-09-11T11:21:28Z</time>
      </trkpt>
      <trkpt lat="45.07104" lon="5.54076">
        <ele>1023</ele>
        <time>2016-09-11T11:21:29Z</time>
      </trkpt>
      <trkpt lat="45.07108" lon="5.54085">
        <ele>1022</ele>
        <time>2016-09-11T11:21:30Z</time>
      </trkpt>
      <trkpt lat="45.0711" lon="5.54094">
        <ele>1021</ele>
        <time>2016-09-11T11:21:31Z</time>
      </trkpt>
      <trkpt lat="45.07112" lon="5.54104">
        <ele>1020</ele>
        <time>2016-09-11T11:21:32Z</time>
      </trkpt>
      <trkpt lat="45.07115" lon="5.54114">
        <ele>1020</ele>
        <time>2016-09-11T11:21:33Z</time>
      </trkpt>
      <trkpt lat="45.07118" lon="5.54125">
        <ele>1019</ele>
        <time>2016-09-11T11:21:34Z</time>
      </trkpt>
      <trkpt lat="45.07121" lon="5.54135">
        <ele>1019</ele>
        <time>2016-09-11T11:21:35Z</time>
      </trkpt>
      <trkpt lat="45.07123" lon="5.54146">
        <ele>1018</ele>
        <time>2016-09-11T11:21:36Z</time>
      </trkpt>
      <trkpt lat="45.07127" lon="5.54156">
        <ele>1018</ele>
        <time>2016-09-11T11:21:37Z</time>
      </trkpt>
      <trkpt lat="45.0713" lon="5.54166">
        <ele>1017</ele>
        <time>2016-09-11T11:21:38Z</time>
      </trkpt>
      <trkpt lat="45.07134" lon="5.54174">
        <ele>1017</ele>
        <time>2016-09-11T11:21:39Z</time>
      </trkpt>
      <trkpt lat="45.07139" lon="5.54184">
        <ele>1016</ele>
        <time>2016-09-11T11:21:40Z</time>
      </trkpt>
      <trkpt lat="45.07143" lon="5.54194">
        <ele>1015</ele>
        <time>2016-09-11T11:21:41Z</time>
      </trkpt>
      <trkpt lat="45.07147" lon="5.54205">
        <ele>1014</ele>
        <time>2016-09-11T11:21:42Z</time>
      </trkpt>
      <trkpt lat="45.07152" lon="5.54215">
        <ele>1014</ele>
        <time>2016-09-11T11:21:43Z</time>
      </trkpt>
      <trkpt lat="45.07156" lon="5.54225">
        <ele>1014</ele>
        <time>2016-09-11T11:21:44Z</time>
      </trkpt>
      <trkpt lat="45.07161" lon="5.54235">
        <ele>1013</ele>
        <time>2016-09-11T11:21:45Z</time>
      </trkpt>
      <trkpt lat="45.07164" lon="5.54246">
        <ele>1013</ele>
        <time>2016-09-11T11:21:46Z</time>
      </trkpt>
      <trkpt lat="45.07169" lon="5.54257">
        <ele>1013</ele>
        <time>2016-09-11T11:21:47Z</time>
      </trkpt>
      <trkpt lat="45.07172" lon="5.54266">
        <ele>1013</ele>
        <time>2016-09-11T11:21:48Z</time>
      </trkpt>
      <trkpt lat="45.07175" lon="5.54276">
        <ele>1013</ele>
        <time>2016-09-11T11:21:49Z</time>
      </trkpt>
      <trkpt lat="45.07176" lon="5.54286">
        <ele>1012</ele>
        <time>2016-09-11T11:21:50Z</time>
      </trkpt>
      <trkpt lat="45.0718" lon="5.54295">
        <ele>1012</ele>
        <time>2016-09-11T11:21:51Z</time>
      </trkpt>
      <trkpt lat="45.07183" lon="5.54305">
        <ele>1012</ele>
        <time>2016-09-11T11:21:52Z</time>
      </trkpt>
      <trkpt lat="45.07184" lon="5.54314">
        <ele>1011</ele>
        <time>2016-09-11T11:21:53Z</time>
      </trkpt>
      <trkpt lat="45.07185" lon="5.54323">
        <ele>1011</ele>
        <time>2016-09-11T11:21:54Z</time>
      </trkpt>
      <trkpt lat="45.07184" lon="5.54331">
        <ele>1011</ele>
        <time>2016-09-11T11:21:55Z</time>
      </trkpt>
      <trkpt lat="45.07183" lon="5.5434">
        <ele>1011</ele>
        <time>2016-09-11T11:21:56Z</time>
      </trkpt>
      <trkpt lat="45.07182" lon="5.54349">
        <ele>1011</ele>
        <time>2016-09-11T11:21:57Z</time>
      </trkpt>
      <trkpt lat="45.07179" lon="5.54356">
        <ele>1011</ele>
        <time>2016-09-11T11:21:58Z</time>
      </trkpt>
      <trkpt lat="45.07176" lon="5.54364">
        <ele>1010</ele>
        <time>2016-09-11T11:21:59Z</time>
      </trkpt>
      <trkpt lat="45.07171" lon="5.54372">
        <ele>1010</ele>
        <time>2016-09-11T11:22:00Z</time>
      </trkpt>
      <trkpt lat="45.07166" lon="5.54379">
        <ele>1010</ele>
        <time>2016-09-11T11:22:01Z</time>
      </trkpt>
      <trkpt lat="45.07163" lon="5.54386">
        <ele>1010</ele>
        <time>2016-09-11T11:22:02Z</time>
      </trkpt>
      <trkpt lat="45.0716" lon="5.54393">
        <ele>1010</ele>
        <time>2016-09-11T11:22:03Z</time>
      </trkpt>
      <trkpt lat="45.07157" lon="5.544">
        <ele>1010</ele>
        <time>2016-09-11T11:22:04Z</time>
      </trkpt>
      <trkpt lat="45.07154" lon="5.54406">
        <ele>1011</ele>
        <time>2016-09-11T11:22:05Z</time>
      </trkpt>
      <trkpt lat="45.07151" lon="5.54413">
        <ele>1011</ele>
        <time>2016-09-11T11:22:06Z</time>
      </trkpt>
      <trkpt lat="45.07147" lon="5.5442">
        <ele>1011</ele>
        <time>2016-09-11T11:22:07Z</time>
      </trkpt>
      <trkpt lat="45.07144" lon="5.54425">
        <ele>1011</ele>
        <time>2016-09-11T11:22:08Z</time>
      </trkpt>
      <trkpt lat="45.07141" lon="5.5443">
        <ele>1011</ele>
        <time>2016-09-11T11:22:09Z</time>
      </trkpt>
      <trkpt lat="45.07137" lon="5.54435">
        <ele>1011</ele>
        <time>2016-09-11T11:22:10Z</time>
      </trkpt>
      <trkpt lat="45.07134" lon="5.5444">
        <ele>1010</ele>
        <time>2016-09-11T11:22:11Z</time>
      </trkpt>
      <trkpt lat="45.07131" lon="5.54446">
        <ele>1010</ele>
        <time>2016-09-11T11:22:12Z</time>
      </trkpt>
      <trkpt lat="45.07127" lon="5.5445">
        <ele>1010</ele>
        <time>2016-09-11T11:22:13Z</time>
      </trkpt>
      <trkpt lat="45.07124" lon="5.54455">
        <ele>1010</ele>
        <time>2016-09-11T11:22:14Z</time>
      </trkpt>
      <trkpt lat="45.0712" lon="5.5446">
        <ele>1010</ele>
        <time>2016-09-11T11:22:15Z</time>
      </trkpt>
      <trkpt lat="45.07115" lon="5.54465">
        <ele>1010</ele>
        <time>2016-09-11T11:22:16Z</time>
      </trkpt>
      <trkpt lat="45.0711" lon="5.5447">
        <ele>1009</ele>
        <time>2016-09-11T11:22:17Z</time>
      </trkpt>
      <trkpt lat="45.07105" lon="5.54473">
        <ele>1009</ele>
        <time>2016-09-11T11:22:18Z</time>
      </trkpt>
      <trkpt lat="45.07098" lon="5.54477">
        <ele>1009</ele>
        <time>2016-09-11T11:22:19Z</time>
      </trkpt>
      <trkpt lat="45.07092" lon="5.5448">
        <ele>1009</ele>
        <time>2016-09-11T11:22:20Z</time>
      </trkpt>
      <trkpt lat="45.07086" lon="5.54483">
        <ele>1009</ele>
        <time>2016-09-11T11:22:21Z</time>
      </trkpt>
      <trkpt lat="45.07079" lon="5.54485">
        <ele>1008</ele>
        <time>2016-09-11T11:22:22Z</time>
      </trkpt>
      <trkpt lat="45.07071" lon="5.54487">
        <ele>1008</ele>
        <time>2016-09-11T11:22:23Z</time>
      </trkpt>
      <trkpt lat="45.07064" lon="5.5449">
        <ele>1008</ele>
        <time>2016-09-11T11:22:24Z</time>
      </trkpt>
      <trkpt lat="45.07056" lon="5.54493">
        <ele>1007</ele>
        <time>2016-09-11T11:22:25Z</time>
      </trkpt>
      <trkpt lat="45.07049" lon="5.54496">
        <ele>1007</ele>
        <time>2016-09-11T11:22:26Z</time>
      </trkpt>
      <trkpt lat="45.07043" lon="5.54498">
        <ele>1006</ele>
        <time>2016-09-11T11:22:27Z</time>
      </trkpt>
      <trkpt lat="45.07036" lon="5.545">
        <ele>1006</ele>
        <time>2016-09-11T11:22:28Z</time>
      </trkpt>
      <trkpt lat="45.07029" lon="5.54503">
        <ele>1006</ele>
        <time>2016-09-11T11:22:29Z</time>
      </trkpt>
      <trkpt lat="45.07021" lon="5.54504">
        <ele>1005</ele>
        <time>2016-09-11T11:22:30Z</time>
      </trkpt>
      <trkpt lat="45.07014" lon="5.54505">
        <ele>1005</ele>
        <time>2016-09-11T11:22:31Z</time>
      </trkpt>
      <trkpt lat="45.07007" lon="5.54504">
        <ele>1004</ele>
        <time>2016-09-11T11:22:32Z</time>
      </trkpt>
      <trkpt lat="45.06999" lon="5.54503">
        <ele>1003</ele>
        <time>2016-09-11T11:22:33Z</time>
      </trkpt>
      <trkpt lat="45.0699" lon="5.54502">
        <ele>1003</ele>
        <time>2016-09-11T11:22:34Z</time>
      </trkpt>
      <trkpt lat="45.06982" lon="5.545">
        <ele>1002</ele>
        <time>2016-09-11T11:22:35Z</time>
      </trkpt>
      <trkpt lat="45.06974" lon="5.54499">
        <ele>1002</ele>
        <time>2016-09-11T11:22:36Z</time>
      </trkpt>
      <trkpt lat="45.06966" lon="5.54496">
        <ele>1001</ele>
        <time>2016-09-11T11:22:37Z</time>
      </trkpt>
      <trkpt lat="45.06957" lon="5.54496">
        <ele>1001</ele>
        <time>2016-09-11T11:22:38Z</time>
      </trkpt>
      <trkpt lat="45.06949" lon="5.54496">
        <ele>1000</ele>
        <time>2016-09-11T11:22:39Z</time>
      </trkpt>
      <trkpt lat="45.06939" lon="5.54496">
        <ele>1000</ele>
        <time>2016-09-11T11:22:40Z</time>
      </trkpt>
      <trkpt lat="45.0693" lon="5.54495">
        <ele>999</ele>
        <time>2016-09-11T11:22:41Z</time>
      </trkpt>
      <trkpt lat="45.0692" lon="5.54495">
        <ele>999</ele>
        <time>2016-09-11T11:22:42Z</time>
      </trkpt>
      <trkpt lat="45.06911" lon="5.54495">
        <ele>998</ele>
        <time>2016-09-11T11:22:43Z</time>
      </trkpt>
      <trkpt lat="45.06902" lon="5.54494">
        <ele>998</ele>
        <time>2016-09-11T11:22:44Z</time>
      </trkpt>
      <trkpt lat="45.06892" lon="5.54494">
        <ele>997</ele>
        <time>2016-09-11T11:22:45Z</time>
      </trkpt>
      <trkpt lat="45.06883" lon="5.54493">
        <ele>996</ele>
        <time>2016-09-11T11:22:46Z</time>
      </trkpt>
      <trkpt lat="45.06875" lon="5.54494">
        <ele>996</ele>
        <time>2016-09-11T11:22:47Z</time>
      </trkpt>
      <trkpt lat="45.06867" lon="5.54496">
        <ele>995</ele>
        <time>2016-09-11T11:22:48Z</time>
      </trkpt>
      <trkpt lat="45.06858" lon="5.54499">
        <ele>994</ele>
        <time>2016-09-11T11:22:49Z</time>
      </trkpt>
      <trkpt lat="45.06847" lon="5.54507">
        <ele>994</ele>
        <time>2016-09-11T11:22:50Z</time>
      </trkpt>
      <trkpt lat="45.06839" lon="5.54511">
        <ele>993</ele>
        <time>2016-09-11T11:22:51Z</time>
      </trkpt>
      <trkpt lat="45.0683" lon="5.54515">
        <ele>992</ele>
        <time>2016-09-11T11:22:52Z</time>
      </trkpt>
      <trkpt lat="45.0682" lon="5.5452">
        <ele>992</ele>
        <time>2016-09-11T11:22:53Z</time>
      </trkpt>
      <trkpt lat="45.06812" lon="5.54526">
        <ele>991</ele>
        <time>2016-09-11T11:22:54Z</time>
      </trkpt>
      <trkpt lat="45.06805" lon="5.54528">
        <ele>990</ele>
        <time>2016-09-11T11:22:55Z</time>
      </trkpt>
      <trkpt lat="45.06797" lon="5.54532">
        <ele>990</ele>
        <time>2016-09-11T11:22:56Z</time>
      </trkpt>
      <trkpt lat="45.0679" lon="5.54537">
        <ele>989</ele>
        <time>2016-09-11T11:22:57Z</time>
      </trkpt>
      <trkpt lat="45.06784" lon="5.5454">
        <ele>989</ele>
        <time>2016-09-11T11:22:58Z</time>
      </trkpt>
      <trkpt lat="45.06777" lon="5.54545">
        <ele>988</ele>
        <time>2016-09-11T11:22:59Z</time>
      </trkpt>
      <trkpt lat="45.0677" lon="5.5455">
        <ele>988</ele>
        <time>2016-09-11T11:23:00Z</time>
      </trkpt>
      <trkpt lat="45.06764" lon="5.54554">
        <ele>988</ele>
        <time>2016-09-11T11:23:01Z</time>
      </trkpt>
      <trkpt lat="45.06757" lon="5.54558">
        <ele>987</ele>
        <time>2016-09-11T11:23:02Z</time>
      </trkpt>
      <trkpt lat="45.0675" lon="5.54562">
        <ele>987</ele>
        <time>2016-09-11T11:23:03Z</time>
      </trkpt>
      <trkpt lat="45.06744" lon="5.54566">
        <ele>986</ele>
        <time>2016-09-11T11:23:04Z</time>
      </trkpt>
      <trkpt lat="45.06738" lon="5.54568">
        <ele>984</ele>
        <time>2016-09-11T11:23:05Z</time>
      </trkpt>
      <trkpt lat="45.06732" lon="5.5457">
        <ele>984</ele>
        <time>2016-09-11T11:23:06Z</time>
      </trkpt>
      <trkpt lat="45.06726" lon="5.54571">
        <ele>983</ele>
        <time>2016-09-11T11:23:07Z</time>
      </trkpt>
      <trkpt lat="45.06721" lon="5.54572">
        <ele>983</ele>
        <time>2016-09-11T11:23:08Z</time>
      </trkpt>
      <trkpt lat="45.06714" lon="5.54578">
        <ele>982</ele>
        <time>2016-09-11T11:23:10Z</time>
      </trkpt>
      <trkpt lat="45.06712" lon="5.54587">
        <ele>982</ele>
        <time>2016-09-11T11:23:12Z</time>
      </trkpt>
      <trkpt lat="45.0671" lon="5.54597">
        <ele>982</ele>
        <time>2016-09-11T11:23:14Z</time>
      </trkpt>
      <trkpt lat="45.06709" lon="5.54608">
        <ele>982</ele>
        <time>2016-09-11T11:23:16Z</time>
      </trkpt>
      <trkpt lat="45.06713" lon="5.54617">
        <ele>982</ele>
        <time>2016-09-11T11:23:18Z</time>
      </trkpt>
      <trkpt lat="45.06718" lon="5.54625">
        <ele>982</ele>
        <time>2016-09-11T11:23:20Z</time>
      </trkpt>
      <trkpt lat="45.06723" lon="5.54634">
        <ele>981</ele>
        <time>2016-09-11T11:23:22Z</time>
      </trkpt>
      <trkpt lat="45.06727" lon="5.54645">
        <ele>980</ele>
        <time>2016-09-11T11:23:24Z</time>
      </trkpt>
      <trkpt lat="45.0673" lon="5.54655">
        <ele>979</ele>
        <time>2016-09-11T11:23:26Z</time>
      </trkpt>
      <trkpt lat="45.06732" lon="5.54663">
        <ele>978</ele>
        <time>2016-09-11T11:23:28Z</time>
      </trkpt>
      <trkpt lat="45.06735" lon="5.54671">
        <ele>977</ele>
        <time>2016-09-11T11:23:30Z</time>
      </trkpt>
      <trkpt lat="45.06738" lon="5.54679">
        <ele>977</ele>
        <time>2016-09-11T11:23:32Z</time>
      </trkpt>
      <trkpt lat="45.06741" lon="5.54687">
        <ele>976</ele>
        <time>2016-09-11T11:23:34Z</time>
      </trkpt>
      <trkpt lat="45.06743" lon="5.54695">
        <ele>975</ele>
        <time>2016-09-11T11:23:36Z</time>
      </trkpt>
      <trkpt lat="45.06744" lon="5.54704">
        <ele>975</ele>
        <time>2016-09-11T11:23:38Z</time>
      </trkpt>
      <trkpt lat="45.06747" lon="5.54714">
        <ele>975</ele>
        <time>2016-09-11T11:23:40Z</time>
      </trkpt>
      <trkpt lat="45.06749" lon="5.54722">
        <ele>975</ele>
        <time>2016-09-11T11:23:42Z</time>
      </trkpt>
      <trkpt lat="45.0675" lon="5.5473">
        <ele>975</ele>
        <time>2016-09-11T11:23:44Z</time>
      </trkpt>
      <trkpt lat="45.06751" lon="5.54738">
        <ele>975</ele>
        <time>2016-09-11T11:23:46Z</time>
      </trkpt>
      <trkpt lat="45.06751" lon="5.54745">
        <ele>975</ele>
        <time>2016-09-11T11:23:48Z</time>
      </trkpt>
      <trkpt lat="45.06751" lon="5.54753">
        <ele>975</ele>
        <time>2016-09-11T11:23:51Z</time>
      </trkpt>
      <trkpt lat="45.06752" lon="5.54761">
        <ele>975</ele>
        <time>2016-09-11T11:23:54Z</time>
      </trkpt>
      <trkpt lat="45.06752" lon="5.54768">
        <ele>975</ele>
        <time>2016-09-11T11:23:57Z</time>
      </trkpt>
      <trkpt lat="45.06752" lon="5.54774">
        <ele>976</ele>
        <time>2016-09-11T11:24:00Z</time>
      </trkpt>
      <trkpt lat="45.06753" lon="5.54781">
        <ele>977</ele>
        <time>2016-09-11T11:24:03Z</time>
      </trkpt>
      <trkpt lat="45.06753" lon="5.54788">
        <ele>977</ele>
        <time>2016-09-11T11:24:06Z</time>
      </trkpt>
      <trkpt lat="45.06753" lon="5.54794">
        <ele>978</ele>
        <time>2016-09-11T11:24:08Z</time>
      </trkpt>
      <trkpt lat="45.06753" lon="5.54801">
        <ele>978</ele>
        <time>2016-09-11T11:24:10Z</time>
      </trkpt>
      <trkpt lat="45.06753" lon="5.54808">
        <ele>978</ele>
        <time>2016-09-11T11:24:12Z</time>
      </trkpt>
      <trkpt lat="45.06753" lon="5.54815">
        <ele>979</ele>
        <time>2016-09-11T11:24:14Z</time>
      </trkpt>
      <trkpt lat="45.06753" lon="5.54822">
        <ele>979</ele>
        <time>2016-09-11T11:24:16Z</time>
      </trkpt>
      <trkpt lat="45.06753" lon="5.54828">
        <ele>979</ele>
        <time>2016-09-11T11:24:18Z</time>
      </trkpt>
      <trkpt lat="45.06753" lon="5.54835">
        <ele>979</ele>
        <time>2016-09-11T11:24:20Z</time>
      </trkpt>
      <trkpt lat="45.06754" lon="5.54842">
        <ele>980</ele>
        <time>2016-09-11T11:24:22Z</time>
      </trkpt>
      <trkpt lat="45.06754" lon="5.54849">
        <ele>980</ele>
        <time>2016-09-11T11:24:24Z</time>
      </trkpt>
      <trkpt lat="45.06753" lon="5.54855">
        <ele>980</ele>
        <time>2016-09-11T11:24:26Z</time>
      </trkpt>
      <trkpt lat="45.06752" lon="5.54862">
        <ele>981</ele>
        <time>2016-09-11T11:24:28Z</time>
      </trkpt>
      <trkpt lat="45.06752" lon="5.54869">
        <ele>981</ele>
        <time>2016-09-11T11:24:30Z</time>
      </trkpt>
      <trkpt lat="45.06752" lon="5.54875">
        <ele>981</ele>
        <time>2016-09-11T11:24:32Z</time>
      </trkpt>
      <trkpt lat="45.06752" lon="5.54881">
        <ele>981</ele>
        <time>2016-09-11T11:24:34Z</time>
      </trkpt>
      <trkpt lat="45.06751" lon="5.54888">
        <ele>982</ele>
        <time>2016-09-11T11:24:36Z</time>
      </trkpt>
      <trkpt lat="45.06751" lon="5.54894">
        <ele>982</ele>
        <time>2016-09-11T11:24:38Z</time>
      </trkpt>
      <trkpt lat="45.06751" lon="5.54901">
        <ele>982</ele>
        <time>2016-09-11T11:24:40Z</time>
      </trkpt>
      <trkpt lat="45.06751" lon="5.54908">
        <ele>983</ele>
        <time>2016-09-11T11:24:42Z</time>
      </trkpt>
      <trkpt lat="45.06751" lon="5.54914">
        <ele>983</ele>
        <time>2016-09-11T11:24:44Z</time>
      </trkpt>
      <trkpt lat="45.06751" lon="5.54921">
        <ele>984</ele>
        <time>2016-09-11T11:24:46Z</time>
      </trkpt>
      <trkpt lat="45.06751" lon="5.54928">
        <ele>984</ele>
        <time>2016-09-11T11:24:48Z</time>
      </trkpt>
      <trkpt lat="45.06751" lon="5.54935">
        <ele>984</ele>
        <time>2016-09-11T11:24:50Z</time>
      </trkpt>
      <trkpt lat="45.06751" lon="5.54942">
        <ele>985</ele>
        <time>2016-09-11T11:24:52Z</time>
      </trkpt>
      <trkpt lat="45.06751" lon="5.5495">
        <ele>985</ele>
        <time>2016-09-11T11:24:54Z</time>
      </trkpt>
      <trkpt lat="45.0675" lon="5.54958">
        <ele>986</ele>
        <time>2016-09-11T11:24:56Z</time>
      </trkpt>
      <trkpt lat="45.0675" lon="5.54967">
        <ele>987</ele>
        <time>2016-09-11T11:24:58Z</time>
      </trkpt>
      <trkpt lat="45.0675" lon="5.54975">
        <ele>987</ele>
        <time>2016-09-11T11:25:00Z</time>
      </trkpt>
      <trkpt lat="45.06749" lon="5.54984">
        <ele>988</ele>
        <time>2016-09-11T11:25:02Z</time>
      </trkpt>
      <trkpt lat="45.06749" lon="5.54992">
        <ele>988</ele>
        <time>2016-09-11T11:25:04Z</time>
      </trkpt>
      <trkpt lat="45.06749" lon="5.55">
        <ele>988</ele>
        <time>2016-09-11T11:25:06Z</time>
      </trkpt>
      <trkpt lat="45.06749" lon="5.55008">
        <ele>988</ele>
        <time>2016-09-11T11:25:08Z</time>
      </trkpt>
      <trkpt lat="45.0675" lon="5.55017">
        <ele>989</ele>
        <time>2016-09-11T11:25:10Z</time>
      </trkpt>
      <trkpt lat="45.06751" lon="5.55025">
        <ele>989</ele>
        <time>2016-09-11T11:25:12Z</time>
      </trkpt>
      <trkpt lat="45.06751" lon="5.55034">
        <ele>989</ele>
        <time>2016-09-11T11:25:14Z</time>
      </trkpt>
      <trkpt lat="45.06751" lon="5.55043">
        <ele>990</ele>
        <time>2016-09-11T11:25:16Z</time>
      </trkpt>
      <trkpt lat="45.0675" lon="5.55051">
        <ele>991</ele>
        <time>2016-09-11T11:25:18Z</time>
      </trkpt>
      <trkpt lat="45.0675" lon="5.55059">
        <ele>991</ele>
        <time>2016-09-11T11:25:20Z</time>
      </trkpt>
      <trkpt lat="45.0675" lon="5.55068">
        <ele>991</ele>
        <time>2016-09-11T11:25:22Z</time>
      </trkpt>
      <trkpt lat="45.06751" lon="5.55076">
        <ele>991</ele>
        <time>2016-09-11T11:25:24Z</time>
      </trkpt>
      <trkpt lat="45.06751" lon="5.55084">
        <ele>991</ele>
        <time>2016-09-11T11:25:26Z</time>
      </trkpt>
      <trkpt lat="45.06751" lon="5.55092">
        <ele>991</ele>
        <time>2016-09-11T11:25:28Z</time>
      </trkpt>
      <trkpt lat="45.06751" lon="5.55101">
        <ele>992</ele>
        <time>2016-09-11T11:25:30Z</time>
      </trkpt>
      <trkpt lat="45.06751" lon="5.55109">
        <ele>992</ele>
        <time>2016-09-11T11:25:32Z</time>
      </trkpt>
      <trkpt lat="45.06751" lon="5.55117">
        <ele>993</ele>
        <time>2016-09-11T11:25:34Z</time>
      </trkpt>
      <trkpt lat="45.06751" lon="5.55125">
        <ele>994</ele>
        <time>2016-09-11T11:25:36Z</time>
      </trkpt>
      <trkpt lat="45.06751" lon="5.55133">
        <ele>994</ele>
        <time>2016-09-11T11:25:38Z</time>
      </trkpt>
      <trkpt lat="45.0675" lon="5.55141">
        <ele>994</ele>
        <time>2016-09-11T11:25:40Z</time>
      </trkpt>
      <trkpt lat="45.0675" lon="5.55149">
        <ele>995</ele>
        <time>2016-09-11T11:25:42Z</time>
      </trkpt>
      <trkpt lat="45.06749" lon="5.55156">
        <ele>995</ele>
        <time>2016-09-11T11:25:44Z</time>
      </trkpt>
      <trkpt lat="45.06749" lon="5.55164">
        <ele>995</ele>
        <time>2016-09-11T11:25:46Z</time>
      </trkpt>
      <trkpt lat="45.06748" lon="5.55171">
        <ele>995</ele>
        <time>2016-09-11T11:25:48Z</time>
      </trkpt>
      <trkpt lat="45.06748" lon="5.55178">
        <ele>995</ele>
        <time>2016-09-11T11:25:50Z</time>
      </trkpt>
      <trkpt lat="45.06748" lon="5.55186">
        <ele>995</ele>
        <time>2016-09-11T11:25:52Z</time>
      </trkpt>
      <trkpt lat="45.06747" lon="5.55193">
        <ele>995</ele>
        <time>2016-09-11T11:25:54Z</time>
      </trkpt>
      <trkpt lat="45.06747" lon="5.552">
        <ele>995</ele>
        <time>2016-09-11T11:25:56Z</time>
      </trkpt>
      <trkpt lat="45.06747" lon="5.55208">
        <ele>995</ele>
        <time>2016-09-11T11:25:58Z</time>
      </trkpt>
      <trkpt lat="45.06747" lon="5.55215">
        <ele>996</ele>
        <time>2016-09-11T11:26:00Z</time>
      </trkpt>
      <trkpt lat="45.06747" lon="5.55223">
        <ele>996</ele>
        <time>2016-09-11T11:26:02Z</time>
      </trkpt>
      <trkpt lat="45.06747" lon="5.5523">
        <ele>996</ele>
        <time>2016-09-11T11:26:04Z</time>
      </trkpt>
      <trkpt lat="45.06747" lon="5.55238">
        <ele>997</ele>
        <time>2016-09-11T11:26:06Z</time>
      </trkpt>
      <trkpt lat="45.06747" lon="5.55245">
        <ele>997</ele>
        <time>2016-09-11T11:26:08Z</time>
      </trkpt>
      <trkpt lat="45.06748" lon="5.55252">
        <ele>997</ele>
        <time>2016-09-11T11:26:10Z</time>
      </trkpt>
      <trkpt lat="45.06749" lon="5.55259">
        <ele>998</ele>
        <time>2016-09-11T11:26:12Z</time>
      </trkpt>
      <trkpt lat="45.06751" lon="5.55267">
        <ele>998</ele>
        <time>2016-09-11T11:26:14Z</time>
      </trkpt>
      <trkpt lat="45.06754" lon="5.55273">
        <ele>998</ele>
        <time>2016-09-11T11:26:16Z</time>
      </trkpt>
      <trkpt lat="45.06756" lon="5.5528">
        <ele>998</ele>
        <time>2016-09-11T11:26:18Z</time>
      </trkpt>
      <trkpt lat="45.06759" lon="5.55287">
        <ele>997</ele>
        <time>2016-09-11T11:26:20Z</time>
      </trkpt>
      <trkpt lat="45.06763" lon="5.55294">
        <ele>997</ele>
        <time>2016-09-11T11:26:22Z</time>
      </trkpt>
      <trkpt lat="45.06768" lon="5.55301">
        <ele>997</ele>
        <time>2016-09-11T11:26:24Z</time>
      </trkpt>
      <trkpt lat="45.06773" lon="5.55308">
        <ele>997</ele>
        <time>2016-09-11T11:26:26Z</time>
      </trkpt>
      <trkpt lat="45.06778" lon="5.55314">
        <ele>997</ele>
        <time>2016-09-11T11:26:28Z</time>
      </trkpt>
      <trkpt lat="45.06784" lon="5.55319">
        <ele>997</ele>
        <time>2016-09-11T11:26:30Z</time>
      </trkpt>
      <trkpt lat="45.06789" lon="5.55322">
        <ele>998</ele>
        <time>2016-09-11T11:26:32Z</time>
      </trkpt>
      <trkpt lat="45.06796" lon="5.55325">
        <ele>998</ele>
        <time>2016-09-11T11:26:34Z</time>
      </trkpt>
      <trkpt lat="45.06803" lon="5.55326">
        <ele>998</ele>
        <time>2016-09-11T11:26:36Z</time>
      </trkpt>
      <trkpt lat="45.06811" lon="5.55327">
        <ele>998</ele>
        <time>2016-09-11T11:26:38Z</time>
      </trkpt>
      <trkpt lat="45.06818" lon="5.55325">
        <ele>998</ele>
        <time>2016-09-11T11:26:40Z</time>
      </trkpt>
      <trkpt lat="45.06826" lon="5.55321">
        <ele>998</ele>
        <time>2016-09-11T11:26:42Z</time>
      </trkpt>
      <trkpt lat="45.06832" lon="5.55314">
        <ele>998</ele>
        <time>2016-09-11T11:26:44Z</time>
      </trkpt>
      <trkpt lat="45.06836" lon="5.55305">
        <ele>999</ele>
        <time>2016-09-11T11:26:46Z</time>
      </trkpt>
      <trkpt lat="45.0684" lon="5.55296">
        <ele>999</ele>
        <time>2016-09-11T11:26:48Z</time>
      </trkpt>
      <trkpt lat="45.06843" lon="5.55287">
        <ele>999</ele>
        <time>2016-09-11T11:26:50Z</time>
      </trkpt>
      <trkpt lat="45.06846" lon="5.55277">
        <ele>1000</ele>
        <time>2016-09-11T11:26:52Z</time>
      </trkpt>
      <trkpt lat="45.06849" lon="5.55269">
        <ele>1000</ele>
        <time>2016-09-11T11:26:54Z</time>
      </trkpt>
      <trkpt lat="45.0685" lon="5.55262">
        <ele>1000</ele>
        <time>2016-09-11T11:26:56Z</time>
      </trkpt>
      <trkpt lat="45.06852" lon="5.55254">
        <ele>1001</ele>
        <time>2016-09-11T11:26:58Z</time>
      </trkpt>
      <trkpt lat="45.06854" lon="5.55248">
        <ele>1001</ele>
        <time>2016-09-11T11:27:00Z</time>
      </trkpt>
      <trkpt lat="45.06856" lon="5.55241">
        <ele>1002</ele>
        <time>2016-09-11T11:27:02Z</time>
      </trkpt>
      <trkpt lat="45.06858" lon="5.55234">
        <ele>1003</ele>
        <time>2016-09-11T11:27:04Z</time>
      </trkpt>
      <trkpt lat="45.06861" lon="5.55227">
        <ele>1003</ele>
        <time>2016-09-11T11:27:06Z</time>
      </trkpt>
      <trkpt lat="45.06864" lon="5.5522">
        <ele>1004</ele>
        <time>2016-09-11T11:27:08Z</time>
      </trkpt>
      <trkpt lat="45.06867" lon="5.55213">
        <ele>1004</ele>
        <time>2016-09-11T11:27:10Z</time>
      </trkpt>
      <trkpt lat="45.06869" lon="5.55205">
        <ele>1004</ele>
        <time>2016-09-11T11:27:12Z</time>
      </trkpt>
      <trkpt lat="45.06871" lon="5.55197">
        <ele>1004</ele>
        <time>2016-09-11T11:27:14Z</time>
      </trkpt>
      <trkpt lat="45.06873" lon="5.55189">
        <ele>1005</ele>
        <time>2016-09-11T11:27:16Z</time>
      </trkpt>
      <trkpt lat="45.06875" lon="5.55181">
        <ele>1005</ele>
        <time>2016-09-11T11:27:18Z</time>
      </trkpt>
      <trkpt lat="45.06877" lon="5.55173">
        <ele>1005</ele>
        <time>2016-09-11T11:27:20Z</time>
      </trkpt>
      <trkpt lat="45.06878" lon="5.55166">
        <ele>1006</ele>
        <time>2016-09-11T11:27:22Z</time>
      </trkpt>
      <trkpt lat="45.0688" lon="5.55159">
        <ele>1007</ele>
        <time>2016-09-11T11:27:24Z</time>
      </trkpt>
      <trkpt lat="45.06882" lon="5.55152">
        <ele>1007</ele>
        <time>2016-09-11T11:27:26Z</time>
      </trkpt>
      <trkpt lat="45.06884" lon="5.55146">
        <ele>1008</ele>
        <time>2016-09-11T11:27:28Z</time>
      </trkpt>
      <trkpt lat="45.06885" lon="5.5514">
        <ele>1008</ele>
        <time>2016-09-11T11:27:30Z</time>
      </trkpt>
      <trkpt lat="45.06886" lon="5.55133">
        <ele>1008</ele>
        <time>2016-09-11T11:27:32Z</time>
      </trkpt>
      <trkpt lat="45.06887" lon="5.55127">
        <ele>1009</ele>
        <time>2016-09-11T11:27:34Z</time>
      </trkpt>
      <trkpt lat="45.06889" lon="5.5512">
        <ele>1009</ele>
        <time>2016-09-11T11:27:36Z</time>
      </trkpt>
      <trkpt lat="45.0689" lon="5.55114">
        <ele>1009</ele>
        <time>2016-09-11T11:27:38Z</time>
      </trkpt>
      <trkpt lat="45.06891" lon="5.55107">
        <ele>1009</ele>
        <time>2016-09-11T11:27:40Z</time>
      </trkpt>
      <trkpt lat="45.06892" lon="5.55101">
        <ele>1009</ele>
        <time>2016-09-11T11:27:42Z</time>
      </trkpt>
      <trkpt lat="45.06894" lon="5.55094">
        <ele>1008</ele>
        <time>2016-09-11T11:27:44Z</time>
      </trkpt>
      <trkpt lat="45.06895" lon="5.55086">
        <ele>1008</ele>
        <time>2016-09-11T11:27:46Z</time>
      </trkpt>
      <trkpt lat="45.06897" lon="5.55076">
        <ele>1008</ele>
        <time>2016-09-11T11:27:48Z</time>
      </trkpt>
      <trkpt lat="45.069" lon="5.55065">
        <ele>1008</ele>
        <time>2016-09-11T11:27:50Z</time>
      </trkpt>
      <trkpt lat="45.069" lon="5.55059">
        <ele>1008</ele>
        <time>2016-09-11T11:27:51Z</time>
      </trkpt>
      <trkpt lat="45.06902" lon="5.55052">
        <ele>1008</ele>
        <time>2016-09-11T11:27:52Z</time>
      </trkpt>
      <trkpt lat="45.06904" lon="5.55046">
        <ele>1008</ele>
        <time>2016-09-11T11:27:53Z</time>
      </trkpt>
      <trkpt lat="45.06905" lon="5.55038">
        <ele>1009</ele>
        <time>2016-09-11T11:27:54Z</time>
      </trkpt>
      <trkpt lat="45.06907" lon="5.55032">
        <ele>1009</ele>
        <time>2016-09-11T11:27:55Z</time>
      </trkpt>
      <trkpt lat="45.06908" lon="5.55024">
        <ele>1009</ele>
        <time>2016-09-11T11:27:56Z</time>
      </trkpt>
      <trkpt lat="45.0691" lon="5.55017">
        <ele>1010</ele>
        <time>2016-09-11T11:27:57Z</time>
      </trkpt>
      <trkpt lat="45.06912" lon="5.55005">
        <ele>1010</ele>
        <time>2016-09-11T11:27:59Z</time>
      </trkpt>
      <trkpt lat="45.06915" lon="5.54995">
        <ele>1010</ele>
        <time>2016-09-11T11:28:01Z</time>
      </trkpt>
      <trkpt lat="45.06916" lon="5.54985">
        <ele>1010</ele>
        <time>2016-09-11T11:28:03Z</time>
      </trkpt>
      <trkpt lat="45.06918" lon="5.54977">
        <ele>1011</ele>
        <time>2016-09-11T11:28:05Z</time>
      </trkpt>
      <trkpt lat="45.06921" lon="5.5497">
        <ele>1011</ele>
        <time>2016-09-11T11:28:07Z</time>
      </trkpt>
      <trkpt lat="45.06927" lon="5.5497">
        <ele>1011</ele>
        <time>2016-09-11T11:28:10Z</time>
      </trkpt>
      <trkpt lat="45.06932" lon="5.54972">
        <ele>1013</ele>
        <time>2016-09-11T11:28:12Z</time>
      </trkpt>
      <trkpt lat="45.06937" lon="5.54973">
        <ele>1013</ele>
        <time>2016-09-11T11:28:14Z</time>
      </trkpt>
      <trkpt lat="45.06941" lon="5.54974">
        <ele>1014</ele>
        <time>2016-09-11T11:28:17Z</time>
      </trkpt>
      <trkpt lat="45.06947" lon="5.54974">
        <ele>1014</ele>
        <time>2016-09-11T11:28:22Z</time>
      </trkpt>
      <trkpt lat="45.06952" lon="5.54972">
        <ele>1014</ele>
        <time>2016-09-11T11:28:25Z</time>
      </trkpt>
      <trkpt lat="45.06957" lon="5.54974">
        <ele>1014</ele>
        <time>2016-09-11T11:28:29Z</time>
      </trkpt>
      <trkpt lat="45.0696" lon="5.5498">
        <ele>1015</ele>
        <time>2016-09-11T11:28:33Z</time>
      </trkpt>
      <trkpt lat="45.06966" lon="5.54983">
        <ele>1016</ele>
        <time>2016-09-11T11:28:37Z</time>
      </trkpt>
      <trkpt lat="45.06971" lon="5.54986">
        <ele>1016</ele>
        <time>2016-09-11T11:28:40Z</time>
      </trkpt>
      <trkpt lat="45.06976" lon="5.54991">
        <ele>1017</ele>
        <time>2016-09-11T11:28:43Z</time>
      </trkpt>
      <trkpt lat="45.06981" lon="5.54997">
        <ele>1016</ele>
        <time>2016-09-11T11:28:46Z</time>
      </trkpt>
      <trkpt lat="45.06984" lon="5.55002">
        <ele>1016</ele>
        <time>2016-09-11T11:28:48Z</time>
      </trkpt>
      <trkpt lat="45.06988" lon="5.55009">
        <ele>1016</ele>
        <time>2016-09-11T11:28:51Z</time>
      </trkpt>
      <trkpt lat="45.06991" lon="5.55014">
        <ele>1017</ele>
        <time>2016-09-11T11:28:53Z</time>
      </trkpt>
      <trkpt lat="45.06994" lon="5.5502">
        <ele>1017</ele>
        <time>2016-09-11T11:28:55Z</time>
      </trkpt>
      <trkpt lat="45.06995" lon="5.55026">
        <ele>1018</ele>
        <time>2016-09-11T11:28:57Z</time>
      </trkpt>
      <trkpt lat="45.06998" lon="5.55034">
        <ele>1019</ele>
        <time>2016-09-11T11:29:00Z</time>
      </trkpt>
      <trkpt lat="45.07001" lon="5.55041">
        <ele>1019</ele>
        <time>2016-09-11T11:29:03Z</time>
      </trkpt>
      <trkpt lat="45.07007" lon="5.55046">
        <ele>1020</ele>
        <time>2016-09-11T11:29:06Z</time>
      </trkpt>
      <trkpt lat="45.07011" lon="5.5505">
        <ele>1021</ele>
        <time>2016-09-11T11:29:09Z</time>
      </trkpt>
      <trkpt lat="45.07016" lon="5.55055">
        <ele>1021</ele>
        <time>2016-09-11T11:29:12Z</time>
      </trkpt>
      <trkpt lat="45.07021" lon="5.55059">
        <ele>1021</ele>
        <time>2016-09-11T11:29:15Z</time>
      </trkpt>
      <trkpt lat="45.07026" lon="5.55063">
        <ele>1021</ele>
        <time>2016-09-11T11:29:18Z</time>
      </trkpt>
      <trkpt lat="45.07032" lon="5.55069">
        <ele>1022</ele>
        <time>2016-09-11T11:29:21Z</time>
      </trkpt>
      <trkpt lat="45.07034" lon="5.55076">
        <ele>1022</ele>
        <time>2016-09-11T11:29:23Z</time>
      </trkpt>
      <trkpt lat="45.07033" lon="5.55082">
        <ele>1023</ele>
        <time>2016-09-11T11:29:25Z</time>
      </trkpt>
      <trkpt lat="45.07033" lon="5.55089">
        <ele>1024</ele>
        <time>2016-09-11T11:29:27Z</time>
      </trkpt>
      <trkpt lat="45.07035" lon="5.55096">
        <ele>1024</ele>
        <time>2016-09-11T11:29:30Z</time>
      </trkpt>
      <trkpt lat="45.0704" lon="5.551">
        <ele>1024</ele>
        <time>2016-09-11T11:29:33Z</time>
      </trkpt>
      <trkpt lat="45.07045" lon="5.55104">
        <ele>1023</ele>
        <time>2016-09-11T11:29:36Z</time>
      </trkpt>
      <trkpt lat="45.0705" lon="5.55109">
        <ele>1022</ele>
        <time>2016-09-11T11:29:39Z</time>
      </trkpt>
      <trkpt lat="45.0705" lon="5.55117">
        <ele>1022</ele>
        <time>2016-09-11T11:29:42Z</time>
      </trkpt>
      <trkpt lat="45.07045" lon="5.55124">
        <ele>1022</ele>
        <time>2016-09-11T11:29:45Z</time>
      </trkpt>
      <trkpt lat="45.07043" lon="5.5513">
        <ele>1023</ele>
        <time>2016-09-11T11:29:48Z</time>
      </trkpt>
      <trkpt lat="45.07047" lon="5.55134">
        <ele>1023</ele>
        <time>2016-09-11T11:29:52Z</time>
      </trkpt>
      <trkpt lat="45.07053" lon="5.55136">
        <ele>1024</ele>
        <time>2016-09-11T11:29:55Z</time>
      </trkpt>
      <trkpt lat="45.07049" lon="5.55139">
        <ele>1024</ele>
        <time>2016-09-11T11:30:03Z</time>
      </trkpt>
      <trkpt lat="45.07044" lon="5.55135">
        <ele>1024</ele>
        <time>2016-09-11T11:30:23Z</time>
      </trkpt>
      <trkpt lat="45.07039" lon="5.55138">
        <ele>1024</ele>
        <time>2016-09-11T11:30:27Z</time>
      </trkpt>
      <trkpt lat="45.07038" lon="5.55146">
        <ele>1024</ele>
        <time>2016-09-11T11:30:30Z</time>
      </trkpt>
      <trkpt lat="45.07037" lon="5.55153">
        <ele>1023</ele>
        <time>2016-09-11T11:30:33Z</time>
      </trkpt>
      <trkpt lat="45.07038" lon="5.55159">
        <ele>1022</ele>
        <time>2016-09-11T11:30:36Z</time>
      </trkpt>
      <trkpt lat="45.07037" lon="5.55154">
        <ele>1022</ele>
        <time>2016-09-11T11:31:01Z</time>
      </trkpt>
      <trkpt lat="45.07037" lon="5.55154">
        <ele>1021</ele>
        <time>2016-09-11T11:31:03Z</time>
      </trkpt>
      <trkpt lat="45.07032" lon="5.55156">
        <ele>1021</ele>
        <time>2016-09-11T11:31:19Z</time>
      </trkpt>
      <trkpt lat="45.07033" lon="5.55157">
        <ele>1020</ele>
        <time>2016-09-11T11:31:46Z</time>
      </trkpt>
      <trkpt lat="45.07033" lon="5.55157">
        <ele>1020</ele>
        <time>2016-09-11T11:31:49Z</time>
      </trkpt>
      <trkpt lat="45.07033" lon="5.55157">
        <ele>1021</ele>
        <time>2016-09-11T11:32:16Z</time>
      </trkpt>
      <trkpt lat="45.07033" lon="5.55157">
        <ele>1022</ele>
        <time>2016-09-11T11:32:18Z</time>
      </trkpt>
      <trkpt lat="45.07033" lon="5.55158">
        <ele>1022</ele>
        <time>2016-09-11T11:32:46Z</time>
      </trkpt>
      <trkpt lat="45.07033" lon="5.55158">
        <ele>1022</ele>
        <time>2016-09-11T11:32:47Z</time>
      </trkpt>
      <trkpt lat="45.07037" lon="5.55157">
        <ele>1022</ele>
        <time>2016-09-11T11:33:16Z</time>
      </trkpt>
      <trkpt lat="45.07037" lon="5.55157">
        <ele>1022</ele>
        <time>2016-09-11T11:33:18Z</time>
      </trkpt>
      <trkpt lat="45.0703" lon="5.55156">
        <ele>1022</ele>
        <time>2016-09-11T11:33:25Z</time>
      </trkpt>
      <trkpt lat="45.07026" lon="5.55156">
        <ele>1022</ele>
        <time>2016-09-11T11:33:27Z</time>
      </trkpt>
      <trkpt lat="45.0703" lon="5.55156">
        <ele>1023</ele>
        <time>2016-09-11T11:33:40Z</time>
      </trkpt>
      <trkpt lat="45.07033" lon="5.55148">
        <ele>1023</ele>
        <time>2016-09-11T11:33:57Z</time>
      </trkpt>
      <trkpt lat="45.07037" lon="5.55144">
        <ele>1023</ele>
        <time>2016-09-11T11:34:01Z</time>
      </trkpt>
      <trkpt lat="45.07042" lon="5.55143">
        <ele>1025</ele>
        <time>2016-09-11T11:34:11Z</time>
      </trkpt>
      <trkpt lat="45.07043" lon="5.55143">
        <ele>1025</ele>
        <time>2016-09-11T11:34:31Z</time>
      </trkpt>
      <trkpt lat="45.07043" lon="5.55143">
        <ele>1026</ele>
        <time>2016-09-11T11:34:34Z</time>
      </trkpt>
      <trkpt lat="45.07043" lon="5.55143">
        <ele>1026</ele>
        <time>2016-09-11T11:35:01Z</time>
      </trkpt>
      <trkpt lat="45.07043" lon="5.55143">
        <ele>1026</ele>
        <time>2016-09-11T11:35:04Z</time>
      </trkpt>
      <trkpt lat="45.07042" lon="5.55143">
        <ele>1026</ele>
        <time>2016-09-11T11:35:31Z</time>
      </trkpt>
      <trkpt lat="45.07042" lon="5.55143">
        <ele>1026</ele>
        <time>2016-09-11T11:35:34Z</time>
      </trkpt>
      <trkpt lat="45.07045" lon="5.55144">
        <ele>1026</ele>
        <time>2016-09-11T11:36:01Z</time>
      </trkpt>
      <trkpt lat="45.07045" lon="5.55144">
        <ele>1026</ele>
        <time>2016-09-11T11:36:04Z</time>
      </trkpt>
      <trkpt lat="45.07045" lon="5.55144">
        <ele>1026</ele>
        <time>2016-09-11T11:36:31Z</time>
      </trkpt>
      <trkpt lat="45.07045" lon="5.55144">
        <ele>1026</ele>
        <time>2016-09-11T11:36:34Z</time>
      </trkpt>
      <trkpt lat="45.07044" lon="5.55144">
        <ele>1027</ele>
        <time>2016-09-11T11:37:01Z</time>
      </trkpt>
      <trkpt lat="45.07044" lon="5.55144">
        <ele>1027</ele>
        <time>2016-09-11T11:37:04Z</time>
      </trkpt>
      <trkpt lat="45.07044" lon="5.55144">
        <ele>1027</ele>
        <time>2016-09-11T11:37:31Z</time>
      </trkpt>
      <trkpt lat="45.07044" lon="5.55144">
        <ele>1027</ele>
        <time>2016-09-11T11:37:34Z</time>
      </trkpt>
      <trkpt lat="45.07044" lon="5.55144">
        <ele>1027</ele>
        <time>2016-09-11T11:38:01Z</time>
      </trkpt>
      <trkpt lat="45.07044" lon="5.55144">
        <ele>1027</ele>
        <time>2016-09-11T11:38:04Z</time>
      </trkpt>
      <trkpt lat="45.07044" lon="5.55144">
        <ele>1027</ele>
        <time>2016-09-11T11:38:31Z</time>
      </trkpt>
      <trkpt lat="45.07044" lon="5.55144">
        <ele>1027</ele>
        <time>2016-09-11T11:38:34Z</time>
      </trkpt>
      <trkpt lat="45.07044" lon="5.55144">
        <ele>1027</ele>
        <time>2016-09-11T11:39:01Z</time>
      </trkpt>
      <trkpt lat="45.07044" lon="5.55144">
        <ele>1027</ele>
        <time>2016-09-11T11:39:05Z</time>
      </trkpt>
      <trkpt lat="45.07044" lon="5.55144">
        <ele>1027</ele>
        <time>2016-09-11T11:39:31Z</time>
      </trkpt>
      <trkpt lat="45.07044" lon="5.55144">
        <ele>1027</ele>
        <time>2016-09-11T11:39:34Z</time>
      </trkpt>
      <trkpt lat="45.07044" lon="5.55144">
        <ele>1027</ele>
        <time>2016-09-11T11:40:01Z</time>
      </trkpt>
      <trkpt lat="45.07044" lon="5.55144">
        <ele>1027</ele>
        <time>2016-09-11T11:40:05Z</time>
      </trkpt>
      <trkpt lat="45.07044" lon="5.55144">
        <ele>1026</ele>
        <time>2016-09-11T11:40:31Z</time>
      </trkpt>
      <trkpt lat="45.07044" lon="5.55144">
        <ele>1026</ele>
        <time>2016-09-11T11:40:34Z</time>
      </trkpt>
      <trkpt lat="45.07042" lon="5.55143">
        <ele>1026</ele>
        <time>2016-09-11T11:41:01Z</time>
      </trkpt>
      <trkpt lat="45.07042" lon="5.55143">
        <ele>1026</ele>
        <time>2016-09-11T11:41:04Z</time>
      </trkpt>
      <trkpt lat="45.07042" lon="5.55143">
        <ele>1026</ele>
        <time>2016-09-11T11:41:31Z</time>
      </trkpt>
      <trkpt lat="45.07042" lon="5.55143">
        <ele>1026</ele>
        <time>2016-09-11T11:41:34Z</time>
      </trkpt>
      <trkpt lat="45.07042" lon="5.55143">
        <ele>1026</ele>
        <time>2016-09-11T11:42:01Z</time>
      </trkpt>
      <trkpt lat="45.07042" lon="5.55143">
        <ele>1026</ele>
        <time>2016-09-11T11:42:04Z</time>
      </trkpt>
      <trkpt lat="45.07042" lon="5.55143">
        <ele>1026</ele>
        <time>2016-09-11T11:42:31Z</time>
      </trkpt>
      <trkpt lat="45.07042" lon="5.55143">
        <ele>1026</ele>
        <time>2016-09-11T11:42:34Z</time>
      </trkpt>
      <trkpt lat="45.07042" lon="5.55143">
        <ele>1026</ele>
        <time>2016-09-11T11:43:01Z</time>
      </trkpt>
      <trkpt lat="45.07042" lon="5.55143">
        <ele>1026</ele>
        <time>2016-09-11T11:43:04Z</time>
      </trkpt>
      <trkpt lat="45.07042" lon="5.55143">
        <ele>1026</ele>
        <time>2016-09-11T11:43:31Z</time>
      </trkpt>
      <trkpt lat="45.07042" lon="5.55143">
        <ele>1026</ele>
        <time>2016-09-11T11:43:34Z</time>
      </trkpt>
      <trkpt lat="45.07042" lon="5.55143">
        <ele>1025</ele>
        <time>2016-09-11T11:44:01Z</time>
      </trkpt>
      <trkpt lat="45.07042" lon="5.55143">
        <ele>1025</ele>
        <time>2016-09-11T11:44:04Z</time>
      </trkpt>
      <trkpt lat="45.07042" lon="5.55143">
        <ele>1025</ele>
        <time>2016-09-11T11:44:31Z</time>
      </trkpt>
      <trkpt lat="45.07042" lon="5.55143">
        <ele>1025</ele>
        <time>2016-09-11T11:44:34Z</time>
      </trkpt>
      <trkpt lat="45.07042" lon="5.55143">
        <ele>1025</ele>
        <time>2016-09-11T11:45:01Z</time>
      </trkpt>
      <trkpt lat="45.07042" lon="5.55143">
        <ele>1025</ele>
        <time>2016-09-11T11:45:04Z</time>
      </trkpt>
      <trkpt lat="45.07042" lon="5.55143">
        <ele>1025</ele>
        <time>2016-09-11T11:45:31Z</time>
      </trkpt>
      <trkpt lat="45.07042" lon="5.55143">
        <ele>1025</ele>
        <time>2016-09-11T11:45:34Z</time>
      </trkpt>
      <trkpt lat="45.07042" lon="5.55143">
        <ele>1025</ele>
        <time>2016-09-11T11:46:01Z</time>
      </trkpt>
      <trkpt lat="45.07042" lon="5.55143">
        <ele>1025</ele>
        <time>2016-09-11T11:46:04Z</time>
      </trkpt>
      <trkpt lat="45.07042" lon="5.55143">
        <ele>1025</ele>
        <time>2016-09-11T11:46:31Z</time>
      </trkpt>
      <trkpt lat="45.07042" lon="5.55143">
        <ele>1025</ele>
        <time>2016-09-11T11:46:34Z</time>
      </trkpt>
      <trkpt lat="45.07042" lon="5.55143">
        <ele>1024</ele>
        <time>2016-09-11T11:47:01Z</time>
      </trkpt>
      <trkpt lat="45.07042" lon="5.55143">
        <ele>1024</ele>
        <time>2016-09-11T11:47:04Z</time>
      </trkpt>
      <trkpt lat="45.07042" lon="5.55142">
        <ele>1024</ele>
        <time>2016-09-11T11:47:31Z</time>
      </trkpt>
      <trkpt lat="45.07042" lon="5.55142">
        <ele>1024</ele>
        <time>2016-09-11T11:47:34Z</time>
      </trkpt>
      <trkpt lat="45.07042" lon="5.55142">
        <ele>1024</ele>
        <time>2016-09-11T11:48:01Z</time>
      </trkpt>
      <trkpt lat="45.07042" lon="5.55142">
        <ele>1024</ele>
        <time>2016-09-11T11:48:04Z</time>
      </trkpt>
      <trkpt lat="45.07042" lon="5.55142">
        <ele>1024</ele>
        <time>2016-09-11T11:48:31Z</time>
      </trkpt>
      <trkpt lat="45.07042" lon="5.55142">
        <ele>1024</ele>
        <time>2016-09-11T11:48:34Z</time>
      </trkpt>
      <trkpt lat="45.07042" lon="5.55142">
        <ele>1023</ele>
        <time>2016-09-11T11:49:01Z</time>
      </trkpt>
      <trkpt lat="45.07042" lon="5.55142">
        <ele>1023</ele>
        <time>2016-09-11T11:49:04Z</time>
      </trkpt>
      <trkpt lat="45.07042" lon="5.55142">
        <ele>1023</ele>
        <time>2016-09-11T11:49:32Z</time>
      </trkpt>
      <trkpt lat="45.07042" lon="5.55142">
        <ele>1023</ele>
        <time>2016-09-11T11:49:35Z</time>
      </trkpt>
      <trkpt lat="45.07042" lon="5.55142">
        <ele>1023</ele>
        <time>2016-09-11T11:50:02Z</time>
      </trkpt>
      <trkpt lat="45.07042" lon="5.55142">
        <ele>1023</ele>
        <time>2016-09-11T11:50:04Z</time>
      </trkpt>
      <trkpt lat="45.07041" lon="5.55141">
        <ele>1023</ele>
        <time>2016-09-11T11:50:32Z</time>
      </trkpt>
      <trkpt lat="45.07041" lon="5.55141">
        <ele>1023</ele>
        <time>2016-09-11T11:50:34Z</time>
      </trkpt>
      <trkpt lat="45.07041" lon="5.55141">
        <ele>1023</ele>
        <time>2016-09-11T11:51:02Z</time>
      </trkpt>
      <trkpt lat="45.07041" lon="5.55141">
        <ele>1023</ele>
        <time>2016-09-11T11:51:04Z</time>
      </trkpt>
      <trkpt lat="45.07041" lon="5.55141">
        <ele>1024</ele>
        <time>2016-09-11T11:51:32Z</time>
      </trkpt>
      <trkpt lat="45.07041" lon="5.55141">
        <ele>1024</ele>
        <time>2016-09-11T11:51:35Z</time>
      </trkpt>
      <trkpt lat="45.07041" lon="5.55141">
        <ele>1024</ele>
        <time>2016-09-11T11:52:02Z</time>
      </trkpt>
      <trkpt lat="45.07041" lon="5.55141">
        <ele>1024</ele>
        <time>2016-09-11T11:52:04Z</time>
      </trkpt>
      <trkpt lat="45.07041" lon="5.55141">
        <ele>1024</ele>
        <time>2016-09-11T11:52:32Z</time>
      </trkpt>
      <trkpt lat="45.07041" lon="5.55141">
        <ele>1024</ele>
        <time>2016-09-11T11:52:34Z</time>
      </trkpt>
      <trkpt lat="45.07041" lon="5.55141">
        <ele>1024</ele>
        <time>2016-09-11T11:53:02Z</time>
      </trkpt>
      <trkpt lat="45.07041" lon="5.55141">
        <ele>1024</ele>
        <time>2016-09-11T11:53:03Z</time>
      </trkpt>
      <trkpt lat="45.07041" lon="5.55141">
        <ele>1024</ele>
        <time>2016-09-11T11:53:32Z</time>
      </trkpt>
      <trkpt lat="45.07041" lon="5.55141">
        <ele>1024</ele>
        <time>2016-09-11T11:53:35Z</time>
      </trkpt>
      <trkpt lat="45.07041" lon="5.55142">
        <ele>1024</ele>
        <time>2016-09-11T11:54:02Z</time>
      </trkpt>
      <trkpt lat="45.07041" lon="5.55142">
        <ele>1024</ele>
        <time>2016-09-11T11:54:04Z</time>
      </trkpt>
      <trkpt lat="45.07041" lon="5.55142">
        <ele>1024</ele>
        <time>2016-09-11T11:54:32Z</time>
      </trkpt>
      <trkpt lat="45.07041" lon="5.55142">
        <ele>1024</ele>
        <time>2016-09-11T11:54:35Z</time>
      </trkpt>
      <trkpt lat="45.07041" lon="5.55142">
        <ele>1024</ele>
        <time>2016-09-11T11:55:02Z</time>
      </trkpt>
      <trkpt lat="45.07041" lon="5.55142">
        <ele>1024</ele>
        <time>2016-09-11T11:55:05Z</time>
      </trkpt>
      <trkpt lat="45.07041" lon="5.55142">
        <ele>1024</ele>
        <time>2016-09-11T11:55:32Z</time>
      </trkpt>
      <trkpt lat="45.07041" lon="5.55142">
        <ele>1024</ele>
        <time>2016-09-11T11:55:34Z</time>
      </trkpt>
      <trkpt lat="45.07041" lon="5.55142">
        <ele>1024</ele>
        <time>2016-09-11T11:56:02Z</time>
      </trkpt>
      <trkpt lat="45.07041" lon="5.55142">
        <ele>1024</ele>
        <time>2016-09-11T11:56:06Z</time>
      </trkpt>
      <trkpt lat="45.07041" lon="5.55142">
        <ele>1024</ele>
        <time>2016-09-11T11:56:32Z</time>
      </trkpt>
      <trkpt lat="45.07041" lon="5.55142">
        <ele>1024</ele>
        <time>2016-09-11T11:56:35Z</time>
      </trkpt>
      <trkpt lat="45.07041" lon="5.55142">
        <ele>1024</ele>
        <time>2016-09-11T11:57:02Z</time>
      </trkpt>
      <trkpt lat="45.07041" lon="5.55142">
        <ele>1024</ele>
        <time>2016-09-11T11:57:05Z</time>
      </trkpt>
      <trkpt lat="45.07041" lon="5.55142">
        <ele>1024</ele>
        <time>2016-09-11T11:57:32Z</time>
      </trkpt>
      <trkpt lat="45.07041" lon="5.55142">
        <ele>1024</ele>
        <time>2016-09-11T11:57:35Z</time>
      </trkpt>
      <trkpt lat="45.07041" lon="5.55142">
        <ele>1024</ele>
        <time>2016-09-11T11:58:02Z</time>
      </trkpt>
      <trkpt lat="45.07041" lon="5.55142">
        <ele>1024</ele>
        <time>2016-09-11T11:58:05Z</time>
      </trkpt>
      <trkpt lat="45.07041" lon="5.55142">
        <ele>1024</ele>
        <time>2016-09-11T11:58:32Z</time>
      </trkpt>
      <trkpt lat="45.07041" lon="5.55142">
        <ele>1024</ele>
        <time>2016-09-11T11:58:35Z</time>
      </trkpt>
      <trkpt lat="45.07041" lon="5.55142">
        <ele>1024</ele>
        <time>2016-09-11T11:59:02Z</time>
      </trkpt>
      <trkpt lat="45.07041" lon="5.55142">
        <ele>1024</ele>
        <time>2016-09-11T11:59:05Z</time>
      </trkpt>
      <trkpt lat="45.07041" lon="5.55142">
        <ele>1024</ele>
        <time>2016-09-11T11:59:32Z</time>
      </trkpt>
      <trkpt lat="45.07041" lon="5.55142">
        <ele>1024</ele>
        <time>2016-09-11T11:59:35Z</time>
      </trkpt>
      <trkpt lat="45.07041" lon="5.55142">
        <ele>1024</ele>
        <time>2016-09-11T12:00:02Z</time>
      </trkpt>
      <trkpt lat="45.07041" lon="5.55142">
        <ele>1024</ele>
        <time>2016-09-11T12:00:05Z</time>
      </trkpt>
      <trkpt lat="45.07041" lon="5.55142">
        <ele>1024</ele>
        <time>2016-09-11T12:00:32Z</time>
      </trkpt>
      <trkpt lat="45.07041" lon="5.55142">
        <ele>1024</ele>
        <time>2016-09-11T12:00:35Z</time>
      </trkpt>
      <trkpt lat="45.07041" lon="5.55142">
        <ele>1024</ele>
        <time>2016-09-11T12:01:02Z</time>
      </trkpt>
      <trkpt lat="45.07041" lon="5.55142">
        <ele>1024</ele>
        <time>2016-09-11T12:01:05Z</time>
      </trkpt>
      <trkpt lat="45.07041" lon="5.55142">
        <ele>1024</ele>
        <time>2016-09-11T12:01:32Z</time>
      </trkpt>
      <trkpt lat="45.07041" lon="5.55142">
        <ele>1024</ele>
        <time>2016-09-11T12:01:35Z</time>
      </trkpt>
      <trkpt lat="45.07041" lon="5.55142">
        <ele>1024</ele>
        <time>2016-09-11T12:02:02Z</time>
      </trkpt>
      <trkpt lat="45.07041" lon="5.55142">
        <ele>1024</ele>
        <time>2016-09-11T12:02:05Z</time>
      </trkpt>
      <trkpt lat="45.07041" lon="5.55142">
        <ele>1024</ele>
        <time>2016-09-11T12:02:32Z</time>
      </trkpt>
      <trkpt lat="45.07041" lon="5.55142">
        <ele>1024</ele>
        <time>2016-09-11T12:02:35Z</time>
      </trkpt>
      <trkpt lat="45.07041" lon="5.55142">
        <ele>1024</ele>
        <time>2016-09-11T12:02:59Z</time>
      </trkpt>
      <trkpt lat="45.07041" lon="5.55142">
        <ele>1024</ele>
        <time>2016-09-11T12:03:05Z</time>
      </trkpt>
      <trkpt lat="45.07042" lon="5.55141">
        <ele>1024</ele>
        <time>2016-09-11T12:03:32Z</time>
      </trkpt>
      <trkpt lat="45.07042" lon="5.55141">
        <ele>1024</ele>
        <time>2016-09-11T12:03:35Z</time>
      </trkpt>
      <trkpt lat="45.07042" lon="5.55141">
        <ele>1025</ele>
        <time>2016-09-11T12:04:02Z</time>
      </trkpt>
      <trkpt lat="45.07042" lon="5.55141">
        <ele>1025</ele>
        <time>2016-09-11T12:04:05Z</time>
      </trkpt>
      <trkpt lat="45.07042" lon="5.55141">
        <ele>1026</ele>
        <time>2016-09-11T12:04:33Z</time>
      </trkpt>
      <trkpt lat="45.07042" lon="5.55141">
        <ele>1026</ele>
        <time>2016-09-11T12:04:35Z</time>
      </trkpt>
      <trkpt lat="45.07044" lon="5.55141">
        <ele>1026</ele>
        <time>2016-09-11T12:05:02Z</time>
      </trkpt>
      <trkpt lat="45.07044" lon="5.55141">
        <ele>1026</ele>
        <time>2016-09-11T12:05:05Z</time>
      </trkpt>
      <trkpt lat="45.07044" lon="5.55141">
        <ele>1027</ele>
        <time>2016-09-11T12:05:33Z</time>
      </trkpt>
      <trkpt lat="45.07044" lon="5.55141">
        <ele>1027</ele>
        <time>2016-09-11T12:05:35Z</time>
      </trkpt>
      <trkpt lat="45.07044" lon="5.55141">
        <ele>1028</ele>
        <time>2016-09-11T12:06:03Z</time>
      </trkpt>
      <trkpt lat="45.07044" lon="5.55141">
        <ele>1028</ele>
        <time>2016-09-11T12:06:05Z</time>
      </trkpt>
      <trkpt lat="45.07044" lon="5.55141">
        <ele>1028</ele>
        <time>2016-09-11T12:06:33Z</time>
      </trkpt>
      <trkpt lat="45.07044" lon="5.55141">
        <ele>1028</ele>
        <time>2016-09-11T12:06:35Z</time>
      </trkpt>
      <trkpt lat="45.07044" lon="5.55141">
        <ele>1028</ele>
        <time>2016-09-11T12:07:03Z</time>
      </trkpt>
      <trkpt lat="45.07044" lon="5.55141">
        <ele>1028</ele>
        <time>2016-09-11T12:07:06Z</time>
      </trkpt>
      <trkpt lat="45.07044" lon="5.55141">
        <ele>1028</ele>
        <time>2016-09-11T12:07:33Z</time>
      </trkpt>
      <trkpt lat="45.07044" lon="5.55141">
        <ele>1028</ele>
        <time>2016-09-11T12:07:35Z</time>
      </trkpt>
      <trkpt lat="45.07044" lon="5.55141">
        <ele>1028</ele>
        <time>2016-09-11T12:08:03Z</time>
      </trkpt>
      <trkpt lat="45.07044" lon="5.55141">
        <ele>1028</ele>
        <time>2016-09-11T12:08:05Z</time>
      </trkpt>
      <trkpt lat="45.07044" lon="5.55141">
        <ele>1028</ele>
        <time>2016-09-11T12:08:33Z</time>
      </trkpt>
      <trkpt lat="45.07044" lon="5.55141">
        <ele>1028</ele>
        <time>2016-09-11T12:08:36Z</time>
      </trkpt>
      <trkpt lat="45.07044" lon="5.55141">
        <ele>1028</ele>
        <time>2016-09-11T12:09:03Z</time>
      </trkpt>
      <trkpt lat="45.07044" lon="5.55141">
        <ele>1028</ele>
        <time>2016-09-11T12:09:06Z</time>
      </trkpt>
      <trkpt lat="45.07044" lon="5.55141">
        <ele>1028</ele>
        <time>2016-09-11T12:09:33Z</time>
      </trkpt>
      <trkpt lat="45.07044" lon="5.55141">
        <ele>1028</ele>
        <time>2016-09-11T12:09:36Z</time>
      </trkpt>
      <trkpt lat="45.07044" lon="5.55141">
        <ele>1028</ele>
        <time>2016-09-11T12:10:03Z</time>
      </trkpt>
      <trkpt lat="45.07044" lon="5.55141">
        <ele>1028</ele>
        <time>2016-09-11T12:10:07Z</time>
      </trkpt>
      <trkpt lat="45.07044" lon="5.55141">
        <ele>1028</ele>
        <time>2016-09-11T12:10:33Z</time>
      </trkpt>
      <trkpt lat="45.07044" lon="5.55141">
        <ele>1028</ele>
        <time>2016-09-11T12:10:36Z</time>
      </trkpt>
      <trkpt lat="45.07044" lon="5.55141">
        <ele>1028</ele>
        <time>2016-09-11T12:11:03Z</time>
      </trkpt>
      <trkpt lat="45.07044" lon="5.55141">
        <ele>1028</ele>
        <time>2016-09-11T12:11:07Z</time>
      </trkpt>
      <trkpt lat="45.07044" lon="5.55141">
        <ele>1028</ele>
        <time>2016-09-11T12:11:33Z</time>
      </trkpt>
      <trkpt lat="45.07044" lon="5.55141">
        <ele>1028</ele>
        <time>2016-09-11T12:11:36Z</time>
      </trkpt>
      <trkpt lat="45.07044" lon="5.55141">
        <ele>1028</ele>
        <time>2016-09-11T12:12:03Z</time>
      </trkpt>
      <trkpt lat="45.07044" lon="5.55141">
        <ele>1028</ele>
        <time>2016-09-11T12:12:06Z</time>
      </trkpt>
      <trkpt lat="45.07044" lon="5.55141">
        <ele>1028</ele>
        <time>2016-09-11T12:12:33Z</time>
      </trkpt>
      <trkpt lat="45.07044" lon="5.55141">
        <ele>1028</ele>
        <time>2016-09-11T12:12:36Z</time>
      </trkpt>
      <trkpt lat="45.07044" lon="5.55141">
        <ele>1028</ele>
        <time>2016-09-11T12:13:03Z</time>
      </trkpt>
      <trkpt lat="45.07044" lon="5.55141">
        <ele>1028</ele>
        <time>2016-09-11T12:13:06Z</time>
      </trkpt>
      <trkpt lat="45.07044" lon="5.55141">
        <ele>1028</ele>
        <time>2016-09-11T12:13:33Z</time>
      </trkpt>
      <trkpt lat="45.07044" lon="5.55141">
        <ele>1028</ele>
        <time>2016-09-11T12:13:36Z</time>
      </trkpt>
      <trkpt lat="45.07044" lon="5.55141">
        <ele>1028</ele>
        <time>2016-09-11T12:14:03Z</time>
      </trkpt>
      <trkpt lat="45.07044" lon="5.55141">
        <ele>1028</ele>
        <time>2016-09-11T12:14:06Z</time>
      </trkpt>
      <trkpt lat="45.07044" lon="5.55141">
        <ele>1028</ele>
        <time>2016-09-11T12:14:33Z</time>
      </trkpt>
      <trkpt lat="45.07044" lon="5.55141">
        <ele>1028</ele>
        <time>2016-09-11T12:14:36Z</time>
      </trkpt>
      <trkpt lat="45.07044" lon="5.55141">
        <ele>1027</ele>
        <time>2016-09-11T12:15:03Z</time>
      </trkpt>
      <trkpt lat="45.07044" lon="5.55141">
        <ele>1027</ele>
        <time>2016-09-11T12:15:06Z</time>
      </trkpt>
      <trkpt lat="45.07044" lon="5.55141">
        <ele>1027</ele>
        <time>2016-09-11T12:15:33Z</time>
      </trkpt>
      <trkpt lat="45.07044" lon="5.55141">
        <ele>1027</ele>
        <time>2016-09-11T12:15:36Z</time>
      </trkpt>
      <trkpt lat="45.07044" lon="5.55141">
        <ele>1027</ele>
        <time>2016-09-11T12:16:03Z</time>
      </trkpt>
      <trkpt lat="45.07044" lon="5.55141">
        <ele>1027</ele>
        <time>2016-09-11T12:16:06Z</time>
      </trkpt>
      <trkpt lat="45.07044" lon="5.55142">
        <ele>1027</ele>
        <time>2016-09-11T12:16:33Z</time>
      </trkpt>
      <trkpt lat="45.07044" lon="5.55142">
        <ele>1027</ele>
        <time>2016-09-11T12:16:36Z</time>
      </trkpt>
      <trkpt lat="45.07044" lon="5.55142">
        <ele>1027</ele>
        <time>2016-09-11T12:17:03Z</time>
      </trkpt>
      <trkpt lat="45.07044" lon="5.55142">
        <ele>1027</ele>
        <time>2016-09-11T12:17:06Z</time>
      </trkpt>
      <trkpt lat="45.07044" lon="5.55142">
        <ele>1027</ele>
        <time>2016-09-11T12:17:33Z</time>
      </trkpt>
      <trkpt lat="45.07044" lon="5.55142">
        <ele>1027</ele>
        <time>2016-09-11T12:17:36Z</time>
      </trkpt>
      <trkpt lat="45.07044" lon="5.55142">
        <ele>1027</ele>
        <time>2016-09-11T12:18:03Z</time>
      </trkpt>
      <trkpt lat="45.07044" lon="5.55142">
        <ele>1027</ele>
        <time>2016-09-11T12:18:06Z</time>
      </trkpt>
      <trkpt lat="45.07044" lon="5.55142">
        <ele>1027</ele>
        <time>2016-09-11T12:18:33Z</time>
      </trkpt>
      <trkpt lat="45.07044" lon="5.55142">
        <ele>1027</ele>
        <time>2016-09-11T12:18:36Z</time>
      </trkpt>
      <trkpt lat="45.07044" lon="5.55142">
        <ele>1027</ele>
        <time>2016-09-11T12:19:03Z</time>
      </trkpt>
      <trkpt lat="45.07044" lon="5.55142">
        <ele>1027</ele>
        <time>2016-09-11T12:19:06Z</time>
      </trkpt>
      <trkpt lat="45.07044" lon="5.55142">
        <ele>1027</ele>
        <time>2016-09-11T12:19:33Z</time>
      </trkpt>
      <trkpt lat="45.07044" lon="5.55142">
        <ele>1027</ele>
        <time>2016-09-11T12:19:35Z</time>
      </trkpt>
      <trkpt lat="45.07044" lon="5.55142">
        <ele>1027</ele>
        <time>2016-09-11T12:20:04Z</time>
      </trkpt>
      <trkpt lat="45.07044" lon="5.55142">
        <ele>1027</ele>
        <time>2016-09-11T12:20:07Z</time>
      </trkpt>
      <trkpt lat="45.07044" lon="5.55142">
        <ele>1027</ele>
        <time>2016-09-11T12:20:34Z</time>
      </trkpt>
      <trkpt lat="45.07044" lon="5.55142">
        <ele>1027</ele>
        <time>2016-09-11T12:20:36Z</time>
      </trkpt>
      <trkpt lat="45.07044" lon="5.55142">
        <ele>1027</ele>
        <time>2016-09-11T12:21:04Z</time>
      </trkpt>
      <trkpt lat="45.07044" lon="5.55142">
        <ele>1027</ele>
        <time>2016-09-11T12:21:06Z</time>
      </trkpt>
      <trkpt lat="45.07044" lon="5.55142">
        <ele>1027</ele>
        <time>2016-09-11T12:21:34Z</time>
      </trkpt>
      <trkpt lat="45.07044" lon="5.55142">
        <ele>1027</ele>
        <time>2016-09-11T12:21:37Z</time>
      </trkpt>
      <trkpt lat="45.07044" lon="5.55142">
        <ele>1027</ele>
        <time>2016-09-11T12:22:04Z</time>
      </trkpt>
      <trkpt lat="45.07044" lon="5.55142">
        <ele>1027</ele>
        <time>2016-09-11T12:22:06Z</time>
      </trkpt>
      <trkpt lat="45.07044" lon="5.55142">
        <ele>1027</ele>
        <time>2016-09-11T12:22:34Z</time>
      </trkpt>
      <trkpt lat="45.07044" lon="5.55142">
        <ele>1027</ele>
        <time>2016-09-11T12:22:36Z</time>
      </trkpt>
      <trkpt lat="45.07044" lon="5.55142">
        <ele>1027</ele>
        <time>2016-09-11T12:23:04Z</time>
      </trkpt>
      <trkpt lat="45.07044" lon="5.55142">
        <ele>1027</ele>
        <time>2016-09-11T12:23:06Z</time>
      </trkpt>
      <trkpt lat="45.07044" lon="5.55142">
        <ele>1027</ele>
        <time>2016-09-11T12:23:34Z</time>
      </trkpt>
      <trkpt lat="45.07044" lon="5.55142">
        <ele>1027</ele>
        <time>2016-09-11T12:23:37Z</time>
      </trkpt>
      <trkpt lat="45.07044" lon="5.55142">
        <ele>1027</ele>
        <time>2016-09-11T12:24:04Z</time>
      </trkpt>
      <trkpt lat="45.07044" lon="5.55142">
        <ele>1027</ele>
        <time>2016-09-11T12:24:08Z</time>
      </trkpt>
      <trkpt lat="45.07044" lon="5.55141">
        <ele>1027</ele>
        <time>2016-09-11T12:24:34Z</time>
      </trkpt>
      <trkpt lat="45.07044" lon="5.55141">
        <ele>1027</ele>
        <time>2016-09-11T12:24:37Z</time>
      </trkpt>
      <trkpt lat="45.07044" lon="5.55141">
        <ele>1027</ele>
        <time>2016-09-11T12:25:04Z</time>
      </trkpt>
      <trkpt lat="45.07044" lon="5.55141">
        <ele>1027</ele>
        <time>2016-09-11T12:25:07Z</time>
      </trkpt>
      <trkpt lat="45.07044" lon="5.55142">
        <ele>1027</ele>
        <time>2016-09-11T12:25:35Z</time>
      </trkpt>
      <trkpt lat="45.07044" lon="5.55142">
        <ele>1027</ele>
        <time>2016-09-11T12:25:37Z</time>
      </trkpt>
      <trkpt lat="45.07044" lon="5.55142">
        <ele>1027</ele>
        <time>2016-09-11T12:26:05Z</time>
      </trkpt>
      <trkpt lat="45.07044" lon="5.55142">
        <ele>1027</ele>
        <time>2016-09-11T12:26:07Z</time>
      </trkpt>
      <trkpt lat="45.07044" lon="5.55142">
        <ele>1027</ele>
        <time>2016-09-11T12:26:35Z</time>
      </trkpt>
      <trkpt lat="45.07044" lon="5.55142">
        <ele>1027</ele>
        <time>2016-09-11T12:26:37Z</time>
      </trkpt>
      <trkpt lat="45.07044" lon="5.55142">
        <ele>1027</ele>
        <time>2016-09-11T12:27:05Z</time>
      </trkpt>
      <trkpt lat="45.07044" lon="5.55142">
        <ele>1027</ele>
        <time>2016-09-11T12:27:07Z</time>
      </trkpt>
      <trkpt lat="45.07044" lon="5.55142">
        <ele>1027</ele>
        <time>2016-09-11T12:27:35Z</time>
      </trkpt>
      <trkpt lat="45.07044" lon="5.55142">
        <ele>1027</ele>
        <time>2016-09-11T12:27:37Z</time>
      </trkpt>
      <trkpt lat="45.07043" lon="5.55142">
        <ele>1028</ele>
        <time>2016-09-11T12:28:05Z</time>
      </trkpt>
      <trkpt lat="45.07043" lon="5.55142">
        <ele>1028</ele>
        <time>2016-09-11T12:28:07Z</time>
      </trkpt>
      <trkpt lat="45.07043" lon="5.55142">
        <ele>1028</ele>
        <time>2016-09-11T12:28:35Z</time>
      </trkpt>
      <trkpt lat="45.07043" lon="5.55142">
        <ele>1028</ele>
        <time>2016-09-11T12:28:38Z</time>
      </trkpt>
      <trkpt lat="45.07043" lon="5.55142">
        <ele>1028</ele>
        <time>2016-09-11T12:29:05Z</time>
      </trkpt>
      <trkpt lat="45.07043" lon="5.55142">
        <ele>1028</ele>
        <time>2016-09-11T12:29:08Z</time>
      </trkpt>
      <trkpt lat="45.07043" lon="5.55142">
        <ele>1028</ele>
        <time>2016-09-11T12:29:35Z</time>
      </trkpt>
      <trkpt lat="45.07043" lon="5.55142">
        <ele>1028</ele>
        <time>2016-09-11T12:29:38Z</time>
      </trkpt>
      <trkpt lat="45.07043" lon="5.55141">
        <ele>1028</ele>
        <time>2016-09-11T12:30:05Z</time>
      </trkpt>
      <trkpt lat="45.07043" lon="5.55141">
        <ele>1028</ele>
        <time>2016-09-11T12:30:10Z</time>
      </trkpt>
      <trkpt lat="45.07043" lon="5.55142">
        <ele>1029</ele>
        <time>2016-09-11T12:30:35Z</time>
      </trkpt>
      <trkpt lat="45.07043" lon="5.55142">
        <ele>1029</ele>
        <time>2016-09-11T12:30:38Z</time>
      </trkpt>
      <trkpt lat="45.07043" lon="5.55141">
        <ele>1029</ele>
        <time>2016-09-11T12:31:05Z</time>
      </trkpt>
      <trkpt lat="45.07043" lon="5.55141">
        <ele>1029</ele>
        <time>2016-09-11T12:31:08Z</time>
      </trkpt>
      <trkpt lat="45.07043" lon="5.55141">
        <ele>1029</ele>
        <time>2016-09-11T12:31:35Z</time>
      </trkpt>
      <trkpt lat="45.07043" lon="5.55141">
        <ele>1029</ele>
        <time>2016-09-11T12:31:38Z</time>
      </trkpt>
      <trkpt lat="45.07042" lon="5.55141">
        <ele>1029</ele>
        <time>2016-09-11T12:32:05Z</time>
      </trkpt>
      <trkpt lat="45.07042" lon="5.55141">
        <ele>1029</ele>
        <time>2016-09-11T12:32:08Z</time>
      </trkpt>
      <trkpt lat="45.07042" lon="5.55141">
        <ele>1029</ele>
        <time>2016-09-11T12:32:35Z</time>
      </trkpt>
      <trkpt lat="45.07042" lon="5.55141">
        <ele>1029</ele>
        <time>2016-09-11T12:32:38Z</time>
      </trkpt>
      <trkpt lat="45.07042" lon="5.55141">
        <ele>1029</ele>
        <time>2016-09-11T12:33:06Z</time>
      </trkpt>
      <trkpt lat="45.07042" lon="5.55141">
        <ele>1029</ele>
        <time>2016-09-11T12:33:08Z</time>
      </trkpt>
      <trkpt lat="45.07042" lon="5.55141">
        <ele>1029</ele>
        <time>2016-09-11T12:33:36Z</time>
      </trkpt>
      <trkpt lat="45.07042" lon="5.55141">
        <ele>1029</ele>
        <time>2016-09-11T12:33:38Z</time>
      </trkpt>
      <trkpt lat="45.07042" lon="5.55141">
        <ele>1029</ele>
        <time>2016-09-11T12:34:06Z</time>
      </trkpt>
      <trkpt lat="45.07042" lon="5.55141">
        <ele>1029</ele>
        <time>2016-09-11T12:34:08Z</time>
      </trkpt>
      <trkpt lat="45.07042" lon="5.55141">
        <ele>1029</ele>
        <time>2016-09-11T12:34:36Z</time>
      </trkpt>
      <trkpt lat="45.07042" lon="5.55141">
        <ele>1029</ele>
        <time>2016-09-11T12:34:38Z</time>
      </trkpt>
      <trkpt lat="45.07042" lon="5.55141">
        <ele>1029</ele>
        <time>2016-09-11T12:35:06Z</time>
      </trkpt>
      <trkpt lat="45.07042" lon="5.55141">
        <ele>1029</ele>
        <time>2016-09-11T12:35:08Z</time>
      </trkpt>
      <trkpt lat="45.07042" lon="5.55141">
        <ele>1029</ele>
        <time>2016-09-11T12:35:36Z</time>
      </trkpt>
      <trkpt lat="45.07042" lon="5.55141">
        <ele>1029</ele>
        <time>2016-09-11T12:35:38Z</time>
      </trkpt>
      <trkpt lat="45.07041" lon="5.55145">
        <ele>1028</ele>
        <time>2016-09-11T12:36:06Z</time>
      </trkpt>
      <trkpt lat="45.07041" lon="5.55148">
        <ele>1027</ele>
        <time>2016-09-11T12:36:08Z</time>
      </trkpt>
      <trkpt lat="45.07038" lon="5.55153">
        <ele>1026</ele>
        <time>2016-09-11T12:36:12Z</time>
      </trkpt>
      <trkpt lat="45.07035" lon="5.55158">
        <ele>1024</ele>
        <time>2016-09-11T12:36:21Z</time>
      </trkpt>
      <trkpt lat="45.07031" lon="5.55162">
        <ele>1021</ele>
        <time>2016-09-11T12:36:36Z</time>
      </trkpt>
      <trkpt lat="45.07032" lon="5.55162">
        <ele>1019</ele>
        <time>2016-09-11T12:36:51Z</time>
      </trkpt>
      <trkpt lat="45.07032" lon="5.55162">
        <ele>1017</ele>
        <time>2016-09-11T12:36:53Z</time>
      </trkpt>
      <trkpt lat="45.07031" lon="5.55162">
        <ele>1016</ele>
        <time>2016-09-11T12:37:21Z</time>
      </trkpt>
      <trkpt lat="45.07031" lon="5.55162">
        <ele>1016</ele>
        <time>2016-09-11T12:37:25Z</time>
      </trkpt>
      <trkpt lat="45.07032" lon="5.55162">
        <ele>1016</ele>
        <time>2016-09-11T12:37:51Z</time>
      </trkpt>
      <trkpt lat="45.07032" lon="5.55162">
        <ele>1016</ele>
        <time>2016-09-11T12:37:53Z</time>
      </trkpt>
      <trkpt lat="45.07032" lon="5.55162">
        <ele>1017</ele>
        <time>2016-09-11T12:38:21Z</time>
      </trkpt>
      <trkpt lat="45.07032" lon="5.55162">
        <ele>1017</ele>
        <time>2016-09-11T12:38:23Z</time>
      </trkpt>
      <trkpt lat="45.07032" lon="5.55162">
        <ele>1017</ele>
        <time>2016-09-11T12:38:51Z</time>
      </trkpt>
      <trkpt lat="45.07032" lon="5.55162">
        <ele>1017</ele>
        <time>2016-09-11T12:38:55Z</time>
      </trkpt>
      <trkpt lat="45.07032" lon="5.55162">
        <ele>1017</ele>
        <time>2016-09-11T12:39:21Z</time>
      </trkpt>
      <trkpt lat="45.07032" lon="5.55162">
        <ele>1017</ele>
        <time>2016-09-11T12:39:24Z</time>
      </trkpt>
      <trkpt lat="45.07036" lon="5.55165">
        <ele>1018</ele>
        <time>2016-09-11T12:39:30Z</time>
      </trkpt>
      <trkpt lat="45.07038" lon="5.55164">
        <ele>1019</ele>
        <time>2016-09-11T12:39:51Z</time>
      </trkpt>
      <trkpt lat="45.07038" lon="5.55163">
        <ele>1020</ele>
        <time>2016-09-11T12:39:54Z</time>
      </trkpt>
      <trkpt lat="45.07039" lon="5.55155">
        <ele>1021</ele>
        <time>2016-09-11T12:39:57Z</time>
      </trkpt>
      <trkpt lat="45.07041" lon="5.55146">
        <ele>1021</ele>
        <time>2016-09-11T12:40:00Z</time>
      </trkpt>
      <trkpt lat="45.07043" lon="5.55139">
        <ele>1021</ele>
        <time>2016-09-11T12:40:03Z</time>
      </trkpt>
      <trkpt lat="45.07044" lon="5.55131">
        <ele>1020</ele>
        <time>2016-09-11T12:40:06Z</time>
      </trkpt>
      <trkpt lat="45.07045" lon="5.55124">
        <ele>1019</ele>
        <time>2016-09-11T12:40:08Z</time>
      </trkpt>
      <trkpt lat="45.0705" lon="5.55119">
        <ele>1019</ele>
        <time>2016-09-11T12:40:10Z</time>
      </trkpt>
      <trkpt lat="45.07054" lon="5.55117">
        <ele>1018</ele>
        <time>2016-09-11T12:40:12Z</time>
      </trkpt>
      <trkpt lat="45.07059" lon="5.55117">
        <ele>1018</ele>
        <time>2016-09-11T12:40:14Z</time>
      </trkpt>
      <trkpt lat="45.07064" lon="5.55116">
        <ele>1018</ele>
        <time>2016-09-11T12:40:16Z</time>
      </trkpt>
      <trkpt lat="45.07069" lon="5.55117">
        <ele>1018</ele>
        <time>2016-09-11T12:40:18Z</time>
      </trkpt>
      <trkpt lat="45.07074" lon="5.55117">
        <ele>1019</ele>
        <time>2016-09-11T12:40:20Z</time>
      </trkpt>
      <trkpt lat="45.07079" lon="5.55118">
        <ele>1019</ele>
        <time>2016-09-11T12:40:22Z</time>
      </trkpt>
      <trkpt lat="45.07084" lon="5.5512">
        <ele>1019</ele>
        <time>2016-09-11T12:40:32Z</time>
      </trkpt>
      <trkpt lat="45.0709" lon="5.55124">
        <ele>1019</ele>
        <time>2016-09-11T12:40:35Z</time>
      </trkpt>
      <trkpt lat="45.07097" lon="5.55125">
        <ele>1019</ele>
        <time>2016-09-11T12:40:37Z</time>
      </trkpt>
      <trkpt lat="45.07103" lon="5.55127">
        <ele>1019</ele>
        <time>2016-09-11T12:40:39Z</time>
      </trkpt>
      <trkpt lat="45.0711" lon="5.5513">
        <ele>1019</ele>
        <time>2016-09-11T12:40:41Z</time>
      </trkpt>
      <trkpt lat="45.07117" lon="5.55134">
        <ele>1020</ele>
        <time>2016-09-11T12:40:43Z</time>
      </trkpt>
      <trkpt lat="45.07124" lon="5.55138">
        <ele>1020</ele>
        <time>2016-09-11T12:40:45Z</time>
      </trkpt>
      <trkpt lat="45.07129" lon="5.55141">
        <ele>1020</ele>
        <time>2016-09-11T12:40:47Z</time>
      </trkpt>
      <trkpt lat="45.07135" lon="5.55145">
        <ele>1020</ele>
        <time>2016-09-11T12:40:49Z</time>
      </trkpt>
      <trkpt lat="45.0714" lon="5.55149">
        <ele>1020</ele>
        <time>2016-09-11T12:40:51Z</time>
      </trkpt>
      <trkpt lat="45.07145" lon="5.55152">
        <ele>1019</ele>
        <time>2016-09-11T12:40:53Z</time>
      </trkpt>
      <trkpt lat="45.0715" lon="5.55154">
        <ele>1020</ele>
        <time>2016-09-11T12:40:55Z</time>
      </trkpt>
      <trkpt lat="45.07155" lon="5.55155">
        <ele>1019</ele>
        <time>2016-09-11T12:40:57Z</time>
      </trkpt>
      <trkpt lat="45.07159" lon="5.55158">
        <ele>1019</ele>
        <time>2016-09-11T12:40:59Z</time>
      </trkpt>
      <trkpt lat="45.07165" lon="5.55161">
        <ele>1019</ele>
        <time>2016-09-11T12:41:01Z</time>
      </trkpt>
      <trkpt lat="45.0717" lon="5.55164">
        <ele>1019</ele>
        <time>2016-09-11T12:41:03Z</time>
      </trkpt>
      <trkpt lat="45.07175" lon="5.55167">
        <ele>1018</ele>
        <time>2016-09-11T12:41:05Z</time>
      </trkpt>
      <trkpt lat="45.07181" lon="5.55172">
        <ele>1018</ele>
        <time>2016-09-11T12:41:07Z</time>
      </trkpt>
      <trkpt lat="45.07188" lon="5.55179">
        <ele>1018</ele>
        <time>2016-09-11T12:41:09Z</time>
      </trkpt>
      <trkpt lat="45.07195" lon="5.55189">
        <ele>1018</ele>
        <time>2016-09-11T12:41:11Z</time>
      </trkpt>
      <trkpt lat="45.072" lon="5.55196">
        <ele>1017</ele>
        <time>2016-09-11T12:41:12Z</time>
      </trkpt>
      <trkpt lat="45.07203" lon="5.55201">
        <ele>1017</ele>
        <time>2016-09-11T12:41:13Z</time>
      </trkpt>
      <trkpt lat="45.07206" lon="5.55206">
        <ele>1016</ele>
        <time>2016-09-11T12:41:14Z</time>
      </trkpt>
      <trkpt lat="45.07209" lon="5.55211">
        <ele>1016</ele>
        <time>2016-09-11T12:41:15Z</time>
      </trkpt>
      <trkpt lat="45.07213" lon="5.55216">
        <ele>1016</ele>
        <time>2016-09-11T12:41:16Z</time>
      </trkpt>
      <trkpt lat="45.07217" lon="5.55222">
        <ele>1016</ele>
        <time>2016-09-11T12:41:17Z</time>
      </trkpt>
      <trkpt lat="45.0722" lon="5.55227">
        <ele>1016</ele>
        <time>2016-09-11T12:41:18Z</time>
      </trkpt>
      <trkpt lat="45.07224" lon="5.55233">
        <ele>1016</ele>
        <time>2016-09-11T12:41:19Z</time>
      </trkpt>
      <trkpt lat="45.07228" lon="5.55237">
        <ele>1016</ele>
        <time>2016-09-11T12:41:20Z</time>
      </trkpt>
      <trkpt lat="45.07233" lon="5.55245">
        <ele>1016</ele>
        <time>2016-09-11T12:41:22Z</time>
      </trkpt>
      <trkpt lat="45.07239" lon="5.55253">
        <ele>1016</ele>
        <time>2016-09-11T12:41:24Z</time>
      </trkpt>
      <trkpt lat="45.07243" lon="5.55257">
        <ele>1016</ele>
        <time>2016-09-11T12:41:25Z</time>
      </trkpt>
      <trkpt lat="45.07246" lon="5.55262">
        <ele>1016</ele>
        <time>2016-09-11T12:41:26Z</time>
      </trkpt>
      <trkpt lat="45.0725" lon="5.55267">
        <ele>1016</ele>
        <time>2016-09-11T12:41:27Z</time>
      </trkpt>
      <trkpt lat="45.07256" lon="5.55276">
        <ele>1016</ele>
        <time>2016-09-11T12:41:29Z</time>
      </trkpt>
      <trkpt lat="45.07259" lon="5.55281">
        <ele>1016</ele>
        <time>2016-09-11T12:41:30Z</time>
      </trkpt>
      <trkpt lat="45.07265" lon="5.55289">
        <ele>1016</ele>
        <time>2016-09-11T12:41:32Z</time>
      </trkpt>
      <trkpt lat="45.07271" lon="5.55298">
        <ele>1017</ele>
        <time>2016-09-11T12:41:34Z</time>
      </trkpt>
      <trkpt lat="45.07276" lon="5.55305">
        <ele>1017</ele>
        <time>2016-09-11T12:41:36Z</time>
      </trkpt>
      <trkpt lat="45.07282" lon="5.55313">
        <ele>1018</ele>
        <time>2016-09-11T12:41:38Z</time>
      </trkpt>
      <trkpt lat="45.07288" lon="5.55321">
        <ele>1018</ele>
        <time>2016-09-11T12:41:40Z</time>
      </trkpt>
      <trkpt lat="45.07294" lon="5.55329">
        <ele>1018</ele>
        <time>2016-09-11T12:41:42Z</time>
      </trkpt>
      <trkpt lat="45.073" lon="5.55338">
        <ele>1018</ele>
        <time>2016-09-11T12:41:44Z</time>
      </trkpt>
      <trkpt lat="45.07306" lon="5.55347">
        <ele>1018</ele>
        <time>2016-09-11T12:41:46Z</time>
      </trkpt>
      <trkpt lat="45.07311" lon="5.55357">
        <ele>1018</ele>
        <time>2016-09-11T12:41:48Z</time>
      </trkpt>
      <trkpt lat="45.07315" lon="5.55361">
        <ele>1017</ele>
        <time>2016-09-11T12:41:49Z</time>
      </trkpt>
      <trkpt lat="45.07318" lon="5.55366">
        <ele>1016</ele>
        <time>2016-09-11T12:41:50Z</time>
      </trkpt>
      <trkpt lat="45.07322" lon="5.55371">
        <ele>1016</ele>
        <time>2016-09-11T12:41:51Z</time>
      </trkpt>
      <trkpt lat="45.07325" lon="5.55376">
        <ele>1015</ele>
        <time>2016-09-11T12:41:52Z</time>
      </trkpt>
      <trkpt lat="45.07328" lon="5.55381">
        <ele>1015</ele>
        <time>2016-09-11T12:41:53Z</time>
      </trkpt>
      <trkpt lat="45.07332" lon="5.55386">
        <ele>1015</ele>
        <time>2016-09-11T12:41:54Z</time>
      </trkpt>
      <trkpt lat="45.07336" lon="5.55391">
        <ele>1015</ele>
        <time>2016-09-11T12:41:55Z</time>
      </trkpt>
      <trkpt lat="45.0734" lon="5.55396">
        <ele>1015</ele>
        <time>2016-09-11T12:41:56Z</time>
      </trkpt>
      <trkpt lat="45.07346" lon="5.55405">
        <ele>1015</ele>
        <time>2016-09-11T12:41:58Z</time>
      </trkpt>
      <trkpt lat="45.0735" lon="5.55408">
        <ele>1015</ele>
        <time>2016-09-11T12:41:59Z</time>
      </trkpt>
      <trkpt lat="45.07355" lon="5.55411">
        <ele>1015</ele>
        <time>2016-09-11T12:42:00Z</time>
      </trkpt>
      <trkpt lat="45.07363" lon="5.55412">
        <ele>1015</ele>
        <time>2016-09-11T12:42:02Z</time>
      </trkpt>
      <trkpt lat="45.07371" lon="5.5541">
        <ele>1014</ele>
        <time>2016-09-11T12:42:04Z</time>
      </trkpt>
      <trkpt lat="45.07378" lon="5.55407">
        <ele>1014</ele>
        <time>2016-09-11T12:42:06Z</time>
      </trkpt>
      <trkpt lat="45.07386" lon="5.55403">
        <ele>1014</ele>
        <time>2016-09-11T12:42:08Z</time>
      </trkpt>
      <trkpt lat="45.07392" lon="5.55397">
        <ele>1013</ele>
        <time>2016-09-11T12:42:10Z</time>
      </trkpt>
      <trkpt lat="45.07399" lon="5.55392">
        <ele>1013</ele>
        <time>2016-09-11T12:42:12Z</time>
      </trkpt>
      <trkpt lat="45.07407" lon="5.55386">
        <ele>1012</ele>
        <time>2016-09-11T12:42:14Z</time>
      </trkpt>
      <trkpt lat="45.07414" lon="5.55381">
        <ele>1012</ele>
        <time>2016-09-11T12:42:16Z</time>
      </trkpt>
      <trkpt lat="45.07421" lon="5.55375">
        <ele>1012</ele>
        <time>2016-09-11T12:42:18Z</time>
      </trkpt>
      <trkpt lat="45.07428" lon="5.5537">
        <ele>1011</ele>
        <time>2016-09-11T12:42:20Z</time>
      </trkpt>
      <trkpt lat="45.07436" lon="5.55365">
        <ele>1011</ele>
        <time>2016-09-11T12:42:22Z</time>
      </trkpt>
      <trkpt lat="45.0744" lon="5.5536">
        <ele>1010</ele>
        <time>2016-09-11T12:42:23Z</time>
      </trkpt>
      <trkpt lat="45.07445" lon="5.55356">
        <ele>1009</ele>
        <time>2016-09-11T12:42:24Z</time>
      </trkpt>
      <trkpt lat="45.07449" lon="5.55352">
        <ele>1009</ele>
        <time>2016-09-11T12:42:25Z</time>
      </trkpt>
      <trkpt lat="45.07454" lon="5.55348">
        <ele>1008</ele>
        <time>2016-09-11T12:42:26Z</time>
      </trkpt>
      <trkpt lat="45.0746" lon="5.55342">
        <ele>1008</ele>
        <time>2016-09-11T12:42:28Z</time>
      </trkpt>
      <trkpt lat="45.07466" lon="5.55339">
        <ele>1008</ele>
        <time>2016-09-11T12:42:29Z</time>
      </trkpt>
      <trkpt lat="45.0747" lon="5.55335">
        <ele>1008</ele>
        <time>2016-09-11T12:42:30Z</time>
      </trkpt>
      <trkpt lat="45.07475" lon="5.55332">
        <ele>1008</ele>
        <time>2016-09-11T12:42:31Z</time>
      </trkpt>
      <trkpt lat="45.0748" lon="5.55327">
        <ele>1009</ele>
        <time>2016-09-11T12:42:32Z</time>
      </trkpt>
      <trkpt lat="45.07485" lon="5.55323">
        <ele>1009</ele>
        <time>2016-09-11T12:42:33Z</time>
      </trkpt>
      <trkpt lat="45.07489" lon="5.55319">
        <ele>1009</ele>
        <time>2016-09-11T12:42:34Z</time>
      </trkpt>
      <trkpt lat="45.07495" lon="5.55315">
        <ele>1009</ele>
        <time>2016-09-11T12:42:35Z</time>
      </trkpt>
      <trkpt lat="45.075" lon="5.55311">
        <ele>1010</ele>
        <time>2016-09-11T12:42:36Z</time>
      </trkpt>
      <trkpt lat="45.07506" lon="5.55306">
        <ele>1010</ele>
        <time>2016-09-11T12:42:37Z</time>
      </trkpt>
      <trkpt lat="45.07511" lon="5.55302">
        <ele>1010</ele>
        <time>2016-09-11T12:42:38Z</time>
      </trkpt>
      <trkpt lat="45.07517" lon="5.55298">
        <ele>1010</ele>
        <time>2016-09-11T12:42:39Z</time>
      </trkpt>
      <trkpt lat="45.07521" lon="5.55294">
        <ele>1010</ele>
        <time>2016-09-11T12:42:40Z</time>
      </trkpt>
      <trkpt lat="45.07526" lon="5.5529">
        <ele>1010</ele>
        <time>2016-09-11T12:42:41Z</time>
      </trkpt>
      <trkpt lat="45.07531" lon="5.55286">
        <ele>1010</ele>
        <time>2016-09-11T12:42:42Z</time>
      </trkpt>
      <trkpt lat="45.07536" lon="5.55281">
        <ele>1010</ele>
        <time>2016-09-11T12:42:43Z</time>
      </trkpt>
      <trkpt lat="45.07541" lon="5.55278">
        <ele>1010</ele>
        <time>2016-09-11T12:42:44Z</time>
      </trkpt>
      <trkpt lat="45.07545" lon="5.55275">
        <ele>1010</ele>
        <time>2016-09-11T12:42:45Z</time>
      </trkpt>
      <trkpt lat="45.0755" lon="5.55272">
        <ele>1009</ele>
        <time>2016-09-11T12:42:46Z</time>
      </trkpt>
      <trkpt lat="45.07556" lon="5.55266">
        <ele>1008</ele>
        <time>2016-09-11T12:42:48Z</time>
      </trkpt>
      <trkpt lat="45.07563" lon="5.55264">
        <ele>1007</ele>
        <time>2016-09-11T12:42:49Z</time>
      </trkpt>
      <trkpt lat="45.07571" lon="5.55262">
        <ele>1006</ele>
        <time>2016-09-11T12:42:50Z</time>
      </trkpt>
      <trkpt lat="45.07575" lon="5.5526">
        <ele>1005</ele>
        <time>2016-09-11T12:42:51Z</time>
      </trkpt>
      <trkpt lat="45.07583" lon="5.55259">
        <ele>1004</ele>
        <time>2016-09-11T12:42:52Z</time>
      </trkpt>
      <trkpt lat="45.07589" lon="5.55259">
        <ele>1004</ele>
        <time>2016-09-11T12:42:53Z</time>
      </trkpt>
      <trkpt lat="45.07596" lon="5.5526">
        <ele>1003</ele>
        <time>2016-09-11T12:42:54Z</time>
      </trkpt>
      <trkpt lat="45.07604" lon="5.55261">
        <ele>1002</ele>
        <time>2016-09-11T12:42:55Z</time>
      </trkpt>
      <trkpt lat="45.07612" lon="5.55263">
        <ele>1002</ele>
        <time>2016-09-11T12:42:56Z</time>
      </trkpt>
      <trkpt lat="45.0762" lon="5.55265">
        <ele>1001</ele>
        <time>2016-09-11T12:42:57Z</time>
      </trkpt>
      <trkpt lat="45.07628" lon="5.55269">
        <ele>1001</ele>
        <time>2016-09-11T12:42:58Z</time>
      </trkpt>
      <trkpt lat="45.07635" lon="5.55274">
        <ele>1001</ele>
        <time>2016-09-11T12:42:59Z</time>
      </trkpt>
      <trkpt lat="45.07644" lon="5.55279">
        <ele>1000</ele>
        <time>2016-09-11T12:43:00Z</time>
      </trkpt>
      <trkpt lat="45.07658" lon="5.55291">
        <ele>999</ele>
        <time>2016-09-11T12:43:02Z</time>
      </trkpt>
      <trkpt lat="45.07666" lon="5.55297">
        <ele>999</ele>
        <time>2016-09-11T12:43:03Z</time>
      </trkpt>
      <trkpt lat="45.07682" lon="5.5531">
        <ele>998</ele>
        <time>2016-09-11T12:43:05Z</time>
      </trkpt>
      <trkpt lat="45.07689" lon="5.55316">
        <ele>997</ele>
        <time>2016-09-11T12:43:06Z</time>
      </trkpt>
      <trkpt lat="45.07696" lon="5.55321">
        <ele>997</ele>
        <time>2016-09-11T12:43:07Z</time>
      </trkpt>
      <trkpt lat="45.07703" lon="5.55328">
        <ele>996</ele>
        <time>2016-09-11T12:43:08Z</time>
      </trkpt>
      <trkpt lat="45.07709" lon="5.55335">
        <ele>996</ele>
        <time>2016-09-11T12:43:09Z</time>
      </trkpt>
      <trkpt lat="45.07715" lon="5.55343">
        <ele>995</ele>
        <time>2016-09-11T12:43:10Z</time>
      </trkpt>
      <trkpt lat="45.07719" lon="5.55352">
        <ele>995</ele>
        <time>2016-09-11T12:43:11Z</time>
      </trkpt>
      <trkpt lat="45.07724" lon="5.55361">
        <ele>994</ele>
        <time>2016-09-11T12:43:12Z</time>
      </trkpt>
      <trkpt lat="45.07727" lon="5.5537">
        <ele>994</ele>
        <time>2016-09-11T12:43:13Z</time>
      </trkpt>
      <trkpt lat="45.07731" lon="5.55392">
        <ele>992</ele>
        <time>2016-09-11T12:43:15Z</time>
      </trkpt>
      <trkpt lat="45.07732" lon="5.55403">
        <ele>991</ele>
        <time>2016-09-11T12:43:16Z</time>
      </trkpt>
      <trkpt lat="45.07735" lon="5.55425">
        <ele>990</ele>
        <time>2016-09-11T12:43:18Z</time>
      </trkpt>
      <trkpt lat="45.07735" lon="5.55437">
        <ele>990</ele>
        <time>2016-09-11T12:43:19Z</time>
      </trkpt>
      <trkpt lat="45.07735" lon="5.5545">
        <ele>989</ele>
        <time>2016-09-11T12:43:20Z</time>
      </trkpt>
      <trkpt lat="45.07735" lon="5.55462">
        <ele>988</ele>
        <time>2016-09-11T12:43:21Z</time>
      </trkpt>
      <trkpt lat="45.07735" lon="5.55474">
        <ele>988</ele>
        <time>2016-09-11T12:43:22Z</time>
      </trkpt>
      <trkpt lat="45.07734" lon="5.55486">
        <ele>987</ele>
        <time>2016-09-11T12:43:23Z</time>
      </trkpt>
      <trkpt lat="45.07734" lon="5.55499">
        <ele>987</ele>
        <time>2016-09-11T12:43:24Z</time>
      </trkpt>
      <trkpt lat="45.07734" lon="5.55512">
        <ele>986</ele>
        <time>2016-09-11T12:43:25Z</time>
      </trkpt>
      <trkpt lat="45.07734" lon="5.55524">
        <ele>986</ele>
        <time>2016-09-11T12:43:26Z</time>
      </trkpt>
      <trkpt lat="45.07735" lon="5.55535">
        <ele>985</ele>
        <time>2016-09-11T12:43:27Z</time>
      </trkpt>
      <trkpt lat="45.07736" lon="5.55546">
        <ele>985</ele>
        <time>2016-09-11T12:43:28Z</time>
      </trkpt>
      <trkpt lat="45.07737" lon="5.55557">
        <ele>984</ele>
        <time>2016-09-11T12:43:29Z</time>
      </trkpt>
      <trkpt lat="45.07738" lon="5.55568">
        <ele>984</ele>
        <time>2016-09-11T12:43:30Z</time>
      </trkpt>
      <trkpt lat="45.07741" lon="5.55577">
        <ele>983</ele>
        <time>2016-09-11T12:43:31Z</time>
      </trkpt>
      <trkpt lat="45.07744" lon="5.55586">
        <ele>983</ele>
        <time>2016-09-11T12:43:32Z</time>
      </trkpt>
      <trkpt lat="45.07748" lon="5.55595">
        <ele>983</ele>
        <time>2016-09-11T12:43:33Z</time>
      </trkpt>
      <trkpt lat="45.07752" lon="5.55603">
        <ele>983</ele>
        <time>2016-09-11T12:43:34Z</time>
      </trkpt>
      <trkpt lat="45.07756" lon="5.5561">
        <ele>982</ele>
        <time>2016-09-11T12:43:35Z</time>
      </trkpt>
      <trkpt lat="45.07763" lon="5.55616">
        <ele>982</ele>
        <time>2016-09-11T12:43:36Z</time>
      </trkpt>
      <trkpt lat="45.07769" lon="5.55621">
        <ele>982</ele>
        <time>2016-09-11T12:43:37Z</time>
      </trkpt>
      <trkpt lat="45.07776" lon="5.55624">
        <ele>981</ele>
        <time>2016-09-11T12:43:38Z</time>
      </trkpt>
      <trkpt lat="45.07783" lon="5.55627">
        <ele>981</ele>
        <time>2016-09-11T12:43:39Z</time>
      </trkpt>
      <trkpt lat="45.0779" lon="5.55627">
        <ele>981</ele>
        <time>2016-09-11T12:43:40Z</time>
      </trkpt>
      <trkpt lat="45.07798" lon="5.55627">
        <ele>980</ele>
        <time>2016-09-11T12:43:41Z</time>
      </trkpt>
      <trkpt lat="45.07806" lon="5.55626">
        <ele>980</ele>
        <time>2016-09-11T12:43:42Z</time>
      </trkpt>
      <trkpt lat="45.07814" lon="5.55623">
        <ele>980</ele>
        <time>2016-09-11T12:43:43Z</time>
      </trkpt>
      <trkpt lat="45.07821" lon="5.55619">
        <ele>980</ele>
        <time>2016-09-11T12:43:44Z</time>
      </trkpt>
      <trkpt lat="45.07827" lon="5.55614">
        <ele>979</ele>
        <time>2016-09-11T12:43:45Z</time>
      </trkpt>
      <trkpt lat="45.07832" lon="5.55608">
        <ele>979</ele>
        <time>2016-09-11T12:43:46Z</time>
      </trkpt>
      <trkpt lat="45.07838" lon="5.55601">
        <ele>979</ele>
        <time>2016-09-11T12:43:47Z</time>
      </trkpt>
      <trkpt lat="45.07842" lon="5.55592">
        <ele>979</ele>
        <time>2016-09-11T12:43:48Z</time>
      </trkpt>
      <trkpt lat="45.07846" lon="5.55584">
        <ele>979</ele>
        <time>2016-09-11T12:43:49Z</time>
      </trkpt>
      <trkpt lat="45.0785" lon="5.55576">
        <ele>979</ele>
        <time>2016-09-11T12:43:50Z</time>
      </trkpt>
      <trkpt lat="45.07853" lon="5.55568">
        <ele>979</ele>
        <time>2016-09-11T12:43:51Z</time>
      </trkpt>
      <trkpt lat="45.07856" lon="5.55559">
        <ele>979</ele>
        <time>2016-09-11T12:43:52Z</time>
      </trkpt>
      <trkpt lat="45.07859" lon="5.5555">
        <ele>979</ele>
        <time>2016-09-11T12:43:53Z</time>
      </trkpt>
      <trkpt lat="45.07862" lon="5.55541">
        <ele>979</ele>
        <time>2016-09-11T12:43:54Z</time>
      </trkpt>
      <trkpt lat="45.07864" lon="5.55532">
        <ele>979</ele>
        <time>2016-09-11T12:43:55Z</time>
      </trkpt>
      <trkpt lat="45.07867" lon="5.55524">
        <ele>979</ele>
        <time>2016-09-11T12:43:56Z</time>
      </trkpt>
      <trkpt lat="45.0787" lon="5.55516">
        <ele>980</ele>
        <time>2016-09-11T12:43:57Z</time>
      </trkpt>
      <trkpt lat="45.07873" lon="5.55507">
        <ele>980</ele>
        <time>2016-09-11T12:43:58Z</time>
      </trkpt>
      <trkpt lat="45.07876" lon="5.55498">
        <ele>980</ele>
        <time>2016-09-11T12:43:59Z</time>
      </trkpt>
      <trkpt lat="45.07879" lon="5.5549">
        <ele>980</ele>
        <time>2016-09-11T12:44:00Z</time>
      </trkpt>
      <trkpt lat="45.07882" lon="5.55481">
        <ele>980</ele>
        <time>2016-09-11T12:44:01Z</time>
      </trkpt>
      <trkpt lat="45.07885" lon="5.55473">
        <ele>980</ele>
        <time>2016-09-11T12:44:02Z</time>
      </trkpt>
      <trkpt lat="45.07887" lon="5.55465">
        <ele>980</ele>
        <time>2016-09-11T12:44:03Z</time>
      </trkpt>
      <trkpt lat="45.07889" lon="5.55457">
        <ele>980</ele>
        <time>2016-09-11T12:44:04Z</time>
      </trkpt>
      <trkpt lat="45.07892" lon="5.5545">
        <ele>980</ele>
        <time>2016-09-11T12:44:05Z</time>
      </trkpt>
      <trkpt lat="45.07895" lon="5.55443">
        <ele>980</ele>
        <time>2016-09-11T12:44:06Z</time>
      </trkpt>
      <trkpt lat="45.07896" lon="5.55436">
        <ele>980</ele>
        <time>2016-09-11T12:44:07Z</time>
      </trkpt>
      <trkpt lat="45.07899" lon="5.55429">
        <ele>980</ele>
        <time>2016-09-11T12:44:08Z</time>
      </trkpt>
      <trkpt lat="45.07901" lon="5.55422">
        <ele>980</ele>
        <time>2016-09-11T12:44:09Z</time>
      </trkpt>
      <trkpt lat="45.07903" lon="5.55416">
        <ele>980</ele>
        <time>2016-09-11T12:44:10Z</time>
      </trkpt>
      <trkpt lat="45.07905" lon="5.55409">
        <ele>980</ele>
        <time>2016-09-11T12:44:11Z</time>
      </trkpt>
      <trkpt lat="45.07908" lon="5.55403">
        <ele>980</ele>
        <time>2016-09-11T12:44:12Z</time>
      </trkpt>
      <trkpt lat="45.07909" lon="5.55397">
        <ele>980</ele>
        <time>2016-09-11T12:44:13Z</time>
      </trkpt>
      <trkpt lat="45.07913" lon="5.55386">
        <ele>980</ele>
        <time>2016-09-11T12:44:15Z</time>
      </trkpt>
      <trkpt lat="45.07914" lon="5.5538">
        <ele>980</ele>
        <time>2016-09-11T12:44:16Z</time>
      </trkpt>
      <trkpt lat="45.07917" lon="5.55374">
        <ele>980</ele>
        <time>2016-09-11T12:44:17Z</time>
      </trkpt>
      <trkpt lat="45.0792" lon="5.55369">
        <ele>980</ele>
        <time>2016-09-11T12:44:18Z</time>
      </trkpt>
      <trkpt lat="45.07924" lon="5.55365">
        <ele>980</ele>
        <time>2016-09-11T12:44:19Z</time>
      </trkpt>
      <trkpt lat="45.07928" lon="5.55362">
        <ele>980</ele>
        <time>2016-09-11T12:44:20Z</time>
      </trkpt>
      <trkpt lat="45.07932" lon="5.55357">
        <ele>980</ele>
        <time>2016-09-11T12:44:21Z</time>
      </trkpt>
      <trkpt lat="45.07937" lon="5.55347">
        <ele>980</ele>
        <time>2016-09-11T12:44:23Z</time>
      </trkpt>
      <trkpt lat="45.07944" lon="5.55339">
        <ele>980</ele>
        <time>2016-09-11T12:44:25Z</time>
      </trkpt>
      <trkpt lat="45.07952" lon="5.55334">
        <ele>981</ele>
        <time>2016-09-11T12:44:27Z</time>
      </trkpt>
      <trkpt lat="45.07959" lon="5.5533">
        <ele>981</ele>
        <time>2016-09-11T12:44:29Z</time>
      </trkpt>
      <trkpt lat="45.07967" lon="5.55327">
        <ele>981</ele>
        <time>2016-09-11T12:44:31Z</time>
      </trkpt>
      <trkpt lat="45.07974" lon="5.55325">
        <ele>981</ele>
        <time>2016-09-11T12:44:33Z</time>
      </trkpt>
      <trkpt lat="45.07981" lon="5.55323">
        <ele>981</ele>
        <time>2016-09-11T12:44:35Z</time>
      </trkpt>
      <trkpt lat="45.07988" lon="5.55321">
        <ele>981</ele>
        <time>2016-09-11T12:44:37Z</time>
      </trkpt>
      <trkpt lat="45.07994" lon="5.5532">
        <ele>981</ele>
        <time>2016-09-11T12:44:39Z</time>
      </trkpt>
      <trkpt lat="45.08001" lon="5.55319">
        <ele>980</ele>
        <time>2016-09-11T12:44:41Z</time>
      </trkpt>
      <trkpt lat="45.08008" lon="5.55319">
        <ele>980</ele>
        <time>2016-09-11T12:44:43Z</time>
      </trkpt>
      <trkpt lat="45.08015" lon="5.55319">
        <ele>980</ele>
        <time>2016-09-11T12:44:45Z</time>
      </trkpt>
      <trkpt lat="45.08023" lon="5.55319">
        <ele>980</ele>
        <time>2016-09-11T12:44:47Z</time>
      </trkpt>
      <trkpt lat="45.0803" lon="5.55321">
        <ele>980</ele>
        <time>2016-09-11T12:44:49Z</time>
      </trkpt>
      <trkpt lat="45.08038" lon="5.55323">
        <ele>980</ele>
        <time>2016-09-11T12:44:51Z</time>
      </trkpt>
      <trkpt lat="45.08045" lon="5.55326">
        <ele>980</ele>
        <time>2016-09-11T12:44:53Z</time>
      </trkpt>
      <trkpt lat="45.08052" lon="5.55331">
        <ele>981</ele>
        <time>2016-09-11T12:44:55Z</time>
      </trkpt>
      <trkpt lat="45.08059" lon="5.55336">
        <ele>981</ele>
        <time>2016-09-11T12:44:57Z</time>
      </trkpt>
      <trkpt lat="45.08067" lon="5.55342">
        <ele>981</ele>
        <time>2016-09-11T12:44:59Z</time>
      </trkpt>
      <trkpt lat="45.08075" lon="5.55348">
        <ele>981</ele>
        <time>2016-09-11T12:45:01Z</time>
      </trkpt>
      <trkpt lat="45.08082" lon="5.55354">
        <ele>981</ele>
        <time>2016-09-11T12:45:03Z</time>
      </trkpt>
      <trkpt lat="45.08091" lon="5.55361">
        <ele>981</ele>
        <time>2016-09-11T12:45:05Z</time>
      </trkpt>
      <trkpt lat="45.08094" lon="5.55364">
        <ele>981</ele>
        <time>2016-09-11T12:45:06Z</time>
      </trkpt>
      <trkpt lat="45.08099" lon="5.55367">
        <ele>982</ele>
        <time>2016-09-11T12:45:07Z</time>
      </trkpt>
      <trkpt lat="45.08103" lon="5.5537">
        <ele>982</ele>
        <time>2016-09-11T12:45:08Z</time>
      </trkpt>
      <trkpt lat="45.0811" lon="5.55376">
        <ele>982</ele>
        <time>2016-09-11T12:45:10Z</time>
      </trkpt>
      <trkpt lat="45.08118" lon="5.55382">
        <ele>982</ele>
        <time>2016-09-11T12:45:12Z</time>
      </trkpt>
      <trkpt lat="45.08123" lon="5.55386">
        <ele>981</ele>
        <time>2016-09-11T12:45:13Z</time>
      </trkpt>
      <trkpt lat="45.08131" lon="5.55392">
        <ele>981</ele>
        <time>2016-09-11T12:45:15Z</time>
      </trkpt>
      <trkpt lat="45.0814" lon="5.55396">
        <ele>981</ele>
        <time>2016-09-11T12:45:17Z</time>
      </trkpt>
      <trkpt lat="45.08145" lon="5.55398">
        <ele>981</ele>
        <time>2016-09-11T12:45:18Z</time>
      </trkpt>
      <trkpt lat="45.0815" lon="5.55401">
        <ele>981</ele>
        <time>2016-09-11T12:45:19Z</time>
      </trkpt>
      <trkpt lat="45.08155" lon="5.55403">
        <ele>981</ele>
        <time>2016-09-11T12:45:20Z</time>
      </trkpt>
      <trkpt lat="45.0816" lon="5.55404">
        <ele>981</ele>
        <time>2016-09-11T12:45:21Z</time>
      </trkpt>
      <trkpt lat="45.08165" lon="5.55405">
        <ele>981</ele>
        <time>2016-09-11T12:45:22Z</time>
      </trkpt>
      <trkpt lat="45.08171" lon="5.55406">
        <ele>981</ele>
        <time>2016-09-11T12:45:23Z</time>
      </trkpt>
      <trkpt lat="45.08181" lon="5.55404">
        <ele>982</ele>
        <time>2016-09-11T12:45:25Z</time>
      </trkpt>
      <trkpt lat="45.08186" lon="5.55404">
        <ele>982</ele>
        <time>2016-09-11T12:45:26Z</time>
      </trkpt>
      <trkpt lat="45.08191" lon="5.55404">
        <ele>981</ele>
        <time>2016-09-11T12:45:27Z</time>
      </trkpt>
      <trkpt lat="45.08197" lon="5.55403">
        <ele>981</ele>
        <time>2016-09-11T12:45:28Z</time>
      </trkpt>
      <trkpt lat="45.08202" lon="5.55403">
        <ele>981</ele>
        <time>2016-09-11T12:45:29Z</time>
      </trkpt>
      <trkpt lat="45.08207" lon="5.55402">
        <ele>981</ele>
        <time>2016-09-11T12:45:30Z</time>
      </trkpt>
      <trkpt lat="45.08213" lon="5.55401">
        <ele>981</ele>
        <time>2016-09-11T12:45:32Z</time>
      </trkpt>
      <trkpt lat="45.08226" lon="5.55399">
        <ele>981</ele>
        <time>2016-09-11T12:45:33Z</time>
      </trkpt>
      <trkpt lat="45.08231" lon="5.55399">
        <ele>980</ele>
        <time>2016-09-11T12:45:34Z</time>
      </trkpt>
      <trkpt lat="45.08238" lon="5.55398">
        <ele>980</ele>
        <time>2016-09-11T12:45:35Z</time>
      </trkpt>
      <trkpt lat="45.08244" lon="5.55397">
        <ele>980</ele>
        <time>2016-09-11T12:45:36Z</time>
      </trkpt>
      <trkpt lat="45.0825" lon="5.55397">
        <ele>980</ele>
        <time>2016-09-11T12:45:37Z</time>
      </trkpt>
      <trkpt lat="45.08256" lon="5.55396">
        <ele>980</ele>
        <time>2016-09-11T12:45:38Z</time>
      </trkpt>
      <trkpt lat="45.08263" lon="5.55395">
        <ele>980</ele>
        <time>2016-09-11T12:45:39Z</time>
      </trkpt>
      <trkpt lat="45.08268" lon="5.55394">
        <ele>980</ele>
        <time>2016-09-11T12:45:40Z</time>
      </trkpt>
      <trkpt lat="45.08275" lon="5.55393">
        <ele>980</ele>
        <time>2016-09-11T12:45:41Z</time>
      </trkpt>
      <trkpt lat="45.0828" lon="5.55392">
        <ele>980</ele>
        <time>2016-09-11T12:45:42Z</time>
      </trkpt>
      <trkpt lat="45.08286" lon="5.55392">
        <ele>980</ele>
        <time>2016-09-11T12:45:43Z</time>
      </trkpt>
      <trkpt lat="45.08291" lon="5.55391">
        <ele>980</ele>
        <time>2016-09-11T12:45:44Z</time>
      </trkpt>
      <trkpt lat="45.08296" lon="5.5539">
        <ele>979</ele>
        <time>2016-09-11T12:45:45Z</time>
      </trkpt>
      <trkpt lat="45.08302" lon="5.55389">
        <ele>979</ele>
        <time>2016-09-11T12:45:46Z</time>
      </trkpt>
      <trkpt lat="45.08308" lon="5.55388">
        <ele>979</ele>
        <time>2016-09-11T12:45:47Z</time>
      </trkpt>
      <trkpt lat="45.08313" lon="5.55388">
        <ele>978</ele>
        <time>2016-09-11T12:45:48Z</time>
      </trkpt>
      <trkpt lat="45.0832" lon="5.55387">
        <ele>978</ele>
        <time>2016-09-11T12:45:49Z</time>
      </trkpt>
      <trkpt lat="45.08326" lon="5.55386">
        <ele>977</ele>
        <time>2016-09-11T12:45:50Z</time>
      </trkpt>
      <trkpt lat="45.08332" lon="5.55386">
        <ele>977</ele>
        <time>2016-09-11T12:45:51Z</time>
      </trkpt>
      <trkpt lat="45.08337" lon="5.55386">
        <ele>977</ele>
        <time>2016-09-11T12:45:52Z</time>
      </trkpt>
      <trkpt lat="45.08344" lon="5.55385">
        <ele>977</ele>
        <time>2016-09-11T12:45:53Z</time>
      </trkpt>
      <trkpt lat="45.08349" lon="5.55384">
        <ele>977</ele>
        <time>2016-09-11T12:45:54Z</time>
      </trkpt>
      <trkpt lat="45.08355" lon="5.55384">
        <ele>976</ele>
        <time>2016-09-11T12:45:55Z</time>
      </trkpt>
      <trkpt lat="45.08362" lon="5.55385">
        <ele>976</ele>
        <time>2016-09-11T12:45:56Z</time>
      </trkpt>
      <trkpt lat="45.08368" lon="5.55385">
        <ele>975</ele>
        <time>2016-09-11T12:45:57Z</time>
      </trkpt>
      <trkpt lat="45.08374" lon="5.55385">
        <ele>975</ele>
        <time>2016-09-11T12:45:58Z</time>
      </trkpt>
      <trkpt lat="45.08381" lon="5.55386">
        <ele>975</ele>
        <time>2016-09-11T12:45:59Z</time>
      </trkpt>
      <trkpt lat="45.08387" lon="5.55387">
        <ele>975</ele>
        <time>2016-09-11T12:46:00Z</time>
      </trkpt>
      <trkpt lat="45.08394" lon="5.55388">
        <ele>975</ele>
        <time>2016-09-11T12:46:01Z</time>
      </trkpt>
      <trkpt lat="45.08401" lon="5.55389">
        <ele>975</ele>
        <time>2016-09-11T12:46:02Z</time>
      </trkpt>
      <trkpt lat="45.08408" lon="5.55391">
        <ele>975</ele>
        <time>2016-09-11T12:46:03Z</time>
      </trkpt>
      <trkpt lat="45.08414" lon="5.55392">
        <ele>975</ele>
        <time>2016-09-11T12:46:04Z</time>
      </trkpt>
      <trkpt lat="45.08421" lon="5.55394">
        <ele>975</ele>
        <time>2016-09-11T12:46:05Z</time>
      </trkpt>
      <trkpt lat="45.08427" lon="5.55396">
        <ele>975</ele>
        <time>2016-09-11T12:46:06Z</time>
      </trkpt>
      <trkpt lat="45.08435" lon="5.55398">
        <ele>975</ele>
        <time>2016-09-11T12:46:07Z</time>
      </trkpt>
      <trkpt lat="45.08442" lon="5.554">
        <ele>975</ele>
        <time>2016-09-11T12:46:08Z</time>
      </trkpt>
      <trkpt lat="45.08449" lon="5.55402">
        <ele>975</ele>
        <time>2016-09-11T12:46:09Z</time>
      </trkpt>
      <trkpt lat="45.08456" lon="5.55404">
        <ele>975</ele>
        <time>2016-09-11T12:46:10Z</time>
      </trkpt>
      <trkpt lat="45.08462" lon="5.55406">
        <ele>974</ele>
        <time>2016-09-11T12:46:11Z</time>
      </trkpt>
      <trkpt lat="45.08469" lon="5.55408">
        <ele>974</ele>
        <time>2016-09-11T12:46:12Z</time>
      </trkpt>
      <trkpt lat="45.08476" lon="5.5541">
        <ele>974</ele>
        <time>2016-09-11T12:46:13Z</time>
      </trkpt>
      <trkpt lat="45.08483" lon="5.55411">
        <ele>974</ele>
        <time>2016-09-11T12:46:14Z</time>
      </trkpt>
      <trkpt lat="45.0849" lon="5.55413">
        <ele>974</ele>
        <time>2016-09-11T12:46:15Z</time>
      </trkpt>
      <trkpt lat="45.08497" lon="5.55415">
        <ele>974</ele>
        <time>2016-09-11T12:46:16Z</time>
      </trkpt>
      <trkpt lat="45.0851" lon="5.55419">
        <ele>974</ele>
        <time>2016-09-11T12:46:18Z</time>
      </trkpt>
      <trkpt lat="45.08516" lon="5.55421">
        <ele>974</ele>
        <time>2016-09-11T12:46:19Z</time>
      </trkpt>
      <trkpt lat="45.08522" lon="5.55422">
        <ele>974</ele>
        <time>2016-09-11T12:46:20Z</time>
      </trkpt>
      <trkpt lat="45.08529" lon="5.55424">
        <ele>974</ele>
        <time>2016-09-11T12:46:21Z</time>
      </trkpt>
      <trkpt lat="45.0854" lon="5.55425">
        <ele>974</ele>
        <time>2016-09-11T12:46:23Z</time>
      </trkpt>
      <trkpt lat="45.08545" lon="5.55427">
        <ele>974</ele>
        <time>2016-09-11T12:46:24Z</time>
      </trkpt>
      <trkpt lat="45.08551" lon="5.55429">
        <ele>974</ele>
        <time>2016-09-11T12:46:25Z</time>
      </trkpt>
      <trkpt lat="45.08558" lon="5.55431">
        <ele>974</ele>
        <time>2016-09-11T12:46:26Z</time>
      </trkpt>
      <trkpt lat="45.08564" lon="5.55433">
        <ele>973</ele>
        <time>2016-09-11T12:46:27Z</time>
      </trkpt>
      <trkpt lat="45.0857" lon="5.55435">
        <ele>974</ele>
        <time>2016-09-11T12:46:28Z</time>
      </trkpt>
      <trkpt lat="45.08575" lon="5.55436">
        <ele>974</ele>
        <time>2016-09-11T12:46:29Z</time>
      </trkpt>
      <trkpt lat="45.08581" lon="5.55437">
        <ele>974</ele>
        <time>2016-09-11T12:46:30Z</time>
      </trkpt>
      <trkpt lat="45.08587" lon="5.55439">
        <ele>974</ele>
        <time>2016-09-11T12:46:31Z</time>
      </trkpt>
      <trkpt lat="45.08593" lon="5.5544">
        <ele>974</ele>
        <time>2016-09-11T12:46:32Z</time>
      </trkpt>
      <trkpt lat="45.08599" lon="5.55441">
        <ele>974</ele>
        <time>2016-09-11T12:46:33Z</time>
      </trkpt>
      <trkpt lat="45.08605" lon="5.55443">
        <ele>974</ele>
        <time>2016-09-11T12:46:34Z</time>
      </trkpt>
      <trkpt lat="45.08611" lon="5.55444">
        <ele>974</ele>
        <time>2016-09-11T12:46:35Z</time>
      </trkpt>
      <trkpt lat="45.08616" lon="5.55446">
        <ele>974</ele>
        <time>2016-09-11T12:46:36Z</time>
      </trkpt>
      <trkpt lat="45.08622" lon="5.55447">
        <ele>974</ele>
        <time>2016-09-11T12:46:37Z</time>
      </trkpt>
      <trkpt lat="45.08627" lon="5.55449">
        <ele>974</ele>
        <time>2016-09-11T12:46:38Z</time>
      </trkpt>
      <trkpt lat="45.08632" lon="5.55451">
        <ele>974</ele>
        <time>2016-09-11T12:46:39Z</time>
      </trkpt>
      <trkpt lat="45.08638" lon="5.55453">
        <ele>974</ele>
        <time>2016-09-11T12:46:40Z</time>
      </trkpt>
      <trkpt lat="45.08643" lon="5.55454">
        <ele>974</ele>
        <time>2016-09-11T12:46:41Z</time>
      </trkpt>
      <trkpt lat="45.08649" lon="5.55456">
        <ele>974</ele>
        <time>2016-09-11T12:46:42Z</time>
      </trkpt>
      <trkpt lat="45.08654" lon="5.55457">
        <ele>975</ele>
        <time>2016-09-11T12:46:43Z</time>
      </trkpt>
      <trkpt lat="45.08659" lon="5.55459">
        <ele>975</ele>
        <time>2016-09-11T12:46:44Z</time>
      </trkpt>
      <trkpt lat="45.08665" lon="5.55461">
        <ele>976</ele>
        <time>2016-09-11T12:46:45Z</time>
      </trkpt>
      <trkpt lat="45.0867" lon="5.55463">
        <ele>976</ele>
        <time>2016-09-11T12:46:46Z</time>
      </trkpt>
      <trkpt lat="45.08675" lon="5.55464">
        <ele>976</ele>
        <time>2016-09-11T12:46:47Z</time>
      </trkpt>
      <trkpt lat="45.0868" lon="5.55465">
        <ele>977</ele>
        <time>2016-09-11T12:46:48Z</time>
      </trkpt>
      <trkpt lat="45.08685" lon="5.55467">
        <ele>976</ele>
        <time>2016-09-11T12:46:49Z</time>
      </trkpt>
      <trkpt lat="45.08691" lon="5.55468">
        <ele>976</ele>
        <time>2016-09-11T12:46:50Z</time>
      </trkpt>
      <trkpt lat="45.08696" lon="5.55469">
        <ele>976</ele>
        <time>2016-09-11T12:46:51Z</time>
      </trkpt>
      <trkpt lat="45.08707" lon="5.55472">
        <ele>976</ele>
        <time>2016-09-11T12:46:53Z</time>
      </trkpt>
      <trkpt lat="45.08712" lon="5.55474">
        <ele>976</ele>
        <time>2016-09-11T12:46:54Z</time>
      </trkpt>
      <trkpt lat="45.08718" lon="5.55475">
        <ele>977</ele>
        <time>2016-09-11T12:46:55Z</time>
      </trkpt>
      <trkpt lat="45.08722" lon="5.55477">
        <ele>977</ele>
        <time>2016-09-11T12:46:56Z</time>
      </trkpt>
      <trkpt lat="45.08728" lon="5.55479">
        <ele>977</ele>
        <time>2016-09-11T12:46:57Z</time>
      </trkpt>
      <trkpt lat="45.08733" lon="5.55482">
        <ele>977</ele>
        <time>2016-09-11T12:46:58Z</time>
      </trkpt>
      <trkpt lat="45.08739" lon="5.55483">
        <ele>977</ele>
        <time>2016-09-11T12:46:59Z</time>
      </trkpt>
      <trkpt lat="45.08744" lon="5.55484">
        <ele>976</ele>
        <time>2016-09-11T12:47:00Z</time>
      </trkpt>
      <trkpt lat="45.0875" lon="5.55487">
        <ele>976</ele>
        <time>2016-09-11T12:47:01Z</time>
      </trkpt>
      <trkpt lat="45.08756" lon="5.55489">
        <ele>976</ele>
        <time>2016-09-11T12:47:02Z</time>
      </trkpt>
      <trkpt lat="45.08761" lon="5.5549">
        <ele>976</ele>
        <time>2016-09-11T12:47:03Z</time>
      </trkpt>
      <trkpt lat="45.08768" lon="5.55492">
        <ele>975</ele>
        <time>2016-09-11T12:47:04Z</time>
      </trkpt>
      <trkpt lat="45.08773" lon="5.55493">
        <ele>975</ele>
        <time>2016-09-11T12:47:05Z</time>
      </trkpt>
      <trkpt lat="45.08778" lon="5.55495">
        <ele>975</ele>
        <time>2016-09-11T12:47:06Z</time>
      </trkpt>
      <trkpt lat="45.08784" lon="5.55497">
        <ele>976</ele>
        <time>2016-09-11T12:47:07Z</time>
      </trkpt>
      <trkpt lat="45.08789" lon="5.55498">
        <ele>976</ele>
        <time>2016-09-11T12:47:08Z</time>
      </trkpt>
      <trkpt lat="45.08794" lon="5.555">
        <ele>975</ele>
        <time>2016-09-11T12:47:09Z</time>
      </trkpt>
      <trkpt lat="45.088" lon="5.55501">
        <ele>975</ele>
        <time>2016-09-11T12:47:10Z</time>
      </trkpt>
      <trkpt lat="45.08806" lon="5.55503">
        <ele>975</ele>
        <time>2016-09-11T12:47:11Z</time>
      </trkpt>
      <trkpt lat="45.08812" lon="5.55505">
        <ele>975</ele>
        <time>2016-09-11T12:47:12Z</time>
      </trkpt>
      <trkpt lat="45.08817" lon="5.55506">
        <ele>975</ele>
        <time>2016-09-11T12:47:13Z</time>
      </trkpt>
      <trkpt lat="45.08822" lon="5.55507">
        <ele>976</ele>
        <time>2016-09-11T12:47:14Z</time>
      </trkpt>
      <trkpt lat="45.08828" lon="5.55509">
        <ele>976</ele>
        <time>2016-09-11T12:47:15Z</time>
      </trkpt>
      <trkpt lat="45.08833" lon="5.5551">
        <ele>975</ele>
        <time>2016-09-11T12:47:16Z</time>
      </trkpt>
      <trkpt lat="45.08838" lon="5.55512">
        <ele>975</ele>
        <time>2016-09-11T12:47:17Z</time>
      </trkpt>
      <trkpt lat="45.08843" lon="5.55513">
        <ele>975</ele>
        <time>2016-09-11T12:47:18Z</time>
      </trkpt>
      <trkpt lat="45.08848" lon="5.55515">
        <ele>975</ele>
        <time>2016-09-11T12:47:19Z</time>
      </trkpt>
      <trkpt lat="45.08853" lon="5.55516">
        <ele>975</ele>
        <time>2016-09-11T12:47:20Z</time>
      </trkpt>
      <trkpt lat="45.08858" lon="5.55517">
        <ele>976</ele>
        <time>2016-09-11T12:47:21Z</time>
      </trkpt>
      <trkpt lat="45.08863" lon="5.55519">
        <ele>976</ele>
        <time>2016-09-11T12:47:22Z</time>
      </trkpt>
      <trkpt lat="45.08868" lon="5.55521">
        <ele>976</ele>
        <time>2016-09-11T12:47:23Z</time>
      </trkpt>
      <trkpt lat="45.08873" lon="5.55524">
        <ele>976</ele>
        <time>2016-09-11T12:47:24Z</time>
      </trkpt>
      <trkpt lat="45.08879" lon="5.55525">
        <ele>976</ele>
        <time>2016-09-11T12:47:25Z</time>
      </trkpt>
      <trkpt lat="45.08884" lon="5.55527">
        <ele>976</ele>
        <time>2016-09-11T12:47:26Z</time>
      </trkpt>
      <trkpt lat="45.08889" lon="5.55528">
        <ele>976</ele>
        <time>2016-09-11T12:47:27Z</time>
      </trkpt>
      <trkpt lat="45.08895" lon="5.55529">
        <ele>977</ele>
        <time>2016-09-11T12:47:28Z</time>
      </trkpt>
      <trkpt lat="45.089" lon="5.55531">
        <ele>977</ele>
        <time>2016-09-11T12:47:29Z</time>
      </trkpt>
      <trkpt lat="45.08905" lon="5.55532">
        <ele>977</ele>
        <time>2016-09-11T12:47:30Z</time>
      </trkpt>
      <trkpt lat="45.0891" lon="5.55533">
        <ele>977</ele>
        <time>2016-09-11T12:47:31Z</time>
      </trkpt>
      <trkpt lat="45.08915" lon="5.55535">
        <ele>977</ele>
        <time>2016-09-11T12:47:32Z</time>
      </trkpt>
      <trkpt lat="45.0892" lon="5.55536">
        <ele>977</ele>
        <time>2016-09-11T12:47:33Z</time>
      </trkpt>
      <trkpt lat="45.08925" lon="5.55536">
        <ele>976</ele>
        <time>2016-09-11T12:47:34Z</time>
      </trkpt>
      <trkpt lat="45.0893" lon="5.55538">
        <ele>976</ele>
        <time>2016-09-11T12:47:35Z</time>
      </trkpt>
      <trkpt lat="45.08935" lon="5.55539">
        <ele>976</ele>
        <time>2016-09-11T12:47:36Z</time>
      </trkpt>
      <trkpt lat="45.0894" lon="5.55541">
        <ele>975</ele>
        <time>2016-09-11T12:47:37Z</time>
      </trkpt>
      <trkpt lat="45.08946" lon="5.55542">
        <ele>975</ele>
        <time>2016-09-11T12:47:38Z</time>
      </trkpt>
      <trkpt lat="45.0895" lon="5.55544">
        <ele>975</ele>
        <time>2016-09-11T12:47:39Z</time>
      </trkpt>
      <trkpt lat="45.08955" lon="5.55545">
        <ele>975</ele>
        <time>2016-09-11T12:47:40Z</time>
      </trkpt>
      <trkpt lat="45.0896" lon="5.55546">
        <ele>975</ele>
        <time>2016-09-11T12:47:41Z</time>
      </trkpt>
      <trkpt lat="45.08965" lon="5.55548">
        <ele>975</ele>
        <time>2016-09-11T12:47:42Z</time>
      </trkpt>
      <trkpt lat="45.0897" lon="5.5555">
        <ele>976</ele>
        <time>2016-09-11T12:47:43Z</time>
      </trkpt>
      <trkpt lat="45.08976" lon="5.55553">
        <ele>976</ele>
        <time>2016-09-11T12:47:44Z</time>
      </trkpt>
      <trkpt lat="45.08981" lon="5.55555">
        <ele>976</ele>
        <time>2016-09-11T12:47:45Z</time>
      </trkpt>
      <trkpt lat="45.08985" lon="5.55557">
        <ele>976</ele>
        <time>2016-09-11T12:47:46Z</time>
      </trkpt>
      <trkpt lat="45.0899" lon="5.5556">
        <ele>976</ele>
        <time>2016-09-11T12:47:47Z</time>
      </trkpt>
      <trkpt lat="45.08994" lon="5.55563">
        <ele>976</ele>
        <time>2016-09-11T12:47:48Z</time>
      </trkpt>
      <trkpt lat="45.08999" lon="5.55572">
        <ele>976</ele>
        <time>2016-09-11T12:47:50Z</time>
      </trkpt>
      <trkpt lat="45.09003" lon="5.55583">
        <ele>975</ele>
        <time>2016-09-11T12:47:52Z</time>
      </trkpt>
      <trkpt lat="45.09011" lon="5.5559">
        <ele>974</ele>
        <time>2016-09-11T12:47:54Z</time>
      </trkpt>
      <trkpt lat="45.09015" lon="5.55591">
        <ele>973</ele>
        <time>2016-09-11T12:47:55Z</time>
      </trkpt>
      <trkpt lat="45.0902" lon="5.5559">
        <ele>973</ele>
        <time>2016-09-11T12:47:56Z</time>
      </trkpt>
      <trkpt lat="45.09025" lon="5.55587">
        <ele>972</ele>
        <time>2016-09-11T12:47:57Z</time>
      </trkpt>
      <trkpt lat="45.09029" lon="5.55584">
        <ele>972</ele>
        <time>2016-09-11T12:47:58Z</time>
      </trkpt>
      <trkpt lat="45.09034" lon="5.55581">
        <ele>972</ele>
        <time>2016-09-11T12:47:59Z</time>
      </trkpt>
      <trkpt lat="45.09039" lon="5.55579">
        <ele>972</ele>
        <time>2016-09-11T12:48:00Z</time>
      </trkpt>
      <trkpt lat="45.09044" lon="5.55578">
        <ele>972</ele>
        <time>2016-09-11T12:48:01Z</time>
      </trkpt>
      <trkpt lat="45.0905" lon="5.55578">
        <ele>972</ele>
        <time>2016-09-11T12:48:02Z</time>
      </trkpt>
      <trkpt lat="45.09056" lon="5.55578">
        <ele>972</ele>
        <time>2016-09-11T12:48:03Z</time>
      </trkpt>
      <trkpt lat="45.09061" lon="5.55579">
        <ele>972</ele>
        <time>2016-09-11T12:48:04Z</time>
      </trkpt>
      <trkpt lat="45.09068" lon="5.5558">
        <ele>972</ele>
        <time>2016-09-11T12:48:05Z</time>
      </trkpt>
      <trkpt lat="45.09073" lon="5.55581">
        <ele>973</ele>
        <time>2016-09-11T12:48:06Z</time>
      </trkpt>
      <trkpt lat="45.09079" lon="5.55582">
        <ele>973</ele>
        <time>2016-09-11T12:48:07Z</time>
      </trkpt>
      <trkpt lat="45.09085" lon="5.55582">
        <ele>973</ele>
        <time>2016-09-11T12:48:08Z</time>
      </trkpt>
      <trkpt lat="45.0909" lon="5.55583">
        <ele>972</ele>
        <time>2016-09-11T12:48:09Z</time>
      </trkpt>
      <trkpt lat="45.09096" lon="5.55585">
        <ele>972</ele>
        <time>2016-09-11T12:48:10Z</time>
      </trkpt>
      <trkpt lat="45.09102" lon="5.55587">
        <ele>972</ele>
        <time>2016-09-11T12:48:11Z</time>
      </trkpt>
      <trkpt lat="45.09108" lon="5.55588">
        <ele>972</ele>
        <time>2016-09-11T12:48:12Z</time>
      </trkpt>
      <trkpt lat="45.09114" lon="5.55589">
        <ele>972</ele>
        <time>2016-09-11T12:48:13Z</time>
      </trkpt>
      <trkpt lat="45.09119" lon="5.55591">
        <ele>973</ele>
        <time>2016-09-11T12:48:14Z</time>
      </trkpt>
      <trkpt lat="45.09125" lon="5.55592">
        <ele>973</ele>
        <time>2016-09-11T12:48:15Z</time>
      </trkpt>
      <trkpt lat="45.09131" lon="5.55593">
        <ele>973</ele>
        <time>2016-09-11T12:48:16Z</time>
      </trkpt>
      <trkpt lat="45.09137" lon="5.55593">
        <ele>973</ele>
        <time>2016-09-11T12:48:17Z</time>
      </trkpt>
      <trkpt lat="45.09142" lon="5.55594">
        <ele>973</ele>
        <time>2016-09-11T12:48:18Z</time>
      </trkpt>
      <trkpt lat="45.09148" lon="5.55596">
        <ele>973</ele>
        <time>2016-09-11T12:48:19Z</time>
      </trkpt>
      <trkpt lat="45.09153" lon="5.55597">
        <ele>973</ele>
        <time>2016-09-11T12:48:20Z</time>
      </trkpt>
      <trkpt lat="45.09158" lon="5.55598">
        <ele>973</ele>
        <time>2016-09-11T12:48:21Z</time>
      </trkpt>
      <trkpt lat="45.09164" lon="5.556">
        <ele>973</ele>
        <time>2016-09-11T12:48:22Z</time>
      </trkpt>
      <trkpt lat="45.09169" lon="5.556">
        <ele>974</ele>
        <time>2016-09-11T12:48:23Z</time>
      </trkpt>
      <trkpt lat="45.09175" lon="5.55602">
        <ele>974</ele>
        <time>2016-09-11T12:48:24Z</time>
      </trkpt>
      <trkpt lat="45.09181" lon="5.55603">
        <ele>974</ele>
        <time>2016-09-11T12:48:25Z</time>
      </trkpt>
      <trkpt lat="45.09186" lon="5.55604">
        <ele>974</ele>
        <time>2016-09-11T12:48:26Z</time>
      </trkpt>
      <trkpt lat="45.09191" lon="5.55605">
        <ele>974</ele>
        <time>2016-09-11T12:48:27Z</time>
      </trkpt>
      <trkpt lat="45.09197" lon="5.55607">
        <ele>974</ele>
        <time>2016-09-11T12:48:28Z</time>
      </trkpt>
      <trkpt lat="45.09202" lon="5.55609">
        <ele>974</ele>
        <time>2016-09-11T12:48:29Z</time>
      </trkpt>
      <trkpt lat="45.09208" lon="5.5561">
        <ele>974</ele>
        <time>2016-09-11T12:48:30Z</time>
      </trkpt>
      <trkpt lat="45.09213" lon="5.55611">
        <ele>974</ele>
        <time>2016-09-11T12:48:31Z</time>
      </trkpt>
      <trkpt lat="45.09218" lon="5.55613">
        <ele>974</ele>
        <time>2016-09-11T12:48:32Z</time>
      </trkpt>
      <trkpt lat="45.09224" lon="5.55614">
        <ele>974</ele>
        <time>2016-09-11T12:48:33Z</time>
      </trkpt>
      <trkpt lat="45.09229" lon="5.55616">
        <ele>974</ele>
        <time>2016-09-11T12:48:34Z</time>
      </trkpt>
      <trkpt lat="45.09234" lon="5.55617">
        <ele>974</ele>
        <time>2016-09-11T12:48:35Z</time>
      </trkpt>
      <trkpt lat="45.09238" lon="5.55618">
        <ele>974</ele>
        <time>2016-09-11T12:48:36Z</time>
      </trkpt>
      <trkpt lat="45.09243" lon="5.55619">
        <ele>974</ele>
        <time>2016-09-11T12:48:37Z</time>
      </trkpt>
      <trkpt lat="45.09249" lon="5.5562">
        <ele>974</ele>
        <time>2016-09-11T12:48:38Z</time>
      </trkpt>
      <trkpt lat="45.09254" lon="5.55621">
        <ele>974</ele>
        <time>2016-09-11T12:48:39Z</time>
      </trkpt>
      <trkpt lat="45.09259" lon="5.55623">
        <ele>974</ele>
        <time>2016-09-11T12:48:40Z</time>
      </trkpt>
      <trkpt lat="45.09264" lon="5.55624">
        <ele>974</ele>
        <time>2016-09-11T12:48:41Z</time>
      </trkpt>
      <trkpt lat="45.0927" lon="5.55624">
        <ele>974</ele>
        <time>2016-09-11T12:48:42Z</time>
      </trkpt>
      <trkpt lat="45.09275" lon="5.55625">
        <ele>974</ele>
        <time>2016-09-11T12:48:43Z</time>
      </trkpt>
      <trkpt lat="45.0928" lon="5.55626">
        <ele>974</ele>
        <time>2016-09-11T12:48:44Z</time>
      </trkpt>
      <trkpt lat="45.09285" lon="5.55627">
        <ele>974</ele>
        <time>2016-09-11T12:48:45Z</time>
      </trkpt>
      <trkpt lat="45.09289" lon="5.55629">
        <ele>974</ele>
        <time>2016-09-11T12:48:46Z</time>
      </trkpt>
      <trkpt lat="45.09294" lon="5.5563">
        <ele>974</ele>
        <time>2016-09-11T12:48:47Z</time>
      </trkpt>
      <trkpt lat="45.09299" lon="5.55631">
        <ele>974</ele>
        <time>2016-09-11T12:48:48Z</time>
      </trkpt>
      <trkpt lat="45.09304" lon="5.55632">
        <ele>975</ele>
        <time>2016-09-11T12:48:49Z</time>
      </trkpt>
      <trkpt lat="45.09309" lon="5.55633">
        <ele>975</ele>
        <time>2016-09-11T12:48:50Z</time>
      </trkpt>
      <trkpt lat="45.09318" lon="5.55635">
        <ele>975</ele>
        <time>2016-09-11T12:48:52Z</time>
      </trkpt>
      <trkpt lat="45.09322" lon="5.55637">
        <ele>975</ele>
        <time>2016-09-11T12:48:53Z</time>
      </trkpt>
      <trkpt lat="45.09331" lon="5.55638">
        <ele>976</ele>
        <time>2016-09-11T12:48:55Z</time>
      </trkpt>
      <trkpt lat="45.09339" lon="5.5564">
        <ele>976</ele>
        <time>2016-09-11T12:48:57Z</time>
      </trkpt>
      <trkpt lat="45.09347" lon="5.55642">
        <ele>976</ele>
        <time>2016-09-11T12:48:59Z</time>
      </trkpt>
      <trkpt lat="45.09355" lon="5.55644">
        <ele>976</ele>
        <time>2016-09-11T12:49:01Z</time>
      </trkpt>
      <trkpt lat="45.09363" lon="5.55646">
        <ele>976</ele>
        <time>2016-09-11T12:49:03Z</time>
      </trkpt>
      <trkpt lat="45.0937" lon="5.55648">
        <ele>976</ele>
        <time>2016-09-11T12:49:05Z</time>
      </trkpt>
      <trkpt lat="45.09378" lon="5.5565">
        <ele>976</ele>
        <time>2016-09-11T12:49:07Z</time>
      </trkpt>
      <trkpt lat="45.09386" lon="5.55652">
        <ele>976</ele>
        <time>2016-09-11T12:49:09Z</time>
      </trkpt>
      <trkpt lat="45.09395" lon="5.55654">
        <ele>976</ele>
        <time>2016-09-11T12:49:11Z</time>
      </trkpt>
      <trkpt lat="45.09403" lon="5.55656">
        <ele>976</ele>
        <time>2016-09-11T12:49:13Z</time>
      </trkpt>
      <trkpt lat="45.09408" lon="5.55657">
        <ele>976</ele>
        <time>2016-09-11T12:49:14Z</time>
      </trkpt>
      <trkpt lat="45.09413" lon="5.55658">
        <ele>976</ele>
        <time>2016-09-11T12:49:15Z</time>
      </trkpt>
      <trkpt lat="45.09418" lon="5.55659">
        <ele>976</ele>
        <time>2016-09-11T12:49:16Z</time>
      </trkpt>
      <trkpt lat="45.09423" lon="5.55659">
        <ele>976</ele>
        <time>2016-09-11T12:49:17Z</time>
      </trkpt>
      <trkpt lat="45.09427" lon="5.55661">
        <ele>976</ele>
        <time>2016-09-11T12:49:18Z</time>
      </trkpt>
      <trkpt lat="45.09433" lon="5.55662">
        <ele>976</ele>
        <time>2016-09-11T12:49:19Z</time>
      </trkpt>
      <trkpt lat="45.09438" lon="5.55663">
        <ele>976</ele>
        <time>2016-09-11T12:49:20Z</time>
      </trkpt>
      <trkpt lat="45.09443" lon="5.55664">
        <ele>976</ele>
        <time>2016-09-11T12:49:21Z</time>
      </trkpt>
      <trkpt lat="45.09448" lon="5.55665">
        <ele>977</ele>
        <time>2016-09-11T12:49:22Z</time>
      </trkpt>
      <trkpt lat="45.09453" lon="5.55667">
        <ele>977</ele>
        <time>2016-09-11T12:49:23Z</time>
      </trkpt>
      <trkpt lat="45.09458" lon="5.55668">
        <ele>977</ele>
        <time>2016-09-11T12:49:24Z</time>
      </trkpt>
      <trkpt lat="45.09464" lon="5.55669">
        <ele>977</ele>
        <time>2016-09-11T12:49:25Z</time>
      </trkpt>
      <trkpt lat="45.09469" lon="5.5567">
        <ele>977</ele>
        <time>2016-09-11T12:49:26Z</time>
      </trkpt>
      <trkpt lat="45.09475" lon="5.55671">
        <ele>977</ele>
        <time>2016-09-11T12:49:27Z</time>
      </trkpt>
      <trkpt lat="45.0948" lon="5.55672">
        <ele>977</ele>
        <time>2016-09-11T12:49:28Z</time>
      </trkpt>
      <trkpt lat="45.09485" lon="5.55673">
        <ele>977</ele>
        <time>2016-09-11T12:49:29Z</time>
      </trkpt>
      <trkpt lat="45.09489" lon="5.55674">
        <ele>977</ele>
        <time>2016-09-11T12:49:30Z</time>
      </trkpt>
      <trkpt lat="45.09495" lon="5.55676">
        <ele>977</ele>
        <time>2016-09-11T12:49:31Z</time>
      </trkpt>
      <trkpt lat="45.095" lon="5.55677">
        <ele>977</ele>
        <time>2016-09-11T12:49:32Z</time>
      </trkpt>
      <trkpt lat="45.09505" lon="5.55678">
        <ele>977</ele>
        <time>2016-09-11T12:49:33Z</time>
      </trkpt>
      <trkpt lat="45.09509" lon="5.55678">
        <ele>977</ele>
        <time>2016-09-11T12:49:34Z</time>
      </trkpt>
      <trkpt lat="45.09514" lon="5.5568">
        <ele>977</ele>
        <time>2016-09-11T12:49:35Z</time>
      </trkpt>
      <trkpt lat="45.09523" lon="5.55682">
        <ele>978</ele>
        <time>2016-09-11T12:49:37Z</time>
      </trkpt>
      <trkpt lat="45.09531" lon="5.55684">
        <ele>978</ele>
        <time>2016-09-11T12:49:39Z</time>
      </trkpt>
      <trkpt lat="45.09536" lon="5.55686">
        <ele>978</ele>
        <time>2016-09-11T12:49:40Z</time>
      </trkpt>
      <trkpt lat="45.09544" lon="5.55688">
        <ele>978</ele>
        <time>2016-09-11T12:49:42Z</time>
      </trkpt>
      <trkpt lat="45.09549" lon="5.55688">
        <ele>978</ele>
        <time>2016-09-11T12:49:43Z</time>
      </trkpt>
      <trkpt lat="45.09558" lon="5.5569">
        <ele>978</ele>
        <time>2016-09-11T12:49:45Z</time>
      </trkpt>
      <trkpt lat="45.09562" lon="5.55692">
        <ele>978</ele>
        <time>2016-09-11T12:49:46Z</time>
      </trkpt>
      <trkpt lat="45.09567" lon="5.55693">
        <ele>978</ele>
        <time>2016-09-11T12:49:47Z</time>
      </trkpt>
      <trkpt lat="45.09572" lon="5.55694">
        <ele>979</ele>
        <time>2016-09-11T12:49:48Z</time>
      </trkpt>
      <trkpt lat="45.09581" lon="5.55696">
        <ele>979</ele>
        <time>2016-09-11T12:49:50Z</time>
      </trkpt>
      <trkpt lat="45.09585" lon="5.55697">
        <ele>979</ele>
        <time>2016-09-11T12:49:51Z</time>
      </trkpt>
      <trkpt lat="45.09594" lon="5.55699">
        <ele>979</ele>
        <time>2016-09-11T12:49:53Z</time>
      </trkpt>
      <trkpt lat="45.09598" lon="5.557">
        <ele>979</ele>
        <time>2016-09-11T12:49:54Z</time>
      </trkpt>
      <trkpt lat="45.09603" lon="5.55702">
        <ele>979</ele>
        <time>2016-09-11T12:49:55Z</time>
      </trkpt>
      <trkpt lat="45.09608" lon="5.55703">
        <ele>980</ele>
        <time>2016-09-11T12:49:56Z</time>
      </trkpt>
      <trkpt lat="45.09613" lon="5.55705">
        <ele>980</ele>
        <time>2016-09-11T12:49:57Z</time>
      </trkpt>
      <trkpt lat="45.09618" lon="5.55707">
        <ele>980</ele>
        <time>2016-09-11T12:49:58Z</time>
      </trkpt>
      <trkpt lat="45.09623" lon="5.55709">
        <ele>980</ele>
        <time>2016-09-11T12:49:59Z</time>
      </trkpt>
      <trkpt lat="45.09628" lon="5.5571">
        <ele>980</ele>
        <time>2016-09-11T12:50:00Z</time>
      </trkpt>
      <trkpt lat="45.09633" lon="5.55711">
        <ele>980</ele>
        <time>2016-09-11T12:50:01Z</time>
      </trkpt>
      <trkpt lat="45.09641" lon="5.55715">
        <ele>981</ele>
        <time>2016-09-11T12:50:03Z</time>
      </trkpt>
      <trkpt lat="45.09646" lon="5.55717">
        <ele>981</ele>
        <time>2016-09-11T12:50:04Z</time>
      </trkpt>
      <trkpt lat="45.0965" lon="5.55718">
        <ele>981</ele>
        <time>2016-09-11T12:50:05Z</time>
      </trkpt>
      <trkpt lat="45.09655" lon="5.55721">
        <ele>981</ele>
        <time>2016-09-11T12:50:06Z</time>
      </trkpt>
      <trkpt lat="45.0966" lon="5.55722">
        <ele>982</ele>
        <time>2016-09-11T12:50:07Z</time>
      </trkpt>
      <trkpt lat="45.09668" lon="5.55725">
        <ele>982</ele>
        <time>2016-09-11T12:50:09Z</time>
      </trkpt>
      <trkpt lat="45.09672" lon="5.55727">
        <ele>982</ele>
        <time>2016-09-11T12:50:10Z</time>
      </trkpt>
      <trkpt lat="45.0968" lon="5.55731">
        <ele>983</ele>
        <time>2016-09-11T12:50:12Z</time>
      </trkpt>
      <trkpt lat="45.09689" lon="5.55734">
        <ele>984</ele>
        <time>2016-09-11T12:50:14Z</time>
      </trkpt>
      <trkpt lat="45.09694" lon="5.55735">
        <ele>984</ele>
        <time>2016-09-11T12:50:15Z</time>
      </trkpt>
      <trkpt lat="45.09701" lon="5.55737">
        <ele>985</ele>
        <time>2016-09-11T12:50:17Z</time>
      </trkpt>
      <trkpt lat="45.09709" lon="5.55741">
        <ele>985</ele>
        <time>2016-09-11T12:50:19Z</time>
      </trkpt>
      <trkpt lat="45.09715" lon="5.55744">
        <ele>985</ele>
        <time>2016-09-11T12:50:21Z</time>
      </trkpt>
      <trkpt lat="45.09713" lon="5.55746">
        <ele>984</ele>
        <time>2016-09-11T12:50:36Z</time>
      </trkpt>
      <trkpt lat="45.09713" lon="5.55746">
        <ele>983</ele>
        <time>2016-09-11T12:50:38Z</time>
      </trkpt>
      <trkpt lat="45.09713" lon="5.55746">
        <ele>982</ele>
        <time>2016-09-11T12:51:06Z</time>
      </trkpt>
      <trkpt lat="45.09713" lon="5.55746">
        <ele>981</ele>
        <time>2016-09-11T12:51:09Z</time>
      </trkpt>
      <trkpt lat="45.09713" lon="5.55746">
        <ele>981</ele>
        <time>2016-09-11T12:51:36Z</time>
      </trkpt>
      <trkpt lat="45.09713" lon="5.55746">
        <ele>981</ele>
        <time>2016-09-11T12:51:39Z</time>
      </trkpt>
      <trkpt lat="45.09719" lon="5.55745">
        <ele>981</ele>
        <time>2016-09-11T12:52:05Z</time>
      </trkpt>
      <trkpt lat="45.09721" lon="5.55739">
        <ele>982</ele>
        <time>2016-09-11T12:52:07Z</time>
      </trkpt>
      <trkpt lat="45.09717" lon="5.55732">
        <ele>982</ele>
        <time>2016-09-11T12:52:09Z</time>
      </trkpt>
      <trkpt lat="45.09709" lon="5.5573">
        <ele>983</ele>
        <time>2016-09-11T12:52:11Z</time>
      </trkpt>
      <trkpt lat="45.09701" lon="5.55729">
        <ele>983</ele>
        <time>2016-09-11T12:52:13Z</time>
      </trkpt>
      <trkpt lat="45.09696" lon="5.55728">
        <ele>983</ele>
        <time>2016-09-11T12:52:14Z</time>
      </trkpt>
      <trkpt lat="45.09691" lon="5.55727">
        <ele>983</ele>
        <time>2016-09-11T12:52:15Z</time>
      </trkpt>
      <trkpt lat="45.09686" lon="5.55726">
        <ele>983</ele>
        <time>2016-09-11T12:52:16Z</time>
      </trkpt>
      <trkpt lat="45.09681" lon="5.55727">
        <ele>983</ele>
        <time>2016-09-11T12:52:17Z</time>
      </trkpt>
      <trkpt lat="45.09676" lon="5.55725">
        <ele>982</ele>
        <time>2016-09-11T12:52:18Z</time>
      </trkpt>
      <trkpt lat="45.0967" lon="5.55722">
        <ele>982</ele>
        <time>2016-09-11T12:52:19Z</time>
      </trkpt>
      <trkpt lat="45.09664" lon="5.5572">
        <ele>981</ele>
        <time>2016-09-11T12:52:20Z</time>
      </trkpt>
      <trkpt lat="45.09658" lon="5.55717">
        <ele>981</ele>
        <time>2016-09-11T12:52:21Z</time>
      </trkpt>
      <trkpt lat="45.09652" lon="5.55715">
        <ele>981</ele>
        <time>2016-09-11T12:52:22Z</time>
      </trkpt>
      <trkpt lat="45.09646" lon="5.55712">
        <ele>981</ele>
        <time>2016-09-11T12:52:23Z</time>
      </trkpt>
      <trkpt lat="45.09639" lon="5.5571">
        <ele>981</ele>
        <time>2016-09-11T12:52:24Z</time>
      </trkpt>
      <trkpt lat="45.09633" lon="5.55707">
        <ele>981</ele>
        <time>2016-09-11T12:52:25Z</time>
      </trkpt>
      <trkpt lat="45.09626" lon="5.55704">
        <ele>981</ele>
        <time>2016-09-11T12:52:26Z</time>
      </trkpt>
      <trkpt lat="45.0962" lon="5.55702">
        <ele>981</ele>
        <time>2016-09-11T12:52:27Z</time>
      </trkpt>
      <trkpt lat="45.09613" lon="5.557">
        <ele>981</ele>
        <time>2016-09-11T12:52:28Z</time>
      </trkpt>
      <trkpt lat="45.09606" lon="5.55699">
        <ele>980</ele>
        <time>2016-09-11T12:52:29Z</time>
      </trkpt>
      <trkpt lat="45.096" lon="5.55698">
        <ele>980</ele>
        <time>2016-09-11T12:52:30Z</time>
      </trkpt>
      <trkpt lat="45.09593" lon="5.55697">
        <ele>979</ele>
        <time>2016-09-11T12:52:31Z</time>
      </trkpt>
      <trkpt lat="45.09586" lon="5.55695">
        <ele>979</ele>
        <time>2016-09-11T12:52:32Z</time>
      </trkpt>
      <trkpt lat="45.09579" lon="5.55694">
        <ele>978</ele>
        <time>2016-09-11T12:52:33Z</time>
      </trkpt>
      <trkpt lat="45.09572" lon="5.55693">
        <ele>977</ele>
        <time>2016-09-11T12:52:34Z</time>
      </trkpt>
      <trkpt lat="45.09563" lon="5.5569">
        <ele>976</ele>
        <time>2016-09-11T12:52:35Z</time>
      </trkpt>
      <trkpt lat="45.09555" lon="5.55688">
        <ele>975</ele>
        <time>2016-09-11T12:52:36Z</time>
      </trkpt>
      <trkpt lat="45.09547" lon="5.55686">
        <ele>975</ele>
        <time>2016-09-11T12:52:37Z</time>
      </trkpt>
      <trkpt lat="45.09539" lon="5.55683">
        <ele>975</ele>
        <time>2016-09-11T12:52:38Z</time>
      </trkpt>
      <trkpt lat="45.09531" lon="5.55681">
        <ele>975</ele>
        <time>2016-09-11T12:52:39Z</time>
      </trkpt>
      <trkpt lat="45.09523" lon="5.55679">
        <ele>975</ele>
        <time>2016-09-11T12:52:40Z</time>
      </trkpt>
      <trkpt lat="45.09514" lon="5.55677">
        <ele>974</ele>
        <time>2016-09-11T12:52:41Z</time>
      </trkpt>
      <trkpt lat="45.09506" lon="5.55675">
        <ele>974</ele>
        <time>2016-09-11T12:52:42Z</time>
      </trkpt>
      <trkpt lat="45.09498" lon="5.55673">
        <ele>974</ele>
        <time>2016-09-11T12:52:43Z</time>
      </trkpt>
      <trkpt lat="45.09489" lon="5.55671">
        <ele>974</ele>
        <time>2016-09-11T12:52:44Z</time>
      </trkpt>
      <trkpt lat="45.09481" lon="5.55669">
        <ele>974</ele>
        <time>2016-09-11T12:52:45Z</time>
      </trkpt>
      <trkpt lat="45.09473" lon="5.55669">
        <ele>974</ele>
        <time>2016-09-11T12:52:46Z</time>
      </trkpt>
      <trkpt lat="45.09465" lon="5.55668">
        <ele>973</ele>
        <time>2016-09-11T12:52:47Z</time>
      </trkpt>
      <trkpt lat="45.09457" lon="5.55667">
        <ele>973</ele>
        <time>2016-09-11T12:52:48Z</time>
      </trkpt>
      <trkpt lat="45.09449" lon="5.55664">
        <ele>972</ele>
        <time>2016-09-11T12:52:49Z</time>
      </trkpt>
      <trkpt lat="45.09441" lon="5.55663">
        <ele>972</ele>
        <time>2016-09-11T12:52:50Z</time>
      </trkpt>
      <trkpt lat="45.09433" lon="5.55661">
        <ele>971</ele>
        <time>2016-09-11T12:52:51Z</time>
      </trkpt>
      <trkpt lat="45.09426" lon="5.55658">
        <ele>971</ele>
        <time>2016-09-11T12:52:52Z</time>
      </trkpt>
      <trkpt lat="45.09418" lon="5.55656">
        <ele>971</ele>
        <time>2016-09-11T12:52:53Z</time>
      </trkpt>
      <trkpt lat="45.09411" lon="5.55655">
        <ele>970</ele>
        <time>2016-09-11T12:52:54Z</time>
      </trkpt>
      <trkpt lat="45.09403" lon="5.55654">
        <ele>970</ele>
        <time>2016-09-11T12:52:55Z</time>
      </trkpt>
      <trkpt lat="45.09396" lon="5.55652">
        <ele>970</ele>
        <time>2016-09-11T12:52:56Z</time>
      </trkpt>
      <trkpt lat="45.09388" lon="5.5565">
        <ele>970</ele>
        <time>2016-09-11T12:52:57Z</time>
      </trkpt>
      <trkpt lat="45.09381" lon="5.55648">
        <ele>969</ele>
        <time>2016-09-11T12:52:58Z</time>
      </trkpt>
      <trkpt lat="45.09374" lon="5.55646">
        <ele>969</ele>
        <time>2016-09-11T12:52:59Z</time>
      </trkpt>
      <trkpt lat="45.09367" lon="5.55645">
        <ele>969</ele>
        <time>2016-09-11T12:53:00Z</time>
      </trkpt>
      <trkpt lat="45.09359" lon="5.55644">
        <ele>969</ele>
        <time>2016-09-11T12:53:01Z</time>
      </trkpt>
      <trkpt lat="45.09352" lon="5.55642">
        <ele>968</ele>
        <time>2016-09-11T12:53:02Z</time>
      </trkpt>
      <trkpt lat="45.09345" lon="5.55641">
        <ele>967</ele>
        <time>2016-09-11T12:53:03Z</time>
      </trkpt>
      <trkpt lat="45.09337" lon="5.55639">
        <ele>967</ele>
        <time>2016-09-11T12:53:04Z</time>
      </trkpt>
      <trkpt lat="45.09328" lon="5.55637">
        <ele>966</ele>
        <time>2016-09-11T12:53:05Z</time>
      </trkpt>
      <trkpt lat="45.09319" lon="5.55634">
        <ele>966</ele>
        <time>2016-09-11T12:53:06Z</time>
      </trkpt>
      <trkpt lat="45.09311" lon="5.55632">
        <ele>966</ele>
        <time>2016-09-11T12:53:07Z</time>
      </trkpt>
      <trkpt lat="45.09302" lon="5.5563">
        <ele>966</ele>
        <time>2016-09-11T12:53:08Z</time>
      </trkpt>
      <trkpt lat="45.09293" lon="5.55628">
        <ele>966</ele>
        <time>2016-09-11T12:53:09Z</time>
      </trkpt>
      <trkpt lat="45.09285" lon="5.55626">
        <ele>967</ele>
        <time>2016-09-11T12:53:10Z</time>
      </trkpt>
      <trkpt lat="45.09275" lon="5.55623">
        <ele>967</ele>
        <time>2016-09-11T12:53:11Z</time>
      </trkpt>
      <trkpt lat="45.09266" lon="5.55621">
        <ele>967</ele>
        <time>2016-09-11T12:53:12Z</time>
      </trkpt>
      <trkpt lat="45.09256" lon="5.55619">
        <ele>967</ele>
        <time>2016-09-11T12:53:13Z</time>
      </trkpt>
      <trkpt lat="45.09246" lon="5.55617">
        <ele>967</ele>
        <time>2016-09-11T12:53:14Z</time>
      </trkpt>
      <trkpt lat="45.09237" lon="5.55614">
        <ele>968</ele>
        <time>2016-09-11T12:53:15Z</time>
      </trkpt>
      <trkpt lat="45.09228" lon="5.55611">
        <ele>968</ele>
        <time>2016-09-11T12:53:16Z</time>
      </trkpt>
      <trkpt lat="45.09219" lon="5.55609">
        <ele>968</ele>
        <time>2016-09-11T12:53:17Z</time>
      </trkpt>
      <trkpt lat="45.0921" lon="5.55608">
        <ele>968</ele>
        <time>2016-09-11T12:53:18Z</time>
      </trkpt>
      <trkpt lat="45.09201" lon="5.55607">
        <ele>968</ele>
        <time>2016-09-11T12:53:19Z</time>
      </trkpt>
      <trkpt lat="45.09193" lon="5.55605">
        <ele>968</ele>
        <time>2016-09-11T12:53:20Z</time>
      </trkpt>
      <trkpt lat="45.09184" lon="5.55603">
        <ele>967</ele>
        <time>2016-09-11T12:53:21Z</time>
      </trkpt>
      <trkpt lat="45.09175" lon="5.556">
        <ele>967</ele>
        <time>2016-09-11T12:53:22Z</time>
      </trkpt>
      <trkpt lat="45.09166" lon="5.55597">
        <ele>967</ele>
        <time>2016-09-11T12:53:23Z</time>
      </trkpt>
      <trkpt lat="45.09158" lon="5.55595">
        <ele>967</ele>
        <time>2016-09-11T12:53:24Z</time>
      </trkpt>
      <trkpt lat="45.0915" lon="5.55594">
        <ele>967</ele>
        <time>2016-09-11T12:53:25Z</time>
      </trkpt>
      <trkpt lat="45.09142" lon="5.55593">
        <ele>967</ele>
        <time>2016-09-11T12:53:26Z</time>
      </trkpt>
      <trkpt lat="45.09134" lon="5.55591">
        <ele>967</ele>
        <time>2016-09-11T12:53:27Z</time>
      </trkpt>
      <trkpt lat="45.09127" lon="5.5559">
        <ele>967</ele>
        <time>2016-09-11T12:53:28Z</time>
      </trkpt>
      <trkpt lat="45.09119" lon="5.55589">
        <ele>966</ele>
        <time>2016-09-11T12:53:29Z</time>
      </trkpt>
      <trkpt lat="45.09111" lon="5.55588">
        <ele>965</ele>
        <time>2016-09-11T12:53:30Z</time>
      </trkpt>
      <trkpt lat="45.09103" lon="5.55586">
        <ele>965</ele>
        <time>2016-09-11T12:53:31Z</time>
      </trkpt>
      <trkpt lat="45.09095" lon="5.55584">
        <ele>964</ele>
        <time>2016-09-11T12:53:32Z</time>
      </trkpt>
      <trkpt lat="45.09088" lon="5.55582">
        <ele>964</ele>
        <time>2016-09-11T12:53:33Z</time>
      </trkpt>
      <trkpt lat="45.09081" lon="5.5558">
        <ele>964</ele>
        <time>2016-09-11T12:53:34Z</time>
      </trkpt>
      <trkpt lat="45.09074" lon="5.55578">
        <ele>964</ele>
        <time>2016-09-11T12:53:35Z</time>
      </trkpt>
      <trkpt lat="45.09068" lon="5.55576">
        <ele>964</ele>
        <time>2016-09-11T12:53:36Z</time>
      </trkpt>
      <trkpt lat="45.09061" lon="5.55573">
        <ele>963</ele>
        <time>2016-09-11T12:53:37Z</time>
      </trkpt>
      <trkpt lat="45.09056" lon="5.5557">
        <ele>963</ele>
        <time>2016-09-11T12:53:38Z</time>
      </trkpt>
      <trkpt lat="45.0905" lon="5.55566">
        <ele>964</ele>
        <time>2016-09-11T12:53:39Z</time>
      </trkpt>
      <trkpt lat="45.09046" lon="5.55563">
        <ele>964</ele>
        <time>2016-09-11T12:53:40Z</time>
      </trkpt>
      <trkpt lat="45.0904" lon="5.55555">
        <ele>964</ele>
        <time>2016-09-11T12:53:42Z</time>
      </trkpt>
      <trkpt lat="45.09036" lon="5.55547">
        <ele>965</ele>
        <time>2016-09-11T12:53:44Z</time>
      </trkpt>
      <trkpt lat="45.09032" lon="5.55542">
        <ele>966</ele>
        <time>2016-09-11T12:53:49Z</time>
      </trkpt>
      <trkpt lat="45.09028" lon="5.55539">
        <ele>967</ele>
        <time>2016-09-11T12:54:01Z</time>
      </trkpt>
      <trkpt lat="45.09022" lon="5.55535">
        <ele>969</ele>
        <time>2016-09-11T12:54:04Z</time>
      </trkpt>
      <trkpt lat="45.09014" lon="5.55535">
        <ele>970</ele>
        <time>2016-09-11T12:54:06Z</time>
      </trkpt>
      <trkpt lat="45.09006" lon="5.55537">
        <ele>971</ele>
        <time>2016-09-11T12:54:08Z</time>
      </trkpt>
      <trkpt lat="45.09" lon="5.55542">
        <ele>972</ele>
        <time>2016-09-11T12:54:09Z</time>
      </trkpt>
      <trkpt lat="45.08995" lon="5.55544">
        <ele>973</ele>
        <time>2016-09-11T12:54:10Z</time>
      </trkpt>
      <trkpt lat="45.0899" lon="5.55544">
        <ele>973</ele>
        <time>2016-09-11T12:54:11Z</time>
      </trkpt>
      <trkpt lat="45.08984" lon="5.55544">
        <ele>973</ele>
        <time>2016-09-11T12:54:12Z</time>
      </trkpt>
      <trkpt lat="45.08978" lon="5.55543">
        <ele>973</ele>
        <time>2016-09-11T12:54:13Z</time>
      </trkpt>
      <trkpt lat="45.08972" lon="5.55543">
        <ele>974</ele>
        <time>2016-09-11T12:54:14Z</time>
      </trkpt>
      <trkpt lat="45.08966" lon="5.55541">
        <ele>974</ele>
        <time>2016-09-11T12:54:15Z</time>
      </trkpt>
      <trkpt lat="45.08959" lon="5.5554">
        <ele>974</ele>
        <time>2016-09-11T12:54:16Z</time>
      </trkpt>
      <trkpt lat="45.08953" lon="5.55539">
        <ele>974</ele>
        <time>2016-09-11T12:54:17Z</time>
      </trkpt>
      <trkpt lat="45.08946" lon="5.55538">
        <ele>974</ele>
        <time>2016-09-11T12:54:18Z</time>
      </trkpt>
      <trkpt lat="45.0894" lon="5.55536">
        <ele>974</ele>
        <time>2016-09-11T12:54:19Z</time>
      </trkpt>
      <trkpt lat="45.08933" lon="5.55534">
        <ele>974</ele>
        <time>2016-09-11T12:54:20Z</time>
      </trkpt>
      <trkpt lat="45.08926" lon="5.55532">
        <ele>975</ele>
        <time>2016-09-11T12:54:21Z</time>
      </trkpt>
      <trkpt lat="45.08918" lon="5.5553">
        <ele>975</ele>
        <time>2016-09-11T12:54:22Z</time>
      </trkpt>
      <trkpt lat="45.08911" lon="5.55527">
        <ele>975</ele>
        <time>2016-09-11T12:54:23Z</time>
      </trkpt>
      <trkpt lat="45.08904" lon="5.55525">
        <ele>975</ele>
        <time>2016-09-11T12:54:24Z</time>
      </trkpt>
      <trkpt lat="45.08897" lon="5.55523">
        <ele>975</ele>
        <time>2016-09-11T12:54:25Z</time>
      </trkpt>
      <trkpt lat="45.0889" lon="5.55521">
        <ele>975</ele>
        <time>2016-09-11T12:54:26Z</time>
      </trkpt>
      <trkpt lat="45.08883" lon="5.55519">
        <ele>975</ele>
        <time>2016-09-11T12:54:27Z</time>
      </trkpt>
      <trkpt lat="45.08875" lon="5.55516">
        <ele>975</ele>
        <time>2016-09-11T12:54:28Z</time>
      </trkpt>
      <trkpt lat="45.08868" lon="5.55514">
        <ele>975</ele>
        <time>2016-09-11T12:54:29Z</time>
      </trkpt>
      <trkpt lat="45.0886" lon="5.55512">
        <ele>975</ele>
        <time>2016-09-11T12:54:30Z</time>
      </trkpt>
      <trkpt lat="45.08853" lon="5.5551">
        <ele>975</ele>
        <time>2016-09-11T12:54:31Z</time>
      </trkpt>
      <trkpt lat="45.08845" lon="5.55508">
        <ele>975</ele>
        <time>2016-09-11T12:54:32Z</time>
      </trkpt>
      <trkpt lat="45.08838" lon="5.55506">
        <ele>975</ele>
        <time>2016-09-11T12:54:33Z</time>
      </trkpt>
      <trkpt lat="45.08831" lon="5.55504">
        <ele>975</ele>
        <time>2016-09-11T12:54:34Z</time>
      </trkpt>
      <trkpt lat="45.08823" lon="5.55502">
        <ele>975</ele>
        <time>2016-09-11T12:54:35Z</time>
      </trkpt>
      <trkpt lat="45.08815" lon="5.555">
        <ele>975</ele>
        <time>2016-09-11T12:54:36Z</time>
      </trkpt>
      <trkpt lat="45.08808" lon="5.55497">
        <ele>975</ele>
        <time>2016-09-11T12:54:37Z</time>
      </trkpt>
      <trkpt lat="45.08801" lon="5.55496">
        <ele>975</ele>
        <time>2016-09-11T12:54:38Z</time>
      </trkpt>
      <trkpt lat="45.08793" lon="5.55494">
        <ele>975</ele>
        <time>2016-09-11T12:54:39Z</time>
      </trkpt>
      <trkpt lat="45.08785" lon="5.55492">
        <ele>975</ele>
        <time>2016-09-11T12:54:40Z</time>
      </trkpt>
      <trkpt lat="45.08777" lon="5.5549">
        <ele>976</ele>
        <time>2016-09-11T12:54:41Z</time>
      </trkpt>
      <trkpt lat="45.0877" lon="5.55488">
        <ele>976</ele>
        <time>2016-09-11T12:54:42Z</time>
      </trkpt>
      <trkpt lat="45.08763" lon="5.55486">
        <ele>976</ele>
        <time>2016-09-11T12:54:43Z</time>
      </trkpt>
      <trkpt lat="45.08756" lon="5.55484">
        <ele>977</ele>
        <time>2016-09-11T12:54:44Z</time>
      </trkpt>
      <trkpt lat="45.08749" lon="5.55482">
        <ele>977</ele>
        <time>2016-09-11T12:54:45Z</time>
      </trkpt>
      <trkpt lat="45.08742" lon="5.55479">
        <ele>977</ele>
        <time>2016-09-11T12:54:46Z</time>
      </trkpt>
      <trkpt lat="45.08735" lon="5.55478">
        <ele>977</ele>
        <time>2016-09-11T12:54:47Z</time>
      </trkpt>
      <trkpt lat="45.08728" lon="5.55476">
        <ele>977</ele>
        <time>2016-09-11T12:54:48Z</time>
      </trkpt>
      <trkpt lat="45.08722" lon="5.55473">
        <ele>977</ele>
        <time>2016-09-11T12:54:49Z</time>
      </trkpt>
      <trkpt lat="45.08714" lon="5.55471">
        <ele>977</ele>
        <time>2016-09-11T12:54:50Z</time>
      </trkpt>
      <trkpt lat="45.08707" lon="5.55469">
        <ele>977</ele>
        <time>2016-09-11T12:54:51Z</time>
      </trkpt>
      <trkpt lat="45.08701" lon="5.55468">
        <ele>977</ele>
        <time>2016-09-11T12:54:52Z</time>
      </trkpt>
      <trkpt lat="45.08694" lon="5.55466">
        <ele>978</ele>
        <time>2016-09-11T12:54:53Z</time>
      </trkpt>
      <trkpt lat="45.08687" lon="5.55463">
        <ele>978</ele>
        <time>2016-09-11T12:54:54Z</time>
      </trkpt>
      <trkpt lat="45.0868" lon="5.55461">
        <ele>978</ele>
        <time>2016-09-11T12:54:55Z</time>
      </trkpt>
      <trkpt lat="45.08673" lon="5.55459">
        <ele>978</ele>
        <time>2016-09-11T12:54:56Z</time>
      </trkpt>
      <trkpt lat="45.08666" lon="5.55456">
        <ele>978</ele>
        <time>2016-09-11T12:54:57Z</time>
      </trkpt>
      <trkpt lat="45.08659" lon="5.55454">
        <ele>978</ele>
        <time>2016-09-11T12:54:58Z</time>
      </trkpt>
      <trkpt lat="45.08652" lon="5.55451">
        <ele>978</ele>
        <time>2016-09-11T12:54:59Z</time>
      </trkpt>
      <trkpt lat="45.08645" lon="5.55449">
        <ele>977</ele>
        <time>2016-09-11T12:55:00Z</time>
      </trkpt>
      <trkpt lat="45.08637" lon="5.55446">
        <ele>977</ele>
        <time>2016-09-11T12:55:01Z</time>
      </trkpt>
      <trkpt lat="45.08629" lon="5.55444">
        <ele>977</ele>
        <time>2016-09-11T12:55:02Z</time>
      </trkpt>
      <trkpt lat="45.08622" lon="5.55442">
        <ele>977</ele>
        <time>2016-09-11T12:55:03Z</time>
      </trkpt>
      <trkpt lat="45.08615" lon="5.5544">
        <ele>977</ele>
        <time>2016-09-11T12:55:04Z</time>
      </trkpt>
      <trkpt lat="45.08608" lon="5.55438">
        <ele>977</ele>
        <time>2016-09-11T12:55:05Z</time>
      </trkpt>
      <trkpt lat="45.086" lon="5.55435">
        <ele>977</ele>
        <time>2016-09-11T12:55:06Z</time>
      </trkpt>
      <trkpt lat="45.08593" lon="5.55433">
        <ele>977</ele>
        <time>2016-09-11T12:55:07Z</time>
      </trkpt>
      <trkpt lat="45.08586" lon="5.55431">
        <ele>977</ele>
        <time>2016-09-11T12:55:08Z</time>
      </trkpt>
      <trkpt lat="45.08579" lon="5.55428">
        <ele>977</ele>
        <time>2016-09-11T12:55:09Z</time>
      </trkpt>
      <trkpt lat="45.08571" lon="5.55427">
        <ele>977</ele>
        <time>2016-09-11T12:55:10Z</time>
      </trkpt>
      <trkpt lat="45.08564" lon="5.55425">
        <ele>977</ele>
        <time>2016-09-11T12:55:11Z</time>
      </trkpt>
      <trkpt lat="45.08557" lon="5.55422">
        <ele>977</ele>
        <time>2016-09-11T12:55:12Z</time>
      </trkpt>
      <trkpt lat="45.0855" lon="5.5542">
        <ele>977</ele>
        <time>2016-09-11T12:55:13Z</time>
      </trkpt>
      <trkpt lat="45.08543" lon="5.55418">
        <ele>977</ele>
        <time>2016-09-11T12:55:14Z</time>
      </trkpt>
      <trkpt lat="45.08535" lon="5.55416">
        <ele>978</ele>
        <time>2016-09-11T12:55:15Z</time>
      </trkpt>
      <trkpt lat="45.08519" lon="5.55412">
        <ele>978</ele>
        <time>2016-09-11T12:55:17Z</time>
      </trkpt>
      <trkpt lat="45.08512" lon="5.55409">
        <ele>978</ele>
        <time>2016-09-11T12:55:18Z</time>
      </trkpt>
      <trkpt lat="45.08504" lon="5.55407">
        <ele>978</ele>
        <time>2016-09-11T12:55:19Z</time>
      </trkpt>
      <trkpt lat="45.08497" lon="5.55405">
        <ele>978</ele>
        <time>2016-09-11T12:55:20Z</time>
      </trkpt>
      <trkpt lat="45.08488" lon="5.55404">
        <ele>978</ele>
        <time>2016-09-11T12:55:21Z</time>
      </trkpt>
      <trkpt lat="45.08481" lon="5.55403">
        <ele>978</ele>
        <time>2016-09-11T12:55:22Z</time>
      </trkpt>
      <trkpt lat="45.08466" lon="5.554">
        <ele>978</ele>
        <time>2016-09-11T12:55:24Z</time>
      </trkpt>
      <trkpt lat="45.08458" lon="5.55398">
        <ele>978</ele>
        <time>2016-09-11T12:55:25Z</time>
      </trkpt>
      <trkpt lat="45.08451" lon="5.55395">
        <ele>978</ele>
        <time>2016-09-11T12:55:26Z</time>
      </trkpt>
      <trkpt lat="45.08444" lon="5.55393">
        <ele>978</ele>
        <time>2016-09-11T12:55:27Z</time>
      </trkpt>
      <trkpt lat="45.08437" lon="5.55391">
        <ele>978</ele>
        <time>2016-09-11T12:55:28Z</time>
      </trkpt>
      <trkpt lat="45.08429" lon="5.55389">
        <ele>978</ele>
        <time>2016-09-11T12:55:29Z</time>
      </trkpt>
      <trkpt lat="45.08421" lon="5.55387">
        <ele>979</ele>
        <time>2016-09-11T12:55:30Z</time>
      </trkpt>
      <trkpt lat="45.08414" lon="5.55386">
        <ele>979</ele>
        <time>2016-09-11T12:55:31Z</time>
      </trkpt>
      <trkpt lat="45.08407" lon="5.55384">
        <ele>979</ele>
        <time>2016-09-11T12:55:32Z</time>
      </trkpt>
      <trkpt lat="45.08392" lon="5.5538">
        <ele>979</ele>
        <time>2016-09-11T12:55:34Z</time>
      </trkpt>
      <trkpt lat="45.08381" lon="5.55378">
        <ele>979</ele>
        <time>2016-09-11T12:55:36Z</time>
      </trkpt>
      <trkpt lat="45.08374" lon="5.55377">
        <ele>979</ele>
        <time>2016-09-11T12:55:37Z</time>
      </trkpt>
      <trkpt lat="45.08367" lon="5.55376">
        <ele>979</ele>
        <time>2016-09-11T12:55:38Z</time>
      </trkpt>
      <trkpt lat="45.08361" lon="5.55376">
        <ele>979</ele>
        <time>2016-09-11T12:55:39Z</time>
      </trkpt>
      <trkpt lat="45.08355" lon="5.55376">
        <ele>979</ele>
        <time>2016-09-11T12:55:40Z</time>
      </trkpt>
      <trkpt lat="45.08348" lon="5.55377">
        <ele>979</ele>
        <time>2016-09-11T12:55:41Z</time>
      </trkpt>
      <trkpt lat="45.08341" lon="5.55377">
        <ele>979</ele>
        <time>2016-09-11T12:55:42Z</time>
      </trkpt>
      <trkpt lat="45.08334" lon="5.55378">
        <ele>980</ele>
        <time>2016-09-11T12:55:43Z</time>
      </trkpt>
      <trkpt lat="45.08328" lon="5.55379">
        <ele>980</ele>
        <time>2016-09-11T12:55:44Z</time>
      </trkpt>
      <trkpt lat="45.08321" lon="5.5538">
        <ele>981</ele>
        <time>2016-09-11T12:55:45Z</time>
      </trkpt>
      <trkpt lat="45.08314" lon="5.5538">
        <ele>981</ele>
        <time>2016-09-11T12:55:46Z</time>
      </trkpt>
      <trkpt lat="45.08307" lon="5.55381">
        <ele>981</ele>
        <time>2016-09-11T12:55:47Z</time>
      </trkpt>
      <trkpt lat="45.08301" lon="5.55383">
        <ele>981</ele>
        <time>2016-09-11T12:55:48Z</time>
      </trkpt>
      <trkpt lat="45.08294" lon="5.55384">
        <ele>981</ele>
        <time>2016-09-11T12:55:49Z</time>
      </trkpt>
      <trkpt lat="45.08287" lon="5.55385">
        <ele>981</ele>
        <time>2016-09-11T12:55:50Z</time>
      </trkpt>
      <trkpt lat="45.08281" lon="5.55386">
        <ele>981</ele>
        <time>2016-09-11T12:55:51Z</time>
      </trkpt>
      <trkpt lat="45.08275" lon="5.55387">
        <ele>981</ele>
        <time>2016-09-11T12:55:52Z</time>
      </trkpt>
      <trkpt lat="45.08269" lon="5.55387">
        <ele>981</ele>
        <time>2016-09-11T12:55:53Z</time>
      </trkpt>
      <trkpt lat="45.08262" lon="5.55388">
        <ele>981</ele>
        <time>2016-09-11T12:55:54Z</time>
      </trkpt>
      <trkpt lat="45.08257" lon="5.55389">
        <ele>981</ele>
        <time>2016-09-11T12:55:55Z</time>
      </trkpt>
      <trkpt lat="45.0825" lon="5.55389">
        <ele>981</ele>
        <time>2016-09-11T12:55:56Z</time>
      </trkpt>
      <trkpt lat="45.08245" lon="5.5539">
        <ele>981</ele>
        <time>2016-09-11T12:55:57Z</time>
      </trkpt>
      <trkpt lat="45.08239" lon="5.55391">
        <ele>981</ele>
        <time>2016-09-11T12:55:58Z</time>
      </trkpt>
      <trkpt lat="45.08233" lon="5.55392">
        <ele>982</ele>
        <time>2016-09-11T12:55:59Z</time>
      </trkpt>
      <trkpt lat="45.08228" lon="5.55393">
        <ele>982</ele>
        <time>2016-09-11T12:56:00Z</time>
      </trkpt>
      <trkpt lat="45.08223" lon="5.55393">
        <ele>982</ele>
        <time>2016-09-11T12:56:01Z</time>
      </trkpt>
      <trkpt lat="45.08217" lon="5.55394">
        <ele>982</ele>
        <time>2016-09-11T12:56:02Z</time>
      </trkpt>
      <trkpt lat="45.08212" lon="5.55395">
        <ele>982</ele>
        <time>2016-09-11T12:56:03Z</time>
      </trkpt>
      <trkpt lat="45.08207" lon="5.55396">
        <ele>982</ele>
        <time>2016-09-11T12:56:04Z</time>
      </trkpt>
      <trkpt lat="45.08202" lon="5.55396">
        <ele>982</ele>
        <time>2016-09-11T12:56:05Z</time>
      </trkpt>
      <trkpt lat="45.08197" lon="5.55397">
        <ele>983</ele>
        <time>2016-09-11T12:56:06Z</time>
      </trkpt>
      <trkpt lat="45.08192" lon="5.55397">
        <ele>983</ele>
        <time>2016-09-11T12:56:07Z</time>
      </trkpt>
      <trkpt lat="45.08187" lon="5.55398">
        <ele>983</ele>
        <time>2016-09-11T12:56:08Z</time>
      </trkpt>
      <trkpt lat="45.08182" lon="5.55398">
        <ele>983</ele>
        <time>2016-09-11T12:56:09Z</time>
      </trkpt>
      <trkpt lat="45.08176" lon="5.55398">
        <ele>983</ele>
        <time>2016-09-11T12:56:10Z</time>
      </trkpt>
      <trkpt lat="45.08164" lon="5.55396">
        <ele>983</ele>
        <time>2016-09-11T12:56:12Z</time>
      </trkpt>
      <trkpt lat="45.08157" lon="5.55394">
        <ele>984</ele>
        <time>2016-09-11T12:56:13Z</time>
      </trkpt>
      <trkpt lat="45.08151" lon="5.55392">
        <ele>984</ele>
        <time>2016-09-11T12:56:14Z</time>
      </trkpt>
      <trkpt lat="45.08144" lon="5.55389">
        <ele>984</ele>
        <time>2016-09-11T12:56:15Z</time>
      </trkpt>
      <trkpt lat="45.08139" lon="5.55386">
        <ele>985</ele>
        <time>2016-09-11T12:56:16Z</time>
      </trkpt>
      <trkpt lat="45.08132" lon="5.55382">
        <ele>985</ele>
        <time>2016-09-11T12:56:17Z</time>
      </trkpt>
      <trkpt lat="45.08126" lon="5.55378">
        <ele>985</ele>
        <time>2016-09-11T12:56:18Z</time>
      </trkpt>
      <trkpt lat="45.0812" lon="5.55374">
        <ele>985</ele>
        <time>2016-09-11T12:56:19Z</time>
      </trkpt>
      <trkpt lat="45.08114" lon="5.5537">
        <ele>985</ele>
        <time>2016-09-11T12:56:20Z</time>
      </trkpt>
      <trkpt lat="45.08108" lon="5.55365">
        <ele>986</ele>
        <time>2016-09-11T12:56:21Z</time>
      </trkpt>
      <trkpt lat="45.08103" lon="5.55361">
        <ele>986</ele>
        <time>2016-09-11T12:56:22Z</time>
      </trkpt>
      <trkpt lat="45.08098" lon="5.55357">
        <ele>986</ele>
        <time>2016-09-11T12:56:23Z</time>
      </trkpt>
      <trkpt lat="45.08092" lon="5.55353">
        <ele>986</ele>
        <time>2016-09-11T12:56:24Z</time>
      </trkpt>
      <trkpt lat="45.08086" lon="5.55348">
        <ele>986</ele>
        <time>2016-09-11T12:56:25Z</time>
      </trkpt>
      <trkpt lat="45.08081" lon="5.55343">
        <ele>987</ele>
        <time>2016-09-11T12:56:26Z</time>
      </trkpt>
      <trkpt lat="45.08076" lon="5.55339">
        <ele>987</ele>
        <time>2016-09-11T12:56:27Z</time>
      </trkpt>
      <trkpt lat="45.0807" lon="5.55335">
        <ele>987</ele>
        <time>2016-09-11T12:56:28Z</time>
      </trkpt>
      <trkpt lat="45.08064" lon="5.5533">
        <ele>987</ele>
        <time>2016-09-11T12:56:29Z</time>
      </trkpt>
      <trkpt lat="45.08059" lon="5.55327">
        <ele>987</ele>
        <time>2016-09-11T12:56:30Z</time>
      </trkpt>
      <trkpt lat="45.08054" lon="5.55324">
        <ele>987</ele>
        <time>2016-09-11T12:56:31Z</time>
      </trkpt>
      <trkpt lat="45.08048" lon="5.5532">
        <ele>987</ele>
        <time>2016-09-11T12:56:32Z</time>
      </trkpt>
      <trkpt lat="45.08043" lon="5.55317">
        <ele>987</ele>
        <time>2016-09-11T12:56:33Z</time>
      </trkpt>
      <trkpt lat="45.08037" lon="5.55315">
        <ele>987</ele>
        <time>2016-09-11T12:56:34Z</time>
      </trkpt>
      <trkpt lat="45.08031" lon="5.55312">
        <ele>987</ele>
        <time>2016-09-11T12:56:35Z</time>
      </trkpt>
      <trkpt lat="45.08025" lon="5.55309">
        <ele>987</ele>
        <time>2016-09-11T12:56:36Z</time>
      </trkpt>
      <trkpt lat="45.0802" lon="5.55307">
        <ele>987</ele>
        <time>2016-09-11T12:56:37Z</time>
      </trkpt>
      <trkpt lat="45.08014" lon="5.55305">
        <ele>987</ele>
        <time>2016-09-11T12:56:38Z</time>
      </trkpt>
      <trkpt lat="45.08007" lon="5.55304">
        <ele>987</ele>
        <time>2016-09-11T12:56:39Z</time>
      </trkpt>
      <trkpt lat="45.08002" lon="5.55304">
        <ele>986</ele>
        <time>2016-09-11T12:56:40Z</time>
      </trkpt>
      <trkpt lat="45.07996" lon="5.55303">
        <ele>986</ele>
        <time>2016-09-11T12:56:41Z</time>
      </trkpt>
      <trkpt lat="45.0799" lon="5.55303">
        <ele>986</ele>
        <time>2016-09-11T12:56:43Z</time>
      </trkpt>
      <trkpt lat="45.07984" lon="5.55305">
        <ele>985</ele>
        <time>2016-09-11T12:56:45Z</time>
      </trkpt>
      <trkpt lat="45.07979" lon="5.55306">
        <ele>985</ele>
        <time>2016-09-11T12:56:47Z</time>
      </trkpt>
      <trkpt lat="45.07974" lon="5.55308">
        <ele>984</ele>
        <time>2016-09-11T12:56:49Z</time>
      </trkpt>
      <trkpt lat="45.07969" lon="5.5531">
        <ele>984</ele>
        <time>2016-09-11T12:56:51Z</time>
      </trkpt>
      <trkpt lat="45.07964" lon="5.55312">
        <ele>984</ele>
        <time>2016-09-11T12:56:53Z</time>
      </trkpt>
      <trkpt lat="45.07959" lon="5.55315">
        <ele>984</ele>
        <time>2016-09-11T12:56:55Z</time>
      </trkpt>
      <trkpt lat="45.07954" lon="5.55317">
        <ele>984</ele>
        <time>2016-09-11T12:56:57Z</time>
      </trkpt>
      <trkpt lat="45.07949" lon="5.5532">
        <ele>984</ele>
        <time>2016-09-11T12:57:00Z</time>
      </trkpt>
      <trkpt lat="45.07945" lon="5.55323">
        <ele>984</ele>
        <time>2016-09-11T12:57:03Z</time>
      </trkpt>
      <trkpt lat="45.07945" lon="5.55323">
        <ele>984</ele>
        <time>2016-09-11T12:57:21Z</time>
      </trkpt>
      <trkpt lat="45.07945" lon="5.55323">
        <ele>985</ele>
        <time>2016-09-11T12:57:24Z</time>
      </trkpt>
      <trkpt lat="45.07939" lon="5.55326">
        <ele>985</ele>
        <time>2016-09-11T12:57:26Z</time>
      </trkpt>
      <trkpt lat="45.07934" lon="5.55326">
        <ele>985</ele>
        <time>2016-09-11T12:57:27Z</time>
      </trkpt>
      <trkpt lat="45.07929" lon="5.55326">
        <ele>985</ele>
        <time>2016-09-11T12:57:28Z</time>
      </trkpt>
      <trkpt lat="45.07924" lon="5.55326">
        <ele>984</ele>
        <time>2016-09-11T12:57:29Z</time>
      </trkpt>
      <trkpt lat="45.07916" lon="5.55329">
        <ele>984</ele>
        <time>2016-09-11T12:57:30Z</time>
      </trkpt>
      <trkpt lat="45.07911" lon="5.55332">
        <ele>984</ele>
        <time>2016-09-11T12:57:31Z</time>
      </trkpt>
      <trkpt lat="45.07906" lon="5.55335">
        <ele>983</ele>
        <time>2016-09-11T12:57:32Z</time>
      </trkpt>
      <trkpt lat="45.079" lon="5.55336">
        <ele>983</ele>
        <time>2016-09-11T12:57:33Z</time>
      </trkpt>
      <trkpt lat="45.07894" lon="5.55337">
        <ele>983</ele>
        <time>2016-09-11T12:57:34Z</time>
      </trkpt>
      <trkpt lat="45.07887" lon="5.55337">
        <ele>982</ele>
        <time>2016-09-11T12:57:35Z</time>
      </trkpt>
      <trkpt lat="45.07879" lon="5.55338">
        <ele>982</ele>
        <time>2016-09-11T12:57:36Z</time>
      </trkpt>
      <trkpt lat="45.07872" lon="5.55338">
        <ele>981</ele>
        <time>2016-09-11T12:57:37Z</time>
      </trkpt>
      <trkpt lat="45.07864" lon="5.55339">
        <ele>981</ele>
        <time>2016-09-11T12:57:38Z</time>
      </trkpt>
      <trkpt lat="45.07856" lon="5.5534">
        <ele>980</ele>
        <time>2016-09-11T12:57:39Z</time>
      </trkpt>
      <trkpt lat="45.07848" lon="5.55339">
        <ele>980</ele>
        <time>2016-09-11T12:57:40Z</time>
      </trkpt>
      <trkpt lat="45.0784" lon="5.55338">
        <ele>980</ele>
        <time>2016-09-11T12:57:41Z</time>
      </trkpt>
      <trkpt lat="45.07832" lon="5.55334">
        <ele>979</ele>
        <time>2016-09-11T12:57:42Z</time>
      </trkpt>
      <trkpt lat="45.07824" lon="5.5533">
        <ele>979</ele>
        <time>2016-09-11T12:57:43Z</time>
      </trkpt>
      <trkpt lat="45.07817" lon="5.55325">
        <ele>979</ele>
        <time>2016-09-11T12:57:44Z</time>
      </trkpt>
      <trkpt lat="45.0781" lon="5.55318">
        <ele>978</ele>
        <time>2016-09-11T12:57:45Z</time>
      </trkpt>
      <trkpt lat="45.07804" lon="5.55311">
        <ele>978</ele>
        <time>2016-09-11T12:57:46Z</time>
      </trkpt>
      <trkpt lat="45.07798" lon="5.55302">
        <ele>978</ele>
        <time>2016-09-11T12:57:47Z</time>
      </trkpt>
      <trkpt lat="45.07793" lon="5.55293">
        <ele>978</ele>
        <time>2016-09-11T12:57:48Z</time>
      </trkpt>
      <trkpt lat="45.07789" lon="5.55284">
        <ele>978</ele>
        <time>2016-09-11T12:57:49Z</time>
      </trkpt>
      <trkpt lat="45.07786" lon="5.55277">
        <ele>978</ele>
        <time>2016-09-11T12:57:50Z</time>
      </trkpt>
      <trkpt lat="45.07784" lon="5.55271">
        <ele>978</ele>
        <time>2016-09-11T12:57:51Z</time>
      </trkpt>
      <trkpt lat="45.07781" lon="5.55265">
        <ele>978</ele>
        <time>2016-09-11T12:57:53Z</time>
      </trkpt>
      <trkpt lat="45.07779" lon="5.55258">
        <ele>978</ele>
        <time>2016-09-11T12:57:56Z</time>
      </trkpt>
      <trkpt lat="45.07776" lon="5.55253">
        <ele>977</ele>
        <time>2016-09-11T12:58:00Z</time>
      </trkpt>
      <trkpt lat="45.07773" lon="5.55246">
        <ele>977</ele>
        <time>2016-09-11T12:58:04Z</time>
      </trkpt>
      <trkpt lat="45.07771" lon="5.55241">
        <ele>977</ele>
        <time>2016-09-11T12:58:07Z</time>
      </trkpt>
      <trkpt lat="45.07766" lon="5.55236">
        <ele>977</ele>
        <time>2016-09-11T12:58:11Z</time>
      </trkpt>
      <trkpt lat="45.07764" lon="5.55229">
        <ele>977</ele>
        <time>2016-09-11T12:58:16Z</time>
      </trkpt>
      <trkpt lat="45.0776" lon="5.55224">
        <ele>978</ele>
        <time>2016-09-11T12:58:21Z</time>
      </trkpt>
      <trkpt lat="45.07758" lon="5.55218">
        <ele>978</ele>
        <time>2016-09-11T12:58:25Z</time>
      </trkpt>
      <trkpt lat="45.07754" lon="5.55213">
        <ele>978</ele>
        <time>2016-09-11T12:58:29Z</time>
      </trkpt>
      <trkpt lat="45.0775" lon="5.55207">
        <ele>978</ele>
        <time>2016-09-11T12:58:33Z</time>
      </trkpt>
      <trkpt lat="45.0775" lon="5.55202">
        <ele>977</ele>
        <time>2016-09-11T12:58:51Z</time>
      </trkpt>
      <trkpt lat="45.0775" lon="5.55202">
        <ele>977</ele>
        <time>2016-09-11T12:58:54Z</time>
      </trkpt>
      <trkpt lat="45.0775" lon="5.55202">
        <ele>977</ele>
        <time>2016-09-11T12:59:21Z</time>
      </trkpt>
      <trkpt lat="45.0775" lon="5.55202">
        <ele>977</ele>
        <time>2016-09-11T12:59:24Z</time>
      </trkpt>
      <trkpt lat="45.07751" lon="5.55202">
        <ele>977</ele>
        <time>2016-09-11T12:59:51Z</time>
      </trkpt>
      <trkpt lat="45.07751" lon="5.55202">
        <ele>977</ele>
        <time>2016-09-11T12:59:54Z</time>
      </trkpt>
      <trkpt lat="45.07749" lon="5.55202">
        <ele>977</ele>
        <time>2016-09-11T13:00:21Z</time>
      </trkpt>
      <trkpt lat="45.07749" lon="5.55203">
        <ele>977</ele>
        <time>2016-09-11T13:00:24Z</time>
      </trkpt>
      <trkpt lat="45.07745" lon="5.55197">
        <ele>978</ele>
        <time>2016-09-11T13:00:27Z</time>
      </trkpt>
      <trkpt lat="45.07741" lon="5.55188">
        <ele>978</ele>
        <time>2016-09-11T13:00:29Z</time>
      </trkpt>
      <trkpt lat="45.07736" lon="5.5518">
        <ele>979</ele>
        <time>2016-09-11T13:00:31Z</time>
      </trkpt>
      <trkpt lat="45.07731" lon="5.55171">
        <ele>979</ele>
        <time>2016-09-11T13:00:33Z</time>
      </trkpt>
      <trkpt lat="45.07724" lon="5.55161">
        <ele>979</ele>
        <time>2016-09-11T13:00:35Z</time>
      </trkpt>
      <trkpt lat="45.07717" lon="5.55147">
        <ele>979</ele>
        <time>2016-09-11T13:00:37Z</time>
      </trkpt>
      <trkpt lat="45.07713" lon="5.55142">
        <ele>979</ele>
        <time>2016-09-11T13:00:38Z</time>
      </trkpt>
      <trkpt lat="45.0771" lon="5.55136">
        <ele>979</ele>
        <time>2016-09-11T13:00:39Z</time>
      </trkpt>
      <trkpt lat="45.07707" lon="5.55131">
        <ele>979</ele>
        <time>2016-09-11T13:00:40Z</time>
      </trkpt>
      <trkpt lat="45.07703" lon="5.55126">
        <ele>979</ele>
        <time>2016-09-11T13:00:41Z</time>
      </trkpt>
      <trkpt lat="45.07699" lon="5.55121">
        <ele>979</ele>
        <time>2016-09-11T13:00:42Z</time>
      </trkpt>
      <trkpt lat="45.07695" lon="5.55115">
        <ele>980</ele>
        <time>2016-09-11T13:00:43Z</time>
      </trkpt>
      <trkpt lat="45.07692" lon="5.5511">
        <ele>979</ele>
        <time>2016-09-11T13:00:44Z</time>
      </trkpt>
      <trkpt lat="45.07688" lon="5.55104">
        <ele>979</ele>
        <time>2016-09-11T13:00:45Z</time>
      </trkpt>
      <trkpt lat="45.07684" lon="5.55099">
        <ele>979</ele>
        <time>2016-09-11T13:00:46Z</time>
      </trkpt>
      <trkpt lat="45.07679" lon="5.55094">
        <ele>979</ele>
        <time>2016-09-11T13:00:47Z</time>
      </trkpt>
      <trkpt lat="45.07675" lon="5.55089">
        <ele>979</ele>
        <time>2016-09-11T13:00:48Z</time>
      </trkpt>
      <trkpt lat="45.0767" lon="5.55085">
        <ele>979</ele>
        <time>2016-09-11T13:00:49Z</time>
      </trkpt>
      <trkpt lat="45.07661" lon="5.55075">
        <ele>979</ele>
        <time>2016-09-11T13:00:51Z</time>
      </trkpt>
      <trkpt lat="45.07656" lon="5.5507">
        <ele>979</ele>
        <time>2016-09-11T13:00:52Z</time>
      </trkpt>
      <trkpt lat="45.0765" lon="5.55066">
        <ele>979</ele>
        <time>2016-09-11T13:00:53Z</time>
      </trkpt>
      <trkpt lat="45.07645" lon="5.55063">
        <ele>979</ele>
        <time>2016-09-11T13:00:54Z</time>
      </trkpt>
      <trkpt lat="45.07641" lon="5.55059">
        <ele>979</ele>
        <time>2016-09-11T13:00:55Z</time>
      </trkpt>
      <trkpt lat="45.07635" lon="5.55055">
        <ele>979</ele>
        <time>2016-09-11T13:00:56Z</time>
      </trkpt>
      <trkpt lat="45.07629" lon="5.55051">
        <ele>978</ele>
        <time>2016-09-11T13:00:57Z</time>
      </trkpt>
      <trkpt lat="45.07624" lon="5.55048">
        <ele>978</ele>
        <time>2016-09-11T13:00:58Z</time>
      </trkpt>
      <trkpt lat="45.07618" lon="5.55044">
        <ele>978</ele>
        <time>2016-09-11T13:00:59Z</time>
      </trkpt>
      <trkpt lat="45.07613" lon="5.55041">
        <ele>978</ele>
        <time>2016-09-11T13:01:00Z</time>
      </trkpt>
      <trkpt lat="45.07607" lon="5.55038">
        <ele>978</ele>
        <time>2016-09-11T13:01:01Z</time>
      </trkpt>
      <trkpt lat="45.07601" lon="5.55034">
        <ele>978</ele>
        <time>2016-09-11T13:01:02Z</time>
      </trkpt>
      <trkpt lat="45.07595" lon="5.55031">
        <ele>978</ele>
        <time>2016-09-11T13:01:03Z</time>
      </trkpt>
      <trkpt lat="45.0759" lon="5.55027">
        <ele>978</ele>
        <time>2016-09-11T13:01:04Z</time>
      </trkpt>
      <trkpt lat="45.07584" lon="5.55023">
        <ele>978</ele>
        <time>2016-09-11T13:01:05Z</time>
      </trkpt>
      <trkpt lat="45.07579" lon="5.55019">
        <ele>978</ele>
        <time>2016-09-11T13:01:06Z</time>
      </trkpt>
      <trkpt lat="45.07573" lon="5.55015">
        <ele>978</ele>
        <time>2016-09-11T13:01:07Z</time>
      </trkpt>
      <trkpt lat="45.07568" lon="5.55011">
        <ele>978</ele>
        <time>2016-09-11T13:01:08Z</time>
      </trkpt>
      <trkpt lat="45.07563" lon="5.55007">
        <ele>978</ele>
        <time>2016-09-11T13:01:09Z</time>
      </trkpt>
      <trkpt lat="45.07557" lon="5.55004">
        <ele>978</ele>
        <time>2016-09-11T13:01:10Z</time>
      </trkpt>
      <trkpt lat="45.07552" lon="5.55">
        <ele>978</ele>
        <time>2016-09-11T13:01:11Z</time>
      </trkpt>
      <trkpt lat="45.07547" lon="5.54996">
        <ele>978</ele>
        <time>2016-09-11T13:01:12Z</time>
      </trkpt>
      <trkpt lat="45.07541" lon="5.54992">
        <ele>978</ele>
        <time>2016-09-11T13:01:13Z</time>
      </trkpt>
      <trkpt lat="45.07536" lon="5.54988">
        <ele>978</ele>
        <time>2016-09-11T13:01:14Z</time>
      </trkpt>
      <trkpt lat="45.07531" lon="5.54984">
        <ele>978</ele>
        <time>2016-09-11T13:01:15Z</time>
      </trkpt>
      <trkpt lat="45.07526" lon="5.54979">
        <ele>978</ele>
        <time>2016-09-11T13:01:16Z</time>
      </trkpt>
      <trkpt lat="45.07521" lon="5.54975">
        <ele>977</ele>
        <time>2016-09-11T13:01:17Z</time>
      </trkpt>
      <trkpt lat="45.07516" lon="5.5497">
        <ele>977</ele>
        <time>2016-09-11T13:01:18Z</time>
      </trkpt>
      <trkpt lat="45.07511" lon="5.54966">
        <ele>977</ele>
        <time>2016-09-11T13:01:19Z</time>
      </trkpt>
      <trkpt lat="45.07505" lon="5.54961">
        <ele>977</ele>
        <time>2016-09-11T13:01:20Z</time>
      </trkpt>
      <trkpt lat="45.075" lon="5.54955">
        <ele>976</ele>
        <time>2016-09-11T13:01:21Z</time>
      </trkpt>
      <trkpt lat="45.07489" lon="5.54943">
        <ele>976</ele>
        <time>2016-09-11T13:01:23Z</time>
      </trkpt>
      <trkpt lat="45.07483" lon="5.54937">
        <ele>975</ele>
        <time>2016-09-11T13:01:24Z</time>
      </trkpt>
      <trkpt lat="45.07471" lon="5.54924">
        <ele>975</ele>
        <time>2016-09-11T13:01:26Z</time>
      </trkpt>
      <trkpt lat="45.07465" lon="5.54916">
        <ele>974</ele>
        <time>2016-09-11T13:01:27Z</time>
      </trkpt>
      <trkpt lat="45.07458" lon="5.54909">
        <ele>973</ele>
        <time>2016-09-11T13:01:28Z</time>
      </trkpt>
      <trkpt lat="45.07451" lon="5.54902">
        <ele>973</ele>
        <time>2016-09-11T13:01:29Z</time>
      </trkpt>
      <trkpt lat="45.07444" lon="5.54894">
        <ele>973</ele>
        <time>2016-09-11T13:01:30Z</time>
      </trkpt>
      <trkpt lat="45.07438" lon="5.54887">
        <ele>972</ele>
        <time>2016-09-11T13:01:31Z</time>
      </trkpt>
      <trkpt lat="45.07431" lon="5.54879">
        <ele>972</ele>
        <time>2016-09-11T13:01:32Z</time>
      </trkpt>
      <trkpt lat="45.07424" lon="5.54871">
        <ele>972</ele>
        <time>2016-09-11T13:01:33Z</time>
      </trkpt>
      <trkpt lat="45.07417" lon="5.54863">
        <ele>971</ele>
        <time>2016-09-11T13:01:34Z</time>
      </trkpt>
      <trkpt lat="45.0741" lon="5.54855">
        <ele>971</ele>
        <time>2016-09-11T13:01:35Z</time>
      </trkpt>
      <trkpt lat="45.07404" lon="5.54846">
        <ele>970</ele>
        <time>2016-09-11T13:01:36Z</time>
      </trkpt>
      <trkpt lat="45.07397" lon="5.54837">
        <ele>970</ele>
        <time>2016-09-11T13:01:37Z</time>
      </trkpt>
      <trkpt lat="45.07391" lon="5.54827">
        <ele>969</ele>
        <time>2016-09-11T13:01:38Z</time>
      </trkpt>
      <trkpt lat="45.07386" lon="5.54817">
        <ele>969</ele>
        <time>2016-09-11T13:01:39Z</time>
      </trkpt>
      <trkpt lat="45.07382" lon="5.54807">
        <ele>969</ele>
        <time>2016-09-11T13:01:40Z</time>
      </trkpt>
      <trkpt lat="45.07378" lon="5.54795">
        <ele>968</ele>
        <time>2016-09-11T13:01:41Z</time>
      </trkpt>
      <trkpt lat="45.07375" lon="5.54784">
        <ele>968</ele>
        <time>2016-09-11T13:01:42Z</time>
      </trkpt>
      <trkpt lat="45.07373" lon="5.54774">
        <ele>967</ele>
        <time>2016-09-11T13:01:43Z</time>
      </trkpt>
      <trkpt lat="45.07371" lon="5.54762">
        <ele>967</ele>
        <time>2016-09-11T13:01:44Z</time>
      </trkpt>
      <trkpt lat="45.0737" lon="5.54751">
        <ele>967</ele>
        <time>2016-09-11T13:01:45Z</time>
      </trkpt>
      <trkpt lat="45.07369" lon="5.54742">
        <ele>966</ele>
        <time>2016-09-11T13:01:46Z</time>
      </trkpt>
      <trkpt lat="45.07367" lon="5.54733">
        <ele>966</ele>
        <time>2016-09-11T13:01:47Z</time>
      </trkpt>
      <trkpt lat="45.07367" lon="5.54724">
        <ele>966</ele>
        <time>2016-09-11T13:01:48Z</time>
      </trkpt>
      <trkpt lat="45.07369" lon="5.54715">
        <ele>965</ele>
        <time>2016-09-11T13:01:49Z</time>
      </trkpt>
      <trkpt lat="45.07372" lon="5.54708">
        <ele>965</ele>
        <time>2016-09-11T13:01:50Z</time>
      </trkpt>
      <trkpt lat="45.07376" lon="5.54696">
        <ele>964</ele>
        <time>2016-09-11T13:01:52Z</time>
      </trkpt>
      <trkpt lat="45.07377" lon="5.54687">
        <ele>964</ele>
        <time>2016-09-11T13:01:54Z</time>
      </trkpt>
      <trkpt lat="45.07379" lon="5.54677">
        <ele>963</ele>
        <time>2016-09-11T13:01:56Z</time>
      </trkpt>
      <trkpt lat="45.07383" lon="5.54667">
        <ele>963</ele>
        <time>2016-09-11T13:01:58Z</time>
      </trkpt>
      <trkpt lat="45.07386" lon="5.54655">
        <ele>963</ele>
        <time>2016-09-11T13:02:00Z</time>
      </trkpt>
      <trkpt lat="45.07388" lon="5.54644">
        <ele>963</ele>
        <time>2016-09-11T13:02:02Z</time>
      </trkpt>
      <trkpt lat="45.07391" lon="5.54633">
        <ele>963</ele>
        <time>2016-09-11T13:02:04Z</time>
      </trkpt>
      <trkpt lat="45.07392" lon="5.54621">
        <ele>963</ele>
        <time>2016-09-11T13:02:06Z</time>
      </trkpt>
      <trkpt lat="45.07394" lon="5.54611">
        <ele>962</ele>
        <time>2016-09-11T13:02:08Z</time>
      </trkpt>
      <trkpt lat="45.07394" lon="5.54599">
        <ele>962</ele>
        <time>2016-09-11T13:02:10Z</time>
      </trkpt>
      <trkpt lat="45.07392" lon="5.54585">
        <ele>962</ele>
        <time>2016-09-11T13:02:12Z</time>
      </trkpt>
      <trkpt lat="45.07391" lon="5.54573">
        <ele>962</ele>
        <time>2016-09-11T13:02:14Z</time>
      </trkpt>
      <trkpt lat="45.0739" lon="5.54564">
        <ele>962</ele>
        <time>2016-09-11T13:02:15Z</time>
      </trkpt>
      <trkpt lat="45.07388" lon="5.54556">
        <ele>962</ele>
        <time>2016-09-11T13:02:16Z</time>
      </trkpt>
      <trkpt lat="45.07386" lon="5.54549">
        <ele>962</ele>
        <time>2016-09-11T13:02:17Z</time>
      </trkpt>
      <trkpt lat="45.07385" lon="5.54541">
        <ele>961</ele>
        <time>2016-09-11T13:02:18Z</time>
      </trkpt>
      <trkpt lat="45.07385" lon="5.54533">
        <ele>961</ele>
        <time>2016-09-11T13:02:19Z</time>
      </trkpt>
      <trkpt lat="45.07382" lon="5.54525">
        <ele>960</ele>
        <time>2016-09-11T13:02:20Z</time>
      </trkpt>
      <trkpt lat="45.0738" lon="5.54518">
        <ele>960</ele>
        <time>2016-09-11T13:02:21Z</time>
      </trkpt>
      <trkpt lat="45.07377" lon="5.5451">
        <ele>960</ele>
        <time>2016-09-11T13:02:22Z</time>
      </trkpt>
      <trkpt lat="45.07372" lon="5.54503">
        <ele>959</ele>
        <time>2016-09-11T13:02:23Z</time>
      </trkpt>
      <trkpt lat="45.07367" lon="5.54496">
        <ele>960</ele>
        <time>2016-09-11T13:02:24Z</time>
      </trkpt>
      <trkpt lat="45.07364" lon="5.5449">
        <ele>960</ele>
        <time>2016-09-11T13:02:25Z</time>
      </trkpt>
      <trkpt lat="45.07359" lon="5.54484">
        <ele>959</ele>
        <time>2016-09-11T13:02:26Z</time>
      </trkpt>
      <trkpt lat="45.07356" lon="5.54478">
        <ele>959</ele>
        <time>2016-09-11T13:02:27Z</time>
      </trkpt>
      <trkpt lat="45.07349" lon="5.54468">
        <ele>959</ele>
        <time>2016-09-11T13:02:29Z</time>
      </trkpt>
      <trkpt lat="45.07344" lon="5.54462">
        <ele>959</ele>
        <time>2016-09-11T13:02:30Z</time>
      </trkpt>
      <trkpt lat="45.0734" lon="5.54457">
        <ele>959</ele>
        <time>2016-09-11T13:02:31Z</time>
      </trkpt>
      <trkpt lat="45.07335" lon="5.54451">
        <ele>960</ele>
        <time>2016-09-11T13:02:32Z</time>
      </trkpt>
      <trkpt lat="45.07331" lon="5.54447">
        <ele>960</ele>
        <time>2016-09-11T13:02:33Z</time>
      </trkpt>
      <trkpt lat="45.07327" lon="5.5444">
        <ele>960</ele>
        <time>2016-09-11T13:02:34Z</time>
      </trkpt>
      <trkpt lat="45.07323" lon="5.54435">
        <ele>960</ele>
        <time>2016-09-11T13:02:35Z</time>
      </trkpt>
      <trkpt lat="45.07318" lon="5.54428">
        <ele>960</ele>
        <time>2016-09-11T13:02:36Z</time>
      </trkpt>
      <trkpt lat="45.07315" lon="5.54421">
        <ele>960</ele>
        <time>2016-09-11T13:02:37Z</time>
      </trkpt>
      <trkpt lat="45.07311" lon="5.5441">
        <ele>960</ele>
        <time>2016-09-11T13:02:39Z</time>
      </trkpt>
      <trkpt lat="45.07311" lon="5.54402">
        <ele>960</ele>
        <time>2016-09-11T13:02:40Z</time>
      </trkpt>
      <trkpt lat="45.07311" lon="5.54392">
        <ele>960</ele>
        <time>2016-09-11T13:02:41Z</time>
      </trkpt>
      <trkpt lat="45.07312" lon="5.54384">
        <ele>960</ele>
        <time>2016-09-11T13:02:42Z</time>
      </trkpt>
      <trkpt lat="45.07315" lon="5.54376">
        <ele>960</ele>
        <time>2016-09-11T13:02:43Z</time>
      </trkpt>
      <trkpt lat="45.0732" lon="5.54371">
        <ele>959</ele>
        <time>2016-09-11T13:02:44Z</time>
      </trkpt>
      <trkpt lat="45.07325" lon="5.54363">
        <ele>959</ele>
        <time>2016-09-11T13:02:45Z</time>
      </trkpt>
      <trkpt lat="45.0733" lon="5.54356">
        <ele>958</ele>
        <time>2016-09-11T13:02:46Z</time>
      </trkpt>
      <trkpt lat="45.07336" lon="5.5435">
        <ele>958</ele>
        <time>2016-09-11T13:02:47Z</time>
      </trkpt>
      <trkpt lat="45.07341" lon="5.54343">
        <ele>958</ele>
        <time>2016-09-11T13:02:48Z</time>
      </trkpt>
      <trkpt lat="45.07348" lon="5.54334">
        <ele>957</ele>
        <time>2016-09-11T13:02:49Z</time>
      </trkpt>
      <trkpt lat="45.07353" lon="5.54325">
        <ele>957</ele>
        <time>2016-09-11T13:02:50Z</time>
      </trkpt>
      <trkpt lat="45.07359" lon="5.54316">
        <ele>957</ele>
        <time>2016-09-11T13:02:51Z</time>
      </trkpt>
      <trkpt lat="45.07364" lon="5.54306">
        <ele>957</ele>
        <time>2016-09-11T13:02:52Z</time>
      </trkpt>
      <trkpt lat="45.07368" lon="5.54294">
        <ele>957</ele>
        <time>2016-09-11T13:02:53Z</time>
      </trkpt>
      <trkpt lat="45.07373" lon="5.54281">
        <ele>957</ele>
        <time>2016-09-11T13:02:54Z</time>
      </trkpt>
      <trkpt lat="45.07376" lon="5.54269">
        <ele>957</ele>
        <time>2016-09-11T13:02:55Z</time>
      </trkpt>
      <trkpt lat="45.07379" lon="5.54256">
        <ele>957</ele>
        <time>2016-09-11T13:02:56Z</time>
      </trkpt>
      <trkpt lat="45.07382" lon="5.54243">
        <ele>956</ele>
        <time>2016-09-11T13:02:57Z</time>
      </trkpt>
      <trkpt lat="45.07385" lon="5.54229">
        <ele>956</ele>
        <time>2016-09-11T13:02:58Z</time>
      </trkpt>
      <trkpt lat="45.07388" lon="5.54216">
        <ele>956</ele>
        <time>2016-09-11T13:02:59Z</time>
      </trkpt>
      <trkpt lat="45.07392" lon="5.54202">
        <ele>956</ele>
        <time>2016-09-11T13:03:00Z</time>
      </trkpt>
      <trkpt lat="45.07396" lon="5.54189">
        <ele>955</ele>
        <time>2016-09-11T13:03:01Z</time>
      </trkpt>
      <trkpt lat="45.07401" lon="5.54175">
        <ele>955</ele>
        <time>2016-09-11T13:03:02Z</time>
      </trkpt>
      <trkpt lat="45.07404" lon="5.54161">
        <ele>955</ele>
        <time>2016-09-11T13:03:03Z</time>
      </trkpt>
      <trkpt lat="45.07407" lon="5.54148">
        <ele>954</ele>
        <time>2016-09-11T13:03:04Z</time>
      </trkpt>
      <trkpt lat="45.07407" lon="5.54135">
        <ele>954</ele>
        <time>2016-09-11T13:03:05Z</time>
      </trkpt>
      <trkpt lat="45.07406" lon="5.54122">
        <ele>954</ele>
        <time>2016-09-11T13:03:06Z</time>
      </trkpt>
      <trkpt lat="45.07402" lon="5.5411">
        <ele>953</ele>
        <time>2016-09-11T13:03:07Z</time>
      </trkpt>
      <trkpt lat="45.07398" lon="5.541">
        <ele>953</ele>
        <time>2016-09-11T13:03:08Z</time>
      </trkpt>
      <trkpt lat="45.07392" lon="5.54092">
        <ele>953</ele>
        <time>2016-09-11T13:03:09Z</time>
      </trkpt>
      <trkpt lat="45.07385" lon="5.54085">
        <ele>953</ele>
        <time>2016-09-11T13:03:10Z</time>
      </trkpt>
      <trkpt lat="45.07376" lon="5.54079">
        <ele>953</ele>
        <time>2016-09-11T13:03:11Z</time>
      </trkpt>
      <trkpt lat="45.07369" lon="5.54077">
        <ele>953</ele>
        <time>2016-09-11T13:03:12Z</time>
      </trkpt>
      <trkpt lat="45.0736" lon="5.54075">
        <ele>953</ele>
        <time>2016-09-11T13:03:13Z</time>
      </trkpt>
      <trkpt lat="45.07353" lon="5.54075">
        <ele>953</ele>
        <time>2016-09-11T13:03:14Z</time>
      </trkpt>
      <trkpt lat="45.07345" lon="5.54073">
        <ele>954</ele>
        <time>2016-09-11T13:03:15Z</time>
      </trkpt>
      <trkpt lat="45.07338" lon="5.5407">
        <ele>954</ele>
        <time>2016-09-11T13:03:16Z</time>
      </trkpt>
      <trkpt lat="45.07331" lon="5.54064">
        <ele>954</ele>
        <time>2016-09-11T13:03:17Z</time>
      </trkpt>
      <trkpt lat="45.07326" lon="5.54056">
        <ele>954</ele>
        <time>2016-09-11T13:03:18Z</time>
      </trkpt>
      <trkpt lat="45.07324" lon="5.54046">
        <ele>954</ele>
        <time>2016-09-11T13:03:19Z</time>
      </trkpt>
      <trkpt lat="45.07323" lon="5.54038">
        <ele>954</ele>
        <time>2016-09-11T13:03:20Z</time>
      </trkpt>
      <trkpt lat="45.07328" lon="5.5403">
        <ele>953</ele>
        <time>2016-09-11T13:03:21Z</time>
      </trkpt>
      <trkpt lat="45.07333" lon="5.54024">
        <ele>953</ele>
        <time>2016-09-11T13:03:22Z</time>
      </trkpt>
      <trkpt lat="45.07339" lon="5.54018">
        <ele>953</ele>
        <time>2016-09-11T13:03:23Z</time>
      </trkpt>
      <trkpt lat="45.07346" lon="5.54013">
        <ele>953</ele>
        <time>2016-09-11T13:03:24Z</time>
      </trkpt>
      <trkpt lat="45.07354" lon="5.54009">
        <ele>952</ele>
        <time>2016-09-11T13:03:25Z</time>
      </trkpt>
      <trkpt lat="45.07361" lon="5.54003">
        <ele>952</ele>
        <time>2016-09-11T13:03:26Z</time>
      </trkpt>
      <trkpt lat="45.07369" lon="5.53998">
        <ele>952</ele>
        <time>2016-09-11T13:03:27Z</time>
      </trkpt>
      <trkpt lat="45.07377" lon="5.53992">
        <ele>952</ele>
        <time>2016-09-11T13:03:28Z</time>
      </trkpt>
      <trkpt lat="45.07385" lon="5.53987">
        <ele>951</ele>
        <time>2016-09-11T13:03:29Z</time>
      </trkpt>
      <trkpt lat="45.07392" lon="5.53982">
        <ele>951</ele>
        <time>2016-09-11T13:03:30Z</time>
      </trkpt>
      <trkpt lat="45.074" lon="5.53977">
        <ele>951</ele>
        <time>2016-09-11T13:03:31Z</time>
      </trkpt>
      <trkpt lat="45.07408" lon="5.53971">
        <ele>950</ele>
        <time>2016-09-11T13:03:32Z</time>
      </trkpt>
      <trkpt lat="45.07416" lon="5.53966">
        <ele>950</ele>
        <time>2016-09-11T13:03:33Z</time>
      </trkpt>
      <trkpt lat="45.07423" lon="5.5396">
        <ele>949</ele>
        <time>2016-09-11T13:03:34Z</time>
      </trkpt>
      <trkpt lat="45.07431" lon="5.53954">
        <ele>949</ele>
        <time>2016-09-11T13:03:35Z</time>
      </trkpt>
      <trkpt lat="45.07439" lon="5.53948">
        <ele>948</ele>
        <time>2016-09-11T13:03:36Z</time>
      </trkpt>
      <trkpt lat="45.07447" lon="5.53943">
        <ele>948</ele>
        <time>2016-09-11T13:03:37Z</time>
      </trkpt>
      <trkpt lat="45.07456" lon="5.53937">
        <ele>948</ele>
        <time>2016-09-11T13:03:38Z</time>
      </trkpt>
      <trkpt lat="45.07464" lon="5.53931">
        <ele>947</ele>
        <time>2016-09-11T13:03:39Z</time>
      </trkpt>
      <trkpt lat="45.07473" lon="5.53925">
        <ele>946</ele>
        <time>2016-09-11T13:03:40Z</time>
      </trkpt>
      <trkpt lat="45.07481" lon="5.53919">
        <ele>946</ele>
        <time>2016-09-11T13:03:41Z</time>
      </trkpt>
      <trkpt lat="45.07489" lon="5.53913">
        <ele>946</ele>
        <time>2016-09-11T13:03:42Z</time>
      </trkpt>
      <trkpt lat="45.07497" lon="5.53906">
        <ele>945</ele>
        <time>2016-09-11T13:03:43Z</time>
      </trkpt>
      <trkpt lat="45.07505" lon="5.53899">
        <ele>945</ele>
        <time>2016-09-11T13:03:44Z</time>
      </trkpt>
      <trkpt lat="45.07514" lon="5.53893">
        <ele>945</ele>
        <time>2016-09-11T13:03:45Z</time>
      </trkpt>
      <trkpt lat="45.07523" lon="5.53886">
        <ele>944</ele>
        <time>2016-09-11T13:03:46Z</time>
      </trkpt>
      <trkpt lat="45.07531" lon="5.5388">
        <ele>944</ele>
        <time>2016-09-11T13:03:47Z</time>
      </trkpt>
      <trkpt lat="45.07539" lon="5.53874">
        <ele>943</ele>
        <time>2016-09-11T13:03:48Z</time>
      </trkpt>
      <trkpt lat="45.07547" lon="5.53869">
        <ele>943</ele>
        <time>2016-09-11T13:03:49Z</time>
      </trkpt>
      <trkpt lat="45.07563" lon="5.53857">
        <ele>943</ele>
        <time>2016-09-11T13:03:51Z</time>
      </trkpt>
      <trkpt lat="45.07571" lon="5.53851">
        <ele>943</ele>
        <time>2016-09-11T13:03:52Z</time>
      </trkpt>
      <trkpt lat="45.07578" lon="5.53846">
        <ele>943</ele>
        <time>2016-09-11T13:03:53Z</time>
      </trkpt>
      <trkpt lat="45.07586" lon="5.53839">
        <ele>943</ele>
        <time>2016-09-11T13:03:54Z</time>
      </trkpt>
      <trkpt lat="45.07593" lon="5.53832">
        <ele>943</ele>
        <time>2016-09-11T13:03:55Z</time>
      </trkpt>
      <trkpt lat="45.07599" lon="5.53823">
        <ele>943</ele>
        <time>2016-09-11T13:03:56Z</time>
      </trkpt>
      <trkpt lat="45.07603" lon="5.53814">
        <ele>943</ele>
        <time>2016-09-11T13:03:57Z</time>
      </trkpt>
      <trkpt lat="45.0761" lon="5.53793">
        <ele>943</ele>
        <time>2016-09-11T13:03:59Z</time>
      </trkpt>
      <trkpt lat="45.07616" lon="5.53772">
        <ele>943</ele>
        <time>2016-09-11T13:04:01Z</time>
      </trkpt>
      <trkpt lat="45.0762" lon="5.53761">
        <ele>943</ele>
        <time>2016-09-11T13:04:02Z</time>
      </trkpt>
      <trkpt lat="45.07623" lon="5.53751">
        <ele>944</ele>
        <time>2016-09-11T13:04:03Z</time>
      </trkpt>
      <trkpt lat="45.07626" lon="5.5374">
        <ele>944</ele>
        <time>2016-09-11T13:04:04Z</time>
      </trkpt>
      <trkpt lat="45.07629" lon="5.5373">
        <ele>944</ele>
        <time>2016-09-11T13:04:05Z</time>
      </trkpt>
      <trkpt lat="45.07635" lon="5.53721">
        <ele>943</ele>
        <time>2016-09-11T13:04:06Z</time>
      </trkpt>
      <trkpt lat="45.07643" lon="5.53714">
        <ele>943</ele>
        <time>2016-09-11T13:04:07Z</time>
      </trkpt>
      <trkpt lat="45.07652" lon="5.53709">
        <ele>943</ele>
        <time>2016-09-11T13:04:08Z</time>
      </trkpt>
      <trkpt lat="45.0766" lon="5.53705">
        <ele>942</ele>
        <time>2016-09-11T13:04:09Z</time>
      </trkpt>
      <trkpt lat="45.07668" lon="5.53702">
        <ele>942</ele>
        <time>2016-09-11T13:04:10Z</time>
      </trkpt>
      <trkpt lat="45.07675" lon="5.53701">
        <ele>942</ele>
        <time>2016-09-11T13:04:11Z</time>
      </trkpt>
      <trkpt lat="45.07684" lon="5.537">
        <ele>942</ele>
        <time>2016-09-11T13:04:12Z</time>
      </trkpt>
      <trkpt lat="45.07692" lon="5.537">
        <ele>942</ele>
        <time>2016-09-11T13:04:13Z</time>
      </trkpt>
      <trkpt lat="45.07701" lon="5.537">
        <ele>942</ele>
        <time>2016-09-11T13:04:14Z</time>
      </trkpt>
      <trkpt lat="45.0771" lon="5.53699">
        <ele>942</ele>
        <time>2016-09-11T13:04:15Z</time>
      </trkpt>
      <trkpt lat="45.07719" lon="5.53698">
        <ele>942</ele>
        <time>2016-09-11T13:04:16Z</time>
      </trkpt>
      <trkpt lat="45.07728" lon="5.53698">
        <ele>941</ele>
        <time>2016-09-11T13:04:17Z</time>
      </trkpt>
      <trkpt lat="45.07738" lon="5.53697">
        <ele>941</ele>
        <time>2016-09-11T13:04:18Z</time>
      </trkpt>
      <trkpt lat="45.07747" lon="5.53696">
        <ele>941</ele>
        <time>2016-09-11T13:04:19Z</time>
      </trkpt>
      <trkpt lat="45.07756" lon="5.53696">
        <ele>940</ele>
        <time>2016-09-11T13:04:20Z</time>
      </trkpt>
      <trkpt lat="45.07767" lon="5.53694">
        <ele>940</ele>
        <time>2016-09-11T13:04:21Z</time>
      </trkpt>
      <trkpt lat="45.07776" lon="5.53692">
        <ele>940</ele>
        <time>2016-09-11T13:04:22Z</time>
      </trkpt>
      <trkpt lat="45.07785" lon="5.53687">
        <ele>939</ele>
        <time>2016-09-11T13:04:23Z</time>
      </trkpt>
      <trkpt lat="45.07793" lon="5.53682">
        <ele>939</ele>
        <time>2016-09-11T13:04:24Z</time>
      </trkpt>
      <trkpt lat="45.07801" lon="5.53676">
        <ele>939</ele>
        <time>2016-09-11T13:04:25Z</time>
      </trkpt>
      <trkpt lat="45.07807" lon="5.53668">
        <ele>938</ele>
        <time>2016-09-11T13:04:26Z</time>
      </trkpt>
      <trkpt lat="45.07813" lon="5.53659">
        <ele>938</ele>
        <time>2016-09-11T13:04:27Z</time>
      </trkpt>
      <trkpt lat="45.07822" lon="5.5364">
        <ele>938</ele>
        <time>2016-09-11T13:04:29Z</time>
      </trkpt>
      <trkpt lat="45.07826" lon="5.5363">
        <ele>938</ele>
        <time>2016-09-11T13:04:30Z</time>
      </trkpt>
      <trkpt lat="45.07832" lon="5.53621">
        <ele>938</ele>
        <time>2016-09-11T13:04:31Z</time>
      </trkpt>
      <trkpt lat="45.07835" lon="5.53611">
        <ele>938</ele>
        <time>2016-09-11T13:04:32Z</time>
      </trkpt>
      <trkpt lat="45.0784" lon="5.53602">
        <ele>938</ele>
        <time>2016-09-11T13:04:33Z</time>
      </trkpt>
      <trkpt lat="45.07845" lon="5.53593">
        <ele>938</ele>
        <time>2016-09-11T13:04:34Z</time>
      </trkpt>
      <trkpt lat="45.0785" lon="5.53584">
        <ele>938</ele>
        <time>2016-09-11T13:04:35Z</time>
      </trkpt>
      <trkpt lat="45.07855" lon="5.53575">
        <ele>938</ele>
        <time>2016-09-11T13:04:36Z</time>
      </trkpt>
      <trkpt lat="45.07859" lon="5.53566">
        <ele>938</ele>
        <time>2016-09-11T13:04:37Z</time>
      </trkpt>
      <trkpt lat="45.07865" lon="5.53557">
        <ele>938</ele>
        <time>2016-09-11T13:04:38Z</time>
      </trkpt>
      <trkpt lat="45.0787" lon="5.53549">
        <ele>938</ele>
        <time>2016-09-11T13:04:39Z</time>
      </trkpt>
      <trkpt lat="45.07875" lon="5.5354">
        <ele>938</ele>
        <time>2016-09-11T13:04:40Z</time>
      </trkpt>
      <trkpt lat="45.07881" lon="5.53531">
        <ele>938</ele>
        <time>2016-09-11T13:04:41Z</time>
      </trkpt>
      <trkpt lat="45.07886" lon="5.53523">
        <ele>937</ele>
        <time>2016-09-11T13:04:42Z</time>
      </trkpt>
      <trkpt lat="45.07892" lon="5.53515">
        <ele>937</ele>
        <time>2016-09-11T13:04:43Z</time>
      </trkpt>
      <trkpt lat="45.07897" lon="5.53507">
        <ele>937</ele>
        <time>2016-09-11T13:04:44Z</time>
      </trkpt>
      <trkpt lat="45.07902" lon="5.53499">
        <ele>937</ele>
        <time>2016-09-11T13:04:45Z</time>
      </trkpt>
      <trkpt lat="45.07907" lon="5.5349">
        <ele>937</ele>
        <time>2016-09-11T13:04:46Z</time>
      </trkpt>
      <trkpt lat="45.07913" lon="5.53482">
        <ele>937</ele>
        <time>2016-09-11T13:04:47Z</time>
      </trkpt>
      <trkpt lat="45.07918" lon="5.53474">
        <ele>937</ele>
        <time>2016-09-11T13:04:48Z</time>
      </trkpt>
      <trkpt lat="45.07924" lon="5.53466">
        <ele>936</ele>
        <time>2016-09-11T13:04:49Z</time>
      </trkpt>
      <trkpt lat="45.0793" lon="5.53458">
        <ele>936</ele>
        <time>2016-09-11T13:04:50Z</time>
      </trkpt>
      <trkpt lat="45.07936" lon="5.53451">
        <ele>936</ele>
        <time>2016-09-11T13:04:51Z</time>
      </trkpt>
      <trkpt lat="45.07943" lon="5.53444">
        <ele>935</ele>
        <time>2016-09-11T13:04:52Z</time>
      </trkpt>
      <trkpt lat="45.07949" lon="5.53437">
        <ele>935</ele>
        <time>2016-09-11T13:04:53Z</time>
      </trkpt>
      <trkpt lat="45.07957" lon="5.5343">
        <ele>935</ele>
        <time>2016-09-11T13:04:54Z</time>
      </trkpt>
      <trkpt lat="45.07965" lon="5.53423">
        <ele>935</ele>
        <time>2016-09-11T13:04:55Z</time>
      </trkpt>
      <trkpt lat="45.07974" lon="5.53417">
        <ele>935</ele>
        <time>2016-09-11T13:04:56Z</time>
      </trkpt>
      <trkpt lat="45.07983" lon="5.53411">
        <ele>934</ele>
        <time>2016-09-11T13:04:57Z</time>
      </trkpt>
      <trkpt lat="45.07991" lon="5.53405">
        <ele>934</ele>
        <time>2016-09-11T13:04:58Z</time>
      </trkpt>
      <trkpt lat="45.08" lon="5.53399">
        <ele>934</ele>
        <time>2016-09-11T13:04:59Z</time>
      </trkpt>
      <trkpt lat="45.08009" lon="5.53393">
        <ele>934</ele>
        <time>2016-09-11T13:05:00Z</time>
      </trkpt>
      <trkpt lat="45.08018" lon="5.53387">
        <ele>933</ele>
        <time>2016-09-11T13:05:01Z</time>
      </trkpt>
      <trkpt lat="45.08026" lon="5.53382">
        <ele>933</ele>
        <time>2016-09-11T13:05:02Z</time>
      </trkpt>
      <trkpt lat="45.08035" lon="5.53376">
        <ele>933</ele>
        <time>2016-09-11T13:05:03Z</time>
      </trkpt>
      <trkpt lat="45.08044" lon="5.5337">
        <ele>933</ele>
        <time>2016-09-11T13:05:04Z</time>
      </trkpt>
      <trkpt lat="45.08052" lon="5.53364">
        <ele>932</ele>
        <time>2016-09-11T13:05:05Z</time>
      </trkpt>
      <trkpt lat="45.08061" lon="5.53359">
        <ele>931</ele>
        <time>2016-09-11T13:05:06Z</time>
      </trkpt>
      <trkpt lat="45.08069" lon="5.53353">
        <ele>931</ele>
        <time>2016-09-11T13:05:07Z</time>
      </trkpt>
      <trkpt lat="45.08077" lon="5.53347">
        <ele>930</ele>
        <time>2016-09-11T13:05:08Z</time>
      </trkpt>
      <trkpt lat="45.08085" lon="5.53342">
        <ele>930</ele>
        <time>2016-09-11T13:05:09Z</time>
      </trkpt>
      <trkpt lat="45.08094" lon="5.53337">
        <ele>930</ele>
        <time>2016-09-11T13:05:10Z</time>
      </trkpt>
      <trkpt lat="45.08102" lon="5.53332">
        <ele>930</ele>
        <time>2016-09-11T13:05:11Z</time>
      </trkpt>
      <trkpt lat="45.0811" lon="5.53327">
        <ele>930</ele>
        <time>2016-09-11T13:05:12Z</time>
      </trkpt>
      <trkpt lat="45.08119" lon="5.53322">
        <ele>930</ele>
        <time>2016-09-11T13:05:13Z</time>
      </trkpt>
      <trkpt lat="45.08128" lon="5.53318">
        <ele>930</ele>
        <time>2016-09-11T13:05:14Z</time>
      </trkpt>
      <trkpt lat="45.08136" lon="5.53313">
        <ele>929</ele>
        <time>2016-09-11T13:05:15Z</time>
      </trkpt>
      <trkpt lat="45.08144" lon="5.53309">
        <ele>929</ele>
        <time>2016-09-11T13:05:16Z</time>
      </trkpt>
      <trkpt lat="45.08152" lon="5.53305">
        <ele>929</ele>
        <time>2016-09-11T13:05:17Z</time>
      </trkpt>
      <trkpt lat="45.0816" lon="5.53301">
        <ele>929</ele>
        <time>2016-09-11T13:05:18Z</time>
      </trkpt>
      <trkpt lat="45.08168" lon="5.53297">
        <ele>930</ele>
        <time>2016-09-11T13:05:19Z</time>
      </trkpt>
      <trkpt lat="45.08176" lon="5.53292">
        <ele>930</ele>
        <time>2016-09-11T13:05:20Z</time>
      </trkpt>
      <trkpt lat="45.08184" lon="5.53287">
        <ele>930</ele>
        <time>2016-09-11T13:05:21Z</time>
      </trkpt>
      <trkpt lat="45.08192" lon="5.53281">
        <ele>929</ele>
        <time>2016-09-11T13:05:22Z</time>
      </trkpt>
      <trkpt lat="45.082" lon="5.53275">
        <ele>929</ele>
        <time>2016-09-11T13:05:23Z</time>
      </trkpt>
      <trkpt lat="45.08208" lon="5.53269">
        <ele>928</ele>
        <time>2016-09-11T13:05:24Z</time>
      </trkpt>
      <trkpt lat="45.08215" lon="5.53263">
        <ele>928</ele>
        <time>2016-09-11T13:05:25Z</time>
      </trkpt>
      <trkpt lat="45.08223" lon="5.53257">
        <ele>928</ele>
        <time>2016-09-11T13:05:26Z</time>
      </trkpt>
      <trkpt lat="45.0823" lon="5.53251">
        <ele>928</ele>
        <time>2016-09-11T13:05:27Z</time>
      </trkpt>
      <trkpt lat="45.08237" lon="5.53244">
        <ele>928</ele>
        <time>2016-09-11T13:05:28Z</time>
      </trkpt>
      <trkpt lat="45.08244" lon="5.53238">
        <ele>928</ele>
        <time>2016-09-11T13:05:29Z</time>
      </trkpt>
      <trkpt lat="45.08252" lon="5.53231">
        <ele>928</ele>
        <time>2016-09-11T13:05:30Z</time>
      </trkpt>
      <trkpt lat="45.08259" lon="5.53224">
        <ele>928</ele>
        <time>2016-09-11T13:05:31Z</time>
      </trkpt>
      <trkpt lat="45.08266" lon="5.53219">
        <ele>928</ele>
        <time>2016-09-11T13:05:32Z</time>
      </trkpt>
      <trkpt lat="45.08274" lon="5.53213">
        <ele>928</ele>
        <time>2016-09-11T13:05:33Z</time>
      </trkpt>
      <trkpt lat="45.08281" lon="5.53206">
        <ele>927</ele>
        <time>2016-09-11T13:05:34Z</time>
      </trkpt>
      <trkpt lat="45.08291" lon="5.53198">
        <ele>927</ele>
        <time>2016-09-11T13:05:36Z</time>
      </trkpt>
      <trkpt lat="45.083" lon="5.53186">
        <ele>927</ele>
        <time>2016-09-11T13:05:37Z</time>
      </trkpt>
      <trkpt lat="45.08307" lon="5.53179">
        <ele>927</ele>
        <time>2016-09-11T13:05:38Z</time>
      </trkpt>
      <trkpt lat="45.08313" lon="5.53174">
        <ele>926</ele>
        <time>2016-09-11T13:05:39Z</time>
      </trkpt>
      <trkpt lat="45.0832" lon="5.53167">
        <ele>926</ele>
        <time>2016-09-11T13:05:40Z</time>
      </trkpt>
      <trkpt lat="45.08327" lon="5.53161">
        <ele>926</ele>
        <time>2016-09-11T13:05:41Z</time>
      </trkpt>
      <trkpt lat="45.08334" lon="5.53154">
        <ele>926</ele>
        <time>2016-09-11T13:05:42Z</time>
      </trkpt>
      <trkpt lat="45.08339" lon="5.53149">
        <ele>925</ele>
        <time>2016-09-11T13:05:43Z</time>
      </trkpt>
      <trkpt lat="45.08347" lon="5.53141">
        <ele>925</ele>
        <time>2016-09-11T13:05:44Z</time>
      </trkpt>
      <trkpt lat="45.08354" lon="5.53133">
        <ele>925</ele>
        <time>2016-09-11T13:05:45Z</time>
      </trkpt>
      <trkpt lat="45.08361" lon="5.53126">
        <ele>925</ele>
        <time>2016-09-11T13:05:46Z</time>
      </trkpt>
      <trkpt lat="45.08367" lon="5.53118">
        <ele>925</ele>
        <time>2016-09-11T13:05:47Z</time>
      </trkpt>
      <trkpt lat="45.08375" lon="5.5311">
        <ele>926</ele>
        <time>2016-09-11T13:05:48Z</time>
      </trkpt>
      <trkpt lat="45.08382" lon="5.53103">
        <ele>926</ele>
        <time>2016-09-11T13:05:49Z</time>
      </trkpt>
      <trkpt lat="45.08389" lon="5.53096">
        <ele>926</ele>
        <time>2016-09-11T13:05:50Z</time>
      </trkpt>
      <trkpt lat="45.08395" lon="5.53088">
        <ele>926</ele>
        <time>2016-09-11T13:05:51Z</time>
      </trkpt>
      <trkpt lat="45.08401" lon="5.5308">
        <ele>926</ele>
        <time>2016-09-11T13:05:52Z</time>
      </trkpt>
      <trkpt lat="45.08408" lon="5.53073">
        <ele>927</ele>
        <time>2016-09-11T13:05:53Z</time>
      </trkpt>
      <trkpt lat="45.08413" lon="5.53064">
        <ele>927</ele>
        <time>2016-09-11T13:05:54Z</time>
      </trkpt>
      <trkpt lat="45.08418" lon="5.53055">
        <ele>928</ele>
        <time>2016-09-11T13:05:55Z</time>
      </trkpt>
      <trkpt lat="45.08423" lon="5.53046">
        <ele>928</ele>
        <time>2016-09-11T13:05:56Z</time>
      </trkpt>
      <trkpt lat="45.08427" lon="5.53037">
        <ele>928</ele>
        <time>2016-09-11T13:05:57Z</time>
      </trkpt>
      <trkpt lat="45.08431" lon="5.53027">
        <ele>928</ele>
        <time>2016-09-11T13:05:58Z</time>
      </trkpt>
      <trkpt lat="45.08434" lon="5.53018">
        <ele>927</ele>
        <time>2016-09-11T13:05:59Z</time>
      </trkpt>
      <trkpt lat="45.08437" lon="5.53008">
        <ele>927</ele>
        <time>2016-09-11T13:06:00Z</time>
      </trkpt>
      <trkpt lat="45.08442" lon="5.52997">
        <ele>927</ele>
        <time>2016-09-11T13:06:01Z</time>
      </trkpt>
      <trkpt lat="45.08446" lon="5.52986">
        <ele>927</ele>
        <time>2016-09-11T13:06:02Z</time>
      </trkpt>
      <trkpt lat="45.08448" lon="5.52974">
        <ele>927</ele>
        <time>2016-09-11T13:06:03Z</time>
      </trkpt>
      <trkpt lat="45.0845" lon="5.52963">
        <ele>926</ele>
        <time>2016-09-11T13:06:04Z</time>
      </trkpt>
      <trkpt lat="45.08452" lon="5.52951">
        <ele>926</ele>
        <time>2016-09-11T13:06:05Z</time>
      </trkpt>
      <trkpt lat="45.08453" lon="5.52939">
        <ele>926</ele>
        <time>2016-09-11T13:06:06Z</time>
      </trkpt>
      <trkpt lat="45.08454" lon="5.52927">
        <ele>926</ele>
        <time>2016-09-11T13:06:07Z</time>
      </trkpt>
      <trkpt lat="45.08455" lon="5.52916">
        <ele>926</ele>
        <time>2016-09-11T13:06:08Z</time>
      </trkpt>
      <trkpt lat="45.08456" lon="5.52905">
        <ele>926</ele>
        <time>2016-09-11T13:06:09Z</time>
      </trkpt>
      <trkpt lat="45.08458" lon="5.52896">
        <ele>926</ele>
        <time>2016-09-11T13:06:10Z</time>
      </trkpt>
      <trkpt lat="45.08458" lon="5.52886">
        <ele>926</ele>
        <time>2016-09-11T13:06:11Z</time>
      </trkpt>
      <trkpt lat="45.0846" lon="5.52876">
        <ele>927</ele>
        <time>2016-09-11T13:06:12Z</time>
      </trkpt>
      <trkpt lat="45.08461" lon="5.52867">
        <ele>927</ele>
        <time>2016-09-11T13:06:13Z</time>
      </trkpt>
      <trkpt lat="45.08463" lon="5.52858">
        <ele>927</ele>
        <time>2016-09-11T13:06:14Z</time>
      </trkpt>
      <trkpt lat="45.08466" lon="5.52848">
        <ele>927</ele>
        <time>2016-09-11T13:06:15Z</time>
      </trkpt>
      <trkpt lat="45.08472" lon="5.52831">
        <ele>928</ele>
        <time>2016-09-11T13:06:17Z</time>
      </trkpt>
      <trkpt lat="45.08474" lon="5.52822">
        <ele>928</ele>
        <time>2016-09-11T13:06:18Z</time>
      </trkpt>
      <trkpt lat="45.08476" lon="5.52813">
        <ele>928</ele>
        <time>2016-09-11T13:06:19Z</time>
      </trkpt>
      <trkpt lat="45.08478" lon="5.52803">
        <ele>928</ele>
        <time>2016-09-11T13:06:20Z</time>
      </trkpt>
      <trkpt lat="45.0848" lon="5.52793">
        <ele>929</ele>
        <time>2016-09-11T13:06:21Z</time>
      </trkpt>
      <trkpt lat="45.08482" lon="5.52784">
        <ele>929</ele>
        <time>2016-09-11T13:06:22Z</time>
      </trkpt>
      <trkpt lat="45.08483" lon="5.52775">
        <ele>929</ele>
        <time>2016-09-11T13:06:23Z</time>
      </trkpt>
      <trkpt lat="45.08485" lon="5.52765">
        <ele>930</ele>
        <time>2016-09-11T13:06:24Z</time>
      </trkpt>
      <trkpt lat="45.08488" lon="5.52755">
        <ele>930</ele>
        <time>2016-09-11T13:06:25Z</time>
      </trkpt>
      <trkpt lat="45.0849" lon="5.52746">
        <ele>931</ele>
        <time>2016-09-11T13:06:26Z</time>
      </trkpt>
      <trkpt lat="45.08492" lon="5.52736">
        <ele>931</ele>
        <time>2016-09-11T13:06:27Z</time>
      </trkpt>
      <trkpt lat="45.08495" lon="5.52727">
        <ele>931</ele>
        <time>2016-09-11T13:06:28Z</time>
      </trkpt>
      <trkpt lat="45.08498" lon="5.52717">
        <ele>930</ele>
        <time>2016-09-11T13:06:29Z</time>
      </trkpt>
      <trkpt lat="45.085" lon="5.52708">
        <ele>930</ele>
        <time>2016-09-11T13:06:30Z</time>
      </trkpt>
      <trkpt lat="45.08503" lon="5.52699">
        <ele>929</ele>
        <time>2016-09-11T13:06:31Z</time>
      </trkpt>
      <trkpt lat="45.08506" lon="5.52689">
        <ele>929</ele>
        <time>2016-09-11T13:06:32Z</time>
      </trkpt>
      <trkpt lat="45.08509" lon="5.52679">
        <ele>929</ele>
        <time>2016-09-11T13:06:33Z</time>
      </trkpt>
      <trkpt lat="45.08511" lon="5.52669">
        <ele>929</ele>
        <time>2016-09-11T13:06:34Z</time>
      </trkpt>
      <trkpt lat="45.08514" lon="5.52659">
        <ele>929</ele>
        <time>2016-09-11T13:06:35Z</time>
      </trkpt>
      <trkpt lat="45.08517" lon="5.52649">
        <ele>929</ele>
        <time>2016-09-11T13:06:36Z</time>
      </trkpt>
      <trkpt lat="45.08519" lon="5.52639">
        <ele>929</ele>
        <time>2016-09-11T13:06:37Z</time>
      </trkpt>
      <trkpt lat="45.08522" lon="5.52628">
        <ele>929</ele>
        <time>2016-09-11T13:06:38Z</time>
      </trkpt>
      <trkpt lat="45.08525" lon="5.52618">
        <ele>929</ele>
        <time>2016-09-11T13:06:39Z</time>
      </trkpt>
      <trkpt lat="45.08528" lon="5.52608">
        <ele>929</ele>
        <time>2016-09-11T13:06:40Z</time>
      </trkpt>
      <trkpt lat="45.0853" lon="5.52597">
        <ele>929</ele>
        <time>2016-09-11T13:06:41Z</time>
      </trkpt>
      <trkpt lat="45.08534" lon="5.52586">
        <ele>929</ele>
        <time>2016-09-11T13:06:42Z</time>
      </trkpt>
      <trkpt lat="45.08536" lon="5.52575">
        <ele>929</ele>
        <time>2016-09-11T13:06:43Z</time>
      </trkpt>
      <trkpt lat="45.08538" lon="5.52565">
        <ele>928</ele>
        <time>2016-09-11T13:06:44Z</time>
      </trkpt>
      <trkpt lat="45.0854" lon="5.52554">
        <ele>928</ele>
        <time>2016-09-11T13:06:45Z</time>
      </trkpt>
      <trkpt lat="45.08542" lon="5.52543">
        <ele>927</ele>
        <time>2016-09-11T13:06:46Z</time>
      </trkpt>
      <trkpt lat="45.08545" lon="5.52533">
        <ele>927</ele>
        <time>2016-09-11T13:06:47Z</time>
      </trkpt>
      <trkpt lat="45.08548" lon="5.52524">
        <ele>927</ele>
        <time>2016-09-11T13:06:48Z</time>
      </trkpt>
      <trkpt lat="45.08551" lon="5.52515">
        <ele>927</ele>
        <time>2016-09-11T13:06:49Z</time>
      </trkpt>
      <trkpt lat="45.08555" lon="5.52505">
        <ele>927</ele>
        <time>2016-09-11T13:06:50Z</time>
      </trkpt>
      <trkpt lat="45.08557" lon="5.52495">
        <ele>928</ele>
        <time>2016-09-11T13:06:51Z</time>
      </trkpt>
      <trkpt lat="45.0856" lon="5.52485">
        <ele>928</ele>
        <time>2016-09-11T13:06:52Z</time>
      </trkpt>
      <trkpt lat="45.08562" lon="5.52476">
        <ele>929</ele>
        <time>2016-09-11T13:06:53Z</time>
      </trkpt>
      <trkpt lat="45.08564" lon="5.52467">
        <ele>929</ele>
        <time>2016-09-11T13:06:54Z</time>
      </trkpt>
      <trkpt lat="45.08566" lon="5.52459">
        <ele>929</ele>
        <time>2016-09-11T13:06:55Z</time>
      </trkpt>
      <trkpt lat="45.08568" lon="5.52451">
        <ele>930</ele>
        <time>2016-09-11T13:06:56Z</time>
      </trkpt>
      <trkpt lat="45.08572" lon="5.52444">
        <ele>930</ele>
        <time>2016-09-11T13:06:57Z</time>
      </trkpt>
      <trkpt lat="45.08575" lon="5.52439">
        <ele>930</ele>
        <time>2016-09-11T13:06:58Z</time>
      </trkpt>
      <trkpt lat="45.08578" lon="5.52434">
        <ele>930</ele>
        <time>2016-09-11T13:06:59Z</time>
      </trkpt>
      <trkpt lat="45.0858" lon="5.52428">
        <ele>930</ele>
        <time>2016-09-11T13:07:00Z</time>
      </trkpt>
      <trkpt lat="45.08582" lon="5.52419">
        <ele>930</ele>
        <time>2016-09-11T13:07:02Z</time>
      </trkpt>
      <trkpt lat="45.08581" lon="5.52411">
        <ele>931</ele>
        <time>2016-09-11T13:07:04Z</time>
      </trkpt>
      <trkpt lat="45.0858" lon="5.52403">
        <ele>931</ele>
        <time>2016-09-11T13:07:06Z</time>
      </trkpt>
      <trkpt lat="45.08582" lon="5.52396">
        <ele>931</ele>
        <time>2016-09-11T13:07:08Z</time>
      </trkpt>
      <trkpt lat="45.08583" lon="5.5239">
        <ele>931</ele>
        <time>2016-09-11T13:07:10Z</time>
      </trkpt>
      <trkpt lat="45.08585" lon="5.52381">
        <ele>932</ele>
        <time>2016-09-11T13:07:13Z</time>
      </trkpt>
      <trkpt lat="45.08587" lon="5.52374">
        <ele>931</ele>
        <time>2016-09-11T13:07:15Z</time>
      </trkpt>
      <trkpt lat="45.08588" lon="5.52368">
        <ele>931</ele>
        <time>2016-09-11T13:07:17Z</time>
      </trkpt>
      <trkpt lat="45.0859" lon="5.52359">
        <ele>931</ele>
        <time>2016-09-11T13:07:20Z</time>
      </trkpt>
      <trkpt lat="45.08592" lon="5.52353">
        <ele>932</ele>
        <time>2016-09-11T13:07:23Z</time>
      </trkpt>
      <trkpt lat="45.08594" lon="5.52345">
        <ele>932</ele>
        <time>2016-09-11T13:07:26Z</time>
      </trkpt>
      <trkpt lat="45.08595" lon="5.52336">
        <ele>932</ele>
        <time>2016-09-11T13:07:29Z</time>
      </trkpt>
      <trkpt lat="45.08596" lon="5.52328">
        <ele>933</ele>
        <time>2016-09-11T13:07:32Z</time>
      </trkpt>
      <trkpt lat="45.08598" lon="5.52321">
        <ele>934</ele>
        <time>2016-09-11T13:07:35Z</time>
      </trkpt>
      <trkpt lat="45.086" lon="5.52312">
        <ele>934</ele>
        <time>2016-09-11T13:07:38Z</time>
      </trkpt>
      <trkpt lat="45.08601" lon="5.52303">
        <ele>934</ele>
        <time>2016-09-11T13:07:41Z</time>
      </trkpt>
      <trkpt lat="45.08604" lon="5.52295">
        <ele>935</ele>
        <time>2016-09-11T13:07:44Z</time>
      </trkpt>
      <trkpt lat="45.08605" lon="5.52288">
        <ele>935</ele>
        <time>2016-09-11T13:07:47Z</time>
      </trkpt>
      <trkpt lat="45.08606" lon="5.5228">
        <ele>935</ele>
        <time>2016-09-11T13:07:50Z</time>
      </trkpt>
      <trkpt lat="45.08604" lon="5.52273">
        <ele>936</ele>
        <time>2016-09-11T13:07:53Z</time>
      </trkpt>
      <trkpt lat="45.086" lon="5.52275">
        <ele>936</ele>
        <time>2016-09-11T13:07:56Z</time>
      </trkpt>
      <trkpt lat="45.086" lon="5.52283">
        <ele>936</ele>
        <time>2016-09-11T13:07:58Z</time>
      </trkpt>
      <trkpt lat="45.086" lon="5.52291">
        <ele>935</ele>
        <time>2016-09-11T13:08:00Z</time>
      </trkpt>
      <trkpt lat="45.08599" lon="5.52299">
        <ele>935</ele>
        <time>2016-09-11T13:08:02Z</time>
      </trkpt>
      <trkpt lat="45.08597" lon="5.52307">
        <ele>934</ele>
        <time>2016-09-11T13:08:04Z</time>
      </trkpt>
      <trkpt lat="45.08596" lon="5.52316">
        <ele>934</ele>
        <time>2016-09-11T13:08:06Z</time>
      </trkpt>
      <trkpt lat="45.08594" lon="5.52324">
        <ele>934</ele>
        <time>2016-09-11T13:08:08Z</time>
      </trkpt>
      <trkpt lat="45.08592" lon="5.52333">
        <ele>934</ele>
        <time>2016-09-11T13:08:10Z</time>
      </trkpt>
      <trkpt lat="45.0859" lon="5.52343">
        <ele>934</ele>
        <time>2016-09-11T13:08:12Z</time>
      </trkpt>
      <trkpt lat="45.08588" lon="5.52353">
        <ele>934</ele>
        <time>2016-09-11T13:08:14Z</time>
      </trkpt>
      <trkpt lat="45.08585" lon="5.52363">
        <ele>934</ele>
        <time>2016-09-11T13:08:16Z</time>
      </trkpt>
      <trkpt lat="45.08583" lon="5.52374">
        <ele>934</ele>
        <time>2016-09-11T13:08:18Z</time>
      </trkpt>
      <trkpt lat="45.0858" lon="5.52384">
        <ele>933</ele>
        <time>2016-09-11T13:08:20Z</time>
      </trkpt>
      <trkpt lat="45.08579" lon="5.52395">
        <ele>933</ele>
        <time>2016-09-11T13:08:22Z</time>
      </trkpt>
      <trkpt lat="45.08577" lon="5.52405">
        <ele>933</ele>
        <time>2016-09-11T13:08:24Z</time>
      </trkpt>
      <trkpt lat="45.08576" lon="5.52416">
        <ele>933</ele>
        <time>2016-09-11T13:08:26Z</time>
      </trkpt>
      <trkpt lat="45.08575" lon="5.52426">
        <ele>933</ele>
        <time>2016-09-11T13:08:28Z</time>
      </trkpt>
      <trkpt lat="45.08579" lon="5.52431">
        <ele>933</ele>
        <time>2016-09-11T13:08:30Z</time>
      </trkpt>
      <trkpt lat="45.08584" lon="5.52428">
        <ele>932</ele>
        <time>2016-09-11T13:08:32Z</time>
      </trkpt>
      <trkpt lat="45.08586" lon="5.52419">
        <ele>932</ele>
        <time>2016-09-11T13:08:34Z</time>
      </trkpt>
      <trkpt lat="45.08585" lon="5.52412">
        <ele>931</ele>
        <time>2016-09-11T13:08:36Z</time>
      </trkpt>
      <trkpt lat="45.08584" lon="5.52405">
        <ele>931</ele>
        <time>2016-09-11T13:08:38Z</time>
      </trkpt>
      <trkpt lat="45.08584" lon="5.52396">
        <ele>931</ele>
        <time>2016-09-11T13:08:40Z</time>
      </trkpt>
      <trkpt lat="45.08585" lon="5.52385">
        <ele>931</ele>
        <time>2016-09-11T13:08:42Z</time>
      </trkpt>
      <trkpt lat="45.08586" lon="5.52375">
        <ele>931</ele>
        <time>2016-09-11T13:08:44Z</time>
      </trkpt>
      <trkpt lat="45.08588" lon="5.52365">
        <ele>932</ele>
        <time>2016-09-11T13:08:46Z</time>
      </trkpt>
      <trkpt lat="45.0859" lon="5.52354">
        <ele>932</ele>
        <time>2016-09-11T13:08:48Z</time>
      </trkpt>
      <trkpt lat="45.08593" lon="5.52343">
        <ele>932</ele>
        <time>2016-09-11T13:08:50Z</time>
      </trkpt>
      <trkpt lat="45.08596" lon="5.52332">
        <ele>932</ele>
        <time>2016-09-11T13:08:52Z</time>
      </trkpt>
      <trkpt lat="45.08598" lon="5.52321">
        <ele>932</ele>
        <time>2016-09-11T13:08:54Z</time>
      </trkpt>
      <trkpt lat="45.08601" lon="5.52309">
        <ele>933</ele>
        <time>2016-09-11T13:08:56Z</time>
      </trkpt>
      <trkpt lat="45.08604" lon="5.52296">
        <ele>933</ele>
        <time>2016-09-11T13:08:58Z</time>
      </trkpt>
      <trkpt lat="45.08605" lon="5.52289">
        <ele>933</ele>
        <time>2016-09-11T13:08:59Z</time>
      </trkpt>
      <trkpt lat="45.08605" lon="5.52281">
        <ele>933</ele>
        <time>2016-09-11T13:09:00Z</time>
      </trkpt>
      <trkpt lat="45.08603" lon="5.52273">
        <ele>933</ele>
        <time>2016-09-11T13:09:01Z</time>
      </trkpt>
      <trkpt lat="45.08602" lon="5.52266">
        <ele>933</ele>
        <time>2016-09-11T13:09:02Z</time>
      </trkpt>
      <trkpt lat="45.086" lon="5.5226">
        <ele>933</ele>
        <time>2016-09-11T13:09:03Z</time>
      </trkpt>
      <trkpt lat="45.08598" lon="5.52253">
        <ele>933</ele>
        <time>2016-09-11T13:09:04Z</time>
      </trkpt>
      <trkpt lat="45.08595" lon="5.52247">
        <ele>933</ele>
        <time>2016-09-11T13:09:05Z</time>
      </trkpt>
      <trkpt lat="45.08592" lon="5.52241">
        <ele>933</ele>
        <time>2016-09-11T13:09:06Z</time>
      </trkpt>
      <trkpt lat="45.08588" lon="5.52236">
        <ele>933</ele>
        <time>2016-09-11T13:09:07Z</time>
      </trkpt>
      <trkpt lat="45.08585" lon="5.52231">
        <ele>933</ele>
        <time>2016-09-11T13:09:08Z</time>
      </trkpt>
      <trkpt lat="45.0858" lon="5.52225">
        <ele>933</ele>
        <time>2016-09-11T13:09:09Z</time>
      </trkpt>
      <trkpt lat="45.08576" lon="5.5222">
        <ele>933</ele>
        <time>2016-09-11T13:09:10Z</time>
      </trkpt>
      <trkpt lat="45.08572" lon="5.52216">
        <ele>933</ele>
        <time>2016-09-11T13:09:11Z</time>
      </trkpt>
      <trkpt lat="45.08568" lon="5.52211">
        <ele>933</ele>
        <time>2016-09-11T13:09:12Z</time>
      </trkpt>
      <trkpt lat="45.08563" lon="5.52206">
        <ele>934</ele>
        <time>2016-09-11T13:09:13Z</time>
      </trkpt>
      <trkpt lat="45.08559" lon="5.52201">
        <ele>934</ele>
        <time>2016-09-11T13:09:14Z</time>
      </trkpt>
      <trkpt lat="45.08555" lon="5.52196">
        <ele>934</ele>
        <time>2016-09-11T13:09:15Z</time>
      </trkpt>
      <trkpt lat="45.08551" lon="5.52191">
        <ele>934</ele>
        <time>2016-09-11T13:09:16Z</time>
      </trkpt>
      <trkpt lat="45.08547" lon="5.52185">
        <ele>934</ele>
        <time>2016-09-11T13:09:17Z</time>
      </trkpt>
      <trkpt lat="45.08543" lon="5.52178">
        <ele>935</ele>
        <time>2016-09-11T13:09:18Z</time>
      </trkpt>
      <trkpt lat="45.0854" lon="5.52172">
        <ele>935</ele>
        <time>2016-09-11T13:09:19Z</time>
      </trkpt>
      <trkpt lat="45.08537" lon="5.52164">
        <ele>935</ele>
        <time>2016-09-11T13:09:20Z</time>
      </trkpt>
      <trkpt lat="45.08534" lon="5.52157">
        <ele>935</ele>
        <time>2016-09-11T13:09:21Z</time>
      </trkpt>
      <trkpt lat="45.0853" lon="5.52149">
        <ele>935</ele>
        <time>2016-09-11T13:09:22Z</time>
      </trkpt>
      <trkpt lat="45.08526" lon="5.52141">
        <ele>935</ele>
        <time>2016-09-11T13:09:23Z</time>
      </trkpt>
      <trkpt lat="45.08522" lon="5.52133">
        <ele>935</ele>
        <time>2016-09-11T13:09:24Z</time>
      </trkpt>
      <trkpt lat="45.08518" lon="5.52124">
        <ele>935</ele>
        <time>2016-09-11T13:09:25Z</time>
      </trkpt>
      <trkpt lat="45.08514" lon="5.52117">
        <ele>935</ele>
        <time>2016-09-11T13:09:26Z</time>
      </trkpt>
      <trkpt lat="45.08509" lon="5.5211">
        <ele>935</ele>
        <time>2016-09-11T13:09:27Z</time>
      </trkpt>
      <trkpt lat="45.08503" lon="5.52102">
        <ele>935</ele>
        <time>2016-09-11T13:09:28Z</time>
      </trkpt>
      <trkpt lat="45.08498" lon="5.52095">
        <ele>935</ele>
        <time>2016-09-11T13:09:29Z</time>
      </trkpt>
      <trkpt lat="45.08494" lon="5.52089">
        <ele>935</ele>
        <time>2016-09-11T13:09:30Z</time>
      </trkpt>
      <trkpt lat="45.0849" lon="5.5208">
        <ele>935</ele>
        <time>2016-09-11T13:09:31Z</time>
      </trkpt>
      <trkpt lat="45.08485" lon="5.52072">
        <ele>934</ele>
        <time>2016-09-11T13:09:32Z</time>
      </trkpt>
      <trkpt lat="45.08481" lon="5.52063">
        <ele>934</ele>
        <time>2016-09-11T13:09:33Z</time>
      </trkpt>
      <trkpt lat="45.08476" lon="5.52055">
        <ele>934</ele>
        <time>2016-09-11T13:09:34Z</time>
      </trkpt>
      <trkpt lat="45.08471" lon="5.52047">
        <ele>934</ele>
        <time>2016-09-11T13:09:35Z</time>
      </trkpt>
      <trkpt lat="45.08465" lon="5.5204">
        <ele>934</ele>
        <time>2016-09-11T13:09:36Z</time>
      </trkpt>
      <trkpt lat="45.0846" lon="5.52033">
        <ele>934</ele>
        <time>2016-09-11T13:09:37Z</time>
      </trkpt>
      <trkpt lat="45.08454" lon="5.52027">
        <ele>934</ele>
        <time>2016-09-11T13:09:38Z</time>
      </trkpt>
      <trkpt lat="45.08447" lon="5.52024">
        <ele>935</ele>
        <time>2016-09-11T13:09:39Z</time>
      </trkpt>
      <trkpt lat="45.08441" lon="5.52023">
        <ele>935</ele>
        <time>2016-09-11T13:09:40Z</time>
      </trkpt>
      <trkpt lat="45.08434" lon="5.52024">
        <ele>935</ele>
        <time>2016-09-11T13:09:41Z</time>
      </trkpt>
      <trkpt lat="45.08427" lon="5.52025">
        <ele>935</ele>
        <time>2016-09-11T13:09:42Z</time>
      </trkpt>
      <trkpt lat="45.08421" lon="5.52027">
        <ele>934</ele>
        <time>2016-09-11T13:09:43Z</time>
      </trkpt>
      <trkpt lat="45.08414" lon="5.52028">
        <ele>934</ele>
        <time>2016-09-11T13:09:44Z</time>
      </trkpt>
      <trkpt lat="45.08406" lon="5.52027">
        <ele>933</ele>
        <time>2016-09-11T13:09:45Z</time>
      </trkpt>
      <trkpt lat="45.08398" lon="5.52025">
        <ele>933</ele>
        <time>2016-09-11T13:09:46Z</time>
      </trkpt>
      <trkpt lat="45.0839" lon="5.52022">
        <ele>932</ele>
        <time>2016-09-11T13:09:47Z</time>
      </trkpt>
      <trkpt lat="45.08385" lon="5.5202">
        <ele>932</ele>
        <time>2016-09-11T13:09:48Z</time>
      </trkpt>
      <trkpt lat="45.08379" lon="5.52015">
        <ele>932</ele>
        <time>2016-09-11T13:09:49Z</time>
      </trkpt>
      <trkpt lat="45.0837" lon="5.52011">
        <ele>932</ele>
        <time>2016-09-11T13:09:50Z</time>
      </trkpt>
      <trkpt lat="45.08363" lon="5.52007">
        <ele>931</ele>
        <time>2016-09-11T13:09:51Z</time>
      </trkpt>
      <trkpt lat="45.08354" lon="5.52001">
        <ele>931</ele>
        <time>2016-09-11T13:09:52Z</time>
      </trkpt>
      <trkpt lat="45.08343" lon="5.51995">
        <ele>931</ele>
        <time>2016-09-11T13:09:53Z</time>
      </trkpt>
      <trkpt lat="45.08333" lon="5.51993">
        <ele>930</ele>
        <time>2016-09-11T13:09:54Z</time>
      </trkpt>
      <trkpt lat="45.08329" lon="5.51997">
        <ele>930</ele>
        <time>2016-09-11T13:09:55Z</time>
      </trkpt>
      <trkpt lat="45.08321" lon="5.51996">
        <ele>930</ele>
        <time>2016-09-11T13:09:56Z</time>
      </trkpt>
      <trkpt lat="45.08313" lon="5.51998">
        <ele>930</ele>
        <time>2016-09-11T13:09:57Z</time>
      </trkpt>
      <trkpt lat="45.08305" lon="5.52001">
        <ele>930</ele>
        <time>2016-09-11T13:09:58Z</time>
      </trkpt>
      <trkpt lat="45.08299" lon="5.52005">
        <ele>929</ele>
        <time>2016-09-11T13:09:59Z</time>
      </trkpt>
      <trkpt lat="45.08293" lon="5.52008">
        <ele>929</ele>
        <time>2016-09-11T13:10:00Z</time>
      </trkpt>
      <trkpt lat="45.08285" lon="5.52011">
        <ele>929</ele>
        <time>2016-09-11T13:10:01Z</time>
      </trkpt>
      <trkpt lat="45.08276" lon="5.52016">
        <ele>929</ele>
        <time>2016-09-11T13:10:02Z</time>
      </trkpt>
      <trkpt lat="45.0827" lon="5.52019">
        <ele>929</ele>
        <time>2016-09-11T13:10:03Z</time>
      </trkpt>
      <trkpt lat="45.08264" lon="5.52025">
        <ele>929</ele>
        <time>2016-09-11T13:10:04Z</time>
      </trkpt>
      <trkpt lat="45.08252" lon="5.52036">
        <ele>930</ele>
        <time>2016-09-11T13:10:06Z</time>
      </trkpt>
      <trkpt lat="45.08249" lon="5.52043">
        <ele>930</ele>
        <time>2016-09-11T13:10:07Z</time>
      </trkpt>
      <trkpt lat="45.08244" lon="5.52049">
        <ele>930</ele>
        <time>2016-09-11T13:10:08Z</time>
      </trkpt>
      <trkpt lat="45.08239" lon="5.52058">
        <ele>931</ele>
        <time>2016-09-11T13:10:09Z</time>
      </trkpt>
      <trkpt lat="45.08235" lon="5.52066">
        <ele>932</ele>
        <time>2016-09-11T13:10:10Z</time>
      </trkpt>
      <trkpt lat="45.0823" lon="5.52073">
        <ele>932</ele>
        <time>2016-09-11T13:10:11Z</time>
      </trkpt>
      <trkpt lat="45.08226" lon="5.52083">
        <ele>933</ele>
        <time>2016-09-11T13:10:12Z</time>
      </trkpt>
      <trkpt lat="45.08233" lon="5.52093">
        <ele>933</ele>
        <time>2016-09-11T13:10:13Z</time>
      </trkpt>
      <trkpt lat="45.08225" lon="5.52104">
        <ele>933</ele>
        <time>2016-09-11T13:10:14Z</time>
      </trkpt>
      <trkpt lat="45.08213" lon="5.52109">
        <ele>932</ele>
        <time>2016-09-11T13:10:15Z</time>
      </trkpt>
      <trkpt lat="45.08208" lon="5.52118">
        <ele>932</ele>
        <time>2016-09-11T13:10:16Z</time>
      </trkpt>
      <trkpt lat="45.082" lon="5.5212">
        <ele>932</ele>
        <time>2016-09-11T13:10:17Z</time>
      </trkpt>
      <trkpt lat="45.08192" lon="5.52123">
        <ele>933</ele>
        <time>2016-09-11T13:10:18Z</time>
      </trkpt>
      <trkpt lat="45.08184" lon="5.52123">
        <ele>934</ele>
        <time>2016-09-11T13:10:19Z</time>
      </trkpt>
      <trkpt lat="45.08176" lon="5.52124">
        <ele>935</ele>
        <time>2016-09-11T13:10:20Z</time>
      </trkpt>
      <trkpt lat="45.08169" lon="5.52127">
        <ele>935</ele>
        <time>2016-09-11T13:10:21Z</time>
      </trkpt>
      <trkpt lat="45.0816" lon="5.5212">
        <ele>935</ele>
        <time>2016-09-11T13:10:22Z</time>
      </trkpt>
      <trkpt lat="45.08151" lon="5.52114">
        <ele>934</ele>
        <time>2016-09-11T13:10:23Z</time>
      </trkpt>
      <trkpt lat="45.08142" lon="5.52113">
        <ele>934</ele>
        <time>2016-09-11T13:10:24Z</time>
      </trkpt>
      <trkpt lat="45.08132" lon="5.52112">
        <ele>933</ele>
        <time>2016-09-11T13:10:25Z</time>
      </trkpt>
      <trkpt lat="45.08129" lon="5.52118">
        <ele>933</ele>
        <time>2016-09-11T13:10:26Z</time>
      </trkpt>
      <trkpt lat="45.08122" lon="5.52122">
        <ele>933</ele>
        <time>2016-09-11T13:10:27Z</time>
      </trkpt>
      <trkpt lat="45.08116" lon="5.52127">
        <ele>933</ele>
        <time>2016-09-11T13:10:28Z</time>
      </trkpt>
      <trkpt lat="45.08107" lon="5.52131">
        <ele>933</ele>
        <time>2016-09-11T13:10:29Z</time>
      </trkpt>
      <trkpt lat="45.08097" lon="5.52132">
        <ele>934</ele>
        <time>2016-09-11T13:10:30Z</time>
      </trkpt>
      <trkpt lat="45.08085" lon="5.52143">
        <ele>934</ele>
        <time>2016-09-11T13:10:31Z</time>
      </trkpt>
      <trkpt lat="45.08078" lon="5.52145">
        <ele>933</ele>
        <time>2016-09-11T13:10:32Z</time>
      </trkpt>
      <trkpt lat="45.08068" lon="5.52145">
        <ele>933</ele>
        <time>2016-09-11T13:10:33Z</time>
      </trkpt>
      <trkpt lat="45.08059" lon="5.52151">
        <ele>933</ele>
        <time>2016-09-11T13:10:34Z</time>
      </trkpt>
      <trkpt lat="45.08051" lon="5.52157">
        <ele>933</ele>
        <time>2016-09-11T13:10:35Z</time>
      </trkpt>
      <trkpt lat="45.08041" lon="5.52162">
        <ele>933</ele>
        <time>2016-09-11T13:10:37Z</time>
      </trkpt>
      <trkpt lat="45.08035" lon="5.52176">
        <ele>933</ele>
        <time>2016-09-11T13:10:38Z</time>
      </trkpt>
      <trkpt lat="45.08028" lon="5.52184">
        <ele>933</ele>
        <time>2016-09-11T13:10:39Z</time>
      </trkpt>
      <trkpt lat="45.08017" lon="5.52183">
        <ele>932</ele>
        <time>2016-09-11T13:10:40Z</time>
      </trkpt>
      <trkpt lat="45.08005" lon="5.5218">
        <ele>932</ele>
        <time>2016-09-11T13:10:41Z</time>
      </trkpt>
      <trkpt lat="45.07994" lon="5.52177">
        <ele>931</ele>
        <time>2016-09-11T13:10:42Z</time>
      </trkpt>
      <trkpt lat="45.07987" lon="5.52172">
        <ele>931</ele>
        <time>2016-09-11T13:10:43Z</time>
      </trkpt>
      <trkpt lat="45.07979" lon="5.52156">
        <ele>930</ele>
        <time>2016-09-11T13:10:44Z</time>
      </trkpt>
      <trkpt lat="45.0797" lon="5.52156">
        <ele>930</ele>
        <time>2016-09-11T13:10:45Z</time>
      </trkpt>
      <trkpt lat="45.07957" lon="5.5214">
        <ele>929</ele>
        <time>2016-09-11T13:10:46Z</time>
      </trkpt>
      <trkpt lat="45.07947" lon="5.52131">
        <ele>928</ele>
        <time>2016-09-11T13:10:47Z</time>
      </trkpt>
      <trkpt lat="45.07938" lon="5.52126">
        <ele>927</ele>
        <time>2016-09-11T13:10:48Z</time>
      </trkpt>
      <trkpt lat="45.07929" lon="5.52124">
        <ele>927</ele>
        <time>2016-09-11T13:10:49Z</time>
      </trkpt>
      <trkpt lat="45.07917" lon="5.52121">
        <ele>926</ele>
        <time>2016-09-11T13:10:50Z</time>
      </trkpt>
      <trkpt lat="45.07906" lon="5.52113">
        <ele>927</ele>
        <time>2016-09-11T13:10:51Z</time>
      </trkpt>
      <trkpt lat="45.07895" lon="5.52107">
        <ele>927</ele>
        <time>2016-09-11T13:10:52Z</time>
      </trkpt>
      <trkpt lat="45.0789" lon="5.52108">
        <ele>927</ele>
        <time>2016-09-11T13:10:53Z</time>
      </trkpt>
      <trkpt lat="45.07876" lon="5.52119">
        <ele>926</ele>
        <time>2016-09-11T13:10:54Z</time>
      </trkpt>
      <trkpt lat="45.07867" lon="5.52119">
        <ele>926</ele>
        <time>2016-09-11T13:10:55Z</time>
      </trkpt>
      <trkpt lat="45.07853" lon="5.52119">
        <ele>925</ele>
        <time>2016-09-11T13:10:56Z</time>
      </trkpt>
      <trkpt lat="45.07843" lon="5.52122">
        <ele>924</ele>
        <time>2016-09-11T13:10:57Z</time>
      </trkpt>
      <trkpt lat="45.07834" lon="5.52122">
        <ele>923</ele>
        <time>2016-09-11T13:10:58Z</time>
      </trkpt>
      <trkpt lat="45.07825" lon="5.52123">
        <ele>922</ele>
        <time>2016-09-11T13:10:59Z</time>
      </trkpt>
      <trkpt lat="45.07804" lon="5.52122">
        <ele>921</ele>
        <time>2016-09-11T13:11:01Z</time>
      </trkpt>
      <trkpt lat="45.07797" lon="5.52113">
        <ele>920</ele>
        <time>2016-09-11T13:11:02Z</time>
      </trkpt>
      <trkpt lat="45.07784" lon="5.52109">
        <ele>920</ele>
        <time>2016-09-11T13:11:03Z</time>
      </trkpt>
      <trkpt lat="45.07772" lon="5.52112">
        <ele>920</ele>
        <time>2016-09-11T13:11:04Z</time>
      </trkpt>
      <trkpt lat="45.0776" lon="5.52109">
        <ele>920</ele>
        <time>2016-09-11T13:11:05Z</time>
      </trkpt>
      <trkpt lat="45.07746" lon="5.52106">
        <ele>920</ele>
        <time>2016-09-11T13:11:06Z</time>
      </trkpt>
      <trkpt lat="45.07734" lon="5.52107">
        <ele>919</ele>
        <time>2016-09-11T13:11:07Z</time>
      </trkpt>
      <trkpt lat="45.07723" lon="5.52113">
        <ele>919</ele>
        <time>2016-09-11T13:11:08Z</time>
      </trkpt>
      <trkpt lat="45.07712" lon="5.52118">
        <ele>919</ele>
        <time>2016-09-11T13:11:09Z</time>
      </trkpt>
      <trkpt lat="45.07703" lon="5.52123">
        <ele>919</ele>
        <time>2016-09-11T13:11:10Z</time>
      </trkpt>
      <trkpt lat="45.0769" lon="5.52124">
        <ele>919</ele>
        <time>2016-09-11T13:11:11Z</time>
      </trkpt>
      <trkpt lat="45.07679" lon="5.52126">
        <ele>919</ele>
        <time>2016-09-11T13:11:12Z</time>
      </trkpt>
      <trkpt lat="45.07668" lon="5.52129">
        <ele>919</ele>
        <time>2016-09-11T13:11:13Z</time>
      </trkpt>
      <trkpt lat="45.07659" lon="5.52133">
        <ele>919</ele>
        <time>2016-09-11T13:11:14Z</time>
      </trkpt>
      <trkpt lat="45.07651" lon="5.52137">
        <ele>919</ele>
        <time>2016-09-11T13:11:15Z</time>
      </trkpt>
      <trkpt lat="45.07642" lon="5.52136">
        <ele>920</ele>
        <time>2016-09-11T13:11:16Z</time>
      </trkpt>
      <trkpt lat="45.07634" lon="5.52135">
        <ele>920</ele>
        <time>2016-09-11T13:11:17Z</time>
      </trkpt>
      <trkpt lat="45.07627" lon="5.52136">
        <ele>920</ele>
        <time>2016-09-11T13:11:18Z</time>
      </trkpt>
      <trkpt lat="45.07617" lon="5.52134">
        <ele>920</ele>
        <time>2016-09-11T13:11:19Z</time>
      </trkpt>
      <trkpt lat="45.07608" lon="5.52134">
        <ele>920</ele>
        <time>2016-09-11T13:11:20Z</time>
      </trkpt>
      <trkpt lat="45.07601" lon="5.52133">
        <ele>920</ele>
        <time>2016-09-11T13:11:21Z</time>
      </trkpt>
      <trkpt lat="45.07591" lon="5.52137">
        <ele>920</ele>
        <time>2016-09-11T13:11:22Z</time>
      </trkpt>
      <trkpt lat="45.07582" lon="5.52136">
        <ele>921</ele>
        <time>2016-09-11T13:11:23Z</time>
      </trkpt>
      <trkpt lat="45.07573" lon="5.52138">
        <ele>922</ele>
        <time>2016-09-11T13:11:24Z</time>
      </trkpt>
      <trkpt lat="45.07567" lon="5.52138">
        <ele>923</ele>
        <time>2016-09-11T13:11:25Z</time>
      </trkpt>
      <trkpt lat="45.07557" lon="5.52133">
        <ele>925</ele>
        <time>2016-09-11T13:11:27Z</time>
      </trkpt>
      <trkpt lat="45.07551" lon="5.52131">
        <ele>926</ele>
        <time>2016-09-11T13:11:28Z</time>
      </trkpt>
      <trkpt lat="45.07546" lon="5.52125">
        <ele>928</ele>
        <time>2016-09-11T13:11:29Z</time>
      </trkpt>
      <trkpt lat="45.07538" lon="5.52124">
        <ele>929</ele>
        <time>2016-09-11T13:11:30Z</time>
      </trkpt>
      <trkpt lat="45.0753" lon="5.52124">
        <ele>931</ele>
        <time>2016-09-11T13:11:31Z</time>
      </trkpt>
      <trkpt lat="45.07522" lon="5.52115">
        <ele>932</ele>
        <time>2016-09-11T13:11:32Z</time>
      </trkpt>
      <trkpt lat="45.07518" lon="5.5211">
        <ele>934</ele>
        <time>2016-09-11T13:11:33Z</time>
      </trkpt>
      <trkpt lat="45.0752" lon="5.52101">
        <ele>936</ele>
        <time>2016-09-11T13:11:34Z</time>
      </trkpt>
      <trkpt lat="45.0751" lon="5.52088">
        <ele>937</ele>
        <time>2016-09-11T13:11:35Z</time>
      </trkpt>
      <trkpt lat="45.07503" lon="5.52075">
        <ele>937</ele>
        <time>2016-09-11T13:11:36Z</time>
      </trkpt>
      <trkpt lat="45.07494" lon="5.52064">
        <ele>937</ele>
        <time>2016-09-11T13:11:37Z</time>
      </trkpt>
      <trkpt lat="45.07484" lon="5.52054">
        <ele>937</ele>
        <time>2016-09-11T13:11:38Z</time>
      </trkpt>
      <trkpt lat="45.07476" lon="5.52045">
        <ele>936</ele>
        <time>2016-09-11T13:11:39Z</time>
      </trkpt>
      <trkpt lat="45.07471" lon="5.52043">
        <ele>935</ele>
        <time>2016-09-11T13:11:40Z</time>
      </trkpt>
      <trkpt lat="45.07467" lon="5.52032">
        <ele>934</ele>
        <time>2016-09-11T13:11:41Z</time>
      </trkpt>
      <trkpt lat="45.07466" lon="5.52016">
        <ele>934</ele>
        <time>2016-09-11T13:11:42Z</time>
      </trkpt>
      <trkpt lat="45.0746" lon="5.52021">
        <ele>933</ele>
        <time>2016-09-11T13:11:43Z</time>
      </trkpt>
      <trkpt lat="45.07454" lon="5.52024">
        <ele>933</ele>
        <time>2016-09-11T13:11:44Z</time>
      </trkpt>
      <trkpt lat="45.07447" lon="5.52031">
        <ele>933</ele>
        <time>2016-09-11T13:11:46Z</time>
      </trkpt>
      <trkpt lat="45.07441" lon="5.52035">
        <ele>932</ele>
        <time>2016-09-11T13:11:47Z</time>
      </trkpt>
      <trkpt lat="45.07432" lon="5.52035">
        <ele>932</ele>
        <time>2016-09-11T13:11:48Z</time>
      </trkpt>
      <trkpt lat="45.07409" lon="5.52018">
        <ele>931</ele>
        <time>2016-09-11T13:11:49Z</time>
      </trkpt>
      <trkpt lat="45.07385" lon="5.52016">
        <ele>931</ele>
        <time>2016-09-11T13:11:50Z</time>
      </trkpt>
      <trkpt lat="45.07376" lon="5.52028">
        <ele>930</ele>
        <time>2016-09-11T13:11:51Z</time>
      </trkpt>
      <trkpt lat="45.07361" lon="5.5203">
        <ele>929</ele>
        <time>2016-09-11T13:11:52Z</time>
      </trkpt>
      <trkpt lat="45.07346" lon="5.52031">
        <ele>927</ele>
        <time>2016-09-11T13:11:53Z</time>
      </trkpt>
      <trkpt lat="45.07339" lon="5.52028">
        <ele>926</ele>
        <time>2016-09-11T13:11:54Z</time>
      </trkpt>
      <trkpt lat="45.07326" lon="5.52022">
        <ele>925</ele>
        <time>2016-09-11T13:11:55Z</time>
      </trkpt>
      <trkpt lat="45.07315" lon="5.52022">
        <ele>924</ele>
        <time>2016-09-11T13:11:56Z</time>
      </trkpt>
      <trkpt lat="45.07303" lon="5.52022">
        <ele>923</ele>
        <time>2016-09-11T13:11:57Z</time>
      </trkpt>
      <trkpt lat="45.07291" lon="5.5202">
        <ele>922</ele>
        <time>2016-09-11T13:11:58Z</time>
      </trkpt>
      <trkpt lat="45.07281" lon="5.5202">
        <ele>921</ele>
        <time>2016-09-11T13:11:59Z</time>
      </trkpt>
      <trkpt lat="45.0727" lon="5.52022">
        <ele>920</ele>
        <time>2016-09-11T13:12:00Z</time>
      </trkpt>
      <trkpt lat="45.07259" lon="5.52024">
        <ele>919</ele>
        <time>2016-09-11T13:12:01Z</time>
      </trkpt>
      <trkpt lat="45.0725" lon="5.52027">
        <ele>918</ele>
        <time>2016-09-11T13:12:02Z</time>
      </trkpt>
      <trkpt lat="45.0724" lon="5.5202">
        <ele>916</ele>
        <time>2016-09-11T13:12:03Z</time>
      </trkpt>
      <trkpt lat="45.0723" lon="5.52016">
        <ele>915</ele>
        <time>2016-09-11T13:12:04Z</time>
      </trkpt>
      <trkpt lat="45.07219" lon="5.52011">
        <ele>913</ele>
        <time>2016-09-11T13:12:05Z</time>
      </trkpt>
      <trkpt lat="45.0721" lon="5.52008">
        <ele>912</ele>
        <time>2016-09-11T13:12:06Z</time>
      </trkpt>
      <trkpt lat="45.07198" lon="5.52007">
        <ele>910</ele>
        <time>2016-09-11T13:12:07Z</time>
      </trkpt>
      <trkpt lat="45.07189" lon="5.5201">
        <ele>909</ele>
        <time>2016-09-11T13:12:08Z</time>
      </trkpt>
      <trkpt lat="45.07177" lon="5.52007">
        <ele>907</ele>
        <time>2016-09-11T13:12:09Z</time>
      </trkpt>
      <trkpt lat="45.0717" lon="5.52009">
        <ele>906</ele>
        <time>2016-09-11T13:12:10Z</time>
      </trkpt>
      <trkpt lat="45.07163" lon="5.52009">
        <ele>905</ele>
        <time>2016-09-11T13:12:11Z</time>
      </trkpt>
      <trkpt lat="45.07158" lon="5.52008">
        <ele>905</ele>
        <time>2016-09-11T13:12:12Z</time>
      </trkpt>
      <trkpt lat="45.07149" lon="5.52">
        <ele>905</ele>
        <time>2016-09-11T13:12:13Z</time>
      </trkpt>
      <trkpt lat="45.07137" lon="5.51988">
        <ele>905</ele>
        <time>2016-09-11T13:12:14Z</time>
      </trkpt>
      <trkpt lat="45.07123" lon="5.51977">
        <ele>905</ele>
        <time>2016-09-11T13:12:15Z</time>
      </trkpt>
      <trkpt lat="45.07119" lon="5.51975">
        <ele>905</ele>
        <time>2016-09-11T13:12:16Z</time>
      </trkpt>
      <trkpt lat="45.07111" lon="5.51977">
        <ele>905</ele>
        <time>2016-09-11T13:12:17Z</time>
      </trkpt>
      <trkpt lat="45.07097" lon="5.5198">
        <ele>905</ele>
        <time>2016-09-11T13:12:18Z</time>
      </trkpt>
      <trkpt lat="45.07087" lon="5.51982">
        <ele>905</ele>
        <time>2016-09-11T13:12:19Z</time>
      </trkpt>
      <trkpt lat="45.07077" lon="5.51983">
        <ele>905</ele>
        <time>2016-09-11T13:12:20Z</time>
      </trkpt>
      <trkpt lat="45.07068" lon="5.51984">
        <ele>905</ele>
        <time>2016-09-11T13:12:21Z</time>
      </trkpt>
      <trkpt lat="45.07058" lon="5.51985">
        <ele>905</ele>
        <time>2016-09-11T13:12:22Z</time>
      </trkpt>
      <trkpt lat="45.07048" lon="5.5198">
        <ele>904</ele>
        <time>2016-09-11T13:12:23Z</time>
      </trkpt>
      <trkpt lat="45.07026" lon="5.51955">
        <ele>903</ele>
        <time>2016-09-11T13:12:25Z</time>
      </trkpt>
      <trkpt lat="45.07013" lon="5.5194">
        <ele>901</ele>
        <time>2016-09-11T13:12:26Z</time>
      </trkpt>
      <trkpt lat="45.06994" lon="5.51932">
        <ele>898</ele>
        <time>2016-09-11T13:12:27Z</time>
      </trkpt>
      <trkpt lat="45.0699" lon="5.51916">
        <ele>896</ele>
        <time>2016-09-11T13:12:28Z</time>
      </trkpt>
      <trkpt lat="45.06994" lon="5.5191">
        <ele>891</ele>
        <time>2016-09-11T13:12:29Z</time>
      </trkpt>
      <trkpt lat="45.06989" lon="5.51902">
        <ele>888</ele>
        <time>2016-09-11T13:12:30Z</time>
      </trkpt>
      <trkpt lat="45.06982" lon="5.51892">
        <ele>885</ele>
        <time>2016-09-11T13:12:31Z</time>
      </trkpt>
      <trkpt lat="45.06973" lon="5.51885">
        <ele>882</ele>
        <time>2016-09-11T13:12:32Z</time>
      </trkpt>
      <trkpt lat="45.06968" lon="5.51879">
        <ele>879</ele>
        <time>2016-09-11T13:12:33Z</time>
      </trkpt>
      <trkpt lat="45.06959" lon="5.51873">
        <ele>877</ele>
        <time>2016-09-11T13:12:34Z</time>
      </trkpt>
      <trkpt lat="45.06957" lon="5.51859">
        <ele>876</ele>
        <time>2016-09-11T13:12:36Z</time>
      </trkpt>
      <trkpt lat="45.06953" lon="5.51853">
        <ele>875</ele>
        <time>2016-09-11T13:12:37Z</time>
      </trkpt>
      <trkpt lat="45.06942" lon="5.51845">
        <ele>874</ele>
        <time>2016-09-11T13:12:38Z</time>
      </trkpt>
      <trkpt lat="45.06935" lon="5.5184">
        <ele>873</ele>
        <time>2016-09-11T13:12:39Z</time>
      </trkpt>
      <trkpt lat="45.06924" lon="5.51836">
        <ele>873</ele>
        <time>2016-09-11T13:12:40Z</time>
      </trkpt>
      <trkpt lat="45.06913" lon="5.5183">
        <ele>873</ele>
        <time>2016-09-11T13:12:41Z</time>
      </trkpt>
      <trkpt lat="45.06904" lon="5.51822">
        <ele>874</ele>
        <time>2016-09-11T13:12:42Z</time>
      </trkpt>
      <trkpt lat="45.06898" lon="5.51819">
        <ele>874</ele>
        <time>2016-09-11T13:12:43Z</time>
      </trkpt>
      <trkpt lat="45.06891" lon="5.51812">
        <ele>874</ele>
        <time>2016-09-11T13:12:44Z</time>
      </trkpt>
      <trkpt lat="45.0688" lon="5.51804">
        <ele>874</ele>
        <time>2016-09-11T13:12:45Z</time>
      </trkpt>
      <trkpt lat="45.06874" lon="5.51785">
        <ele>874</ele>
        <time>2016-09-11T13:12:46Z</time>
      </trkpt>
      <trkpt lat="45.06868" lon="5.51769">
        <ele>874</ele>
        <time>2016-09-11T13:12:47Z</time>
      </trkpt>
      <trkpt lat="45.0686" lon="5.51754">
        <ele>875</ele>
        <time>2016-09-11T13:12:48Z</time>
      </trkpt>
      <trkpt lat="45.06855" lon="5.5174">
        <ele>876</ele>
        <time>2016-09-11T13:12:49Z</time>
      </trkpt>
      <trkpt lat="45.06846" lon="5.51733">
        <ele>877</ele>
        <time>2016-09-11T13:12:51Z</time>
      </trkpt>
      <trkpt lat="45.06839" lon="5.51728">
        <ele>877</ele>
        <time>2016-09-11T13:12:52Z</time>
      </trkpt>
      <trkpt lat="45.0683" lon="5.51721">
        <ele>876</ele>
        <time>2016-09-11T13:12:53Z</time>
      </trkpt>
      <trkpt lat="45.06824" lon="5.51716">
        <ele>874</ele>
        <time>2016-09-11T13:12:54Z</time>
      </trkpt>
      <trkpt lat="45.06818" lon="5.51715">
        <ele>873</ele>
        <time>2016-09-11T13:12:55Z</time>
      </trkpt>
      <trkpt lat="45.0681" lon="5.51714">
        <ele>872</ele>
        <time>2016-09-11T13:12:56Z</time>
      </trkpt>
      <trkpt lat="45.06804" lon="5.51713">
        <ele>871</ele>
        <time>2016-09-11T13:12:57Z</time>
      </trkpt>
      <trkpt lat="45.06796" lon="5.51713">
        <ele>870</ele>
        <time>2016-09-11T13:12:58Z</time>
      </trkpt>
      <trkpt lat="45.06799" lon="5.51671">
        <ele>868</ele>
        <time>2016-09-11T13:12:59Z</time>
      </trkpt>
      <trkpt lat="45.06801" lon="5.51649">
        <ele>866</ele>
        <time>2016-09-11T13:13:00Z</time>
      </trkpt>
      <trkpt lat="45.06799" lon="5.51635">
        <ele>862</ele>
        <time>2016-09-11T13:13:01Z</time>
      </trkpt>
      <trkpt lat="45.06803" lon="5.51625">
        <ele>859</ele>
        <time>2016-09-11T13:13:02Z</time>
      </trkpt>
      <trkpt lat="45.06806" lon="5.51612">
        <ele>855</ele>
        <time>2016-09-11T13:13:03Z</time>
      </trkpt>
      <trkpt lat="45.06809" lon="5.516">
        <ele>853</ele>
        <time>2016-09-11T13:13:04Z</time>
      </trkpt>
      <trkpt lat="45.0681" lon="5.51589">
        <ele>852</ele>
        <time>2016-09-11T13:13:05Z</time>
      </trkpt>
      <trkpt lat="45.06813" lon="5.51566">
        <ele>851</ele>
        <time>2016-09-11T13:13:07Z</time>
      </trkpt>
      <trkpt lat="45.06814" lon="5.51558">
        <ele>849</ele>
        <time>2016-09-11T13:13:08Z</time>
      </trkpt>
      <trkpt lat="45.06817" lon="5.51547">
        <ele>848</ele>
        <time>2016-09-11T13:13:09Z</time>
      </trkpt>
      <trkpt lat="45.0682" lon="5.51534">
        <ele>848</ele>
        <time>2016-09-11T13:13:10Z</time>
      </trkpt>
      <trkpt lat="45.06822" lon="5.51523">
        <ele>847</ele>
        <time>2016-09-11T13:13:11Z</time>
      </trkpt>
      <trkpt lat="45.06823" lon="5.51513">
        <ele>847</ele>
        <time>2016-09-11T13:13:12Z</time>
      </trkpt>
      <trkpt lat="45.06825" lon="5.51502">
        <ele>847</ele>
        <time>2016-09-11T13:13:13Z</time>
      </trkpt>
      <trkpt lat="45.06827" lon="5.51493">
        <ele>847</ele>
        <time>2016-09-11T13:13:14Z</time>
      </trkpt>
      <trkpt lat="45.06825" lon="5.51485">
        <ele>847</ele>
        <time>2016-09-11T13:13:15Z</time>
      </trkpt>
      <trkpt lat="45.06823" lon="5.51473">
        <ele>847</ele>
        <time>2016-09-11T13:13:16Z</time>
      </trkpt>
      <trkpt lat="45.06821" lon="5.51455">
        <ele>847</ele>
        <time>2016-09-11T13:13:18Z</time>
      </trkpt>
      <trkpt lat="45.06829" lon="5.51437">
        <ele>847</ele>
        <time>2016-09-11T13:13:19Z</time>
      </trkpt>
      <trkpt lat="45.06825" lon="5.5142">
        <ele>846</ele>
        <time>2016-09-11T13:13:20Z</time>
      </trkpt>
      <trkpt lat="45.06824" lon="5.51406">
        <ele>845</ele>
        <time>2016-09-11T13:13:21Z</time>
      </trkpt>
      <trkpt lat="45.06832" lon="5.51395">
        <ele>844</ele>
        <time>2016-09-11T13:13:22Z</time>
      </trkpt>
      <trkpt lat="45.06828" lon="5.51384">
        <ele>843</ele>
        <time>2016-09-11T13:13:23Z</time>
      </trkpt>
      <trkpt lat="45.06828" lon="5.51371">
        <ele>843</ele>
        <time>2016-09-11T13:13:24Z</time>
      </trkpt>
      <trkpt lat="45.06826" lon="5.51361">
        <ele>843</ele>
        <time>2016-09-11T13:13:25Z</time>
      </trkpt>
      <trkpt lat="45.06831" lon="5.51355">
        <ele>843</ele>
        <time>2016-09-11T13:13:26Z</time>
      </trkpt>
      <trkpt lat="45.06832" lon="5.51349">
        <ele>843</ele>
        <time>2016-09-11T13:13:27Z</time>
      </trkpt>
      <trkpt lat="45.06829" lon="5.51342">
        <ele>843</ele>
        <time>2016-09-11T13:13:28Z</time>
      </trkpt>
      <trkpt lat="45.06825" lon="5.51339">
        <ele>844</ele>
        <time>2016-09-11T13:13:33Z</time>
      </trkpt>
      <trkpt lat="45.06822" lon="5.51331">
        <ele>844</ele>
        <time>2016-09-11T13:13:37Z</time>
      </trkpt>
      <trkpt lat="45.06825" lon="5.51318">
        <ele>844</ele>
        <time>2016-09-11T13:13:40Z</time>
      </trkpt>
      <trkpt lat="45.06825" lon="5.5131">
        <ele>844</ele>
        <time>2016-09-11T13:13:41Z</time>
      </trkpt>
      <trkpt lat="45.06825" lon="5.51302">
        <ele>845</ele>
        <time>2016-09-11T13:13:42Z</time>
      </trkpt>
      <trkpt lat="45.06826" lon="5.51293">
        <ele>845</ele>
        <time>2016-09-11T13:13:43Z</time>
      </trkpt>
      <trkpt lat="45.06828" lon="5.51283">
        <ele>845</ele>
        <time>2016-09-11T13:13:44Z</time>
      </trkpt>
      <trkpt lat="45.06834" lon="5.5127">
        <ele>845</ele>
        <time>2016-09-11T13:13:45Z</time>
      </trkpt>
      <trkpt lat="45.06835" lon="5.51262">
        <ele>845</ele>
        <time>2016-09-11T13:13:46Z</time>
      </trkpt>
      <trkpt lat="45.06836" lon="5.51249">
        <ele>845</ele>
        <time>2016-09-11T13:13:47Z</time>
      </trkpt>
      <trkpt lat="45.0684" lon="5.51238">
        <ele>844</ele>
        <time>2016-09-11T13:13:48Z</time>
      </trkpt>
      <trkpt lat="45.06844" lon="5.51227">
        <ele>843</ele>
        <time>2016-09-11T13:13:49Z</time>
      </trkpt>
      <trkpt lat="45.06846" lon="5.51217">
        <ele>843</ele>
        <time>2016-09-11T13:13:50Z</time>
      </trkpt>
      <trkpt lat="45.0685" lon="5.51204">
        <ele>842</ele>
        <time>2016-09-11T13:13:51Z</time>
      </trkpt>
      <trkpt lat="45.06852" lon="5.51196">
        <ele>842</ele>
        <time>2016-09-11T13:13:52Z</time>
      </trkpt>
      <trkpt lat="45.06858" lon="5.51186">
        <ele>841</ele>
        <time>2016-09-11T13:13:53Z</time>
      </trkpt>
      <trkpt lat="45.06866" lon="5.51173">
        <ele>841</ele>
        <time>2016-09-11T13:13:54Z</time>
      </trkpt>
      <trkpt lat="45.06874" lon="5.51158">
        <ele>840</ele>
        <time>2016-09-11T13:13:55Z</time>
      </trkpt>
      <trkpt lat="45.06876" lon="5.51142">
        <ele>840</ele>
        <time>2016-09-11T13:13:56Z</time>
      </trkpt>
      <trkpt lat="45.06883" lon="5.5113">
        <ele>840</ele>
        <time>2016-09-11T13:13:57Z</time>
      </trkpt>
      <trkpt lat="45.06888" lon="5.51115">
        <ele>840</ele>
        <time>2016-09-11T13:13:58Z</time>
      </trkpt>
      <trkpt lat="45.06895" lon="5.51104">
        <ele>840</ele>
        <time>2016-09-11T13:13:59Z</time>
      </trkpt>
      <trkpt lat="45.06902" lon="5.51089">
        <ele>840</ele>
        <time>2016-09-11T13:14:00Z</time>
      </trkpt>
      <trkpt lat="45.06905" lon="5.51073">
        <ele>841</ele>
        <time>2016-09-11T13:14:01Z</time>
      </trkpt>
      <trkpt lat="45.06913" lon="5.51066">
        <ele>839</ele>
        <time>2016-09-11T13:14:02Z</time>
      </trkpt>
      <trkpt lat="45.06918" lon="5.51052">
        <ele>838</ele>
        <time>2016-09-11T13:14:03Z</time>
      </trkpt>
      <trkpt lat="45.06922" lon="5.51038">
        <ele>836</ele>
        <time>2016-09-11T13:14:04Z</time>
      </trkpt>
      <trkpt lat="45.06925" lon="5.51024">
        <ele>834</ele>
        <time>2016-09-11T13:14:05Z</time>
      </trkpt>
      <trkpt lat="45.06932" lon="5.51014">
        <ele>832</ele>
        <time>2016-09-11T13:14:06Z</time>
      </trkpt>
      <trkpt lat="45.06931" lon="5.50999">
        <ele>831</ele>
        <time>2016-09-11T13:14:07Z</time>
      </trkpt>
      <trkpt lat="45.06934" lon="5.50992">
        <ele>829</ele>
        <time>2016-09-11T13:14:08Z</time>
      </trkpt>
      <trkpt lat="45.06932" lon="5.50976">
        <ele>826</ele>
        <time>2016-09-11T13:14:09Z</time>
      </trkpt>
      <trkpt lat="45.06932" lon="5.50961">
        <ele>823</ele>
        <time>2016-09-11T13:14:10Z</time>
      </trkpt>
      <trkpt lat="45.06933" lon="5.50946">
        <ele>821</ele>
        <time>2016-09-11T13:14:11Z</time>
      </trkpt>
      <trkpt lat="45.06934" lon="5.50933">
        <ele>818</ele>
        <time>2016-09-11T13:14:12Z</time>
      </trkpt>
      <trkpt lat="45.06932" lon="5.50917">
        <ele>817</ele>
        <time>2016-09-11T13:14:13Z</time>
      </trkpt>
      <trkpt lat="45.06929" lon="5.50899">
        <ele>815</ele>
        <time>2016-09-11T13:14:14Z</time>
      </trkpt>
      <trkpt lat="45.0693" lon="5.50882">
        <ele>815</ele>
        <time>2016-09-11T13:14:15Z</time>
      </trkpt>
      <trkpt lat="45.06936" lon="5.5087">
        <ele>813</ele>
        <time>2016-09-11T13:14:16Z</time>
      </trkpt>
      <trkpt lat="45.06945" lon="5.5086">
        <ele>811</ele>
        <time>2016-09-11T13:14:17Z</time>
      </trkpt>
      <trkpt lat="45.06953" lon="5.50847">
        <ele>809</ele>
        <time>2016-09-11T13:14:18Z</time>
      </trkpt>
      <trkpt lat="45.06957" lon="5.5083">
        <ele>806</ele>
        <time>2016-09-11T13:14:19Z</time>
      </trkpt>
      <trkpt lat="45.06959" lon="5.50813">
        <ele>803</ele>
        <time>2016-09-11T13:14:20Z</time>
      </trkpt>
      <trkpt lat="45.06961" lon="5.50795">
        <ele>801</ele>
        <time>2016-09-11T13:14:21Z</time>
      </trkpt>
      <trkpt lat="45.06965" lon="5.50781">
        <ele>800</ele>
        <time>2016-09-11T13:14:22Z</time>
      </trkpt>
      <trkpt lat="45.06967" lon="5.50765">
        <ele>800</ele>
        <time>2016-09-11T13:14:23Z</time>
      </trkpt>
      <trkpt lat="45.06968" lon="5.50749">
        <ele>799</ele>
        <time>2016-09-11T13:14:24Z</time>
      </trkpt>
      <trkpt lat="45.06973" lon="5.50735">
        <ele>799</ele>
        <time>2016-09-11T13:14:25Z</time>
      </trkpt>
      <trkpt lat="45.06977" lon="5.50722">
        <ele>798</ele>
        <time>2016-09-11T13:14:26Z</time>
      </trkpt>
      <trkpt lat="45.06983" lon="5.50709">
        <ele>798</ele>
        <time>2016-09-11T13:14:27Z</time>
      </trkpt>
      <trkpt lat="45.0699" lon="5.50698">
        <ele>798</ele>
        <time>2016-09-11T13:14:28Z</time>
      </trkpt>
      <trkpt lat="45.06996" lon="5.50682">
        <ele>798</ele>
        <time>2016-09-11T13:14:29Z</time>
      </trkpt>
      <trkpt lat="45.07" lon="5.50667">
        <ele>798</ele>
        <time>2016-09-11T13:14:30Z</time>
      </trkpt>
      <trkpt lat="45.07008" lon="5.50652">
        <ele>798</ele>
        <time>2016-09-11T13:14:31Z</time>
      </trkpt>
      <trkpt lat="45.07015" lon="5.50638">
        <ele>797</ele>
        <time>2016-09-11T13:14:32Z</time>
      </trkpt>
      <trkpt lat="45.07019" lon="5.50624">
        <ele>797</ele>
        <time>2016-09-11T13:14:33Z</time>
      </trkpt>
      <trkpt lat="45.07019" lon="5.50612">
        <ele>797</ele>
        <time>2016-09-11T13:14:34Z</time>
      </trkpt>
      <trkpt lat="45.07029" lon="5.50601">
        <ele>797</ele>
        <time>2016-09-11T13:14:35Z</time>
      </trkpt>
      <trkpt lat="45.07036" lon="5.5059">
        <ele>797</ele>
        <time>2016-09-11T13:14:36Z</time>
      </trkpt>
      <trkpt lat="45.07041" lon="5.50577">
        <ele>798</ele>
        <time>2016-09-11T13:14:37Z</time>
      </trkpt>
      <trkpt lat="45.07045" lon="5.50564">
        <ele>799</ele>
        <time>2016-09-11T13:14:38Z</time>
      </trkpt>
      <trkpt lat="45.07047" lon="5.5055">
        <ele>799</ele>
        <time>2016-09-11T13:14:39Z</time>
      </trkpt>
      <trkpt lat="45.0705" lon="5.50536">
        <ele>799</ele>
        <time>2016-09-11T13:14:40Z</time>
      </trkpt>
      <trkpt lat="45.0705" lon="5.50521">
        <ele>799</ele>
        <time>2016-09-11T13:14:41Z</time>
      </trkpt>
      <trkpt lat="45.0705" lon="5.50506">
        <ele>799</ele>
        <time>2016-09-11T13:14:42Z</time>
      </trkpt>
      <trkpt lat="45.07052" lon="5.50485">
        <ele>799</ele>
        <time>2016-09-11T13:14:44Z</time>
      </trkpt>
      <trkpt lat="45.07052" lon="5.50477">
        <ele>799</ele>
        <time>2016-09-11T13:14:45Z</time>
      </trkpt>
      <trkpt lat="45.0705" lon="5.50468">
        <ele>798</ele>
        <time>2016-09-11T13:14:46Z</time>
      </trkpt>
      <trkpt lat="45.07047" lon="5.50454">
        <ele>797</ele>
        <time>2016-09-11T13:14:47Z</time>
      </trkpt>
      <trkpt lat="45.07042" lon="5.50443">
        <ele>796</ele>
        <time>2016-09-11T13:14:48Z</time>
      </trkpt>
      <trkpt lat="45.07038" lon="5.50433">
        <ele>794</ele>
        <time>2016-09-11T13:14:49Z</time>
      </trkpt>
      <trkpt lat="45.07034" lon="5.50423">
        <ele>792</ele>
        <time>2016-09-11T13:14:50Z</time>
      </trkpt>
      <trkpt lat="45.07028" lon="5.5041">
        <ele>790</ele>
        <time>2016-09-11T13:14:51Z</time>
      </trkpt>
      <trkpt lat="45.07024" lon="5.50399">
        <ele>789</ele>
        <time>2016-09-11T13:14:52Z</time>
      </trkpt>
      <trkpt lat="45.07021" lon="5.50388">
        <ele>788</ele>
        <time>2016-09-11T13:14:53Z</time>
      </trkpt>
      <trkpt lat="45.07017" lon="5.50376">
        <ele>788</ele>
        <time>2016-09-11T13:14:54Z</time>
      </trkpt>
      <trkpt lat="45.07013" lon="5.50361">
        <ele>787</ele>
        <time>2016-09-11T13:14:55Z</time>
      </trkpt>
      <trkpt lat="45.07015" lon="5.50355">
        <ele>786</ele>
        <time>2016-09-11T13:14:56Z</time>
      </trkpt>
      <trkpt lat="45.07016" lon="5.50345">
        <ele>786</ele>
        <time>2016-09-11T13:14:57Z</time>
      </trkpt>
      <trkpt lat="45.0702" lon="5.50331">
        <ele>785</ele>
        <time>2016-09-11T13:14:58Z</time>
      </trkpt>
      <trkpt lat="45.07023" lon="5.50316">
        <ele>784</ele>
        <time>2016-09-11T13:14:59Z</time>
      </trkpt>
      <trkpt lat="45.07026" lon="5.50302">
        <ele>783</ele>
        <time>2016-09-11T13:15:00Z</time>
      </trkpt>
      <trkpt lat="45.07027" lon="5.50291">
        <ele>782</ele>
        <time>2016-09-11T13:15:01Z</time>
      </trkpt>
      <trkpt lat="45.07026" lon="5.50278">
        <ele>781</ele>
        <time>2016-09-11T13:15:02Z</time>
      </trkpt>
      <trkpt lat="45.07023" lon="5.50266">
        <ele>780</ele>
        <time>2016-09-11T13:15:03Z</time>
      </trkpt>
      <trkpt lat="45.07021" lon="5.50254">
        <ele>779</ele>
        <time>2016-09-11T13:15:04Z</time>
      </trkpt>
      <trkpt lat="45.07017" lon="5.5024">
        <ele>778</ele>
        <time>2016-09-11T13:15:05Z</time>
      </trkpt>
      <trkpt lat="45.07015" lon="5.50226">
        <ele>777</ele>
        <time>2016-09-11T13:15:06Z</time>
      </trkpt>
      <trkpt lat="45.07014" lon="5.50214">
        <ele>776</ele>
        <time>2016-09-11T13:15:07Z</time>
      </trkpt>
      <trkpt lat="45.07019" lon="5.50206">
        <ele>775</ele>
        <time>2016-09-11T13:15:08Z</time>
      </trkpt>
      <trkpt lat="45.07027" lon="5.50196">
        <ele>774</ele>
        <time>2016-09-11T13:15:09Z</time>
      </trkpt>
      <trkpt lat="45.07029" lon="5.50184">
        <ele>773</ele>
        <time>2016-09-11T13:15:10Z</time>
      </trkpt>
      <trkpt lat="45.07031" lon="5.5017">
        <ele>772</ele>
        <time>2016-09-11T13:15:11Z</time>
      </trkpt>
      <trkpt lat="45.07033" lon="5.50158">
        <ele>770</ele>
        <time>2016-09-11T13:15:12Z</time>
      </trkpt>
      <trkpt lat="45.07036" lon="5.50145">
        <ele>769</ele>
        <time>2016-09-11T13:15:13Z</time>
      </trkpt>
      <trkpt lat="45.07038" lon="5.50134">
        <ele>768</ele>
        <time>2016-09-11T13:15:14Z</time>
      </trkpt>
      <trkpt lat="45.07043" lon="5.50122">
        <ele>767</ele>
        <time>2016-09-11T13:15:15Z</time>
      </trkpt>
      <trkpt lat="45.07047" lon="5.50114">
        <ele>767</ele>
        <time>2016-09-11T13:15:16Z</time>
      </trkpt>
      <trkpt lat="45.07048" lon="5.501">
        <ele>766</ele>
        <time>2016-09-11T13:15:17Z</time>
      </trkpt>
      <trkpt lat="45.07051" lon="5.50086">
        <ele>766</ele>
        <time>2016-09-11T13:15:18Z</time>
      </trkpt>
      <trkpt lat="45.07053" lon="5.50072">
        <ele>765</ele>
        <time>2016-09-11T13:15:19Z</time>
      </trkpt>
      <trkpt lat="45.07054" lon="5.50057">
        <ele>764</ele>
        <time>2016-09-11T13:15:20Z</time>
      </trkpt>
      <trkpt lat="45.07058" lon="5.50042">
        <ele>763</ele>
        <time>2016-09-11T13:15:21Z</time>
      </trkpt>
      <trkpt lat="45.07059" lon="5.50027">
        <ele>762</ele>
        <time>2016-09-11T13:15:22Z</time>
      </trkpt>
      <trkpt lat="45.07058" lon="5.49994">
        <ele>762</ele>
        <time>2016-09-11T13:15:24Z</time>
      </trkpt>
      <trkpt lat="45.07061" lon="5.49979">
        <ele>761</ele>
        <time>2016-09-11T13:15:25Z</time>
      </trkpt>
      <trkpt lat="45.07061" lon="5.49964">
        <ele>761</ele>
        <time>2016-09-11T13:15:26Z</time>
      </trkpt>
      <trkpt lat="45.07063" lon="5.49948">
        <ele>760</ele>
        <time>2016-09-11T13:15:27Z</time>
      </trkpt>
      <trkpt lat="45.07067" lon="5.49935">
        <ele>759</ele>
        <time>2016-09-11T13:15:28Z</time>
      </trkpt>
      <trkpt lat="45.07068" lon="5.49922">
        <ele>759</ele>
        <time>2016-09-11T13:15:29Z</time>
      </trkpt>
      <trkpt lat="45.07076" lon="5.49906">
        <ele>758</ele>
        <time>2016-09-11T13:15:30Z</time>
      </trkpt>
      <trkpt lat="45.07082" lon="5.49891">
        <ele>758</ele>
        <time>2016-09-11T13:15:31Z</time>
      </trkpt>
      <trkpt lat="45.07087" lon="5.49877">
        <ele>758</ele>
        <time>2016-09-11T13:15:32Z</time>
      </trkpt>
      <trkpt lat="45.07092" lon="5.49864">
        <ele>758</ele>
        <time>2016-09-11T13:15:33Z</time>
      </trkpt>
      <trkpt lat="45.07099" lon="5.49849">
        <ele>758</ele>
        <time>2016-09-11T13:15:34Z</time>
      </trkpt>
      <trkpt lat="45.07105" lon="5.49834">
        <ele>758</ele>
        <time>2016-09-11T13:15:35Z</time>
      </trkpt>
      <trkpt lat="45.07108" lon="5.4982">
        <ele>757</ele>
        <time>2016-09-11T13:15:36Z</time>
      </trkpt>
      <trkpt lat="45.07112" lon="5.49811">
        <ele>757</ele>
        <time>2016-09-11T13:15:37Z</time>
      </trkpt>
      <trkpt lat="45.07124" lon="5.49781">
        <ele>757</ele>
        <time>2016-09-11T13:15:39Z</time>
      </trkpt>
      <trkpt lat="45.07129" lon="5.49769">
        <ele>756</ele>
        <time>2016-09-11T13:15:40Z</time>
      </trkpt>
      <trkpt lat="45.07131" lon="5.49757">
        <ele>756</ele>
        <time>2016-09-11T13:15:41Z</time>
      </trkpt>
      <trkpt lat="45.07133" lon="5.49744">
        <ele>755</ele>
        <time>2016-09-11T13:15:42Z</time>
      </trkpt>
      <trkpt lat="45.07134" lon="5.49732">
        <ele>753</ele>
        <time>2016-09-11T13:15:43Z</time>
      </trkpt>
      <trkpt lat="45.07134" lon="5.49721">
        <ele>752</ele>
        <time>2016-09-11T13:15:44Z</time>
      </trkpt>
      <trkpt lat="45.07136" lon="5.49714">
        <ele>751</ele>
        <time>2016-09-11T13:15:45Z</time>
      </trkpt>
      <trkpt lat="45.07137" lon="5.49704">
        <ele>750</ele>
        <time>2016-09-11T13:15:46Z</time>
      </trkpt>
      <trkpt lat="45.07138" lon="5.49694">
        <ele>749</ele>
        <time>2016-09-11T13:15:47Z</time>
      </trkpt>
      <trkpt lat="45.07136" lon="5.49685">
        <ele>749</ele>
        <time>2016-09-11T13:15:48Z</time>
      </trkpt>
      <trkpt lat="45.07135" lon="5.49676">
        <ele>756</ele>
        <time>2016-09-11T13:15:49Z</time>
      </trkpt>
      <trkpt lat="45.07136" lon="5.49669">
        <ele>762</ele>
        <time>2016-09-11T13:15:50Z</time>
      </trkpt>
      <trkpt lat="45.07137" lon="5.49656">
        <ele>766</ele>
        <time>2016-09-11T13:15:52Z</time>
      </trkpt>
      <trkpt lat="45.07135" lon="5.49649">
        <ele>769</ele>
        <time>2016-09-11T13:15:54Z</time>
      </trkpt>
      <trkpt lat="45.07131" lon="5.49638">
        <ele>770</ele>
        <time>2016-09-11T13:15:56Z</time>
      </trkpt>
      <trkpt lat="45.07132" lon="5.49632">
        <ele>764</ele>
        <time>2016-09-11T13:15:58Z</time>
      </trkpt>
      <trkpt lat="45.07131" lon="5.49625">
        <ele>757</ele>
        <time>2016-09-11T13:16:04Z</time>
      </trkpt>
      <trkpt lat="45.07134" lon="5.4962">
        <ele>753</ele>
        <time>2016-09-11T13:16:17Z</time>
      </trkpt>
      <trkpt lat="45.07137" lon="5.49623">
        <ele>750</ele>
        <time>2016-09-11T13:16:36Z</time>
      </trkpt>
      <trkpt lat="45.07137" lon="5.49623">
        <ele>749</ele>
        <time>2016-09-11T13:16:39Z</time>
      </trkpt>
      <trkpt lat="45.07137" lon="5.49623">
        <ele>747</ele>
        <time>2016-09-11T13:17:06Z</time>
      </trkpt>
      <trkpt lat="45.07137" lon="5.49623">
        <ele>746</ele>
        <time>2016-09-11T13:17:09Z</time>
      </trkpt>
      <trkpt lat="45.07137" lon="5.49623">
        <ele>745</ele>
        <time>2016-09-11T13:17:36Z</time>
      </trkpt>
      <trkpt lat="45.07137" lon="5.49623">
        <ele>745</ele>
        <time>2016-09-11T13:17:39Z</time>
      </trkpt>
      <trkpt lat="45.07137" lon="5.49623">
        <ele>745</ele>
        <time>2016-09-11T13:18:06Z</time>
      </trkpt>
      <trkpt lat="45.07139" lon="5.4962">
        <ele>745</ele>
        <time>2016-09-11T13:18:09Z</time>
      </trkpt>
      <trkpt lat="45.0715" lon="5.49626">
        <ele>744</ele>
        <time>2016-09-11T13:18:11Z</time>
      </trkpt>
      <trkpt lat="45.07156" lon="5.49629">
        <ele>743</ele>
        <time>2016-09-11T13:18:13Z</time>
      </trkpt>
      <trkpt lat="45.07151" lon="5.49624">
        <ele>743</ele>
        <time>2016-09-11T13:18:30Z</time>
      </trkpt>
      <trkpt lat="45.0715" lon="5.49616">
        <ele>743</ele>
        <time>2016-09-11T13:18:32Z</time>
      </trkpt>
      <trkpt lat="45.0715" lon="5.49607">
        <ele>742</ele>
        <time>2016-09-11T13:18:34Z</time>
      </trkpt>
      <trkpt lat="45.0715" lon="5.49597">
        <ele>742</ele>
        <time>2016-09-11T13:18:36Z</time>
      </trkpt>
      <trkpt lat="45.0715" lon="5.49585">
        <ele>740</ele>
        <time>2016-09-11T13:18:38Z</time>
      </trkpt>
      <trkpt lat="45.07148" lon="5.49576">
        <ele>739</ele>
        <time>2016-09-11T13:18:39Z</time>
      </trkpt>
      <trkpt lat="45.07148" lon="5.49568">
        <ele>737</ele>
        <time>2016-09-11T13:18:40Z</time>
      </trkpt>
      <trkpt lat="45.07147" lon="5.4956">
        <ele>736</ele>
        <time>2016-09-11T13:18:41Z</time>
      </trkpt>
      <trkpt lat="45.0714" lon="5.49549">
        <ele>735</ele>
        <time>2016-09-11T13:18:43Z</time>
      </trkpt>
      <trkpt lat="45.07137" lon="5.49541">
        <ele>735</ele>
        <time>2016-09-11T13:18:44Z</time>
      </trkpt>
      <trkpt lat="45.07135" lon="5.49532">
        <ele>735</ele>
        <time>2016-09-11T13:18:45Z</time>
      </trkpt>
      <trkpt lat="45.07134" lon="5.49523">
        <ele>734</ele>
        <time>2016-09-11T13:18:46Z</time>
      </trkpt>
      <trkpt lat="45.07132" lon="5.49514">
        <ele>734</ele>
        <time>2016-09-11T13:18:47Z</time>
      </trkpt>
      <trkpt lat="45.0713" lon="5.49505">
        <ele>734</ele>
        <time>2016-09-11T13:18:48Z</time>
      </trkpt>
      <trkpt lat="45.07127" lon="5.49497">
        <ele>734</ele>
        <time>2016-09-11T13:18:49Z</time>
      </trkpt>
      <trkpt lat="45.0713" lon="5.4948">
        <ele>733</ele>
        <time>2016-09-11T13:18:51Z</time>
      </trkpt>
      <trkpt lat="45.07132" lon="5.49472">
        <ele>731</ele>
        <time>2016-09-11T13:18:52Z</time>
      </trkpt>
      <trkpt lat="45.07133" lon="5.49461">
        <ele>730</ele>
        <time>2016-09-11T13:18:53Z</time>
      </trkpt>
      <trkpt lat="45.07135" lon="5.49451">
        <ele>729</ele>
        <time>2016-09-11T13:18:54Z</time>
      </trkpt>
      <trkpt lat="45.07137" lon="5.4944">
        <ele>728</ele>
        <time>2016-09-11T13:18:55Z</time>
      </trkpt>
      <trkpt lat="45.0714" lon="5.49429">
        <ele>728</ele>
        <time>2016-09-11T13:18:56Z</time>
      </trkpt>
      <trkpt lat="45.07142" lon="5.49418">
        <ele>728</ele>
        <time>2016-09-11T13:18:57Z</time>
      </trkpt>
      <trkpt lat="45.07145" lon="5.49408">
        <ele>728</ele>
        <time>2016-09-11T13:18:58Z</time>
      </trkpt>
      <trkpt lat="45.07148" lon="5.49397">
        <ele>727</ele>
        <time>2016-09-11T13:18:59Z</time>
      </trkpt>
      <trkpt lat="45.07149" lon="5.4939">
        <ele>726</ele>
        <time>2016-09-11T13:19:00Z</time>
      </trkpt>
      <trkpt lat="45.07152" lon="5.49374">
        <ele>724</ele>
        <time>2016-09-11T13:19:02Z</time>
      </trkpt>
      <trkpt lat="45.07155" lon="5.49369">
        <ele>721</ele>
        <time>2016-09-11T13:19:03Z</time>
      </trkpt>
      <trkpt lat="45.0716" lon="5.49361">
        <ele>719</ele>
        <time>2016-09-11T13:19:04Z</time>
      </trkpt>
      <trkpt lat="45.07165" lon="5.49351">
        <ele>717</ele>
        <time>2016-09-11T13:19:06Z</time>
      </trkpt>
      <trkpt lat="45.07169" lon="5.49346">
        <ele>715</ele>
        <time>2016-09-11T13:19:07Z</time>
      </trkpt>
      <trkpt lat="45.07174" lon="5.4934">
        <ele>714</ele>
        <time>2016-09-11T13:19:08Z</time>
      </trkpt>
      <trkpt lat="45.0718" lon="5.49335">
        <ele>715</ele>
        <time>2016-09-11T13:19:09Z</time>
      </trkpt>
      <trkpt lat="45.07187" lon="5.4933">
        <ele>715</ele>
        <time>2016-09-11T13:19:10Z</time>
      </trkpt>
      <trkpt lat="45.07192" lon="5.49323">
        <ele>716</ele>
        <time>2016-09-11T13:19:11Z</time>
      </trkpt>
      <trkpt lat="45.07196" lon="5.49316">
        <ele>717</ele>
        <time>2016-09-11T13:19:12Z</time>
      </trkpt>
      <trkpt lat="45.07208" lon="5.49307">
        <ele>719</ele>
        <time>2016-09-11T13:19:14Z</time>
      </trkpt>
      <trkpt lat="45.07211" lon="5.49302">
        <ele>720</ele>
        <time>2016-09-11T13:19:15Z</time>
      </trkpt>
      <trkpt lat="45.07216" lon="5.49298">
        <ele>721</ele>
        <time>2016-09-11T13:19:16Z</time>
      </trkpt>
      <trkpt lat="45.07224" lon="5.49297">
        <ele>722</ele>
        <time>2016-09-11T13:19:17Z</time>
      </trkpt>
      <trkpt lat="45.07229" lon="5.49295">
        <ele>723</ele>
        <time>2016-09-11T13:19:18Z</time>
      </trkpt>
      <trkpt lat="45.07235" lon="5.49293">
        <ele>723</ele>
        <time>2016-09-11T13:19:19Z</time>
      </trkpt>
      <trkpt lat="45.07252" lon="5.49292">
        <ele>724</ele>
        <time>2016-09-11T13:19:21Z</time>
      </trkpt>
      <trkpt lat="45.07259" lon="5.4929">
        <ele>724</ele>
        <time>2016-09-11T13:19:22Z</time>
      </trkpt>
      <trkpt lat="45.07269" lon="5.49291">
        <ele>724</ele>
        <time>2016-09-11T13:19:23Z</time>
      </trkpt>
      <trkpt lat="45.07274" lon="5.49285">
        <ele>725</ele>
        <time>2016-09-11T13:19:24Z</time>
      </trkpt>
      <trkpt lat="45.0728" lon="5.4928">
        <ele>725</ele>
        <time>2016-09-11T13:19:25Z</time>
      </trkpt>
      <trkpt lat="45.07288" lon="5.49277">
        <ele>725</ele>
        <time>2016-09-11T13:19:26Z</time>
      </trkpt>
      <trkpt lat="45.07299" lon="5.49269">
        <ele>725</ele>
        <time>2016-09-11T13:19:28Z</time>
      </trkpt>
      <trkpt lat="45.07305" lon="5.49262">
        <ele>724</ele>
        <time>2016-09-11T13:19:29Z</time>
      </trkpt>
      <trkpt lat="45.07311" lon="5.49254">
        <ele>723</ele>
        <time>2016-09-11T13:19:30Z</time>
      </trkpt>
      <trkpt lat="45.07317" lon="5.49249">
        <ele>722</ele>
        <time>2016-09-11T13:19:31Z</time>
      </trkpt>
      <trkpt lat="45.07326" lon="5.49246">
        <ele>721</ele>
        <time>2016-09-11T13:19:32Z</time>
      </trkpt>
      <trkpt lat="45.07335" lon="5.49243">
        <ele>720</ele>
        <time>2016-09-11T13:19:33Z</time>
      </trkpt>
      <trkpt lat="45.07343" lon="5.49241">
        <ele>719</ele>
        <time>2016-09-11T13:19:34Z</time>
      </trkpt>
      <trkpt lat="45.07348" lon="5.49238">
        <ele>719</ele>
        <time>2016-09-11T13:19:35Z</time>
      </trkpt>
      <trkpt lat="45.07352" lon="5.49236">
        <ele>718</ele>
        <time>2016-09-11T13:19:36Z</time>
      </trkpt>
      <trkpt lat="45.07359" lon="5.49235">
        <ele>718</ele>
        <time>2016-09-11T13:19:37Z</time>
      </trkpt>
      <trkpt lat="45.07364" lon="5.49234">
        <ele>718</ele>
        <time>2016-09-11T13:19:38Z</time>
      </trkpt>
      <trkpt lat="45.0737" lon="5.49231">
        <ele>717</ele>
        <time>2016-09-11T13:19:39Z</time>
      </trkpt>
      <trkpt lat="45.07376" lon="5.4923">
        <ele>716</ele>
        <time>2016-09-11T13:19:40Z</time>
      </trkpt>
      <trkpt lat="45.07381" lon="5.49229">
        <ele>715</ele>
        <time>2016-09-11T13:19:41Z</time>
      </trkpt>
      <trkpt lat="45.07388" lon="5.49225">
        <ele>714</ele>
        <time>2016-09-11T13:19:42Z</time>
      </trkpt>
      <trkpt lat="45.07394" lon="5.49222">
        <ele>713</ele>
        <time>2016-09-11T13:19:43Z</time>
      </trkpt>
      <trkpt lat="45.07396" lon="5.49213">
        <ele>711</ele>
        <time>2016-09-11T13:19:44Z</time>
      </trkpt>
      <trkpt lat="45.07399" lon="5.49209">
        <ele>709</ele>
        <time>2016-09-11T13:19:45Z</time>
      </trkpt>
      <trkpt lat="45.07403" lon="5.49202">
        <ele>707</ele>
        <time>2016-09-11T13:19:46Z</time>
      </trkpt>
      <trkpt lat="45.07407" lon="5.49196">
        <ele>704</ele>
        <time>2016-09-11T13:19:48Z</time>
      </trkpt>
      <trkpt lat="45.07409" lon="5.4919">
        <ele>701</ele>
        <time>2016-09-11T13:19:49Z</time>
      </trkpt>
      <trkpt lat="45.07414" lon="5.49182">
        <ele>700</ele>
        <time>2016-09-11T13:19:51Z</time>
      </trkpt>
      <trkpt lat="45.07418" lon="5.49173">
        <ele>698</ele>
        <time>2016-09-11T13:19:53Z</time>
      </trkpt>
      <trkpt lat="45.07418" lon="5.49162">
        <ele>697</ele>
        <time>2016-09-11T13:19:54Z</time>
      </trkpt>
      <trkpt lat="45.07418" lon="5.49145">
        <ele>697</ele>
        <time>2016-09-11T13:19:55Z</time>
      </trkpt>
      <trkpt lat="45.07417" lon="5.49137">
        <ele>696</ele>
        <time>2016-09-11T13:19:56Z</time>
      </trkpt>
      <trkpt lat="45.07416" lon="5.49124">
        <ele>696</ele>
        <time>2016-09-11T13:19:58Z</time>
      </trkpt>
      <trkpt lat="45.07418" lon="5.49117">
        <ele>695</ele>
        <time>2016-09-11T13:19:59Z</time>
      </trkpt>
      <trkpt lat="45.0742" lon="5.49108">
        <ele>695</ele>
        <time>2016-09-11T13:20:00Z</time>
      </trkpt>
      <trkpt lat="45.07422" lon="5.49095">
        <ele>695</ele>
        <time>2016-09-11T13:20:02Z</time>
      </trkpt>
      <trkpt lat="45.07427" lon="5.49084">
        <ele>695</ele>
        <time>2016-09-11T13:20:04Z</time>
      </trkpt>
      <trkpt lat="45.07428" lon="5.49077">
        <ele>696</ele>
        <time>2016-09-11T13:20:06Z</time>
      </trkpt>
      <trkpt lat="45.07433" lon="5.49069">
        <ele>696</ele>
        <time>2016-09-11T13:20:07Z</time>
      </trkpt>
      <trkpt lat="45.07436" lon="5.49065">
        <ele>697</ele>
        <time>2016-09-11T13:20:08Z</time>
      </trkpt>
      <trkpt lat="45.07444" lon="5.4906">
        <ele>697</ele>
        <time>2016-09-11T13:20:09Z</time>
      </trkpt>
      <trkpt lat="45.07451" lon="5.49057">
        <ele>698</ele>
        <time>2016-09-11T13:20:10Z</time>
      </trkpt>
      <trkpt lat="45.07454" lon="5.49051">
        <ele>699</ele>
        <time>2016-09-11T13:20:11Z</time>
      </trkpt>
      <trkpt lat="45.07459" lon="5.4904">
        <ele>700</ele>
        <time>2016-09-11T13:20:13Z</time>
      </trkpt>
      <trkpt lat="45.07467" lon="5.4903">
        <ele>701</ele>
        <time>2016-09-11T13:20:15Z</time>
      </trkpt>
      <trkpt lat="45.07473" lon="5.49025">
        <ele>702</ele>
        <time>2016-09-11T13:20:16Z</time>
      </trkpt>
      <trkpt lat="45.07479" lon="5.49022">
        <ele>703</ele>
        <time>2016-09-11T13:20:17Z</time>
      </trkpt>
      <trkpt lat="45.07483" lon="5.49018">
        <ele>704</ele>
        <time>2016-09-11T13:20:18Z</time>
      </trkpt>
      <trkpt lat="45.07488" lon="5.49013">
        <ele>704</ele>
        <time>2016-09-11T13:20:19Z</time>
      </trkpt>
      <trkpt lat="45.07493" lon="5.49009">
        <ele>705</ele>
        <time>2016-09-11T13:20:20Z</time>
      </trkpt>
      <trkpt lat="45.075" lon="5.49004">
        <ele>706</ele>
        <time>2016-09-11T13:20:21Z</time>
      </trkpt>
      <trkpt lat="45.07505" lon="5.49">
        <ele>706</ele>
        <time>2016-09-11T13:20:22Z</time>
      </trkpt>
      <trkpt lat="45.0751" lon="5.48996">
        <ele>707</ele>
        <time>2016-09-11T13:20:23Z</time>
      </trkpt>
      <trkpt lat="45.07517" lon="5.4899">
        <ele>707</ele>
        <time>2016-09-11T13:20:24Z</time>
      </trkpt>
      <trkpt lat="45.07524" lon="5.48985">
        <ele>708</ele>
        <time>2016-09-11T13:20:26Z</time>
      </trkpt>
      <trkpt lat="45.07529" lon="5.48981">
        <ele>709</ele>
        <time>2016-09-11T13:20:27Z</time>
      </trkpt>
      <trkpt lat="45.07534" lon="5.48973">
        <ele>710</ele>
        <time>2016-09-11T13:20:28Z</time>
      </trkpt>
      <trkpt lat="45.07537" lon="5.48968">
        <ele>710</ele>
        <time>2016-09-11T13:20:29Z</time>
      </trkpt>
      <trkpt lat="45.07542" lon="5.48957">
        <ele>711</ele>
        <time>2016-09-11T13:20:31Z</time>
      </trkpt>
      <trkpt lat="45.07547" lon="5.48953">
        <ele>712</ele>
        <time>2016-09-11T13:20:33Z</time>
      </trkpt>
      <trkpt lat="45.07556" lon="5.4895">
        <ele>713</ele>
        <time>2016-09-11T13:20:34Z</time>
      </trkpt>
      <trkpt lat="45.07568" lon="5.48949">
        <ele>714</ele>
        <time>2016-09-11T13:20:36Z</time>
      </trkpt>
      <trkpt lat="45.07572" lon="5.48945">
        <ele>715</ele>
        <time>2016-09-11T13:20:37Z</time>
      </trkpt>
      <trkpt lat="45.07579" lon="5.48936">
        <ele>716</ele>
        <time>2016-09-11T13:20:39Z</time>
      </trkpt>
      <trkpt lat="45.07584" lon="5.48924">
        <ele>716</ele>
        <time>2016-09-11T13:20:41Z</time>
      </trkpt>
      <trkpt lat="45.07588" lon="5.48917">
        <ele>716</ele>
        <time>2016-09-11T13:20:42Z</time>
      </trkpt>
      <trkpt lat="45.07592" lon="5.48911">
        <ele>715</ele>
        <time>2016-09-11T13:20:43Z</time>
      </trkpt>
      <trkpt lat="45.07597" lon="5.48907">
        <ele>715</ele>
        <time>2016-09-11T13:20:44Z</time>
      </trkpt>
      <trkpt lat="45.076" lon="5.48901">
        <ele>715</ele>
        <time>2016-09-11T13:20:45Z</time>
      </trkpt>
      <trkpt lat="45.07609" lon="5.48892">
        <ele>716</ele>
        <time>2016-09-11T13:20:47Z</time>
      </trkpt>
      <trkpt lat="45.07613" lon="5.48888">
        <ele>716</ele>
        <time>2016-09-11T13:20:48Z</time>
      </trkpt>
      <trkpt lat="45.07617" lon="5.48882">
        <ele>717</ele>
        <time>2016-09-11T13:20:49Z</time>
      </trkpt>
      <trkpt lat="45.07621" lon="5.48878">
        <ele>717</ele>
        <time>2016-09-11T13:20:50Z</time>
      </trkpt>
      <trkpt lat="45.07628" lon="5.48874">
        <ele>718</ele>
        <time>2016-09-11T13:20:51Z</time>
      </trkpt>
      <trkpt lat="45.07633" lon="5.48868">
        <ele>719</ele>
        <time>2016-09-11T13:20:52Z</time>
      </trkpt>
      <trkpt lat="45.07642" lon="5.48859">
        <ele>720</ele>
        <time>2016-09-11T13:20:54Z</time>
      </trkpt>
      <trkpt lat="45.07648" lon="5.48852">
        <ele>721</ele>
        <time>2016-09-11T13:20:56Z</time>
      </trkpt>
      <trkpt lat="45.07655" lon="5.48843">
        <ele>722</ele>
        <time>2016-09-11T13:20:58Z</time>
      </trkpt>
      <trkpt lat="45.07661" lon="5.48835">
        <ele>723</ele>
        <time>2016-09-11T13:20:59Z</time>
      </trkpt>
      <trkpt lat="45.07665" lon="5.48827">
        <ele>724</ele>
        <time>2016-09-11T13:21:01Z</time>
      </trkpt>
      <trkpt lat="45.07677" lon="5.4882">
        <ele>725</ele>
        <time>2016-09-11T13:21:03Z</time>
      </trkpt>
      <trkpt lat="45.07682" lon="5.48816">
        <ele>726</ele>
        <time>2016-09-11T13:21:04Z</time>
      </trkpt>
      <trkpt lat="45.0769" lon="5.48811">
        <ele>727</ele>
        <time>2016-09-11T13:21:05Z</time>
      </trkpt>
      <trkpt lat="45.07697" lon="5.48807">
        <ele>728</ele>
        <time>2016-09-11T13:21:06Z</time>
      </trkpt>
      <trkpt lat="45.07703" lon="5.48802">
        <ele>730</ele>
        <time>2016-09-11T13:21:07Z</time>
      </trkpt>
      <trkpt lat="45.07707" lon="5.48799">
        <ele>730</ele>
        <time>2016-09-11T13:21:08Z</time>
      </trkpt>
      <trkpt lat="45.07715" lon="5.48795">
        <ele>731</ele>
        <time>2016-09-11T13:21:09Z</time>
      </trkpt>
      <trkpt lat="45.07724" lon="5.48793">
        <ele>732</ele>
        <time>2016-09-11T13:21:11Z</time>
      </trkpt>
      <trkpt lat="45.07729" lon="5.48794">
        <ele>733</ele>
        <time>2016-09-11T13:21:12Z</time>
      </trkpt>
      <trkpt lat="45.07736" lon="5.48791">
        <ele>733</ele>
        <time>2016-09-11T13:21:14Z</time>
      </trkpt>
      <trkpt lat="45.07742" lon="5.48788">
        <ele>733</ele>
        <time>2016-09-11T13:21:16Z</time>
      </trkpt>
      <trkpt lat="45.07748" lon="5.48786">
        <ele>733</ele>
        <time>2016-09-11T13:21:17Z</time>
      </trkpt>
      <trkpt lat="45.07752" lon="5.48782">
        <ele>733</ele>
        <time>2016-09-11T13:21:19Z</time>
      </trkpt>
      <trkpt lat="45.07758" lon="5.48777">
        <ele>732</ele>
        <time>2016-09-11T13:21:21Z</time>
      </trkpt>
      <trkpt lat="45.07765" lon="5.48769">
        <ele>731</ele>
        <time>2016-09-11T13:21:23Z</time>
      </trkpt>
      <trkpt lat="45.07771" lon="5.48761">
        <ele>730</ele>
        <time>2016-09-11T13:21:25Z</time>
      </trkpt>
      <trkpt lat="45.07777" lon="5.48754">
        <ele>730</ele>
        <time>2016-09-11T13:21:27Z</time>
      </trkpt>
      <trkpt lat="45.07783" lon="5.48746">
        <ele>730</ele>
        <time>2016-09-11T13:21:29Z</time>
      </trkpt>
      <trkpt lat="45.07791" lon="5.48737">
        <ele>730</ele>
        <time>2016-09-11T13:21:31Z</time>
      </trkpt>
      <trkpt lat="45.07798" lon="5.4873">
        <ele>731</ele>
        <time>2016-09-11T13:21:33Z</time>
      </trkpt>
      <trkpt lat="45.07803" lon="5.48726">
        <ele>730</ele>
        <time>2016-09-11T13:21:34Z</time>
      </trkpt>
      <trkpt lat="45.07807" lon="5.48722">
        <ele>729</ele>
        <time>2016-09-11T13:21:35Z</time>
      </trkpt>
      <trkpt lat="45.07811" lon="5.48718">
        <ele>728</ele>
        <time>2016-09-11T13:21:36Z</time>
      </trkpt>
      <trkpt lat="45.07814" lon="5.48714">
        <ele>727</ele>
        <time>2016-09-11T13:21:37Z</time>
      </trkpt>
      <trkpt lat="45.07819" lon="5.48704">
        <ele>725</ele>
        <time>2016-09-11T13:21:39Z</time>
      </trkpt>
      <trkpt lat="45.07825" lon="5.48695">
        <ele>724</ele>
        <time>2016-09-11T13:21:41Z</time>
      </trkpt>
      <trkpt lat="45.07832" lon="5.48687">
        <ele>723</ele>
        <time>2016-09-11T13:21:43Z</time>
      </trkpt>
      <trkpt lat="45.07839" lon="5.48681">
        <ele>722</ele>
        <time>2016-09-11T13:21:45Z</time>
      </trkpt>
      <trkpt lat="45.07847" lon="5.48676">
        <ele>721</ele>
        <time>2016-09-11T13:21:47Z</time>
      </trkpt>
      <trkpt lat="45.07856" lon="5.48672">
        <ele>720</ele>
        <time>2016-09-11T13:21:49Z</time>
      </trkpt>
      <trkpt lat="45.07861" lon="5.48669">
        <ele>720</ele>
        <time>2016-09-11T13:21:50Z</time>
      </trkpt>
      <trkpt lat="45.07866" lon="5.48666">
        <ele>719</ele>
        <time>2016-09-11T13:21:51Z</time>
      </trkpt>
      <trkpt lat="45.07871" lon="5.48664">
        <ele>720</ele>
        <time>2016-09-11T13:21:52Z</time>
      </trkpt>
      <trkpt lat="45.07877" lon="5.48662">
        <ele>721</ele>
        <time>2016-09-11T13:21:53Z</time>
      </trkpt>
      <trkpt lat="45.07882" lon="5.4866">
        <ele>722</ele>
        <time>2016-09-11T13:21:54Z</time>
      </trkpt>
      <trkpt lat="45.07886" lon="5.48656">
        <ele>723</ele>
        <time>2016-09-11T13:21:55Z</time>
      </trkpt>
      <trkpt lat="45.07892" lon="5.48648">
        <ele>724</ele>
        <time>2016-09-11T13:21:57Z</time>
      </trkpt>
      <trkpt lat="45.07896" lon="5.48637">
        <ele>725</ele>
        <time>2016-09-11T13:21:59Z</time>
      </trkpt>
      <trkpt lat="45.07899" lon="5.48632">
        <ele>725</ele>
        <time>2016-09-11T13:22:00Z</time>
      </trkpt>
      <trkpt lat="45.07903" lon="5.48626">
        <ele>725</ele>
        <time>2016-09-11T13:22:01Z</time>
      </trkpt>
      <trkpt lat="45.07908" lon="5.48622">
        <ele>725</ele>
        <time>2016-09-11T13:22:02Z</time>
      </trkpt>
      <trkpt lat="45.07912" lon="5.48619">
        <ele>725</ele>
        <time>2016-09-11T13:22:03Z</time>
      </trkpt>
      <trkpt lat="45.07917" lon="5.48617">
        <ele>725</ele>
        <time>2016-09-11T13:22:04Z</time>
      </trkpt>
      <trkpt lat="45.07922" lon="5.48617">
        <ele>726</ele>
        <time>2016-09-11T13:22:05Z</time>
      </trkpt>
      <trkpt lat="45.07927" lon="5.48617">
        <ele>726</ele>
        <time>2016-09-11T13:22:06Z</time>
      </trkpt>
      <trkpt lat="45.07932" lon="5.48618">
        <ele>727</ele>
        <time>2016-09-11T13:22:07Z</time>
      </trkpt>
      <trkpt lat="45.07937" lon="5.48619">
        <ele>728</ele>
        <time>2016-09-11T13:22:08Z</time>
      </trkpt>
      <trkpt lat="45.07946" lon="5.48621">
        <ele>729</ele>
        <time>2016-09-11T13:22:10Z</time>
      </trkpt>
      <trkpt lat="45.07951" lon="5.48619">
        <ele>729</ele>
        <time>2016-09-11T13:22:11Z</time>
      </trkpt>
      <trkpt lat="45.07958" lon="5.48618">
        <ele>729</ele>
        <time>2016-09-11T13:22:13Z</time>
      </trkpt>
      <trkpt lat="45.07964" lon="5.48614">
        <ele>730</ele>
        <time>2016-09-11T13:22:15Z</time>
      </trkpt>
      <trkpt lat="45.07967" lon="5.48607">
        <ele>729</ele>
        <time>2016-09-11T13:22:17Z</time>
      </trkpt>
      <trkpt lat="45.07968" lon="5.48596">
        <ele>729</ele>
        <time>2016-09-11T13:22:19Z</time>
      </trkpt>
      <trkpt lat="45.07967" lon="5.48584">
        <ele>730</ele>
        <time>2016-09-11T13:22:21Z</time>
      </trkpt>
      <trkpt lat="45.07968" lon="5.4857">
        <ele>730</ele>
        <time>2016-09-11T13:22:23Z</time>
      </trkpt>
      <trkpt lat="45.07968" lon="5.48563">
        <ele>731</ele>
        <time>2016-09-11T13:22:24Z</time>
      </trkpt>
      <trkpt lat="45.07969" lon="5.48551">
        <ele>732</ele>
        <time>2016-09-11T13:22:26Z</time>
      </trkpt>
      <trkpt lat="45.07969" lon="5.48544">
        <ele>732</ele>
        <time>2016-09-11T13:22:27Z</time>
      </trkpt>
      <trkpt lat="45.07969" lon="5.48533">
        <ele>732</ele>
        <time>2016-09-11T13:22:29Z</time>
      </trkpt>
      <trkpt lat="45.07971" lon="5.48521">
        <ele>733</ele>
        <time>2016-09-11T13:22:31Z</time>
      </trkpt>
      <trkpt lat="45.0797" lon="5.48509">
        <ele>733</ele>
        <time>2016-09-11T13:22:33Z</time>
      </trkpt>
      <trkpt lat="45.07971" lon="5.48497">
        <ele>733</ele>
        <time>2016-09-11T13:22:35Z</time>
      </trkpt>
      <trkpt lat="45.07973" lon="5.48486">
        <ele>733</ele>
        <time>2016-09-11T13:22:37Z</time>
      </trkpt>
      <trkpt lat="45.07974" lon="5.48476">
        <ele>733</ele>
        <time>2016-09-11T13:22:39Z</time>
      </trkpt>
      <trkpt lat="45.07978" lon="5.48467">
        <ele>733</ele>
        <time>2016-09-11T13:22:41Z</time>
      </trkpt>
      <trkpt lat="45.0798" lon="5.48457">
        <ele>733</ele>
        <time>2016-09-11T13:22:43Z</time>
      </trkpt>
      <trkpt lat="45.07983" lon="5.48452">
        <ele>733</ele>
        <time>2016-09-11T13:22:44Z</time>
      </trkpt>
      <trkpt lat="45.07987" lon="5.48442">
        <ele>733</ele>
        <time>2016-09-11T13:22:46Z</time>
      </trkpt>
      <trkpt lat="45.07991" lon="5.48431">
        <ele>733</ele>
        <time>2016-09-11T13:22:48Z</time>
      </trkpt>
      <trkpt lat="45.07993" lon="5.4842">
        <ele>733</ele>
        <time>2016-09-11T13:22:50Z</time>
      </trkpt>
      <trkpt lat="45.07995" lon="5.48409">
        <ele>733</ele>
        <time>2016-09-11T13:22:52Z</time>
      </trkpt>
      <trkpt lat="45.07995" lon="5.48397">
        <ele>734</ele>
        <time>2016-09-11T13:22:54Z</time>
      </trkpt>
      <trkpt lat="45.07996" lon="5.48387">
        <ele>734</ele>
        <time>2016-09-11T13:22:56Z</time>
      </trkpt>
      <trkpt lat="45.07996" lon="5.48377">
        <ele>735</ele>
        <time>2016-09-11T13:22:58Z</time>
      </trkpt>
      <trkpt lat="45.07995" lon="5.48368">
        <ele>735</ele>
        <time>2016-09-11T13:23:00Z</time>
      </trkpt>
      <trkpt lat="45.07992" lon="5.48358">
        <ele>736</ele>
        <time>2016-09-11T13:23:02Z</time>
      </trkpt>
      <trkpt lat="45.07988" lon="5.48349">
        <ele>736</ele>
        <time>2016-09-11T13:23:04Z</time>
      </trkpt>
      <trkpt lat="45.07983" lon="5.48339">
        <ele>737</ele>
        <time>2016-09-11T13:23:06Z</time>
      </trkpt>
      <trkpt lat="45.07982" lon="5.48329">
        <ele>738</ele>
        <time>2016-09-11T13:23:08Z</time>
      </trkpt>
      <trkpt lat="45.07985" lon="5.4832">
        <ele>739</ele>
        <time>2016-09-11T13:23:10Z</time>
      </trkpt>
      <trkpt lat="45.0799" lon="5.4831">
        <ele>740</ele>
        <time>2016-09-11T13:23:12Z</time>
      </trkpt>
      <trkpt lat="45.07993" lon="5.48304">
        <ele>741</ele>
        <time>2016-09-11T13:23:13Z</time>
      </trkpt>
      <trkpt lat="45.07996" lon="5.48299">
        <ele>742</ele>
        <time>2016-09-11T13:23:14Z</time>
      </trkpt>
      <trkpt lat="45.08001" lon="5.48295">
        <ele>743</ele>
        <time>2016-09-11T13:23:15Z</time>
      </trkpt>
      <trkpt lat="45.08005" lon="5.48291">
        <ele>744</ele>
        <time>2016-09-11T13:23:16Z</time>
      </trkpt>
      <trkpt lat="45.0801" lon="5.48288">
        <ele>745</ele>
        <time>2016-09-11T13:23:17Z</time>
      </trkpt>
      <trkpt lat="45.0802" lon="5.48281">
        <ele>743</ele>
        <time>2016-09-11T13:23:18Z</time>
      </trkpt>
      <trkpt lat="45.08028" lon="5.48282">
        <ele>741</ele>
        <time>2016-09-11T13:23:20Z</time>
      </trkpt>
      <trkpt lat="45.08036" lon="5.48282">
        <ele>740</ele>
        <time>2016-09-11T13:23:22Z</time>
      </trkpt>
      <trkpt lat="45.08041" lon="5.4828">
        <ele>739</ele>
        <time>2016-09-11T13:23:23Z</time>
      </trkpt>
      <trkpt lat="45.08046" lon="5.48279">
        <ele>739</ele>
        <time>2016-09-11T13:23:24Z</time>
      </trkpt>
      <trkpt lat="45.08049" lon="5.48275">
        <ele>740</ele>
        <time>2016-09-11T13:23:25Z</time>
      </trkpt>
      <trkpt lat="45.08054" lon="5.48273">
        <ele>741</ele>
        <time>2016-09-11T13:23:26Z</time>
      </trkpt>
      <trkpt lat="45.0806" lon="5.48273">
        <ele>742</ele>
        <time>2016-09-11T13:23:27Z</time>
      </trkpt>
      <trkpt lat="45.08069" lon="5.48274">
        <ele>743</ele>
        <time>2016-09-11T13:23:29Z</time>
      </trkpt>
      <trkpt lat="45.08073" lon="5.48274">
        <ele>745</ele>
        <time>2016-09-11T13:23:30Z</time>
      </trkpt>
      <trkpt lat="45.08079" lon="5.48275">
        <ele>746</ele>
        <time>2016-09-11T13:23:31Z</time>
      </trkpt>
      <trkpt lat="45.08085" lon="5.48275">
        <ele>747</ele>
        <time>2016-09-11T13:23:33Z</time>
      </trkpt>
      <trkpt lat="45.08091" lon="5.48277">
        <ele>749</ele>
        <time>2016-09-11T13:23:35Z</time>
      </trkpt>
      <trkpt lat="45.08099" lon="5.48275">
        <ele>751</ele>
        <time>2016-09-11T13:23:37Z</time>
      </trkpt>
      <trkpt lat="45.08107" lon="5.48273">
        <ele>752</ele>
        <time>2016-09-11T13:23:39Z</time>
      </trkpt>
      <trkpt lat="45.08113" lon="5.48269">
        <ele>754</ele>
        <time>2016-09-11T13:23:41Z</time>
      </trkpt>
      <trkpt lat="45.08121" lon="5.48265">
        <ele>755</ele>
        <time>2016-09-11T13:23:43Z</time>
      </trkpt>
      <trkpt lat="45.08126" lon="5.48258">
        <ele>755</ele>
        <time>2016-09-11T13:23:44Z</time>
      </trkpt>
      <trkpt lat="45.08132" lon="5.48258">
        <ele>755</ele>
        <time>2016-09-11T13:23:46Z</time>
      </trkpt>
      <trkpt lat="45.08141" lon="5.48257">
        <ele>755</ele>
        <time>2016-09-11T13:23:48Z</time>
      </trkpt>
      <trkpt lat="45.08146" lon="5.48257">
        <ele>756</ele>
        <time>2016-09-11T13:23:49Z</time>
      </trkpt>
      <trkpt lat="45.08154" lon="5.48254">
        <ele>756</ele>
        <time>2016-09-11T13:23:51Z</time>
      </trkpt>
      <trkpt lat="45.0816" lon="5.48254">
        <ele>758</ele>
        <time>2016-09-11T13:23:52Z</time>
      </trkpt>
      <trkpt lat="45.08165" lon="5.48252">
        <ele>758</ele>
        <time>2016-09-11T13:23:53Z</time>
      </trkpt>
      <trkpt lat="45.0817" lon="5.48252">
        <ele>759</ele>
        <time>2016-09-11T13:23:54Z</time>
      </trkpt>
      <trkpt lat="45.08176" lon="5.48252">
        <ele>760</ele>
        <time>2016-09-11T13:23:55Z</time>
      </trkpt>
      <trkpt lat="45.08181" lon="5.48253">
        <ele>760</ele>
        <time>2016-09-11T13:23:56Z</time>
      </trkpt>
      <trkpt lat="45.08186" lon="5.48251">
        <ele>760</ele>
        <time>2016-09-11T13:23:57Z</time>
      </trkpt>
      <trkpt lat="45.08191" lon="5.48252">
        <ele>760</ele>
        <time>2016-09-11T13:23:58Z</time>
      </trkpt>
      <trkpt lat="45.08196" lon="5.48252">
        <ele>761</ele>
        <time>2016-09-11T13:23:59Z</time>
      </trkpt>
      <trkpt lat="45.08202" lon="5.48251">
        <ele>761</ele>
        <time>2016-09-11T13:24:00Z</time>
      </trkpt>
      <trkpt lat="45.08207" lon="5.48243">
        <ele>761</ele>
        <time>2016-09-11T13:24:01Z</time>
      </trkpt>
      <trkpt lat="45.08212" lon="5.48235">
        <ele>759</ele>
        <time>2016-09-11T13:24:02Z</time>
      </trkpt>
      <trkpt lat="45.08216" lon="5.48231">
        <ele>756</ele>
        <time>2016-09-11T13:24:03Z</time>
      </trkpt>
      <trkpt lat="45.08217" lon="5.48225">
        <ele>753</ele>
        <time>2016-09-11T13:24:04Z</time>
      </trkpt>
      <trkpt lat="45.08222" lon="5.48219">
        <ele>749</ele>
        <time>2016-09-11T13:24:06Z</time>
      </trkpt>
      <trkpt lat="45.08224" lon="5.48213">
        <ele>745</ele>
        <time>2016-09-11T13:24:07Z</time>
      </trkpt>
      <trkpt lat="45.08229" lon="5.48205">
        <ele>743</ele>
        <time>2016-09-11T13:24:08Z</time>
      </trkpt>
      <trkpt lat="45.08234" lon="5.48197">
        <ele>743</ele>
        <time>2016-09-11T13:24:10Z</time>
      </trkpt>
      <trkpt lat="45.08238" lon="5.48192">
        <ele>742</ele>
        <time>2016-09-11T13:24:11Z</time>
      </trkpt>
      <trkpt lat="45.08241" lon="5.48188">
        <ele>743</ele>
        <time>2016-09-11T13:24:12Z</time>
      </trkpt>
      <trkpt lat="45.08245" lon="5.48179">
        <ele>743</ele>
        <time>2016-09-11T13:24:14Z</time>
      </trkpt>
      <trkpt lat="45.08247" lon="5.4817">
        <ele>743</ele>
        <time>2016-09-11T13:24:16Z</time>
      </trkpt>
      <trkpt lat="45.08254" lon="5.48163">
        <ele>742</ele>
        <time>2016-09-11T13:24:18Z</time>
      </trkpt>
      <trkpt lat="45.08258" lon="5.48157">
        <ele>741</ele>
        <time>2016-09-11T13:24:20Z</time>
      </trkpt>
      <trkpt lat="45.08262" lon="5.48149">
        <ele>740</ele>
        <time>2016-09-11T13:24:22Z</time>
      </trkpt>
      <trkpt lat="45.08268" lon="5.48142">
        <ele>740</ele>
        <time>2016-09-11T13:24:24Z</time>
      </trkpt>
      <trkpt lat="45.08273" lon="5.48134">
        <ele>741</ele>
        <time>2016-09-11T13:24:26Z</time>
      </trkpt>
      <trkpt lat="45.08276" lon="5.48126">
        <ele>741</ele>
        <time>2016-09-11T13:24:28Z</time>
      </trkpt>
      <trkpt lat="45.08278" lon="5.48116">
        <ele>741</ele>
        <time>2016-09-11T13:24:30Z</time>
      </trkpt>
      <trkpt lat="45.08276" lon="5.48107">
        <ele>743</ele>
        <time>2016-09-11T13:24:32Z</time>
      </trkpt>
      <trkpt lat="45.08273" lon="5.48099">
        <ele>744</ele>
        <time>2016-09-11T13:24:34Z</time>
      </trkpt>
      <trkpt lat="45.08268" lon="5.48093">
        <ele>745</ele>
        <time>2016-09-11T13:24:36Z</time>
      </trkpt>
      <trkpt lat="45.08272" lon="5.48089">
        <ele>746</ele>
        <time>2016-09-11T13:24:40Z</time>
      </trkpt>
      <trkpt lat="45.08278" lon="5.48081">
        <ele>746</ele>
        <time>2016-09-11T13:24:42Z</time>
      </trkpt>
      <trkpt lat="45.08284" lon="5.48073">
        <ele>747</ele>
        <time>2016-09-11T13:24:44Z</time>
      </trkpt>
      <trkpt lat="45.08287" lon="5.48068">
        <ele>747</ele>
        <time>2016-09-11T13:24:45Z</time>
      </trkpt>
      <trkpt lat="45.08292" lon="5.48058">
        <ele>747</ele>
        <time>2016-09-11T13:24:47Z</time>
      </trkpt>
      <trkpt lat="45.08295" lon="5.4805">
        <ele>748</ele>
        <time>2016-09-11T13:24:49Z</time>
      </trkpt>
      <trkpt lat="45.08297" lon="5.48042">
        <ele>750</ele>
        <time>2016-09-11T13:24:51Z</time>
      </trkpt>
      <trkpt lat="45.08299" lon="5.48035">
        <ele>751</ele>
        <time>2016-09-11T13:24:53Z</time>
      </trkpt>
      <trkpt lat="45.083" lon="5.48028">
        <ele>752</ele>
        <time>2016-09-11T13:24:55Z</time>
      </trkpt>
      <trkpt lat="45.08302" lon="5.48021">
        <ele>753</ele>
        <time>2016-09-11T13:24:57Z</time>
      </trkpt>
      <trkpt lat="45.08304" lon="5.48014">
        <ele>752</ele>
        <time>2016-09-11T13:24:59Z</time>
      </trkpt>
      <trkpt lat="45.08307" lon="5.48007">
        <ele>752</ele>
        <time>2016-09-11T13:25:01Z</time>
      </trkpt>
      <trkpt lat="45.08311" lon="5.48002">
        <ele>751</ele>
        <time>2016-09-11T13:25:03Z</time>
      </trkpt>
      <trkpt lat="45.08315" lon="5.47996">
        <ele>750</ele>
        <time>2016-09-11T13:25:05Z</time>
      </trkpt>
      <trkpt lat="45.08318" lon="5.4799">
        <ele>749</ele>
        <time>2016-09-11T13:25:07Z</time>
      </trkpt>
      <trkpt lat="45.08323" lon="5.47982">
        <ele>750</ele>
        <time>2016-09-11T13:25:10Z</time>
      </trkpt>
      <trkpt lat="45.08326" lon="5.47977">
        <ele>750</ele>
        <time>2016-09-11T13:25:12Z</time>
      </trkpt>
      <trkpt lat="45.08328" lon="5.47971">
        <ele>750</ele>
        <time>2016-09-11T13:25:14Z</time>
      </trkpt>
      <trkpt lat="45.08331" lon="5.47965">
        <ele>750</ele>
        <time>2016-09-11T13:25:16Z</time>
      </trkpt>
      <trkpt lat="45.08334" lon="5.47959">
        <ele>751</ele>
        <time>2016-09-11T13:25:18Z</time>
      </trkpt>
      <trkpt lat="45.08338" lon="5.47954">
        <ele>749</ele>
        <time>2016-09-11T13:25:20Z</time>
      </trkpt>
      <trkpt lat="45.0834" lon="5.47948">
        <ele>747</ele>
        <time>2016-09-11T13:25:22Z</time>
      </trkpt>
      <trkpt lat="45.08342" lon="5.47941">
        <ele>745</ele>
        <time>2016-09-11T13:25:24Z</time>
      </trkpt>
      <trkpt lat="45.08345" lon="5.47935">
        <ele>742</ele>
        <time>2016-09-11T13:25:26Z</time>
      </trkpt>
      <trkpt lat="45.08348" lon="5.4793">
        <ele>740</ele>
        <time>2016-09-11T13:25:28Z</time>
      </trkpt>
      <trkpt lat="45.08351" lon="5.47924">
        <ele>738</ele>
        <time>2016-09-11T13:25:30Z</time>
      </trkpt>
      <trkpt lat="45.08355" lon="5.47919">
        <ele>738</ele>
        <time>2016-09-11T13:25:32Z</time>
      </trkpt>
      <trkpt lat="45.08358" lon="5.47914">
        <ele>739</ele>
        <time>2016-09-11T13:25:34Z</time>
      </trkpt>
      <trkpt lat="45.08362" lon="5.47907">
        <ele>740</ele>
        <time>2016-09-11T13:25:37Z</time>
      </trkpt>
      <trkpt lat="45.08365" lon="5.479">
        <ele>741</ele>
        <time>2016-09-11T13:25:40Z</time>
      </trkpt>
      <trkpt lat="45.08367" lon="5.47893">
        <ele>742</ele>
        <time>2016-09-11T13:25:43Z</time>
      </trkpt>
      <trkpt lat="45.08368" lon="5.47886">
        <ele>743</ele>
        <time>2016-09-11T13:25:45Z</time>
      </trkpt>
      <trkpt lat="45.0837" lon="5.4788">
        <ele>744</ele>
        <time>2016-09-11T13:25:47Z</time>
      </trkpt>
      <trkpt lat="45.08371" lon="5.47873">
        <ele>745</ele>
        <time>2016-09-11T13:25:49Z</time>
      </trkpt>
      <trkpt lat="45.08371" lon="5.47865">
        <ele>746</ele>
        <time>2016-09-11T13:25:51Z</time>
      </trkpt>
      <trkpt lat="45.08369" lon="5.47858">
        <ele>747</ele>
        <time>2016-09-11T13:25:53Z</time>
      </trkpt>
      <trkpt lat="45.08366" lon="5.47851">
        <ele>747</ele>
        <time>2016-09-11T13:25:55Z</time>
      </trkpt>
      <trkpt lat="45.08363" lon="5.47845">
        <ele>747</ele>
        <time>2016-09-11T13:25:57Z</time>
      </trkpt>
      <trkpt lat="45.08359" lon="5.4784">
        <ele>746</ele>
        <time>2016-09-11T13:25:59Z</time>
      </trkpt>
      <trkpt lat="45.08356" lon="5.47834">
        <ele>745</ele>
        <time>2016-09-11T13:26:01Z</time>
      </trkpt>
      <trkpt lat="45.08352" lon="5.47828">
        <ele>743</ele>
        <time>2016-09-11T13:26:03Z</time>
      </trkpt>
      <trkpt lat="45.08349" lon="5.4782">
        <ele>742</ele>
        <time>2016-09-11T13:26:05Z</time>
      </trkpt>
      <trkpt lat="45.08345" lon="5.47814">
        <ele>741</ele>
        <time>2016-09-11T13:26:07Z</time>
      </trkpt>
      <trkpt lat="45.08342" lon="5.47809">
        <ele>740</ele>
        <time>2016-09-11T13:26:09Z</time>
      </trkpt>
      <trkpt lat="45.08337" lon="5.47802">
        <ele>739</ele>
        <time>2016-09-11T13:26:12Z</time>
      </trkpt>
      <trkpt lat="45.08334" lon="5.47796">
        <ele>738</ele>
        <time>2016-09-11T13:26:14Z</time>
      </trkpt>
      <trkpt lat="45.0833" lon="5.47789">
        <ele>738</ele>
        <time>2016-09-11T13:26:16Z</time>
      </trkpt>
      <trkpt lat="45.08327" lon="5.47782">
        <ele>738</ele>
        <time>2016-09-11T13:26:18Z</time>
      </trkpt>
      <trkpt lat="45.08325" lon="5.47775">
        <ele>739</ele>
        <time>2016-09-11T13:26:20Z</time>
      </trkpt>
      <trkpt lat="45.08322" lon="5.47767">
        <ele>740</ele>
        <time>2016-09-11T13:26:22Z</time>
      </trkpt>
      <trkpt lat="45.08318" lon="5.47759">
        <ele>741</ele>
        <time>2016-09-11T13:26:24Z</time>
      </trkpt>
      <trkpt lat="45.08314" lon="5.47751">
        <ele>742</ele>
        <time>2016-09-11T13:26:26Z</time>
      </trkpt>
      <trkpt lat="45.08311" lon="5.47744">
        <ele>744</ele>
        <time>2016-09-11T13:26:28Z</time>
      </trkpt>
      <trkpt lat="45.08308" lon="5.47738">
        <ele>745</ele>
        <time>2016-09-11T13:26:30Z</time>
      </trkpt>
      <trkpt lat="45.08305" lon="5.4773">
        <ele>746</ele>
        <time>2016-09-11T13:26:32Z</time>
      </trkpt>
      <trkpt lat="45.08302" lon="5.47723">
        <ele>747</ele>
        <time>2016-09-11T13:26:34Z</time>
      </trkpt>
      <trkpt lat="45.083" lon="5.47716">
        <ele>748</ele>
        <time>2016-09-11T13:26:36Z</time>
      </trkpt>
      <trkpt lat="45.08298" lon="5.47709">
        <ele>747</ele>
        <time>2016-09-11T13:26:42Z</time>
      </trkpt>
      <trkpt lat="45.08298" lon="5.47699">
        <ele>748</ele>
        <time>2016-09-11T13:26:45Z</time>
      </trkpt>
      <trkpt lat="45.083" lon="5.47691">
        <ele>748</ele>
        <time>2016-09-11T13:26:47Z</time>
      </trkpt>
      <trkpt lat="45.08299" lon="5.47683">
        <ele>748</ele>
        <time>2016-09-11T13:26:49Z</time>
      </trkpt>
      <trkpt lat="45.08299" lon="5.47675">
        <ele>748</ele>
        <time>2016-09-11T13:26:51Z</time>
      </trkpt>
      <trkpt lat="45.083" lon="5.47668">
        <ele>750</ele>
        <time>2016-09-11T13:26:53Z</time>
      </trkpt>
      <trkpt lat="45.083" lon="5.47662">
        <ele>751</ele>
        <time>2016-09-11T13:26:55Z</time>
      </trkpt>
      <trkpt lat="45.08298" lon="5.47653">
        <ele>751</ele>
        <time>2016-09-11T13:26:58Z</time>
      </trkpt>
      <trkpt lat="45.08294" lon="5.47648">
        <ele>751</ele>
        <time>2016-09-11T13:27:00Z</time>
      </trkpt>
      <trkpt lat="45.0829" lon="5.47641">
        <ele>750</ele>
        <time>2016-09-11T13:27:02Z</time>
      </trkpt>
      <trkpt lat="45.08287" lon="5.47634">
        <ele>749</ele>
        <time>2016-09-11T13:27:04Z</time>
      </trkpt>
      <trkpt lat="45.08284" lon="5.47627">
        <ele>747</ele>
        <time>2016-09-11T13:27:06Z</time>
      </trkpt>
      <trkpt lat="45.08281" lon="5.4762">
        <ele>747</ele>
        <time>2016-09-11T13:27:08Z</time>
      </trkpt>
      <trkpt lat="45.0828" lon="5.47612">
        <ele>747</ele>
        <time>2016-09-11T13:27:10Z</time>
      </trkpt>
      <trkpt lat="45.08281" lon="5.47603">
        <ele>748</ele>
        <time>2016-09-11T13:27:12Z</time>
      </trkpt>
      <trkpt lat="45.08281" lon="5.47594">
        <ele>749</ele>
        <time>2016-09-11T13:27:14Z</time>
      </trkpt>
      <trkpt lat="45.08279" lon="5.47586">
        <ele>751</ele>
        <time>2016-09-11T13:27:16Z</time>
      </trkpt>
      <trkpt lat="45.08279" lon="5.47577">
        <ele>754</ele>
        <time>2016-09-11T13:27:18Z</time>
      </trkpt>
      <trkpt lat="45.08279" lon="5.47568">
        <ele>756</ele>
        <time>2016-09-11T13:27:20Z</time>
      </trkpt>
      <trkpt lat="45.08278" lon="5.4756">
        <ele>759</ele>
        <time>2016-09-11T13:27:22Z</time>
      </trkpt>
      <trkpt lat="45.08278" lon="5.47553">
        <ele>762</ele>
        <time>2016-09-11T13:27:24Z</time>
      </trkpt>
      <trkpt lat="45.08276" lon="5.47546">
        <ele>761</ele>
        <time>2016-09-11T13:27:26Z</time>
      </trkpt>
      <trkpt lat="45.08275" lon="5.47538">
        <ele>760</ele>
        <time>2016-09-11T13:27:28Z</time>
      </trkpt>
      <trkpt lat="45.08272" lon="5.47531">
        <ele>758</ele>
        <time>2016-09-11T13:27:30Z</time>
      </trkpt>
      <trkpt lat="45.08269" lon="5.47524">
        <ele>757</ele>
        <time>2016-09-11T13:27:32Z</time>
      </trkpt>
      <trkpt lat="45.08268" lon="5.47517">
        <ele>755</ele>
        <time>2016-09-11T13:27:34Z</time>
      </trkpt>
      <trkpt lat="45.0827" lon="5.47511">
        <ele>758</ele>
        <time>2016-09-11T13:27:36Z</time>
      </trkpt>
      <trkpt lat="45.08273" lon="5.47503">
        <ele>761</ele>
        <time>2016-09-11T13:27:38Z</time>
      </trkpt>
      <trkpt lat="45.08276" lon="5.47495">
        <ele>763</ele>
        <time>2016-09-11T13:27:40Z</time>
      </trkpt>
      <trkpt lat="45.08278" lon="5.47486">
        <ele>765</ele>
        <time>2016-09-11T13:27:42Z</time>
      </trkpt>
      <trkpt lat="45.08279" lon="5.47478">
        <ele>766</ele>
        <time>2016-09-11T13:27:44Z</time>
      </trkpt>
      <trkpt lat="45.08281" lon="5.4747">
        <ele>766</ele>
        <time>2016-09-11T13:27:46Z</time>
      </trkpt>
      <trkpt lat="45.08283" lon="5.47462">
        <ele>765</ele>
        <time>2016-09-11T13:27:48Z</time>
      </trkpt>
      <trkpt lat="45.08284" lon="5.47454">
        <ele>765</ele>
        <time>2016-09-11T13:27:50Z</time>
      </trkpt>
      <trkpt lat="45.08286" lon="5.47446">
        <ele>764</ele>
        <time>2016-09-11T13:27:52Z</time>
      </trkpt>
      <trkpt lat="45.08287" lon="5.47438">
        <ele>765</ele>
        <time>2016-09-11T13:27:54Z</time>
      </trkpt>
      <trkpt lat="45.08289" lon="5.4743">
        <ele>766</ele>
        <time>2016-09-11T13:27:56Z</time>
      </trkpt>
      <trkpt lat="45.0829" lon="5.47422">
        <ele>767</ele>
        <time>2016-09-11T13:27:58Z</time>
      </trkpt>
      <trkpt lat="45.0829" lon="5.47415">
        <ele>769</ele>
        <time>2016-09-11T13:28:00Z</time>
      </trkpt>
      <trkpt lat="45.08289" lon="5.47408">
        <ele>770</ele>
        <time>2016-09-11T13:28:02Z</time>
      </trkpt>
      <trkpt lat="45.08289" lon="5.47401">
        <ele>771</ele>
        <time>2016-09-11T13:28:04Z</time>
      </trkpt>
      <trkpt lat="45.08289" lon="5.47393">
        <ele>773</ele>
        <time>2016-09-11T13:28:06Z</time>
      </trkpt>
      <trkpt lat="45.08289" lon="5.47386">
        <ele>774</ele>
        <time>2016-09-11T13:28:08Z</time>
      </trkpt>
      <trkpt lat="45.08287" lon="5.47379">
        <ele>775</ele>
        <time>2016-09-11T13:28:10Z</time>
      </trkpt>
      <trkpt lat="45.08284" lon="5.47372">
        <ele>776</ele>
        <time>2016-09-11T13:28:12Z</time>
      </trkpt>
      <trkpt lat="45.08283" lon="5.47365">
        <ele>778</ele>
        <time>2016-09-11T13:28:14Z</time>
      </trkpt>
      <trkpt lat="45.08282" lon="5.47359">
        <ele>780</ele>
        <time>2016-09-11T13:28:16Z</time>
      </trkpt>
      <trkpt lat="45.08281" lon="5.4735">
        <ele>781</ele>
        <time>2016-09-11T13:28:19Z</time>
      </trkpt>
      <trkpt lat="45.0828" lon="5.47344">
        <ele>784</ele>
        <time>2016-09-11T13:28:24Z</time>
      </trkpt>
      <trkpt lat="45.08276" lon="5.47339">
        <ele>786</ele>
        <time>2016-09-11T13:28:27Z</time>
      </trkpt>
      <trkpt lat="45.08271" lon="5.47333">
        <ele>787</ele>
        <time>2016-09-11T13:28:30Z</time>
      </trkpt>
      <trkpt lat="45.08268" lon="5.47329">
        <ele>788</ele>
        <time>2016-09-11T13:28:34Z</time>
      </trkpt>
      <trkpt lat="45.08265" lon="5.47322">
        <ele>789</ele>
        <time>2016-09-11T13:28:37Z</time>
      </trkpt>
      <trkpt lat="45.08262" lon="5.47314">
        <ele>788</ele>
        <time>2016-09-11T13:28:40Z</time>
      </trkpt>
      <trkpt lat="45.0826" lon="5.47306">
        <ele>786</ele>
        <time>2016-09-11T13:28:43Z</time>
      </trkpt>
      <trkpt lat="45.08259" lon="5.47298">
        <ele>785</ele>
        <time>2016-09-11T13:28:46Z</time>
      </trkpt>
      <trkpt lat="45.0826" lon="5.47291">
        <ele>786</ele>
        <time>2016-09-11T13:28:48Z</time>
      </trkpt>
      <trkpt lat="45.0826" lon="5.47282">
        <ele>787</ele>
        <time>2016-09-11T13:28:51Z</time>
      </trkpt>
      <trkpt lat="45.08261" lon="5.47275">
        <ele>788</ele>
        <time>2016-09-11T13:28:53Z</time>
      </trkpt>
      <trkpt lat="45.08262" lon="5.47268">
        <ele>789</ele>
        <time>2016-09-11T13:28:55Z</time>
      </trkpt>
      <trkpt lat="45.08263" lon="5.4726">
        <ele>789</ele>
        <time>2016-09-11T13:28:57Z</time>
      </trkpt>
      <trkpt lat="45.08265" lon="5.47253">
        <ele>789</ele>
        <time>2016-09-11T13:28:59Z</time>
      </trkpt>
      <trkpt lat="45.08264" lon="5.47244">
        <ele>788</ele>
        <time>2016-09-11T13:29:02Z</time>
      </trkpt>
      <trkpt lat="45.08265" lon="5.47235">
        <ele>788</ele>
        <time>2016-09-11T13:29:05Z</time>
      </trkpt>
      <trkpt lat="45.08265" lon="5.47226">
        <ele>789</ele>
        <time>2016-09-11T13:29:08Z</time>
      </trkpt>
      <trkpt lat="45.08263" lon="5.47217">
        <ele>790</ele>
        <time>2016-09-11T13:29:11Z</time>
      </trkpt>
      <trkpt lat="45.08262" lon="5.4721">
        <ele>790</ele>
        <time>2016-09-11T13:29:13Z</time>
      </trkpt>
      <trkpt lat="45.08262" lon="5.47203">
        <ele>791</ele>
        <time>2016-09-11T13:29:15Z</time>
      </trkpt>
      <trkpt lat="45.0826" lon="5.47196">
        <ele>791</ele>
        <time>2016-09-11T13:29:17Z</time>
      </trkpt>
      <trkpt lat="45.08259" lon="5.47189">
        <ele>792</ele>
        <time>2016-09-11T13:29:19Z</time>
      </trkpt>
      <trkpt lat="45.08258" lon="5.47181">
        <ele>793</ele>
        <time>2016-09-11T13:29:21Z</time>
      </trkpt>
      <trkpt lat="45.08257" lon="5.47173">
        <ele>793</ele>
        <time>2016-09-11T13:29:23Z</time>
      </trkpt>
      <trkpt lat="45.08255" lon="5.47166">
        <ele>794</ele>
        <time>2016-09-11T13:29:25Z</time>
      </trkpt>
      <trkpt lat="45.08254" lon="5.4716">
        <ele>795</ele>
        <time>2016-09-11T13:29:27Z</time>
      </trkpt>
      <trkpt lat="45.08252" lon="5.47151">
        <ele>796</ele>
        <time>2016-09-11T13:29:30Z</time>
      </trkpt>
      <trkpt lat="45.0825" lon="5.47144">
        <ele>797</ele>
        <time>2016-09-11T13:29:33Z</time>
      </trkpt>
      <trkpt lat="45.08247" lon="5.47137">
        <ele>798</ele>
        <time>2016-09-11T13:29:36Z</time>
      </trkpt>
      <trkpt lat="45.08243" lon="5.4713">
        <ele>800</ele>
        <time>2016-09-11T13:29:39Z</time>
      </trkpt>
      <trkpt lat="45.0824" lon="5.47122">
        <ele>801</ele>
        <time>2016-09-11T13:29:42Z</time>
      </trkpt>
      <trkpt lat="45.08238" lon="5.47114">
        <ele>801</ele>
        <time>2016-09-11T13:29:45Z</time>
      </trkpt>
      <trkpt lat="45.08234" lon="5.47107">
        <ele>801</ele>
        <time>2016-09-11T13:29:48Z</time>
      </trkpt>
      <trkpt lat="45.08231" lon="5.471">
        <ele>801</ele>
        <time>2016-09-11T13:29:51Z</time>
      </trkpt>
      <trkpt lat="45.08226" lon="5.47093">
        <ele>800</ele>
        <time>2016-09-11T13:29:54Z</time>
      </trkpt>
      <trkpt lat="45.08223" lon="5.47088">
        <ele>800</ele>
        <time>2016-09-11T13:29:56Z</time>
      </trkpt>
      <trkpt lat="45.08219" lon="5.47082">
        <ele>801</ele>
        <time>2016-09-11T13:29:58Z</time>
      </trkpt>
      <trkpt lat="45.08215" lon="5.47076">
        <ele>801</ele>
        <time>2016-09-11T13:30:00Z</time>
      </trkpt>
      <trkpt lat="45.08211" lon="5.47071">
        <ele>802</ele>
        <time>2016-09-11T13:30:02Z</time>
      </trkpt>
      <trkpt lat="45.08207" lon="5.47067">
        <ele>802</ele>
        <time>2016-09-11T13:30:04Z</time>
      </trkpt>
      <trkpt lat="45.08204" lon="5.47062">
        <ele>802</ele>
        <time>2016-09-11T13:30:06Z</time>
      </trkpt>
      <trkpt lat="45.082" lon="5.47059">
        <ele>802</ele>
        <time>2016-09-11T13:30:08Z</time>
      </trkpt>
      <trkpt lat="45.08196" lon="5.47054">
        <ele>801</ele>
        <time>2016-09-11T13:30:11Z</time>
      </trkpt>
      <trkpt lat="45.08191" lon="5.4705">
        <ele>801</ele>
        <time>2016-09-11T13:30:14Z</time>
      </trkpt>
      <trkpt lat="45.08186" lon="5.47046">
        <ele>801</ele>
        <time>2016-09-11T13:30:17Z</time>
      </trkpt>
      <trkpt lat="45.0818" lon="5.47042">
        <ele>802</ele>
        <time>2016-09-11T13:30:20Z</time>
      </trkpt>
      <trkpt lat="45.08175" lon="5.47039">
        <ele>803</ele>
        <time>2016-09-11T13:30:22Z</time>
      </trkpt>
      <trkpt lat="45.0817" lon="5.47034">
        <ele>805</ele>
        <time>2016-09-11T13:30:25Z</time>
      </trkpt>
      <trkpt lat="45.08164" lon="5.47029">
        <ele>805</ele>
        <time>2016-09-11T13:30:28Z</time>
      </trkpt>
      <trkpt lat="45.0816" lon="5.47025">
        <ele>806</ele>
        <time>2016-09-11T13:30:31Z</time>
      </trkpt>
      <trkpt lat="45.08156" lon="5.47022">
        <ele>807</ele>
        <time>2016-09-11T13:30:37Z</time>
      </trkpt>
      <trkpt lat="45.08151" lon="5.4702">
        <ele>808</ele>
        <time>2016-09-11T13:30:41Z</time>
      </trkpt>
      <trkpt lat="45.08145" lon="5.47016">
        <ele>808</ele>
        <time>2016-09-11T13:30:44Z</time>
      </trkpt>
      <trkpt lat="45.0814" lon="5.47013">
        <ele>810</ele>
        <time>2016-09-11T13:30:46Z</time>
      </trkpt>
      <trkpt lat="45.08133" lon="5.47007">
        <ele>811</ele>
        <time>2016-09-11T13:30:48Z</time>
      </trkpt>
      <trkpt lat="45.08126" lon="5.47003">
        <ele>812</ele>
        <time>2016-09-11T13:30:49Z</time>
      </trkpt>
      <trkpt lat="45.0812" lon="5.47001">
        <ele>812</ele>
        <time>2016-09-11T13:30:50Z</time>
      </trkpt>
      <trkpt lat="45.08114" lon="5.46997">
        <ele>813</ele>
        <time>2016-09-11T13:30:51Z</time>
      </trkpt>
      <trkpt lat="45.08108" lon="5.46992">
        <ele>814</ele>
        <time>2016-09-11T13:30:53Z</time>
      </trkpt>
      <trkpt lat="45.08105" lon="5.46985">
        <ele>816</ele>
        <time>2016-09-11T13:30:56Z</time>
      </trkpt>
      <trkpt lat="45.081" lon="5.46978">
        <ele>817</ele>
        <time>2016-09-11T13:30:58Z</time>
      </trkpt>
      <trkpt lat="45.08096" lon="5.46972">
        <ele>818</ele>
        <time>2016-09-11T13:31:00Z</time>
      </trkpt>
      <trkpt lat="45.08092" lon="5.46967">
        <ele>819</ele>
        <time>2016-09-11T13:31:03Z</time>
      </trkpt>
      <trkpt lat="45.08089" lon="5.46961">
        <ele>820</ele>
        <time>2016-09-11T13:31:06Z</time>
      </trkpt>
      <trkpt lat="45.08086" lon="5.46956">
        <ele>820</ele>
        <time>2016-09-11T13:31:08Z</time>
      </trkpt>
      <trkpt lat="45.08082" lon="5.46951">
        <ele>821</ele>
        <time>2016-09-11T13:31:10Z</time>
      </trkpt>
      <trkpt lat="45.08078" lon="5.46946">
        <ele>821</ele>
        <time>2016-09-11T13:31:12Z</time>
      </trkpt>
      <trkpt lat="45.08075" lon="5.46942">
        <ele>822</ele>
        <time>2016-09-11T13:31:14Z</time>
      </trkpt>
      <trkpt lat="45.08069" lon="5.46938">
        <ele>822</ele>
        <time>2016-09-11T13:31:17Z</time>
      </trkpt>
      <trkpt lat="45.08065" lon="5.46936">
        <ele>822</ele>
        <time>2016-09-11T13:31:19Z</time>
      </trkpt>
      <trkpt lat="45.08059" lon="5.46931">
        <ele>822</ele>
        <time>2016-09-11T13:31:22Z</time>
      </trkpt>
      <trkpt lat="45.08054" lon="5.46926">
        <ele>822</ele>
        <time>2016-09-11T13:31:25Z</time>
      </trkpt>
      <trkpt lat="45.0805" lon="5.4692">
        <ele>823</ele>
        <time>2016-09-11T13:31:28Z</time>
      </trkpt>
      <trkpt lat="45.08046" lon="5.46914">
        <ele>826</ele>
        <time>2016-09-11T13:31:31Z</time>
      </trkpt>
      <trkpt lat="45.08043" lon="5.46907">
        <ele>828</ele>
        <time>2016-09-11T13:31:33Z</time>
      </trkpt>
      <trkpt lat="45.0804" lon="5.469">
        <ele>830</ele>
        <time>2016-09-11T13:31:35Z</time>
      </trkpt>
      <trkpt lat="45.08037" lon="5.46893">
        <ele>832</ele>
        <time>2016-09-11T13:31:37Z</time>
      </trkpt>
      <trkpt lat="45.08035" lon="5.46886">
        <ele>834</ele>
        <time>2016-09-11T13:31:39Z</time>
      </trkpt>
      <trkpt lat="45.08033" lon="5.4688">
        <ele>834</ele>
        <time>2016-09-11T13:31:41Z</time>
      </trkpt>
      <trkpt lat="45.08031" lon="5.46873">
        <ele>834</ele>
        <time>2016-09-11T13:31:43Z</time>
      </trkpt>
      <trkpt lat="45.08031" lon="5.46866">
        <ele>833</ele>
        <time>2016-09-11T13:31:45Z</time>
      </trkpt>
      <trkpt lat="45.08032" lon="5.4686">
        <ele>833</ele>
        <time>2016-09-11T13:31:47Z</time>
      </trkpt>
      <trkpt lat="45.08034" lon="5.46851">
        <ele>832</ele>
        <time>2016-09-11T13:31:50Z</time>
      </trkpt>
      <trkpt lat="45.08036" lon="5.46845">
        <ele>832</ele>
        <time>2016-09-11T13:31:52Z</time>
      </trkpt>
      <trkpt lat="45.08038" lon="5.46838">
        <ele>831</ele>
        <time>2016-09-11T13:31:54Z</time>
      </trkpt>
      <trkpt lat="45.08039" lon="5.46832">
        <ele>831</ele>
        <time>2016-09-11T13:31:56Z</time>
      </trkpt>
      <trkpt lat="45.08039" lon="5.46823">
        <ele>831</ele>
        <time>2016-09-11T13:31:59Z</time>
      </trkpt>
      <trkpt lat="45.08038" lon="5.46815">
        <ele>831</ele>
        <time>2016-09-11T13:32:02Z</time>
      </trkpt>
      <trkpt lat="45.08037" lon="5.46807">
        <ele>832</ele>
        <time>2016-09-11T13:32:05Z</time>
      </trkpt>
      <trkpt lat="45.08037" lon="5.46799">
        <ele>832</ele>
        <time>2016-09-11T13:32:08Z</time>
      </trkpt>
      <trkpt lat="45.08035" lon="5.46791">
        <ele>831</ele>
        <time>2016-09-11T13:32:11Z</time>
      </trkpt>
      <trkpt lat="45.08033" lon="5.46785">
        <ele>831</ele>
        <time>2016-09-11T13:32:13Z</time>
      </trkpt>
      <trkpt lat="45.0803" lon="5.46779">
        <ele>830</ele>
        <time>2016-09-11T13:32:15Z</time>
      </trkpt>
      <trkpt lat="45.08028" lon="5.46773">
        <ele>829</ele>
        <time>2016-09-11T13:32:17Z</time>
      </trkpt>
      <trkpt lat="45.08023" lon="5.46767">
        <ele>828</ele>
        <time>2016-09-11T13:32:20Z</time>
      </trkpt>
      <trkpt lat="45.08019" lon="5.46762">
        <ele>828</ele>
        <time>2016-09-11T13:32:23Z</time>
      </trkpt>
      <trkpt lat="45.08015" lon="5.46758">
        <ele>827</ele>
        <time>2016-09-11T13:32:26Z</time>
      </trkpt>
      <trkpt lat="45.08011" lon="5.46754">
        <ele>827</ele>
        <time>2016-09-11T13:32:29Z</time>
      </trkpt>
      <trkpt lat="45.08006" lon="5.46749">
        <ele>827</ele>
        <time>2016-09-11T13:32:32Z</time>
      </trkpt>
      <trkpt lat="45.08002" lon="5.46745">
        <ele>827</ele>
        <time>2016-09-11T13:32:35Z</time>
      </trkpt>
      <trkpt lat="45.07997" lon="5.46741">
        <ele>828</ele>
        <time>2016-09-11T13:32:38Z</time>
      </trkpt>
      <trkpt lat="45.07993" lon="5.46737">
        <ele>829</ele>
        <time>2016-09-11T13:32:41Z</time>
      </trkpt>
      <trkpt lat="45.0799" lon="5.46733">
        <ele>829</ele>
        <time>2016-09-11T13:32:44Z</time>
      </trkpt>
      <trkpt lat="45.07986" lon="5.46727">
        <ele>830</ele>
        <time>2016-09-11T13:32:47Z</time>
      </trkpt>
      <trkpt lat="45.07983" lon="5.4672">
        <ele>830</ele>
        <time>2016-09-11T13:32:50Z</time>
      </trkpt>
      <trkpt lat="45.07982" lon="5.46713">
        <ele>830</ele>
        <time>2016-09-11T13:32:53Z</time>
      </trkpt>
      <trkpt lat="45.0798" lon="5.46705">
        <ele>829</ele>
        <time>2016-09-11T13:32:56Z</time>
      </trkpt>
      <trkpt lat="45.07978" lon="5.46698">
        <ele>828</ele>
        <time>2016-09-11T13:32:59Z</time>
      </trkpt>
      <trkpt lat="45.07975" lon="5.46692">
        <ele>827</ele>
        <time>2016-09-11T13:33:02Z</time>
      </trkpt>
      <trkpt lat="45.07973" lon="5.46684">
        <ele>827</ele>
        <time>2016-09-11T13:33:05Z</time>
      </trkpt>
      <trkpt lat="45.0797" lon="5.46676">
        <ele>827</ele>
        <time>2016-09-11T13:33:08Z</time>
      </trkpt>
      <trkpt lat="45.07967" lon="5.4667">
        <ele>827</ele>
        <time>2016-09-11T13:33:11Z</time>
      </trkpt>
      <trkpt lat="45.07966" lon="5.46663">
        <ele>828</ele>
        <time>2016-09-11T13:33:14Z</time>
      </trkpt>
      <trkpt lat="45.07964" lon="5.46655">
        <ele>829</ele>
        <time>2016-09-11T13:33:17Z</time>
      </trkpt>
      <trkpt lat="45.07963" lon="5.46647">
        <ele>829</ele>
        <time>2016-09-11T13:33:20Z</time>
      </trkpt>
      <trkpt lat="45.07962" lon="5.46638">
        <ele>828</ele>
        <time>2016-09-11T13:33:23Z</time>
      </trkpt>
      <trkpt lat="45.07963" lon="5.46632">
        <ele>827</ele>
        <time>2016-09-11T13:33:25Z</time>
      </trkpt>
      <trkpt lat="45.07965" lon="5.46622">
        <ele>826</ele>
        <time>2016-09-11T13:33:28Z</time>
      </trkpt>
      <trkpt lat="45.07967" lon="5.46616">
        <ele>824</ele>
        <time>2016-09-11T13:33:30Z</time>
      </trkpt>
      <trkpt lat="45.0797" lon="5.4661">
        <ele>824</ele>
        <time>2016-09-11T13:33:32Z</time>
      </trkpt>
      <trkpt lat="45.07974" lon="5.46605">
        <ele>823</ele>
        <time>2016-09-11T13:33:34Z</time>
      </trkpt>
      <trkpt lat="45.07977" lon="5.466">
        <ele>823</ele>
        <time>2016-09-11T13:33:36Z</time>
      </trkpt>
      <trkpt lat="45.0798" lon="5.46595">
        <ele>823</ele>
        <time>2016-09-11T13:33:38Z</time>
      </trkpt>
      <trkpt lat="45.07983" lon="5.46588">
        <ele>824</ele>
        <time>2016-09-11T13:33:40Z</time>
      </trkpt>
      <trkpt lat="45.07987" lon="5.46582">
        <ele>824</ele>
        <time>2016-09-11T13:33:42Z</time>
      </trkpt>
      <trkpt lat="45.0799" lon="5.46576">
        <ele>824</ele>
        <time>2016-09-11T13:33:44Z</time>
      </trkpt>
      <trkpt lat="45.07993" lon="5.4657">
        <ele>825</ele>
        <time>2016-09-11T13:33:46Z</time>
      </trkpt>
      <trkpt lat="45.07995" lon="5.46564">
        <ele>825</ele>
        <time>2016-09-11T13:33:48Z</time>
      </trkpt>
      <trkpt lat="45.07996" lon="5.46557">
        <ele>826</ele>
        <time>2016-09-11T13:33:50Z</time>
      </trkpt>
      <trkpt lat="45.07998" lon="5.4655">
        <ele>826</ele>
        <time>2016-09-11T13:33:52Z</time>
      </trkpt>
      <trkpt lat="45.07999" lon="5.46543">
        <ele>827</ele>
        <time>2016-09-11T13:33:54Z</time>
      </trkpt>
      <trkpt lat="45.07999" lon="5.46535">
        <ele>827</ele>
        <time>2016-09-11T13:33:56Z</time>
      </trkpt>
      <trkpt lat="45.08001" lon="5.46528">
        <ele>828</ele>
        <time>2016-09-11T13:33:58Z</time>
      </trkpt>
      <trkpt lat="45.08001" lon="5.46521">
        <ele>829</ele>
        <time>2016-09-11T13:34:00Z</time>
      </trkpt>
      <trkpt lat="45.08001" lon="5.46515">
        <ele>830</ele>
        <time>2016-09-11T13:34:02Z</time>
      </trkpt>
      <trkpt lat="45.08" lon="5.46509">
        <ele>830</ele>
        <time>2016-09-11T13:34:04Z</time>
      </trkpt>
      <trkpt lat="45.07999" lon="5.465">
        <ele>831</ele>
        <time>2016-09-11T13:34:07Z</time>
      </trkpt>
      <trkpt lat="45.07997" lon="5.46492">
        <ele>832</ele>
        <time>2016-09-11T13:34:10Z</time>
      </trkpt>
      <trkpt lat="45.07996" lon="5.46483">
        <ele>832</ele>
        <time>2016-09-11T13:34:13Z</time>
      </trkpt>
      <trkpt lat="45.07995" lon="5.46474">
        <ele>834</ele>
        <time>2016-09-11T13:34:16Z</time>
      </trkpt>
      <trkpt lat="45.07993" lon="5.46465">
        <ele>834</ele>
        <time>2016-09-11T13:34:19Z</time>
      </trkpt>
      <trkpt lat="45.07991" lon="5.46459">
        <ele>835</ele>
        <time>2016-09-11T13:34:21Z</time>
      </trkpt>
      <trkpt lat="45.0799" lon="5.46453">
        <ele>836</ele>
        <time>2016-09-11T13:34:23Z</time>
      </trkpt>
      <trkpt lat="45.07988" lon="5.46447">
        <ele>836</ele>
        <time>2016-09-11T13:34:25Z</time>
      </trkpt>
      <trkpt lat="45.07987" lon="5.46439">
        <ele>836</ele>
        <time>2016-09-11T13:34:27Z</time>
      </trkpt>
      <trkpt lat="45.07985" lon="5.46431">
        <ele>836</ele>
        <time>2016-09-11T13:34:29Z</time>
      </trkpt>
      <trkpt lat="45.07983" lon="5.46424">
        <ele>836</ele>
        <time>2016-09-11T13:34:31Z</time>
      </trkpt>
      <trkpt lat="45.07981" lon="5.46416">
        <ele>836</ele>
        <time>2016-09-11T13:34:33Z</time>
      </trkpt>
      <trkpt lat="45.07978" lon="5.4641">
        <ele>837</ele>
        <time>2016-09-11T13:34:35Z</time>
      </trkpt>
      <trkpt lat="45.07976" lon="5.46403">
        <ele>838</ele>
        <time>2016-09-11T13:34:37Z</time>
      </trkpt>
      <trkpt lat="45.07974" lon="5.46397">
        <ele>838</ele>
        <time>2016-09-11T13:34:39Z</time>
      </trkpt>
      <trkpt lat="45.07971" lon="5.46391">
        <ele>839</ele>
        <time>2016-09-11T13:34:41Z</time>
      </trkpt>
      <trkpt lat="45.07968" lon="5.46385">
        <ele>839</ele>
        <time>2016-09-11T13:34:43Z</time>
      </trkpt>
      <trkpt lat="45.07966" lon="5.46378">
        <ele>839</ele>
        <time>2016-09-11T13:34:45Z</time>
      </trkpt>
      <trkpt lat="45.07963" lon="5.46372">
        <ele>839</ele>
        <time>2016-09-11T13:34:47Z</time>
      </trkpt>
      <trkpt lat="45.07961" lon="5.46366">
        <ele>840</ele>
        <time>2016-09-11T13:34:49Z</time>
      </trkpt>
      <trkpt lat="45.07958" lon="5.46361">
        <ele>840</ele>
        <time>2016-09-11T13:34:51Z</time>
      </trkpt>
      <trkpt lat="45.07955" lon="5.46356">
        <ele>840</ele>
        <time>2016-09-11T13:34:53Z</time>
      </trkpt>
      <trkpt lat="45.07952" lon="5.4635">
        <ele>840</ele>
        <time>2016-09-11T13:34:55Z</time>
      </trkpt>
      <trkpt lat="45.07949" lon="5.46345">
        <ele>840</ele>
        <time>2016-09-11T13:34:57Z</time>
      </trkpt>
      <trkpt lat="45.07946" lon="5.46339">
        <ele>840</ele>
        <time>2016-09-11T13:34:59Z</time>
      </trkpt>
      <trkpt lat="45.07943" lon="5.46333">
        <ele>840</ele>
        <time>2016-09-11T13:35:01Z</time>
      </trkpt>
      <trkpt lat="45.0794" lon="5.46325">
        <ele>840</ele>
        <time>2016-09-11T13:35:04Z</time>
      </trkpt>
      <trkpt lat="45.07938" lon="5.46319">
        <ele>840</ele>
        <time>2016-09-11T13:35:06Z</time>
      </trkpt>
      <trkpt lat="45.07936" lon="5.46312">
        <ele>840</ele>
        <time>2016-09-11T13:35:08Z</time>
      </trkpt>
      <trkpt lat="45.07934" lon="5.46305">
        <ele>841</ele>
        <time>2016-09-11T13:35:10Z</time>
      </trkpt>
      <trkpt lat="45.07932" lon="5.46299">
        <ele>841</ele>
        <time>2016-09-11T13:35:12Z</time>
      </trkpt>
      <trkpt lat="45.0793" lon="5.46292">
        <ele>842</ele>
        <time>2016-09-11T13:35:14Z</time>
      </trkpt>
      <trkpt lat="45.07928" lon="5.46285">
        <ele>843</ele>
        <time>2016-09-11T13:35:16Z</time>
      </trkpt>
      <trkpt lat="45.07927" lon="5.46279">
        <ele>843</ele>
        <time>2016-09-11T13:35:18Z</time>
      </trkpt>
      <trkpt lat="45.07925" lon="5.46273">
        <ele>844</ele>
        <time>2016-09-11T13:35:20Z</time>
      </trkpt>
      <trkpt lat="45.07923" lon="5.46265">
        <ele>844</ele>
        <time>2016-09-11T13:35:23Z</time>
      </trkpt>
      <trkpt lat="45.07922" lon="5.46257">
        <ele>844</ele>
        <time>2016-09-11T13:35:26Z</time>
      </trkpt>
      <trkpt lat="45.07921" lon="5.46249">
        <ele>845</ele>
        <time>2016-09-11T13:35:29Z</time>
      </trkpt>
      <trkpt lat="45.0792" lon="5.46241">
        <ele>845</ele>
        <time>2016-09-11T13:35:32Z</time>
      </trkpt>
      <trkpt lat="45.07921" lon="5.46233">
        <ele>845</ele>
        <time>2016-09-11T13:35:35Z</time>
      </trkpt>
      <trkpt lat="45.07921" lon="5.46225">
        <ele>845</ele>
        <time>2016-09-11T13:35:38Z</time>
      </trkpt>
      <trkpt lat="45.0792" lon="5.46218">
        <ele>845</ele>
        <time>2016-09-11T13:35:41Z</time>
      </trkpt>
      <trkpt lat="45.07918" lon="5.46212">
        <ele>844</ele>
        <time>2016-09-11T13:35:46Z</time>
      </trkpt>
      <trkpt lat="45.07917" lon="5.46205">
        <ele>844</ele>
        <time>2016-09-11T13:35:50Z</time>
      </trkpt>
      <trkpt lat="45.07915" lon="5.46198">
        <ele>844</ele>
        <time>2016-09-11T13:35:54Z</time>
      </trkpt>
      <trkpt lat="45.07914" lon="5.46191">
        <ele>844</ele>
        <time>2016-09-11T13:35:58Z</time>
      </trkpt>
      <trkpt lat="45.07912" lon="5.46184">
        <ele>844</ele>
        <time>2016-09-11T13:36:02Z</time>
      </trkpt>
      <trkpt lat="45.07909" lon="5.46179">
        <ele>844</ele>
        <time>2016-09-11T13:36:06Z</time>
      </trkpt>
      <trkpt lat="45.07907" lon="5.46173">
        <ele>844</ele>
        <time>2016-09-11T13:36:10Z</time>
      </trkpt>
      <trkpt lat="45.07905" lon="5.46166">
        <ele>844</ele>
        <time>2016-09-11T13:36:22Z</time>
      </trkpt>
      <trkpt lat="45.07908" lon="5.46167">
        <ele>844</ele>
        <time>2016-09-11T13:36:37Z</time>
      </trkpt>
      <trkpt lat="45.07908" lon="5.46167">
        <ele>843</ele>
        <time>2016-09-11T13:36:40Z</time>
      </trkpt>
      <trkpt lat="45.07908" lon="5.46167">
        <ele>843</ele>
        <time>2016-09-11T13:37:07Z</time>
      </trkpt>
      <trkpt lat="45.07908" lon="5.46167">
        <ele>843</ele>
        <time>2016-09-11T13:37:09Z</time>
      </trkpt>
      <trkpt lat="45.07908" lon="5.46167">
        <ele>843</ele>
        <time>2016-09-11T13:37:37Z</time>
      </trkpt>
      <trkpt lat="45.07908" lon="5.46167">
        <ele>843</ele>
        <time>2016-09-11T13:37:39Z</time>
      </trkpt>
      <trkpt lat="45.07908" lon="5.46167">
        <ele>843</ele>
        <time>2016-09-11T13:38:07Z</time>
      </trkpt>
      <trkpt lat="45.07908" lon="5.46167">
        <ele>843</ele>
        <time>2016-09-11T13:38:09Z</time>
      </trkpt>
      <trkpt lat="45.07906" lon="5.46169">
        <ele>843</ele>
        <time>2016-09-11T13:38:37Z</time>
      </trkpt>
      <trkpt lat="45.07906" lon="5.46169">
        <ele>843</ele>
        <time>2016-09-11T13:38:39Z</time>
      </trkpt>
      <trkpt lat="45.079" lon="5.46165">
        <ele>844</ele>
        <time>2016-09-11T13:38:44Z</time>
      </trkpt>
      <trkpt lat="45.07897" lon="5.46159">
        <ele>845</ele>
        <time>2016-09-11T13:38:46Z</time>
      </trkpt>
      <trkpt lat="45.07893" lon="5.46153">
        <ele>846</ele>
        <time>2016-09-11T13:38:48Z</time>
      </trkpt>
      <trkpt lat="45.07888" lon="5.46147">
        <ele>847</ele>
        <time>2016-09-11T13:38:50Z</time>
      </trkpt>
      <trkpt lat="45.07883" lon="5.4614">
        <ele>848</ele>
        <time>2016-09-11T13:38:52Z</time>
      </trkpt>
      <trkpt lat="45.07877" lon="5.46133">
        <ele>848</ele>
        <time>2016-09-11T13:38:54Z</time>
      </trkpt>
      <trkpt lat="45.07872" lon="5.46126">
        <ele>848</ele>
        <time>2016-09-11T13:38:56Z</time>
      </trkpt>
      <trkpt lat="45.07866" lon="5.4612">
        <ele>848</ele>
        <time>2016-09-11T13:38:58Z</time>
      </trkpt>
      <trkpt lat="45.0786" lon="5.46114">
        <ele>849</ele>
        <time>2016-09-11T13:39:00Z</time>
      </trkpt>
      <trkpt lat="45.07854" lon="5.46108">
        <ele>850</ele>
        <time>2016-09-11T13:39:02Z</time>
      </trkpt>
      <trkpt lat="45.07848" lon="5.46102">
        <ele>850</ele>
        <time>2016-09-11T13:39:04Z</time>
      </trkpt>
      <trkpt lat="45.07843" lon="5.46096">
        <ele>851</ele>
        <time>2016-09-11T13:39:06Z</time>
      </trkpt>
      <trkpt lat="45.07838" lon="5.4609">
        <ele>852</ele>
        <time>2016-09-11T13:39:08Z</time>
      </trkpt>
      <trkpt lat="45.07832" lon="5.46084">
        <ele>853</ele>
        <time>2016-09-11T13:39:10Z</time>
      </trkpt>
      <trkpt lat="45.07827" lon="5.46079">
        <ele>853</ele>
        <time>2016-09-11T13:39:12Z</time>
      </trkpt>
      <trkpt lat="45.07822" lon="5.46074">
        <ele>854</ele>
        <time>2016-09-11T13:39:14Z</time>
      </trkpt>
      <trkpt lat="45.07818" lon="5.4607">
        <ele>855</ele>
        <time>2016-09-11T13:39:16Z</time>
      </trkpt>
      <trkpt lat="45.07814" lon="5.46066">
        <ele>855</ele>
        <time>2016-09-11T13:39:18Z</time>
      </trkpt>
      <trkpt lat="45.0781" lon="5.46062">
        <ele>856</ele>
        <time>2016-09-11T13:39:20Z</time>
      </trkpt>
      <trkpt lat="45.07806" lon="5.46058">
        <ele>857</ele>
        <time>2016-09-11T13:39:22Z</time>
      </trkpt>
      <trkpt lat="45.07802" lon="5.46054">
        <ele>857</ele>
        <time>2016-09-11T13:39:24Z</time>
      </trkpt>
      <trkpt lat="45.07798" lon="5.4605">
        <ele>858</ele>
        <time>2016-09-11T13:39:26Z</time>
      </trkpt>
      <trkpt lat="45.07795" lon="5.46045">
        <ele>858</ele>
        <time>2016-09-11T13:39:28Z</time>
      </trkpt>
      <trkpt lat="45.07791" lon="5.46041">
        <ele>859</ele>
        <time>2016-09-11T13:39:30Z</time>
      </trkpt>
      <trkpt lat="45.07787" lon="5.46037">
        <ele>859</ele>
        <time>2016-09-11T13:39:32Z</time>
      </trkpt>
      <trkpt lat="45.07783" lon="5.46033">
        <ele>859</ele>
        <time>2016-09-11T13:39:34Z</time>
      </trkpt>
      <trkpt lat="45.07777" lon="5.46027">
        <ele>860</ele>
        <time>2016-09-11T13:39:37Z</time>
      </trkpt>
      <trkpt lat="45.07774" lon="5.46023">
        <ele>860</ele>
        <time>2016-09-11T13:39:39Z</time>
      </trkpt>
      <trkpt lat="45.0777" lon="5.4602">
        <ele>860</ele>
        <time>2016-09-11T13:39:41Z</time>
      </trkpt>
      <trkpt lat="45.07764" lon="5.46015">
        <ele>861</ele>
        <time>2016-09-11T13:39:44Z</time>
      </trkpt>
      <trkpt lat="45.07759" lon="5.4601">
        <ele>861</ele>
        <time>2016-09-11T13:39:47Z</time>
      </trkpt>
      <trkpt lat="45.07753" lon="5.46006">
        <ele>862</ele>
        <time>2016-09-11T13:39:50Z</time>
      </trkpt>
      <trkpt lat="45.07747" lon="5.46001">
        <ele>862</ele>
        <time>2016-09-11T13:39:53Z</time>
      </trkpt>
      <trkpt lat="45.07743" lon="5.45998">
        <ele>862</ele>
        <time>2016-09-11T13:39:55Z</time>
      </trkpt>
      <trkpt lat="45.07737" lon="5.45995">
        <ele>863</ele>
        <time>2016-09-11T13:39:58Z</time>
      </trkpt>
      <trkpt lat="45.07731" lon="5.45991">
        <ele>863</ele>
        <time>2016-09-11T13:40:01Z</time>
      </trkpt>
      <trkpt lat="45.07727" lon="5.45988">
        <ele>864</ele>
        <time>2016-09-11T13:40:03Z</time>
      </trkpt>
      <trkpt lat="45.07721" lon="5.45984">
        <ele>864</ele>
        <time>2016-09-11T13:40:06Z</time>
      </trkpt>
      <trkpt lat="45.07715" lon="5.4598">
        <ele>865</ele>
        <time>2016-09-11T13:40:09Z</time>
      </trkpt>
      <trkpt lat="45.0771" lon="5.45976">
        <ele>865</ele>
        <time>2016-09-11T13:40:12Z</time>
      </trkpt>
      <trkpt lat="45.07705" lon="5.45973">
        <ele>866</ele>
        <time>2016-09-11T13:40:15Z</time>
      </trkpt>
      <trkpt lat="45.077" lon="5.4597">
        <ele>867</ele>
        <time>2016-09-11T13:40:18Z</time>
      </trkpt>
      <trkpt lat="45.07695" lon="5.45967">
        <ele>867</ele>
        <time>2016-09-11T13:40:21Z</time>
      </trkpt>
      <trkpt lat="45.07689" lon="5.45963">
        <ele>868</ele>
        <time>2016-09-11T13:40:24Z</time>
      </trkpt>
      <trkpt lat="45.07683" lon="5.45959">
        <ele>869</ele>
        <time>2016-09-11T13:40:27Z</time>
      </trkpt>
      <trkpt lat="45.07678" lon="5.45955">
        <ele>869</ele>
        <time>2016-09-11T13:40:29Z</time>
      </trkpt>
      <trkpt lat="45.07672" lon="5.45952">
        <ele>869</ele>
        <time>2016-09-11T13:40:31Z</time>
      </trkpt>
      <trkpt lat="45.07665" lon="5.45947">
        <ele>870</ele>
        <time>2016-09-11T13:40:33Z</time>
      </trkpt>
      <trkpt lat="45.07657" lon="5.45943">
        <ele>870</ele>
        <time>2016-09-11T13:40:35Z</time>
      </trkpt>
      <trkpt lat="45.07649" lon="5.45937">
        <ele>870</ele>
        <time>2016-09-11T13:40:37Z</time>
      </trkpt>
      <trkpt lat="45.07641" lon="5.45932">
        <ele>871</ele>
        <time>2016-09-11T13:40:39Z</time>
      </trkpt>
      <trkpt lat="45.07633" lon="5.45926">
        <ele>871</ele>
        <time>2016-09-11T13:40:42Z</time>
      </trkpt>
      <trkpt lat="45.07625" lon="5.45921">
        <ele>872</ele>
        <time>2016-09-11T13:40:43Z</time>
      </trkpt>
      <trkpt lat="45.07618" lon="5.45916">
        <ele>872</ele>
        <time>2016-09-11T13:40:45Z</time>
      </trkpt>
      <trkpt lat="45.0761" lon="5.45911">
        <ele>872</ele>
        <time>2016-09-11T13:40:47Z</time>
      </trkpt>
      <trkpt lat="45.07604" lon="5.45906">
        <ele>872</ele>
        <time>2016-09-11T13:40:49Z</time>
      </trkpt>
      <trkpt lat="45.07597" lon="5.45902">
        <ele>872</ele>
        <time>2016-09-11T13:40:51Z</time>
      </trkpt>
      <trkpt lat="45.0759" lon="5.45897">
        <ele>873</ele>
        <time>2016-09-11T13:40:53Z</time>
      </trkpt>
      <trkpt lat="45.07583" lon="5.45892">
        <ele>873</ele>
        <time>2016-09-11T13:40:55Z</time>
      </trkpt>
      <trkpt lat="45.07576" lon="5.45888">
        <ele>873</ele>
        <time>2016-09-11T13:40:57Z</time>
      </trkpt>
      <trkpt lat="45.0757" lon="5.45885">
        <ele>874</ele>
        <time>2016-09-11T13:40:59Z</time>
      </trkpt>
      <trkpt lat="45.07564" lon="5.45882">
        <ele>875</ele>
        <time>2016-09-11T13:41:01Z</time>
      </trkpt>
      <trkpt lat="45.07557" lon="5.45879">
        <ele>875</ele>
        <time>2016-09-11T13:41:03Z</time>
      </trkpt>
      <trkpt lat="45.0755" lon="5.45877">
        <ele>876</ele>
        <time>2016-09-11T13:41:05Z</time>
      </trkpt>
      <trkpt lat="45.07543" lon="5.45874">
        <ele>876</ele>
        <time>2016-09-11T13:41:07Z</time>
      </trkpt>
      <trkpt lat="45.07536" lon="5.45872">
        <ele>877</ele>
        <time>2016-09-11T13:41:09Z</time>
      </trkpt>
      <trkpt lat="45.07531" lon="5.4587">
        <ele>877</ele>
        <time>2016-09-11T13:41:12Z</time>
      </trkpt>
      <trkpt lat="45.07525" lon="5.45868">
        <ele>878</ele>
        <time>2016-09-11T13:41:15Z</time>
      </trkpt>
      <trkpt lat="45.07519" lon="5.45867">
        <ele>878</ele>
        <time>2016-09-11T13:41:18Z</time>
      </trkpt>
      <trkpt lat="45.07514" lon="5.45866">
        <ele>879</ele>
        <time>2016-09-11T13:41:20Z</time>
      </trkpt>
      <trkpt lat="45.0751" lon="5.45864">
        <ele>879</ele>
        <time>2016-09-11T13:41:22Z</time>
      </trkpt>
      <trkpt lat="45.07505" lon="5.45863">
        <ele>879</ele>
        <time>2016-09-11T13:41:24Z</time>
      </trkpt>
      <trkpt lat="45.07501" lon="5.45862">
        <ele>879</ele>
        <time>2016-09-11T13:41:26Z</time>
      </trkpt>
      <trkpt lat="45.07494" lon="5.45861">
        <ele>880</ele>
        <time>2016-09-11T13:41:29Z</time>
      </trkpt>
      <trkpt lat="45.07488" lon="5.4586">
        <ele>880</ele>
        <time>2016-09-11T13:41:32Z</time>
      </trkpt>
      <trkpt lat="45.07481" lon="5.4586">
        <ele>880</ele>
        <time>2016-09-11T13:41:35Z</time>
      </trkpt>
      <trkpt lat="45.07476" lon="5.45859">
        <ele>880</ele>
        <time>2016-09-11T13:41:37Z</time>
      </trkpt>
      <trkpt lat="45.07472" lon="5.45858">
        <ele>880</ele>
        <time>2016-09-11T13:41:39Z</time>
      </trkpt>
      <trkpt lat="45.07467" lon="5.45858">
        <ele>880</ele>
        <time>2016-09-11T13:41:41Z</time>
      </trkpt>
      <trkpt lat="45.07462" lon="5.45858">
        <ele>880</ele>
        <time>2016-09-11T13:41:43Z</time>
      </trkpt>
      <trkpt lat="45.07457" lon="5.45858">
        <ele>880</ele>
        <time>2016-09-11T13:41:45Z</time>
      </trkpt>
      <trkpt lat="45.07452" lon="5.45858">
        <ele>880</ele>
        <time>2016-09-11T13:41:47Z</time>
      </trkpt>
      <trkpt lat="45.07447" lon="5.45858">
        <ele>880</ele>
        <time>2016-09-11T13:41:49Z</time>
      </trkpt>
      <trkpt lat="45.07441" lon="5.45858">
        <ele>881</ele>
        <time>2016-09-11T13:41:51Z</time>
      </trkpt>
      <trkpt lat="45.07436" lon="5.45858">
        <ele>881</ele>
        <time>2016-09-11T13:41:53Z</time>
      </trkpt>
      <trkpt lat="45.07431" lon="5.45858">
        <ele>881</ele>
        <time>2016-09-11T13:41:55Z</time>
      </trkpt>
      <trkpt lat="45.07425" lon="5.45858">
        <ele>881</ele>
        <time>2016-09-11T13:41:57Z</time>
      </trkpt>
      <trkpt lat="45.0742" lon="5.45858">
        <ele>881</ele>
        <time>2016-09-11T13:41:59Z</time>
      </trkpt>
      <trkpt lat="45.07414" lon="5.45858">
        <ele>882</ele>
        <time>2016-09-11T13:42:01Z</time>
      </trkpt>
      <trkpt lat="45.07409" lon="5.45858">
        <ele>882</ele>
        <time>2016-09-11T13:42:03Z</time>
      </trkpt>
      <trkpt lat="45.07404" lon="5.45859">
        <ele>883</ele>
        <time>2016-09-11T13:42:05Z</time>
      </trkpt>
      <trkpt lat="45.07399" lon="5.45859">
        <ele>883</ele>
        <time>2016-09-11T13:42:07Z</time>
      </trkpt>
      <trkpt lat="45.07394" lon="5.45859">
        <ele>883</ele>
        <time>2016-09-11T13:42:09Z</time>
      </trkpt>
      <trkpt lat="45.0739" lon="5.45859">
        <ele>883</ele>
        <time>2016-09-11T13:42:11Z</time>
      </trkpt>
      <trkpt lat="45.07385" lon="5.4586">
        <ele>883</ele>
        <time>2016-09-11T13:42:13Z</time>
      </trkpt>
      <trkpt lat="45.0738" lon="5.4586">
        <ele>884</ele>
        <time>2016-09-11T13:42:15Z</time>
      </trkpt>
      <trkpt lat="45.07375" lon="5.4586">
        <ele>884</ele>
        <time>2016-09-11T13:42:17Z</time>
      </trkpt>
      <trkpt lat="45.07371" lon="5.4586">
        <ele>884</ele>
        <time>2016-09-11T13:42:19Z</time>
      </trkpt>
      <trkpt lat="45.07366" lon="5.4586">
        <ele>884</ele>
        <time>2016-09-11T13:42:21Z</time>
      </trkpt>
      <trkpt lat="45.07361" lon="5.4586">
        <ele>885</ele>
        <time>2016-09-11T13:42:23Z</time>
      </trkpt>
      <trkpt lat="45.07356" lon="5.4586">
        <ele>886</ele>
        <time>2016-09-11T13:42:25Z</time>
      </trkpt>
      <trkpt lat="45.07349" lon="5.4586">
        <ele>886</ele>
        <time>2016-09-11T13:42:27Z</time>
      </trkpt>
      <trkpt lat="45.07343" lon="5.4586">
        <ele>887</ele>
        <time>2016-09-11T13:42:29Z</time>
      </trkpt>
      <trkpt lat="45.07336" lon="5.4586">
        <ele>887</ele>
        <time>2016-09-11T13:42:31Z</time>
      </trkpt>
      <trkpt lat="45.0733" lon="5.4586">
        <ele>888</ele>
        <time>2016-09-11T13:42:33Z</time>
      </trkpt>
      <trkpt lat="45.07325" lon="5.4586">
        <ele>888</ele>
        <time>2016-09-11T13:42:35Z</time>
      </trkpt>
      <trkpt lat="45.07319" lon="5.4586">
        <ele>889</ele>
        <time>2016-09-11T13:42:37Z</time>
      </trkpt>
      <trkpt lat="45.07314" lon="5.4586">
        <ele>889</ele>
        <time>2016-09-11T13:42:39Z</time>
      </trkpt>
      <trkpt lat="45.07308" lon="5.4586">
        <ele>889</ele>
        <time>2016-09-11T13:42:41Z</time>
      </trkpt>
      <trkpt lat="45.07303" lon="5.4586">
        <ele>889</ele>
        <time>2016-09-11T13:42:43Z</time>
      </trkpt>
      <trkpt lat="45.07298" lon="5.4586">
        <ele>890</ele>
        <time>2016-09-11T13:42:45Z</time>
      </trkpt>
      <trkpt lat="45.07292" lon="5.4586">
        <ele>890</ele>
        <time>2016-09-11T13:42:47Z</time>
      </trkpt>
      <trkpt lat="45.07287" lon="5.45859">
        <ele>890</ele>
        <time>2016-09-11T13:42:49Z</time>
      </trkpt>
      <trkpt lat="45.07281" lon="5.45859">
        <ele>890</ele>
        <time>2016-09-11T13:42:51Z</time>
      </trkpt>
      <trkpt lat="45.07275" lon="5.45858">
        <ele>890</ele>
        <time>2016-09-11T13:42:53Z</time>
      </trkpt>
      <trkpt lat="45.07269" lon="5.45857">
        <ele>890</ele>
        <time>2016-09-11T13:42:55Z</time>
      </trkpt>
      <trkpt lat="45.07264" lon="5.45857">
        <ele>891</ele>
        <time>2016-09-11T13:42:57Z</time>
      </trkpt>
      <trkpt lat="45.07258" lon="5.45856">
        <ele>891</ele>
        <time>2016-09-11T13:42:59Z</time>
      </trkpt>
      <trkpt lat="45.07252" lon="5.45855">
        <ele>891</ele>
        <time>2016-09-11T13:43:01Z</time>
      </trkpt>
      <trkpt lat="45.07246" lon="5.45854">
        <ele>892</ele>
        <time>2016-09-11T13:43:03Z</time>
      </trkpt>
      <trkpt lat="45.07241" lon="5.45853">
        <ele>892</ele>
        <time>2016-09-11T13:43:05Z</time>
      </trkpt>
      <trkpt lat="45.07235" lon="5.45852">
        <ele>892</ele>
        <time>2016-09-11T13:43:07Z</time>
      </trkpt>
      <trkpt lat="45.0723" lon="5.45851">
        <ele>893</ele>
        <time>2016-09-11T13:43:09Z</time>
      </trkpt>
      <trkpt lat="45.07225" lon="5.4585">
        <ele>893</ele>
        <time>2016-09-11T13:43:11Z</time>
      </trkpt>
      <trkpt lat="45.07219" lon="5.4585">
        <ele>893</ele>
        <time>2016-09-11T13:43:13Z</time>
      </trkpt>
      <trkpt lat="45.07214" lon="5.45849">
        <ele>893</ele>
        <time>2016-09-11T13:43:15Z</time>
      </trkpt>
      <trkpt lat="45.07208" lon="5.45848">
        <ele>893</ele>
        <time>2016-09-11T13:43:17Z</time>
      </trkpt>
      <trkpt lat="45.072" lon="5.45847">
        <ele>893</ele>
        <time>2016-09-11T13:43:19Z</time>
      </trkpt>
      <trkpt lat="45.07193" lon="5.45845">
        <ele>894</ele>
        <time>2016-09-11T13:43:21Z</time>
      </trkpt>
      <trkpt lat="45.07185" lon="5.45843">
        <ele>894</ele>
        <time>2016-09-11T13:43:23Z</time>
      </trkpt>
      <trkpt lat="45.07177" lon="5.45842">
        <ele>894</ele>
        <time>2016-09-11T13:43:25Z</time>
      </trkpt>
      <trkpt lat="45.07169" lon="5.45843">
        <ele>895</ele>
        <time>2016-09-11T13:43:27Z</time>
      </trkpt>
      <trkpt lat="45.0716" lon="5.45844">
        <ele>895</ele>
        <time>2016-09-11T13:43:29Z</time>
      </trkpt>
      <trkpt lat="45.07153" lon="5.45846">
        <ele>895</ele>
        <time>2016-09-11T13:43:31Z</time>
      </trkpt>
      <trkpt lat="45.07146" lon="5.45847">
        <ele>896</ele>
        <time>2016-09-11T13:43:33Z</time>
      </trkpt>
      <trkpt lat="45.0714" lon="5.45848">
        <ele>896</ele>
        <time>2016-09-11T13:43:35Z</time>
      </trkpt>
      <trkpt lat="45.07134" lon="5.45849">
        <ele>897</ele>
        <time>2016-09-11T13:43:37Z</time>
      </trkpt>
      <trkpt lat="45.07128" lon="5.4585">
        <ele>897</ele>
        <time>2016-09-11T13:43:39Z</time>
      </trkpt>
      <trkpt lat="45.07121" lon="5.45852">
        <ele>897</ele>
        <time>2016-09-11T13:43:41Z</time>
      </trkpt>
      <trkpt lat="45.07113" lon="5.45854">
        <ele>898</ele>
        <time>2016-09-11T13:43:43Z</time>
      </trkpt>
      <trkpt lat="45.07104" lon="5.45856">
        <ele>898</ele>
        <time>2016-09-11T13:43:45Z</time>
      </trkpt>
      <trkpt lat="45.07095" lon="5.45858">
        <ele>898</ele>
        <time>2016-09-11T13:43:47Z</time>
      </trkpt>
      <trkpt lat="45.07088" lon="5.4586">
        <ele>898</ele>
        <time>2016-09-11T13:43:49Z</time>
      </trkpt>
      <trkpt lat="45.0708" lon="5.45862">
        <ele>899</ele>
        <time>2016-09-11T13:43:51Z</time>
      </trkpt>
      <trkpt lat="45.07072" lon="5.45864">
        <ele>899</ele>
        <time>2016-09-11T13:43:53Z</time>
      </trkpt>
      <trkpt lat="45.07065" lon="5.45866">
        <ele>899</ele>
        <time>2016-09-11T13:43:55Z</time>
      </trkpt>
      <trkpt lat="45.07058" lon="5.45867">
        <ele>900</ele>
        <time>2016-09-11T13:43:57Z</time>
      </trkpt>
      <trkpt lat="45.07052" lon="5.45869">
        <ele>900</ele>
        <time>2016-09-11T13:43:59Z</time>
      </trkpt>
      <trkpt lat="45.07047" lon="5.4587">
        <ele>901</ele>
        <time>2016-09-11T13:44:01Z</time>
      </trkpt>
      <trkpt lat="45.07043" lon="5.45871">
        <ele>901</ele>
        <time>2016-09-11T13:44:03Z</time>
      </trkpt>
      <trkpt lat="45.07038" lon="5.45873">
        <ele>901</ele>
        <time>2016-09-11T13:44:05Z</time>
      </trkpt>
      <trkpt lat="45.07033" lon="5.45874">
        <ele>902</ele>
        <time>2016-09-11T13:44:07Z</time>
      </trkpt>
      <trkpt lat="45.07029" lon="5.45876">
        <ele>902</ele>
        <time>2016-09-11T13:44:09Z</time>
      </trkpt>
      <trkpt lat="45.07024" lon="5.45878">
        <ele>902</ele>
        <time>2016-09-11T13:44:11Z</time>
      </trkpt>
      <trkpt lat="45.07019" lon="5.45878">
        <ele>902</ele>
        <time>2016-09-11T13:44:13Z</time>
      </trkpt>
      <trkpt lat="45.07014" lon="5.45876">
        <ele>903</ele>
        <time>2016-09-11T13:44:15Z</time>
      </trkpt>
      <trkpt lat="45.07009" lon="5.45878">
        <ele>903</ele>
        <time>2016-09-11T13:44:17Z</time>
      </trkpt>
      <trkpt lat="45.07003" lon="5.45882">
        <ele>903</ele>
        <time>2016-09-11T13:44:19Z</time>
      </trkpt>
      <trkpt lat="45.06997" lon="5.45884">
        <ele>903</ele>
        <time>2016-09-11T13:44:21Z</time>
      </trkpt>
      <trkpt lat="45.0699" lon="5.45886">
        <ele>903</ele>
        <time>2016-09-11T13:44:23Z</time>
      </trkpt>
      <trkpt lat="45.06984" lon="5.45888">
        <ele>903</ele>
        <time>2016-09-11T13:44:25Z</time>
      </trkpt>
      <trkpt lat="45.06977" lon="5.45889">
        <ele>904</ele>
        <time>2016-09-11T13:44:27Z</time>
      </trkpt>
      <trkpt lat="45.0697" lon="5.4589">
        <ele>904</ele>
        <time>2016-09-11T13:44:29Z</time>
      </trkpt>
      <trkpt lat="45.06963" lon="5.45892">
        <ele>904</ele>
        <time>2016-09-11T13:44:31Z</time>
      </trkpt>
      <trkpt lat="45.06957" lon="5.45893">
        <ele>904</ele>
        <time>2016-09-11T13:44:33Z</time>
      </trkpt>
      <trkpt lat="45.06949" lon="5.45895">
        <ele>904</ele>
        <time>2016-09-11T13:44:35Z</time>
      </trkpt>
      <trkpt lat="45.06941" lon="5.45897">
        <ele>905</ele>
        <time>2016-09-11T13:44:37Z</time>
      </trkpt>
      <trkpt lat="45.06934" lon="5.45898">
        <ele>905</ele>
        <time>2016-09-11T13:44:39Z</time>
      </trkpt>
      <trkpt lat="45.06926" lon="5.45899">
        <ele>906</ele>
        <time>2016-09-11T13:44:41Z</time>
      </trkpt>
      <trkpt lat="45.06918" lon="5.45899">
        <ele>906</ele>
        <time>2016-09-11T13:44:43Z</time>
      </trkpt>
      <trkpt lat="45.06911" lon="5.45898">
        <ele>907</ele>
        <time>2016-09-11T13:44:45Z</time>
      </trkpt>
      <trkpt lat="45.06904" lon="5.45897">
        <ele>907</ele>
        <time>2016-09-11T13:44:47Z</time>
      </trkpt>
      <trkpt lat="45.06896" lon="5.45895">
        <ele>907</ele>
        <time>2016-09-11T13:44:49Z</time>
      </trkpt>
      <trkpt lat="45.06888" lon="5.45892">
        <ele>907</ele>
        <time>2016-09-11T13:44:51Z</time>
      </trkpt>
      <trkpt lat="45.06881" lon="5.45889">
        <ele>907</ele>
        <time>2016-09-11T13:44:53Z</time>
      </trkpt>
      <trkpt lat="45.06873" lon="5.45885">
        <ele>908</ele>
        <time>2016-09-11T13:44:55Z</time>
      </trkpt>
      <trkpt lat="45.06865" lon="5.45881">
        <ele>908</ele>
        <time>2016-09-11T13:44:57Z</time>
      </trkpt>
      <trkpt lat="45.06858" lon="5.45878">
        <ele>908</ele>
        <time>2016-09-11T13:44:59Z</time>
      </trkpt>
      <trkpt lat="45.0685" lon="5.45875">
        <ele>908</ele>
        <time>2016-09-11T13:45:01Z</time>
      </trkpt>
      <trkpt lat="45.06842" lon="5.45871">
        <ele>908</ele>
        <time>2016-09-11T13:45:03Z</time>
      </trkpt>
      <trkpt lat="45.06835" lon="5.45868">
        <ele>908</ele>
        <time>2016-09-11T13:45:05Z</time>
      </trkpt>
      <trkpt lat="45.06828" lon="5.45864">
        <ele>908</ele>
        <time>2016-09-11T13:45:07Z</time>
      </trkpt>
      <trkpt lat="45.0682" lon="5.45861">
        <ele>908</ele>
        <time>2016-09-11T13:45:09Z</time>
      </trkpt>
      <trkpt lat="45.06813" lon="5.45858">
        <ele>908</ele>
        <time>2016-09-11T13:45:11Z</time>
      </trkpt>
      <trkpt lat="45.06805" lon="5.45854">
        <ele>908</ele>
        <time>2016-09-11T13:45:13Z</time>
      </trkpt>
      <trkpt lat="45.06797" lon="5.4585">
        <ele>908</ele>
        <time>2016-09-11T13:45:15Z</time>
      </trkpt>
      <trkpt lat="45.0679" lon="5.45847">
        <ele>908</ele>
        <time>2016-09-11T13:45:17Z</time>
      </trkpt>
      <trkpt lat="45.06782" lon="5.45843">
        <ele>908</ele>
        <time>2016-09-11T13:45:19Z</time>
      </trkpt>
      <trkpt lat="45.06774" lon="5.45839">
        <ele>908</ele>
        <time>2016-09-11T13:45:21Z</time>
      </trkpt>
      <trkpt lat="45.06766" lon="5.45835">
        <ele>908</ele>
        <time>2016-09-11T13:45:23Z</time>
      </trkpt>
      <trkpt lat="45.06758" lon="5.45831">
        <ele>908</ele>
        <time>2016-09-11T13:45:25Z</time>
      </trkpt>
      <trkpt lat="45.06751" lon="5.45827">
        <ele>908</ele>
        <time>2016-09-11T13:45:27Z</time>
      </trkpt>
      <trkpt lat="45.06743" lon="5.45822">
        <ele>908</ele>
        <time>2016-09-11T13:45:29Z</time>
      </trkpt>
      <trkpt lat="45.06736" lon="5.45816">
        <ele>909</ele>
        <time>2016-09-11T13:45:31Z</time>
      </trkpt>
      <trkpt lat="45.06729" lon="5.4581">
        <ele>909</ele>
        <time>2016-09-11T13:45:33Z</time>
      </trkpt>
      <trkpt lat="45.06722" lon="5.45803">
        <ele>909</ele>
        <time>2016-09-11T13:45:35Z</time>
      </trkpt>
      <trkpt lat="45.06715" lon="5.45797">
        <ele>909</ele>
        <time>2016-09-11T13:45:37Z</time>
      </trkpt>
      <trkpt lat="45.06708" lon="5.45789">
        <ele>909</ele>
        <time>2016-09-11T13:45:39Z</time>
      </trkpt>
      <trkpt lat="45.06702" lon="5.45782">
        <ele>909</ele>
        <time>2016-09-11T13:45:41Z</time>
      </trkpt>
      <trkpt lat="45.06697" lon="5.45777">
        <ele>909</ele>
        <time>2016-09-11T13:45:43Z</time>
      </trkpt>
      <trkpt lat="45.06689" lon="5.45768">
        <ele>910</ele>
        <time>2016-09-11T13:45:45Z</time>
      </trkpt>
      <trkpt lat="45.06682" lon="5.45761">
        <ele>910</ele>
        <time>2016-09-11T13:45:47Z</time>
      </trkpt>
      <trkpt lat="45.06676" lon="5.45755">
        <ele>910</ele>
        <time>2016-09-11T13:45:49Z</time>
      </trkpt>
      <trkpt lat="45.06669" lon="5.45748">
        <ele>910</ele>
        <time>2016-09-11T13:45:51Z</time>
      </trkpt>
      <trkpt lat="45.06663" lon="5.45742">
        <ele>910</ele>
        <time>2016-09-11T13:45:53Z</time>
      </trkpt>
      <trkpt lat="45.06656" lon="5.45735">
        <ele>911</ele>
        <time>2016-09-11T13:45:55Z</time>
      </trkpt>
      <trkpt lat="45.06651" lon="5.45731">
        <ele>911</ele>
        <time>2016-09-11T13:45:56Z</time>
      </trkpt>
      <trkpt lat="45.06648" lon="5.45727">
        <ele>911</ele>
        <time>2016-09-11T13:45:57Z</time>
      </trkpt>
      <trkpt lat="45.06643" lon="5.45723">
        <ele>911</ele>
        <time>2016-09-11T13:45:58Z</time>
      </trkpt>
      <trkpt lat="45.06639" lon="5.4572">
        <ele>912</ele>
        <time>2016-09-11T13:45:59Z</time>
      </trkpt>
      <trkpt lat="45.06635" lon="5.45716">
        <ele>912</ele>
        <time>2016-09-11T13:46:00Z</time>
      </trkpt>
      <trkpt lat="45.06631" lon="5.45712">
        <ele>912</ele>
        <time>2016-09-11T13:46:01Z</time>
      </trkpt>
      <trkpt lat="45.06624" lon="5.45704">
        <ele>912</ele>
        <time>2016-09-11T13:46:03Z</time>
      </trkpt>
      <trkpt lat="45.0662" lon="5.457">
        <ele>912</ele>
        <time>2016-09-11T13:46:04Z</time>
      </trkpt>
      <trkpt lat="45.06613" lon="5.45693">
        <ele>913</ele>
        <time>2016-09-11T13:46:06Z</time>
      </trkpt>
      <trkpt lat="45.06609" lon="5.4569">
        <ele>913</ele>
        <time>2016-09-11T13:46:07Z</time>
      </trkpt>
      <trkpt lat="45.06602" lon="5.45683">
        <ele>913</ele>
        <time>2016-09-11T13:46:09Z</time>
      </trkpt>
      <trkpt lat="45.06595" lon="5.45677">
        <ele>913</ele>
        <time>2016-09-11T13:46:11Z</time>
      </trkpt>
      <trkpt lat="45.06589" lon="5.45671">
        <ele>913</ele>
        <time>2016-09-11T13:46:13Z</time>
      </trkpt>
      <trkpt lat="45.06582" lon="5.45664">
        <ele>914</ele>
        <time>2016-09-11T13:46:15Z</time>
      </trkpt>
      <trkpt lat="45.06575" lon="5.45657">
        <ele>914</ele>
        <time>2016-09-11T13:46:17Z</time>
      </trkpt>
      <trkpt lat="45.06569" lon="5.45651">
        <ele>914</ele>
        <time>2016-09-11T13:46:19Z</time>
      </trkpt>
      <trkpt lat="45.06563" lon="5.45644">
        <ele>914</ele>
        <time>2016-09-11T13:46:21Z</time>
      </trkpt>
      <trkpt lat="45.06557" lon="5.45638">
        <ele>915</ele>
        <time>2016-09-11T13:46:23Z</time>
      </trkpt>
      <trkpt lat="45.06551" lon="5.45632">
        <ele>915</ele>
        <time>2016-09-11T13:46:25Z</time>
      </trkpt>
      <trkpt lat="45.06545" lon="5.45626">
        <ele>916</ele>
        <time>2016-09-11T13:46:27Z</time>
      </trkpt>
      <trkpt lat="45.0654" lon="5.45621">
        <ele>916</ele>
        <time>2016-09-11T13:46:29Z</time>
      </trkpt>
      <trkpt lat="45.06535" lon="5.45616">
        <ele>917</ele>
        <time>2016-09-11T13:46:31Z</time>
      </trkpt>
      <trkpt lat="45.06529" lon="5.45611">
        <ele>917</ele>
        <time>2016-09-11T13:46:33Z</time>
      </trkpt>
      <trkpt lat="45.06523" lon="5.45605">
        <ele>917</ele>
        <time>2016-09-11T13:46:35Z</time>
      </trkpt>
      <trkpt lat="45.06516" lon="5.45598">
        <ele>917</ele>
        <time>2016-09-11T13:46:37Z</time>
      </trkpt>
      <trkpt lat="45.06509" lon="5.45592">
        <ele>918</ele>
        <time>2016-09-11T13:46:39Z</time>
      </trkpt>
      <trkpt lat="45.06502" lon="5.45585">
        <ele>918</ele>
        <time>2016-09-11T13:46:41Z</time>
      </trkpt>
      <trkpt lat="45.06494" lon="5.45578">
        <ele>918</ele>
        <time>2016-09-11T13:46:43Z</time>
      </trkpt>
      <trkpt lat="45.0649" lon="5.45575">
        <ele>918</ele>
        <time>2016-09-11T13:46:44Z</time>
      </trkpt>
      <trkpt lat="45.06485" lon="5.45572">
        <ele>918</ele>
        <time>2016-09-11T13:46:45Z</time>
      </trkpt>
      <trkpt lat="45.06481" lon="5.45569">
        <ele>918</ele>
        <time>2016-09-11T13:46:46Z</time>
      </trkpt>
      <trkpt lat="45.06477" lon="5.45566">
        <ele>918</ele>
        <time>2016-09-11T13:46:47Z</time>
      </trkpt>
      <trkpt lat="45.06472" lon="5.45564">
        <ele>918</ele>
        <time>2016-09-11T13:46:48Z</time>
      </trkpt>
      <trkpt lat="45.06467" lon="5.45562">
        <ele>918</ele>
        <time>2016-09-11T13:46:49Z</time>
      </trkpt>
      <trkpt lat="45.06463" lon="5.45559">
        <ele>918</ele>
        <time>2016-09-11T13:46:50Z</time>
      </trkpt>
      <trkpt lat="45.06458" lon="5.45558">
        <ele>919</ele>
        <time>2016-09-11T13:46:51Z</time>
      </trkpt>
      <trkpt lat="45.06453" lon="5.45557">
        <ele>919</ele>
        <time>2016-09-11T13:46:52Z</time>
      </trkpt>
      <trkpt lat="45.06448" lon="5.45556">
        <ele>919</ele>
        <time>2016-09-11T13:46:53Z</time>
      </trkpt>
      <trkpt lat="45.06443" lon="5.45554">
        <ele>919</ele>
        <time>2016-09-11T13:46:54Z</time>
      </trkpt>
      <trkpt lat="45.06438" lon="5.45553">
        <ele>919</ele>
        <time>2016-09-11T13:46:55Z</time>
      </trkpt>
      <trkpt lat="45.06433" lon="5.45552">
        <ele>919</ele>
        <time>2016-09-11T13:46:56Z</time>
      </trkpt>
      <trkpt lat="45.06428" lon="5.4555">
        <ele>919</ele>
        <time>2016-09-11T13:46:57Z</time>
      </trkpt>
      <trkpt lat="45.06422" lon="5.4555">
        <ele>919</ele>
        <time>2016-09-11T13:46:58Z</time>
      </trkpt>
      <trkpt lat="45.06418" lon="5.45549">
        <ele>919</ele>
        <time>2016-09-11T13:46:59Z</time>
      </trkpt>
      <trkpt lat="45.06412" lon="5.45548">
        <ele>919</ele>
        <time>2016-09-11T13:47:00Z</time>
      </trkpt>
      <trkpt lat="45.06407" lon="5.45547">
        <ele>919</ele>
        <time>2016-09-11T13:47:01Z</time>
      </trkpt>
      <trkpt lat="45.06402" lon="5.45546">
        <ele>919</ele>
        <time>2016-09-11T13:47:02Z</time>
      </trkpt>
      <trkpt lat="45.06397" lon="5.45545">
        <ele>919</ele>
        <time>2016-09-11T13:47:03Z</time>
      </trkpt>
      <trkpt lat="45.06391" lon="5.45544">
        <ele>919</ele>
        <time>2016-09-11T13:47:04Z</time>
      </trkpt>
      <trkpt lat="45.06386" lon="5.45543">
        <ele>919</ele>
        <time>2016-09-11T13:47:05Z</time>
      </trkpt>
      <trkpt lat="45.0638" lon="5.45542">
        <ele>919</ele>
        <time>2016-09-11T13:47:06Z</time>
      </trkpt>
      <trkpt lat="45.06375" lon="5.45541">
        <ele>920</ele>
        <time>2016-09-11T13:47:07Z</time>
      </trkpt>
      <trkpt lat="45.06369" lon="5.4554">
        <ele>920</ele>
        <time>2016-09-11T13:47:08Z</time>
      </trkpt>
      <trkpt lat="45.06364" lon="5.45537">
        <ele>920</ele>
        <time>2016-09-11T13:47:09Z</time>
      </trkpt>
      <trkpt lat="45.06358" lon="5.45535">
        <ele>920</ele>
        <time>2016-09-11T13:47:10Z</time>
      </trkpt>
      <trkpt lat="45.06353" lon="5.45533">
        <ele>920</ele>
        <time>2016-09-11T13:47:11Z</time>
      </trkpt>
      <trkpt lat="45.06347" lon="5.45531">
        <ele>921</ele>
        <time>2016-09-11T13:47:12Z</time>
      </trkpt>
      <trkpt lat="45.06342" lon="5.45528">
        <ele>921</ele>
        <time>2016-09-11T13:47:13Z</time>
      </trkpt>
      <trkpt lat="45.06336" lon="5.45525">
        <ele>921</ele>
        <time>2016-09-11T13:47:14Z</time>
      </trkpt>
      <trkpt lat="45.0633" lon="5.45521">
        <ele>921</ele>
        <time>2016-09-11T13:47:15Z</time>
      </trkpt>
      <trkpt lat="45.06324" lon="5.45518">
        <ele>921</ele>
        <time>2016-09-11T13:47:16Z</time>
      </trkpt>
      <trkpt lat="45.06318" lon="5.45514">
        <ele>920</ele>
        <time>2016-09-11T13:47:17Z</time>
      </trkpt>
      <trkpt lat="45.06312" lon="5.4551">
        <ele>920</ele>
        <time>2016-09-11T13:47:18Z</time>
      </trkpt>
      <trkpt lat="45.06307" lon="5.45506">
        <ele>920</ele>
        <time>2016-09-11T13:47:19Z</time>
      </trkpt>
      <trkpt lat="45.06301" lon="5.45502">
        <ele>920</ele>
        <time>2016-09-11T13:47:20Z</time>
      </trkpt>
      <trkpt lat="45.06296" lon="5.45499">
        <ele>919</ele>
        <time>2016-09-11T13:47:21Z</time>
      </trkpt>
      <trkpt lat="45.06291" lon="5.45495">
        <ele>919</ele>
        <time>2016-09-11T13:47:22Z</time>
      </trkpt>
      <trkpt lat="45.06285" lon="5.45492">
        <ele>920</ele>
        <time>2016-09-11T13:47:23Z</time>
      </trkpt>
      <trkpt lat="45.06281" lon="5.45489">
        <ele>920</ele>
        <time>2016-09-11T13:47:24Z</time>
      </trkpt>
      <trkpt lat="45.06275" lon="5.45486">
        <ele>920</ele>
        <time>2016-09-11T13:47:25Z</time>
      </trkpt>
      <trkpt lat="45.06271" lon="5.45483">
        <ele>921</ele>
        <time>2016-09-11T13:47:26Z</time>
      </trkpt>
      <trkpt lat="45.06266" lon="5.45481">
        <ele>921</ele>
        <time>2016-09-11T13:47:27Z</time>
      </trkpt>
      <trkpt lat="45.06261" lon="5.45479">
        <ele>921</ele>
        <time>2016-09-11T13:47:28Z</time>
      </trkpt>
      <trkpt lat="45.06257" lon="5.45476">
        <ele>921</ele>
        <time>2016-09-11T13:47:29Z</time>
      </trkpt>
      <trkpt lat="45.06248" lon="5.45474">
        <ele>921</ele>
        <time>2016-09-11T13:47:31Z</time>
      </trkpt>
      <trkpt lat="45.06244" lon="5.45472">
        <ele>921</ele>
        <time>2016-09-11T13:47:32Z</time>
      </trkpt>
      <trkpt lat="45.06239" lon="5.45471">
        <ele>921</ele>
        <time>2016-09-11T13:47:33Z</time>
      </trkpt>
      <trkpt lat="45.06234" lon="5.4547">
        <ele>921</ele>
        <time>2016-09-11T13:47:34Z</time>
      </trkpt>
      <trkpt lat="45.06226" lon="5.45468">
        <ele>921</ele>
        <time>2016-09-11T13:47:36Z</time>
      </trkpt>
      <trkpt lat="45.0622" lon="5.45467">
        <ele>921</ele>
        <time>2016-09-11T13:47:37Z</time>
      </trkpt>
      <trkpt lat="45.06216" lon="5.45465">
        <ele>921</ele>
        <time>2016-09-11T13:47:38Z</time>
      </trkpt>
      <trkpt lat="45.06206" lon="5.45463">
        <ele>921</ele>
        <time>2016-09-11T13:47:40Z</time>
      </trkpt>
      <trkpt lat="45.06201" lon="5.45462">
        <ele>921</ele>
        <time>2016-09-11T13:47:41Z</time>
      </trkpt>
      <trkpt lat="45.06196" lon="5.4546">
        <ele>921</ele>
        <time>2016-09-11T13:47:42Z</time>
      </trkpt>
      <trkpt lat="45.06192" lon="5.45458">
        <ele>922</ele>
        <time>2016-09-11T13:47:43Z</time>
      </trkpt>
      <trkpt lat="45.06187" lon="5.45457">
        <ele>922</ele>
        <time>2016-09-11T13:47:44Z</time>
      </trkpt>
      <trkpt lat="45.06182" lon="5.45454">
        <ele>922</ele>
        <time>2016-09-11T13:47:45Z</time>
      </trkpt>
      <trkpt lat="45.06174" lon="5.45449">
        <ele>922</ele>
        <time>2016-09-11T13:47:47Z</time>
      </trkpt>
      <trkpt lat="45.06166" lon="5.45443">
        <ele>922</ele>
        <time>2016-09-11T13:47:49Z</time>
      </trkpt>
      <trkpt lat="45.06157" lon="5.45436">
        <ele>922</ele>
        <time>2016-09-11T13:47:51Z</time>
      </trkpt>
      <trkpt lat="45.06153" lon="5.45433">
        <ele>922</ele>
        <time>2016-09-11T13:47:52Z</time>
      </trkpt>
      <trkpt lat="45.06149" lon="5.45429">
        <ele>922</ele>
        <time>2016-09-11T13:47:53Z</time>
      </trkpt>
      <trkpt lat="45.06144" lon="5.45425">
        <ele>922</ele>
        <time>2016-09-11T13:47:54Z</time>
      </trkpt>
      <trkpt lat="45.06139" lon="5.45421">
        <ele>922</ele>
        <time>2016-09-11T13:47:55Z</time>
      </trkpt>
      <trkpt lat="45.06134" lon="5.45417">
        <ele>922</ele>
        <time>2016-09-11T13:47:56Z</time>
      </trkpt>
      <trkpt lat="45.0613" lon="5.45413">
        <ele>923</ele>
        <time>2016-09-11T13:47:57Z</time>
      </trkpt>
      <trkpt lat="45.06125" lon="5.45409">
        <ele>923</ele>
        <time>2016-09-11T13:47:58Z</time>
      </trkpt>
      <trkpt lat="45.0612" lon="5.45404">
        <ele>923</ele>
        <time>2016-09-11T13:47:59Z</time>
      </trkpt>
      <trkpt lat="45.06115" lon="5.454">
        <ele>923</ele>
        <time>2016-09-11T13:48:00Z</time>
      </trkpt>
      <trkpt lat="45.0611" lon="5.45396">
        <ele>923</ele>
        <time>2016-09-11T13:48:01Z</time>
      </trkpt>
      <trkpt lat="45.06105" lon="5.45392">
        <ele>923</ele>
        <time>2016-09-11T13:48:02Z</time>
      </trkpt>
      <trkpt lat="45.061" lon="5.45388">
        <ele>923</ele>
        <time>2016-09-11T13:48:03Z</time>
      </trkpt>
      <trkpt lat="45.06095" lon="5.45384">
        <ele>923</ele>
        <time>2016-09-11T13:48:04Z</time>
      </trkpt>
      <trkpt lat="45.06089" lon="5.45381">
        <ele>923</ele>
        <time>2016-09-11T13:48:05Z</time>
      </trkpt>
      <trkpt lat="45.06084" lon="5.45379">
        <ele>923</ele>
        <time>2016-09-11T13:48:06Z</time>
      </trkpt>
      <trkpt lat="45.06078" lon="5.45376">
        <ele>922</ele>
        <time>2016-09-11T13:48:07Z</time>
      </trkpt>
      <trkpt lat="45.06073" lon="5.45374">
        <ele>922</ele>
        <time>2016-09-11T13:48:08Z</time>
      </trkpt>
      <trkpt lat="45.06068" lon="5.45372">
        <ele>922</ele>
        <time>2016-09-11T13:48:09Z</time>
      </trkpt>
      <trkpt lat="45.06062" lon="5.45372">
        <ele>922</ele>
        <time>2016-09-11T13:48:10Z</time>
      </trkpt>
      <trkpt lat="45.06057" lon="5.45371">
        <ele>922</ele>
        <time>2016-09-11T13:48:11Z</time>
      </trkpt>
      <trkpt lat="45.06051" lon="5.45371">
        <ele>922</ele>
        <time>2016-09-11T13:48:12Z</time>
      </trkpt>
      <trkpt lat="45.06046" lon="5.45371">
        <ele>922</ele>
        <time>2016-09-11T13:48:13Z</time>
      </trkpt>
      <trkpt lat="45.06041" lon="5.4537">
        <ele>923</ele>
        <time>2016-09-11T13:48:14Z</time>
      </trkpt>
      <trkpt lat="45.06036" lon="5.4537">
        <ele>923</ele>
        <time>2016-09-11T13:48:15Z</time>
      </trkpt>
      <trkpt lat="45.06031" lon="5.4537">
        <ele>923</ele>
        <time>2016-09-11T13:48:16Z</time>
      </trkpt>
      <trkpt lat="45.06026" lon="5.4537">
        <ele>923</ele>
        <time>2016-09-11T13:48:17Z</time>
      </trkpt>
      <trkpt lat="45.06021" lon="5.45369">
        <ele>923</ele>
        <time>2016-09-11T13:48:18Z</time>
      </trkpt>
      <trkpt lat="45.06015" lon="5.45369">
        <ele>923</ele>
        <time>2016-09-11T13:48:19Z</time>
      </trkpt>
      <trkpt lat="45.0601" lon="5.45369">
        <ele>923</ele>
        <time>2016-09-11T13:48:20Z</time>
      </trkpt>
      <trkpt lat="45.06004" lon="5.45369">
        <ele>923</ele>
        <time>2016-09-11T13:48:21Z</time>
      </trkpt>
      <trkpt lat="45.05999" lon="5.45369">
        <ele>923</ele>
        <time>2016-09-11T13:48:22Z</time>
      </trkpt>
      <trkpt lat="45.05993" lon="5.45369">
        <ele>923</ele>
        <time>2016-09-11T13:48:23Z</time>
      </trkpt>
      <trkpt lat="45.05988" lon="5.45368">
        <ele>923</ele>
        <time>2016-09-11T13:48:24Z</time>
      </trkpt>
      <trkpt lat="45.05982" lon="5.45367">
        <ele>923</ele>
        <time>2016-09-11T13:48:25Z</time>
      </trkpt>
      <trkpt lat="45.05977" lon="5.45366">
        <ele>923</ele>
        <time>2016-09-11T13:48:26Z</time>
      </trkpt>
      <trkpt lat="45.05972" lon="5.45364">
        <ele>923</ele>
        <time>2016-09-11T13:48:27Z</time>
      </trkpt>
      <trkpt lat="45.05966" lon="5.45362">
        <ele>923</ele>
        <time>2016-09-11T13:48:28Z</time>
      </trkpt>
      <trkpt lat="45.05961" lon="5.4536">
        <ele>923</ele>
        <time>2016-09-11T13:48:29Z</time>
      </trkpt>
      <trkpt lat="45.05956" lon="5.45357">
        <ele>923</ele>
        <time>2016-09-11T13:48:30Z</time>
      </trkpt>
      <trkpt lat="45.05945" lon="5.45349">
        <ele>923</ele>
        <time>2016-09-11T13:48:32Z</time>
      </trkpt>
      <trkpt lat="45.0594" lon="5.45346">
        <ele>923</ele>
        <time>2016-09-11T13:48:33Z</time>
      </trkpt>
      <trkpt lat="45.05935" lon="5.45342">
        <ele>923</ele>
        <time>2016-09-11T13:48:34Z</time>
      </trkpt>
      <trkpt lat="45.0593" lon="5.45338">
        <ele>923</ele>
        <time>2016-09-11T13:48:35Z</time>
      </trkpt>
      <trkpt lat="45.05925" lon="5.45334">
        <ele>923</ele>
        <time>2016-09-11T13:48:36Z</time>
      </trkpt>
      <trkpt lat="45.0592" lon="5.4533">
        <ele>924</ele>
        <time>2016-09-11T13:48:37Z</time>
      </trkpt>
      <trkpt lat="45.05916" lon="5.45326">
        <ele>924</ele>
        <time>2016-09-11T13:48:38Z</time>
      </trkpt>
      <trkpt lat="45.05911" lon="5.45322">
        <ele>924</ele>
        <time>2016-09-11T13:48:39Z</time>
      </trkpt>
      <trkpt lat="45.05906" lon="5.45318">
        <ele>924</ele>
        <time>2016-09-11T13:48:40Z</time>
      </trkpt>
      <trkpt lat="45.05901" lon="5.45314">
        <ele>924</ele>
        <time>2016-09-11T13:48:41Z</time>
      </trkpt>
      <trkpt lat="45.05897" lon="5.4531">
        <ele>924</ele>
        <time>2016-09-11T13:48:42Z</time>
      </trkpt>
      <trkpt lat="45.05892" lon="5.45306">
        <ele>924</ele>
        <time>2016-09-11T13:48:43Z</time>
      </trkpt>
      <trkpt lat="45.05887" lon="5.45302">
        <ele>924</ele>
        <time>2016-09-11T13:48:44Z</time>
      </trkpt>
      <trkpt lat="45.05883" lon="5.45298">
        <ele>925</ele>
        <time>2016-09-11T13:48:45Z</time>
      </trkpt>
      <trkpt lat="45.05878" lon="5.45294">
        <ele>924</ele>
        <time>2016-09-11T13:48:46Z</time>
      </trkpt>
      <trkpt lat="45.05874" lon="5.4529">
        <ele>924</ele>
        <time>2016-09-11T13:48:47Z</time>
      </trkpt>
      <trkpt lat="45.05868" lon="5.45287">
        <ele>924</ele>
        <time>2016-09-11T13:48:48Z</time>
      </trkpt>
      <trkpt lat="45.05864" lon="5.45285">
        <ele>924</ele>
        <time>2016-09-11T13:48:49Z</time>
      </trkpt>
      <trkpt lat="45.05859" lon="5.45283">
        <ele>924</ele>
        <time>2016-09-11T13:48:50Z</time>
      </trkpt>
      <trkpt lat="45.05854" lon="5.45282">
        <ele>924</ele>
        <time>2016-09-11T13:48:51Z</time>
      </trkpt>
      <trkpt lat="45.05849" lon="5.45282">
        <ele>924</ele>
        <time>2016-09-11T13:48:52Z</time>
      </trkpt>
      <trkpt lat="45.05843" lon="5.45281">
        <ele>924</ele>
        <time>2016-09-11T13:48:53Z</time>
      </trkpt>
      <trkpt lat="45.05838" lon="5.4528">
        <ele>924</ele>
        <time>2016-09-11T13:48:54Z</time>
      </trkpt>
      <trkpt lat="45.05833" lon="5.45279">
        <ele>924</ele>
        <time>2016-09-11T13:48:55Z</time>
      </trkpt>
      <trkpt lat="45.05827" lon="5.45279">
        <ele>924</ele>
        <time>2016-09-11T13:48:56Z</time>
      </trkpt>
      <trkpt lat="45.05822" lon="5.45278">
        <ele>924</ele>
        <time>2016-09-11T13:48:57Z</time>
      </trkpt>
      <trkpt lat="45.05816" lon="5.45278">
        <ele>924</ele>
        <time>2016-09-11T13:48:58Z</time>
      </trkpt>
      <trkpt lat="45.0581" lon="5.45278">
        <ele>924</ele>
        <time>2016-09-11T13:48:59Z</time>
      </trkpt>
      <trkpt lat="45.05804" lon="5.45278">
        <ele>924</ele>
        <time>2016-09-11T13:49:00Z</time>
      </trkpt>
      <trkpt lat="45.05798" lon="5.45278">
        <ele>924</ele>
        <time>2016-09-11T13:49:01Z</time>
      </trkpt>
      <trkpt lat="45.05792" lon="5.45279">
        <ele>924</ele>
        <time>2016-09-11T13:49:02Z</time>
      </trkpt>
      <trkpt lat="45.05786" lon="5.4528">
        <ele>924</ele>
        <time>2016-09-11T13:49:03Z</time>
      </trkpt>
      <trkpt lat="45.0578" lon="5.4528">
        <ele>923</ele>
        <time>2016-09-11T13:49:04Z</time>
      </trkpt>
      <trkpt lat="45.05774" lon="5.45281">
        <ele>923</ele>
        <time>2016-09-11T13:49:05Z</time>
      </trkpt>
      <trkpt lat="45.05767" lon="5.45282">
        <ele>923</ele>
        <time>2016-09-11T13:49:06Z</time>
      </trkpt>
      <trkpt lat="45.05761" lon="5.45283">
        <ele>923</ele>
        <time>2016-09-11T13:49:07Z</time>
      </trkpt>
      <trkpt lat="45.05755" lon="5.45284">
        <ele>923</ele>
        <time>2016-09-11T13:49:08Z</time>
      </trkpt>
      <trkpt lat="45.05748" lon="5.45285">
        <ele>924</ele>
        <time>2016-09-11T13:49:09Z</time>
      </trkpt>
      <trkpt lat="45.05742" lon="5.45285">
        <ele>924</ele>
        <time>2016-09-11T13:49:10Z</time>
      </trkpt>
      <trkpt lat="45.05735" lon="5.45284">
        <ele>924</ele>
        <time>2016-09-11T13:49:11Z</time>
      </trkpt>
      <trkpt lat="45.05729" lon="5.45284">
        <ele>923</ele>
        <time>2016-09-11T13:49:12Z</time>
      </trkpt>
      <trkpt lat="45.05722" lon="5.45283">
        <ele>923</ele>
        <time>2016-09-11T13:49:13Z</time>
      </trkpt>
      <trkpt lat="45.05716" lon="5.45282">
        <ele>923</ele>
        <time>2016-09-11T13:49:14Z</time>
      </trkpt>
      <trkpt lat="45.0571" lon="5.45281">
        <ele>923</ele>
        <time>2016-09-11T13:49:15Z</time>
      </trkpt>
      <trkpt lat="45.05703" lon="5.4528">
        <ele>923</ele>
        <time>2016-09-11T13:49:16Z</time>
      </trkpt>
      <trkpt lat="45.05697" lon="5.45279">
        <ele>923</ele>
        <time>2016-09-11T13:49:17Z</time>
      </trkpt>
      <trkpt lat="45.0569" lon="5.45278">
        <ele>923</ele>
        <time>2016-09-11T13:49:18Z</time>
      </trkpt>
      <trkpt lat="45.05684" lon="5.45276">
        <ele>923</ele>
        <time>2016-09-11T13:49:19Z</time>
      </trkpt>
      <trkpt lat="45.05677" lon="5.45275">
        <ele>923</ele>
        <time>2016-09-11T13:49:20Z</time>
      </trkpt>
      <trkpt lat="45.05671" lon="5.45273">
        <ele>923</ele>
        <time>2016-09-11T13:49:21Z</time>
      </trkpt>
      <trkpt lat="45.05664" lon="5.45272">
        <ele>923</ele>
        <time>2016-09-11T13:49:22Z</time>
      </trkpt>
      <trkpt lat="45.05658" lon="5.4527">
        <ele>923</ele>
        <time>2016-09-11T13:49:23Z</time>
      </trkpt>
      <trkpt lat="45.05651" lon="5.45268">
        <ele>923</ele>
        <time>2016-09-11T13:49:24Z</time>
      </trkpt>
      <trkpt lat="45.05644" lon="5.45267">
        <ele>922</ele>
        <time>2016-09-11T13:49:25Z</time>
      </trkpt>
      <trkpt lat="45.05638" lon="5.45265">
        <ele>922</ele>
        <time>2016-09-11T13:49:26Z</time>
      </trkpt>
      <trkpt lat="45.05631" lon="5.45264">
        <ele>922</ele>
        <time>2016-09-11T13:49:27Z</time>
      </trkpt>
      <trkpt lat="45.05624" lon="5.45263">
        <ele>922</ele>
        <time>2016-09-11T13:49:28Z</time>
      </trkpt>
      <trkpt lat="45.05618" lon="5.45262">
        <ele>922</ele>
        <time>2016-09-11T13:49:29Z</time>
      </trkpt>
      <trkpt lat="45.05612" lon="5.45261">
        <ele>922</ele>
        <time>2016-09-11T13:49:30Z</time>
      </trkpt>
      <trkpt lat="45.05605" lon="5.4526">
        <ele>922</ele>
        <time>2016-09-11T13:49:31Z</time>
      </trkpt>
      <trkpt lat="45.056" lon="5.4526">
        <ele>922</ele>
        <time>2016-09-11T13:49:32Z</time>
      </trkpt>
      <trkpt lat="45.05593" lon="5.45259">
        <ele>922</ele>
        <time>2016-09-11T13:49:33Z</time>
      </trkpt>
      <trkpt lat="45.05586" lon="5.4526">
        <ele>922</ele>
        <time>2016-09-11T13:49:34Z</time>
      </trkpt>
      <trkpt lat="45.05579" lon="5.4526">
        <ele>922</ele>
        <time>2016-09-11T13:49:35Z</time>
      </trkpt>
      <trkpt lat="45.05572" lon="5.4526">
        <ele>923</ele>
        <time>2016-09-11T13:49:36Z</time>
      </trkpt>
      <trkpt lat="45.05565" lon="5.4526">
        <ele>923</ele>
        <time>2016-09-11T13:49:37Z</time>
      </trkpt>
      <trkpt lat="45.05558" lon="5.45261">
        <ele>923</ele>
        <time>2016-09-11T13:49:38Z</time>
      </trkpt>
      <trkpt lat="45.0555" lon="5.45261">
        <ele>923</ele>
        <time>2016-09-11T13:49:39Z</time>
      </trkpt>
      <trkpt lat="45.05543" lon="5.45262">
        <ele>923</ele>
        <time>2016-09-11T13:49:40Z</time>
      </trkpt>
      <trkpt lat="45.05536" lon="5.45261">
        <ele>923</ele>
        <time>2016-09-11T13:49:41Z</time>
      </trkpt>
      <trkpt lat="45.05528" lon="5.45261">
        <ele>923</ele>
        <time>2016-09-11T13:49:42Z</time>
      </trkpt>
      <trkpt lat="45.05521" lon="5.4526">
        <ele>923</ele>
        <time>2016-09-11T13:49:43Z</time>
      </trkpt>
      <trkpt lat="45.05514" lon="5.45258">
        <ele>923</ele>
        <time>2016-09-11T13:49:44Z</time>
      </trkpt>
      <trkpt lat="45.05505" lon="5.45256">
        <ele>923</ele>
        <time>2016-09-11T13:49:45Z</time>
      </trkpt>
      <trkpt lat="45.05498" lon="5.45253">
        <ele>923</ele>
        <time>2016-09-11T13:49:46Z</time>
      </trkpt>
      <trkpt lat="45.05491" lon="5.4525">
        <ele>923</ele>
        <time>2016-09-11T13:49:47Z</time>
      </trkpt>
      <trkpt lat="45.05484" lon="5.45245">
        <ele>923</ele>
        <time>2016-09-11T13:49:48Z</time>
      </trkpt>
      <trkpt lat="45.05477" lon="5.4524">
        <ele>923</ele>
        <time>2016-09-11T13:49:49Z</time>
      </trkpt>
      <trkpt lat="45.0547" lon="5.45234">
        <ele>923</ele>
        <time>2016-09-11T13:49:50Z</time>
      </trkpt>
      <trkpt lat="45.05463" lon="5.45228">
        <ele>922</ele>
        <time>2016-09-11T13:49:51Z</time>
      </trkpt>
      <trkpt lat="45.05458" lon="5.45222">
        <ele>922</ele>
        <time>2016-09-11T13:49:52Z</time>
      </trkpt>
      <trkpt lat="45.05452" lon="5.45215">
        <ele>922</ele>
        <time>2016-09-11T13:49:53Z</time>
      </trkpt>
      <trkpt lat="45.05446" lon="5.45207">
        <ele>921</ele>
        <time>2016-09-11T13:49:54Z</time>
      </trkpt>
      <trkpt lat="45.0544" lon="5.45199">
        <ele>921</ele>
        <time>2016-09-11T13:49:55Z</time>
      </trkpt>
      <trkpt lat="45.05433" lon="5.4519">
        <ele>920</ele>
        <time>2016-09-11T13:49:56Z</time>
      </trkpt>
      <trkpt lat="45.05427" lon="5.45183">
        <ele>920</ele>
        <time>2016-09-11T13:49:57Z</time>
      </trkpt>
      <trkpt lat="45.05421" lon="5.45175">
        <ele>920</ele>
        <time>2016-09-11T13:49:58Z</time>
      </trkpt>
      <trkpt lat="45.05415" lon="5.45167">
        <ele>920</ele>
        <time>2016-09-11T13:49:59Z</time>
      </trkpt>
      <trkpt lat="45.05409" lon="5.45158">
        <ele>920</ele>
        <time>2016-09-11T13:50:00Z</time>
      </trkpt>
      <trkpt lat="45.05403" lon="5.4515">
        <ele>920</ele>
        <time>2016-09-11T13:50:01Z</time>
      </trkpt>
      <trkpt lat="45.05398" lon="5.45142">
        <ele>920</ele>
        <time>2016-09-11T13:50:02Z</time>
      </trkpt>
      <trkpt lat="45.05392" lon="5.45135">
        <ele>919</ele>
        <time>2016-09-11T13:50:03Z</time>
      </trkpt>
      <trkpt lat="45.05386" lon="5.45126">
        <ele>919</ele>
        <time>2016-09-11T13:50:04Z</time>
      </trkpt>
      <trkpt lat="45.0538" lon="5.45118">
        <ele>918</ele>
        <time>2016-09-11T13:50:05Z</time>
      </trkpt>
      <trkpt lat="45.05373" lon="5.4511">
        <ele>918</ele>
        <time>2016-09-11T13:50:06Z</time>
      </trkpt>
      <trkpt lat="45.05365" lon="5.45103">
        <ele>918</ele>
        <time>2016-09-11T13:50:07Z</time>
      </trkpt>
      <trkpt lat="45.05359" lon="5.45097">
        <ele>918</ele>
        <time>2016-09-11T13:50:08Z</time>
      </trkpt>
      <trkpt lat="45.05351" lon="5.45092">
        <ele>918</ele>
        <time>2016-09-11T13:50:09Z</time>
      </trkpt>
      <trkpt lat="45.05344" lon="5.45086">
        <ele>918</ele>
        <time>2016-09-11T13:50:10Z</time>
      </trkpt>
      <trkpt lat="45.05335" lon="5.45082">
        <ele>918</ele>
        <time>2016-09-11T13:50:11Z</time>
      </trkpt>
      <trkpt lat="45.05329" lon="5.45078">
        <ele>918</ele>
        <time>2016-09-11T13:50:12Z</time>
      </trkpt>
      <trkpt lat="45.05321" lon="5.45074">
        <ele>918</ele>
        <time>2016-09-11T13:50:13Z</time>
      </trkpt>
      <trkpt lat="45.05314" lon="5.45069">
        <ele>918</ele>
        <time>2016-09-11T13:50:14Z</time>
      </trkpt>
      <trkpt lat="45.05306" lon="5.45064">
        <ele>917</ele>
        <time>2016-09-11T13:50:15Z</time>
      </trkpt>
      <trkpt lat="45.05298" lon="5.45059">
        <ele>917</ele>
        <time>2016-09-11T13:50:16Z</time>
      </trkpt>
      <trkpt lat="45.05291" lon="5.45055">
        <ele>917</ele>
        <time>2016-09-11T13:50:17Z</time>
      </trkpt>
      <trkpt lat="45.05283" lon="5.45051">
        <ele>916</ele>
        <time>2016-09-11T13:50:18Z</time>
      </trkpt>
      <trkpt lat="45.05276" lon="5.45046">
        <ele>916</ele>
        <time>2016-09-11T13:50:19Z</time>
      </trkpt>
      <trkpt lat="45.05269" lon="5.45042">
        <ele>916</ele>
        <time>2016-09-11T13:50:20Z</time>
      </trkpt>
      <trkpt lat="45.05261" lon="5.45038">
        <ele>916</ele>
        <time>2016-09-11T13:50:21Z</time>
      </trkpt>
      <trkpt lat="45.05254" lon="5.45034">
        <ele>916</ele>
        <time>2016-09-11T13:50:22Z</time>
      </trkpt>
      <trkpt lat="45.05247" lon="5.4503">
        <ele>916</ele>
        <time>2016-09-11T13:50:23Z</time>
      </trkpt>
      <trkpt lat="45.0524" lon="5.45027">
        <ele>916</ele>
        <time>2016-09-11T13:50:24Z</time>
      </trkpt>
      <trkpt lat="45.05233" lon="5.45023">
        <ele>916</ele>
        <time>2016-09-11T13:50:25Z</time>
      </trkpt>
      <trkpt lat="45.05225" lon="5.45019">
        <ele>916</ele>
        <time>2016-09-11T13:50:26Z</time>
      </trkpt>
      <trkpt lat="45.05219" lon="5.45016">
        <ele>916</ele>
        <time>2016-09-11T13:50:27Z</time>
      </trkpt>
      <trkpt lat="45.05211" lon="5.45011">
        <ele>916</ele>
        <time>2016-09-11T13:50:28Z</time>
      </trkpt>
      <trkpt lat="45.05204" lon="5.45008">
        <ele>916</ele>
        <time>2016-09-11T13:50:29Z</time>
      </trkpt>
      <trkpt lat="45.05198" lon="5.45004">
        <ele>915</ele>
        <time>2016-09-11T13:50:30Z</time>
      </trkpt>
      <trkpt lat="45.0519" lon="5.45">
        <ele>915</ele>
        <time>2016-09-11T13:50:31Z</time>
      </trkpt>
      <trkpt lat="45.05183" lon="5.44997">
        <ele>915</ele>
        <time>2016-09-11T13:50:32Z</time>
      </trkpt>
      <trkpt lat="45.05175" lon="5.44993">
        <ele>915</ele>
        <time>2016-09-11T13:50:33Z</time>
      </trkpt>
      <trkpt lat="45.05169" lon="5.44988">
        <ele>914</ele>
        <time>2016-09-11T13:50:34Z</time>
      </trkpt>
      <trkpt lat="45.05161" lon="5.44984">
        <ele>914</ele>
        <time>2016-09-11T13:50:35Z</time>
      </trkpt>
      <trkpt lat="45.05155" lon="5.4498">
        <ele>914</ele>
        <time>2016-09-11T13:50:36Z</time>
      </trkpt>
      <trkpt lat="45.05148" lon="5.44976">
        <ele>914</ele>
        <time>2016-09-11T13:50:37Z</time>
      </trkpt>
      <trkpt lat="45.05141" lon="5.44972">
        <ele>914</ele>
        <time>2016-09-11T13:50:38Z</time>
      </trkpt>
      <trkpt lat="45.05135" lon="5.44969">
        <ele>914</ele>
        <time>2016-09-11T13:50:39Z</time>
      </trkpt>
      <trkpt lat="45.05128" lon="5.44965">
        <ele>913</ele>
        <time>2016-09-11T13:50:41Z</time>
      </trkpt>
      <trkpt lat="45.05123" lon="5.44963">
        <ele>913</ele>
        <time>2016-09-11T13:50:44Z</time>
      </trkpt>
      <trkpt lat="45.05116" lon="5.4496">
        <ele>913</ele>
        <time>2016-09-11T13:50:46Z</time>
      </trkpt>
      <trkpt lat="45.05111" lon="5.44957">
        <ele>913</ele>
        <time>2016-09-11T13:50:48Z</time>
      </trkpt>
      <trkpt lat="45.05105" lon="5.44953">
        <ele>914</ele>
        <time>2016-09-11T13:50:50Z</time>
      </trkpt>
      <trkpt lat="45.051" lon="5.4495">
        <ele>914</ele>
        <time>2016-09-11T13:50:52Z</time>
      </trkpt>
      <trkpt lat="45.05094" lon="5.44947">
        <ele>914</ele>
        <time>2016-09-11T13:50:54Z</time>
      </trkpt>
      <trkpt lat="45.05088" lon="5.44944">
        <ele>914</ele>
        <time>2016-09-11T13:50:56Z</time>
      </trkpt>
      <trkpt lat="45.05083" lon="5.44942">
        <ele>914</ele>
        <time>2016-09-11T13:50:58Z</time>
      </trkpt>
      <trkpt lat="45.05079" lon="5.44939">
        <ele>914</ele>
        <time>2016-09-11T13:51:00Z</time>
      </trkpt>
      <trkpt lat="45.05073" lon="5.44936">
        <ele>914</ele>
        <time>2016-09-11T13:51:03Z</time>
      </trkpt>
      <trkpt lat="45.05067" lon="5.44933">
        <ele>914</ele>
        <time>2016-09-11T13:51:06Z</time>
      </trkpt>
      <trkpt lat="45.05061" lon="5.44929">
        <ele>914</ele>
        <time>2016-09-11T13:51:09Z</time>
      </trkpt>
      <trkpt lat="45.05055" lon="5.44925">
        <ele>914</ele>
        <time>2016-09-11T13:51:12Z</time>
      </trkpt>
      <trkpt lat="45.05051" lon="5.44921">
        <ele>913</ele>
        <time>2016-09-11T13:51:15Z</time>
      </trkpt>
      <trkpt lat="45.05046" lon="5.44916">
        <ele>913</ele>
        <time>2016-09-11T13:51:18Z</time>
      </trkpt>
      <trkpt lat="45.05042" lon="5.4491">
        <ele>912</ele>
        <time>2016-09-11T13:51:21Z</time>
      </trkpt>
      <trkpt lat="45.05036" lon="5.44906">
        <ele>911</ele>
        <time>2016-09-11T13:51:24Z</time>
      </trkpt>
      <trkpt lat="45.05032" lon="5.44903">
        <ele>911</ele>
        <time>2016-09-11T13:51:26Z</time>
      </trkpt>
      <trkpt lat="45.05026" lon="5.449">
        <ele>910</ele>
        <time>2016-09-11T13:51:28Z</time>
      </trkpt>
      <trkpt lat="45.05021" lon="5.44895">
        <ele>910</ele>
        <time>2016-09-11T13:51:30Z</time>
      </trkpt>
      <trkpt lat="45.05016" lon="5.44892">
        <ele>910</ele>
        <time>2016-09-11T13:51:32Z</time>
      </trkpt>
      <trkpt lat="45.05013" lon="5.44892">
        <ele>911</ele>
        <time>2016-09-11T13:51:52Z</time>
      </trkpt>
      <trkpt lat="45.05013" lon="5.44892">
        <ele>911</ele>
        <time>2016-09-11T13:51:54Z</time>
      </trkpt>
      <trkpt lat="45.05013" lon="5.44893">
        <ele>911</ele>
        <time>2016-09-11T13:52:22Z</time>
      </trkpt>
      <trkpt lat="45.05013" lon="5.44893">
        <ele>911</ele>
        <time>2016-09-11T13:52:25Z</time>
      </trkpt>
      <trkpt lat="45.05013" lon="5.44893">
        <ele>912</ele>
        <time>2016-09-11T13:52:52Z</time>
      </trkpt>
      <trkpt lat="45.05013" lon="5.44893">
        <ele>912</ele>
        <time>2016-09-11T13:52:55Z</time>
      </trkpt>
      <trkpt lat="45.0501" lon="5.44892">
        <ele>912</ele>
        <time>2016-09-11T13:53:22Z</time>
      </trkpt>
      <trkpt lat="45.05009" lon="5.44892">
        <ele>912</ele>
        <time>2016-09-11T13:53:25Z</time>
      </trkpt>
      <trkpt lat="45.05004" lon="5.44894">
        <ele>912</ele>
        <time>2016-09-11T13:53:33Z</time>
      </trkpt>
      <trkpt lat="45.04999" lon="5.44894">
        <ele>912</ele>
        <time>2016-09-11T13:53:37Z</time>
      </trkpt>
      <trkpt lat="45.04995" lon="5.44894">
        <ele>912</ele>
        <time>2016-09-11T13:53:41Z</time>
      </trkpt>
      <trkpt lat="45.0499" lon="5.44896">
        <ele>911</ele>
        <time>2016-09-11T13:53:46Z</time>
      </trkpt>
      <trkpt lat="45.04989" lon="5.44895">
        <ele>911</ele>
        <time>2016-09-11T13:54:07Z</time>
      </trkpt>
      <trkpt lat="45.04989" lon="5.44895">
        <ele>911</ele>
        <time>2016-09-11T13:54:10Z</time>
      </trkpt>
      <trkpt lat="45.04989" lon="5.44895">
        <ele>911</ele>
        <time>2016-09-11T13:54:37Z</time>
      </trkpt>
      <trkpt lat="45.04989" lon="5.44895">
        <ele>910</ele>
        <time>2016-09-11T13:54:40Z</time>
      </trkpt>
      <trkpt lat="45.0499" lon="5.44901">
        <ele>910</ele>
        <time>2016-09-11T13:55:07Z</time>
      </trkpt>
      <trkpt lat="45.0499" lon="5.44901">
        <ele>910</ele>
        <time>2016-09-11T13:55:10Z</time>
      </trkpt>
      <trkpt lat="45.0499" lon="5.44901">
        <ele>910</ele>
        <time>2016-09-11T13:55:37Z</time>
      </trkpt>
      <trkpt lat="45.0499" lon="5.44901">
        <ele>909</ele>
        <time>2016-09-11T13:55:40Z</time>
      </trkpt>
      <trkpt lat="45.0499" lon="5.44901">
        <ele>909</ele>
        <time>2016-09-11T13:56:07Z</time>
      </trkpt>
      <trkpt lat="45.0499" lon="5.44901">
        <ele>909</ele>
        <time>2016-09-11T13:56:10Z</time>
      </trkpt>
      <trkpt lat="45.0499" lon="5.44901">
        <ele>909</ele>
        <time>2016-09-11T13:56:37Z</time>
      </trkpt>
      <trkpt lat="45.0499" lon="5.44901">
        <ele>909</ele>
        <time>2016-09-11T13:56:40Z</time>
      </trkpt>
      <trkpt lat="45.0499" lon="5.44901">
        <ele>909</ele>
        <time>2016-09-11T13:57:07Z</time>
      </trkpt>
      <trkpt lat="45.0499" lon="5.44901">
        <ele>909</ele>
        <time>2016-09-11T13:57:10Z</time>
      </trkpt>
      <trkpt lat="45.0499" lon="5.44901">
        <ele>909</ele>
        <time>2016-09-11T13:57:37Z</time>
      </trkpt>
      <trkpt lat="45.0499" lon="5.44901">
        <ele>909</ele>
        <time>2016-09-11T13:57:40Z</time>
      </trkpt>
      <trkpt lat="45.04984" lon="5.44895">
        <ele>909</ele>
        <time>2016-09-11T13:57:48Z</time>
      </trkpt>
      <trkpt lat="45.04981" lon="5.44889">
        <ele>909</ele>
        <time>2016-09-11T13:57:50Z</time>
      </trkpt>
      <trkpt lat="45.04978" lon="5.44884">
        <ele>909</ele>
        <time>2016-09-11T13:57:52Z</time>
      </trkpt>
      <trkpt lat="45.04975" lon="5.44879">
        <ele>908</ele>
        <time>2016-09-11T13:57:54Z</time>
      </trkpt>
      <trkpt lat="45.04971" lon="5.44875">
        <ele>908</ele>
        <time>2016-09-11T13:57:56Z</time>
      </trkpt>
      <trkpt lat="45.04965" lon="5.44871">
        <ele>907</ele>
        <time>2016-09-11T13:57:58Z</time>
      </trkpt>
      <trkpt lat="45.04961" lon="5.44867">
        <ele>906</ele>
        <time>2016-09-11T13:57:59Z</time>
      </trkpt>
      <trkpt lat="45.04956" lon="5.44865">
        <ele>906</ele>
        <time>2016-09-11T13:58:00Z</time>
      </trkpt>
      <trkpt lat="45.0495" lon="5.44862">
        <ele>906</ele>
        <time>2016-09-11T13:58:01Z</time>
      </trkpt>
      <trkpt lat="45.04946" lon="5.44858">
        <ele>906</ele>
        <time>2016-09-11T13:58:02Z</time>
      </trkpt>
      <trkpt lat="45.04942" lon="5.44853">
        <ele>906</ele>
        <time>2016-09-11T13:58:03Z</time>
      </trkpt>
      <trkpt lat="45.04937" lon="5.44849">
        <ele>906</ele>
        <time>2016-09-11T13:58:04Z</time>
      </trkpt>
      <trkpt lat="45.04934" lon="5.44844">
        <ele>906</ele>
        <time>2016-09-11T13:58:05Z</time>
      </trkpt>
      <trkpt lat="45.04929" lon="5.44839">
        <ele>906</ele>
        <time>2016-09-11T13:58:06Z</time>
      </trkpt>
      <trkpt lat="45.04922" lon="5.44829">
        <ele>906</ele>
        <time>2016-09-11T13:58:08Z</time>
      </trkpt>
      <trkpt lat="45.04918" lon="5.44825">
        <ele>905</ele>
        <time>2016-09-11T13:58:09Z</time>
      </trkpt>
      <trkpt lat="45.04914" lon="5.4482">
        <ele>905</ele>
        <time>2016-09-11T13:58:10Z</time>
      </trkpt>
      <trkpt lat="45.04909" lon="5.44815">
        <ele>904</ele>
        <time>2016-09-11T13:58:11Z</time>
      </trkpt>
      <trkpt lat="45.04906" lon="5.4481">
        <ele>904</ele>
        <time>2016-09-11T13:58:12Z</time>
      </trkpt>
      <trkpt lat="45.04901" lon="5.44805">
        <ele>904</ele>
        <time>2016-09-11T13:58:13Z</time>
      </trkpt>
      <trkpt lat="45.04896" lon="5.44799">
        <ele>904</ele>
        <time>2016-09-11T13:58:14Z</time>
      </trkpt>
      <trkpt lat="45.04892" lon="5.44795">
        <ele>905</ele>
        <time>2016-09-11T13:58:15Z</time>
      </trkpt>
      <trkpt lat="45.04887" lon="5.4479">
        <ele>905</ele>
        <time>2016-09-11T13:58:16Z</time>
      </trkpt>
      <trkpt lat="45.04882" lon="5.44785">
        <ele>905</ele>
        <time>2016-09-11T13:58:17Z</time>
      </trkpt>
      <trkpt lat="45.04876" lon="5.44781">
        <ele>904</ele>
        <time>2016-09-11T13:58:18Z</time>
      </trkpt>
      <trkpt lat="45.04871" lon="5.44777">
        <ele>904</ele>
        <time>2016-09-11T13:58:19Z</time>
      </trkpt>
      <trkpt lat="45.04864" lon="5.44774">
        <ele>904</ele>
        <time>2016-09-11T13:58:20Z</time>
      </trkpt>
      <trkpt lat="45.04858" lon="5.44771">
        <ele>904</ele>
        <time>2016-09-11T13:58:21Z</time>
      </trkpt>
      <trkpt lat="45.04851" lon="5.44768">
        <ele>904</ele>
        <time>2016-09-11T13:58:22Z</time>
      </trkpt>
      <trkpt lat="45.04844" lon="5.44765">
        <ele>904</ele>
        <time>2016-09-11T13:58:23Z</time>
      </trkpt>
      <trkpt lat="45.04838" lon="5.44762">
        <ele>904</ele>
        <time>2016-09-11T13:58:24Z</time>
      </trkpt>
      <trkpt lat="45.04832" lon="5.44759">
        <ele>904</ele>
        <time>2016-09-11T13:58:25Z</time>
      </trkpt>
      <trkpt lat="45.04826" lon="5.44757">
        <ele>904</ele>
        <time>2016-09-11T13:58:26Z</time>
      </trkpt>
      <trkpt lat="45.0482" lon="5.44754">
        <ele>904</ele>
        <time>2016-09-11T13:58:27Z</time>
      </trkpt>
      <trkpt lat="45.04815" lon="5.44753">
        <ele>903</ele>
        <time>2016-09-11T13:58:28Z</time>
      </trkpt>
      <trkpt lat="45.04807" lon="5.44751">
        <ele>903</ele>
        <time>2016-09-11T13:58:30Z</time>
      </trkpt>
      <trkpt lat="45.04801" lon="5.44751">
        <ele>902</ele>
        <time>2016-09-11T13:58:32Z</time>
      </trkpt>
      <trkpt lat="45.04795" lon="5.4475">
        <ele>902</ele>
        <time>2016-09-11T13:58:35Z</time>
      </trkpt>
      <trkpt lat="45.04789" lon="5.4475">
        <ele>902</ele>
        <time>2016-09-11T13:58:38Z</time>
      </trkpt>
      <trkpt lat="45.04787" lon="5.44748">
        <ele>901</ele>
        <time>2016-09-11T13:59:07Z</time>
      </trkpt>
      <trkpt lat="45.04787" lon="5.44748">
        <ele>901</ele>
        <time>2016-09-11T13:59:10Z</time>
      </trkpt>
      <trkpt lat="45.04782" lon="5.44751">
        <ele>901</ele>
        <time>2016-09-11T13:59:27Z</time>
      </trkpt>
      <trkpt lat="45.04775" lon="5.44754">
        <ele>900</ele>
        <time>2016-09-11T13:59:29Z</time>
      </trkpt>
      <trkpt lat="45.04767" lon="5.44756">
        <ele>900</ele>
        <time>2016-09-11T13:59:31Z</time>
      </trkpt>
      <trkpt lat="45.04762" lon="5.44757">
        <ele>900</ele>
        <time>2016-09-11T13:59:32Z</time>
      </trkpt>
      <trkpt lat="45.04757" lon="5.44758">
        <ele>899</ele>
        <time>2016-09-11T13:59:33Z</time>
      </trkpt>
      <trkpt lat="45.04751" lon="5.44759">
        <ele>899</ele>
        <time>2016-09-11T13:59:34Z</time>
      </trkpt>
      <trkpt lat="45.04746" lon="5.44761">
        <ele>899</ele>
        <time>2016-09-11T13:59:35Z</time>
      </trkpt>
      <trkpt lat="45.0474" lon="5.44762">
        <ele>899</ele>
        <time>2016-09-11T13:59:36Z</time>
      </trkpt>
      <trkpt lat="45.04735" lon="5.44764">
        <ele>899</ele>
        <time>2016-09-11T13:59:37Z</time>
      </trkpt>
      <trkpt lat="45.04729" lon="5.44766">
        <ele>899</ele>
        <time>2016-09-11T13:59:38Z</time>
      </trkpt>
      <trkpt lat="45.04723" lon="5.44767">
        <ele>899</ele>
        <time>2016-09-11T13:59:39Z</time>
      </trkpt>
      <trkpt lat="45.04717" lon="5.44769">
        <ele>898</ele>
        <time>2016-09-11T13:59:40Z</time>
      </trkpt>
      <trkpt lat="45.0471" lon="5.4477">
        <ele>898</ele>
        <time>2016-09-11T13:59:41Z</time>
      </trkpt>
      <trkpt lat="45.04704" lon="5.44771">
        <ele>898</ele>
        <time>2016-09-11T13:59:42Z</time>
      </trkpt>
      <trkpt lat="45.04697" lon="5.44772">
        <ele>898</ele>
        <time>2016-09-11T13:59:43Z</time>
      </trkpt>
      <trkpt lat="45.04691" lon="5.44773">
        <ele>898</ele>
        <time>2016-09-11T13:59:44Z</time>
      </trkpt>
      <trkpt lat="45.04684" lon="5.44774">
        <ele>898</ele>
        <time>2016-09-11T13:59:45Z</time>
      </trkpt>
      <trkpt lat="45.04678" lon="5.44776">
        <ele>899</ele>
        <time>2016-09-11T13:59:46Z</time>
      </trkpt>
      <trkpt lat="45.04672" lon="5.44777">
        <ele>899</ele>
        <time>2016-09-11T13:59:47Z</time>
      </trkpt>
      <trkpt lat="45.04665" lon="5.44777">
        <ele>899</ele>
        <time>2016-09-11T13:59:48Z</time>
      </trkpt>
      <trkpt lat="45.04659" lon="5.44778">
        <ele>899</ele>
        <time>2016-09-11T13:59:49Z</time>
      </trkpt>
      <trkpt lat="45.04653" lon="5.4478">
        <ele>900</ele>
        <time>2016-09-11T13:59:50Z</time>
      </trkpt>
      <trkpt lat="45.04647" lon="5.44781">
        <ele>900</ele>
        <time>2016-09-11T13:59:51Z</time>
      </trkpt>
      <trkpt lat="45.04641" lon="5.44782">
        <ele>900</ele>
        <time>2016-09-11T13:59:52Z</time>
      </trkpt>
      <trkpt lat="45.04635" lon="5.44782">
        <ele>899</ele>
        <time>2016-09-11T13:59:53Z</time>
      </trkpt>
      <trkpt lat="45.04629" lon="5.44783">
        <ele>899</ele>
        <time>2016-09-11T13:59:54Z</time>
      </trkpt>
      <trkpt lat="45.04623" lon="5.44783">
        <ele>899</ele>
        <time>2016-09-11T13:59:55Z</time>
      </trkpt>
      <trkpt lat="45.04617" lon="5.44782">
        <ele>899</ele>
        <time>2016-09-11T13:59:56Z</time>
      </trkpt>
      <trkpt lat="45.0461" lon="5.44782">
        <ele>898</ele>
        <time>2016-09-11T13:59:57Z</time>
      </trkpt>
      <trkpt lat="45.04604" lon="5.44782">
        <ele>898</ele>
        <time>2016-09-11T13:59:58Z</time>
      </trkpt>
      <trkpt lat="45.04597" lon="5.44783">
        <ele>897</ele>
        <time>2016-09-11T13:59:59Z</time>
      </trkpt>
      <trkpt lat="45.0459" lon="5.44783">
        <ele>896</ele>
        <time>2016-09-11T14:00:00Z</time>
      </trkpt>
      <trkpt lat="45.04582" lon="5.44784">
        <ele>896</ele>
        <time>2016-09-11T14:00:01Z</time>
      </trkpt>
      <trkpt lat="45.04575" lon="5.44785">
        <ele>896</ele>
        <time>2016-09-11T14:00:02Z</time>
      </trkpt>
      <trkpt lat="45.04567" lon="5.44785">
        <ele>895</ele>
        <time>2016-09-11T14:00:03Z</time>
      </trkpt>
      <trkpt lat="45.04559" lon="5.44785">
        <ele>895</ele>
        <time>2016-09-11T14:00:04Z</time>
      </trkpt>
      <trkpt lat="45.0455" lon="5.44786">
        <ele>894</ele>
        <time>2016-09-11T14:00:05Z</time>
      </trkpt>
      <trkpt lat="45.04542" lon="5.44786">
        <ele>894</ele>
        <time>2016-09-11T14:00:06Z</time>
      </trkpt>
      <trkpt lat="45.04534" lon="5.44786">
        <ele>893</ele>
        <time>2016-09-11T14:00:07Z</time>
      </trkpt>
      <trkpt lat="45.04525" lon="5.44786">
        <ele>893</ele>
        <time>2016-09-11T14:00:08Z</time>
      </trkpt>
      <trkpt lat="45.04516" lon="5.44787">
        <ele>892</ele>
        <time>2016-09-11T14:00:09Z</time>
      </trkpt>
      <trkpt lat="45.04508" lon="5.44787">
        <ele>892</ele>
        <time>2016-09-11T14:00:10Z</time>
      </trkpt>
      <trkpt lat="45.04499" lon="5.44786">
        <ele>891</ele>
        <time>2016-09-11T14:00:11Z</time>
      </trkpt>
      <trkpt lat="45.0449" lon="5.44786">
        <ele>891</ele>
        <time>2016-09-11T14:00:12Z</time>
      </trkpt>
      <trkpt lat="45.04482" lon="5.44784">
        <ele>891</ele>
        <time>2016-09-11T14:00:13Z</time>
      </trkpt>
      <trkpt lat="45.04472" lon="5.44783">
        <ele>890</ele>
        <time>2016-09-11T14:00:14Z</time>
      </trkpt>
      <trkpt lat="45.04463" lon="5.44782">
        <ele>890</ele>
        <time>2016-09-11T14:00:15Z</time>
      </trkpt>
      <trkpt lat="45.04454" lon="5.4478">
        <ele>889</ele>
        <time>2016-09-11T14:00:16Z</time>
      </trkpt>
      <trkpt lat="45.04445" lon="5.44779">
        <ele>889</ele>
        <time>2016-09-11T14:00:17Z</time>
      </trkpt>
      <trkpt lat="45.04436" lon="5.44777">
        <ele>889</ele>
        <time>2016-09-11T14:00:18Z</time>
      </trkpt>
      <trkpt lat="45.04427" lon="5.44776">
        <ele>888</ele>
        <time>2016-09-11T14:00:19Z</time>
      </trkpt>
      <trkpt lat="45.04417" lon="5.44775">
        <ele>887</ele>
        <time>2016-09-11T14:00:20Z</time>
      </trkpt>
      <trkpt lat="45.04408" lon="5.44774">
        <ele>887</ele>
        <time>2016-09-11T14:00:21Z</time>
      </trkpt>
      <trkpt lat="45.044" lon="5.44772">
        <ele>886</ele>
        <time>2016-09-11T14:00:22Z</time>
      </trkpt>
      <trkpt lat="45.04392" lon="5.44771">
        <ele>885</ele>
        <time>2016-09-11T14:00:23Z</time>
      </trkpt>
      <trkpt lat="45.04384" lon="5.4477">
        <ele>884</ele>
        <time>2016-09-11T14:00:24Z</time>
      </trkpt>
      <trkpt lat="45.04377" lon="5.44768">
        <ele>884</ele>
        <time>2016-09-11T14:00:25Z</time>
      </trkpt>
      <trkpt lat="45.0437" lon="5.44767">
        <ele>883</ele>
        <time>2016-09-11T14:00:26Z</time>
      </trkpt>
      <trkpt lat="45.04363" lon="5.44765">
        <ele>882</ele>
        <time>2016-09-11T14:00:27Z</time>
      </trkpt>
      <trkpt lat="45.04356" lon="5.44762">
        <ele>881</ele>
        <time>2016-09-11T14:00:28Z</time>
      </trkpt>
      <trkpt lat="45.04349" lon="5.44759">
        <ele>880</ele>
        <time>2016-09-11T14:00:29Z</time>
      </trkpt>
      <trkpt lat="45.04343" lon="5.44757">
        <ele>879</ele>
        <time>2016-09-11T14:00:30Z</time>
      </trkpt>
      <trkpt lat="45.04337" lon="5.44754">
        <ele>879</ele>
        <time>2016-09-11T14:00:31Z</time>
      </trkpt>
      <trkpt lat="45.0433" lon="5.44752">
        <ele>878</ele>
        <time>2016-09-11T14:00:32Z</time>
      </trkpt>
      <trkpt lat="45.04324" lon="5.44748">
        <ele>878</ele>
        <time>2016-09-11T14:00:33Z</time>
      </trkpt>
      <trkpt lat="45.04316" lon="5.44744">
        <ele>877</ele>
        <time>2016-09-11T14:00:34Z</time>
      </trkpt>
      <trkpt lat="45.0431" lon="5.4474">
        <ele>877</ele>
        <time>2016-09-11T14:00:35Z</time>
      </trkpt>
      <trkpt lat="45.04302" lon="5.44735">
        <ele>876</ele>
        <time>2016-09-11T14:00:36Z</time>
      </trkpt>
      <trkpt lat="45.04294" lon="5.4473">
        <ele>875</ele>
        <time>2016-09-11T14:00:37Z</time>
      </trkpt>
      <trkpt lat="45.04286" lon="5.44725">
        <ele>874</ele>
        <time>2016-09-11T14:00:38Z</time>
      </trkpt>
      <trkpt lat="45.04278" lon="5.4472">
        <ele>874</ele>
        <time>2016-09-11T14:00:39Z</time>
      </trkpt>
      <trkpt lat="45.04269" lon="5.44715">
        <ele>873</ele>
        <time>2016-09-11T14:00:40Z</time>
      </trkpt>
      <trkpt lat="45.0426" lon="5.4471">
        <ele>872</ele>
        <time>2016-09-11T14:00:41Z</time>
      </trkpt>
      <trkpt lat="45.04252" lon="5.44704">
        <ele>872</ele>
        <time>2016-09-11T14:00:42Z</time>
      </trkpt>
      <trkpt lat="45.04243" lon="5.44699">
        <ele>871</ele>
        <time>2016-09-11T14:00:43Z</time>
      </trkpt>
      <trkpt lat="45.04233" lon="5.44693">
        <ele>871</ele>
        <time>2016-09-11T14:00:44Z</time>
      </trkpt>
      <trkpt lat="45.04215" lon="5.44681">
        <ele>870</ele>
        <time>2016-09-11T14:00:46Z</time>
      </trkpt>
      <trkpt lat="45.04198" lon="5.4467">
        <ele>869</ele>
        <time>2016-09-11T14:00:48Z</time>
      </trkpt>
      <trkpt lat="45.04188" lon="5.44665">
        <ele>868</ele>
        <time>2016-09-11T14:00:49Z</time>
      </trkpt>
      <trkpt lat="45.04178" lon="5.44659">
        <ele>867</ele>
        <time>2016-09-11T14:00:50Z</time>
      </trkpt>
      <trkpt lat="45.04168" lon="5.44654">
        <ele>866</ele>
        <time>2016-09-11T14:00:51Z</time>
      </trkpt>
      <trkpt lat="45.04159" lon="5.44649">
        <ele>865</ele>
        <time>2016-09-11T14:00:52Z</time>
      </trkpt>
      <trkpt lat="45.04149" lon="5.44643">
        <ele>864</ele>
        <time>2016-09-11T14:00:53Z</time>
      </trkpt>
      <trkpt lat="45.0414" lon="5.44637">
        <ele>864</ele>
        <time>2016-09-11T14:00:54Z</time>
      </trkpt>
      <trkpt lat="45.0413" lon="5.44629">
        <ele>863</ele>
        <time>2016-09-11T14:00:55Z</time>
      </trkpt>
      <trkpt lat="45.04121" lon="5.44621">
        <ele>862</ele>
        <time>2016-09-11T14:00:56Z</time>
      </trkpt>
      <trkpt lat="45.04112" lon="5.44613">
        <ele>861</ele>
        <time>2016-09-11T14:00:57Z</time>
      </trkpt>
      <trkpt lat="45.04102" lon="5.44604">
        <ele>861</ele>
        <time>2016-09-11T14:00:58Z</time>
      </trkpt>
      <trkpt lat="45.04093" lon="5.44596">
        <ele>860</ele>
        <time>2016-09-11T14:00:59Z</time>
      </trkpt>
      <trkpt lat="45.04083" lon="5.44589">
        <ele>859</ele>
        <time>2016-09-11T14:01:00Z</time>
      </trkpt>
      <trkpt lat="45.04074" lon="5.44582">
        <ele>858</ele>
        <time>2016-09-11T14:01:01Z</time>
      </trkpt>
      <trkpt lat="45.04064" lon="5.44576">
        <ele>857</ele>
        <time>2016-09-11T14:01:02Z</time>
      </trkpt>
      <trkpt lat="45.04055" lon="5.44571">
        <ele>856</ele>
        <time>2016-09-11T14:01:03Z</time>
      </trkpt>
      <trkpt lat="45.04044" lon="5.44566">
        <ele>855</ele>
        <time>2016-09-11T14:01:04Z</time>
      </trkpt>
      <trkpt lat="45.04034" lon="5.44561">
        <ele>854</ele>
        <time>2016-09-11T14:01:05Z</time>
      </trkpt>
      <trkpt lat="45.04024" lon="5.44556">
        <ele>853</ele>
        <time>2016-09-11T14:01:06Z</time>
      </trkpt>
      <trkpt lat="45.04013" lon="5.44551">
        <ele>852</ele>
        <time>2016-09-11T14:01:07Z</time>
      </trkpt>
      <trkpt lat="45.04002" lon="5.44546">
        <ele>851</ele>
        <time>2016-09-11T14:01:08Z</time>
      </trkpt>
      <trkpt lat="45.03993" lon="5.44541">
        <ele>851</ele>
        <time>2016-09-11T14:01:09Z</time>
      </trkpt>
      <trkpt lat="45.03983" lon="5.44536">
        <ele>850</ele>
        <time>2016-09-11T14:01:10Z</time>
      </trkpt>
      <trkpt lat="45.03973" lon="5.44529">
        <ele>849</ele>
        <time>2016-09-11T14:01:11Z</time>
      </trkpt>
      <trkpt lat="45.03965" lon="5.44522">
        <ele>849</ele>
        <time>2016-09-11T14:01:12Z</time>
      </trkpt>
      <trkpt lat="45.03956" lon="5.44514">
        <ele>848</ele>
        <time>2016-09-11T14:01:13Z</time>
      </trkpt>
      <trkpt lat="45.03947" lon="5.44506">
        <ele>848</ele>
        <time>2016-09-11T14:01:14Z</time>
      </trkpt>
      <trkpt lat="45.03929" lon="5.4449">
        <ele>848</ele>
        <time>2016-09-11T14:01:16Z</time>
      </trkpt>
      <trkpt lat="45.0392" lon="5.44483">
        <ele>847</ele>
        <time>2016-09-11T14:01:17Z</time>
      </trkpt>
      <trkpt lat="45.03912" lon="5.44477">
        <ele>847</ele>
        <time>2016-09-11T14:01:18Z</time>
      </trkpt>
      <trkpt lat="45.03903" lon="5.44473">
        <ele>846</ele>
        <time>2016-09-11T14:01:19Z</time>
      </trkpt>
      <trkpt lat="45.03894" lon="5.4447">
        <ele>845</ele>
        <time>2016-09-11T14:01:20Z</time>
      </trkpt>
      <trkpt lat="45.03884" lon="5.44468">
        <ele>845</ele>
        <time>2016-09-11T14:01:21Z</time>
      </trkpt>
      <trkpt lat="45.03874" lon="5.44467">
        <ele>844</ele>
        <time>2016-09-11T14:01:22Z</time>
      </trkpt>
      <trkpt lat="45.03864" lon="5.44466">
        <ele>844</ele>
        <time>2016-09-11T14:01:23Z</time>
      </trkpt>
      <trkpt lat="45.03854" lon="5.44465">
        <ele>843</ele>
        <time>2016-09-11T14:01:24Z</time>
      </trkpt>
      <trkpt lat="45.03845" lon="5.44464">
        <ele>843</ele>
        <time>2016-09-11T14:01:25Z</time>
      </trkpt>
      <trkpt lat="45.03834" lon="5.44463">
        <ele>842</ele>
        <time>2016-09-11T14:01:26Z</time>
      </trkpt>
      <trkpt lat="45.03824" lon="5.44461">
        <ele>842</ele>
        <time>2016-09-11T14:01:27Z</time>
      </trkpt>
      <trkpt lat="45.03814" lon="5.4446">
        <ele>841</ele>
        <time>2016-09-11T14:01:28Z</time>
      </trkpt>
      <trkpt lat="45.03793" lon="5.44457">
        <ele>840</ele>
        <time>2016-09-11T14:01:30Z</time>
      </trkpt>
      <trkpt lat="45.03782" lon="5.44455">
        <ele>840</ele>
        <time>2016-09-11T14:01:31Z</time>
      </trkpt>
      <trkpt lat="45.03771" lon="5.44453">
        <ele>839</ele>
        <time>2016-09-11T14:01:32Z</time>
      </trkpt>
      <trkpt lat="45.03761" lon="5.44451">
        <ele>838</ele>
        <time>2016-09-11T14:01:33Z</time>
      </trkpt>
      <trkpt lat="45.0375" lon="5.4445">
        <ele>838</ele>
        <time>2016-09-11T14:01:34Z</time>
      </trkpt>
      <trkpt lat="45.03738" lon="5.44448">
        <ele>837</ele>
        <time>2016-09-11T14:01:35Z</time>
      </trkpt>
      <trkpt lat="45.03728" lon="5.44447">
        <ele>836</ele>
        <time>2016-09-11T14:01:36Z</time>
      </trkpt>
      <trkpt lat="45.03717" lon="5.44445">
        <ele>835</ele>
        <time>2016-09-11T14:01:37Z</time>
      </trkpt>
      <trkpt lat="45.03707" lon="5.44445">
        <ele>835</ele>
        <time>2016-09-11T14:01:38Z</time>
      </trkpt>
      <trkpt lat="45.03696" lon="5.44444">
        <ele>834</ele>
        <time>2016-09-11T14:01:39Z</time>
      </trkpt>
      <trkpt lat="45.03687" lon="5.44443">
        <ele>833</ele>
        <time>2016-09-11T14:01:40Z</time>
      </trkpt>
      <trkpt lat="45.03678" lon="5.44442">
        <ele>832</ele>
        <time>2016-09-11T14:01:41Z</time>
      </trkpt>
      <trkpt lat="45.03668" lon="5.44441">
        <ele>831</ele>
        <time>2016-09-11T14:01:42Z</time>
      </trkpt>
      <trkpt lat="45.03659" lon="5.4444">
        <ele>831</ele>
        <time>2016-09-11T14:01:43Z</time>
      </trkpt>
      <trkpt lat="45.0365" lon="5.4444">
        <ele>830</ele>
        <time>2016-09-11T14:01:44Z</time>
      </trkpt>
      <trkpt lat="45.03641" lon="5.44439">
        <ele>829</ele>
        <time>2016-09-11T14:01:45Z</time>
      </trkpt>
      <trkpt lat="45.03632" lon="5.44438">
        <ele>829</ele>
        <time>2016-09-11T14:01:46Z</time>
      </trkpt>
      <trkpt lat="45.03624" lon="5.44438">
        <ele>828</ele>
        <time>2016-09-11T14:01:47Z</time>
      </trkpt>
      <trkpt lat="45.03608" lon="5.44436">
        <ele>828</ele>
        <time>2016-09-11T14:01:49Z</time>
      </trkpt>
      <trkpt lat="45.036" lon="5.44435">
        <ele>827</ele>
        <time>2016-09-11T14:01:50Z</time>
      </trkpt>
      <trkpt lat="45.03593" lon="5.44435">
        <ele>827</ele>
        <time>2016-09-11T14:01:51Z</time>
      </trkpt>
      <trkpt lat="45.03587" lon="5.44435">
        <ele>826</ele>
        <time>2016-09-11T14:01:52Z</time>
      </trkpt>
      <trkpt lat="45.03581" lon="5.44434">
        <ele>826</ele>
        <time>2016-09-11T14:01:53Z</time>
      </trkpt>
      <trkpt lat="45.03576" lon="5.44434">
        <ele>826</ele>
        <time>2016-09-11T14:01:54Z</time>
      </trkpt>
      <trkpt lat="45.03569" lon="5.44433">
        <ele>825</ele>
        <time>2016-09-11T14:01:55Z</time>
      </trkpt>
      <trkpt lat="45.03562" lon="5.44432">
        <ele>825</ele>
        <time>2016-09-11T14:01:56Z</time>
      </trkpt>
      <trkpt lat="45.03556" lon="5.44431">
        <ele>824</ele>
        <time>2016-09-11T14:01:57Z</time>
      </trkpt>
      <trkpt lat="45.0355" lon="5.4443">
        <ele>824</ele>
        <time>2016-09-11T14:01:58Z</time>
      </trkpt>
      <trkpt lat="45.03543" lon="5.44428">
        <ele>824</ele>
        <time>2016-09-11T14:01:59Z</time>
      </trkpt>
      <trkpt lat="45.03538" lon="5.44427">
        <ele>823</ele>
        <time>2016-09-11T14:02:00Z</time>
      </trkpt>
      <trkpt lat="45.03529" lon="5.44424">
        <ele>822</ele>
        <time>2016-09-11T14:02:02Z</time>
      </trkpt>
      <trkpt lat="45.0352" lon="5.44421">
        <ele>822</ele>
        <time>2016-09-11T14:02:04Z</time>
      </trkpt>
      <trkpt lat="45.03515" lon="5.4442">
        <ele>821</ele>
        <time>2016-09-11T14:02:05Z</time>
      </trkpt>
      <trkpt lat="45.03509" lon="5.44419">
        <ele>820</ele>
        <time>2016-09-11T14:02:06Z</time>
      </trkpt>
      <trkpt lat="45.03503" lon="5.44418">
        <ele>820</ele>
        <time>2016-09-11T14:02:07Z</time>
      </trkpt>
      <trkpt lat="45.03497" lon="5.44416">
        <ele>820</ele>
        <time>2016-09-11T14:02:08Z</time>
      </trkpt>
      <trkpt lat="45.03491" lon="5.44415">
        <ele>820</ele>
        <time>2016-09-11T14:02:09Z</time>
      </trkpt>
      <trkpt lat="45.03484" lon="5.44413">
        <ele>820</ele>
        <time>2016-09-11T14:02:10Z</time>
      </trkpt>
      <trkpt lat="45.03477" lon="5.44412">
        <ele>820</ele>
        <time>2016-09-11T14:02:11Z</time>
      </trkpt>
      <trkpt lat="45.0347" lon="5.4441">
        <ele>820</ele>
        <time>2016-09-11T14:02:12Z</time>
      </trkpt>
      <trkpt lat="45.03464" lon="5.44408">
        <ele>819</ele>
        <time>2016-09-11T14:02:13Z</time>
      </trkpt>
      <trkpt lat="45.03456" lon="5.44406">
        <ele>819</ele>
        <time>2016-09-11T14:02:14Z</time>
      </trkpt>
      <trkpt lat="45.03449" lon="5.44404">
        <ele>819</ele>
        <time>2016-09-11T14:02:15Z</time>
      </trkpt>
      <trkpt lat="45.03442" lon="5.44402">
        <ele>818</ele>
        <time>2016-09-11T14:02:16Z</time>
      </trkpt>
      <trkpt lat="45.03434" lon="5.444">
        <ele>818</ele>
        <time>2016-09-11T14:02:17Z</time>
      </trkpt>
      <trkpt lat="45.03426" lon="5.44399">
        <ele>817</ele>
        <time>2016-09-11T14:02:18Z</time>
      </trkpt>
      <trkpt lat="45.03418" lon="5.44397">
        <ele>817</ele>
        <time>2016-09-11T14:02:19Z</time>
      </trkpt>
      <trkpt lat="45.03409" lon="5.44396">
        <ele>816</ele>
        <time>2016-09-11T14:02:20Z</time>
      </trkpt>
      <trkpt lat="45.034" lon="5.44395">
        <ele>816</ele>
        <time>2016-09-11T14:02:21Z</time>
      </trkpt>
      <trkpt lat="45.03391" lon="5.44394">
        <ele>816</ele>
        <time>2016-09-11T14:02:22Z</time>
      </trkpt>
      <trkpt lat="45.03383" lon="5.44393">
        <ele>815</ele>
        <time>2016-09-11T14:02:23Z</time>
      </trkpt>
      <trkpt lat="45.03373" lon="5.44393">
        <ele>815</ele>
        <time>2016-09-11T14:02:24Z</time>
      </trkpt>
      <trkpt lat="45.03365" lon="5.44392">
        <ele>815</ele>
        <time>2016-09-11T14:02:25Z</time>
      </trkpt>
      <trkpt lat="45.03356" lon="5.44392">
        <ele>814</ele>
        <time>2016-09-11T14:02:26Z</time>
      </trkpt>
      <trkpt lat="45.03347" lon="5.44391">
        <ele>813</ele>
        <time>2016-09-11T14:02:27Z</time>
      </trkpt>
      <trkpt lat="45.03339" lon="5.44391">
        <ele>813</ele>
        <time>2016-09-11T14:02:28Z</time>
      </trkpt>
      <trkpt lat="45.03331" lon="5.44391">
        <ele>812</ele>
        <time>2016-09-11T14:02:29Z</time>
      </trkpt>
      <trkpt lat="45.03324" lon="5.44389">
        <ele>811</ele>
        <time>2016-09-11T14:02:30Z</time>
      </trkpt>
      <trkpt lat="45.03317" lon="5.44389">
        <ele>810</ele>
        <time>2016-09-11T14:02:31Z</time>
      </trkpt>
      <trkpt lat="45.03309" lon="5.44388">
        <ele>810</ele>
        <time>2016-09-11T14:02:32Z</time>
      </trkpt>
      <trkpt lat="45.03302" lon="5.44388">
        <ele>809</ele>
        <time>2016-09-11T14:02:33Z</time>
      </trkpt>
      <trkpt lat="45.03295" lon="5.44388">
        <ele>809</ele>
        <time>2016-09-11T14:02:34Z</time>
      </trkpt>
      <trkpt lat="45.03288" lon="5.44387">
        <ele>808</ele>
        <time>2016-09-11T14:02:35Z</time>
      </trkpt>
      <trkpt lat="45.03281" lon="5.44388">
        <ele>808</ele>
        <time>2016-09-11T14:02:36Z</time>
      </trkpt>
      <trkpt lat="45.03275" lon="5.44388">
        <ele>807</ele>
        <time>2016-09-11T14:02:37Z</time>
      </trkpt>
      <trkpt lat="45.03269" lon="5.44389">
        <ele>807</ele>
        <time>2016-09-11T14:02:38Z</time>
      </trkpt>
      <trkpt lat="45.03264" lon="5.4439">
        <ele>806</ele>
        <time>2016-09-11T14:02:39Z</time>
      </trkpt>
      <trkpt lat="45.03259" lon="5.44392">
        <ele>806</ele>
        <time>2016-09-11T14:02:40Z</time>
      </trkpt>
      <trkpt lat="45.03253" lon="5.44394">
        <ele>806</ele>
        <time>2016-09-11T14:02:42Z</time>
      </trkpt>
      <trkpt lat="45.03248" lon="5.44394">
        <ele>806</ele>
        <time>2016-09-11T14:02:46Z</time>
      </trkpt>
      <trkpt lat="45.03245" lon="5.444">
        <ele>805</ele>
        <time>2016-09-11T14:03:03Z</time>
      </trkpt>
      <trkpt lat="45.03245" lon="5.44408">
        <ele>806</ele>
        <time>2016-09-11T14:03:06Z</time>
      </trkpt>
      <trkpt lat="45.03247" lon="5.4441">
        <ele>806</ele>
        <time>2016-09-11T14:03:22Z</time>
      </trkpt>
      <trkpt lat="45.03247" lon="5.4441">
        <ele>807</ele>
        <time>2016-09-11T14:03:25Z</time>
      </trkpt>
      <trkpt lat="45.03247" lon="5.4441">
        <ele>808</ele>
        <time>2016-09-11T14:03:52Z</time>
      </trkpt>
      <trkpt lat="45.03247" lon="5.4441">
        <ele>809</ele>
        <time>2016-09-11T14:03:55Z</time>
      </trkpt>
      <trkpt lat="45.03245" lon="5.4442">
        <ele>810</ele>
        <time>2016-09-11T14:04:01Z</time>
      </trkpt>
      <trkpt lat="45.03243" lon="5.44428">
        <ele>810</ele>
        <time>2016-09-11T14:04:03Z</time>
      </trkpt>
      <trkpt lat="45.03239" lon="5.44434">
        <ele>810</ele>
        <time>2016-09-11T14:04:05Z</time>
      </trkpt>
      <trkpt lat="45.03235" lon="5.44439">
        <ele>810</ele>
        <time>2016-09-11T14:04:07Z</time>
      </trkpt>
      <trkpt lat="45.03231" lon="5.44445">
        <ele>810</ele>
        <time>2016-09-11T14:04:09Z</time>
      </trkpt>
      <trkpt lat="45.03226" lon="5.44452">
        <ele>809</ele>
        <time>2016-09-11T14:04:11Z</time>
      </trkpt>
      <trkpt lat="45.0322" lon="5.44458">
        <ele>809</ele>
        <time>2016-09-11T14:04:13Z</time>
      </trkpt>
      <trkpt lat="45.03215" lon="5.44465">
        <ele>809</ele>
        <time>2016-09-11T14:04:15Z</time>
      </trkpt>
      <trkpt lat="45.03209" lon="5.44471">
        <ele>809</ele>
        <time>2016-09-11T14:04:17Z</time>
      </trkpt>
      <trkpt lat="45.03204" lon="5.44477">
        <ele>810</ele>
        <time>2016-09-11T14:04:19Z</time>
      </trkpt>
      <trkpt lat="45.032" lon="5.44482">
        <ele>810</ele>
        <time>2016-09-11T14:04:21Z</time>
      </trkpt>
      <trkpt lat="45.03196" lon="5.44487">
        <ele>811</ele>
        <time>2016-09-11T14:04:23Z</time>
      </trkpt>
      <trkpt lat="45.03192" lon="5.44491">
        <ele>811</ele>
        <time>2016-09-11T14:04:25Z</time>
      </trkpt>
      <trkpt lat="45.03188" lon="5.44496">
        <ele>812</ele>
        <time>2016-09-11T14:04:27Z</time>
      </trkpt>
      <trkpt lat="45.03184" lon="5.44501">
        <ele>812</ele>
        <time>2016-09-11T14:04:29Z</time>
      </trkpt>
      <trkpt lat="45.03179" lon="5.44507">
        <ele>812</ele>
        <time>2016-09-11T14:04:31Z</time>
      </trkpt>
      <trkpt lat="45.03174" lon="5.44512">
        <ele>812</ele>
        <time>2016-09-11T14:04:33Z</time>
      </trkpt>
      <trkpt lat="45.0317" lon="5.44518">
        <ele>812</ele>
        <time>2016-09-11T14:04:35Z</time>
      </trkpt>
      <trkpt lat="45.03165" lon="5.44524">
        <ele>813</ele>
        <time>2016-09-11T14:04:37Z</time>
      </trkpt>
      <trkpt lat="45.03162" lon="5.44528">
        <ele>814</ele>
        <time>2016-09-11T14:04:39Z</time>
      </trkpt>
      <trkpt lat="45.03158" lon="5.44534">
        <ele>814</ele>
        <time>2016-09-11T14:04:42Z</time>
      </trkpt>
      <trkpt lat="45.03154" lon="5.44538">
        <ele>815</ele>
        <time>2016-09-11T14:04:45Z</time>
      </trkpt>
      <trkpt lat="45.03151" lon="5.44542">
        <ele>815</ele>
        <time>2016-09-11T14:04:47Z</time>
      </trkpt>
      <trkpt lat="45.03146" lon="5.44547">
        <ele>815</ele>
        <time>2016-09-11T14:04:49Z</time>
      </trkpt>
      <trkpt lat="45.03141" lon="5.44553">
        <ele>814</ele>
        <time>2016-09-11T14:04:51Z</time>
      </trkpt>
      <trkpt lat="45.03136" lon="5.44558">
        <ele>813</ele>
        <time>2016-09-11T14:04:53Z</time>
      </trkpt>
      <trkpt lat="45.03131" lon="5.44565">
        <ele>813</ele>
        <time>2016-09-11T14:04:55Z</time>
      </trkpt>
      <trkpt lat="45.03126" lon="5.44571">
        <ele>813</ele>
        <time>2016-09-11T14:04:57Z</time>
      </trkpt>
      <trkpt lat="45.03122" lon="5.44577">
        <ele>812</ele>
        <time>2016-09-11T14:04:59Z</time>
      </trkpt>
      <trkpt lat="45.03117" lon="5.44583">
        <ele>812</ele>
        <time>2016-09-11T14:05:01Z</time>
      </trkpt>
      <trkpt lat="45.03112" lon="5.44588">
        <ele>812</ele>
        <time>2016-09-11T14:05:03Z</time>
      </trkpt>
      <trkpt lat="45.03106" lon="5.44596">
        <ele>812</ele>
        <time>2016-09-11T14:05:05Z</time>
      </trkpt>
      <trkpt lat="45.03101" lon="5.44603">
        <ele>812</ele>
        <time>2016-09-11T14:05:07Z</time>
      </trkpt>
      <trkpt lat="45.03096" lon="5.44611">
        <ele>812</ele>
        <time>2016-09-11T14:05:09Z</time>
      </trkpt>
      <trkpt lat="45.03092" lon="5.44622">
        <ele>812</ele>
        <time>2016-09-11T14:05:11Z</time>
      </trkpt>
      <trkpt lat="45.0309" lon="5.44628">
        <ele>812</ele>
        <time>2016-09-11T14:05:12Z</time>
      </trkpt>
      <trkpt lat="45.03089" lon="5.44637">
        <ele>812</ele>
        <time>2016-09-11T14:05:13Z</time>
      </trkpt>
      <trkpt lat="45.03088" lon="5.44644">
        <ele>812</ele>
        <time>2016-09-11T14:05:14Z</time>
      </trkpt>
      <trkpt lat="45.03087" lon="5.44651">
        <ele>812</ele>
        <time>2016-09-11T14:05:15Z</time>
      </trkpt>
      <trkpt lat="45.03085" lon="5.44658">
        <ele>812</ele>
        <time>2016-09-11T14:05:16Z</time>
      </trkpt>
      <trkpt lat="45.03084" lon="5.44665">
        <ele>812</ele>
        <time>2016-09-11T14:05:17Z</time>
      </trkpt>
      <trkpt lat="45.03082" lon="5.44671">
        <ele>812</ele>
        <time>2016-09-11T14:05:18Z</time>
      </trkpt>
      <trkpt lat="45.03079" lon="5.44683">
        <ele>812</ele>
        <time>2016-09-11T14:05:20Z</time>
      </trkpt>
      <trkpt lat="45.03076" lon="5.44688">
        <ele>813</ele>
        <time>2016-09-11T14:05:21Z</time>
      </trkpt>
      <trkpt lat="45.03073" lon="5.44694">
        <ele>813</ele>
        <time>2016-09-11T14:05:22Z</time>
      </trkpt>
      <trkpt lat="45.03069" lon="5.44701">
        <ele>813</ele>
        <time>2016-09-11T14:05:23Z</time>
      </trkpt>
      <trkpt lat="45.03066" lon="5.44707">
        <ele>814</ele>
        <time>2016-09-11T14:05:24Z</time>
      </trkpt>
      <trkpt lat="45.03062" lon="5.44714">
        <ele>814</ele>
        <time>2016-09-11T14:05:25Z</time>
      </trkpt>
      <trkpt lat="45.03058" lon="5.44719">
        <ele>814</ele>
        <time>2016-09-11T14:05:26Z</time>
      </trkpt>
      <trkpt lat="45.03054" lon="5.44725">
        <ele>814</ele>
        <time>2016-09-11T14:05:27Z</time>
      </trkpt>
      <trkpt lat="45.03049" lon="5.44731">
        <ele>814</ele>
        <time>2016-09-11T14:05:28Z</time>
      </trkpt>
      <trkpt lat="45.03044" lon="5.44736">
        <ele>814</ele>
        <time>2016-09-11T14:05:29Z</time>
      </trkpt>
      <trkpt lat="45.03039" lon="5.4474">
        <ele>814</ele>
        <time>2016-09-11T14:05:30Z</time>
      </trkpt>
      <trkpt lat="45.03034" lon="5.44745">
        <ele>814</ele>
        <time>2016-09-11T14:05:31Z</time>
      </trkpt>
      <trkpt lat="45.03028" lon="5.44747">
        <ele>813</ele>
        <time>2016-09-11T14:05:32Z</time>
      </trkpt>
      <trkpt lat="45.03022" lon="5.44747">
        <ele>812</ele>
        <time>2016-09-11T14:05:33Z</time>
      </trkpt>
      <trkpt lat="45.03016" lon="5.4475">
        <ele>811</ele>
        <time>2016-09-11T14:05:34Z</time>
      </trkpt>
      <trkpt lat="45.0301" lon="5.44754">
        <ele>810</ele>
        <time>2016-09-11T14:05:35Z</time>
      </trkpt>
      <trkpt lat="45.03006" lon="5.44759">
        <ele>809</ele>
        <time>2016-09-11T14:05:36Z</time>
      </trkpt>
      <trkpt lat="45.03002" lon="5.44765">
        <ele>808</ele>
        <time>2016-09-11T14:05:37Z</time>
      </trkpt>
      <trkpt lat="45.02999" lon="5.44771">
        <ele>808</ele>
        <time>2016-09-11T14:05:38Z</time>
      </trkpt>
      <trkpt lat="45.02996" lon="5.44778">
        <ele>808</ele>
        <time>2016-09-11T14:05:39Z</time>
      </trkpt>
      <trkpt lat="45.02991" lon="5.44785">
        <ele>809</ele>
        <time>2016-09-11T14:05:40Z</time>
      </trkpt>
      <trkpt lat="45.02987" lon="5.44791">
        <ele>809</ele>
        <time>2016-09-11T14:05:41Z</time>
      </trkpt>
      <trkpt lat="45.02983" lon="5.44796">
        <ele>810</ele>
        <time>2016-09-11T14:05:42Z</time>
      </trkpt>
      <trkpt lat="45.02975" lon="5.44802">
        <ele>809</ele>
        <time>2016-09-11T14:05:44Z</time>
      </trkpt>
      <trkpt lat="45.0297" lon="5.44803">
        <ele>809</ele>
        <time>2016-09-11T14:05:45Z</time>
      </trkpt>
      <trkpt lat="45.02962" lon="5.44804">
        <ele>808</ele>
        <time>2016-09-11T14:05:47Z</time>
      </trkpt>
      <trkpt lat="45.02947" lon="5.44798">
        <ele>808</ele>
        <time>2016-09-11T14:05:49Z</time>
      </trkpt>
      <trkpt lat="45.0294" lon="5.44798">
        <ele>808</ele>
        <time>2016-09-11T14:05:50Z</time>
      </trkpt>
      <trkpt lat="45.02933" lon="5.44797">
        <ele>808</ele>
        <time>2016-09-11T14:05:51Z</time>
      </trkpt>
      <trkpt lat="45.02926" lon="5.44797">
        <ele>808</ele>
        <time>2016-09-11T14:05:52Z</time>
      </trkpt>
      <trkpt lat="45.02919" lon="5.44795">
        <ele>807</ele>
        <time>2016-09-11T14:05:53Z</time>
      </trkpt>
      <trkpt lat="45.02911" lon="5.44794">
        <ele>807</ele>
        <time>2016-09-11T14:05:54Z</time>
      </trkpt>
      <trkpt lat="45.02904" lon="5.44792">
        <ele>806</ele>
        <time>2016-09-11T14:05:55Z</time>
      </trkpt>
      <trkpt lat="45.02897" lon="5.44791">
        <ele>805</ele>
        <time>2016-09-11T14:05:56Z</time>
      </trkpt>
      <trkpt lat="45.0289" lon="5.44789">
        <ele>804</ele>
        <time>2016-09-11T14:05:57Z</time>
      </trkpt>
      <trkpt lat="45.02883" lon="5.44788">
        <ele>803</ele>
        <time>2016-09-11T14:05:58Z</time>
      </trkpt>
      <trkpt lat="45.02876" lon="5.44787">
        <ele>801</ele>
        <time>2016-09-11T14:05:59Z</time>
      </trkpt>
      <trkpt lat="45.02869" lon="5.44786">
        <ele>800</ele>
        <time>2016-09-11T14:06:00Z</time>
      </trkpt>
      <trkpt lat="45.02862" lon="5.44784">
        <ele>799</ele>
        <time>2016-09-11T14:06:01Z</time>
      </trkpt>
      <trkpt lat="45.02855" lon="5.44783">
        <ele>799</ele>
        <time>2016-09-11T14:06:02Z</time>
      </trkpt>
      <trkpt lat="45.02848" lon="5.44782">
        <ele>798</ele>
        <time>2016-09-11T14:06:03Z</time>
      </trkpt>
      <trkpt lat="45.02841" lon="5.44781">
        <ele>797</ele>
        <time>2016-09-11T14:06:04Z</time>
      </trkpt>
      <trkpt lat="45.02833" lon="5.44779">
        <ele>797</ele>
        <time>2016-09-11T14:06:05Z</time>
      </trkpt>
      <trkpt lat="45.02826" lon="5.44778">
        <ele>796</ele>
        <time>2016-09-11T14:06:06Z</time>
      </trkpt>
      <trkpt lat="45.02818" lon="5.44777">
        <ele>796</ele>
        <time>2016-09-11T14:06:07Z</time>
      </trkpt>
      <trkpt lat="45.02811" lon="5.44776">
        <ele>795</ele>
        <time>2016-09-11T14:06:08Z</time>
      </trkpt>
      <trkpt lat="45.02803" lon="5.44776">
        <ele>795</ele>
        <time>2016-09-11T14:06:09Z</time>
      </trkpt>
      <trkpt lat="45.02796" lon="5.44775">
        <ele>795</ele>
        <time>2016-09-11T14:06:10Z</time>
      </trkpt>
      <trkpt lat="45.02789" lon="5.44774">
        <ele>795</ele>
        <time>2016-09-11T14:06:11Z</time>
      </trkpt>
      <trkpt lat="45.02782" lon="5.44773">
        <ele>794</ele>
        <time>2016-09-11T14:06:12Z</time>
      </trkpt>
      <trkpt lat="45.02775" lon="5.4477">
        <ele>794</ele>
        <time>2016-09-11T14:06:13Z</time>
      </trkpt>
      <trkpt lat="45.02768" lon="5.44766">
        <ele>794</ele>
        <time>2016-09-11T14:06:14Z</time>
      </trkpt>
      <trkpt lat="45.0276" lon="5.44763">
        <ele>793</ele>
        <time>2016-09-11T14:06:15Z</time>
      </trkpt>
      <trkpt lat="45.02753" lon="5.4476">
        <ele>793</ele>
        <time>2016-09-11T14:06:16Z</time>
      </trkpt>
      <trkpt lat="45.02746" lon="5.44757">
        <ele>793</ele>
        <time>2016-09-11T14:06:17Z</time>
      </trkpt>
      <trkpt lat="45.02739" lon="5.44754">
        <ele>792</ele>
        <time>2016-09-11T14:06:18Z</time>
      </trkpt>
      <trkpt lat="45.02732" lon="5.44751">
        <ele>792</ele>
        <time>2016-09-11T14:06:19Z</time>
      </trkpt>
      <trkpt lat="45.02725" lon="5.44748">
        <ele>792</ele>
        <time>2016-09-11T14:06:20Z</time>
      </trkpt>
      <trkpt lat="45.02712" lon="5.44741">
        <ele>791</ele>
        <time>2016-09-11T14:06:22Z</time>
      </trkpt>
      <trkpt lat="45.02705" lon="5.44739">
        <ele>791</ele>
        <time>2016-09-11T14:06:23Z</time>
      </trkpt>
      <trkpt lat="45.02699" lon="5.44736">
        <ele>791</ele>
        <time>2016-09-11T14:06:24Z</time>
      </trkpt>
      <trkpt lat="45.02686" lon="5.44731">
        <ele>790</ele>
        <time>2016-09-11T14:06:26Z</time>
      </trkpt>
      <trkpt lat="45.02681" lon="5.44728">
        <ele>789</ele>
        <time>2016-09-11T14:06:27Z</time>
      </trkpt>
      <trkpt lat="45.02676" lon="5.44726">
        <ele>789</ele>
        <time>2016-09-11T14:06:28Z</time>
      </trkpt>
      <trkpt lat="45.02671" lon="5.44723">
        <ele>788</ele>
        <time>2016-09-11T14:06:29Z</time>
      </trkpt>
      <trkpt lat="45.02667" lon="5.44719">
        <ele>787</ele>
        <time>2016-09-11T14:06:30Z</time>
      </trkpt>
      <trkpt lat="45.02664" lon="5.44709">
        <ele>787</ele>
        <time>2016-09-11T14:06:32Z</time>
      </trkpt>
      <trkpt lat="45.0266" lon="5.44698">
        <ele>786</ele>
        <time>2016-09-11T14:06:34Z</time>
      </trkpt>
      <trkpt lat="45.02654" lon="5.44692">
        <ele>786</ele>
        <time>2016-09-11T14:06:36Z</time>
      </trkpt>
      <trkpt lat="45.02644" lon="5.44692">
        <ele>785</ele>
        <time>2016-09-11T14:06:38Z</time>
      </trkpt>
      <trkpt lat="45.02636" lon="5.44691">
        <ele>785</ele>
        <time>2016-09-11T14:06:40Z</time>
      </trkpt>
      <trkpt lat="45.0263" lon="5.44697">
        <ele>784</ele>
        <time>2016-09-11T14:06:42Z</time>
      </trkpt>
      <trkpt lat="45.02624" lon="5.44705">
        <ele>784</ele>
        <time>2016-09-11T14:06:44Z</time>
      </trkpt>
      <trkpt lat="45.02622" lon="5.44711">
        <ele>783</ele>
        <time>2016-09-11T14:06:45Z</time>
      </trkpt>
      <trkpt lat="45.02619" lon="5.44717">
        <ele>783</ele>
        <time>2016-09-11T14:06:46Z</time>
      </trkpt>
      <trkpt lat="45.02617" lon="5.44723">
        <ele>784</ele>
        <time>2016-09-11T14:06:47Z</time>
      </trkpt>
      <trkpt lat="45.02612" lon="5.44733">
        <ele>784</ele>
        <time>2016-09-11T14:06:49Z</time>
      </trkpt>
      <trkpt lat="45.02608" lon="5.44741">
        <ele>784</ele>
        <time>2016-09-11T14:06:51Z</time>
      </trkpt>
      <trkpt lat="45.02603" lon="5.4475">
        <ele>784</ele>
        <time>2016-09-11T14:06:53Z</time>
      </trkpt>
      <trkpt lat="45.02601" lon="5.44756">
        <ele>784</ele>
        <time>2016-09-11T14:06:54Z</time>
      </trkpt>
      <trkpt lat="45.02598" lon="5.44761">
        <ele>784</ele>
        <time>2016-09-11T14:06:55Z</time>
      </trkpt>
      <trkpt lat="45.02595" lon="5.44767">
        <ele>784</ele>
        <time>2016-09-11T14:06:56Z</time>
      </trkpt>
      <trkpt lat="45.02589" lon="5.44778">
        <ele>784</ele>
        <time>2016-09-11T14:06:58Z</time>
      </trkpt>
      <trkpt lat="45.02587" lon="5.44783">
        <ele>783</ele>
        <time>2016-09-11T14:06:59Z</time>
      </trkpt>
      <trkpt lat="45.02584" lon="5.44788">
        <ele>783</ele>
        <time>2016-09-11T14:07:00Z</time>
      </trkpt>
      <trkpt lat="45.02578" lon="5.44797">
        <ele>782</ele>
        <time>2016-09-11T14:07:02Z</time>
      </trkpt>
      <trkpt lat="45.02572" lon="5.44804">
        <ele>780</ele>
        <time>2016-09-11T14:07:04Z</time>
      </trkpt>
      <trkpt lat="45.02566" lon="5.4481">
        <ele>780</ele>
        <time>2016-09-11T14:07:06Z</time>
      </trkpt>
      <trkpt lat="45.0256" lon="5.44816">
        <ele>780</ele>
        <time>2016-09-11T14:07:08Z</time>
      </trkpt>
      <trkpt lat="45.02554" lon="5.44818">
        <ele>780</ele>
        <time>2016-09-11T14:07:10Z</time>
      </trkpt>
      <trkpt lat="45.0255" lon="5.44823">
        <ele>780</ele>
        <time>2016-09-11T14:07:11Z</time>
      </trkpt>
      <trkpt lat="45.02543" lon="5.44826">
        <ele>780</ele>
        <time>2016-09-11T14:07:13Z</time>
      </trkpt>
      <trkpt lat="45.02536" lon="5.44829">
        <ele>779</ele>
        <time>2016-09-11T14:07:15Z</time>
      </trkpt>
      <trkpt lat="45.02528" lon="5.44832">
        <ele>777</ele>
        <time>2016-09-11T14:07:17Z</time>
      </trkpt>
      <trkpt lat="45.02523" lon="5.44834">
        <ele>776</ele>
        <time>2016-09-11T14:07:18Z</time>
      </trkpt>
      <trkpt lat="45.02518" lon="5.44835">
        <ele>774</ele>
        <time>2016-09-11T14:07:19Z</time>
      </trkpt>
      <trkpt lat="45.02514" lon="5.44837">
        <ele>773</ele>
        <time>2016-09-11T14:07:20Z</time>
      </trkpt>
      <trkpt lat="45.02509" lon="5.4484">
        <ele>771</ele>
        <time>2016-09-11T14:07:21Z</time>
      </trkpt>
      <trkpt lat="45.02505" lon="5.44842">
        <ele>770</ele>
        <time>2016-09-11T14:07:22Z</time>
      </trkpt>
      <trkpt lat="45.02501" lon="5.44844">
        <ele>769</ele>
        <time>2016-09-11T14:07:23Z</time>
      </trkpt>
      <trkpt lat="45.02493" lon="5.44847">
        <ele>769</ele>
        <time>2016-09-11T14:07:25Z</time>
      </trkpt>
      <trkpt lat="45.02486" lon="5.44849">
        <ele>768</ele>
        <time>2016-09-11T14:07:27Z</time>
      </trkpt>
      <trkpt lat="45.02478" lon="5.44844">
        <ele>767</ele>
        <time>2016-09-11T14:07:29Z</time>
      </trkpt>
      <trkpt lat="45.02473" lon="5.44836">
        <ele>766</ele>
        <time>2016-09-11T14:07:31Z</time>
      </trkpt>
      <trkpt lat="45.02469" lon="5.44826">
        <ele>764</ele>
        <time>2016-09-11T14:07:33Z</time>
      </trkpt>
      <trkpt lat="45.02464" lon="5.44815">
        <ele>762</ele>
        <time>2016-09-11T14:07:35Z</time>
      </trkpt>
      <trkpt lat="45.02462" lon="5.44809">
        <ele>761</ele>
        <time>2016-09-11T14:07:36Z</time>
      </trkpt>
      <trkpt lat="45.02459" lon="5.44801">
        <ele>759</ele>
        <time>2016-09-11T14:07:37Z</time>
      </trkpt>
      <trkpt lat="45.02456" lon="5.44793">
        <ele>758</ele>
        <time>2016-09-11T14:07:38Z</time>
      </trkpt>
      <trkpt lat="45.02454" lon="5.44785">
        <ele>757</ele>
        <time>2016-09-11T14:07:39Z</time>
      </trkpt>
      <trkpt lat="45.02451" lon="5.44778">
        <ele>757</ele>
        <time>2016-09-11T14:07:40Z</time>
      </trkpt>
      <trkpt lat="45.02449" lon="5.4477">
        <ele>756</ele>
        <time>2016-09-11T14:07:41Z</time>
      </trkpt>
      <trkpt lat="45.02447" lon="5.44762">
        <ele>755</ele>
        <time>2016-09-11T14:07:42Z</time>
      </trkpt>
      <trkpt lat="45.02445" lon="5.44754">
        <ele>755</ele>
        <time>2016-09-11T14:07:43Z</time>
      </trkpt>
      <trkpt lat="45.02443" lon="5.44747">
        <ele>754</ele>
        <time>2016-09-11T14:07:44Z</time>
      </trkpt>
      <trkpt lat="45.02441" lon="5.4474">
        <ele>753</ele>
        <time>2016-09-11T14:07:45Z</time>
      </trkpt>
      <trkpt lat="45.02438" lon="5.44734">
        <ele>753</ele>
        <time>2016-09-11T14:07:46Z</time>
      </trkpt>
      <trkpt lat="45.02435" lon="5.44722">
        <ele>752</ele>
        <time>2016-09-11T14:07:48Z</time>
      </trkpt>
      <trkpt lat="45.02433" lon="5.44715">
        <ele>751</ele>
        <time>2016-09-11T14:07:49Z</time>
      </trkpt>
      <trkpt lat="45.02431" lon="5.44709">
        <ele>751</ele>
        <time>2016-09-11T14:07:50Z</time>
      </trkpt>
      <trkpt lat="45.02427" lon="5.44699">
        <ele>750</ele>
        <time>2016-09-11T14:07:52Z</time>
      </trkpt>
      <trkpt lat="45.02426" lon="5.44692">
        <ele>749</ele>
        <time>2016-09-11T14:07:53Z</time>
      </trkpt>
      <trkpt lat="45.02427" lon="5.44684">
        <ele>748</ele>
        <time>2016-09-11T14:07:54Z</time>
      </trkpt>
      <trkpt lat="45.02425" lon="5.44677">
        <ele>748</ele>
        <time>2016-09-11T14:07:55Z</time>
      </trkpt>
      <trkpt lat="45.02425" lon="5.44669">
        <ele>748</ele>
        <time>2016-09-11T14:07:56Z</time>
      </trkpt>
      <trkpt lat="45.02424" lon="5.4466">
        <ele>747</ele>
        <time>2016-09-11T14:07:57Z</time>
      </trkpt>
      <trkpt lat="45.02424" lon="5.4465">
        <ele>747</ele>
        <time>2016-09-11T14:07:58Z</time>
      </trkpt>
      <trkpt lat="45.02425" lon="5.44641">
        <ele>747</ele>
        <time>2016-09-11T14:07:59Z</time>
      </trkpt>
      <trkpt lat="45.02425" lon="5.44633">
        <ele>747</ele>
        <time>2016-09-11T14:08:00Z</time>
      </trkpt>
      <trkpt lat="45.02426" lon="5.44623">
        <ele>746</ele>
        <time>2016-09-11T14:08:01Z</time>
      </trkpt>
      <trkpt lat="45.02428" lon="5.44615">
        <ele>746</ele>
        <time>2016-09-11T14:08:02Z</time>
      </trkpt>
      <trkpt lat="45.02429" lon="5.44606">
        <ele>746</ele>
        <time>2016-09-11T14:08:03Z</time>
      </trkpt>
      <trkpt lat="45.0243" lon="5.44596">
        <ele>746</ele>
        <time>2016-09-11T14:08:04Z</time>
      </trkpt>
      <trkpt lat="45.02432" lon="5.44589">
        <ele>746</ele>
        <time>2016-09-11T14:08:05Z</time>
      </trkpt>
      <trkpt lat="45.02434" lon="5.44581">
        <ele>746</ele>
        <time>2016-09-11T14:08:06Z</time>
      </trkpt>
      <trkpt lat="45.02435" lon="5.44573">
        <ele>746</ele>
        <time>2016-09-11T14:08:07Z</time>
      </trkpt>
      <trkpt lat="45.02436" lon="5.44565">
        <ele>746</ele>
        <time>2016-09-11T14:08:08Z</time>
      </trkpt>
      <trkpt lat="45.02436" lon="5.44557">
        <ele>747</ele>
        <time>2016-09-11T14:08:09Z</time>
      </trkpt>
      <trkpt lat="45.02436" lon="5.44548">
        <ele>747</ele>
        <time>2016-09-11T14:08:10Z</time>
      </trkpt>
      <trkpt lat="45.02436" lon="5.44539">
        <ele>747</ele>
        <time>2016-09-11T14:08:11Z</time>
      </trkpt>
      <trkpt lat="45.02435" lon="5.4453">
        <ele>747</ele>
        <time>2016-09-11T14:08:12Z</time>
      </trkpt>
      <trkpt lat="45.02435" lon="5.44522">
        <ele>747</ele>
        <time>2016-09-11T14:08:13Z</time>
      </trkpt>
      <trkpt lat="45.02433" lon="5.44513">
        <ele>746</ele>
        <time>2016-09-11T14:08:14Z</time>
      </trkpt>
      <trkpt lat="45.02433" lon="5.44505">
        <ele>746</ele>
        <time>2016-09-11T14:08:15Z</time>
      </trkpt>
      <trkpt lat="45.02433" lon="5.44496">
        <ele>746</ele>
        <time>2016-09-11T14:08:16Z</time>
      </trkpt>
      <trkpt lat="45.02432" lon="5.44488">
        <ele>746</ele>
        <time>2016-09-11T14:08:17Z</time>
      </trkpt>
      <trkpt lat="45.02433" lon="5.44478">
        <ele>746</ele>
        <time>2016-09-11T14:08:18Z</time>
      </trkpt>
      <trkpt lat="45.02433" lon="5.44469">
        <ele>746</ele>
        <time>2016-09-11T14:08:19Z</time>
      </trkpt>
      <trkpt lat="45.02433" lon="5.44459">
        <ele>746</ele>
        <time>2016-09-11T14:08:20Z</time>
      </trkpt>
      <trkpt lat="45.02433" lon="5.4445">
        <ele>747</ele>
        <time>2016-09-11T14:08:21Z</time>
      </trkpt>
      <trkpt lat="45.02434" lon="5.44441">
        <ele>747</ele>
        <time>2016-09-11T14:08:22Z</time>
      </trkpt>
      <trkpt lat="45.02435" lon="5.44433">
        <ele>747</ele>
        <time>2016-09-11T14:08:23Z</time>
      </trkpt>
      <trkpt lat="45.02436" lon="5.44424">
        <ele>748</ele>
        <time>2016-09-11T14:08:24Z</time>
      </trkpt>
      <trkpt lat="45.02436" lon="5.44416">
        <ele>748</ele>
        <time>2016-09-11T14:08:25Z</time>
      </trkpt>
      <trkpt lat="45.02436" lon="5.44409">
        <ele>749</ele>
        <time>2016-09-11T14:08:26Z</time>
      </trkpt>
      <trkpt lat="45.02437" lon="5.44401">
        <ele>749</ele>
        <time>2016-09-11T14:08:27Z</time>
      </trkpt>
      <trkpt lat="45.02438" lon="5.44395">
        <ele>750</ele>
        <time>2016-09-11T14:08:28Z</time>
      </trkpt>
      <trkpt lat="45.0244" lon="5.44384">
        <ele>751</ele>
        <time>2016-09-11T14:08:30Z</time>
      </trkpt>
      <trkpt lat="45.02441" lon="5.44378">
        <ele>751</ele>
        <time>2016-09-11T14:08:32Z</time>
      </trkpt>
      <trkpt lat="45.02438" lon="5.44372">
        <ele>752</ele>
        <time>2016-09-11T14:08:35Z</time>
      </trkpt>
      <trkpt lat="45.02433" lon="5.4437">
        <ele>752</ele>
        <time>2016-09-11T14:08:37Z</time>
      </trkpt>
      <trkpt lat="45.02427" lon="5.44367">
        <ele>752</ele>
        <time>2016-09-11T14:08:40Z</time>
      </trkpt>
      <trkpt lat="45.02423" lon="5.44363">
        <ele>752</ele>
        <time>2016-09-11T14:08:42Z</time>
      </trkpt>
      <trkpt lat="45.02419" lon="5.44359">
        <ele>752</ele>
        <time>2016-09-11T14:08:44Z</time>
      </trkpt>
      <trkpt lat="45.02411" lon="5.44356">
        <ele>752</ele>
        <time>2016-09-11T14:08:46Z</time>
      </trkpt>
      <trkpt lat="45.02403" lon="5.44355">
        <ele>752</ele>
        <time>2016-09-11T14:08:48Z</time>
      </trkpt>
      <trkpt lat="45.02395" lon="5.44353">
        <ele>752</ele>
        <time>2016-09-11T14:08:50Z</time>
      </trkpt>
      <trkpt lat="45.0239" lon="5.44352">
        <ele>751</ele>
        <time>2016-09-11T14:08:51Z</time>
      </trkpt>
      <trkpt lat="45.02386" lon="5.44351">
        <ele>751</ele>
        <time>2016-09-11T14:08:52Z</time>
      </trkpt>
      <trkpt lat="45.02381" lon="5.4435">
        <ele>751</ele>
        <time>2016-09-11T14:08:53Z</time>
      </trkpt>
      <trkpt lat="45.02377" lon="5.44349">
        <ele>751</ele>
        <time>2016-09-11T14:08:54Z</time>
      </trkpt>
      <trkpt lat="45.02371" lon="5.44348">
        <ele>751</ele>
        <time>2016-09-11T14:08:55Z</time>
      </trkpt>
      <trkpt lat="45.02366" lon="5.44346">
        <ele>751</ele>
        <time>2016-09-11T14:08:56Z</time>
      </trkpt>
      <trkpt lat="45.02362" lon="5.44345">
        <ele>751</ele>
        <time>2016-09-11T14:08:57Z</time>
      </trkpt>
      <trkpt lat="45.02353" lon="5.44342">
        <ele>750</ele>
        <time>2016-09-11T14:08:59Z</time>
      </trkpt>
      <trkpt lat="45.02343" lon="5.44341">
        <ele>750</ele>
        <time>2016-09-11T14:09:01Z</time>
      </trkpt>
      <trkpt lat="45.02338" lon="5.44339">
        <ele>750</ele>
        <time>2016-09-11T14:09:02Z</time>
      </trkpt>
      <trkpt lat="45.02334" lon="5.44338">
        <ele>749</ele>
        <time>2016-09-11T14:09:03Z</time>
      </trkpt>
      <trkpt lat="45.02329" lon="5.44336">
        <ele>749</ele>
        <time>2016-09-11T14:09:04Z</time>
      </trkpt>
      <trkpt lat="45.02325" lon="5.44334">
        <ele>749</ele>
        <time>2016-09-11T14:09:05Z</time>
      </trkpt>
      <trkpt lat="45.0232" lon="5.44332">
        <ele>749</ele>
        <time>2016-09-11T14:09:06Z</time>
      </trkpt>
      <trkpt lat="45.02316" lon="5.44331">
        <ele>749</ele>
        <time>2016-09-11T14:09:07Z</time>
      </trkpt>
      <trkpt lat="45.02311" lon="5.44328">
        <ele>749</ele>
        <time>2016-09-11T14:09:08Z</time>
      </trkpt>
      <trkpt lat="45.02305" lon="5.44327">
        <ele>750</ele>
        <time>2016-09-11T14:09:09Z</time>
      </trkpt>
      <trkpt lat="45.02301" lon="5.44326">
        <ele>750</ele>
        <time>2016-09-11T14:09:10Z</time>
      </trkpt>
      <trkpt lat="45.02296" lon="5.44325">
        <ele>750</ele>
        <time>2016-09-11T14:09:11Z</time>
      </trkpt>
      <trkpt lat="45.02291" lon="5.44324">
        <ele>750</ele>
        <time>2016-09-11T14:09:12Z</time>
      </trkpt>
      <trkpt lat="45.02287" lon="5.44324">
        <ele>751</ele>
        <time>2016-09-11T14:09:13Z</time>
      </trkpt>
      <trkpt lat="45.02277" lon="5.44322">
        <ele>751</ele>
        <time>2016-09-11T14:09:15Z</time>
      </trkpt>
      <trkpt lat="45.02268" lon="5.44319">
        <ele>751</ele>
        <time>2016-09-11T14:09:17Z</time>
      </trkpt>
      <trkpt lat="45.02264" lon="5.44318">
        <ele>750</ele>
        <time>2016-09-11T14:09:18Z</time>
      </trkpt>
      <trkpt lat="45.02259" lon="5.44316">
        <ele>750</ele>
        <time>2016-09-11T14:09:19Z</time>
      </trkpt>
      <trkpt lat="45.02255" lon="5.44314">
        <ele>751</ele>
        <time>2016-09-11T14:09:20Z</time>
      </trkpt>
      <trkpt lat="45.0225" lon="5.44313">
        <ele>751</ele>
        <time>2016-09-11T14:09:21Z</time>
      </trkpt>
      <trkpt lat="45.02242" lon="5.4431">
        <ele>751</ele>
        <time>2016-09-11T14:09:23Z</time>
      </trkpt>
      <trkpt lat="45.02234" lon="5.44308">
        <ele>751</ele>
        <time>2016-09-11T14:09:25Z</time>
      </trkpt>
      <trkpt lat="45.02228" lon="5.44305">
        <ele>751</ele>
        <time>2016-09-11T14:09:27Z</time>
      </trkpt>
      <trkpt lat="45.02225" lon="5.44299">
        <ele>752</ele>
        <time>2016-09-11T14:09:31Z</time>
      </trkpt>
      <trkpt lat="45.02226" lon="5.44296">
        <ele>752</ele>
        <time>2016-09-11T14:09:52Z</time>
      </trkpt>
      <trkpt lat="45.02226" lon="5.44296">
        <ele>752</ele>
        <time>2016-09-11T14:09:56Z</time>
      </trkpt>
      <trkpt lat="45.02226" lon="5.44296">
        <ele>752</ele>
        <time>2016-09-11T14:10:22Z</time>
      </trkpt>
      <trkpt lat="45.02226" lon="5.44296">
        <ele>752</ele>
        <time>2016-09-11T14:10:25Z</time>
      </trkpt>
      <trkpt lat="45.02226" lon="5.44296">
        <ele>752</ele>
        <time>2016-09-11T14:10:53Z</time>
      </trkpt>
      <trkpt lat="45.02226" lon="5.44296">
        <ele>752</ele>
        <time>2016-09-11T14:10:55Z</time>
      </trkpt>
      <trkpt lat="45.02226" lon="5.44296">
        <ele>752</ele>
        <time>2016-09-11T14:11:23Z</time>
      </trkpt>
      <trkpt lat="45.02226" lon="5.44296">
        <ele>752</ele>
        <time>2016-09-11T14:11:25Z</time>
      </trkpt>
      <trkpt lat="45.02226" lon="5.44296">
        <ele>752</ele>
        <time>2016-09-11T14:11:52Z</time>
      </trkpt>
      <trkpt lat="45.02226" lon="5.44296">
        <ele>752</ele>
        <time>2016-09-11T14:11:55Z</time>
      </trkpt>
      <trkpt lat="45.02226" lon="5.44296">
        <ele>752</ele>
        <time>2016-09-11T14:12:23Z</time>
      </trkpt>
      <trkpt lat="45.02226" lon="5.44296">
        <ele>752</ele>
        <time>2016-09-11T14:12:25Z</time>
      </trkpt>
      <trkpt lat="45.02226" lon="5.44296">
        <ele>752</ele>
        <time>2016-09-11T14:12:53Z</time>
      </trkpt>
      <trkpt lat="45.02226" lon="5.44296">
        <ele>752</ele>
        <time>2016-09-11T14:12:55Z</time>
      </trkpt>
      <trkpt lat="45.02226" lon="5.44296">
        <ele>752</ele>
        <time>2016-09-11T14:13:23Z</time>
      </trkpt>
      <trkpt lat="45.02226" lon="5.44296">
        <ele>752</ele>
        <time>2016-09-11T14:13:25Z</time>
      </trkpt>
      <trkpt lat="45.02226" lon="5.44296">
        <ele>752</ele>
        <time>2016-09-11T14:13:53Z</time>
      </trkpt>
      <trkpt lat="45.02226" lon="5.44296">
        <ele>752</ele>
        <time>2016-09-11T14:13:55Z</time>
      </trkpt>
      <trkpt lat="45.02226" lon="5.44296">
        <ele>752</ele>
        <time>2016-09-11T14:14:23Z</time>
      </trkpt>
      <trkpt lat="45.02226" lon="5.44296">
        <ele>752</ele>
        <time>2016-09-11T14:14:25Z</time>
      </trkpt>
      <trkpt lat="45.02226" lon="5.44296">
        <ele>752</ele>
        <time>2016-09-11T14:14:53Z</time>
      </trkpt>
      <trkpt lat="45.02226" lon="5.44296">
        <ele>752</ele>
        <time>2016-09-11T14:14:55Z</time>
      </trkpt>
      <trkpt lat="45.02226" lon="5.44296">
        <ele>752</ele>
        <time>2016-09-11T14:15:23Z</time>
      </trkpt>
      <trkpt lat="45.02226" lon="5.44296">
        <ele>752</ele>
        <time>2016-09-11T14:15:25Z</time>
      </trkpt>
      <trkpt lat="45.02226" lon="5.44296">
        <ele>752</ele>
        <time>2016-09-11T14:15:53Z</time>
      </trkpt>
      <trkpt lat="45.02226" lon="5.44296">
        <ele>752</ele>
        <time>2016-09-11T14:15:55Z</time>
      </trkpt>
      <trkpt lat="45.02226" lon="5.44296">
        <ele>752</ele>
        <time>2016-09-11T14:16:23Z</time>
      </trkpt>
      <trkpt lat="45.02226" lon="5.44296">
        <ele>752</ele>
        <time>2016-09-11T14:16:25Z</time>
      </trkpt>
      <trkpt lat="45.02226" lon="5.44296">
        <ele>752</ele>
        <time>2016-09-11T14:16:53Z</time>
      </trkpt>
      <trkpt lat="45.02226" lon="5.44296">
        <ele>752</ele>
        <time>2016-09-11T14:16:56Z</time>
      </trkpt>
      <trkpt lat="45.02224" lon="5.44302">
        <ele>752</ele>
        <time>2016-09-11T14:17:10Z</time>
      </trkpt>
      <trkpt lat="45.02218" lon="5.443">
        <ele>752</ele>
        <time>2016-09-11T14:17:13Z</time>
      </trkpt>
      <trkpt lat="45.02212" lon="5.44297">
        <ele>752</ele>
        <time>2016-09-11T14:17:15Z</time>
      </trkpt>
      <trkpt lat="45.02205" lon="5.44295">
        <ele>752</ele>
        <time>2016-09-11T14:17:17Z</time>
      </trkpt>
      <trkpt lat="45.02197" lon="5.44293">
        <ele>752</ele>
        <time>2016-09-11T14:17:19Z</time>
      </trkpt>
      <trkpt lat="45.02189" lon="5.4429">
        <ele>752</ele>
        <time>2016-09-11T14:17:21Z</time>
      </trkpt>
      <trkpt lat="45.02181" lon="5.44288">
        <ele>752</ele>
        <time>2016-09-11T14:17:23Z</time>
      </trkpt>
      <trkpt lat="45.02174" lon="5.44284">
        <ele>753</ele>
        <time>2016-09-11T14:17:25Z</time>
      </trkpt>
      <trkpt lat="45.02167" lon="5.44281">
        <ele>753</ele>
        <time>2016-09-11T14:17:27Z</time>
      </trkpt>
      <trkpt lat="45.02163" lon="5.44278">
        <ele>754</ele>
        <time>2016-09-11T14:17:32Z</time>
      </trkpt>
      <trkpt lat="45.02156" lon="5.44276">
        <ele>754</ele>
        <time>2016-09-11T14:17:37Z</time>
      </trkpt>
      <trkpt lat="45.02152" lon="5.44275">
        <ele>753</ele>
        <time>2016-09-11T14:17:39Z</time>
      </trkpt>
      <trkpt lat="45.02146" lon="5.44272">
        <ele>752</ele>
        <time>2016-09-11T14:17:41Z</time>
      </trkpt>
      <trkpt lat="45.02141" lon="5.44269">
        <ele>751</ele>
        <time>2016-09-11T14:17:42Z</time>
      </trkpt>
      <trkpt lat="45.02137" lon="5.44267">
        <ele>750</ele>
        <time>2016-09-11T14:17:43Z</time>
      </trkpt>
      <trkpt lat="45.02132" lon="5.44264">
        <ele>750</ele>
        <time>2016-09-11T14:17:44Z</time>
      </trkpt>
      <trkpt lat="45.02126" lon="5.44259">
        <ele>750</ele>
        <time>2016-09-11T14:17:46Z</time>
      </trkpt>
      <trkpt lat="45.02122" lon="5.44256">
        <ele>751</ele>
        <time>2016-09-11T14:17:49Z</time>
      </trkpt>
      <trkpt lat="45.0212" lon="5.44256">
        <ele>751</ele>
        <time>2016-09-11T14:18:08Z</time>
      </trkpt>
      <trkpt lat="45.02119" lon="5.44257">
        <ele>752</ele>
        <time>2016-09-11T14:18:11Z</time>
      </trkpt>
      <trkpt lat="45.02119" lon="5.44256">
        <ele>752</ele>
        <time>2016-09-11T14:18:38Z</time>
      </trkpt>
      <trkpt lat="45.02119" lon="5.44256">
        <ele>753</ele>
        <time>2016-09-11T14:18:41Z</time>
      </trkpt>
      <trkpt lat="45.02119" lon="5.44256">
        <ele>754</ele>
        <time>2016-09-11T14:19:08Z</time>
      </trkpt>
      <trkpt lat="45.02119" lon="5.44256">
        <ele>754</ele>
        <time>2016-09-11T14:19:11Z</time>
      </trkpt>
      <trkpt lat="45.02119" lon="5.44256">
        <ele>755</ele>
        <time>2016-09-11T14:19:38Z</time>
      </trkpt>
      <trkpt lat="45.02119" lon="5.44256">
        <ele>755</ele>
        <time>2016-09-11T14:19:41Z</time>
      </trkpt>
      <trkpt lat="45.02119" lon="5.44257">
        <ele>755</ele>
        <time>2016-09-11T14:20:08Z</time>
      </trkpt>
      <trkpt lat="45.02119" lon="5.44257">
        <ele>755</ele>
        <time>2016-09-11T14:20:11Z</time>
      </trkpt>
      <trkpt lat="45.0212" lon="5.44259">
        <ele>755</ele>
        <time>2016-09-11T14:20:38Z</time>
      </trkpt>
      <trkpt lat="45.0212" lon="5.44259">
        <ele>755</ele>
        <time>2016-09-11T14:20:41Z</time>
      </trkpt>
      <trkpt lat="45.02126" lon="5.44259">
        <ele>756</ele>
        <time>2016-09-11T14:20:55Z</time>
      </trkpt>
      <trkpt lat="45.0213" lon="5.44256">
        <ele>756</ele>
        <time>2016-09-11T14:20:57Z</time>
      </trkpt>
      <trkpt lat="45.02134" lon="5.44249">
        <ele>756</ele>
        <time>2016-09-11T14:20:59Z</time>
      </trkpt>
      <trkpt lat="45.02139" lon="5.44245">
        <ele>756</ele>
        <time>2016-09-11T14:21:01Z</time>
      </trkpt>
      <trkpt lat="45.02144" lon="5.44246">
        <ele>756</ele>
        <time>2016-09-11T14:21:03Z</time>
      </trkpt>
      <trkpt lat="45.02149" lon="5.44251">
        <ele>756</ele>
        <time>2016-09-11T14:21:05Z</time>
      </trkpt>
      <trkpt lat="45.02153" lon="5.44255">
        <ele>757</ele>
        <time>2016-09-11T14:21:07Z</time>
      </trkpt>
      <trkpt lat="45.02156" lon="5.44262">
        <ele>757</ele>
        <time>2016-09-11T14:21:09Z</time>
      </trkpt>
      <trkpt lat="45.02156" lon="5.44269">
        <ele>757</ele>
        <time>2016-09-11T14:21:11Z</time>
      </trkpt>
      <trkpt lat="45.02156" lon="5.44275">
        <ele>758</ele>
        <time>2016-09-11T14:21:13Z</time>
      </trkpt>
      <trkpt lat="45.0216" lon="5.44282">
        <ele>757</ele>
        <time>2016-09-11T14:21:16Z</time>
      </trkpt>
      <trkpt lat="45.02164" lon="5.44283">
        <ele>757</ele>
        <time>2016-09-11T14:21:18Z</time>
      </trkpt>
      <trkpt lat="45.0217" lon="5.44285">
        <ele>756</ele>
        <time>2016-09-11T14:21:20Z</time>
      </trkpt>
      <trkpt lat="45.02177" lon="5.44287">
        <ele>756</ele>
        <time>2016-09-11T14:21:22Z</time>
      </trkpt>
      <trkpt lat="45.02183" lon="5.44287">
        <ele>755</ele>
        <time>2016-09-11T14:21:24Z</time>
      </trkpt>
      <trkpt lat="45.02188" lon="5.44289">
        <ele>753</ele>
        <time>2016-09-11T14:21:26Z</time>
      </trkpt>
      <trkpt lat="45.02194" lon="5.44291">
        <ele>752</ele>
        <time>2016-09-11T14:21:28Z</time>
      </trkpt>
      <trkpt lat="45.02203" lon="5.44293">
        <ele>751</ele>
        <time>2016-09-11T14:21:30Z</time>
      </trkpt>
      <trkpt lat="45.02211" lon="5.44297">
        <ele>751</ele>
        <time>2016-09-11T14:21:32Z</time>
      </trkpt>
      <trkpt lat="45.02217" lon="5.443">
        <ele>751</ele>
        <time>2016-09-11T14:21:34Z</time>
      </trkpt>
      <trkpt lat="45.02223" lon="5.44302">
        <ele>751</ele>
        <time>2016-09-11T14:21:36Z</time>
      </trkpt>
      <trkpt lat="45.02225" lon="5.44295">
        <ele>752</ele>
        <time>2016-09-11T14:21:52Z</time>
      </trkpt>
      <trkpt lat="45.02226" lon="5.44294">
        <ele>752</ele>
        <time>2016-09-11T14:22:08Z</time>
      </trkpt>
      <trkpt lat="45.02226" lon="5.44294">
        <ele>752</ele>
        <time>2016-09-11T14:22:11Z</time>
      </trkpt>
      <trkpt lat="45.02226" lon="5.44294">
        <ele>751</ele>
        <time>2016-09-11T14:22:38Z</time>
      </trkpt>
      <trkpt lat="45.02226" lon="5.44294">
        <ele>751</ele>
        <time>2016-09-11T14:22:41Z</time>
      </trkpt>
      <trkpt lat="45.02226" lon="5.44294">
        <ele>751</ele>
        <time>2016-09-11T14:23:08Z</time>
      </trkpt>
      <trkpt lat="45.02226" lon="5.44294">
        <ele>751</ele>
        <time>2016-09-11T14:23:11Z</time>
      </trkpt>
      <trkpt lat="45.02226" lon="5.44294">
        <ele>751</ele>
        <time>2016-09-11T14:23:38Z</time>
      </trkpt>
      <trkpt lat="45.02226" lon="5.44294">
        <ele>751</ele>
        <time>2016-09-11T14:23:41Z</time>
      </trkpt>
      <trkpt lat="45.02226" lon="5.44294">
        <ele>751</ele>
        <time>2016-09-11T14:24:08Z</time>
      </trkpt>
      <trkpt lat="45.02226" lon="5.44294">
        <ele>751</ele>
        <time>2016-09-11T14:24:11Z</time>
      </trkpt>
      <trkpt lat="45.02226" lon="5.44294">
        <ele>751</ele>
        <time>2016-09-11T14:24:38Z</time>
      </trkpt>
      <trkpt lat="45.02226" lon="5.44294">
        <ele>751</ele>
        <time>2016-09-11T14:24:41Z</time>
      </trkpt>
      <trkpt lat="45.02226" lon="5.44294">
        <ele>751</ele>
        <time>2016-09-11T14:25:08Z</time>
      </trkpt>
      <trkpt lat="45.02226" lon="5.44294">
        <ele>751</ele>
        <time>2016-09-11T14:25:11Z</time>
      </trkpt>
      <trkpt lat="45.02226" lon="5.44294">
        <ele>751</ele>
        <time>2016-09-11T14:25:38Z</time>
      </trkpt>
      <trkpt lat="45.02226" lon="5.44294">
        <ele>751</ele>
        <time>2016-09-11T14:25:40Z</time>
      </trkpt>
      <trkpt lat="45.02226" lon="5.44294">
        <ele>751</ele>
        <time>2016-09-11T14:26:08Z</time>
      </trkpt>
      <trkpt lat="45.02226" lon="5.44294">
        <ele>751</ele>
        <time>2016-09-11T14:26:11Z</time>
      </trkpt>
      <trkpt lat="45.02226" lon="5.44294">
        <ele>751</ele>
        <time>2016-09-11T14:26:38Z</time>
      </trkpt>
      <trkpt lat="45.02226" lon="5.44294">
        <ele>751</ele>
        <time>2016-09-11T14:26:41Z</time>
      </trkpt>
      <trkpt lat="45.02226" lon="5.44294">
        <ele>751</ele>
        <time>2016-09-11T14:27:08Z</time>
      </trkpt>
      <trkpt lat="45.02226" lon="5.44294">
        <ele>751</ele>
        <time>2016-09-11T14:27:11Z</time>
      </trkpt>
      <trkpt lat="45.02226" lon="5.44294">
        <ele>751</ele>
        <time>2016-09-11T14:27:38Z</time>
      </trkpt>
      <trkpt lat="45.02226" lon="5.44294">
        <ele>751</ele>
        <time>2016-09-11T14:27:41Z</time>
      </trkpt>
      <trkpt lat="45.02226" lon="5.44294">
        <ele>751</ele>
        <time>2016-09-11T14:28:08Z</time>
      </trkpt>
      <trkpt lat="45.02226" lon="5.44294">
        <ele>751</ele>
        <time>2016-09-11T14:28:10Z</time>
      </trkpt>
      <trkpt lat="45.02226" lon="5.44294">
        <ele>751</ele>
        <time>2016-09-11T14:28:38Z</time>
      </trkpt>
      <trkpt lat="45.02226" lon="5.44294">
        <ele>751</ele>
        <time>2016-09-11T14:28:41Z</time>
      </trkpt>
      <trkpt lat="45.02226" lon="5.44294">
        <ele>751</ele>
        <time>2016-09-11T14:29:08Z</time>
      </trkpt>
      <trkpt lat="45.02226" lon="5.44294">
        <ele>751</ele>
        <time>2016-09-11T14:29:11Z</time>
      </trkpt>
      <trkpt lat="45.02226" lon="5.44294">
        <ele>751</ele>
        <time>2016-09-11T14:29:38Z</time>
      </trkpt>
      <trkpt lat="45.02226" lon="5.44294">
        <ele>751</ele>
        <time>2016-09-11T14:29:41Z</time>
      </trkpt>
      <trkpt lat="45.02226" lon="5.44294">
        <ele>751</ele>
        <time>2016-09-11T14:30:08Z</time>
      </trkpt>
      <trkpt lat="45.02226" lon="5.44294">
        <ele>751</ele>
        <time>2016-09-11T14:30:11Z</time>
      </trkpt>
      <trkpt lat="45.02226" lon="5.44294">
        <ele>751</ele>
        <time>2016-09-11T14:30:38Z</time>
      </trkpt>
      <trkpt lat="45.02226" lon="5.44294">
        <ele>751</ele>
        <time>2016-09-11T14:30:41Z</time>
      </trkpt>
      <trkpt lat="45.02226" lon="5.44294">
        <ele>751</ele>
        <time>2016-09-11T14:31:09Z</time>
      </trkpt>
      <trkpt lat="45.02226" lon="5.44294">
        <ele>751</ele>
        <time>2016-09-11T14:31:11Z</time>
      </trkpt>
      <trkpt lat="45.02228" lon="5.44297">
        <ele>750</ele>
        <time>2016-09-11T14:31:38Z</time>
      </trkpt>
      <trkpt lat="45.02228" lon="5.44297">
        <ele>749</ele>
        <time>2016-09-11T14:31:41Z</time>
      </trkpt>
      <trkpt lat="45.02228" lon="5.44297">
        <ele>749</ele>
        <time>2016-09-11T14:32:09Z</time>
      </trkpt>
      <trkpt lat="45.02228" lon="5.44297">
        <ele>748</ele>
        <time>2016-09-11T14:32:11Z</time>
      </trkpt>
      <trkpt lat="45.02228" lon="5.44297">
        <ele>747</ele>
        <time>2016-09-11T14:32:39Z</time>
      </trkpt>
      <trkpt lat="45.02228" lon="5.44297">
        <ele>747</ele>
        <time>2016-09-11T14:32:41Z</time>
      </trkpt>
      <trkpt lat="45.02228" lon="5.44297">
        <ele>747</ele>
        <time>2016-09-11T14:33:09Z</time>
      </trkpt>
      <trkpt lat="45.02228" lon="5.44297">
        <ele>747</ele>
        <time>2016-09-11T14:33:11Z</time>
      </trkpt>
      <trkpt lat="45.02232" lon="5.44299">
        <ele>747</ele>
        <time>2016-09-11T14:33:39Z</time>
      </trkpt>
      <trkpt lat="45.02233" lon="5.44298">
        <ele>748</ele>
        <time>2016-09-11T14:33:41Z</time>
      </trkpt>
      <trkpt lat="45.02232" lon="5.443">
        <ele>748</ele>
        <time>2016-09-11T14:34:09Z</time>
      </trkpt>
      <trkpt lat="45.02232" lon="5.443">
        <ele>748</ele>
        <time>2016-09-11T14:34:11Z</time>
      </trkpt>
      <trkpt lat="45.02232" lon="5.443">
        <ele>748</ele>
        <time>2016-09-11T14:34:39Z</time>
      </trkpt>
      <trkpt lat="45.02232" lon="5.443">
        <ele>748</ele>
        <time>2016-09-11T14:34:41Z</time>
      </trkpt>
      <trkpt lat="45.02232" lon="5.44299">
        <ele>748</ele>
        <time>2016-09-11T14:35:09Z</time>
      </trkpt>
      <trkpt lat="45.02232" lon="5.44299">
        <ele>748</ele>
        <time>2016-09-11T14:35:11Z</time>
      </trkpt>
      <trkpt lat="45.02232" lon="5.44299">
        <ele>748</ele>
        <time>2016-09-11T14:35:39Z</time>
      </trkpt>
      <trkpt lat="45.02232" lon="5.44299">
        <ele>748</ele>
        <time>2016-09-11T14:35:41Z</time>
      </trkpt>
      <trkpt lat="45.02232" lon="5.44299">
        <ele>748</ele>
        <time>2016-09-11T14:36:09Z</time>
      </trkpt>
      <trkpt lat="45.02232" lon="5.44299">
        <ele>748</ele>
        <time>2016-09-11T14:36:11Z</time>
      </trkpt>
      <trkpt lat="45.02232" lon="5.44298">
        <ele>748</ele>
        <time>2016-09-11T14:36:39Z</time>
      </trkpt>
      <trkpt lat="45.02232" lon="5.44298">
        <ele>748</ele>
        <time>2016-09-11T14:36:41Z</time>
      </trkpt>
      <trkpt lat="45.02232" lon="5.44298">
        <ele>748</ele>
        <time>2016-09-11T14:37:09Z</time>
      </trkpt>
      <trkpt lat="45.02232" lon="5.44298">
        <ele>748</ele>
        <time>2016-09-11T14:37:12Z</time>
      </trkpt>
      <trkpt lat="45.02232" lon="5.44298">
        <ele>748</ele>
        <time>2016-09-11T14:37:39Z</time>
      </trkpt>
      <trkpt lat="45.02232" lon="5.44298">
        <ele>748</ele>
        <time>2016-09-11T14:37:41Z</time>
      </trkpt>
      <trkpt lat="45.02232" lon="5.44298">
        <ele>748</ele>
        <time>2016-09-11T14:38:09Z</time>
      </trkpt>
      <trkpt lat="45.02232" lon="5.44298">
        <ele>748</ele>
        <time>2016-09-11T14:38:12Z</time>
      </trkpt>
      <trkpt lat="45.02232" lon="5.44298">
        <ele>749</ele>
        <time>2016-09-11T14:38:39Z</time>
      </trkpt>
      <trkpt lat="45.02232" lon="5.44298">
        <ele>749</ele>
        <time>2016-09-11T14:38:42Z</time>
      </trkpt>
      <trkpt lat="45.02232" lon="5.44298">
        <ele>749</ele>
        <time>2016-09-11T14:39:09Z</time>
      </trkpt>
      <trkpt lat="45.02232" lon="5.44298">
        <ele>749</ele>
        <time>2016-09-11T14:39:12Z</time>
      </trkpt>
      <trkpt lat="45.02232" lon="5.44298">
        <ele>749</ele>
        <time>2016-09-11T14:39:39Z</time>
      </trkpt>
      <trkpt lat="45.02232" lon="5.44298">
        <ele>749</ele>
        <time>2016-09-11T14:39:42Z</time>
      </trkpt>
      <trkpt lat="45.02232" lon="5.44298">
        <ele>749</ele>
        <time>2016-09-11T14:40:09Z</time>
      </trkpt>
      <trkpt lat="45.02232" lon="5.44298">
        <ele>749</ele>
        <time>2016-09-11T14:40:12Z</time>
      </trkpt>
      <trkpt lat="45.02232" lon="5.44298">
        <ele>749</ele>
        <time>2016-09-11T14:40:39Z</time>
      </trkpt>
      <trkpt lat="45.02232" lon="5.44298">
        <ele>749</ele>
        <time>2016-09-11T14:40:42Z</time>
      </trkpt>
      <trkpt lat="45.02232" lon="5.44298">
        <ele>749</ele>
        <time>2016-09-11T14:41:09Z</time>
      </trkpt>
      <trkpt lat="45.02232" lon="5.44298">
        <ele>749</ele>
        <time>2016-09-11T14:41:12Z</time>
      </trkpt>
      <trkpt lat="45.02232" lon="5.44298">
        <ele>749</ele>
        <time>2016-09-11T14:41:39Z</time>
      </trkpt>
      <trkpt lat="45.02232" lon="5.44298">
        <ele>749</ele>
        <time>2016-09-11T14:41:42Z</time>
      </trkpt>
      <trkpt lat="45.02232" lon="5.44298">
        <ele>749</ele>
        <time>2016-09-11T14:42:09Z</time>
      </trkpt>
      <trkpt lat="45.02232" lon="5.44298">
        <ele>749</ele>
        <time>2016-09-11T14:42:12Z</time>
      </trkpt>
      <trkpt lat="45.02232" lon="5.44298">
        <ele>749</ele>
        <time>2016-09-11T14:42:39Z</time>
      </trkpt>
      <trkpt lat="45.02232" lon="5.44298">
        <ele>749</ele>
        <time>2016-09-11T14:42:42Z</time>
      </trkpt>
      <trkpt lat="45.02232" lon="5.44298">
        <ele>749</ele>
        <time>2016-09-11T14:43:09Z</time>
      </trkpt>
      <trkpt lat="45.02232" lon="5.44298">
        <ele>749</ele>
        <time>2016-09-11T14:43:12Z</time>
      </trkpt>
      <trkpt lat="45.02232" lon="5.44297">
        <ele>749</ele>
        <time>2016-09-11T14:43:39Z</time>
      </trkpt>
      <trkpt lat="45.02232" lon="5.44297">
        <ele>749</ele>
        <time>2016-09-11T14:43:42Z</time>
      </trkpt>
      <trkpt lat="45.02232" lon="5.44297">
        <ele>749</ele>
        <time>2016-09-11T14:44:09Z</time>
      </trkpt>
      <trkpt lat="45.02232" lon="5.44297">
        <ele>749</ele>
        <time>2016-09-11T14:44:12Z</time>
      </trkpt>
      <trkpt lat="45.02232" lon="5.44297">
        <ele>749</ele>
        <time>2016-09-11T14:44:39Z</time>
      </trkpt>
      <trkpt lat="45.02232" lon="5.44297">
        <ele>749</ele>
        <time>2016-09-11T14:44:42Z</time>
      </trkpt>
      <trkpt lat="45.02232" lon="5.44297">
        <ele>749</ele>
        <time>2016-09-11T14:45:09Z</time>
      </trkpt>
      <trkpt lat="45.02232" lon="5.44297">
        <ele>749</ele>
        <time>2016-09-11T14:45:12Z</time>
      </trkpt>
      <trkpt lat="45.02232" lon="5.44297">
        <ele>749</ele>
        <time>2016-09-11T14:45:39Z</time>
      </trkpt>
      <trkpt lat="45.02232" lon="5.44297">
        <ele>749</ele>
        <time>2016-09-11T14:45:42Z</time>
      </trkpt>
      <trkpt lat="45.02232" lon="5.44297">
        <ele>749</ele>
        <time>2016-09-11T14:46:09Z</time>
      </trkpt>
      <trkpt lat="45.02232" lon="5.44297">
        <ele>749</ele>
        <time>2016-09-11T14:46:12Z</time>
      </trkpt>
      <trkpt lat="45.02231" lon="5.44297">
        <ele>749</ele>
        <time>2016-09-11T14:46:39Z</time>
      </trkpt>
      <trkpt lat="45.02231" lon="5.44297">
        <ele>749</ele>
        <time>2016-09-11T14:46:42Z</time>
      </trkpt>
      <trkpt lat="45.02231" lon="5.44297">
        <ele>749</ele>
        <time>2016-09-11T14:47:09Z</time>
      </trkpt>
      <trkpt lat="45.02231" lon="5.44297">
        <ele>749</ele>
        <time>2016-09-11T14:47:13Z</time>
      </trkpt>
      <trkpt lat="45.02231" lon="5.44297">
        <ele>749</ele>
        <time>2016-09-11T14:47:39Z</time>
      </trkpt>
      <trkpt lat="45.02231" lon="5.44297">
        <ele>749</ele>
        <time>2016-09-11T14:47:42Z</time>
      </trkpt>
      <trkpt lat="45.02231" lon="5.44297">
        <ele>749</ele>
        <time>2016-09-11T14:48:09Z</time>
      </trkpt>
      <trkpt lat="45.02231" lon="5.44297">
        <ele>749</ele>
        <time>2016-09-11T14:48:12Z</time>
      </trkpt>
      <trkpt lat="45.02231" lon="5.44297">
        <ele>749</ele>
        <time>2016-09-11T14:48:39Z</time>
      </trkpt>
      <trkpt lat="45.02231" lon="5.44297">
        <ele>749</ele>
        <time>2016-09-11T14:48:42Z</time>
      </trkpt>
      <trkpt lat="45.02231" lon="5.44297">
        <ele>749</ele>
        <time>2016-09-11T14:49:09Z</time>
      </trkpt>
      <trkpt lat="45.02231" lon="5.44297">
        <ele>749</ele>
        <time>2016-09-11T14:49:11Z</time>
      </trkpt>
      <trkpt lat="45.02231" lon="5.44297">
        <ele>749</ele>
        <time>2016-09-11T14:49:40Z</time>
      </trkpt>
      <trkpt lat="45.02231" lon="5.44297">
        <ele>749</ele>
        <time>2016-09-11T14:49:42Z</time>
      </trkpt>
      <trkpt lat="45.02231" lon="5.44297">
        <ele>749</ele>
        <time>2016-09-11T14:50:10Z</time>
      </trkpt>
      <trkpt lat="45.02231" lon="5.44297">
        <ele>749</ele>
        <time>2016-09-11T14:50:13Z</time>
      </trkpt>
      <trkpt lat="45.02231" lon="5.44297">
        <ele>749</ele>
        <time>2016-09-11T14:50:40Z</time>
      </trkpt>
      <trkpt lat="45.02231" lon="5.44297">
        <ele>749</ele>
        <time>2016-09-11T14:50:43Z</time>
      </trkpt>
      <trkpt lat="45.02231" lon="5.44297">
        <ele>749</ele>
        <time>2016-09-11T14:51:10Z</time>
      </trkpt>
      <trkpt lat="45.02231" lon="5.44297">
        <ele>749</ele>
        <time>2016-09-11T14:51:13Z</time>
      </trkpt>
      <trkpt lat="45.02231" lon="5.44297">
        <ele>749</ele>
        <time>2016-09-11T14:51:40Z</time>
      </trkpt>
      <trkpt lat="45.02231" lon="5.44297">
        <ele>749</ele>
        <time>2016-09-11T14:51:42Z</time>
      </trkpt>
      <trkpt lat="45.02231" lon="5.44297">
        <ele>749</ele>
        <time>2016-09-11T14:52:10Z</time>
      </trkpt>
      <trkpt lat="45.02231" lon="5.44297">
        <ele>749</ele>
        <time>2016-09-11T14:52:13Z</time>
      </trkpt>
      <trkpt lat="45.02231" lon="5.44297">
        <ele>749</ele>
        <time>2016-09-11T14:52:40Z</time>
      </trkpt>
      <trkpt lat="45.02231" lon="5.44297">
        <ele>749</ele>
        <time>2016-09-11T14:52:43Z</time>
      </trkpt>
      <trkpt lat="45.02231" lon="5.44297">
        <ele>749</ele>
        <time>2016-09-11T14:53:10Z</time>
      </trkpt>
      <trkpt lat="45.02231" lon="5.44297">
        <ele>749</ele>
        <time>2016-09-11T14:53:13Z</time>
      </trkpt>
      <trkpt lat="45.02231" lon="5.44297">
        <ele>749</ele>
        <time>2016-09-11T14:53:40Z</time>
      </trkpt>
      <trkpt lat="45.02231" lon="5.44297">
        <ele>749</ele>
        <time>2016-09-11T14:53:43Z</time>
      </trkpt>
      <trkpt lat="45.02231" lon="5.44297">
        <ele>750</ele>
        <time>2016-09-11T14:54:10Z</time>
      </trkpt>
      <trkpt lat="45.02231" lon="5.44297">
        <ele>750</ele>
        <time>2016-09-11T14:54:13Z</time>
      </trkpt>
    </trkseg>
  </trk>
</gpx>